
Distance (Route):
Temperature : 22.9°C
Humidity : 50.6%
Pressure : 0hPa| Receiver | Frames | First received | Last received |
|---|---|---|---|
| OE3MUC-15 | 1257 | 2026-09-04 23:33:14 | 2026-09-05 01:51:00 |
| OM5KV | 774 | 2026-09-04 23:36:11 | 2026-09-05 02:23:42 |
| PETON7-10 | 488 | 2026-09-04 23:33:18 | 2026-09-05 02:11:37 |
| HA6NAB-11 | 304 | 2026-09-04 23:53:13 | 2026-09-05 02:17:51 |
| PG1ADW-2 | 283 | 2026-09-04 23:42:38 | 2026-09-05 01:58:44 |
| ATIDSZ-14 | 269 | 2026-09-04 23:36:30 | 2026-09-05 02:21:51 |
| OE5MMP-10 | 253 | 2026-09-05 00:35:31 | 2026-09-05 01:43:13 |
| OE5DRO-10 | 217 | 2026-09-04 23:45:09 | 2026-09-05 01:58:47 |
| OE3OSB-13 | 190 | 2026-09-04 23:32:45 | 2026-09-05 02:15:56 |
| DO3MHA-11 | 144 | 2026-09-05 00:28:33 | 2026-09-05 01:49:21 |
| OE3JTB-15 | 109 | 2026-09-04 23:31:29 | 2026-09-05 02:06:30 |
| S52SK | 104 | 2026-09-04 23:39:19 | 2026-09-05 02:09:06 |
| DO3MHA-12 | 78 | 2026-09-05 00:29:09 | 2026-09-05 01:48:43 |
| OE5DXL-15 | 68 | 2026-09-05 00:22:42 | 2026-09-05 01:52:31 |
| GYPAP8-17 | 46 | 2026-09-05 00:22:32 | 2026-09-05 02:06:19 |
| SP9KGR-15 | 45 | 2026-09-05 00:56:51 | 2026-09-05 01:27:27 |
| OE5WHR-10 | 41 | 2026-09-05 01:10:21 | 2026-09-05 01:30:29 |
| POL2MAQ | 26 | 2026-09-05 01:43:34 | 2026-09-05 02:04:45 |
| SONDE2-11 | 18 | 2026-09-05 01:19:21 | 2026-09-05 01:36:56 |
| SQ9EZE-14 | 15 | 2026-09-05 00:42:01 | 2026-09-05 01:41:40 |
| EDDB2-12 | 9 | 2026-09-05 01:26:46 | 2026-09-05 01:36:36 |
| SP3BTT-10 | 6 | 2026-09-05 01:02:45 | 2026-09-05 01:23:01 |
| DG1MFX-10 | 5 | 2026-09-05 01:12:07 | 2026-09-05 01:29:39 |
| LZ4TU-5 | 5 | 2026-09-05 01:22:43 | 2026-09-05 01:27:44 |
| POL1PZ | 5 | 2026-09-05 01:25:54 | 2026-09-05 01:29:11 |
| DB0NH | 4 | 2026-09-05 01:23:07 | 2026-09-05 01:35:27 |
| 9A1FER-10 | 3 | 2026-09-05 01:13:21 | 2026-09-05 01:14:36 |
| 9A1FER-3 | 1 | 2026-09-05 00:43:45 | 2026-09-05 00:43:45 |
| Receiver | Date | Latitude | Longitude | Direction | Speed | Altitude | Climb | Temperature | Humidity | Pressure | Voltage | Killtimer | Uptime | BKT | XDATA |
|---|---|---|---|---|---|---|---|---|---|---|---|---|---|---|---|
| OM5KV | 2026-09-05 02:23:42 | 48.20890 | 18.64942 | 114° | 20km/h | 300m | -5.1m/s | 22.9°C | 50.6% | 0hPa | 2.4V | 07:36:00 | 00:00:00 | 00:00:00 | |
| OM5KV | 2026-09-05 02:23:41 | 48.20892 | 18.64935 | 115° | 18km/h | 305m | -5.5m/s | 22.9°C | 50.6% | 0hPa | 2.4V | 07:36:00 | 00:00:00 | 00:00:00 | |
| OM5KV | 2026-09-05 02:23:41 | 48.20892 | 18.64935 | 115° | 18km/h | 305m | -5.5m/s | 22.9°C | 50.6% | 0hPa | 2.4V | 07:36:00 | 00:00:00 | 00:00:00 | |
| OM5KV | 2026-09-05 02:23:35 | 48.20903 | 18.64892 | 110° | 22km/h | 335m | -5.0m/s | 22.8°C | 51.4% | 0hPa | 2.4V | 07:36:00 | 00:00:00 | 00:00:00 | |
| OM5KV | 2026-09-05 02:23:34 | 48.20905 | 18.64884 | 108° | 24km/h | 340m | -5.1m/s | 22.7°C | 51.6% | 0hPa | 2.4V | 07:36:00 | 00:00:00 | 00:00:00 | |
| OM5KV | 2026-09-05 02:23:30 | 48.20914 | 18.64849 | 111° | 27km/h | 360m | -5.0m/s | 22.7°C | 51.8% | 0hPa | 2.4V | 07:36:00 | 00:00:00 | 00:00:00 | |
| OM5KV | 2026-09-05 02:23:29 | 48.20916 | 18.64839 | 109° | 27km/h | 365m | -5.0m/s | 22.6°C | 51.9% | 0hPa | 2.4V | 07:36:00 | 00:00:00 | 00:00:00 | |
| OM5KV | 2026-09-05 02:23:28 | 48.20918 | 18.64830 | 108° | 27km/h | 370m | -4.7m/s | 22.6°C | 52.0% | 0hPa | 2.4V | 07:36:00 | 00:00:00 | 00:00:00 | |
| OM5KV | 2026-09-05 02:23:23 | 48.20929 | 18.64779 | 107° | 29km/h | 394m | -5.3m/s | 22.5°C | 52.2% | 0hPa | 2.4V | 07:36:00 | 00:00:00 | 00:00:00 | |
| OM5KV | 2026-09-05 02:23:13 | 48.20948 | 18.64653 | 102° | 37km/h | 447m | -5.0m/s | 22.8°C | 51.6% | 0hPa | 2.4V | 07:36:00 | 00:00:00 | 00:00:00 | |
| OM5KV | 2026-09-05 02:23:11 | 48.20952 | 18.64625 | 105° | 38km/h | 458m | -5.9m/s | 22.8°C | 51.3% | 0hPa | 2.4V | 07:36:00 | 00:00:00 | 00:00:00 | |
| OM5KV | 2026-09-05 02:23:08 | 48.20958 | 18.64582 | 103° | 40km/h | 474m | -5.5m/s | 23.2°C | 50.0% | 0hPa | 2.4V | 07:36:00 | 00:00:00 | 00:00:00 | |
| OM5KV | 2026-09-05 02:23:05 | 48.20962 | 18.64536 | 100° | 42km/h | 490m | -5.5m/s | 23.7°C | 47.9% | 0hPa | 2.4V | 07:36:00 | 00:00:00 | 00:00:00 | |
| OM5KV | 2026-09-05 02:23:05 | 48.20962 | 18.64536 | 100° | 42km/h | 490m | -5.5m/s | 23.7°C | 47.9% | 0hPa | 2.4V | 07:36:00 | 00:00:00 | 00:00:00 | |
| OM5KV | 2026-09-05 02:23:00 | 48.20971 | 18.64457 | 102° | 42km/h | 515m | -4.9m/s | 24.5°C | 44.5% | 0hPa | 2.4V | 07:36:00 | 00:00:00 | 00:00:00 | |
| OM5KV | 2026-09-05 02:22:55 | 48.20982 | 18.64380 | 105° | 42km/h | 542m | -5.0m/s | 24.3°C | 44.7% | 0hPa | 2.4V | 07:36:00 | 00:00:00 | 00:00:00 | |
| OM5KV | 2026-09-05 02:22:54 | 48.20984 | 18.64365 | 108° | 40km/h | 547m | -4.9m/s | 24.3°C | 44.8% | 0hPa | 2.4V | 07:36:00 | 00:00:00 | 00:00:00 | |
| OM5KV | 2026-09-05 02:22:49 | 48.20998 | 18.64289 | 108° | 42km/h | 572m | -5.2m/s | 24.0°C | 45.2% | 0hPa | 2.4V | 07:37:00 | 00:00:00 | 00:00:00 | |
| OM5KV | 2026-09-05 02:22:43 | 48.21018 | 18.64197 | 110° | 42km/h | 603m | -5.3m/s | 23.8°C | 45.0% | 0hPa | 2.4V | 07:37:00 | 00:00:00 | 00:00:00 | |
| OM5KV | 2026-09-05 02:22:42 | 48.21021 | 18.64182 | 111° | 42km/h | 608m | -4.9m/s | 23.7°C | 45.0% | 0hPa | 2.4V | 07:37:00 | 00:00:00 | 00:00:00 | |
| OM5KV | 2026-09-05 02:22:38 | 48.21036 | 18.64121 | 112° | 42km/h | 629m | -5.2m/s | 23.7°C | 44.1% | 0hPa | 2.4V | 07:37:00 | 00:00:00 | 00:00:00 | |
| OM5KV | 2026-09-05 02:22:37 | 48.21040 | 18.64106 | 112° | 42km/h | 634m | -5.1m/s | 23.8°C | 43.9% | 0hPa | 2.4V | 07:37:00 | 00:00:00 | 00:00:00 | |
| OM5KV | 2026-09-05 02:22:32 | 48.21062 | 18.64030 | 117° | 46km/h | 659m | -4.8m/s | 24.0°C | 43.0% | 0hPa | 2.4V | 07:37:00 | 00:00:00 | 00:00:00 | |
| OM5KV | 2026-09-05 02:22:31 | 48.21083 | 18.64014 | 115° | 46km/h | 664m | -5.1m/s | 23.9°C | 43.0% | 0hPa | 2.4V | 07:37:00 | 00:00:00 | 00:00:00 | |
| OM5KV | 2026-09-05 02:22:26 | 48.21092 | 18.63930 | 115° | 49km/h | 689m | -4.9m/s | 24.2°C | 42.0% | 0hPa | 2.4V | 07:37:00 | 00:00:00 | 00:00:00 | |
| OM5KV | 2026-09-05 02:22:20 | 48.21124 | 18.63823 | 116° | 53km/h | 720m | -4.8m/s | 24.2°C | 41.7% | 0hPa | 2.4V | 07:37:00 | 00:00:00 | 00:00:00 | |
| OM5KV | 2026-09-05 02:22:20 | 48.21124 | 18.63823 | 116° | 53km/h | 720m | -4.8m/s | 24.2°C | 41.7% | 0hPa | 2.4V | 07:37:00 | 00:00:00 | 00:00:00 | |
| OM5KV | 2026-09-05 02:22:15 | 48.21153 | 18.63730 | 114° | 57km/h | 745m | -5.4m/s | 24.4°C | 41.3% | 0hPa | 2.4V | 07:37:00 | 00:00:00 | 00:00:00 | |
| OM5KV | 2026-09-05 02:22:14 | 48.21159 | 18.63710 | 115° | 57km/h | 750m | -5.0m/s | 24.5°C | 41.1% | 0hPa | 2.4V | 07:37:00 | 00:00:00 | 00:00:00 | |
| OM5KV | 2026-09-05 02:22:09 | 48.21188 | 18.63612 | 115° | 57km/h | 775m | -5.4m/s | 24.5°C | 41.2% | 0hPa | 2.4V | 07:37:00 | 00:00:00 | 00:00:00 | |
| OM5KV | 2026-09-05 02:22:08 | 48.21194 | 18.63593 | 115° | 57km/h | 780m | -5.7m/s | 24.4°C | 41.2% | 0hPa | 2.4V | 07:37:00 | 00:00:00 | 00:00:00 | |
| OM5KV | 2026-09-05 02:22:04 | 48.21223 | 18.63495 | 114° | 55km/h | 807m | -4.5m/s | 24.2°C | 41.8% | 0hPa | 2.4V | 07:37:00 | 00:00:00 | 00:00:00 | |
| OM5KV | 2026-09-05 02:21:57 | 48.21260 | 18.63380 | 116° | 55km/h | 836m | -5.4m/s | 23.9°C | 42.4% | 0hPa | 2.4V | 07:38:00 | 00:00:00 | 00:00:00 | |
| OM5KV | 2026-09-05 02:21:52 | 48.21290 | 18.63282 | 116° | 57km/h | 862m | -5.0m/s | 23.7°C | 42.9% | 0hPa | 2.4V | 07:38:00 | 00:00:00 | 00:00:00 | |
| ATIDSZ-14 | 2026-09-05 02:21:51 | 48.21297 | 18.63262 | 116° | 57km/h | 866m | -4.9m/s | 23.7°C | 43.2% | 0hPa | 2.4V | 00:00:00 | 00:00:00 | 00:00:00 | |
| OM5KV | 2026-09-05 02:21:45 | 48.21335 | 18.63148 | 117° | 57km/h | 897m | -5.5m/s | 23.4°C | 43.8% | 0hPa | 2.4V | 07:38:00 | 00:00:00 | 00:00:00 | |
| OM5KV | 2026-09-05 02:21:41 | 48.21368 | 18.63052 | 118° | 57km/h | 924m | -6.4m/s | 23.1°C | 44.3% | 0hPa | 2.4V | 07:38:00 | 00:00:00 | 00:00:00 | |
| OM5KV | 2026-09-05 02:21:40 | 48.21368 | 18.63052 | 118° | 57km/h | 924m | -6.4m/s | 23.1°C | 44.3% | 0hPa | 2.4V | 07:38:00 | 00:00:00 | 00:00:00 | |
| OM5KV | 2026-09-05 02:21:35 | 48.21401 | 18.62956 | 118° | 58km/h | 953m | -5.8m/s | 22.8°C | 45.1% | 0hPa | 2.4V | 07:38:00 | 00:00:00 | 00:00:00 | |
| OM5KV | 2026-09-05 02:21:34 | 48.21408 | 18.62937 | 119° | 57km/h | 958m | -6.1m/s | 22.8°C | 45.2% | 0hPa | 2.4V | 07:38:00 | 00:00:00 | 00:00:00 | |
| OM5KV | 2026-09-05 02:21:33 | 48.21415 | 18.62918 | 119° | 58km/h | 964m | -6.0m/s | 22.7°C | 45.4% | 0hPa | 2.4V | 07:38:00 | 00:00:00 | 00:00:00 | |
| OM5KV | 2026-09-05 02:21:24 | 48.21477 | 18.62746 | 120° | 58km/h | 1018m | -5.6m/s | 22.2°C | 46.6% | 0hPa | 2.4V | 07:38:00 | 00:00:00 | 00:00:00 | |
| OM5KV | 2026-09-05 02:21:23 | 48.21484 | 18.62726 | 118° | 58km/h | 1024m | -5.6m/s | 22.2°C | 47.0% | 0hPa | 2.4V | 07:38:00 | 00:00:00 | 00:00:00 | |
| ATIDSZ-14 | 2026-09-05 02:21:19 | 48.21512 | 18.62647 | 119° | 60km/h | 1045m | -5.3m/s | 21.9°C | 47.7% | 0hPa | 2.4V | 00:00:00 | 00:00:00 | 00:00:00 | |
| OM5KV | 2026-09-05 02:21:18 | 48.21519 | 18.62627 | 119° | 60km/h | 1050m | -5.3m/s | 21.9°C | 48.0% | 0hPa | 2.4V | 07:38:00 | 00:00:00 | 00:00:00 | |
| OM5KV | 2026-09-05 02:21:17 | 48.21526 | 18.62607 | 118° | 60km/h | 1056m | -5.4m/s | 21.8°C | 48.2% | 0hPa | 2.4V | 07:38:00 | 00:00:00 | 00:00:00 | |
| OM5KV | 2026-09-05 02:21:11 | 48.21567 | 18.62486 | 117° | 58km/h | 1088m | -5.2m/s | 21.5°C | 49.0% | 0hPa | 2.4V | 07:39:00 | 00:00:00 | 00:00:00 | |
| OM5KV | 2026-09-05 02:21:10 | 48.21574 | 18.62467 | 117° | 58km/h | 1093m | -5.3m/s | 21.5°C | 49.2% | 0hPa | 2.4V | 07:39:00 | 00:00:00 | 00:00:00 | |
| OM5KV | 2026-09-05 02:21:05 | 48.21608 | 18.62366 | 118° | 60km/h | 1120m | -5.6m/s | 21.2°C | 49.8% | 0hPa | 2.4V | 07:39:00 | 00:00:00 | 00:00:00 | |
| OM5KV | 2026-09-05 02:20:59 | 48.21647 | 18.62244 | 116° | 58km/h | 1152m | -6.2m/s | 21.1°C | 50.3% | 0hPa | 2.4V | 07:39:00 | 00:00:00 | 00:00:00 | |
| OM5KV | 2026-09-05 02:20:55 | 48.21672 | 18.62163 | 114° | 58km/h | 1176m | -5.9m/s | 20.9°C | 50.9% | 0hPa | 2.4V | 07:39:00 | 00:00:00 | 00:00:00 | |
| OM5KV | 2026-09-05 02:20:54 | 48.21677 | 18.62143 | 114° | 58km/h | 1182m | -6.0m/s | 20.8°C | 51.0% | 0hPa | 2.4V | 07:39:00 | 00:00:00 | 00:00:00 | |
| OM5KV | 2026-09-05 02:20:53 | 48.21684 | 18.62122 | 114° | 58km/h | 1188m | -6.0m/s | 20.8°C | 51.1% | 0hPa | 2.4V | 07:39:00 | 00:00:00 | 00:00:00 | |
| ATIDSZ-14 | 2026-09-05 02:20:51 | 48.21696 | 18.62081 | 113° | 60km/h | 1199m | -5.8m/s | 20.7°C | 51.4% | 0hPa | 2.4V | 07:39:00 | 00:00:00 | 00:00:00 | |
| OM5KV | 2026-09-05 02:20:49 | 48.21707 | 18.62038 | 113° | 60km/h | 1209m | -5.6m/s | 20.5°C | 51.7% | 0hPa | 2.4V | 07:39:00 | 00:00:00 | 00:00:00 | |
| OM5KV | 2026-09-05 02:20:48 | 48.21713 | 18.62017 | 113° | 60km/h | 1215m | -5.4m/s | 20.5°C | 51.9% | 0hPa | 2.4V | 07:39:00 | 00:00:00 | 00:00:00 | |
| OM5KV | 2026-09-05 02:20:46 | 48.21724 | 18.61975 | 114° | 58km/h | 1226m | -5.9m/s | 20.4°C | 52.1% | 0hPa | 2.4V | 07:39:00 | 00:00:00 | 00:00:00 | |
| OM5KV | 2026-09-05 02:20:41 | 48.21753 | 18.61872 | 112° | 60km/h | 1254m | -5.5m/s | 20.1°C | 52.9% | 0hPa | 2.4V | 07:39:00 | 00:00:00 | 00:00:00 | |
| OM5KV | 2026-09-05 02:20:36 | 48.21779 | 18.61766 | 111° | 58km/h | 1281m | -5.6m/s | 20.0°C | 53.2% | 0hPa | 2.4V | 07:39:00 | 00:00:00 | 00:00:00 | |
| OM5KV | 2026-09-05 02:20:35 | 48.21784 | 18.61745 | 113° | 58km/h | 1287m | -6.2m/s | 19.9°C | 53.3% | 0hPa | 2.4V | 07:39:00 | 00:00:00 | 00:00:00 | |
| OM5KV | 2026-09-05 02:20:30 | 48.21810 | 18.61639 | 110° | 60km/h | 1315m | -5.8m/s | 19.7°C | 53.9% | 0hPa | 2.4V | 07:39:00 | 00:00:00 | 00:00:00 | |
| ATIDSZ-14 | 2026-09-05 02:20:29 | 48.21815 | 18.61618 | 111° | 58km/h | 1321m | -6.1m/s | 19.6°C | 54.1% | 0hPa | 2.4V | 07:39:00 | 00:00:00 | 00:00:00 | |
| OM5KV | 2026-09-05 02:20:24 | 48.21840 | 18.61512 | 110° | 58km/h | 1350m | -5.8m/s | 19.4°C | 54.9% | 0hPa | 2.4V | 07:39:00 | 00:00:00 | 00:00:00 | |
| OM5KV | 2026-09-05 02:20:21 | 48.21856 | 18.61449 | 110° | 60km/h | 1366m | -5.7m/s | 19.2°C | 55.3% | 0hPa | 2.4V | 07:39:00 | 00:00:00 | 00:00:00 | |
| OM5KV | 2026-09-05 02:20:17 | 48.21875 | 18.61364 | 109° | 60km/h | 1390m | -5.8m/s | 19.0°C | 55.8% | 0hPa | 2.4V | 07:39:00 | 00:00:00 | 00:00:00 | |
| OM5KV | 2026-09-05 02:20:16 | 48.21880 | 18.61343 | 110° | 58km/h | 1395m | -6.4m/s | 18.9°C | 56.0% | 0hPa | 2.4V | 07:39:00 | 00:00:00 | 00:00:00 | |
| OM5KV | 2026-09-05 02:20:11 | 48.21903 | 18.61238 | 108° | 57km/h | 1423m | -5.6m/s | 18.7°C | 56.7% | 0hPa | 2.4V | 07:39:00 | 00:00:00 | 00:00:00 | |
| OM5KV | 2026-09-05 02:20:10 | 48.21908 | 18.61217 | 110° | 60km/h | 1429m | -5.6m/s | 18.6°C | 56.9% | 0hPa | 2.4V | 07:39:00 | 00:00:00 | 00:00:00 | |
| ATIDSZ-14 | 2026-09-05 02:20:09 | 48.21913 | 18.61195 | 109° | 58km/h | 1434m | -5.7m/s | 18.6°C | 57.1% | 0hPa | 2.4V | 07:39:00 | 00:00:00 | 00:00:00 | |
| OM5KV | 2026-09-05 02:20:05 | 48.21932 | 18.61112 | 108° | 57km/h | 1456m | -5.5m/s | 18.4°C | 57.6% | 0hPa | 2.4V | 07:39:00 | 00:00:00 | 00:00:00 | |
| OM5KV | 2026-09-05 02:20:04 | 48.21937 | 18.61091 | 109° | 58km/h | 1461m | -5.8m/s | 18.3°C | 57.7% | 0hPa | 2.4V | 07:39:00 | 00:00:00 | 00:00:00 | |
| OM5KV | 2026-09-05 02:19:59 | 48.21961 | 18.60988 | 109° | 57km/h | 1491m | -6.0m/s | 18.0°C | 59.0% | 0hPa | 2.4V | 07:39:00 | 00:00:00 | 00:00:00 | |
| OM5KV | 2026-09-05 02:19:58 | 48.21966 | 18.60967 | 112° | 57km/h | 1497m | -5.9m/s | 18.0°C | 59.0% | 0hPa | 2.4V | 07:39:00 | 00:00:00 | 00:00:00 | |
| OM5KV | 2026-09-05 02:19:57 | 48.21970 | 18.60947 | 109° | 57km/h | 1502m | -5.7m/s | 17.9°C | 59.2% | 0hPa | 2.4V | 07:39:00 | 00:00:00 | 00:00:00 | |
| OM5KV | 2026-09-05 02:19:53 | 48.21989 | 18.60864 | 109° | 57km/h | 1525m | -5.8m/s | 17.7°C | 59.9% | 0hPa | 2.4V | 07:39:00 | 00:00:00 | 00:00:00 | |
| ATIDSZ-14 | 2026-09-05 02:19:48 | 48.22012 | 18.60762 | 109° | 57km/h | 1553m | -6.3m/s | 17.4°C | 60.6% | 0hPa | 2.4V | 07:39:00 | 00:00:00 | 00:00:00 | |
| OM5KV | 2026-09-05 02:19:48 | 48.22012 | 18.60762 | 109° | 57km/h | 1553m | -6.3m/s | 17.4°C | 60.6% | 0hPa | 2.4V | 07:39:00 | 00:00:00 | 00:00:00 | |
| OM5KV | 2026-09-05 02:19:46 | 48.22020 | 18.60720 | 108° | 58km/h | 1565m | -5.6m/s | 17.3°C | 61.0% | 0hPa | 2.4V | 07:39:00 | 00:00:00 | 00:00:00 | |
| OM5KV | 2026-09-05 02:19:43 | 48.22034 | 18.60658 | 109° | 57km/h | 1582m | -6.1m/s | 17.2°C | 61.5% | 0hPa | 2.4V | 07:39:00 | 00:00:00 | 00:00:00 | |
| OM5KV | 2026-09-05 02:19:37 | 48.22062 | 18.60534 | 110° | 58km/h | 1616m | -5.8m/s | 16.9°C | 62.5% | 0hPa | 2.4V | 07:39:00 | 00:00:00 | 00:00:00 | |
| OM5KV | 2026-09-05 02:19:36 | 48.22067 | 18.60513 | 108° | 57km/h | 1622m | -6.1m/s | 16.8°C | 62.5% | 0hPa | 2.4V | 07:39:00 | 00:00:00 | 00:00:00 | |
| OM5KV | 2026-09-05 02:19:35 | 48.22071 | 18.60493 | 109° | 57km/h | 1627m | -6.0m/s | 16.8°C | 62.7% | 0hPa | 2.4V | 07:39:00 | 00:00:00 | 00:00:00 | |
| OM5KV | 2026-09-05 02:19:31 | 48.22089 | 18.60408 | 109° | 58km/h | 1650m | -5.5m/s | 16.6°C | 63.3% | 0hPa | 2.4V | 07:39:00 | 00:00:00 | 00:00:00 | |
| ATIDSZ-14 | 2026-09-05 02:19:27 | 48.22108 | 18.60324 | 108° | 60km/h | 1672m | -5.6m/s | 16.3°C | 64.1% | 0hPa | 2.4V | 07:40:00 | 00:00:00 | 00:00:00 | |
| OM5KV | 2026-09-05 02:19:21 | 48.22141 | 18.60175 | 109° | 58km/h | 1712m | -5.7m/s | 16.0°C | 64.9% | 0hPa | 2.4V | 07:40:00 | 00:00:00 | 00:00:00 | |
| OM5KV | 2026-09-05 02:19:17 | 48.22155 | 18.60109 | 108° | 58km/h | 1729m | -5.5m/s | 15.8°C | 65.5% | 0hPa | 2.4V | 07:40:00 | 00:00:00 | 00:00:00 | |
| OM5KV | 2026-09-05 02:19:07 | 48.22202 | 18.59890 | 109° | 60km/h | 1787m | -5.9m/s | 15.3°C | 67.3% | 0hPa | 2.4V | 07:40:00 | 00:00:00 | 00:00:00 | |
| OM5KV | 2026-09-05 02:19:06 | 48.22207 | 18.59869 | 111° | 62km/h | 1793m | -6.1m/s | 15.3°C | 67.4% | 0hPa | 2.4V | 07:40:00 | 00:00:00 | 00:00:00 | |
| ATIDSZ-14 | 2026-09-05 02:19:06 | 48.22207 | 18.59869 | 111° | 62km/h | 1793m | -6.1m/s | 15.3°C | 67.4% | 0hPa | 2.4V | 07:40:00 | 00:00:00 | 00:00:00 | |
| OM5KV | 2026-09-05 02:19:00 | 48.22237 | 18.59734 | 109° | 64km/h | 1828m | -5.6m/s | 14.9°C | 68.6% | 0hPa | 2.4V | 07:40:00 | 00:00:00 | 00:00:00 | |
| OM5KV | 2026-09-05 02:18:55 | 48.22263 | 18.59619 | 110° | 64km/h | 1855m | -5.2m/s | 14.7°C | 69.0% | 0hPa | 2.4V | 07:40:00 | 00:00:00 | 00:00:00 | |
| OM5KV | 2026-09-05 02:18:54 | 48.22268 | 18.59596 | 110° | 64km/h | 1860m | -5.3m/s | 14.6°C | 69.3% | 0hPa | 2.4V | 07:40:00 | 00:00:00 | 00:00:00 | |
| OM5KV | 2026-09-05 02:18:50 | 48.22290 | 18.59501 | 110° | 66km/h | 1881m | -5.8m/s | 14.4°C | 70.1% | 0hPa | 2.4V | 07:40:00 | 00:00:00 | 00:00:00 | |
| ATIDSZ-14 | 2026-09-05 02:18:46 | 48.22312 | 18.59408 | 112° | 66km/h | 1904m | -6.2m/s | 14.2°C | 70.7% | 0hPa | 2.4V | 07:40:00 | 00:00:00 | 00:00:00 | |
| OM5KV | 2026-09-05 02:18:42 | 48.22335 | 18.59312 | 110° | 68km/h | 1927m | -5.8m/s | 14.0°C | 71.2% | 0hPa | 2.4V | 07:40:00 | 00:00:00 | 00:00:00 | |
| OM5KV | 2026-09-05 02:18:39 | 48.22352 | 18.59240 | 112° | 68km/h | 1944m | -5.9m/s | 13.9°C | 71.4% | 0hPa | 2.4V | 07:40:00 | 00:00:00 | 00:00:00 | |
| OM5KV | 2026-09-05 02:18:36 | 48.22369 | 18.59167 | 111° | 68km/h | 1961m | -6.5m/s | 13.8°C | 71.5% | 0hPa | 2.4V | 07:41:00 | 00:00:00 | 00:00:00 | |
| OM5KV | 2026-09-05 02:18:28 | 48.22415 | 18.58972 | 109° | 68km/h | 2007m | -5.7m/s | 13.5°C | 71.4% | 0hPa | 2.4V | 07:41:00 | 00:00:00 | 00:00:00 | |
| ATIDSZ-14 | 2026-09-05 02:18:25 | 48.22431 | 18.58899 | 109° | 68km/h | 2023m | -6.2m/s | 13.4°C | 72.1% | 0hPa | 2.4V | 07:41:00 | 00:00:00 | 00:00:00 | |
| OM5KV | 2026-09-05 02:18:22 | 48.22447 | 18.58825 | 109° | 69km/h | 2041m | -5.6m/s | 13.3°C | 72.4% | 0hPa | 2.4V | 07:41:00 | 00:00:00 | 00:00:00 | |
| OM5KV | 2026-09-05 02:18:21 | 48.22453 | 18.58800 | 108° | 69km/h | 2046m | -5.4m/s | 13.2°C | 72.8% | 0hPa | 2.4V | 07:41:00 | 00:00:00 | 00:00:00 | |
| OM5KV | 2026-09-05 02:18:19 | 48.22463 | 18.58749 | 107° | 68km/h | 2056m | -5.7m/s | 13.1°C | 73.8% | 0hPa | 2.4V | 07:41:00 | 00:00:00 | 00:00:00 | |
| OM5KV | 2026-09-05 02:18:15 | 48.22483 | 18.58652 | 108° | 66km/h | 2078m | -5.9m/s | 12.9°C | 74.7% | 0hPa | 2.4V | 07:41:00 | 00:00:00 | 00:00:00 | |
| OM5KV | 2026-09-05 02:18:13 | 48.22493 | 18.58604 | 108° | 66km/h | 2089m | -5.8m/s | 12.8°C | 74.9% | 0hPa | 2.4V | 07:41:00 | 00:00:00 | 00:00:00 | |
| OM5KV | 2026-09-05 02:18:11 | 48.22503 | 18.58557 | 109° | 68km/h | 2100m | -5.6m/s | 12.7°C | 75.4% | 0hPa | 2.4V | 07:41:00 | 00:00:00 | 00:00:00 | |
| OM5KV | 2026-09-05 02:18:10 | 48.22508 | 18.58533 | 107° | 66km/h | 2105m | -5.4m/s | 12.7°C | 75.5% | 0hPa | 2.4V | 07:41:00 | 00:00:00 | 00:00:00 | |
| OM5KV | 2026-09-05 02:18:08 | 48.22518 | 18.58484 | 109° | 68km/h | 2116m | -5.6m/s | 12.5°C | 75.8% | 0hPa | 2.4V | 07:41:00 | 00:00:00 | 00:00:00 | |
| ATIDSZ-14 | 2026-09-05 02:18:05 | 48.22532 | 18.58411 | 106° | 68km/h | 2132m | -5.5m/s | 12.4°C | 76.4% | 0hPa | 2.4V | 07:41:00 | 00:00:00 | 00:00:00 | |
| OM5KV | 2026-09-05 02:18:04 | 48.22537 | 18.58386 | 107° | 66km/h | 2138m | -5.8m/s | 12.3°C | 76.6% | 0hPa | 2.4V | 07:41:00 | 00:00:00 | 00:00:00 | |
| OM5KV | 2026-09-05 02:18:02 | 48.22546 | 18.58337 | 107° | 66km/h | 2148m | -5.9m/s | 12.2°C | 77.3% | 0hPa | 2.4V | 07:41:00 | 00:00:00 | 00:00:00 | |
| OM5KV | 2026-09-05 02:17:59 | 48.22560 | 18.58266 | 109° | 66km/h | 2165m | -5.6m/s | 12.1°C | 77.7% | 0hPa | 2.4V | 07:41:00 | 00:00:00 | 00:00:00 | |
| OM5KV | 2026-09-05 02:17:56 | 48.22574 | 18.58195 | 107° | 64km/h | 2181m | -6.1m/s | 11.9°C | 78.6% | 0hPa | 2.4V | 07:41:00 | 00:00:00 | 00:00:00 | |
| OM5KV | 2026-09-05 02:17:53 | 48.22587 | 18.58124 | 106° | 66km/h | 2198m | -5.7m/s | 11.8°C | 79.3% | 0hPa | 2.4V | 07:41:00 | 00:00:00 | 00:00:00 | |
| HA6NAB-11 | 2026-09-05 02:17:51 | 48.22596 | 18.58076 | 105° | 66km/h | 2208m | -4.8m/s | 11.7°C | 79.7% | 0hPa | 2.4V | 07:41:00 | 00:00:00 | 00:00:00 | |
| OM5KV | 2026-09-05 02:17:50 | 48.22600 | 18.58052 | 105° | 64km/h | 2213m | -5.2m/s | 11.6°C | 79.9% | 0hPa | 2.4V | 07:41:00 | 00:00:00 | 00:00:00 | |
| HA6NAB-11 | 2026-09-05 02:17:45 | 48.22620 | 18.57934 | 105° | 62km/h | 2241m | -5.9m/s | 11.3°C | 81.3% | 0hPa | 2.4V | 07:42:00 | 00:00:00 | 00:00:00 | |
| ATIDSZ-14 | 2026-09-05 02:17:44 | 48.22625 | 18.57911 | 106° | 64km/h | 2246m | -5.7m/s | 11.3°C | 81.5% | 0hPa | 2.4V | 07:42:00 | 00:00:00 | 00:00:00 | |
| OM5KV | 2026-09-05 02:17:42 | 48.22632 | 18.57864 | 104° | 66km/h | 2257m | -5.9m/s | 11.2°C | 81.9% | 0hPa | 2.4V | 07:42:00 | 00:00:00 | 00:00:00 | |
| OM5KV | 2026-09-05 02:17:40 | 48.22644 | 18.57792 | 105° | 64km/h | 2275m | -6.4m/s | 11.0°C | 82.7% | 0hPa | 2.4V | 07:42:00 | 00:00:00 | 00:00:00 | |
| OM5KV | 2026-09-05 02:17:39 | 48.22644 | 18.57792 | 105° | 64km/h | 2275m | -6.4m/s | 11.0°C | 82.7% | 0hPa | 2.4V | 07:42:00 | 00:00:00 | 00:00:00 | |
| OM5KV | 2026-09-05 02:17:36 | 48.22656 | 18.57723 | 104° | 62km/h | 2292m | -5.6m/s | 10.8°C | 83.5% | 0hPa | 2.4V | 07:42:00 | 00:00:00 | 00:00:00 | |
| OM5KV | 2026-09-05 02:17:33 | 48.22667 | 18.57653 | 103° | 64km/h | 2309m | -5.7m/s | 10.7°C | 84.2% | 0hPa | 2.4V | 07:42:00 | 00:00:00 | 00:00:00 | |
| OM5KV | 2026-09-05 02:17:30 | 48.22677 | 18.57582 | 104° | 62km/h | 2325m | -5.7m/s | 10.5°C | 85.1% | 0hPa | 2.4V | 07:42:00 | 00:00:00 | 00:00:00 | |
| OM5KV | 2026-09-05 02:17:27 | 48.22688 | 18.57511 | 103° | 62km/h | 2341m | -5.8m/s | 10.4°C | 85.6% | 0hPa | 2.4V | 07:42:00 | 00:00:00 | 00:00:00 | |
| ATIDSZ-14 | 2026-09-05 02:17:23 | 48.22701 | 18.57419 | 102° | 62km/h | 2364m | -5.7m/s | 10.2°C | 85.9% | 0hPa | 2.4V | 07:42:00 | 00:00:00 | 00:00:00 | |
| OM5KV | 2026-09-05 02:17:21 | 48.22706 | 18.57373 | 104° | 62km/h | 2374m | -5.5m/s | 10.1°C | 86.7% | 0hPa | 2.4V | 07:42:00 | 00:00:00 | 00:00:00 | |
| OM5KV | 2026-09-05 02:17:16 | 48.22723 | 18.57257 | 105° | 62km/h | 2401m | -5.5m/s | 9.9°C | 86.9% | 0hPa | 2.4V | 07:42:00 | 00:00:00 | 00:00:00 | |
| OM5KV | 2026-09-05 02:17:10 | 48.22740 | 18.57117 | 102° | 62km/h | 2434m | -6.2m/s | 9.6°C | 88.2% | 0hPa | 2.4V | 07:42:00 | 00:00:00 | 00:00:00 | |
| OM5KV | 2026-09-05 02:17:04 | 48.22757 | 18.56977 | 102° | 64km/h | 2467m | -5.9m/s | 9.4°C | 88.5% | 0hPa | 2.4V | 07:42:00 | 00:00:00 | 00:00:00 | |
| ATIDSZ-14 | 2026-09-05 02:17:02 | 48.22763 | 18.56930 | 99° | 62km/h | 2478m | -5.4m/s | 9.3°C | 88.9% | 0hPa | 2.4V | 07:42:00 | 00:00:00 | 00:00:00 | |
| HA6NAB-11 | 2026-09-05 02:17:01 | 48.22765 | 18.56907 | 100° | 62km/h | 2483m | -5.5m/s | 9.3°C | 88.6% | 0hPa | 2.4V | 07:42:00 | 00:00:00 | 00:00:00 | |
| OM5KV | 2026-09-05 02:16:53 | 48.22787 | 18.56716 | 100° | 62km/h | 2527m | -5.3m/s | 9.0°C | 87.8% | 0hPa | 2.4V | 07:43:00 | 00:00:00 | 00:00:00 | |
| HA6NAB-11 | 2026-09-05 02:16:51 | 48.22792 | 18.56668 | 102° | 64km/h | 2538m | -5.7m/s | 8.9°C | 88.2% | 0hPa | 2.4V | 00:00:00 | 00:00:00 | 00:00:00 | |
| OM5KV | 2026-09-05 02:16:48 | 48.22801 | 18.56596 | 100° | 64km/h | 2554m | -5.0m/s | 8.7°C | 88.9% | 0hPa | 2.4V | 07:43:00 | 00:00:00 | 00:00:00 | |
| HA6NAB-11 | 2026-09-05 02:16:46 | 48.22807 | 18.56548 | 104° | 64km/h | 2564m | -4.9m/s | 8.6°C | 89.3% | 0hPa | 2.4V | 00:00:00 | 00:00:00 | 00:00:00 | |
| OM5KV | 2026-09-05 02:16:41 | 48.22823 | 18.56427 | 102° | 64km/h | 2588m | -5.0m/s | 8.4°C | 90.3% | 0hPa | 2.4V | 07:43:00 | 00:00:00 | 00:00:00 | |
| HA6NAB-11 | 2026-09-05 02:16:40 | 48.22825 | 18.56403 | 104° | 64km/h | 2593m | -5.3m/s | 8.4°C | 90.6% | 0hPa | 2.4V | 00:00:00 | 00:00:00 | 00:00:00 | |
| HA6NAB-11 | 2026-09-05 02:16:34 | 48.22846 | 18.56257 | 102° | 64km/h | 2625m | -5.4m/s | 8.2°C | 91.1% | 0hPa | 2.4V | 00:00:00 | 00:00:00 | 00:00:00 | |
| OM5KV | 2026-09-05 02:16:33 | 48.22849 | 18.56233 | 103° | 66km/h | 2630m | -5.5m/s | 8.1°C | 91.3% | 0hPa | 2.4V | 07:43:00 | 00:00:00 | 00:00:00 | |
| OM5KV | 2026-09-05 02:16:30 | 48.22860 | 18.56159 | 106° | 66km/h | 2646m | -6.1m/s | 8.0°C | 91.8% | 0hPa | 2.4V | 07:43:00 | 00:00:00 | 00:00:00 | |
| OM5KV | 2026-09-05 02:16:27 | 48.22871 | 18.56086 | 103° | 69km/h | 2662m | -5.3m/s | 7.8°C | 92.8% | 0hPa | 2.4V | 07:43:00 | 00:00:00 | 00:00:00 | |
| OM5KV | 2026-09-05 02:16:22 | 48.22892 | 18.55962 | 104° | 66km/h | 2688m | -5.2m/s | 7.6°C | 93.3% | 0hPa | 2.4V | 07:43:00 | 00:00:00 | 00:00:00 | |
| ATIDSZ-14 | 2026-09-05 02:16:19 | 48.22903 | 18.55887 | 107° | 68km/h | 2703m | -6.0m/s | 7.5°C | 93.8% | 0hPa | 2.4V | 07:43:00 | 00:00:00 | 00:00:00 | |
| OM5KV | 2026-09-05 02:16:16 | 48.22916 | 18.55813 | 104° | 68km/h | 2720m | -5.7m/s | 7.4°C | 94.3% | 0hPa | 2.4V | 07:43:00 | 00:00:00 | 00:00:00 | |
| OM5KV | 2026-09-05 02:16:13 | 48.22929 | 18.55738 | 105° | 68km/h | 2735m | -5.4m/s | 7.3°C | 94.0% | 0hPa | 2.4V | 07:43:00 | 00:00:00 | 00:00:00 | |
| OM5KV | 2026-09-05 02:16:11 | 48.22937 | 18.55689 | 105° | 68km/h | 2746m | -5.4m/s | 7.2°C | 94.2% | 0hPa | 2.4V | 07:43:00 | 00:00:00 | 00:00:00 | |
| OM5KV | 2026-09-05 02:16:10 | 48.22942 | 18.55664 | 105° | 69km/h | 2751m | -5.3m/s | 7.2°C | 94.3% | 0hPa | 2.4V | 07:43:00 | 00:00:00 | 00:00:00 | |
| OM5KV | 2026-09-05 02:16:08 | 48.22955 | 18.55588 | 105° | 69km/h | 2767m | -5.2m/s | 7.1°C | 94.1% | 0hPa | 2.4V | 07:43:00 | 00:00:00 | 00:00:00 | |
| OM5KV | 2026-09-05 02:16:05 | 48.22963 | 18.55536 | 105° | 69km/h | 2776m | -5.7m/s | 7.0°C | 94.4% | 0hPa | 2.4V | 07:44:00 | 00:00:00 | 00:00:00 | |
| OM5KV | 2026-09-05 02:16:01 | 48.22982 | 18.55436 | 106° | 68km/h | 2797m | -5.2m/s | 6.9°C | 94.7% | 0hPa | 2.4V | 07:44:00 | 00:00:00 | 00:00:00 | |
| OE3OSB-13 | 2026-09-05 02:15:56 | 48.23012 | 18.55262 | 103° | 68km/h | 2833m | -5.2m/s | 6.6°C | 94.8% | -1.0hPa | 2.4V | 00:00:00 | 00:00:00 | 00:00:00 | |
| HA6NAB-11 | 2026-09-05 02:15:55 | 48.23012 | 18.55262 | 105° | 68km/h | 2833m | -5.2m/s | 6.6°C | 94.8% | 0hPa | 2.4V | 00:00:00 | 00:00:00 | 00:00:00 | |
| OM5KV | 2026-09-05 02:15:54 | 48.23012 | 18.55262 | 105° | 68km/h | 2833m | -5.2m/s | 6.6°C | 94.8% | 0hPa | 2.4V | 07:44:00 | 00:00:00 | 00:00:00 | |
| HA6NAB-11 | 2026-09-05 02:15:49 | 48.23032 | 18.55138 | 105° | 66km/h | 2858m | -5.4m/s | 6.4°C | 95.6% | 0hPa | 2.4V | 00:00:00 | 00:00:00 | 00:00:00 | |
| OM5KV | 2026-09-05 02:15:47 | 48.23040 | 18.55090 | 104° | 66km/h | 2868m | -5.0m/s | 6.3°C | 95.8% | 0hPa | 2.4V | 07:44:00 | 00:00:00 | 00:00:00 | |
| OM5KV | 2026-09-05 02:15:44 | 48.23055 | 18.54994 | 106° | 62km/h | 2889m | -5.1m/s | 6.2°C | 95.4% | 0hPa | 2.4V | 07:44:00 | 00:00:00 | 00:00:00 | |
| HA6NAB-11 | 2026-09-05 02:15:43 | 48.23055 | 18.54994 | 106° | 62km/h | 2889m | -5.1m/s | 6.2°C | 95.4% | 0hPa | 2.4V | 00:00:00 | 00:00:00 | 00:00:00 | |
| OM5KV | 2026-09-05 02:15:40 | 48.23065 | 18.54923 | 103° | 64km/h | 2903m | -4.7m/s | 6.2°C | 95.2% | 0hPa | 2.4V | 07:44:00 | 00:00:00 | 00:00:00 | |
| ATIDSZ-14 | 2026-09-05 02:15:39 | 48.23069 | 18.54899 | 102° | 64km/h | 2908m | -4.8m/s | 6.2°C | 95.1% | 0hPa | 2.4V | 07:44:00 | 00:00:00 | 00:00:00 | |
| OM5KV | 2026-09-05 02:15:38 | 48.23075 | 18.54852 | 101° | 62km/h | 2917m | -4.8m/s | 6.2°C | 94.6% | 0hPa | 2.4V | 07:44:00 | 00:00:00 | 00:00:00 | |
| HA6NAB-11 | 2026-09-05 02:15:37 | 48.23075 | 18.54852 | 101° | 62km/h | 2917m | -4.8m/s | 6.2°C | 94.6% | 0hPa | 2.4V | 00:00:00 | 00:00:00 | 00:00:00 | |
| OM5KV | 2026-09-05 02:15:36 | 48.23078 | 18.54829 | 102° | 62km/h | 2922m | -5.3m/s | 6.2°C | 94.3% | 0hPa | 2.4V | 07:44:00 | 00:00:00 | 00:00:00 | |
| HA6NAB-11 | 2026-09-05 02:15:32 | 48.23093 | 18.54715 | 101° | 58km/h | 2947m | -5.3m/s | 6.1°C | 91.7% | 0hPa | 2.4V | 00:00:00 | 00:00:00 | 00:00:00 | |
| OM5KV | 2026-09-05 02:15:31 | 48.23093 | 18.54715 | 101° | 58km/h | 2947m | -5.3m/s | 6.1°C | 91.7% | 0hPa | 2.4V | 07:44:00 | 00:00:00 | 00:00:00 | |
| OM5KV | 2026-09-05 02:15:30 | 48.23095 | 18.54693 | 99° | 58km/h | 2952m | -5.2m/s | 6.1°C | 91.4% | 0hPa | 2.4V | 07:44:00 | 00:00:00 | 00:00:00 | |
| OM5KV | 2026-09-05 02:15:26 | 48.23104 | 18.54606 | 99° | 57km/h | 2971m | -5.0m/s | 6.1°C | 89.2% | 0hPa | 2.4V | 07:44:00 | 00:00:00 | 00:00:00 | |
| OE3OSB-13 | 2026-09-05 02:15:25 | 48.23111 | 18.54542 | 96° | 58km/h | 2986m | -4.4m/s | 6.0°C | 89.7% | -1.0hPa | 2.4V | 00:00:00 | 00:00:00 | 00:00:00 | |
| OM5KV | 2026-09-05 02:15:23 | 48.23111 | 18.54542 | 98° | 58km/h | 2986m | -4.4m/s | 6.0°C | 89.7% | 0hPa | 2.4V | 07:44:00 | 00:00:00 | 00:00:00 | |
| OM5KV | 2026-09-05 02:15:20 | 48.23117 | 18.54477 | 98° | 55km/h | 3000m | -5.4m/s | 5.9°C | 89.9% | 0hPa | 2.4V | 07:44:00 | 00:00:00 | 00:00:00 | |
| ATIDSZ-14 | 2026-09-05 02:15:18 | 48.23120 | 18.54435 | 97° | 55km/h | 3011m | -5.2m/s | 6.0°C | 87.8% | 0hPa | 2.4V | 07:44:00 | 00:00:00 | 00:00:00 | |
| OM5KV | 2026-09-05 02:15:17 | 48.23122 | 18.54414 | 97° | 55km/h | 3016m | -5.3m/s | 6.0°C | 87.3% | 0hPa | 2.4V | 07:44:00 | 00:00:00 | 00:00:00 | |
| OM5KV | 2026-09-05 02:15:16 | 48.23124 | 18.54393 | 97° | 55km/h | 3021m | -5.3m/s | 6.0°C | 86.7% | 0hPa | 2.4V | 07:44:00 | 00:00:00 | 00:00:00 | |
| OM5KV | 2026-09-05 02:15:11 | 48.23131 | 18.54288 | 96° | 58km/h | 3046m | -5.2m/s | 6.0°C | 81.3% | 0hPa | 2.4V | 07:45:00 | 00:00:00 | 00:00:00 | |
| OM5KV | 2026-09-05 02:15:01 | 48.23147 | 18.54076 | 100° | 57km/h | 3096m | -5.0m/s | 5.8°C | 83.6% | 0hPa | 2.4V | 07:45:00 | 00:00:00 | 00:00:00 | |
| OE3OSB-13 | 2026-09-05 02:14:54 | 48.23163 | 18.53881 | 94° | 57km/h | 3143m | -5.0m/s | 5.5°C | 86.5% | -1.0hPa | 2.4V | 00:00:00 | 00:00:00 | 00:00:00 | |
| OM5KV | 2026-09-05 02:14:52 | 48.23163 | 18.53881 | 95° | 58km/h | 3143m | -5.0m/s | 5.5°C | 86.5% | 0hPa | 2.4V | 07:45:00 | 00:00:00 | 00:00:00 | |
| OM5KV | 2026-09-05 02:14:50 | 48.23166 | 18.53837 | 95° | 60km/h | 3154m | -5.0m/s | 5.4°C | 86.9% | 0hPa | 2.4V | 07:45:00 | 00:00:00 | 00:00:00 | |
| OM5KV | 2026-09-05 02:14:49 | 48.23168 | 18.53815 | 96° | 60km/h | 3159m | -4.9m/s | 5.3°C | 86.8% | 0hPa | 2.4V | 07:45:00 | 00:00:00 | 00:00:00 | |
| OM5KV | 2026-09-05 02:14:44 | 48.23176 | 18.53702 | 96° | 58km/h | 3183m | -5.1m/s | 5.2°C | 85.3% | 0hPa | 2.4V | 07:45:00 | 00:00:00 | 00:00:00 | |
| HA6NAB-11 | 2026-09-05 02:14:43 | 48.23177 | 18.53680 | 95° | 58km/h | 3188m | -5.0m/s | 5.1°C | 84.8% | 0hPa | 2.4V | 00:00:00 | 00:00:00 | 00:00:00 | |
| OM5KV | 2026-09-05 02:14:41 | 48.23180 | 18.53635 | 96° | 58km/h | 3198m | -4.8m/s | 5.1°C | 84.5% | 0hPa | 2.4V | 07:45:00 | 00:00:00 | 00:00:00 | |
| OM5KV | 2026-09-05 02:14:39 | 48.23183 | 18.53591 | 95° | 60km/h | 3207m | -4.7m/s | 5.0°C | 84.5% | 0hPa | 2.4V | 07:45:00 | 00:00:00 | 00:00:00 | |
| OM5KV | 2026-09-05 02:14:38 | 48.23184 | 18.53569 | 96° | 60km/h | 3212m | -4.8m/s | 5.0°C | 84.4% | 0hPa | 2.4V | 07:45:00 | 00:00:00 | 00:00:00 | |
| ATIDSZ-14 | 2026-09-05 02:14:37 | 48.23185 | 18.53546 | 96° | 60km/h | 3216m | -4.9m/s | 4.9°C | 83.9% | 0hPa | 2.4V | 07:45:00 | 00:00:00 | 00:00:00 | |
| OM5KV | 2026-09-05 02:14:36 | 48.23187 | 18.53524 | 96° | 60km/h | 3221m | -5.1m/s | 4.9°C | 83.1% | 0hPa | 2.4V | 07:45:00 | 00:00:00 | 00:00:00 | |
| OM5KV | 2026-09-05 02:14:34 | 48.23190 | 18.53479 | 96° | 60km/h | 3230m | -4.8m/s | 4.8°C | 83.1% | 0hPa | 2.4V | 07:45:00 | 00:00:00 | 00:00:00 | |
| HA6NAB-11 | 2026-09-05 02:14:33 | 48.23191 | 18.53456 | 96° | 58km/h | 3235m | -5.0m/s | 4.8°C | 82.8% | 0hPa | 2.4V | 00:00:00 | 00:00:00 | 00:00:00 | |
| OM5KV | 2026-09-05 02:14:31 | 48.23195 | 18.53412 | 96° | 57km/h | 3245m | -5.4m/s | 4.8°C | 83.2% | 0hPa | 2.4V | 07:45:00 | 00:00:00 | 00:00:00 | |
| HA6NAB-11 | 2026-09-05 02:14:27 | 48.23200 | 18.53325 | 97° | 58km/h | 3265m | -6.2m/s | 4.6°C | 83.5% | 0hPa | 2.4V | 00:00:00 | 00:00:00 | 00:00:00 | |
| OM5KV | 2026-09-05 02:14:26 | 48.23202 | 18.53303 | 98° | 58km/h | 3271m | -6.2m/s | 4.6°C | 83.7% | 0hPa | 2.4V | 07:45:00 | 00:00:00 | 00:00:00 | |
| OE3OSB-13 | 2026-09-05 02:14:23 | 48.23210 | 18.53194 | 96° | 57km/h | 3297m | -5.6m/s | 4.4°C | 83.8% | -1.0hPa | 2.4V | 00:00:00 | 00:00:00 | 00:00:00 | |
| OM5KV | 2026-09-05 02:14:20 | 48.23212 | 18.53172 | 98° | 60km/h | 3303m | -5.0m/s | 4.4°C | 84.7% | 0hPa | 2.4V | 07:45:00 | 00:00:00 | 00:00:00 | |
| OM5KV | 2026-09-05 02:14:19 | 48.23213 | 18.53149 | 98° | 58km/h | 3307m | -5.4m/s | 4.4°C | 84.7% | 0hPa | 2.4V | 07:45:00 | 00:00:00 | 00:00:00 | |
| OE3OSB-13 | 2026-09-05 02:13:52 | 48.23286 | 18.52461 | 102° | 68km/h | 3453m | -5.2m/s | 3.8°C | 79.7% | -1.0hPa | 2.4V | 00:00:00 | 00:00:00 | 00:00:00 | |
| HA6NAB-11 | 2026-09-05 02:13:51 | 48.23282 | 18.52486 | 102° | 68km/h | 3448m | -5.1m/s | 3.9°C | 79.3% | 0hPa | 2.4V | 07:45:00 | 00:00:00 | 00:00:00 | |
| OM5KV | 2026-09-05 02:13:49 | 48.23289 | 18.52435 | 101° | 71km/h | 3458m | -4.9m/s | 3.8°C | 79.8% | 0hPa | 2.4V | 07:45:00 | 00:00:00 | 00:00:00 | |
| OM5KV | 2026-09-05 02:13:48 | 48.23292 | 18.52410 | 102° | 68km/h | 3463m | -5.1m/s | 3.7°C | 80.0% | 0hPa | 2.4V | 07:45:00 | 00:00:00 | 00:00:00 | |
| HA6NAB-11 | 2026-09-05 02:13:46 | 48.23300 | 18.52358 | 102° | 71km/h | 3473m | -5.0m/s | 3.6°C | 80.5% | 0hPa | 2.4V | 07:45:00 | 00:00:00 | 00:00:00 | |
| HA6NAB-11 | 2026-09-05 02:13:41 | 48.23318 | 18.52227 | 102° | 69km/h | 3497m | -4.9m/s | 3.4°C | 82.8% | 0hPa | 2.4V | 07:45:00 | 00:00:00 | 00:00:00 | |
| OM5KV | 2026-09-05 02:13:37 | 48.23332 | 18.52120 | 102° | 73km/h | 3517m | -5.2m/s | 3.3°C | 84.4% | 0hPa | 2.4V | 07:45:00 | 00:00:00 | 00:00:00 | |
| OM5KV | 2026-09-05 02:13:36 | 48.23336 | 18.52092 | 106° | 73km/h | 3522m | -5.7m/s | 3.3°C | 84.9% | 0hPa | 2.4V | 07:45:00 | 00:00:00 | 00:00:00 | |
| HA6NAB-11 | 2026-09-05 02:13:35 | 48.23340 | 18.52065 | 103° | 73km/h | 3527m | -5.6m/s | 3.3°C | 86.2% | 0hPa | 2.4V | 07:45:00 | 00:00:00 | 00:00:00 | |
| HA6NAB-11 | 2026-09-05 02:13:31 | 48.23361 | 18.51927 | 102° | 73km/h | 3554m | -5.0m/s | 3.1°C | 87.3% | 0hPa | 2.4V | 07:46:00 | 00:00:00 | 00:00:00 | |
| OM5KV | 2026-09-05 02:13:30 | 48.23361 | 18.51927 | 102° | 73km/h | 3554m | -5.0m/s | 3.1°C | 87.3% | 0hPa | 2.4V | 07:46:00 | 00:00:00 | 00:00:00 | |
| OM5KV | 2026-09-05 02:13:25 | 48.23380 | 18.51787 | 103° | 77km/h | 3579m | -5.2m/s | 3.0°C | 86.8% | 0hPa | 2.4V | 07:46:00 | 00:00:00 | 00:00:00 | |
| HA6NAB-11 | 2026-09-05 02:13:24 | 48.23385 | 18.51758 | 105° | 77km/h | 3584m | -6.0m/s | 2.9°C | 86.8% | 0hPa | 2.4V | 07:46:00 | 00:00:00 | 00:00:00 | |
| OM5KV | 2026-09-05 02:13:20 | 48.23401 | 18.51643 | 105° | 77km/h | 3605m | -6.0m/s | 2.9°C | 83.0% | 0hPa | 2.4V | 07:46:00 | 00:00:00 | 00:00:00 | |
| OM5KV | 2026-09-05 02:13:19 | 48.23406 | 18.51614 | 102° | 77km/h | 3611m | -5.0m/s | 2.9°C | 82.9% | 0hPa | 2.4V | 07:46:00 | 00:00:00 | 00:00:00 | |
| ATIDSZ-14 | 2026-09-05 02:13:15 | 48.23423 | 18.51497 | 103° | 78km/h | 3632m | -6.0m/s | 2.8°C | 82.1% | 0hPa | 2.4V | 07:46:00 | 00:00:00 | 00:00:00 | |
| OM5KV | 2026-09-05 02:13:01 | 48.23480 | 18.51079 | 102° | 82km/h | 3706m | -6.0m/s | 2.9°C | 79.1% | 0hPa | 2.4V | 07:46:00 | 00:00:00 | 00:00:00 | |
| OE3OSB-13 | 2026-09-05 02:12:50 | 48.23532 | 18.50683 | 101° | 82km/h | 3780m | -6.0m/s | 2.2°C | 82.4% | -1.0hPa | 2.4V | 00:00:00 | 00:00:00 | 00:00:00 | |
| HA6NAB-11 | 2026-09-05 02:12:47 | 48.23536 | 18.50652 | 102° | 84km/h | 3785m | -5.8m/s | 2.1°C | 82.6% | 0hPa | 2.4V | 07:46:00 | 00:00:00 | 00:00:00 | |
| OM5KV | 2026-09-05 02:12:46 | 48.23539 | 18.50621 | 102° | 82km/h | 3791m | -6.0m/s | 2.1°C | 82.8% | 0hPa | 2.4V | 07:46:00 | 00:00:00 | 00:00:00 | |
| OM5KV | 2026-09-05 02:12:43 | 48.23550 | 18.50529 | 103° | 82km/h | 3807m | -6.8m/s | 1.9°C | 83.3% | 0hPa | 2.4V | 07:46:00 | 00:00:00 | 00:00:00 | |
| HA6NAB-11 | 2026-09-05 02:12:42 | 48.23555 | 18.50498 | 104° | 82km/h | 3814m | -6.5m/s | 1.9°C | 83.6% | 0hPa | 2.4V | 07:46:00 | 00:00:00 | 00:00:00 | |
| OM5KV | 2026-09-05 02:12:40 | 48.23564 | 18.50437 | 105° | 82km/h | 3825m | -6.0m/s | 1.8°C | 84.0% | 0hPa | 2.4V | 07:47:00 | 00:00:00 | 00:00:00 | |
| OM5KV | 2026-09-05 02:12:37 | 48.23578 | 18.50344 | 103° | 84km/h | 3842m | -5.8m/s | 1.7°C | 84.9% | 0hPa | 2.4V | 07:47:00 | 00:00:00 | 00:00:00 | |
| HA6NAB-11 | 2026-09-05 02:12:36 | 48.23582 | 18.50313 | 101° | 84km/h | 3847m | -5.7m/s | 1.6°C | 85.2% | 0hPa | 2.4V | 00:00:00 | 00:00:00 | 00:00:00 | |
| OM5KV | 2026-09-05 02:12:34 | 48.23589 | 18.50249 | 100° | 84km/h | 3858m | -5.9m/s | 1.5°C | 85.7% | 0hPa | 2.4V | 07:47:00 | 00:00:00 | 00:00:00 | |
| ATIDSZ-14 | 2026-09-05 02:12:33 | 48.23593 | 18.50218 | 100° | 82km/h | 3864m | -6.3m/s | 1.4°C | 86.0% | 0hPa | 2.4V | 07:47:00 | 00:00:00 | 00:00:00 | |
| HA6NAB-11 | 2026-09-05 02:12:31 | 48.23599 | 18.50156 | 102° | 82km/h | 3875m | -6.7m/s | 1.3°C | 86.6% | 0hPa | 2.4V | 00:00:00 | 00:00:00 | 00:00:00 | |
| OM5KV | 2026-09-05 02:12:28 | 48.23612 | 18.50062 | 102° | 84km/h | 3894m | -6.8m/s | 1.2°C | 87.1% | 0hPa | 2.4V | 07:47:00 | 00:00:00 | 00:00:00 | |
| HA6NAB-11 | 2026-09-05 02:12:26 | 48.23619 | 18.49999 | 99° | 82km/h | 3907m | -6.2m/s | 1.1°C | 87.6% | 0hPa | 2.4V | 00:00:00 | 00:00:00 | 00:00:00 | |
| OM5KV | 2026-09-05 02:12:25 | 48.23623 | 18.49968 | 99° | 82km/h | 3913m | -6.2m/s | 1.1°C | 87.8% | 0hPa | 2.4V | 07:47:00 | 00:00:00 | 00:00:00 | |
| OM5KV | 2026-09-05 02:12:22 | 48.23632 | 18.49873 | 99° | 84km/h | 3931m | -6.2m/s | 0.9°C | 88.2% | 0hPa | 2.4V | 07:47:00 | 00:00:00 | 00:00:00 | |
| HA6NAB-11 | 2026-09-05 02:12:20 | 48.23638 | 18.49810 | 98° | 86km/h | 3943m | -5.8m/s | 0.8°C | 88.7% | 0hPa | 2.4V | 00:00:00 | 00:00:00 | 00:00:00 | |
| OE3OSB-13 | 2026-09-05 02:12:19 | 48.23647 | 18.49715 | 96° | 82km/h | 3960m | -5.9m/s | 0.7°C | 89.1% | -1.0hPa | 2.4V | 00:00:00 | 00:00:00 | 00:00:00 | |
| OM5KV | 2026-09-05 02:12:16 | 48.23649 | 18.49684 | 98° | 84km/h | 3966m | -5.7m/s | 0.7°C | 88.9% | 0hPa | 2.4V | 07:47:00 | 00:00:00 | 00:00:00 | |
| ATIDSZ-14 | 2026-09-05 02:12:13 | 48.23656 | 18.49588 | 97° | 86km/h | 3982m | -5.9m/s | 0.7°C | 87.8% | 0hPa | 2.4V | 07:47:00 | 00:00:00 | 00:00:00 | |
| OM5KV | 2026-09-05 02:12:10 | 48.23663 | 18.49491 | 96° | 82km/h | 3999m | -6.0m/s | 1.1°C | 79.2% | 0hPa | 2.4V | 07:47:00 | 00:00:00 | 00:00:00 | |
| OM5KV | 2026-09-05 02:12:06 | 48.23673 | 18.49363 | 96° | 84km/h | 4022m | -5.9m/s | 1.2°C | 75.6% | 0hPa | 2.4V | 07:47:00 | 00:00:00 | 00:00:00 | |
| OM5KV | 2026-09-05 02:12:05 | 48.23677 | 18.49298 | 95° | 84km/h | 4033m | -7.3m/s | 1.2°C | 75.6% | 0hPa | 2.4V | 07:47:00 | 00:00:00 | 00:00:00 | |
| OM5KV | 2026-09-05 02:12:01 | 48.23684 | 18.49202 | 95° | 84km/h | 4060m | -9.4m/s | 1.0°C | 76.3% | 0hPa | 2.4V | 07:47:00 | 00:00:00 | 00:00:00 | |
| OE3OSB-13 | 2026-09-05 02:11:47 | 48.23703 | 18.48716 | 92° | 84km/h | 4198m | -9.5m/s | -0.1°C | 79.2% | -1.0hPa | 2.4V | 00:00:00 | 00:00:00 | 00:00:00 | |
| OM5KV | 2026-09-05 02:11:43 | 48.23705 | 18.48620 | 94° | 82km/h | 4225m | -8.8m/s | -0.3°C | 79.6% | 0hPa | 2.4V | 07:48:00 | 00:00:00 | 00:00:00 | |
| PETON7-10 | 2026-09-05 02:11:37 | 48.23708 | 18.48399 | 94° | 86km/h | 4285m | -7.0m/s | -0.6°C | 81.0% | 0hPa | 2.4V | 07:47:00 | 00:00:00 | 00:00:00 | |
| HA6NAB-11 | 2026-09-05 02:11:32 | 48.23710 | 18.48273 | 93° | 86km/h | 4314m | -6.5m/s | -0.9°C | 78.3% | 0hPa | 2.4V | 00:00:00 | 00:00:00 | 00:00:00 | |
| ATIDSZ-14 | 2026-09-05 02:11:31 | 48.23710 | 18.48240 | 91° | 86km/h | 4320m | -6.0m/s | -0.9°C | 78.0% | 0hPa | 2.4V | 07:48:00 | 00:00:00 | 00:00:00 | |
| HA6NAB-11 | 2026-09-05 02:11:27 | 48.23711 | 18.48110 | 91° | 86km/h | 4344m | -6.5m/s | -1.2°C | 80.4% | 0hPa | 2.4V | 00:00:00 | 00:00:00 | 00:00:00 | |
| OM5KV | 2026-09-05 02:11:26 | 48.23712 | 18.48078 | 92° | 86km/h | 4350m | -6.4m/s | -1.2°C | 79.4% | 0hPa | 2.4V | 07:48:00 | 00:00:00 | 00:00:00 | |
| OM5KV | 2026-09-05 02:11:25 | 48.23712 | 18.48045 | 92° | 88km/h | 4356m | -6.3m/s | -1.2°C | 78.4% | 0hPa | 2.4V | 07:48:00 | 00:00:00 | 00:00:00 | |
| PETON7-10 | 2026-09-05 02:11:22 | 48.23714 | 18.47912 | 91° | 88km/h | 4381m | -6.9m/s | -1.2°C | 75.9% | 0hPa | 2.4V | 00:00:00 | 02:48:39 | 00:00:00 | |
| OM5KV | 2026-09-05 02:11:20 | 48.23714 | 18.47880 | 92° | 86km/h | 4387m | -7.4m/s | -1.3°C | 75.0% | 0hPa | 2.4V | 07:48:00 | 00:00:00 | 00:00:00 | |
| OM5KV | 2026-09-05 02:11:19 | 48.23715 | 18.47847 | 94° | 86km/h | 4394m | -7.1m/s | -1.4°C | 75.3% | 0hPa | 2.4V | 07:48:00 | 00:00:00 | 00:00:00 | |
| OE3OSB-13 | 2026-09-05 02:11:16 | 48.23718 | 18.47715 | 91° | 88km/h | 4421m | -6.9m/s | -1.6°C | 76.2% | -1.0hPa | 2.4V | 00:00:00 | 00:00:00 | 00:00:00 | |
| OM5KV | 2026-09-05 02:11:14 | 48.23718 | 18.47682 | 92° | 86km/h | 4428m | -7.0m/s | -1.7°C | 76.1% | 0hPa | 2.4V | 07:48:00 | 00:00:00 | 00:00:00 | |
| ATIDSZ-14 | 2026-09-05 02:11:11 | 48.23721 | 18.47582 | 92° | 89km/h | 4447m | -6.8m/s | -1.8°C | 75.7% | 0hPa | 2.4V | 07:48:00 | 00:00:00 | 00:00:00 | |
| OM5KV | 2026-09-05 02:11:08 | 48.23723 | 18.47482 | 94° | 89km/h | 4467m | -6.8m/s | -1.9°C | 72.9% | 0hPa | 2.4V | 07:48:00 | 00:00:00 | 00:00:00 | |
| PETON7-10 | 2026-09-05 02:11:07 | 48.23724 | 18.47415 | 90° | 88km/h | 4480m | -6.8m/s | -1.9°C | 74.4% | 0hPa | 2.4V | 00:00:00 | 00:00:00 | 00:00:00 | |
| OM5KV | 2026-09-05 02:11:03 | 48.23726 | 18.47316 | 91° | 88km/h | 4499m | -6.7m/s | -2.1°C | 73.7% | 0hPa | 2.5V | 07:48:00 | 00:00:00 | 00:00:00 | |
| OE3OSB-13 | 2026-09-05 02:10:45 | 48.23727 | 18.46685 | 89° | 88km/h | 4620m | -6.6m/s | -2.8°C | 72.0% | -1.0hPa | 2.5V | 00:00:00 | 00:00:00 | 00:00:00 | |
| HA6NAB-11 | 2026-09-05 02:10:42 | 48.23727 | 18.46618 | 90° | 86km/h | 4632m | -6.7m/s | -2.9°C | 71.5% | 0hPa | 2.5V | 00:00:00 | 00:00:00 | 00:00:00 | |
| OM5KV | 2026-09-05 02:10:40 | 48.23727 | 18.46552 | 92° | 86km/h | 4645m | -7.1m/s | -3.1°C | 71.9% | 0hPa | 2.5V | 07:49:00 | 00:00:00 | 00:00:00 | |
| OM5KV | 2026-09-05 02:10:39 | 48.23727 | 18.46519 | 91° | 88km/h | 4652m | -6.7m/s | -3.1°C | 71.6% | 0hPa | 2.5V | 07:49:00 | 00:00:00 | 00:00:00 | |
| PETON7-10 | 2026-09-05 02:10:37 | 48.23725 | 18.46418 | 88° | 88km/h | 4670m | -6.5m/s | -3.2°C | 72.6% | 0hPa | 2.5V | 00:00:00 | 02:47:54 | 00:00:00 | |
| HA6NAB-11 | 2026-09-05 02:10:36 | 48.23725 | 18.46418 | 89° | 86km/h | 4670m | -6.6m/s | -3.3°C | 71.3% | 0hPa | 2.5V | 00:00:00 | 00:00:00 | 00:00:00 | |
| HA6NAB-11 | 2026-09-05 02:10:31 | 48.23722 | 18.46253 | 90° | 86km/h | 4701m | -7.2m/s | -3.5°C | 69.8% | 0hPa | 2.5V | 00:00:00 | 00:00:00 | 00:00:00 | |
| OM5KV | 2026-09-05 02:10:30 | 48.23722 | 18.46219 | 91° | 88km/h | 4707m | -7.2m/s | -3.5°C | 68.0% | 0hPa | 2.5V | 07:49:00 | 00:00:00 | 00:00:00 | |
| OM5KV | 2026-09-05 02:10:26 | 48.23722 | 18.46086 | 89° | 89km/h | 4734m | -6.8m/s | -3.6°C | 65.9% | 0hPa | 2.5V | 07:49:00 | 00:00:00 | 00:00:00 | |
| HA6NAB-11 | 2026-09-05 02:10:25 | 48.23721 | 18.46052 | 89° | 89km/h | 4740m | -6.9m/s | -3.6°C | 65.6% | 0hPa | 2.5V | 00:00:00 | 00:00:00 | 00:00:00 | |
| PETON7-10 | 2026-09-05 02:10:22 | 48.23719 | 18.45919 | 89° | 88km/h | 4766m | -7.6m/s | -3.7°C | 64.9% | 0hPa | 2.5V | 00:00:00 | 00:00:00 | 00:00:00 | |
| HA6NAB-11 | 2026-09-05 02:10:20 | 48.23717 | 18.45853 | 88° | 88km/h | 4780m | -7.0m/s | -3.8°C | 63.8% | 0hPa | 2.4V | 00:00:00 | 00:00:00 | 00:00:00 | |
| OM5KV | 2026-09-05 02:10:19 | 48.23717 | 18.45853 | 88° | 88km/h | 4780m | -7.0m/s | -3.8°C | 63.8% | 0hPa | 2.4V | 07:49:00 | 00:00:00 | 00:00:00 | |
| OE3OSB-13 | 2026-09-05 02:10:14 | 48.23710 | 18.45652 | 85° | 88km/h | 4818m | -6.7m/s | -4.2°C | 63.0% | -1.0hPa | 2.4V | 00:00:00 | 00:00:00 | 00:00:00 | |
| OM5KV | 2026-09-05 02:10:13 | 48.23710 | 18.45652 | 87° | 89km/h | 4818m | -6.7m/s | -4.2°C | 63.1% | 0hPa | 2.4V | 07:49:00 | 00:00:00 | 00:00:00 | |
| ATIDSZ-14 | 2026-09-05 02:10:10 | 48.23706 | 18.45552 | 87° | 88km/h | 4837m | -6.3m/s | -4.3°C | 62.3% | 0hPa | 2.4V | 07:49:00 | 00:00:00 | 00:00:00 | |
| OM5KV | 2026-09-05 02:10:08 | 48.23704 | 18.45486 | 87° | 88km/h | 4849m | -6.8m/s | -4.4°C | 61.9% | 0hPa | 2.4V | 07:50:00 | 00:00:00 | 00:00:00 | |
| PETON7-10 | 2026-09-05 02:10:07 | 48.23700 | 18.45419 | 86° | 88km/h | 4862m | -6.5m/s | -4.4°C | 63.6% | 0hPa | 2.4V | 00:00:00 | 00:00:00 | 00:00:00 | |
| OM5KV | 2026-09-05 02:10:01 | 48.23690 | 18.45253 | 84° | 89km/h | 4894m | -6.4m/s | -4.7°C | 63.2% | 0hPa | 2.4V | 07:50:00 | 00:00:00 | 00:00:00 | |
| OM5KV | 2026-09-05 02:10:00 | 48.23688 | 18.45220 | 84° | 88km/h | 4900m | -6.8m/s | -4.7°C | 63.1% | 0hPa | 2.4V | 07:50:00 | 00:00:00 | 00:00:00 | |
| OM5KV | 2026-09-05 02:09:57 | 48.23679 | 18.45120 | 83° | 88km/h | 4918m | -6.6m/s | -4.9°C | 63.9% | 0hPa | 2.4V | 07:50:00 | 00:00:00 | 00:00:00 | |
| OM5KV | 2026-09-05 02:09:56 | 48.23676 | 18.45087 | 84° | 88km/h | 4924m | -6.4m/s | -4.9°C | 64.2% | 0hPa | 2.4V | 07:50:00 | 00:00:00 | 00:00:00 | |
| PETON7-10 | 2026-09-05 02:09:52 | 48.23661 | 18.44921 | 82° | 89km/h | 4955m | -6.1m/s | -5.1°C | 66.6% | 0hPa | 2.4V | 00:00:00 | 02:47:09 | 00:00:00 | |
| OM5KV | 2026-09-05 02:09:50 | 48.23655 | 18.44854 | 82° | 88km/h | 4967m | -6.5m/s | -5.2°C | 64.8% | 0hPa | 2.4V | 07:50:00 | 00:00:00 | 00:00:00 | |
| ATIDSZ-14 | 2026-09-05 02:09:49 | 48.23655 | 18.44854 | 82° | 88km/h | 4967m | -6.5m/s | -5.2°C | 64.8% | 0hPa | 2.4V | 07:50:00 | 00:00:00 | 00:00:00 | |
| OM5KV | 2026-09-05 02:09:44 | 48.23635 | 18.44687 | 79° | 89km/h | 4997m | -6.3m/s | -5.3°C | 62.1% | 0hPa | 2.4V | 07:50:00 | 00:00:00 | 00:00:00 | |
| OE3OSB-13 | 2026-09-05 02:09:43 | 48.23623 | 18.44587 | 77° | 88km/h | 5016m | -6.3m/s | -5.3°C | 60.3% | -1.0hPa | 2.4V | 00:00:00 | 00:00:00 | 00:00:00 | |
| OM5KV | 2026-09-05 02:09:41 | 48.23623 | 18.44588 | 78° | 89km/h | 5016m | -6.3m/s | -5.3°C | 60.3% | 0hPa | 2.4V | 07:50:00 | 00:00:00 | 00:00:00 | |
| OM5KV | 2026-09-05 02:09:38 | 48.23608 | 18.44488 | 78° | 89km/h | 5034m | -6.2m/s | -5.5°C | 60.7% | 0hPa | 2.4V | 07:50:00 | 00:00:00 | 00:00:00 | |
| PETON7-10 | 2026-09-05 02:09:37 | 48.23599 | 18.44421 | 78° | 89km/h | 5046m | -6.6m/s | -5.5°C | 62.3% | 0hPa | 2.4V | 07:49:00 | 00:00:00 | 00:00:00 | |
| OM5KV | 2026-09-05 02:09:35 | 48.23593 | 18.44388 | 78° | 88km/h | 5051m | -6.8m/s | -5.6°C | 61.0% | 0hPa | 2.5V | 07:50:00 | 00:00:00 | 00:00:00 | |
| HA6NAB-11 | 2026-09-05 02:09:34 | 48.23588 | 18.44356 | 78° | 88km/h | 5058m | -6.9m/s | -5.7°C | 61.0% | 0hPa | 2.5V | 07:50:00 | 00:00:00 | 00:00:00 | |
| OM5KV | 2026-09-05 02:09:33 | 48.23584 | 18.44323 | 80° | 88km/h | 5064m | -7.0m/s | -5.7°C | 60.5% | 0hPa | 2.5V | 07:50:00 | 00:00:00 | 00:00:00 | |
| OM5KV | 2026-09-05 02:09:31 | 48.23574 | 18.44256 | 78° | 89km/h | 5077m | -6.3m/s | -5.7°C | 58.3% | 0hPa | 2.5V | 07:50:00 | 00:00:00 | 00:00:00 | |
| HA6NAB-11 | 2026-09-05 02:09:29 | 48.23559 | 18.44157 | 80° | 91km/h | 5096m | -6.7m/s | -5.9°C | 56.3% | 0hPa | 2.5V | 07:50:00 | 00:00:00 | 00:00:00 | |
| ATIDSZ-14 | 2026-09-05 02:09:28 | 48.23559 | 18.44157 | 80° | 91km/h | 5096m | -6.7m/s | -5.9°C | 56.3% | 0hPa | 2.5V | 07:50:00 | 00:00:00 | 00:00:00 | |
| PETON7-10 | 2026-09-05 02:09:22 | 48.23524 | 18.43924 | 78° | 91km/h | 5140m | -6.6m/s | -6.2°C | 58.1% | 0hPa | 2.5V | 00:00:00 | 00:00:00 | 00:00:00 | |
| OM5KV | 2026-09-05 02:09:19 | 48.23514 | 18.43856 | 78° | 91km/h | 5153m | -6.2m/s | -6.4°C | 56.6% | 0hPa | 2.5V | 07:50:00 | 00:00:00 | 00:00:00 | |
| OM5KV | 2026-09-05 02:09:18 | 48.23509 | 18.43822 | 78° | 93km/h | 5159m | -6.4m/s | -6.4°C | 56.5% | 0hPa | 2.5V | 07:50:00 | 00:00:00 | 00:00:00 | |
| HA6NAB-11 | 2026-09-05 02:09:16 | 48.23498 | 18.43754 | 77° | 93km/h | 5170m | -6.3m/s | -6.5°C | 56.7% | 0hPa | 2.5V | 07:51:00 | 00:00:00 | 00:00:00 | |
| OE3OSB-13 | 2026-09-05 02:09:12 | 48.23466 | 18.43550 | 75° | 91km/h | 5207m | -6.6m/s | -6.7°C | 58.1% | -1.0hPa | 2.5V | 00:00:00 | 00:00:00 | 00:00:00 | |
| HA6NAB-11 | 2026-09-05 02:09:10 | 48.23466 | 18.43550 | 76° | 93km/h | 5207m | -6.6m/s | -6.7°C | 58.1% | 0hPa | 2.5V | 07:51:00 | 00:00:00 | 00:00:00 | |
| ATIDSZ-14 | 2026-09-05 02:09:08 | 48.23455 | 18.43482 | 79° | 89km/h | 5220m | -6.6m/s | -6.7°C | 53.6% | 0hPa | 2.5V | 07:51:00 | 00:00:00 | 00:00:00 | |
| PETON7-10 | 2026-09-05 02:09:07 | 48.23444 | 18.43414 | 75° | 91km/h | 5232m | -6.6m/s | -6.7°C | 54.5% | 0hPa | 2.5V | 00:00:00 | 02:46:24 | 00:00:00 | |
| S52SK | 2026-09-05 02:09:06 | 48.23443 | 18.43415 | 76° | 91km/h | 5232m | -6.6m/s | -6.8°C | 53.1% | 0hPa | 2.5V | 00:00:00 | 00:00:00 | 00:00:00 | |
| OM5KV | 2026-09-05 02:09:04 | 48.23433 | 18.43347 | 77° | 93km/h | 5244m | -6.5m/s | -6.8°C | 51.9% | 0hPa | 2.5V | 07:51:00 | 00:00:00 | 00:00:00 | |
| OM5KV | 2026-09-05 02:09:01 | 48.23416 | 18.43246 | 77° | 93km/h | 5263m | -6.7m/s | -7.0°C | 52.4% | 0hPa | 2.5V | 07:51:00 | 00:00:00 | 00:00:00 | |
| OM5KV | 2026-09-05 02:08:58 | 48.23399 | 18.43145 | 79° | 91km/h | 5283m | -6.7m/s | -7.1°C | 52.7% | 0hPa | 2.5V | 07:51:00 | 00:00:00 | 00:00:00 | |
| PETON7-10 | 2026-09-05 02:08:52 | 48.23360 | 18.42905 | 77° | 93km/h | 5327m | -6.4m/s | -7.5°C | 55.3% | 0hPa | 2.5V | 00:00:00 | 00:00:00 | 00:00:00 | |
| OM5KV | 2026-09-05 02:08:50 | 48.23355 | 18.42871 | 80° | 91km/h | 5333m | -6.6m/s | -7.6°C | 54.0% | 0hPa | 2.5V | 07:51:00 | 00:00:00 | 00:00:00 | |
| OM5KV | 2026-09-05 02:08:49 | 48.23351 | 18.42837 | 78° | 93km/h | 5340m | -6.1m/s | -7.7°C | 54.2% | 0hPa | 2.5V | 07:51:00 | 00:00:00 | 00:00:00 | |
| ATIDSZ-14 | 2026-09-05 02:08:47 | 48.23340 | 18.42768 | 79° | 93km/h | 5352m | -6.1m/s | -7.8°C | 54.6% | 0hPa | 2.5V | 07:51:00 | 00:00:00 | 00:00:00 | |
| OM5KV | 2026-09-05 02:08:43 | 48.23321 | 18.42631 | 79° | 93km/h | 5375m | -6.2m/s | -8.0°C | 55.0% | 0hPa | 2.5V | 07:51:00 | 00:00:00 | 00:00:00 | |
| OM5KV | 2026-09-05 02:08:42 | 48.23317 | 18.42597 | 81° | 91km/h | 5381m | -6.3m/s | -8.0°C | 54.3% | 0hPa | 2.5V | 07:51:00 | 00:00:00 | 00:00:00 | |
| OE3OSB-13 | 2026-09-05 02:08:41 | 48.23304 | 18.42493 | 79° | 93km/h | 5398m | -6.3m/s | -8.1°C | 50.6% | -1.0hPa | 2.5V | 00:00:00 | 00:00:00 | 00:00:00 | |
| OM5KV | 2026-09-05 02:08:37 | 48.23296 | 18.42423 | 80° | 93km/h | 5411m | -6.2m/s | -8.1°C | 45.4% | 0hPa | 2.5V | 07:51:00 | 00:00:00 | 00:00:00 | |
| HA6NAB-11 | 2026-09-05 02:08:34 | 48.23284 | 18.42318 | 81° | 93km/h | 5428m | -6.4m/s | -8.2°C | 44.8% | 0hPa | 2.5V | 07:51:00 | 00:00:00 | 00:00:00 | |
| OM5KV | 2026-09-05 02:08:30 | 48.23268 | 18.42175 | 82° | 97km/h | 5452m | -5.9m/s | -8.1°C | 37.0% | 0hPa | 2.5V | 07:51:00 | 00:00:00 | 00:00:00 | |
| ATIDSZ-14 | 2026-09-05 02:08:27 | 48.23257 | 18.42065 | 81° | 95km/h | 5469m | -6.5m/s | -8.2°C | 39.4% | 0hPa | 2.5V | 07:51:00 | 00:00:00 | 00:00:00 | |
| OM5KV | 2026-09-05 02:08:24 | 48.23246 | 18.41957 | 82° | 99km/h | 5487m | -6.4m/s | -8.4°C | 41.9% | 0hPa | 2.5V | 07:51:00 | 00:00:00 | 00:00:00 | |
| HA6NAB-11 | 2026-09-05 02:08:23 | 48.23242 | 18.41921 | 81° | 95km/h | 5493m | -6.8m/s | -8.5°C | 43.2% | 0hPa | 2.5V | 00:00:00 | 00:00:00 | 00:00:00 | |
| PETON7-10 | 2026-09-05 02:08:22 | 48.23235 | 18.41849 | 82° | 97km/h | 5506m | -6.6m/s | -8.5°C | 45.3% | 0hPa | 2.5V | 00:00:00 | 02:45:39 | 00:00:00 | |
| OM5KV | 2026-09-05 02:08:21 | 48.23235 | 18.41849 | 83° | 97km/h | 5506m | -6.7m/s | -8.6°C | 44.0% | 0hPa | 2.5V | 07:51:00 | 00:00:00 | 00:00:00 | |
| OM5KV | 2026-09-05 02:08:18 | 48.23224 | 18.41739 | 84° | 97km/h | 5525m | -6.7m/s | -8.7°C | 44.0% | 0hPa | 2.5V | 07:51:00 | 00:00:00 | 00:00:00 | |
| HA6NAB-11 | 2026-09-05 02:08:17 | 48.23221 | 18.41703 | 82° | 99km/h | 5531m | -6.5m/s | -8.7°C | 43.9% | 0hPa | 2.5V | 00:00:00 | 00:00:00 | 00:00:00 | |
| OM5KV | 2026-09-05 02:08:14 | 48.23210 | 18.41593 | 82° | 99km/h | 5550m | -6.6m/s | -8.8°C | 42.4% | 0hPa | 2.5V | 07:51:00 | 00:00:00 | 00:00:00 | |
| OM5KV | 2026-09-05 02:08:13 | 48.23206 | 18.41556 | 82° | 97km/h | 5556m | -6.9m/s | -8.9°C | 41.7% | 0hPa | 2.5V | 07:51:00 | 00:00:00 | 00:00:00 | |
| HA6NAB-11 | 2026-09-05 02:08:12 | 48.23202 | 18.41520 | 82° | 97km/h | 5562m | -7.2m/s | -9.0°C | 41.8% | 0hPa | 2.5V | 00:00:00 | 00:00:00 | 00:00:00 | |
| OE3OSB-13 | 2026-09-05 02:08:10 | 48.23189 | 18.41373 | 81° | 99km/h | 5588m | -7.0m/s | -9.2°C | 41.6% | -1.0hPa | 2.5V | 00:00:00 | 00:00:00 | 00:00:00 | |
| OM5KV | 2026-09-05 02:08:08 | 48.23189 | 18.41373 | 83° | 99km/h | 5588m | -7.0m/s | -9.2°C | 41.7% | 0hPa | 2.5V | 07:51:00 | 00:00:00 | 00:00:00 | |
| PETON7-10 | 2026-09-05 02:08:07 | 48.23182 | 18.41299 | 84° | 100km/h | 5601m | -6.9m/s | -9.2°C | 43.1% | 0hPa | 2.5V | 00:00:00 | 00:00:00 | 00:00:00 | |
| ATIDSZ-14 | 2026-09-05 02:08:06 | 48.23182 | 18.41299 | 84° | 97km/h | 5601m | -7.0m/s | -9.3°C | 41.9% | 0hPa | 2.4V | 07:51:00 | 00:00:00 | 00:00:00 | |
| OM5KV | 2026-09-05 02:08:04 | 48.23176 | 18.41224 | 82° | 99km/h | 5614m | -6.6m/s | -9.3°C | 40.5% | 0hPa | 2.4V | 07:51:00 | 00:00:00 | 00:00:00 | |
| OM5KV | 2026-09-05 02:08:03 | 48.23172 | 18.41187 | 82° | 99km/h | 5620m | -6.6m/s | -9.3°C | 38.0% | 0hPa | 2.4V | 07:51:00 | 00:00:00 | 00:00:00 | |
| OM5KV | 2026-09-05 02:08:01 | 48.23164 | 18.41111 | 83° | 102km/h | 5632m | -6.6m/s | -9.4°C | 36.7% | 0hPa | 2.4V | 07:51:00 | 00:00:00 | 00:00:00 | |
| OM5KV | 2026-09-05 02:07:57 | 48.23151 | 18.40959 | 83° | 100km/h | 5658m | -7.1m/s | -9.5°C | 34.5% | 0hPa | 2.4V | 07:51:00 | 00:00:00 | 00:00:00 | |
| OM5KV | 2026-09-05 02:07:53 | 48.23135 | 18.40806 | 83° | 102km/h | 5684m | -7.3m/s | -9.3°C | 30.5% | 0hPa | 2.4V | 07:51:00 | 00:00:00 | 00:00:00 | |
| PETON7-10 | 2026-09-05 02:07:52 | 48.23129 | 18.40728 | 83° | 104km/h | 5697m | -7.0m/s | -9.3°C | 31.6% | 0hPa | 2.4V | 00:00:00 | 00:00:00 | 00:00:00 | |
| S52SK | 2026-09-05 02:07:51 | 48.23129 | 18.40728 | 83° | 104km/h | 5697m | -7.0m/s | -9.4°C | 30.6% | 0hPa | 2.4V | 00:00:00 | 00:00:00 | 00:00:00 | |
| OM5KV | 2026-09-05 02:07:49 | 48.23121 | 18.40649 | 82° | 102km/h | 5710m | -6.9m/s | -9.5°C | 33.1% | 0hPa | 2.4V | 07:51:00 | 00:00:00 | 00:00:00 | |
| ATIDSZ-14 | 2026-09-05 02:07:46 | 48.23111 | 18.40533 | 82° | 104km/h | 5730m | -7.4m/s | -9.6°C | 35.6% | 0hPa | 2.4V | 07:51:00 | 00:00:00 | 00:00:00 | |
| OE3OSB-13 | 2026-09-05 02:07:39 | 48.23080 | 18.40179 | 83° | 102km/h | 5788m | -7.3m/s | -10.2°C | 36.9% | -1.0hPa | 2.4V | 00:00:00 | 00:00:00 | 00:00:00 | |
| PETON7-10 | 2026-09-05 02:07:37 | 48.23077 | 18.40139 | 84° | 104km/h | 5795m | -6.9m/s | -10.2°C | 38.4% | 0hPa | 2.4V | 07:51:00 | 02:44:54 | 00:00:00 | |
| OM5KV | 2026-09-05 02:07:35 | 48.23074 | 18.40099 | 83° | 106km/h | 5802m | -6.7m/s | -10.3°C | 37.3% | 0hPa | 2.4V | 07:52:00 | 00:00:00 | 00:00:00 | |
| HA6NAB-11 | 2026-09-05 02:07:31 | 48.23061 | 18.39942 | 82° | 104km/h | 5828m | -6.7m/s | -10.6°C | 38.1% | 0hPa | 2.4V | 00:00:00 | 00:00:00 | 00:00:00 | |
| ATIDSZ-14 | 2026-09-05 02:07:25 | 48.23042 | 18.39704 | 83° | 104km/h | 5867m | -7.3m/s | -10.9°C | 38.5% | 0hPa | 2.4V | 07:52:00 | 00:00:00 | 00:00:00 | |
| OM5KV | 2026-09-05 02:07:24 | 48.23039 | 18.39664 | 86° | 106km/h | 5874m | -7.2m/s | -11.0°C | 39.0% | 0hPa | 2.4V | 07:52:00 | 00:00:00 | 00:00:00 | |
| PETON7-10 | 2026-09-05 02:07:22 | 48.23030 | 18.39545 | 86° | 106km/h | 5894m | -6.9m/s | -11.1°C | 40.8% | 0hPa | 2.4V | 00:00:00 | 00:00:00 | 00:00:00 | |
| OM5KV | 2026-09-05 02:07:21 | 48.23030 | 18.39545 | 86° | 104km/h | 5894m | -7.0m/s | -11.2°C | 39.5% | 0hPa | 2.4V | 07:52:00 | 00:00:00 | 00:00:00 | |
| HA6NAB-11 | 2026-09-05 02:07:20 | 48.23027 | 18.39505 | 84° | 106km/h | 5900m | -6.8m/s | -11.2°C | 39.9% | 0hPa | 2.4V | 00:00:00 | 00:00:00 | 00:00:00 | |
| OM5KV | 2026-09-05 02:07:15 | 48.23011 | 18.39306 | 84° | 106km/h | 5933m | -6.8m/s | -11.5°C | 42.3% | 0hPa | 2.4V | 07:52:00 | 00:00:00 | 00:00:00 | |
| OM5KV | 2026-09-05 02:07:14 | 48.23008 | 18.39266 | 86° | 104km/h | 5939m | -7.2m/s | -11.6°C | 42.4% | 0hPa | 2.4V | 07:52:00 | 00:00:00 | 00:00:00 | |
| OM5KV | 2026-09-05 02:07:10 | 48.22990 | 18.39067 | 83° | 104km/h | 5971m | -7.2m/s | -11.9°C | 43.1% | 0hPa | 2.4V | 07:52:00 | 00:00:00 | 00:00:00 | |
| HA6NAB-11 | 2026-09-05 02:07:09 | 48.22990 | 18.39067 | 83° | 104km/h | 5971m | -7.2m/s | -11.9°C | 43.1% | 0hPa | 2.4V | 00:00:00 | 00:00:00 | 00:00:00 | |
| OE3OSB-13 | 2026-09-05 02:07:08 | 48.22979 | 18.38948 | 83° | 104km/h | 5991m | -7.3m/s | -12.1°C | 43.0% | -1.0hPa | 2.4V | 00:00:00 | 00:00:00 | 00:00:00 | |
| PETON7-10 | 2026-09-05 02:07:07 | 48.22979 | 18.38948 | 84° | 106km/h | 5991m | -7.2m/s | -12.0°C | 44.6% | 0hPa | 2.4V | 00:00:00 | 00:00:00 | 00:00:00 | |
| ATIDSZ-14 | 2026-09-05 02:07:05 | 48.22976 | 18.38908 | 85° | 104km/h | 5998m | -6.9m/s | -12.1°C | 43.3% | 0hPa | 2.4V | 07:52:00 | 00:00:00 | 00:00:00 | |
| OM5KV | 2026-09-05 02:07:03 | 48.22970 | 18.38829 | 83° | 106km/h | 6011m | -7.0m/s | -12.2°C | 46.0% | 0hPa | 2.4V | 07:52:00 | 00:00:00 | 00:00:00 | |
| OM5KV | 2026-09-05 02:06:57 | 48.22947 | 18.38589 | 82° | 106km/h | 6050m | -7.2m/s | -12.6°C | 53.3% | 0hPa | 2.4V | 07:52:00 | 00:00:00 | 00:00:00 | |
| OM5KV | 2026-09-05 02:06:56 | 48.22943 | 18.38550 | 84° | 106km/h | 6056m | -7.7m/s | -12.6°C | 55.5% | 0hPa | 2.4V | 07:52:00 | 00:00:00 | 00:00:00 | |
| PETON7-10 | 2026-09-05 02:06:52 | 48.22924 | 18.38348 | 82° | 108km/h | 6089m | -7.4m/s | -12.8°C | 61.4% | 0hPa | 2.4V | 00:00:00 | 02:44:09 | 00:00:00 | |
| OM5KV | 2026-09-05 02:06:51 | 48.22923 | 18.38348 | 83° | 106km/h | 6089m | -7.4m/s | -12.9°C | 59.3% | 0hPa | 2.4V | 07:52:00 | 00:00:00 | 00:00:00 | |
| OM5KV | 2026-09-05 02:06:50 | 48.22920 | 18.38308 | 84° | 106km/h | 6096m | -7.5m/s | -12.9°C | 59.3% | 0hPa | 2.4V | 07:52:00 | 00:00:00 | 00:00:00 | |
| OM5KV | 2026-09-05 02:06:46 | 48.22902 | 18.38106 | 84° | 108km/h | 6130m | -7.8m/s | -13.2°C | 61.1% | 0hPa | 2.4V | 07:52:00 | 00:00:00 | 00:00:00 | |
| S52SK | 2026-09-05 02:06:45 | 48.22902 | 18.38106 | 84° | 108km/h | 6130m | -7.8m/s | -13.2°C | 61.1% | 0hPa | 2.4V | 07:52:00 | 00:00:00 | 00:00:00 | |
| ATIDSZ-14 | 2026-09-05 02:06:44 | 48.22899 | 18.38066 | 86° | 106km/h | 6137m | -7.3m/s | -13.3°C | 61.3% | 0hPa | 2.4V | 07:53:00 | 00:00:00 | 00:00:00 | |
| OM5KV | 2026-09-05 02:06:39 | 48.22884 | 18.37862 | 84° | 110km/h | 6170m | -6.8m/s | -13.5°C | 62.1% | 0hPa | 2.4V | 07:53:00 | 00:00:00 | 00:00:00 | |
| OM5KV | 2026-09-05 02:06:38 | 48.22880 | 18.37821 | 83° | 108km/h | 6176m | -7.1m/s | -13.5°C | 61.8% | 0hPa | 2.4V | 07:53:00 | 00:00:00 | 00:00:00 | |
| PETON7-10 | 2026-09-05 02:06:37 | 48.22874 | 18.37740 | 84° | 110km/h | 6190m | -7.1m/s | -13.6°C | 62.0% | 0hPa | 2.4V | 00:00:00 | 00:00:00 | 00:00:00 | |
| OM5KV | 2026-09-05 02:06:34 | 48.22867 | 18.37658 | 85° | 108km/h | 6203m | -7.8m/s | -13.7°C | 56.8% | 0hPa | 2.5V | 07:53:00 | 00:00:00 | 00:00:00 | |
| OM5KV | 2026-09-05 02:06:33 | 48.22864 | 18.37617 | 85° | 110km/h | 6210m | -7.2m/s | -13.7°C | 54.7% | 0hPa | 2.5V | 07:53:00 | 00:00:00 | 00:00:00 | |
| OE3JTB-15 | 2026-09-05 02:06:30 | 48.22853 | 18.37452 | 84° | 111km/h | 6238m | -6.8m/s | -13.8°C | 58.3% | 0hPa | 2.5V | 00:00:00 | 02:43:47 | 00:00:00 | |
| OM5KV | 2026-09-05 02:06:27 | 48.22847 | 18.37369 | 86° | 108km/h | 6251m | -7.8m/s | -13.9°C | 56.5% | 0hPa | 2.5V | 07:53:00 | 00:00:00 | 00:00:00 | |
| HA6NAB-11 | 2026-09-05 02:06:26 | 48.22844 | 18.37327 | 86° | 111km/h | 6258m | -7.3m/s | -13.9°C | 55.7% | 0hPa | 2.5V | 00:00:00 | 00:00:00 | 00:00:00 | |
| ATIDSZ-14 | 2026-09-05 02:06:23 | 48.22836 | 18.37203 | 85° | 110km/h | 6278m | -7.5m/s | -14.0°C | 54.3% | 0hPa | 2.5V | 07:53:00 | 00:00:00 | 00:00:00 | |
| PETON7-10 | 2026-09-05 02:06:22 | 48.22830 | 18.37119 | 84° | 111km/h | 6291m | -7.0m/s | -14.1°C | 56.5% | 0hPa | 2.5V | 00:00:00 | 00:00:00 | 00:00:00 | |
| HA6NAB-11 | 2026-09-05 02:06:21 | 48.22830 | 18.37119 | 85° | 111km/h | 6291m | -7.0m/s | -14.1°C | 54.5% | 0hPa | 2.5V | 00:00:00 | 00:00:00 | 00:00:00 | |
| GYPAP8-17 | 2026-09-05 02:06:19 | 48.22824 | 18.37036 | 86° | 110km/h | 6305m | -7.7m/s | -14.2°C | 53.4% | 0hPa | 2.5V | 00:00:00 | 00:00:00 | 00:00:00 | |
| OM5KV | 2026-09-05 02:06:17 | 48.22816 | 18.36910 | 85° | 110km/h | 6325m | -7.4m/s | -14.3°C | 52.1% | 0hPa | 2.5V | 07:53:00 | 00:00:00 | 00:00:00 | |
| OM5KV | 2026-09-05 02:06:16 | 48.22816 | 18.36910 | 85° | 110km/h | 6325m | -7.4m/s | -14.3°C | 52.1% | 0hPa | 2.5V | 07:53:00 | 00:00:00 | 00:00:00 | |
| HA6NAB-11 | 2026-09-05 02:06:15 | 48.22814 | 18.36869 | 87° | 111km/h | 6332m | -7.2m/s | -14.4°C | 50.6% | 0hPa | 2.5V | 00:00:00 | 00:00:00 | 00:00:00 | |
| OM5KV | 2026-09-05 02:06:10 | 48.22802 | 18.36659 | 86° | 111km/h | 6365m | -6.9m/s | -14.6°C | 49.0% | 0hPa | 2.5V | 07:53:00 | 00:00:00 | 00:00:00 | |
| HA6NAB-11 | 2026-09-05 02:06:09 | 48.22799 | 18.36617 | 85° | 110km/h | 6371m | -7.2m/s | -14.7°C | 49.2% | 0hPa | 2.5V | 00:00:00 | 00:00:00 | 00:00:00 | |
| PETON7-10 | 2026-09-05 02:06:07 | 48.22793 | 18.36490 | 86° | 111km/h | 6392m | -6.8m/s | -14.8°C | 49.8% | 0hPa | 2.5V | 00:00:00 | 02:43:24 | 00:00:00 | |
| OE3OSB-13 | 2026-09-05 02:06:06 | 48.22788 | 18.36406 | 86° | 110km/h | 6404m | -7.5m/s | -15.0°C | 48.1% | -1.0hPa | 2.5V | 00:00:00 | 00:00:00 | 00:00:00 | |
| HA6NAB-11 | 2026-09-05 02:06:04 | 48.22788 | 18.36406 | 88° | 110km/h | 6404m | -7.5m/s | -15.0°C | 48.1% | 0hPa | 2.5V | 00:00:00 | 00:00:00 | 00:00:00 | |
| ATIDSZ-14 | 2026-09-05 02:06:03 | 48.22787 | 18.36364 | 88° | 111km/h | 6411m | -6.9m/s | -15.0°C | 48.0% | 0hPa | 2.5V | 07:53:00 | 00:00:00 | 00:00:00 | |
| OM5KV | 2026-09-05 02:06:01 | 48.22782 | 18.36279 | 86° | 110km/h | 6424m | -7.2m/s | -15.1°C | 46.4% | 0hPa | 2.5V | 07:53:00 | 00:00:00 | 00:00:00 | |
| HA6NAB-11 | 2026-09-05 02:05:59 | 48.22777 | 18.36153 | 87° | 111km/h | 6444m | -6.7m/s | -15.3°C | 45.5% | 0hPa | 2.5V | 00:00:00 | 00:00:00 | 00:00:00 | |
| OM5KV | 2026-09-05 02:05:58 | 48.22777 | 18.36153 | 87° | 111km/h | 6444m | -6.7m/s | -15.3°C | 45.5% | 0hPa | 2.5V | 07:53:00 | 00:00:00 | 00:00:00 | |
| OM5KV | 2026-09-05 02:05:53 | 48.22769 | 18.35942 | 87° | 111km/h | 6476m | -7.3m/s | -15.6°C | 49.5% | 0hPa | 2.5V | 07:54:00 | 00:00:00 | 00:00:00 | |
| PETON7-10 | 2026-09-05 02:05:52 | 48.22765 | 18.35857 | 88° | 111km/h | 6489m | -7.6m/s | -15.7°C | 52.9% | 0hPa | 2.5V | 00:00:00 | 00:00:00 | 00:00:00 | |
| OM5KV | 2026-09-05 02:05:50 | 48.22764 | 18.35815 | 90° | 111km/h | 6497m | -7.7m/s | -15.7°C | 50.6% | 0hPa | 2.2V | 07:54:00 | 00:00:00 | 00:00:00 | |
| S52SK | 2026-09-05 02:05:49 | 48.22763 | 18.35773 | 91° | 110km/h | 6504m | -7.7m/s | -15.8°C | 51.5% | 0hPa | 2.2V | 00:00:00 | 00:00:00 | 00:00:00 | |
| OM5KV | 2026-09-05 02:05:47 | 48.22763 | 18.35690 | 91° | 111km/h | 6518m | -7.3m/s | -15.8°C | 50.7% | 0hPa | 2.2V | 07:54:00 | 00:00:00 | 00:00:00 | |
| S52SK | 2026-09-05 02:05:44 | 48.22762 | 18.35563 | 89° | 111km/h | 6537m | -6.4m/s | -16.0°C | 47.9% | 0hPa | 2.2V | 00:00:00 | 00:00:00 | 00:00:00 | |
| ATIDSZ-14 | 2026-09-05 02:05:42 | 48.22760 | 18.35477 | 89° | 111km/h | 6549m | -6.7m/s | -16.1°C | 48.4% | 0hPa | 2.2V | 07:54:00 | 00:00:00 | 00:00:00 | |
| OM5KV | 2026-09-05 02:05:41 | 48.22760 | 18.35435 | 89° | 110km/h | 6555m | -7.2m/s | -16.2°C | 48.1% | 0hPa | 2.2V | 07:54:00 | 00:00:00 | 00:00:00 | |
| S52SK | 2026-09-05 02:05:38 | 48.22758 | 18.35310 | 91° | 111km/h | 6575m | -7.0m/s | -16.2°C | 36.8% | 0hPa | 2.2V | 00:00:00 | 00:00:00 | 00:00:00 | |
| PETON7-10 | 2026-09-05 02:05:37 | 48.22758 | 18.35225 | 89° | 110km/h | 6589m | -7.1m/s | -16.0°C | 31.5% | 0hPa | 2.2V | 07:53:00 | 00:00:00 | 00:00:00 | |
| OE3OSB-13 | 2026-09-05 02:05:35 | 48.22758 | 18.35099 | 90° | 110km/h | 6608m | -7.6m/s | -16.2°C | 24.5% | -1.0hPa | 2.2V | 00:00:00 | 00:00:00 | 00:00:00 | |
| OM5KV | 2026-09-05 02:05:32 | 48.22758 | 18.35057 | 91° | 113km/h | 6615m | -7.2m/s | -16.2°C | 21.9% | 0hPa | 2.2V | 07:54:00 | 00:00:00 | 00:00:00 | |
| OM5KV | 2026-09-05 02:05:31 | 48.22758 | 18.35015 | 90° | 110km/h | 6622m | -7.0m/s | -16.2°C | 20.0% | 0hPa | 2.2V | 07:54:00 | 00:00:00 | 00:00:00 | |
| OE3JTB-15 | 2026-09-05 02:05:30 | 48.22758 | 18.34930 | 90° | 110km/h | 6636m | -6.9m/s | -16.3°C | 21.9% | 0hPa | 2.2V | 00:00:00 | 00:00:00 | 00:00:00 | |
| OM5KV | 2026-09-05 02:05:29 | 48.22758 | 18.34930 | 90° | 113km/h | 6636m | -7.0m/s | -16.3°C | 20.8% | 0hPa | 2.2V | 07:54:00 | 00:00:00 | 00:00:00 | |
| OM5KV | 2026-09-05 02:05:26 | 48.22758 | 18.34805 | 90° | 111km/h | 6655m | -6.9m/s | -16.5°C | 24.3% | 0hPa | 2.2V | 07:54:00 | 00:00:00 | 00:00:00 | |
| PETON7-10 | 2026-09-05 02:05:22 | 48.22756 | 18.34596 | 89° | 110km/h | 6687m | -6.6m/s | -16.7°C | 25.7% | 0hPa | 2.2V | 00:00:00 | 02:42:39 | 00:00:00 | |
| OM5KV | 2026-09-05 02:05:21 | 48.22756 | 18.34596 | 90° | 111km/h | 6687m | -6.6m/s | -16.8°C | 24.5% | 0hPa | 2.2V | 07:54:00 | 00:00:00 | 00:00:00 | |
| OM5KV | 2026-09-05 02:05:18 | 48.22753 | 18.34471 | 91° | 110km/h | 6705m | -7.3m/s | -16.9°C | 21.7% | 0hPa | 2.2V | 07:54:00 | 00:00:00 | 00:00:00 | |
| HA6NAB-11 | 2026-09-05 02:05:17 | 48.22753 | 18.34430 | 91° | 110km/h | 6712m | -6.9m/s | -16.9°C | 19.1% | 0hPa | 2.2V | 07:54:00 | 00:00:00 | 00:00:00 | |
| OM5KV | 2026-09-05 02:05:15 | 48.22751 | 18.34345 | 89° | 110km/h | 6724m | -6.8m/s | -17.0°C | 17.4% | 0hPa | 2.2V | 07:54:00 | 00:00:00 | 00:00:00 | |
| HA6NAB-11 | 2026-09-05 02:05:12 | 48.22747 | 18.34179 | 89° | 110km/h | 6750m | -6.9m/s | -17.1°C | 14.2% | 0hPa | 2.2V | 07:54:00 | 00:00:00 | 00:00:00 | |
| OM5KV | 2026-09-05 02:05:09 | 48.22744 | 18.34098 | 90° | 106km/h | 6762m | -7.4m/s | -17.2°C | 13.7% | 0hPa | 2.2V | 07:54:00 | 00:00:00 | 00:00:00 | |
| PETON7-10 | 2026-09-05 02:05:07 | 48.22744 | 18.33976 | 91° | 106km/h | 6783m | -7.4m/s | -17.3°C | 13.5% | 0hPa | 2.2V | 00:00:00 | 00:00:00 | 00:00:00 | |
| HA6NAB-11 | 2026-09-05 02:05:05 | 48.22743 | 18.33935 | 91° | 108km/h | 6789m | -7.4m/s | -17.4°C | 12.3% | 0hPa | 2.5V | 07:54:00 | 00:00:00 | 00:00:00 | |
| OE3OSB-13 | 2026-09-05 02:05:04 | 48.22744 | 18.33813 | 90° | 106km/h | 6809m | -7.4m/s | -17.6°C | 10.8% | -1.0hPa | 2.5V | 00:00:00 | 00:00:00 | 00:00:00 | |
| OE3JTB-15 | 2026-09-05 02:05:01 | 48.22744 | 18.33732 | 90° | 104km/h | 6822m | -7.0m/s | -17.6°C | 11.6% | 0hPa | 2.5V | 00:00:00 | 02:42:18 | 00:00:00 | |
| HA6NAB-11 | 2026-09-05 02:04:59 | 48.22743 | 18.33692 | 90° | 106km/h | 6828m | -7.1m/s | -17.7°C | 10.5% | 0hPa | 2.5V | 07:55:00 | 00:00:00 | 00:00:00 | |
| OM5KV | 2026-09-05 02:04:58 | 48.22743 | 18.33652 | 90° | 106km/h | 6835m | -7.1m/s | -17.7°C | 9.9% | 0hPa | 2.5V | 07:55:00 | 00:00:00 | 00:00:00 | |
| HA6NAB-11 | 2026-09-05 02:04:53 | 48.22745 | 18.33451 | 92° | 106km/h | 6868m | -7.0m/s | -17.8°C | 9.1% | 0hPa | 2.5V | 07:55:00 | 00:00:00 | 00:00:00 | |
| OM5KV | 2026-09-05 02:04:50 | 48.22747 | 18.33331 | 94° | 106km/h | 6888m | -7.2m/s | -17.9°C | 8.9% | 0hPa | 2.5V | 07:55:00 | 00:00:00 | 00:00:00 | |
| OM5KV | 2026-09-05 02:04:48 | 48.22748 | 18.33252 | 92° | 104km/h | 6901m | -7.1m/s | -18.0°C | 8.7% | 0hPa | 2.5V | 07:55:00 | 00:00:00 | 00:00:00 | |
| POL2MAQ | 2026-09-05 02:04:45 | 48.22751 | 18.33133 | 92° | 102km/h | 6920m | -7.0m/s | -18.1°C | 8.1% | 0hPa | 2.5V | 00:00:00 | 00:00:00 | 00:00:00 | |
| S52SK | 2026-09-05 02:04:42 | 48.22754 | 18.33014 | 92° | 102km/h | 6940m | -7.1m/s | -18.3°C | 7.9% | 0hPa | 2.5V | 00:00:00 | 00:00:00 | 00:00:00 | |
| ATIDSZ-14 | 2026-09-05 02:04:41 | 48.22755 | 18.32975 | 95° | 104km/h | 6946m | -7.5m/s | -18.4°C | 7.8% | 0hPa | 2.5V | 07:55:00 | 00:00:00 | 00:00:00 | |
| PETON7-10 | 2026-09-05 02:04:37 | 48.22759 | 18.32777 | 91° | 104km/h | 6979m | -6.9m/s | -18.6°C | 8.6% | 0hPa | 2.5V | 00:00:00 | 02:41:54 | 00:00:00 | |
| OM5KV | 2026-09-05 02:04:36 | 48.22759 | 18.32777 | 92° | 102km/h | 6979m | -7.0m/s | -18.6°C | 7.9% | 0hPa | 2.5V | 07:55:00 | 00:00:00 | 00:00:00 | |
| OE3OSB-13 | 2026-09-05 02:04:33 | 48.22763 | 18.32581 | 90° | 104km/h | 7012m | -7.0m/s | -18.9°C | 8.0% | -1.0hPa | 2.5V | 00:00:00 | 00:00:00 | 00:00:00 | |
| OM5KV | 2026-09-05 02:04:32 | 48.22763 | 18.32582 | 92° | 106km/h | 7012m | -7.0m/s | -18.9°C | 8.0% | 0hPa | 2.5V | 07:55:00 | 00:00:00 | 00:00:00 | |
| S52SK | 2026-09-05 02:04:31 | 48.22763 | 18.32582 | 92° | 106km/h | 7012m | -7.0m/s | -18.9°C | 8.0% | 0hPa | 2.5V | 00:00:00 | 00:00:00 | 00:00:00 | |
| OM5KV | 2026-09-05 02:04:30 | 48.22763 | 18.32542 | 91° | 102km/h | 7018m | -7.2m/s | -18.9°C | 8.1% | 0hPa | 2.5V | 07:55:00 | 00:00:00 | 00:00:00 | |
| OM5KV | 2026-09-05 02:04:26 | 48.22765 | 18.32385 | 94° | 102km/h | 7045m | -7.5m/s | -19.1°C | 8.4% | 0hPa | 2.5V | 07:55:00 | 00:00:00 | 00:00:00 | |
| PETON7-10 | 2026-09-05 02:04:22 | 48.22769 | 18.32186 | 94° | 106km/h | 7077m | -7.2m/s | -19.2°C | 10.2% | 0hPa | 2.5V | 00:00:00 | 00:00:00 | 00:00:00 | |
| ATIDSZ-14 | 2026-09-05 02:04:20 | 48.22771 | 18.32146 | 92° | 106km/h | 7084m | -6.7m/s | -19.3°C | 9.5% | 0hPa | 2.2V | 07:55:00 | 00:00:00 | 00:00:00 | |
| POL2MAQ | 2026-09-05 02:04:19 | 48.22771 | 18.32106 | 92° | 104km/h | 7091m | -7.2m/s | -19.3°C | 9.4% | 0hPa | 2.2V | 00:00:00 | 00:00:00 | 00:00:00 | |
| HA6NAB-11 | 2026-09-05 02:04:18 | 48.22772 | 18.32066 | 92° | 106km/h | 7097m | -7.5m/s | -19.3°C | 8.9% | 0hPa | 2.2V | 07:55:00 | 00:00:00 | 00:00:00 | |
| GYPAP8-17 | 2026-09-05 02:04:17 | 48.22773 | 18.32026 | 95° | 104km/h | 7103m | -7.6m/s | -19.3°C | 8.7% | 0hPa | 2.2V | 00:00:00 | 00:00:00 | 00:00:00 | |
| HA6NAB-11 | 2026-09-05 02:04:12 | 48.22779 | 18.31824 | 95° | 108km/h | 7137m | -7.5m/s | -19.4°C | 7.4% | 0hPa | 2.2V | 07:55:00 | 00:00:00 | 00:00:00 | |
| OM5KV | 2026-09-05 02:04:10 | 48.22781 | 18.31741 | 92° | 108km/h | 7150m | -7.2m/s | -19.5°C | 7.4% | 0hPa | 2.2V | 07:56:00 | 00:00:00 | 00:00:00 | |
| PETON7-10 | 2026-09-05 02:04:07 | 48.22786 | 18.31577 | 92° | 110km/h | 7177m | -7.0m/s | -19.7°C | 7.9% | 0hPa | 2.2V | 00:00:00 | 00:00:00 | 00:00:00 | |
| OM5KV | 2026-09-05 02:04:04 | 48.22788 | 18.31495 | 96° | 108km/h | 7190m | -7.3m/s | -19.8°C | 6.9% | 0hPa | 2.2V | 07:56:00 | 00:00:00 | 00:00:00 | |
| OE3JTB-15 | 2026-09-05 02:04:03 | 48.22791 | 18.31411 | 92° | 110km/h | 7203m | -7.3m/s | -19.9°C | 7.4% | 0hPa | 2.2V | 07:55:00 | 00:00:00 | 00:00:00 | |
| OM5KV | 2026-09-05 02:04:02 | 48.22791 | 18.31411 | 93° | 108km/h | 7203m | -7.3m/s | -19.9°C | 6.7% | 0hPa | 2.2V | 07:56:00 | 00:00:00 | 00:00:00 | |
| HA6NAB-11 | 2026-09-05 02:04:01 | 48.22792 | 18.31370 | 96° | 108km/h | 7210m | -7.5m/s | -20.0°C | 6.8% | 0hPa | 2.2V | 00:00:00 | 00:00:00 | 00:00:00 | |
| ATIDSZ-14 | 2026-09-05 02:04:00 | 48.22794 | 18.31329 | 93° | 110km/h | 7216m | -6.8m/s | -20.0°C | 6.8% | 0hPa | 2.2V | 07:56:00 | 00:00:00 | 00:00:00 | |
| OM5KV | 2026-09-05 02:03:58 | 48.22797 | 18.31247 | 96° | 108km/h | 7229m | -7.4m/s | -20.1°C | 6.6% | 0hPa | 2.2V | 07:56:00 | 00:00:00 | 00:00:00 | |
| OM5KV | 2026-09-05 02:03:57 | 48.22799 | 18.31205 | 94° | 111km/h | 7236m | -7.1m/s | -20.2°C | 6.5% | 0hPa | 2.2V | 07:56:00 | 00:00:00 | 00:00:00 | |
| HA6NAB-11 | 2026-09-05 02:03:55 | 48.22802 | 18.31123 | 96° | 108km/h | 7249m | -7.8m/s | -20.3°C | 6.4% | 0hPa | 2.2V | 00:00:00 | 00:00:00 | 00:00:00 | |
| PETON7-10 | 2026-09-05 02:03:52 | 48.22810 | 18.30957 | 95° | 110km/h | 7276m | -7.3m/s | -20.4°C | 7.0% | 0hPa | 2.2V | 00:00:00 | 02:41:09 | 00:00:00 | |
| HA6NAB-11 | 2026-09-05 02:03:49 | 48.22813 | 18.30874 | 94° | 108km/h | 7289m | -7.4m/s | -20.6°C | 6.3% | 0hPa | 2.2V | 00:00:00 | 00:00:00 | 00:00:00 | |
| OM5KV | 2026-09-05 02:03:48 | 48.22817 | 18.30792 | 94° | 110km/h | 7303m | -7.0m/s | -20.7°C | 6.4% | 0hPa | 2.2V | 07:56:00 | 00:00:00 | 00:00:00 | |
| OM5KV | 2026-09-05 02:03:46 | 48.22818 | 18.30751 | 94° | 108km/h | 7309m | -7.5m/s | -20.7°C | 6.5% | 0hPa | 2.2V | 07:56:00 | 00:00:00 | 00:00:00 | |
| OM5KV | 2026-09-05 02:03:41 | 48.22828 | 18.30544 | 95° | 110km/h | 7343m | -7.4m/s | -20.9°C | 6.6% | 0hPa | 2.2V | 07:56:00 | 00:00:00 | 00:00:00 | |
| OM5KV | 2026-09-05 02:03:40 | 48.22830 | 18.30503 | 95° | 110km/h | 7350m | -7.8m/s | -21.0°C | 6.6% | 0hPa | 2.2V | 07:56:00 | 00:00:00 | 00:00:00 | |
| ATIDSZ-14 | 2026-09-05 02:03:39 | 48.22832 | 18.30461 | 95° | 111km/h | 7357m | -7.2m/s | -21.0°C | 6.6% | 0hPa | 2.2V | 07:56:00 | 00:00:00 | 00:00:00 | |
| PETON7-10 | 2026-09-05 02:03:37 | 48.22838 | 18.30337 | 96° | 111km/h | 7377m | -7.5m/s | -21.0°C | 7.0% | 0hPa | 2.2V | 07:55:00 | 00:00:00 | 00:00:00 | |
| GYPAP8-17 | 2026-09-05 02:03:36 | 48.22837 | 18.30337 | 96° | 111km/h | 7377m | -7.6m/s | -21.0°C | 6.2% | 0hPa | 2.2V | 00:00:00 | 00:00:00 | 00:00:00 | |
| OM5KV | 2026-09-05 02:03:35 | 48.22840 | 18.30295 | 94° | 111km/h | 7384m | -7.0m/s | -21.0°C | 6.5% | 0hPa | 2.2V | 07:56:00 | 00:00:00 | 00:00:00 | |
| OM5KV | 2026-09-05 02:03:34 | 48.22841 | 18.30253 | 94° | 110km/h | 7390m | -7.3m/s | -21.1°C | 7.2% | 0hPa | 2.2V | 07:56:00 | 00:00:00 | 00:00:00 | |
| OE3JTB-15 | 2026-09-05 02:03:33 | 48.22845 | 18.30169 | 95° | 122km/h | 7404m | -7.2m/s | -21.0°C | 9.6% | 0hPa | 2.2V | 00:00:00 | 02:40:50 | 00:00:00 | |
| POL2MAQ | 2026-09-05 02:03:32 | 48.22845 | 18.30169 | 95° | 113km/h | 7404m | -7.3m/s | -21.1°C | 8.7% | 0hPa | 2.2V | 00:00:00 | 00:00:00 | 00:00:00 | |
| S52SK | 2026-09-05 02:03:30 | 48.22849 | 18.30085 | 95° | 111km/h | 7417m | -7.7m/s | -21.2°C | 9.8% | 0hPa | 2.2V | 00:00:00 | 00:00:00 | 00:00:00 | |
| OM5KV | 2026-09-05 02:03:29 | 48.22851 | 18.30042 | 96° | 113km/h | 7424m | -7.6m/s | -21.2°C | 10.2% | 0hPa | 2.2V | 07:56:00 | 00:00:00 | 00:00:00 | |
| OM5KV | 2026-09-05 02:03:27 | 48.22855 | 18.29958 | 95° | 111km/h | 7437m | -7.6m/s | -21.3°C | 11.3% | 0hPa | 2.2V | 07:56:00 | 00:00:00 | 00:00:00 | |
| S52SK | 2026-09-05 02:03:25 | 48.22860 | 18.29873 | 95° | 113km/h | 7451m | -7.5m/s | -21.5°C | 12.5% | 0hPa | 2.2V | 00:00:00 | 00:00:00 | 00:00:00 | |
| OM5KV | 2026-09-05 02:03:24 | 48.22861 | 18.29830 | 95° | 111km/h | 7458m | -7.7m/s | -21.5°C | 13.6% | 0hPa | 2.2V | 07:56:00 | 00:00:00 | 00:00:00 | |
| PETON7-10 | 2026-09-05 02:03:22 | 48.22868 | 18.29701 | 95° | 113km/h | 7479m | -7.7m/s | -21.7°C | 17.5% | 0hPa | 2.2V | 00:00:00 | 00:00:00 | 00:00:00 | |
| OM5KV | 2026-09-05 02:03:21 | 48.22868 | 18.29701 | 95° | 113km/h | 7479m | -7.7m/s | -21.7°C | 16.3% | 0hPa | 2.2V | 07:56:00 | 00:00:00 | 00:00:00 | |
| ATIDSZ-14 | 2026-09-05 02:03:19 | 48.22872 | 18.29615 | 94° | 115km/h | 7493m | -7.2m/s | -21.9°C | 18.0% | 0hPa | 2.2V | 07:56:00 | 00:00:00 | 00:00:00 | |
| OM5KV | 2026-09-05 02:03:18 | 48.22874 | 18.29572 | 95° | 113km/h | 7499m | -7.7m/s | -21.9°C | 18.8% | 0hPa | 2.2V | 07:56:00 | 00:00:00 | 00:00:00 | |
| OM5KV | 2026-09-05 02:03:15 | 48.22880 | 18.29442 | 96° | 113km/h | 7521m | -8.0m/s | -22.1°C | 21.4% | 0hPa | 2.2V | 07:56:00 | 00:00:00 | 00:00:00 | |
| HA6NAB-11 | 2026-09-05 02:03:13 | 48.22883 | 18.29354 | 93° | 113km/h | 7535m | -7.1m/s | -22.3°C | 22.3% | 0hPa | 2.2V | 00:00:00 | 00:00:00 | 00:00:00 | |
| OM5KV | 2026-09-05 02:03:12 | 48.22885 | 18.29312 | 97° | 113km/h | 7542m | -7.5m/s | -22.3°C | 22.5% | 0hPa | 2.2V | 07:56:00 | 00:00:00 | 00:00:00 | |
| OM5KV | 2026-09-05 02:03:10 | 48.22889 | 18.29225 | 93° | 113km/h | 7555m | -7.4m/s | -22.5°C | 22.9% | 0hPa | 2.2V | 07:56:00 | 00:00:00 | 00:00:00 | |
| HA6NAB-11 | 2026-09-05 02:03:08 | 48.22893 | 18.29139 | 95° | 115km/h | 7569m | -7.2m/s | -22.6°C | 23.3% | 0hPa | 2.2V | 00:00:00 | 00:00:00 | 00:00:00 | |
| OM5KV | 2026-09-05 02:03:07 | 48.22896 | 18.29053 | 93° | 111km/h | 7582m | -6.9m/s | -22.7°C | 23.2% | 0hPa | 2.2V | 07:56:00 | 00:00:00 | 00:00:00 | |
| POL2MAQ | 2026-09-05 02:03:06 | 48.22896 | 18.29053 | 93° | 111km/h | 7582m | -6.9m/s | -22.7°C | 23.2% | 0hPa | 2.2V | 00:00:00 | 00:00:00 | 00:00:00 | |
| HA6NAB-11 | 2026-09-05 02:03:02 | 48.22902 | 18.28883 | 93° | 111km/h | 7608m | -7.2m/s | -22.9°C | 22.9% | 0hPa | 2.2V | 00:00:00 | 00:00:00 | 00:00:00 | |
| OE3OSB-13 | 2026-09-05 02:03:00 | 48.22909 | 18.28714 | 94° | 110km/h | 7635m | -7.8m/s | -23.2°C | 21.7% | -1.0hPa | 2.2V | 00:00:00 | 00:00:00 | 00:00:00 | |
| ATIDSZ-14 | 2026-09-05 02:02:58 | 48.22909 | 18.28714 | 95° | 110km/h | 7635m | -7.8m/s | -23.2°C | 21.8% | 0hPa | 2.2V | 07:56:00 | 00:00:00 | 00:00:00 | |
| OM5KV | 2026-09-05 02:02:57 | 48.22911 | 18.28672 | 94° | 113km/h | 7642m | -7.7m/s | -23.2°C | 21.3% | 0hPa | 2.2V | 07:56:00 | 00:00:00 | 00:00:00 | |
| OM5KV | 2026-09-05 02:02:55 | 48.22914 | 18.28588 | 95° | 110km/h | 7655m | -7.9m/s | -23.3°C | 20.5% | 0hPa | 2.2V | 07:56:00 | 00:00:00 | 00:00:00 | |
| PETON7-10 | 2026-09-05 02:02:52 | 48.22921 | 18.28420 | 94° | 110km/h | 7683m | -6.8m/s | -23.4°C | 21.7% | 0hPa | 2.2V | 00:00:00 | 00:00:00 | 00:00:00 | |
| HA6NAB-11 | 2026-09-05 02:02:51 | 48.22921 | 18.28420 | 95° | 111km/h | 7683m | -6.9m/s | -23.5°C | 20.1% | 0hPa | 2.4V | 00:00:00 | 00:00:00 | 00:00:00 | |
| OM5KV | 2026-09-05 02:02:50 | 48.22923 | 18.28378 | 93° | 110km/h | 7689m | -7.4m/s | -23.5°C | 20.1% | 0hPa | 2.4V | 07:56:00 | 00:00:00 | 00:00:00 | |
| OM5KV | 2026-09-05 02:02:49 | 48.22925 | 18.28337 | 97° | 110km/h | 7696m | -7.8m/s | -23.6°C | 20.1% | 0hPa | 2.4V | 07:56:00 | 00:00:00 | 00:00:00 | |
| OM5KV | 2026-09-05 02:02:47 | 48.22929 | 18.28253 | 95° | 108km/h | 7710m | -7.7m/s | -23.7°C | 19.9% | 0hPa | 2.4V | 07:56:00 | 00:00:00 | 00:00:00 | |
| HA6NAB-11 | 2026-09-05 02:02:45 | 48.22932 | 18.28169 | 94° | 108km/h | 7724m | -7.4m/s | -23.8°C | 19.6% | 0hPa | 2.4V | 00:00:00 | 00:00:00 | 00:00:00 | |
| OM5KV | 2026-09-05 02:02:44 | 48.22934 | 18.28128 | 96° | 110km/h | 7731m | -7.9m/s | -23.9°C | 19.6% | 0hPa | 2.4V | 07:56:00 | 00:00:00 | 00:00:00 | |
| OM5KV | 2026-09-05 02:02:43 | 48.22936 | 18.28086 | 94° | 110km/h | 7738m | -7.7m/s | -23.9°C | 19.4% | 0hPa | 2.4V | 07:56:00 | 00:00:00 | 00:00:00 | |
| OM5KV | 2026-09-05 02:02:41 | 48.22940 | 18.28003 | 94° | 110km/h | 7752m | -7.2m/s | -24.0°C | 18.1% | 0hPa | 2.4V | 07:56:00 | 00:00:00 | 00:00:00 | |
| ATIDSZ-14 | 2026-09-05 02:02:38 | 48.22946 | 18.27879 | 95° | 110km/h | 7772m | -7.9m/s | -24.2°C | 14.8% | 0hPa | 2.4V | 07:56:00 | 00:00:00 | 00:00:00 | |
| PETON7-10 | 2026-09-05 02:02:37 | 48.22950 | 18.27796 | 93° | 110km/h | 7786m | -7.5m/s | -24.2°C | 16.3% | 0hPa | 2.4V | 00:00:00 | 00:00:00 | 00:00:00 | |
| OM5KV | 2026-09-05 02:02:30 | 48.22962 | 18.27547 | 95° | 110km/h | 7829m | -7.5m/s | -24.7°C | 18.7% | 0hPa | 2.4V | 07:56:00 | 00:00:00 | 00:00:00 | |
| OE3OSB-13 | 2026-09-05 02:02:28 | 48.22968 | 18.27422 | 93° | 108km/h | 7849m | -7.5m/s | -24.9°C | 18.4% | -1.0hPa | 2.4V | 00:00:00 | 00:00:00 | 00:00:00 | |
| OM5KV | 2026-09-05 02:02:27 | 48.22968 | 18.27422 | 94° | 108km/h | 7849m | -7.5m/s | -24.9°C | 18.5% | 0hPa | 2.4V | 07:57:00 | 00:00:00 | 00:00:00 | |
| S52SK | 2026-09-05 02:02:25 | 48.22973 | 18.27340 | 95° | 110km/h | 7863m | -7.5m/s | -25.0°C | 18.3% | 0hPa | 2.4V | 00:00:00 | 00:00:00 | 00:00:00 | |
| PETON7-10 | 2026-09-05 02:02:22 | 48.22981 | 18.27175 | 96° | 108km/h | 7891m | -7.7m/s | -25.2°C | 19.7% | 0hPa | 2.4V | 00:00:00 | 02:39:39 | 00:00:00 | |
| OM5KV | 2026-09-05 02:02:19 | 48.22985 | 18.27093 | 97° | 108km/h | 7905m | -8.1m/s | -25.3°C | 17.5% | 0hPa | 2.4V | 07:57:00 | 00:00:00 | 00:00:00 | |
| ATIDSZ-14 | 2026-09-05 02:02:18 | 48.22988 | 18.27052 | 95° | 110km/h | 7912m | -7.6m/s | -25.4°C | 17.2% | 0hPa | 2.4V | 07:57:00 | 00:00:00 | 00:00:00 | |
| OM5KV | 2026-09-05 02:02:12 | 48.23001 | 18.26806 | 97° | 108km/h | 7954m | -8.0m/s | -25.7°C | 11.4% | 0hPa | 2.4V | 07:57:00 | 00:00:00 | 00:00:00 | |
| OM5KV | 2026-09-05 02:02:09 | 48.23008 | 18.26682 | 97° | 108km/h | 7974m | -7.6m/s | -25.9°C | 10.6% | 0hPa | 2.4V | 07:57:00 | 00:00:00 | 00:00:00 | |
| HA6NAB-11 | 2026-09-05 02:02:08 | 48.23010 | 18.26642 | 95° | 110km/h | 7981m | -7.5m/s | -26.0°C | 10.9% | 0hPa | 2.4V | 00:00:00 | 00:00:00 | 00:00:00 | |
| PETON7-10 | 2026-09-05 02:02:07 | 48.23015 | 18.26560 | 96° | 108km/h | 7996m | -7.6m/s | -26.0°C | 12.8% | 0hPa | 2.4V | 00:00:00 | 00:00:00 | 00:00:00 | |
| OM5KV | 2026-09-05 02:02:06 | 48.23015 | 18.26559 | 96° | 110km/h | 7996m | -7.7m/s | -26.1°C | 11.6% | 0hPa | 2.2V | 07:57:00 | 00:00:00 | 00:00:00 | |
| HA6NAB-11 | 2026-09-05 02:02:03 | 48.23022 | 18.26436 | 96° | 110km/h | 8016m | -7.8m/s | -26.3°C | 13.2% | 0hPa | 2.2V | 00:00:00 | 00:00:00 | 00:00:00 | |
| OE3OSB-13 | 2026-09-05 02:01:57 | 48.23043 | 18.26150 | 95° | 108km/h | 8064m | -7.5m/s | -26.7°C | 14.9% | -1.0hPa | 2.2V | 00:00:00 | 00:00:00 | 00:00:00 | |
| OM5KV | 2026-09-05 02:01:54 | 48.23049 | 18.26069 | 97° | 106km/h | 8080m | -11.0m/s | -26.8°C | 17.1% | 0hPa | 2.2V | 07:57:00 | 00:00:00 | 00:00:00 | |
| PETON7-10 | 2026-09-05 02:01:52 | 48.23058 | 18.25947 | 97° | 104km/h | 8111m | -12.3m/s | -27.0°C | 20.5% | 0hPa | 2.2V | 00:00:00 | 00:00:00 | 00:00:00 | |
| OM5KV | 2026-09-05 02:01:41 | 48.23081 | 18.25550 | 95° | 106km/h | 8211m | -9.0m/s | -28.0°C | 21.4% | 0hPa | 2.2V | 07:57:00 | 00:00:00 | 00:00:00 | |
| PETON7-10 | 2026-09-05 02:01:37 | 48.23092 | 18.25356 | 93° | 100km/h | 8254m | -8.9m/s | -28.4°C | 24.7% | 0hPa | 2.2V | 07:57:00 | 02:38:54 | 00:00:00 | |
| OM5KV | 2026-09-05 02:01:31 | 48.23101 | 18.25164 | 97° | 100km/h | 8296m | -9.7m/s | -28.7°C | 24.6% | 0hPa | 2.2V | 07:58:00 | 00:00:00 | 00:00:00 | |
| OM5KV | 2026-09-05 02:01:30 | 48.23103 | 18.25126 | 95° | 99km/h | 8305m | -9.3m/s | -28.8°C | 25.0% | 0hPa | 2.2V | 07:58:00 | 00:00:00 | 00:00:00 | |
| POL2MAQ | 2026-09-05 02:01:28 | 48.23106 | 18.25049 | 95° | 102km/h | 8322m | -9.4m/s | -29.0°C | 25.8% | 0hPa | 2.2V | 00:00:00 | 00:00:00 | 00:00:00 | |
| OE3OSB-13 | 2026-09-05 02:01:26 | 48.23112 | 18.24936 | 93° | 100km/h | 8348m | -9.3m/s | -29.2°C | 26.6% | -1.0hPa | 2.2V | 00:00:00 | 00:00:00 | 00:00:00 | |
| OM5KV | 2026-09-05 02:01:25 | 48.23112 | 18.24936 | 95° | 102km/h | 8348m | -9.3m/s | -29.2°C | 26.7% | 0hPa | 2.2V | 07:58:00 | 00:00:00 | 00:00:00 | |
| OM5KV | 2026-09-05 02:01:24 | 48.23114 | 18.24898 | 97° | 100km/h | 8357m | -9.9m/s | -29.3°C | 26.8% | 0hPa | 2.2V | 07:58:00 | 00:00:00 | 00:00:00 | |
| S52SK | 2026-09-05 02:01:23 | 48.23116 | 18.24860 | 95° | 99km/h | 8366m | -9.3m/s | -29.3°C | 26.8% | 0hPa | 2.2V | 00:00:00 | 00:00:00 | 00:00:00 | |
| PETON7-10 | 2026-09-05 02:01:22 | 48.23119 | 18.24784 | 94° | 100km/h | 8383m | -9.4m/s | -29.4°C | 29.3% | 0hPa | 2.2V | 00:00:00 | 00:00:00 | 00:00:00 | |
| OM5KV | 2026-09-05 02:01:18 | 48.23125 | 18.24671 | 94° | 100km/h | 8409m | -9.2m/s | -29.6°C | 26.3% | 0hPa | 2.2V | 07:58:00 | 00:00:00 | 00:00:00 | |
| S52SK | 2026-09-05 02:01:17 | 48.23127 | 18.24633 | 96° | 102km/h | 8417m | -9.8m/s | -29.7°C | 26.1% | 0hPa | 2.2V | 00:00:00 | 00:00:00 | 00:00:00 | |
| ATIDSZ-14 | 2026-09-05 02:01:16 | 48.23129 | 18.24595 | 96° | 99km/h | 8426m | -9.8m/s | -29.7°C | 25.5% | 0hPa | 2.2V | 07:58:00 | 00:00:00 | 00:00:00 | |
| S52SK | 2026-09-05 02:01:12 | 48.23137 | 18.24443 | 96° | 100km/h | 8462m | -10.1m/s | -29.8°C | 23.7% | 0hPa | 2.2V | 00:00:00 | 00:00:00 | 00:00:00 | |
| PETON7-10 | 2026-09-05 02:01:07 | 48.23149 | 18.24214 | 95° | 100km/h | 8515m | -9.5m/s | -30.1°C | 24.8% | 0hPa | 2.2V | 00:00:00 | 00:00:00 | 00:00:00 | |
| GYPAP8-17 | 2026-09-05 02:01:06 | 48.23149 | 18.24214 | 96° | 102km/h | 8515m | -9.5m/s | -30.2°C | 22.5% | 0hPa | 2.2V | 00:00:00 | 00:00:00 | 00:00:00 | |
| OE3OSB-13 | 2026-09-05 02:00:55 | 48.23175 | 18.23718 | 95° | 99km/h | 8629m | -10.0m/s | -31.1°C | 21.9% | -1.0hPa | 2.2V | 00:00:00 | 00:00:00 | 00:00:00 | |
| PETON7-10 | 2026-09-05 02:00:52 | 48.23179 | 18.23642 | 94° | 100km/h | 8646m | -9.5m/s | -31.2°C | 23.7% | 0hPa | 2.2V | 00:00:00 | 02:38:09 | 00:00:00 | |
| OM5KV | 2026-09-05 02:00:50 | 48.23180 | 18.23604 | 95° | 102km/h | 8655m | -10.3m/s | -31.4°C | 21.2% | 0hPa | 2.2V | 07:58:00 | 00:00:00 | 00:00:00 | |
| OM5KV | 2026-09-05 02:00:47 | 48.23186 | 18.23490 | 94° | 100km/h | 8682m | -9.4m/s | -31.6°C | 20.4% | 0hPa | 2.2V | 07:59:00 | 00:00:00 | 00:00:00 | |
| POL2MAQ | 2026-09-05 02:00:46 | 48.23188 | 18.23451 | 95° | 104km/h | 8691m | -9.9m/s | -31.6°C | 20.2% | 0hPa | 2.2V | 07:59:00 | 00:00:00 | 00:00:00 | |
| OM5KV | 2026-09-05 02:00:44 | 48.23193 | 18.23375 | 95° | 100km/h | 8709m | -9.8m/s | -31.8°C | 19.6% | 0hPa | 2.2V | 07:59:00 | 00:00:00 | 00:00:00 | |
| OM5KV | 2026-09-05 02:00:41 | 48.23198 | 18.23259 | 96° | 102km/h | 8735m | -10.2m/s | -32.0°C | 20.2% | 0hPa | 2.2V | 07:59:00 | 00:00:00 | 00:00:00 | |
| HA6NAB-11 | 2026-09-05 02:00:38 | 48.23203 | 18.23145 | 94° | 102km/h | 8762m | -10.1m/s | -32.0°C | 18.5% | 0hPa | 2.2V | 00:00:00 | 00:00:00 | 00:00:00 | |
| PETON7-10 | 2026-09-05 02:00:37 | 48.23206 | 18.23067 | 96° | 100km/h | 8781m | -10.0m/s | -32.0°C | 20.2% | 0hPa | 2.2V | 00:00:00 | 00:00:00 | 00:00:00 | |
| ATIDSZ-14 | 2026-09-05 02:00:35 | 48.23208 | 18.23029 | 93° | 100km/h | 8790m | -9.2m/s | -32.1°C | 18.1% | 0hPa | 2.2V | 07:59:00 | 00:00:00 | 00:00:00 | |
| OM5KV | 2026-09-05 02:00:33 | 48.23211 | 18.22952 | 95° | 104km/h | 8807m | -9.8m/s | -32.2°C | 18.0% | 0hPa | 2.2V | 07:59:00 | 00:00:00 | 00:00:00 | |
| OM5KV | 2026-09-05 02:00:32 | 48.23213 | 18.22913 | 96° | 100km/h | 8816m | -9.4m/s | -32.2°C | 17.9% | 0hPa | 2.2V | 07:59:00 | 00:00:00 | 00:00:00 | |
| OM5KV | 2026-09-05 02:00:27 | 48.23220 | 18.22723 | 93° | 102km/h | 8860m | -9.3m/s | -32.3°C | 17.0% | 0hPa | 2.2V | 07:59:00 | 00:00:00 | 00:00:00 | |
| GYPAP8-17 | 2026-09-05 02:00:26 | 48.23222 | 18.22685 | 96° | 99km/h | 8868m | -9.8m/s | -32.4°C | 17.1% | 0hPa | 2.2V | 00:00:00 | 00:00:00 | 00:00:00 | |
| OM5KV | 2026-09-05 02:00:24 | 48.23225 | 18.22611 | 92° | 97km/h | 8886m | -9.5m/s | -32.4°C | 17.7% | 0hPa | 2.2V | 07:59:00 | 00:00:00 | 00:00:00 | |
| POL2MAQ | 2026-09-05 02:00:23 | 48.23225 | 18.22573 | 93° | 102km/h | 8895m | -9.7m/s | -32.5°C | 17.7% | 0hPa | 2.2V | 07:59:00 | 00:00:00 | 00:00:00 | |
| PETON7-10 | 2026-09-05 02:00:22 | 48.23228 | 18.22497 | 94° | 99km/h | 8913m | -9.8m/s | -32.5°C | 19.6% | 0hPa | 2.2V | 00:00:00 | 00:00:00 | 00:00:00 | |
| OM5KV | 2026-09-05 02:00:21 | 48.23228 | 18.22497 | 95° | 99km/h | 8913m | -9.9m/s | -32.6°C | 17.4% | 0hPa | 2.2V | 07:59:00 | 00:00:00 | 00:00:00 | |
| ATIDSZ-14 | 2026-09-05 02:00:16 | 48.23234 | 18.22272 | 94° | 100km/h | 8967m | -9.1m/s | -33.0°C | 17.0% | 0hPa | 2.2V | 07:59:00 | 00:00:00 | 00:00:00 | |
| S52SK | 2026-09-05 02:00:11 | 48.23240 | 18.22121 | 93° | 100km/h | 9001m | -9.3m/s | -33.2°C | 18.5% | 0hPa | 2.2V | 00:00:00 | 00:00:00 | 00:00:00 | |
| OM5KV | 2026-09-05 02:00:10 | 48.23241 | 18.22082 | 94° | 102km/h | 9010m | -9.8m/s | -33.3°C | 19.1% | 0hPa | 2.2V | 07:59:00 | 00:00:00 | 00:00:00 | |
| OM5KV | 2026-09-05 02:00:09 | 48.23242 | 18.22044 | 96° | 100km/h | 9019m | -10.4m/s | -33.3°C | 19.5% | 0hPa | 2.2V | 07:59:00 | 00:00:00 | 00:00:00 | |
| PETON7-10 | 2026-09-05 02:00:07 | 48.23246 | 18.21930 | 93° | 100km/h | 9046m | -9.6m/s | -33.5°C | 22.3% | 0hPa | 2.2V | 00:00:00 | 02:37:24 | 00:00:00 | |
| OM5KV | 2026-09-05 02:00:06 | 48.23246 | 18.21930 | 93° | 102km/h | 9046m | -9.7m/s | -33.6°C | 19.9% | 0hPa | 2.2V | 07:59:00 | 00:00:00 | 00:00:00 | |
| S52SK | 2026-09-05 02:00:05 | 48.23248 | 18.21892 | 95° | 100km/h | 9055m | -10.3m/s | -33.7°C | 19.7% | 0hPa | 2.2V | 00:00:00 | 00:00:00 | 00:00:00 | |
| POL2MAQ | 2026-09-05 02:00:02 | 48.23252 | 18.21740 | 93° | 102km/h | 9091m | -10.3m/s | -33.9°C | 18.7% | 0hPa | 2.2V | 07:59:00 | 00:00:00 | 00:00:00 | |
| OM5KV | 2026-09-05 02:00:01 | 48.23252 | 18.21740 | 93° | 102km/h | 9091m | -10.3m/s | -33.9°C | 18.7% | 0hPa | 2.2V | 07:59:00 | 00:00:00 | 00:00:00 | |
| OE3OSB-13 | 2026-09-05 01:59:53 | 48.23262 | 18.21359 | 94° | 99km/h | 9181m | -10.1m/s | -34.6°C | 16.8% | -1.0hPa | 2.2V | 00:00:00 | 00:00:00 | 00:00:00 | |
| PETON7-10 | 2026-09-05 01:59:52 | 48.23262 | 18.21358 | 95° | 99km/h | 9181m | -10.1m/s | -34.6°C | 19.2% | 0hPa | 2.2V | 00:00:00 | 00:00:00 | 00:00:00 | |
| OM5KV | 2026-09-05 01:59:46 | 48.23267 | 18.21169 | 95° | 99km/h | 9226m | -10.3m/s | -34.9°C | 17.7% | 0hPa | 2.4V | 08:00:00 | 00:00:00 | 00:00:00 | |
| OM5KV | 2026-09-05 01:59:45 | 48.23269 | 18.21131 | 94° | 99km/h | 9235m | -10.0m/s | -34.9°C | 17.7% | 0hPa | 2.4V | 08:00:00 | 00:00:00 | 00:00:00 | |
| GYPAP8-17 | 2026-09-05 01:59:42 | 48.23270 | 18.21019 | 93° | 100km/h | 9262m | -10.2m/s | -35.1°C | 17.7% | 0hPa | 2.4V | 08:00:00 | 00:00:00 | 00:00:00 | |
| POL2MAQ | 2026-09-05 01:59:41 | 48.23271 | 18.20982 | 94° | 97km/h | 9271m | -10.0m/s | -35.2°C | 17.6% | 0hPa | 2.4V | 08:00:00 | 00:00:00 | 00:00:00 | |
| OM5KV | 2026-09-05 01:59:40 | 48.23272 | 18.20945 | 91° | 97km/h | 9280m | -9.3m/s | -35.3°C | 17.6% | 0hPa | 2.4V | 08:00:00 | 00:00:00 | 00:00:00 | |
| OM5KV | 2026-09-05 01:59:39 | 48.23273 | 18.20908 | 91° | 99km/h | 9289m | -9.7m/s | -35.3°C | 17.4% | 0hPa | 2.4V | 08:00:00 | 00:00:00 | 00:00:00 | |
| PETON7-10 | 2026-09-05 01:59:37 | 48.23274 | 18.20797 | 90° | 99km/h | 9316m | -9.1m/s | -35.5°C | 19.4% | 0hPa | 2.4V | 07:59:00 | 00:00:00 | 00:00:00 | |
| ATIDSZ-14 | 2026-09-05 01:59:34 | 48.23275 | 18.20685 | 93° | 97km/h | 9342m | -10.1m/s | -35.7°C | 16.4% | 0hPa | 2.4V | 08:00:00 | 00:00:00 | 00:00:00 | |
| OM5KV | 2026-09-05 01:59:33 | 48.23275 | 18.20685 | 93° | 97km/h | 9342m | -10.1m/s | -35.7°C | 16.4% | 0hPa | 2.4V | 08:00:00 | 00:00:00 | 00:00:00 | |
| OM5KV | 2026-09-05 01:59:25 | 48.23275 | 18.20388 | 92° | 99km/h | 9413m | -9.7m/s | -36.2°C | 14.9% | 0hPa | 2.4V | 08:00:00 | 00:00:00 | 00:00:00 | |
| PETON7-10 | 2026-09-05 01:59:22 | 48.23275 | 18.20236 | 89° | 104km/h | 9447m | -9.0m/s | -36.4°C | 16.0% | 0hPa | 2.4V | 00:00:00 | 02:36:39 | 00:00:00 | |
| OM5KV | 2026-09-05 01:59:20 | 48.23275 | 18.20198 | 91° | 104km/h | 9455m | -8.7m/s | -36.6°C | 13.6% | 0hPa | 2.4V | 08:00:00 | 00:00:00 | 00:00:00 | |
| OM5KV | 2026-09-05 01:59:17 | 48.23275 | 18.20081 | 91° | 104km/h | 9479m | -9.3m/s | -36.6°C | 12.8% | 0hPa | 2.4V | 08:00:00 | 00:00:00 | 00:00:00 | |
| OM5KV | 2026-09-05 01:59:14 | 48.23275 | 18.19963 | 90° | 104km/h | 9506m | -9.9m/s | -36.8°C | 12.7% | 0hPa | 2.4V | 08:00:00 | 00:00:00 | 00:00:00 | |
| ATIDSZ-14 | 2026-09-05 01:59:13 | 48.23275 | 18.19923 | 93° | 104km/h | 9516m | -9.4m/s | -36.9°C | 12.8% | 0hPa | 2.4V | 08:00:00 | 00:00:00 | 00:00:00 | |
| OM5KV | 2026-09-05 01:59:11 | 48.23275 | 18.19843 | 92° | 106km/h | 9532m | -8.3m/s | -36.9°C | 12.8% | 0hPa | 2.4V | 08:00:00 | 00:00:00 | 00:00:00 | |
| S52SK | 2026-09-05 01:59:09 | 48.23275 | 18.19762 | 91° | 106km/h | 9547m | -9.0m/s | -37.0°C | 12.7% | 0hPa | 2.4V | 08:00:00 | 00:00:00 | 00:00:00 | |
| PETON7-10 | 2026-09-05 01:59:07 | 48.23274 | 18.19639 | 90° | 113km/h | 9573m | -8.5m/s | -37.1°C | 14.4% | 0hPa | 2.4V | 00:00:00 | 00:00:00 | 00:00:00 | |
| OM5KV | 2026-09-05 01:59:05 | 48.23273 | 18.19598 | 89° | 108km/h | 9580m | -8.0m/s | -37.1°C | 12.0% | 0hPa | 2.2V | 08:01:00 | 00:00:00 | 00:00:00 | |
| S52SK | 2026-09-05 01:59:03 | 48.23273 | 18.19515 | 89° | 111km/h | 9596m | -8.6m/s | -37.2°C | 12.0% | 0hPa | 2.2V | 00:00:00 | 00:00:00 | 00:00:00 | |
| HA6NAB-11 | 2026-09-05 01:59:02 | 48.23272 | 18.19473 | 89° | 110km/h | 9604m | -9.5m/s | -37.3°C | 12.0% | 0hPa | 2.2V | 00:00:00 | 00:00:00 | 00:00:00 | |
| OE3OSB-13 | 2026-09-05 01:58:51 | 48.23255 | 18.18908 | 85° | 117km/h | 9708m | -9.4m/s | -37.8°C | 10.9% | -1.0hPa | 2.2V | 00:00:00 | 00:00:00 | 00:00:00 | |
| OE5DRO-10 | 2026-09-05 01:58:47 | 48.23249 | 18.18773 | 87° | 120km/h | 9733m | -8.9m/s | -37.9°C | 12.9% | 0hPa | 2.2V | 00:00:00 | 00:00:00 | 00:00:00 | |
| OM5KV | 2026-09-05 01:58:46 | 48.23247 | 18.18727 | 87° | 119km/h | 9741m | -8.5m/s | -38.0°C | 10.8% | 0hPa | 2.2V | 08:01:00 | 00:00:00 | 00:00:00 | |
| HA6NAB-11 | 2026-09-05 01:58:45 | 48.23247 | 18.18727 | 87° | 119km/h | 9741m | -8.5m/s | -38.0°C | 10.8% | 0hPa | 2.2V | 00:00:00 | 00:00:00 | 00:00:00 | |
| PG1ADW-2 | 2026-09-05 01:58:44 | 48.23242 | 18.18636 | 88° | 120km/h | 9757m | -9.0m/s | -38.0°C | 12.8% | 0hPa | 2.2V | 00:00:00 | 02:36:01 | 00:00:00 | |
| POL2MAQ | 2026-09-05 01:58:40 | 48.23236 | 18.18499 | 85° | 120km/h | 9782m | -9.5m/s | -38.3°C | 10.8% | 0hPa | 2.2V | 08:01:00 | 00:00:00 | 00:00:00 | |
| HA6NAB-11 | 2026-09-05 01:58:39 | 48.23233 | 18.18454 | 86° | 122km/h | 9790m | -9.9m/s | -38.3°C | 10.9% | 0hPa | 2.2V | 00:00:00 | 00:00:00 | 00:00:00 | |
| OM5KV | 2026-09-05 01:58:38 | 48.23231 | 18.18408 | 88° | 119km/h | 9799m | -9.1m/s | -38.4°C | 11.0% | 0hPa | 2.2V | 08:01:00 | 00:00:00 | 00:00:00 | |
| PETON7-10 | 2026-09-05 01:58:37 | 48.23227 | 18.18317 | 87° | 122km/h | 9816m | -9.4m/s | -38.5°C | 13.4% | 0hPa | 2.2V | 00:00:00 | 02:35:54 | 00:00:00 | |
| OM5KV | 2026-09-05 01:58:35 | 48.23225 | 18.18271 | 88° | 119km/h | 9825m | -9.3m/s | -38.7°C | 11.3% | 0hPa | 2.2V | 08:01:00 | 00:00:00 | 00:00:00 | |
| OM5KV | 2026-09-05 01:58:34 | 48.23223 | 18.18225 | 87° | 124km/h | 9833m | -9.3m/s | -38.7°C | 11.3% | 0hPa | 2.2V | 08:01:00 | 00:00:00 | 00:00:00 | |
| ATIDSZ-14 | 2026-09-05 01:58:33 | 48.23221 | 18.18179 | 89° | 120km/h | 9842m | -9.9m/s | -38.8°C | 11.5% | 0hPa | 2.2V | 08:01:00 | 00:00:00 | 00:00:00 | |
| OM5KV | 2026-09-05 01:58:32 | 48.23220 | 18.18133 | 86° | 120km/h | 9851m | -9.3m/s | -38.9°C | 11.5% | 0hPa | 2.2V | 08:01:00 | 00:00:00 | 00:00:00 | |
| OE5DRO-10 | 2026-09-05 01:58:28 | 48.23210 | 18.17903 | 87° | 122km/h | 9891m | -8.7m/s | -39.2°C | 14.4% | 0hPa | 2.2V | 00:00:00 | 00:00:00 | 00:00:00 | |
| OM5KV | 2026-09-05 01:58:27 | 48.23210 | 18.17903 | 88° | 124km/h | 9891m | -8.7m/s | -39.2°C | 12.1% | 0hPa | 2.2V | 08:01:00 | 00:00:00 | 00:00:00 | |
| PG1ADW-2 | 2026-09-05 01:58:24 | 48.23205 | 18.17717 | 89° | 124km/h | 9923m | -9.1m/s | -39.4°C | 14.7% | 0hPa | 2.2V | 00:00:00 | 00:00:00 | 00:00:00 | |
| PETON7-10 | 2026-09-05 01:58:22 | 48.23203 | 18.17624 | 90° | 124km/h | 9940m | -9.5m/s | -39.5°C | 14.8% | 0hPa | 2.2V | 00:00:00 | 00:00:00 | 00:00:00 | |
| POL2MAQ | 2026-09-05 01:58:19 | 48.23201 | 18.17530 | 91° | 124km/h | 9957m | -9.0m/s | -39.7°C | 12.6% | 0hPa | 2.2V | 08:01:00 | 00:00:00 | 00:00:00 | |
| OM5KV | 2026-09-05 01:58:17 | 48.23199 | 18.17437 | 90° | 126km/h | 9973m | -8.4m/s | -39.9°C | 12.6% | 0hPa | 2.2V | 08:01:00 | 00:00:00 | 00:00:00 | |
| OM5KV | 2026-09-05 01:58:16 | 48.23198 | 18.17390 | 89° | 122km/h | 9981m | -8.5m/s | -39.9°C | 12.6% | 0hPa | 2.2V | 08:01:00 | 00:00:00 | 00:00:00 | |
| GYPAP8-17 | 2026-09-05 01:58:13 | 48.23196 | 18.17249 | 90° | 122km/h | 10005m | -9.4m/s | -40.1°C | 12.7% | 0hPa | 2.2V | 00:00:00 | 00:00:00 | 00:00:00 | |
| ATIDSZ-14 | 2026-09-05 01:58:12 | 48.23195 | 18.17202 | 91° | 124km/h | 10014m | -9.2m/s | -40.2°C | 12.8% | 0hPa | 2.2V | 08:02:00 | 00:00:00 | 00:00:00 | |
| OM5KV | 2026-09-05 01:58:11 | 48.23195 | 18.17108 | 91° | 126km/h | 10031m | -9.1m/s | -40.3°C | 13.0% | 0hPa | 2.2V | 08:02:00 | 00:00:00 | 00:00:00 | |
| OM5KV | 2026-09-05 01:58:10 | 48.23195 | 18.17108 | 91° | 126km/h | 10031m | -9.1m/s | -40.3°C | 13.0% | 0hPa | 2.2V | 08:02:00 | 00:00:00 | 00:00:00 | |
| OE5DRO-10 | 2026-09-05 01:58:09 | 48.23195 | 18.17014 | 90° | 124km/h | 10047m | -8.9m/s | -40.4°C | 15.6% | 0hPa | 2.2V | 00:00:00 | 00:00:00 | 00:00:00 | |
| PETON7-10 | 2026-09-05 01:58:07 | 48.23194 | 18.16919 | 90° | 124km/h | 10064m | -8.3m/s | -40.6°C | 15.7% | 0hPa | 2.4V | 00:00:00 | 00:00:00 | 00:00:00 | |
| OM5KV | 2026-09-05 01:58:05 | 48.23194 | 18.16872 | 91° | 122km/h | 10072m | -8.4m/s | -40.7°C | 13.3% | 0hPa | 2.4V | 08:02:00 | 00:00:00 | 00:00:00 | |
| PG1ADW-2 | 2026-09-05 01:58:04 | 48.23194 | 18.16778 | 92° | 124km/h | 10087m | -8.7m/s | -40.8°C | 15.9% | 0hPa | 2.4V | 00:00:00 | 00:00:00 | 00:00:00 | |
| HA6NAB-11 | 2026-09-05 01:58:03 | 48.23195 | 18.16778 | 92° | 122km/h | 10087m | -8.8m/s | -40.9°C | 13.3% | 0hPa | 2.4V | 00:00:00 | 00:00:00 | 00:00:00 | |
| OE3OSB-13 | 2026-09-05 01:57:49 | 48.23203 | 18.16027 | 92° | 122km/h | 10218m | -9.0m/s | -42.0°C | 14.0% | -1.0hPa | 2.4V | 00:00:00 | 00:00:00 | 00:00:00 | |
| OM5KV | 2026-09-05 01:57:48 | 48.23203 | 18.16074 | 92° | 126km/h | 10210m | -8.8m/s | -41.9°C | 14.1% | 0hPa | 2.4V | 08:02:00 | 00:00:00 | 00:00:00 | |
| HA6NAB-11 | 2026-09-05 01:57:47 | 48.23203 | 18.16027 | 93° | 122km/h | 10218m | -9.0m/s | -42.0°C | 14.2% | 0hPa | 2.4V | 00:00:00 | 00:00:00 | 00:00:00 | |
| PG1ADW-2 | 2026-09-05 01:57:44 | 48.23206 | 18.15840 | 91° | 120km/h | 10251m | -9.1m/s | -42.2°C | 17.3% | 0hPa | 2.4V | 00:00:00 | 00:00:00 | 00:00:00 | |
| OM5KV | 2026-09-05 01:57:43 | 48.23206 | 18.15794 | 94° | 120km/h | 10259m | -9.3m/s | -42.3°C | 14.4% | 0hPa | 2.2V | 08:02:00 | 00:00:00 | 00:00:00 | |
| HA6NAB-11 | 2026-09-05 01:57:42 | 48.23206 | 18.15794 | 94° | 120km/h | 10259m | -9.3m/s | -42.3°C | 14.4% | 0hPa | 2.2V | 00:00:00 | 00:00:00 | 00:00:00 | |
| OM5KV | 2026-09-05 01:57:41 | 48.23207 | 18.15748 | 91° | 120km/h | 10268m | -8.8m/s | -42.4°C | 14.4% | 0hPa | 2.2V | 08:02:00 | 00:00:00 | 00:00:00 | |
| OM5KV | 2026-09-05 01:57:40 | 48.23207 | 18.15702 | 92° | 124km/h | 10276m | -9.2m/s | -42.5°C | 14.5% | 0hPa | 2.2V | 08:02:00 | 00:00:00 | 00:00:00 | |
| POL2MAQ | 2026-09-05 01:57:39 | 48.23208 | 18.15655 | 93° | 120km/h | 10284m | -9.2m/s | -42.5°C | 14.5% | 0hPa | 2.2V | 08:02:00 | 00:00:00 | 00:00:00 | |
| PETON7-10 | 2026-09-05 01:57:37 | 48.23211 | 18.15517 | 91° | 120km/h | 10310m | -9.1m/s | -42.7°C | 17.5% | 0hPa | 2.2V | 08:01:00 | 00:00:00 | 00:00:00 | |
| HA6NAB-11 | 2026-09-05 01:57:36 | 48.23210 | 18.15517 | 91° | 120km/h | 10310m | -9.1m/s | -42.7°C | 14.5% | 0hPa | 2.2V | 00:00:00 | 00:00:00 | 00:00:00 | |
| OE5DRO-10 | 2026-09-05 01:57:31 | 48.23213 | 18.15241 | 91° | 122km/h | 10358m | -8.7m/s | -43.1°C | 17.5% | 0hPa | 2.2V | 00:00:00 | 00:00:00 | 00:00:00 | |
| OM5KV | 2026-09-05 01:57:30 | 48.23213 | 18.15241 | 91° | 124km/h | 10358m | -8.8m/s | -43.1°C | 14.6% | 0hPa | 2.2V | 08:02:00 | 00:00:00 | 00:00:00 | |
| GYPAP8-17 | 2026-09-05 01:57:29 | 48.23214 | 18.15195 | 93° | 120km/h | 10366m | -9.9m/s | -43.1°C | 14.4% | 0hPa | 2.2V | 00:00:00 | 00:00:00 | 00:00:00 | |
| OM5KV | 2026-09-05 01:57:25 | 48.23215 | 18.15013 | 91° | 120km/h | 10401m | -10.0m/s | -43.4°C | 14.5% | 0hPa | 2.2V | 08:02:00 | 00:00:00 | 00:00:00 | |
| OM5KV | 2026-09-05 01:57:24 | 48.23215 | 18.14967 | 92° | 122km/h | 10410m | -9.7m/s | -43.5°C | 14.5% | 0hPa | 2.2V | 08:02:00 | 00:00:00 | 00:00:00 | |
| PETON7-10 | 2026-09-05 01:57:22 | 48.23214 | 18.14829 | 90° | 124km/h | 10436m | -9.9m/s | -43.7°C | 17.4% | 0hPa | 2.2V | 00:00:00 | 00:00:00 | 00:00:00 | |
| OM5KV | 2026-09-05 01:57:19 | 48.23213 | 18.14736 | 92° | 120km/h | 10455m | -9.8m/s | -43.8°C | 14.4% | 0hPa | 2.2V | 08:02:00 | 00:00:00 | 00:00:00 | |
| OM5KV | 2026-09-05 01:57:18 | 48.23213 | 18.14691 | 89° | 120km/h | 10464m | -9.5m/s | -43.9°C | 14.4% | 0hPa | 2.2V | 08:02:00 | 00:00:00 | 00:00:00 | |
| OE5DRO-10 | 2026-09-05 01:57:12 | 48.23206 | 18.14363 | 89° | 128km/h | 10525m | -9.6m/s | -44.3°C | 17.4% | 0hPa | 2.2V | 08:02:00 | 00:00:00 | 00:00:00 | |
| ATIDSZ-14 | 2026-09-05 01:57:10 | 48.23205 | 18.14316 | 88° | 126km/h | 10534m | -10.0m/s | -44.4°C | 14.4% | 0hPa | 2.4V | 08:02:00 | 00:00:00 | 00:00:00 | |
| PETON7-10 | 2026-09-05 01:57:07 | 48.23199 | 18.14126 | 89° | 128km/h | 10570m | -9.7m/s | -44.6°C | 17.5% | 0hPa | 2.4V | 00:00:00 | 02:34:24 | 00:00:00 | |
| OM5KV | 2026-09-05 01:57:06 | 48.23199 | 18.14126 | 89° | 126km/h | 10570m | -9.8m/s | -44.6°C | 14.4% | 0hPa | 2.4V | 08:02:00 | 00:00:00 | 00:00:00 | |
| PG1ADW-2 | 2026-09-05 01:57:04 | 48.23194 | 18.13982 | 88° | 130km/h | 10597m | -9.2m/s | -44.7°C | 17.7% | 0hPa | 2.4V | 00:00:00 | 00:00:00 | 00:00:00 | |
| HA6NAB-11 | 2026-09-05 01:57:02 | 48.23193 | 18.13934 | 88° | 128km/h | 10606m | -9.6m/s | -44.9°C | 14.6% | 0hPa | 2.4V | 08:02:00 | 00:00:00 | 00:00:00 | |
| OM5KV | 2026-09-05 01:57:01 | 48.23191 | 18.13885 | 89° | 130km/h | 10615m | -9.5m/s | -44.9°C | 14.7% | 0hPa | 2.4V | 08:02:00 | 00:00:00 | 00:00:00 | |
| OE3OSB-13 | 2026-09-05 01:56:47 | 48.23177 | 18.13098 | 90° | 128km/h | 10757m | -10.2m/s | -45.9°C | 14.4% | -1.0hPa | 2.4V | 00:00:00 | 00:00:00 | 00:00:00 | |
| S52SK | 2026-09-05 01:56:46 | 48.23177 | 18.13147 | 90° | 131km/h | 10748m | -9.6m/s | -45.8°C | 14.5% | 0hPa | 2.4V | 00:00:00 | 00:00:00 | 00:00:00 | |
| PG1ADW-2 | 2026-09-05 01:56:44 | 48.23176 | 18.13001 | 90° | 130km/h | 10775m | -9.4m/s | -46.0°C | 18.0% | 0hPa | 2.4V | 08:02:00 | 00:00:00 | 00:00:00 | |
| OM5KV | 2026-09-05 01:56:38 | 48.23176 | 18.12758 | 90° | 126km/h | 10821m | -10.2m/s | -46.5°C | 14.7% | 0hPa | 2.2V | 08:02:00 | 00:00:00 | 00:00:00 | |
| PETON7-10 | 2026-09-05 01:56:37 | 48.23175 | 18.12661 | 90° | 130km/h | 10839m | -9.3m/s | -46.5°C | 18.1% | 0hPa | 2.2V | 00:00:00 | 00:00:00 | 00:00:00 | |
| OM5KV | 2026-09-05 01:56:36 | 48.23175 | 18.12661 | 90° | 126km/h | 10839m | -9.3m/s | -46.6°C | 14.7% | 0hPa | 2.2V | 08:02:00 | 00:00:00 | 00:00:00 | |
| OE5DRO-10 | 2026-09-05 01:56:34 | 48.23174 | 18.12516 | 88° | 133km/h | 10866m | -9.6m/s | -46.8°C | 17.9% | 0hPa | 2.2V | 00:00:00 | 00:00:00 | 00:00:00 | |
| HA6NAB-11 | 2026-09-05 01:56:33 | 48.23173 | 18.12468 | 90° | 130km/h | 10875m | -9.5m/s | -46.9°C | 14.5% | 0hPa | 2.2V | 08:03:00 | 00:00:00 | 00:00:00 | |
| OM5KV | 2026-09-05 01:56:31 | 48.23172 | 18.12419 | 90° | 128km/h | 10883m | -9.6m/s | -46.9°C | 14.6% | 0hPa | 2.2V | 08:03:00 | 00:00:00 | 00:00:00 | |
| OM5KV | 2026-09-05 01:56:30 | 48.23171 | 18.12370 | 89° | 131km/h | 10893m | -9.8m/s | -47.0°C | 14.5% | 0hPa | 2.2V | 08:03:00 | 00:00:00 | 00:00:00 | |
| ATIDSZ-14 | 2026-09-05 01:56:29 | 48.23171 | 18.12321 | 91° | 130km/h | 10902m | -9.8m/s | -46.9°C | 14.3% | 0hPa | 2.2V | 08:03:00 | 00:00:00 | 00:00:00 | |
| PG1ADW-2 | 2026-09-05 01:56:24 | 48.23164 | 18.12020 | 88° | 137km/h | 10956m | -9.4m/s | -47.2°C | 17.8% | 0hPa | 2.2V | 00:00:00 | 00:00:00 | 00:00:00 | |
| PETON7-10 | 2026-09-05 01:56:22 | 48.23161 | 18.11919 | 87° | 137km/h | 10973m | -10.2m/s | -47.3°C | 17.8% | 0hPa | 2.2V | 00:00:00 | 02:33:39 | 00:00:00 | |
| OM5KV | 2026-09-05 01:56:18 | 48.23155 | 18.11766 | 88° | 139km/h | 11001m | -10.0m/s | -47.5°C | 14.4% | 0hPa | 2.2V | 08:03:00 | 00:00:00 | 00:00:00 | |
| OE3OSB-13 | 2026-09-05 01:56:16 | 48.23147 | 18.11559 | 85° | 135km/h | 11038m | -9.9m/s | -47.6°C | 14.3% | -1.0hPa | 2.2V | 00:00:00 | 00:00:00 | 00:00:00 | |
| OE5DRO-10 | 2026-09-05 01:56:15 | 48.23147 | 18.11558 | 86° | 141km/h | 11038m | -9.8m/s | -47.6°C | 18.0% | 0hPa | 2.2V | 00:00:00 | 00:00:00 | 00:00:00 | |
| OM5KV | 2026-09-05 01:56:11 | 48.23141 | 18.11401 | 87° | 137km/h | 11066m | -10.1m/s | -47.8°C | 14.4% | 0hPa | 2.2V | 08:03:00 | 00:00:00 | 00:00:00 | |
| ATIDSZ-14 | 2026-09-05 01:56:08 | 48.23134 | 18.11242 | 87° | 142km/h | 11094m | -9.7m/s | -48.0°C | 14.7% | 0hPa | 2.2V | 08:03:00 | 00:00:00 | 00:00:00 | |
| PETON7-10 | 2026-09-05 01:56:07 | 48.23130 | 18.11135 | 87° | 142km/h | 11111m | -10.0m/s | -48.0°C | 18.3% | 0hPa | 2.2V | 00:00:00 | 00:00:00 | 00:00:00 | |
| PG1ADW-2 | 2026-09-05 01:56:04 | 48.23125 | 18.10975 | 89° | 142km/h | 11139m | -10.1m/s | -48.1°C | 18.4% | 0hPa | 2.2V | 00:00:00 | 02:33:21 | 00:00:00 | |
| OE3OSB-13 | 2026-09-05 01:55:45 | 48.23092 | 18.09889 | 88° | 144km/h | 11331m | -11.3m/s | -49.3°C | 15.5% | -1.0hPa | 2.2V | 00:00:00 | 00:00:00 | 00:00:00 | |
| PG1ADW-2 | 2026-09-05 01:55:44 | 48.23092 | 18.09889 | 89° | 142km/h | 11332m | -11.3m/s | -49.3°C | 19.6% | 0hPa | 2.2V | 00:00:00 | 00:00:00 | 00:00:00 | |
| OM5KV | 2026-09-05 01:55:43 | 48.23092 | 18.09889 | 89° | 144km/h | 11332m | -11.3m/s | -49.3°C | 15.7% | 0hPa | 2.4V | 08:03:00 | 00:00:00 | 00:00:00 | |
| HA6NAB-11 | 2026-09-05 01:55:41 | 48.23089 | 18.09780 | 88° | 144km/h | 11353m | -10.9m/s | -49.5°C | 15.9% | 0hPa | 2.4V | 08:04:00 | 00:00:00 | 00:00:00 | |
| S52SK | 2026-09-05 01:55:40 | 48.23087 | 18.09725 | 88° | 148km/h | 11363m | -10.7m/s | -49.6°C | 15.9% | 0hPa | 2.4V | 00:00:00 | 00:00:00 | 00:00:00 | |
| OM5KV | 2026-09-05 01:55:39 | 48.23085 | 18.09670 | 89° | 142km/h | 11373m | -11.1m/s | -49.6°C | 16.0% | 0hPa | 2.4V | 08:04:00 | 00:00:00 | 00:00:00 | |
| PETON7-10 | 2026-09-05 01:55:37 | 48.23081 | 18.09506 | 89° | 141km/h | 11404m | -11.1m/s | -49.8°C | 20.1% | 0hPa | 2.4V | 00:00:00 | 02:32:54 | 00:00:00 | |
| HA6NAB-11 | 2026-09-05 01:55:35 | 48.23080 | 18.09453 | 87° | 142km/h | 11414m | -10.8m/s | -50.0°C | 16.0% | 0hPa | 2.4V | 08:04:00 | 00:00:00 | 00:00:00 | |
| POL2MAQ | 2026-09-05 01:55:34 | 48.23078 | 18.09398 | 89° | 146km/h | 11425m | -10.6m/s | -50.0°C | 16.1% | 0hPa | 2.4V | 08:04:00 | 00:00:00 | 00:00:00 | |
| OM5KV | 2026-09-05 01:55:33 | 48.23077 | 18.09344 | 90° | 142km/h | 11435m | -10.7m/s | -50.1°C | 16.0% | 0hPa | 2.4V | 08:04:00 | 00:00:00 | 00:00:00 | |
| OM5KV | 2026-09-05 01:55:32 | 48.23075 | 18.09290 | 88° | 141km/h | 11445m | -10.9m/s | -50.2°C | 16.0% | 0hPa | 2.4V | 08:04:00 | 00:00:00 | 00:00:00 | |
| HA6NAB-11 | 2026-09-05 01:55:29 | 48.23071 | 18.09130 | 88° | 141km/h | 11477m | -10.9m/s | -50.5°C | 16.1% | 0hPa | 2.4V | 08:04:00 | 00:00:00 | 00:00:00 | |
| OM5KV | 2026-09-05 01:55:27 | 48.23068 | 18.09023 | 89° | 142km/h | 11497m | -11.1m/s | -50.6°C | 16.3% | 0hPa | 2.4V | 08:04:00 | 00:00:00 | 00:00:00 | |
| OM5KV | 2026-09-05 01:55:26 | 48.23066 | 18.08970 | 88° | 139km/h | 11508m | -11.0m/s | -50.6°C | 16.3% | 0hPa | 2.4V | 08:04:00 | 00:00:00 | 00:00:00 | |
| PG1ADW-2 | 2026-09-05 01:55:24 | 48.23062 | 18.08810 | 88° | 137km/h | 11539m | -11.5m/s | -50.8°C | 20.5% | 0hPa | 2.4V | 00:00:00 | 00:00:00 | 00:00:00 | |
| GYPAP8-17 | 2026-09-05 01:55:23 | 48.23062 | 18.08810 | 89° | 139km/h | 11539m | -11.5m/s | -50.9°C | 16.3% | 0hPa | 2.4V | 00:00:00 | 00:00:00 | 00:00:00 | |
| PETON7-10 | 2026-09-05 01:55:22 | 48.23058 | 18.08705 | 88° | 137km/h | 11561m | -11.3m/s | -50.9°C | 20.7% | 0hPa | 2.4V | 08:04:00 | 00:00:00 | 00:00:00 | |
| OM5KV | 2026-09-05 01:55:19 | 48.23054 | 18.08600 | 87° | 137km/h | 11583m | -11.7m/s | -51.1°C | 16.5% | 0hPa | 2.4V | 08:04:00 | 00:00:00 | 00:00:00 | |
| OE5DRO-10 | 2026-09-05 01:55:18 | 48.23050 | 18.08495 | 87° | 137km/h | 11604m | -11.2m/s | -51.3°C | 20.9% | 0hPa | 2.4V | 00:00:00 | 00:00:00 | 00:00:00 | |
| OM5KV | 2026-09-05 01:55:16 | 48.23048 | 18.08442 | 89° | 137km/h | 11616m | -11.6m/s | -51.4°C | 16.8% | 0hPa | 2.4V | 08:04:00 | 00:00:00 | 00:00:00 | |
| POL2MAQ | 2026-09-05 01:55:13 | 48.23043 | 18.08286 | 89° | 137km/h | 11648m | -11.6m/s | -51.6°C | 16.9% | 0hPa | 2.4V | 08:04:00 | 00:00:00 | 00:00:00 | |
| OM5KV | 2026-09-05 01:55:11 | 48.23039 | 18.08183 | 87° | 135km/h | 11670m | -11.4m/s | -51.8°C | 17.1% | 0hPa | 2.4V | 08:04:00 | 00:00:00 | 00:00:00 | |
| OM5KV | 2026-09-05 01:55:10 | 48.23036 | 18.08131 | 88° | 139km/h | 11681m | -11.4m/s | -51.9°C | 17.1% | 0hPa | 2.4V | 08:04:00 | 00:00:00 | 00:00:00 | |
| OM5KV | 2026-09-05 01:55:07 | 48.23029 | 18.07925 | 90° | 135km/h | 11725m | -11.2m/s | -52.3°C | 17.5% | 0hPa | 2.4V | 08:04:00 | 00:00:00 | 00:00:00 | |
| OM5KV | 2026-09-05 01:55:05 | 48.23027 | 18.07874 | 87° | 133km/h | 11735m | -11.2m/s | -52.3°C | 17.6% | 0hPa | 2.4V | 08:04:00 | 00:00:00 | 00:00:00 | |
| PG1ADW-2 | 2026-09-05 01:55:04 | 48.23023 | 18.07771 | 87° | 131km/h | 11758m | -11.5m/s | -52.5°C | 22.4% | 0hPa | 2.4V | 00:00:00 | 00:00:00 | 00:00:00 | |
| OM5KV | 2026-09-05 01:55:00 | 48.23018 | 18.07619 | 89° | 133km/h | 11791m | -11.7m/s | -52.8°C | 18.2% | 0hPa | 2.4V | 08:04:00 | 00:00:00 | 00:00:00 | |
| OM5KV | 2026-09-05 01:54:59 | 48.23015 | 18.07569 | 86° | 131km/h | 11802m | -11.2m/s | -52.9°C | 18.3% | 0hPa | 2.4V | 08:04:00 | 00:00:00 | 00:00:00 | |
| HA6NAB-11 | 2026-09-05 01:54:54 | 48.23004 | 18.07319 | 88° | 131km/h | 11856m | -11.2m/s | -53.4°C | 19.0% | 0hPa | 2.4V | 08:04:00 | 00:00:00 | 00:00:00 | |
| OM5KV | 2026-09-05 01:54:53 | 48.23001 | 18.07269 | 85° | 130km/h | 11867m | -10.9m/s | -53.5°C | 19.0% | 0hPa | 2.4V | 08:04:00 | 00:00:00 | 00:00:00 | |
| PETON7-10 | 2026-09-05 01:54:52 | 48.22997 | 18.07170 | 87° | 128km/h | 11889m | -11.9m/s | -53.6°C | 24.1% | 0hPa | 2.4V | 00:00:00 | 02:32:09 | 00:00:00 | |
| HA6NAB-11 | 2026-09-05 01:54:48 | 48.22988 | 18.07023 | 87° | 128km/h | 11923m | -11.5m/s | -53.9°C | 19.4% | 0hPa | 2.4V | 00:00:00 | 00:00:00 | 00:00:00 | |
| ATIDSZ-14 | 2026-09-05 01:54:47 | 48.22985 | 18.06975 | 85° | 128km/h | 11934m | -10.8m/s | -53.9°C | 19.5% | 0hPa | 2.4V | 08:05:00 | 00:00:00 | 00:00:00 | |
| OM5KV | 2026-09-05 01:54:46 | 48.22982 | 18.06927 | 86° | 130km/h | 11944m | -11.2m/s | -53.9°C | 19.5% | 0hPa | 2.4V | 08:05:00 | 00:00:00 | 00:00:00 | |
| PG1ADW-2 | 2026-09-05 01:54:44 | 48.22974 | 18.06782 | 85° | 130km/h | 11977m | -11.2m/s | -54.2°C | 25.1% | 0hPa | 2.4V | 00:00:00 | 02:32:01 | 00:00:00 | |
| HA6NAB-11 | 2026-09-05 01:54:43 | 48.22974 | 18.06782 | 86° | 131km/h | 11977m | -11.3m/s | -54.2°C | 19.9% | 0hPa | 2.2V | 00:00:00 | 00:00:00 | 00:00:00 | |
| OE3OSB-13 | 2026-09-05 01:54:42 | 48.22969 | 18.06685 | 84° | 126km/h | 11998m | -11.5m/s | -54.4°C | 20.0% | -1.0hPa | 2.2V | 00:00:00 | 00:00:00 | 00:00:00 | |
| OM5KV | 2026-09-05 01:54:41 | 48.22966 | 18.06636 | 85° | 128km/h | 12009m | -11.9m/s | -54.5°C | 20.4% | 0hPa | 2.2V | 08:05:00 | 00:00:00 | 00:00:00 | |
| OM5KV | 2026-09-05 01:54:40 | 48.22966 | 18.06636 | 85° | 128km/h | 12009m | -11.9m/s | -54.5°C | 20.4% | 0hPa | 2.2V | 08:05:00 | 00:00:00 | 00:00:00 | |
| S52SK | 2026-09-05 01:54:38 | 48.22960 | 18.06540 | 85° | 128km/h | 12032m | -10.9m/s | -54.7°C | 20.8% | 0hPa | 2.2V | 00:00:00 | 00:00:00 | 00:00:00 | |
| PETON7-10 | 2026-09-05 01:54:37 | 48.22953 | 18.06442 | 85° | 130km/h | 12055m | -11.8m/s | -54.8°C | 26.7% | 0hPa | 2.2V | 00:00:00 | 00:00:00 | 00:00:00 | |
| GYPAP8-17 | 2026-09-05 01:54:36 | 48.22953 | 18.06442 | 85° | 131km/h | 12055m | -11.8m/s | -54.9°C | 21.2% | 0hPa | 2.2V | 08:05:00 | 00:00:00 | 00:00:00 | |
| OM5KV | 2026-09-05 01:54:35 | 48.22950 | 18.06393 | 86° | 128km/h | 12066m | -12.5m/s | -55.0°C | 21.4% | 0hPa | 2.2V | 08:05:00 | 00:00:00 | 00:00:00 | |
| S52SK | 2026-09-05 01:54:33 | 48.22943 | 18.06295 | 85° | 133km/h | 12089m | -11.7m/s | -55.2°C | 21.7% | 0hPa | 2.2V | 00:00:00 | 00:00:00 | 00:00:00 | |
| POL2MAQ | 2026-09-05 01:54:32 | 48.22940 | 18.06246 | 84° | 130km/h | 12101m | -11.4m/s | -55.3°C | 22.0% | 0hPa | 2.2V | 08:05:00 | 00:00:00 | 00:00:00 | |
| HA6NAB-11 | 2026-09-05 01:54:31 | 48.22936 | 18.06197 | 83° | 131km/h | 12112m | -11.6m/s | -55.4°C | 22.1% | 0hPa | 2.2V | 00:00:00 | 00:00:00 | 00:00:00 | |
| OM5KV | 2026-09-05 01:54:30 | 48.22932 | 18.06147 | 84° | 133km/h | 12123m | -11.5m/s | -55.5°C | 22.2% | 0hPa | 2.2V | 08:05:00 | 00:00:00 | 00:00:00 | |
| OM5KV | 2026-09-05 01:54:28 | 48.22924 | 18.06049 | 83° | 130km/h | 12147m | -11.6m/s | -55.7°C | 22.5% | 0hPa | 2.2V | 08:05:00 | 00:00:00 | 00:00:00 | |
| ATIDSZ-14 | 2026-09-05 01:54:26 | 48.22916 | 18.05951 | 85° | 128km/h | 12169m | -11.6m/s | -55.9°C | 22.8% | 0hPa | 2.2V | 08:05:00 | 00:00:00 | 00:00:00 | |
| HA6NAB-11 | 2026-09-05 01:54:25 | 48.22912 | 18.05903 | 82° | 130km/h | 12180m | -11.1m/s | -56.0°C | 22.8% | 0hPa | 2.2V | 00:00:00 | 00:00:00 | 00:00:00 | |
| PG1ADW-2 | 2026-09-05 01:54:24 | 48.22904 | 18.05805 | 84° | 131km/h | 12203m | -11.6m/s | -56.1°C | 29.2% | 0hPa | 2.2V | 00:00:00 | 00:00:00 | 00:00:00 | |
| PETON7-10 | 2026-09-05 01:54:22 | 48.22895 | 18.05709 | 82° | 130km/h | 12225m | -11.3m/s | -56.3°C | 29.4% | 0hPa | 2.2V | 00:00:00 | 00:00:00 | 00:00:00 | |
| OE5DRO-10 | 2026-09-05 01:54:19 | 48.22881 | 18.05563 | 82° | 124km/h | 12258m | -11.3m/s | -56.5°C | 29.6% | 0hPa | 2.2V | 00:00:00 | 00:00:00 | 00:00:00 | |
| OE3JTB-15 | 2026-09-05 01:54:17 | 48.22872 | 18.05466 | 82° | 130km/h | 12280m | -11.3m/s | -56.6°C | 29.8% | 0hPa | 2.2V | 00:00:00 | 00:00:00 | 00:00:00 | |
| OM5KV | 2026-09-05 01:54:13 | 48.22858 | 18.05320 | 81° | 130km/h | 12314m | -10.8m/s | -56.9°C | 23.8% | 0hPa | 2.2V | 08:05:00 | 00:00:00 | 00:00:00 | |
| OM5KV | 2026-09-05 01:54:12 | 48.22853 | 18.05271 | 82° | 133km/h | 12325m | -11.6m/s | -57.0°C | 24.0% | 0hPa | 2.2V | 08:05:00 | 00:00:00 | 00:00:00 | |
| OE3OSB-13 | 2026-09-05 01:54:11 | 48.22842 | 18.05173 | 79° | 130km/h | 12347m | -11.3m/s | -57.0°C | 23.6% | -1.0hPa | 2.2V | 00:00:00 | 00:00:00 | 00:00:00 | |
| PETON7-10 | 2026-09-05 01:54:07 | 48.22820 | 18.04977 | 80° | 133km/h | 12391m | -11.6m/s | -57.4°C | 30.6% | 0hPa | 2.2V | 00:00:00 | 02:31:24 | 00:00:00 | |
| ATIDSZ-14 | 2026-09-05 01:54:06 | 48.22820 | 18.04977 | 81° | 133km/h | 12391m | -11.6m/s | -57.4°C | 24.2% | 0hPa | 2.2V | 08:05:00 | 00:00:00 | 00:00:00 | |
| PG1ADW-2 | 2026-09-05 01:54:04 | 48.22803 | 18.04828 | 80° | 135km/h | 12425m | -12.2m/s | -57.6°C | 30.8% | 0hPa | 2.2V | 00:00:00 | 00:00:00 | 00:00:00 | |
| OM5KV | 2026-09-05 01:54:01 | 48.22792 | 18.04729 | 81° | 131km/h | 12449m | -11.7m/s | -57.9°C | 24.4% | 0hPa | 2.2V | 08:05:00 | 00:00:00 | 00:00:00 | |
| OM5KV | 2026-09-05 01:54:00 | 48.22786 | 18.04680 | 80° | 133km/h | 12461m | -11.3m/s | -58.0°C | 24.5% | 0hPa | 2.2V | 08:05:00 | 00:00:00 | 00:00:00 | |
| OM5KV | 2026-09-05 01:53:55 | 48.22755 | 18.04430 | 82° | 135km/h | 12516m | -11.8m/s | -58.6°C | 24.5% | 0hPa | 2.2V | 08:06:00 | 00:00:00 | 00:00:00 | |
| OM5KV | 2026-09-05 01:53:54 | 48.22750 | 18.04380 | 81° | 133km/h | 12528m | -11.8m/s | -58.7°C | 24.5% | 0hPa | 2.2V | 08:06:00 | 00:00:00 | 00:00:00 | |
| PETON7-10 | 2026-09-05 01:53:52 | 48.22732 | 18.04228 | 81° | 137km/h | 12563m | -11.4m/s | -58.9°C | 31.2% | 0hPa | 2.2V | 00:00:00 | 00:00:00 | 00:00:00 | |
| POL2MAQ | 2026-09-05 01:53:51 | 48.22732 | 18.04228 | 81° | 135km/h | 12563m | -11.4m/s | -59.0°C | 24.4% | 0hPa | 2.4V | 08:06:00 | 00:00:00 | 00:00:00 | |
| OM5KV | 2026-09-05 01:53:49 | 48.22721 | 18.04126 | 82° | 139km/h | 12585m | -11.5m/s | -59.2°C | 24.1% | 0hPa | 2.4V | 08:06:00 | 00:00:00 | 00:00:00 | |
| OM5KV | 2026-09-05 01:53:48 | 48.22716 | 18.04074 | 82° | 135km/h | 12597m | -11.5m/s | -59.3°C | 24.0% | 0hPa | 2.4V | 08:06:00 | 00:00:00 | 00:00:00 | |
| ATIDSZ-14 | 2026-09-05 01:53:45 | 48.22699 | 18.03920 | 84° | 137km/h | 12630m | -11.5m/s | -59.5°C | 23.5% | 0hPa | 2.4V | 08:06:00 | 00:00:00 | 00:00:00 | |
| PG1ADW-2 | 2026-09-05 01:53:44 | 48.22688 | 18.03817 | 82° | 131km/h | 12652m | -11.4m/s | -59.6°C | 29.8% | 0hPa | 2.4V | 08:05:00 | 00:00:00 | 00:00:00 | |
| OM5KV | 2026-09-05 01:53:43 | 48.22689 | 18.03818 | 83° | 141km/h | 12652m | -11.4m/s | -59.6°C | 23.0% | 0hPa | 2.2V | 08:06:00 | 00:00:00 | 00:00:00 | |
| OE3OSB-13 | 2026-09-05 01:53:40 | 48.22666 | 18.03562 | 83° | 133km/h | 12708m | -11.6m/s | -60.0°C | 21.8% | -1.0hPa | 2.2V | 00:00:00 | 00:00:00 | 00:00:00 | |
| OM5KV | 2026-09-05 01:53:38 | 48.22666 | 18.03562 | 84° | 133km/h | 12708m | -11.6m/s | -60.0°C | 22.1% | 0hPa | 2.2V | 08:06:00 | 00:00:00 | 00:00:00 | |
| PETON7-10 | 2026-09-05 01:53:37 | 48.22657 | 18.03461 | 83° | 128km/h | 12731m | -11.7m/s | -60.1°C | 28.6% | 0hPa | 2.2V | 00:00:00 | 00:00:00 | 00:00:00 | |
| OM5KV | 2026-09-05 01:53:32 | 48.22641 | 18.03263 | 84° | 128km/h | 12776m | -11.1m/s | -60.4°C | 20.4% | 0hPa | 2.2V | 08:06:00 | 00:00:00 | 00:00:00 | |
| S52SK | 2026-09-05 01:53:27 | 48.22623 | 18.03024 | 86° | 124km/h | 12831m | -11.4m/s | -60.7°C | 19.1% | 0hPa | 2.2V | 00:00:00 | 00:00:00 | 00:00:00 | |
| OM5KV | 2026-09-05 01:53:26 | 48.22620 | 18.02977 | 84° | 124km/h | 12843m | -11.4m/s | -60.8°C | 19.0% | 0hPa | 2.2V | 08:06:00 | 00:00:00 | 00:00:00 | |
| ATIDSZ-14 | 2026-09-05 01:53:25 | 48.22617 | 18.02930 | 86° | 126km/h | 12854m | -11.8m/s | -60.8°C | 18.6% | 0hPa | 2.2V | 08:06:00 | 00:00:00 | 00:00:00 | |
| PG1ADW-2 | 2026-09-05 01:53:24 | 48.22612 | 18.02838 | 85° | 119km/h | 12876m | -11.2m/s | -60.8°C | 24.8% | 0hPa | 2.2V | 00:00:00 | 02:30:41 | 00:00:00 | |
| PETON7-10 | 2026-09-05 01:53:22 | 48.22608 | 18.02746 | 86° | 119km/h | 12899m | -11.3m/s | -60.6°C | 24.0% | 0hPa | 2.2V | 00:00:00 | 02:30:39 | 00:00:00 | |
| HA6NAB-11 | 2026-09-05 01:53:21 | 48.22608 | 18.02746 | 86° | 120km/h | 12899m | -11.3m/s | -60.7°C | 17.6% | 0hPa | 2.2V | 08:06:00 | 00:00:00 | 00:00:00 | |
| OM5KV | 2026-09-05 01:53:19 | 48.22603 | 18.02655 | 89° | 122km/h | 12920m | -12.0m/s | -60.4°C | 16.6% | 0hPa | 2.2V | 08:06:00 | 00:00:00 | 00:00:00 | |
| OM5KV | 2026-09-05 01:53:18 | 48.22602 | 18.02609 | 88° | 119km/h | 12932m | -11.6m/s | -60.4°C | 16.5% | 0hPa | 2.2V | 08:06:00 | 00:00:00 | 00:00:00 | |
| HA6NAB-11 | 2026-09-05 01:53:16 | 48.22598 | 18.02519 | 87° | 120km/h | 12955m | -11.7m/s | -60.5°C | 16.2% | 0hPa | 2.2V | 08:06:00 | 00:00:00 | 00:00:00 | |
| OM5KV | 2026-09-05 01:53:13 | 48.22593 | 18.02384 | 86° | 119km/h | 12989m | -11.4m/s | -60.6°C | 15.7% | 0hPa | 2.2V | 08:06:00 | 00:00:00 | 00:00:00 | |
| OM5KV | 2026-09-05 01:53:12 | 48.22591 | 18.02339 | 89° | 119km/h | 13000m | -11.6m/s | -60.6°C | 15.6% | 0hPa | 2.2V | 08:06:00 | 00:00:00 | 00:00:00 | |
| HA6NAB-11 | 2026-09-05 01:53:10 | 48.22586 | 18.02249 | 86° | 120km/h | 13023m | -11.0m/s | -60.8°C | 15.4% | 0hPa | 2.2V | 08:06:00 | 00:00:00 | 00:00:00 | |
| GYPAP8-17 | 2026-09-05 01:53:08 | 48.22581 | 18.02160 | 84° | 117km/h | 13045m | -11.4m/s | -61.0°C | 15.2% | 0hPa | 2.2V | 00:00:00 | 00:00:00 | 00:00:00 | |
| PETON7-10 | 2026-09-05 01:53:07 | 48.22575 | 18.02072 | 86° | 113km/h | 13067m | -11.9m/s | -61.1°C | 21.1% | 0hPa | 2.2V | 08:06:00 | 00:00:00 | 00:00:00 | |
| ATIDSZ-14 | 2026-09-05 01:53:05 | 48.22573 | 18.02029 | 84° | 115km/h | 13078m | -11.5m/s | -61.2°C | 14.9% | 0hPa | 2.4V | 08:07:00 | 00:00:00 | 00:00:00 | |
| PG1ADW-2 | 2026-09-05 01:53:04 | 48.22566 | 18.01942 | 85° | 110km/h | 13101m | -11.3m/s | -61.2°C | 20.6% | 0hPa | 2.4V | 00:00:00 | 00:00:00 | 00:00:00 | |
| OM5KV | 2026-09-05 01:53:01 | 48.22557 | 18.01812 | 85° | 117km/h | 13135m | -11.6m/s | -61.5°C | 14.2% | 0hPa | 2.4V | 08:07:00 | 00:00:00 | 00:00:00 | |
| HA6NAB-11 | 2026-09-05 01:52:59 | 48.22554 | 18.01769 | 87° | 113km/h | 13146m | -11.4m/s | -61.5°C | 14.2% | 0hPa | 2.4V | 08:07:00 | 00:00:00 | 00:00:00 | |
| OM5KV | 2026-09-05 01:52:57 | 48.22549 | 18.01684 | 87° | 115km/h | 13168m | -11.1m/s | -61.5°C | 13.8% | 0hPa | 2.4V | 08:07:00 | 00:00:00 | 00:00:00 | |
| OE5DRO-10 | 2026-09-05 01:52:56 | 48.22546 | 18.01599 | 86° | 106km/h | 13190m | -12.0m/s | -61.2°C | 19.0% | 0hPa | 2.4V | 00:00:00 | 00:00:00 | 00:00:00 | |
| OM5KV | 2026-09-05 01:52:54 | 48.22544 | 18.01557 | 88° | 111km/h | 13201m | -11.8m/s | -61.3°C | 13.0% | 0hPa | 2.4V | 08:07:00 | 00:00:00 | 00:00:00 | |
| HA6NAB-11 | 2026-09-05 01:52:53 | 48.22543 | 18.01516 | 89° | 108km/h | 13213m | -11.5m/s | -61.3°C | 12.7% | 0hPa | 2.4V | 08:07:00 | 00:00:00 | 00:00:00 | |
| PETON7-10 | 2026-09-05 01:52:52 | 48.22540 | 18.01434 | 88° | 104km/h | 13236m | -11.1m/s | -61.3°C | 18.3% | 0hPa | 2.4V | 00:00:00 | 00:00:00 | 00:00:00 | |
| OM5KV | 2026-09-05 01:52:51 | 48.22540 | 18.01434 | 88° | 110km/h | 13236m | -11.2m/s | -61.4°C | 12.6% | 0hPa | 2.4V | 08:07:00 | 00:00:00 | 00:00:00 | |
| POL2MAQ | 2026-09-05 01:52:49 | 48.22539 | 18.01353 | 87° | 104km/h | 13258m | -11.2m/s | -61.5°C | 12.3% | 0hPa | 2.4V | 08:07:00 | 00:00:00 | 00:00:00 | |
| ATIDSZ-14 | 2026-09-05 01:52:45 | 48.22534 | 18.01155 | 89° | 106km/h | 13315m | -11.3m/s | -61.6°C | 11.8% | 0hPa | 2.4V | 08:07:00 | 00:00:00 | 00:00:00 | |
| PG1ADW-2 | 2026-09-05 01:52:44 | 48.22533 | 18.01115 | 89° | 100km/h | 13326m | -11.6m/s | -61.6°C | 17.5% | 0hPa | 2.4V | 00:00:00 | 00:00:00 | 00:00:00 | |
| OM5KV | 2026-09-05 01:52:43 | 48.22533 | 18.01115 | 90° | 106km/h | 13326m | -11.6m/s | -61.6°C | 11.8% | 0hPa | 2.2V | 08:07:00 | 00:00:00 | 00:00:00 | |
| OE3OSB-13 | 2026-09-05 01:52:38 | 48.22530 | 18.00841 | 91° | 102km/h | 13405m | -12.1m/s | -61.0°C | 10.2% | -1.0hPa | 2.2V | 00:00:00 | 00:00:00 | 00:00:00 | |
| PETON7-10 | 2026-09-05 01:52:37 | 48.22530 | 18.00841 | 92° | 97km/h | 13405m | -12.0m/s | -60.9°C | 15.7% | 0hPa | 2.2V | 00:00:00 | 02:29:54 | 00:00:00 | |
| OM5KV | 2026-09-05 01:52:33 | 48.22530 | 18.00725 | 91° | 104km/h | 13440m | -10.7m/s | -61.2°C | 10.4% | 0hPa | 2.2V | 08:07:00 | 00:00:00 | 00:00:00 | |
| OE5DXL-15 | 2026-09-05 01:52:31 | 48.22530 | 18.00611 | 90° | 88km/h | 13474m | -11.8m/s | -61.1°C | 15.6% | 0hPa | 2.2V | 00:00:00 | 00:00:00 | 00:00:00 | |
| OM5KV | 2026-09-05 01:52:29 | 48.22530 | 18.00537 | 89° | 95km/h | 13497m | -10.8m/s | -60.4°C | 9.6% | 0hPa | 2.2V | 08:07:00 | 00:00:00 | 00:00:00 | |
| S52SK | 2026-09-05 01:52:26 | 48.22530 | 18.00466 | 92° | 93km/h | 13518m | -11.4m/s | -60.3°C | 9.5% | 0hPa | 2.2V | 00:00:00 | 00:00:00 | 00:00:00 | |
| PG1ADW-2 | 2026-09-05 01:52:24 | 48.22530 | 18.00361 | 91° | 84km/h | 13552m | -11.5m/s | -60.4°C | 14.3% | 0hPa | 2.2V | 00:00:00 | 00:00:00 | 00:00:00 | |
| GYPAP8-17 | 2026-09-05 01:52:23 | 48.22530 | 18.00361 | 92° | 89km/h | 13552m | -11.5m/s | -60.5°C | 9.4% | 0hPa | 2.2V | 00:00:00 | 00:00:00 | 00:00:00 | |
| PETON7-10 | 2026-09-05 01:52:22 | 48.22529 | 18.00293 | 89° | 84km/h | 13575m | -11.5m/s | -60.5°C | 14.3% | 0hPa | 2.2V | 00:00:00 | 00:00:00 | 00:00:00 | |
| S52SK | 2026-09-05 01:52:21 | 48.22529 | 18.00293 | 89° | 91km/h | 13575m | -11.6m/s | -60.5°C | 9.3% | 0hPa | 2.4V | 00:00:00 | 00:00:00 | 00:00:00 | |
| HA6NAB-11 | 2026-09-05 01:52:19 | 48.22528 | 18.00227 | 89° | 84km/h | 13597m | -11.7m/s | -60.4°C | 9.2% | 0hPa | 2.4V | 08:07:00 | 00:00:00 | 00:00:00 | |
| OM5KV | 2026-09-05 01:52:18 | 48.22528 | 18.00195 | 88° | 86km/h | 13609m | -11.5m/s | -60.4°C | 9.1% | 0hPa | 2.4V | 08:07:00 | 00:00:00 | 00:00:00 | |
| OE5DRO-10 | 2026-09-05 01:52:17 | 48.22527 | 18.00131 | 89° | 82km/h | 13632m | -11.7m/s | -60.4°C | 13.9% | 0hPa | 2.4V | 00:00:00 | 00:00:00 | 00:00:00 | |
| OM5KV | 2026-09-05 01:52:16 | 48.22527 | 18.00130 | 90° | 82km/h | 13632m | -11.8m/s | -60.5°C | 9.1% | 0hPa | 2.4V | 08:08:00 | 00:00:00 | 00:00:00 | |
| HA6NAB-11 | 2026-09-05 01:52:13 | 48.22522 | 18.00037 | 89° | 80km/h | 13667m | -11.8m/s | -60.6°C | 9.0% | 0hPa | 2.4V | 00:00:00 | 00:00:00 | 00:00:00 | |
| OM5KV | 2026-09-05 01:52:12 | 48.22521 | 18.00006 | 85° | 80km/h | 13679m | -11.2m/s | -60.7°C | 9.0% | 0hPa | 2.4V | 08:08:00 | 00:00:00 | 00:00:00 | |
| OM5KV | 2026-09-05 01:52:11 | 48.22519 | 17.99975 | 86° | 84km/h | 13689m | -11.0m/s | -60.7°C | 9.0% | 0hPa | 2.4V | 08:08:00 | 00:00:00 | 00:00:00 | |
| PETON7-10 | 2026-09-05 01:52:07 | 48.22510 | 17.99823 | 86° | 84km/h | 13745m | -12.1m/s | -61.0°C | 14.0% | 0hPa | 2.4V | 00:00:00 | 00:00:00 | 00:00:00 | |
| PG1ADW-2 | 2026-09-05 01:52:04 | 48.22501 | 17.99732 | 84° | 86km/h | 13780m | -12.5m/s | -60.8°C | 13.8% | 0hPa | 2.4V | 00:00:00 | 02:29:21 | 00:00:00 | |
| OM5KV | 2026-09-05 01:52:03 | 48.22501 | 17.99732 | 84° | 84km/h | 13780m | -12.5m/s | -60.8°C | 9.0% | 0hPa | 2.4V | 08:08:00 | 00:00:00 | 00:00:00 | |
| ATIDSZ-14 | 2026-09-05 01:52:02 | 48.22498 | 17.99701 | 81° | 82km/h | 13792m | -11.7m/s | -60.9°C | 8.9% | 0hPa | 2.4V | 08:08:00 | 00:00:00 | 00:00:00 | |
| OE5DXL-15 | 2026-09-05 01:52:01 | 48.22490 | 17.99638 | 82° | 89km/h | 13816m | -11.9m/s | -60.9°C | 13.8% | 0hPa | 2.4V | 00:00:00 | 00:00:00 | 00:00:00 | |
| OE5DRO-10 | 2026-09-05 01:51:58 | 48.22478 | 17.99543 | 80° | 88km/h | 13852m | -11.5m/s | -61.2°C | 13.9% | 0hPa | 2.4V | 00:00:00 | 00:00:00 | 00:00:00 | |
| OM5KV | 2026-09-05 01:51:57 | 48.22478 | 17.99543 | 80° | 88km/h | 13852m | -11.5m/s | -61.2°C | 9.0% | 0hPa | 2.4V | 08:08:00 | 00:00:00 | 00:00:00 | |
| HA6NAB-11 | 2026-09-05 01:51:55 | 48.22470 | 17.99479 | 78° | 86km/h | 13876m | -11.9m/s | -61.4°C | 9.0% | 0hPa | 2.4V | 00:00:00 | 00:00:00 | 00:00:00 | |
| OM5KV | 2026-09-05 01:51:54 | 48.22465 | 17.99447 | 79° | 89km/h | 13887m | -12.0m/s | -61.5°C | 9.0% | 0hPa | 2.4V | 08:08:00 | 00:00:00 | 00:00:00 | |
| OM5KV | 2026-09-05 01:51:53 | 48.22460 | 17.99414 | 81° | 88km/h | 13899m | -12.0m/s | -61.6°C | 9.0% | 0hPa | 2.4V | 08:08:00 | 00:00:00 | 00:00:00 | |
| PETON7-10 | 2026-09-05 01:51:52 | 48.22451 | 17.99350 | 76° | 88km/h | 13923m | -12.2m/s | -61.8°C | 14.2% | 0hPa | 2.4V | 00:00:00 | 02:29:09 | 00:00:00 | |
| HA6NAB-11 | 2026-09-05 01:51:49 | 48.22440 | 17.99284 | 79° | 86km/h | 13946m | -12.4m/s | -62.0°C | 9.2% | 0hPa | 2.4V | 00:00:00 | 00:00:00 | 00:00:00 | |
| OM5KV | 2026-09-05 01:51:48 | 48.22435 | 17.99253 | 74° | 86km/h | 13958m | -11.7m/s | -62.1°C | 9.3% | 0hPa | 2.4V | 08:08:00 | 00:00:00 | 00:00:00 | |
| PG1ADW-2 | 2026-09-05 01:51:44 | 48.22406 | 17.99093 | 74° | 91km/h | 14016m | -12.5m/s | -62.6°C | 14.8% | 0hPa | 2.4V | 00:00:00 | 00:00:00 | 00:00:00 | |
| OM5KV | 2026-09-05 01:51:42 | 48.22399 | 17.99061 | 71° | 88km/h | 14029m | -12.7m/s | -62.8°C | 9.5% | 0hPa | 2.4V | 08:08:00 | 00:00:00 | 00:00:00 | |
| ATIDSZ-14 | 2026-09-05 01:51:41 | 48.22392 | 17.99029 | 73° | 91km/h | 14042m | -12.6m/s | -62.9°C | 9.5% | 0hPa | 2.4V | 08:08:00 | 00:00:00 | 00:00:00 | |
| OE5DRO-10 | 2026-09-05 01:51:39 | 48.22372 | 17.98933 | 69° | 95km/h | 14078m | -11.8m/s | -63.1°C | 15.0% | 0hPa | 2.4V | 00:00:00 | 00:00:00 | 00:00:00 | |
| PETON7-10 | 2026-09-05 01:51:37 | 48.22356 | 17.98868 | 72° | 95km/h | 14100m | -11.8m/s | -63.3°C | 15.1% | 0hPa | 2.2V | 00:00:00 | 00:00:00 | 00:00:00 | |
| OE3OSB-13 | 2026-09-05 01:51:36 | 48.22342 | 17.98804 | 67° | 91km/h | 14124m | -11.4m/s | -63.5°C | 9.2% | -1.0hPa | 2.4V | 00:00:00 | 00:00:00 | 00:00:00 | |
| OM5KV | 2026-09-05 01:51:34 | 48.22342 | 17.98804 | 68° | 91km/h | 14124m | -11.4m/s | -63.5°C | 9.5% | 0hPa | 2.4V | 08:08:00 | 00:00:00 | 00:00:00 | |
| OM5KV | 2026-09-05 01:51:33 | 48.22333 | 17.98772 | 68° | 93km/h | 14136m | -12.1m/s | -63.5°C | 9.4% | 0hPa | 2.4V | 08:08:00 | 00:00:00 | 00:00:00 | |
| OE5DXL-15 | 2026-09-05 01:51:31 | 48.22307 | 17.98671 | 72° | 97km/h | 14172m | -12.7m/s | -63.4°C | 14.4% | 0hPa | 2.4V | 00:00:00 | 00:00:00 | 00:00:00 | |
| POL2MAQ | 2026-09-05 01:51:27 | 48.22284 | 17.98572 | 70° | 95km/h | 14208m | -11.8m/s | -63.4°C | 8.5% | 0hPa | 2.4V | 08:08:00 | 00:00:00 | 00:00:00 | |
| OM5KV | 2026-09-05 01:51:25 | 48.22268 | 17.98504 | 73° | 97km/h | 14231m | -12.1m/s | -63.4°C | 8.3% | 0hPa | 2.4V | 08:08:00 | 00:00:00 | 00:00:00 | |
| PG1ADW-2 | 2026-09-05 01:51:24 | 48.22253 | 17.98434 | 74° | 97km/h | 14255m | -12.6m/s | -63.4°C | 13.6% | 0hPa | 2.4V | 00:00:00 | 00:00:00 | 00:00:00 | |
| OM5KV | 2026-09-05 01:51:23 | 48.22253 | 17.98434 | 75° | 97km/h | 14255m | -12.7m/s | -63.5°C | 8.2% | 0hPa | 2.4V | 08:08:00 | 00:00:00 | 00:00:00 | |
| PETON7-10 | 2026-09-05 01:51:22 | 48.22239 | 17.98364 | 73° | 99km/h | 14281m | -12.3m/s | -63.5°C | 13.5% | 0hPa | 2.4V | 00:00:00 | 00:00:00 | 00:00:00 | |
| ATIDSZ-14 | 2026-09-05 01:51:21 | 48.22240 | 17.98364 | 74° | 97km/h | 14281m | -12.3m/s | -63.5°C | 8.2% | 0hPa | 2.4V | 08:08:00 | 00:00:00 | 00:00:00 | |
| OE5DRO-10 | 2026-09-05 01:51:20 | 48.22226 | 17.98292 | 76° | 97km/h | 14304m | -10.9m/s | -63.5°C | 13.6% | 0hPa | 2.4V | 00:00:00 | 00:00:00 | 00:00:00 | |
| S52SK | 2026-09-05 01:51:15 | 48.22205 | 17.98146 | 80° | 97km/h | 14343m | -9.5m/s | -63.7°C | 8.0% | 0hPa | 2.4V | 00:00:00 | 00:00:00 | 00:00:00 | |
| HA6NAB-11 | 2026-09-05 01:51:14 | 48.22199 | 17.98110 | 79° | 97km/h | 14352m | -10.5m/s | -63.8°C | 8.0% | 0hPa | 2.4V | 00:00:00 | 00:00:00 | 00:00:00 | |
| GYPAP8-17 | 2026-09-05 01:51:12 | 48.22191 | 17.98038 | 81° | 97km/h | 14373m | -10.4m/s | -63.9°C | 8.0% | 0hPa | 2.4V | 08:08:00 | 00:00:00 | 00:00:00 | |
| OM5KV | 2026-09-05 01:51:11 | 48.22187 | 17.98001 | 82° | 100km/h | 14383m | -10.2m/s | -63.8°C | 7.9% | 0hPa | 2.4V | 08:08:00 | 00:00:00 | 00:00:00 | |
| HA6NAB-11 | 2026-09-05 01:51:08 | 48.22178 | 17.97890 | 85° | 100km/h | 14416m | -11.7m/s | -63.3°C | 7.4% | 0hPa | 2.4V | 00:00:00 | 00:00:00 | 00:00:00 | |
| PETON7-10 | 2026-09-05 01:51:07 | 48.22174 | 17.97818 | 85° | 93km/h | 14437m | -11.0m/s | -62.9°C | 12.3% | 0hPa | 2.4V | 00:00:00 | 02:28:24 | 00:00:00 | |
| POL2MAQ | 2026-09-05 01:51:06 | 48.22174 | 17.97818 | 85° | 95km/h | 14437m | -11.1m/s | -63.0°C | 7.1% | 0hPa | 2.4V | 08:08:00 | 00:00:00 | 00:00:00 | |
| OE3OSB-13 | 2026-09-05 01:51:05 | 48.22170 | 17.97709 | 85° | 93km/h | 14469m | -11.0m/s | -63.0°C | 6.6% | -1.0hPa | 2.4V | 00:00:00 | 00:00:00 | 00:00:00 | |
| PG1ADW-2 | 2026-09-05 01:51:04 | 48.22170 | 17.97709 | 86° | 91km/h | 14469m | -11.0m/s | -63.0°C | 12.0% | 0hPa | 2.4V | 00:00:00 | 00:00:00 | 00:00:00 | |
| OM5KV | 2026-09-05 01:51:03 | 48.22170 | 17.97709 | 86° | 93km/h | 14469m | -11.0m/s | -63.0°C | 6.9% | 0hPa | 2.4V | 08:08:00 | 00:00:00 | 00:00:00 | |
| HA6NAB-11 | 2026-09-05 01:51:02 | 48.22169 | 17.97673 | 87° | 95km/h | 14480m | -11.2m/s | -63.1°C | 6.9% | 0hPa | 2.4V | 00:00:00 | 00:00:00 | 00:00:00 | |
| OE5DXL-15 | 2026-09-05 01:51:01 | 48.22167 | 17.97601 | 91° | 89km/h | 14503m | -12.8m/s | -63.0°C | 12.0% | 0hPa | 2.4V | 08:08:00 | 00:00:00 | 00:00:00 | |
| OE3MUC-15 | 2026-09-05 01:51:00 | 48.22167 | 17.97566 | 89° | 91km/h | 14515m | -11.9m/s | -63.0°C | 11.9% | 0hPa | 2.4V | 00:00:00 | 00:00:00 | 00:00:00 | |
| OM5KV | 2026-09-05 01:50:57 | 48.22166 | 17.97497 | 88° | 91km/h | 14540m | -12.7m/s | -62.9°C | 6.9% | 0hPa | 2.4V | 08:08:00 | 00:00:00 | 00:00:00 | |
| OE3MUC-15 | 2026-09-05 01:50:56 | 48.22164 | 17.97427 | 88° | 93km/h | 14565m | -12.1m/s | -62.1°C | 11.0% | 0hPa | 2.4V | 00:00:00 | 00:00:00 | 00:00:00 | |
| OM5KV | 2026-09-05 01:50:55 | 48.22164 | 17.97392 | 89° | 93km/h | 14577m | -13.0m/s | -62.2°C | 6.2% | 0hPa | 2.2V | 08:08:00 | 00:00:00 | 00:00:00 | |
| OM5KV | 2026-09-05 01:50:53 | 48.22162 | 17.97357 | 89° | 95km/h | 14590m | -13.3m/s | -62.2°C | 6.2% | 0hPa | 2.2V | 08:08:00 | 00:00:00 | 00:00:00 | |
| PETON7-10 | 2026-09-05 01:50:52 | 48.22161 | 17.97288 | 86° | 88km/h | 14616m | -12.2m/s | -62.3°C | 10.8% | 0hPa | 2.2V | 08:08:00 | 00:00:00 | 00:00:00 | |
| OE3MUC-15 | 2026-09-05 01:50:48 | 48.22155 | 17.97155 | 86° | 86km/h | 14662m | -13.1m/s | -62.6°C | 10.8% | 0hPa | 2.4V | 00:00:00 | 00:00:00 | 00:00:00 | |
| OM5KV | 2026-09-05 01:50:47 | 48.22155 | 17.97155 | 87° | 88km/h | 14662m | -13.1m/s | -62.6°C | 6.1% | 0hPa | 2.4V | 08:08:00 | 00:00:00 | 00:00:00 | |
| POL2MAQ | 2026-09-05 01:50:46 | 48.22153 | 17.97122 | 87° | 88km/h | 14674m | -11.4m/s | -62.7°C | 6.1% | 0hPa | 2.4V | 08:08:00 | 00:00:00 | 00:00:00 | |
| PG1ADW-2 | 2026-09-05 01:50:44 | 48.22149 | 17.97024 | 87° | 88km/h | 14701m | -8.8m/s | -62.8°C | 11.0% | 0hPa | 2.4V | 08:08:00 | 02:28:01 | 00:00:00 | |
| OE5DRO-10 | 2026-09-05 01:50:42 | 48.22145 | 17.96959 | 83° | 88km/h | 14718m | -8.5m/s | -62.8°C | 10.9% | 0hPa | 2.2V | 00:00:00 | 00:00:00 | 00:00:00 | |
| OM5KV | 2026-09-05 01:50:41 | 48.22145 | 17.96959 | 83° | 86km/h | 14718m | -8.5m/s | -62.9°C | 6.0% | 0hPa | 2.4V | 08:08:00 | 00:00:00 | 00:00:00 | |
| ATIDSZ-14 | 2026-09-05 01:50:40 | 48.22142 | 17.96926 | 82° | 86km/h | 14726m | -8.5m/s | -62.9°C | 6.0% | 0hPa | 2.4V | 08:08:00 | 00:00:00 | 00:00:00 | |
| OE3MUC-15 | 2026-09-05 01:50:39 | 48.22137 | 17.96862 | 85° | 88km/h | 14743m | -7.8m/s | -62.8°C | 10.8% | 0hPa | 2.4V | 00:00:00 | 02:27:56 | 00:00:00 | |
| PETON7-10 | 2026-09-05 01:50:37 | 48.22131 | 17.96796 | 82° | 88km/h | 14758m | -8.6m/s | -62.6°C | 10.5% | 0hPa | 2.4V | 00:00:00 | 00:00:00 | 00:00:00 | |
| GYPAP8-17 | 2026-09-05 01:50:36 | 48.22131 | 17.96796 | 82° | 86km/h | 14758m | -8.6m/s | -62.7°C | 5.6% | 0hPa | 2.4V | 08:08:00 | 00:00:00 | 00:00:00 | |
| OE3OSB-13 | 2026-09-05 01:50:34 | 48.22122 | 17.96664 | 84° | 86km/h | 14792m | -8.1m/s | -62.5°C | 5.0% | -1.0hPa | 2.4V | 00:00:00 | 00:00:00 | 00:00:00 | |
| OE5DXL-15 | 2026-09-05 01:50:31 | 48.22119 | 17.96599 | 86° | 86km/h | 14808m | -8.5m/s | -62.5°C | 9.9% | 0hPa | 2.4V | 00:00:00 | 00:00:00 | 00:00:00 | |
| OM5KV | 2026-09-05 01:50:28 | 48.22116 | 17.96533 | 88° | 86km/h | 14825m | -8.2m/s | -62.6°C | 5.1% | 0hPa | 2.4V | 08:09:00 | 00:00:00 | 00:00:00 | |
| OM5KV | 2026-09-05 01:50:27 | 48.22115 | 17.96500 | 90° | 88km/h | 14833m | -8.1m/s | -62.6°C | 5.0% | 0hPa | 2.4V | 08:09:00 | 00:00:00 | 00:00:00 | |
| OM5KV | 2026-09-05 01:50:26 | 48.22115 | 17.96467 | 89° | 88km/h | 14841m | -8.0m/s | -62.6°C | 5.0% | 0hPa | 2.4V | 08:09:00 | 00:00:00 | 00:00:00 | |
| OE3MUC-15 | 2026-09-05 01:50:25 | 48.22114 | 17.96401 | 93° | 86km/h | 14857m | -8.6m/s | -62.3°C | 9.5% | 0hPa | 2.4V | 00:00:00 | 00:00:00 | 00:00:00 | |
| PG1ADW-2 | 2026-09-05 01:50:24 | 48.22115 | 17.96368 | 93° | 84km/h | 14865m | -8.7m/s | -62.1°C | 9.3% | 0hPa | 2.4V | 00:00:00 | 00:00:00 | 00:00:00 | |
| OE5DRO-10 | 2026-09-05 01:50:23 | 48.22117 | 17.96303 | 93° | 84km/h | 14882m | -8.6m/s | -61.9°C | 8.9% | 0hPa | 2.4V | 00:00:00 | 00:00:00 | 00:00:00 | |
| PETON7-10 | 2026-09-05 01:50:22 | 48.22117 | 17.96303 | 93° | 84km/h | 14882m | -8.6m/s | -61.9°C | 8.9% | 0hPa | 2.4V | 00:00:00 | 02:27:39 | 00:00:00 | |
| OE3MUC-15 | 2026-09-05 01:50:21 | 48.22118 | 17.96271 | 95° | 84km/h | 14890m | -8.7m/s | -61.8°C | 8.8% | 0hPa | 2.4V | 00:00:00 | 00:00:00 | 00:00:00 | |
| OM5KV | 2026-09-05 01:50:20 | 48.22118 | 17.96271 | 96° | 86km/h | 14890m | -8.7m/s | -61.9°C | 4.4% | 0hPa | 2.4V | 08:09:00 | 00:00:00 | 00:00:00 | |
| ATIDSZ-14 | 2026-09-05 01:50:19 | 48.22120 | 17.96238 | 96° | 88km/h | 14899m | -8.5m/s | -61.8°C | 4.3% | 0hPa | 2.4V | 08:09:00 | 00:00:00 | 00:00:00 | |
| OM5KV | 2026-09-05 01:50:17 | 48.22124 | 17.96173 | 96° | 84km/h | 14916m | -9.0m/s | -61.7°C | 4.3% | 0hPa | 2.4V | 08:09:00 | 00:00:00 | 00:00:00 | |
| OE3MUC-15 | 2026-09-05 01:50:16 | 48.22130 | 17.96110 | 99° | 84km/h | 14932m | -8.1m/s | -61.5°C | 8.4% | 0hPa | 2.4V | 08:09:00 | 00:00:00 | 00:00:00 | |
| OM5KV | 2026-09-05 01:50:14 | 48.22133 | 17.96078 | 99° | 84km/h | 14940m | -8.2m/s | -61.4°C | 4.1% | 0hPa | 2.4V | 08:09:00 | 00:00:00 | 00:00:00 | |
| OE3MUC-15 | 2026-09-05 01:50:11 | 48.22146 | 17.95953 | 97° | 82km/h | 14973m | -8.6m/s | -61.2°C | 8.0% | 0hPa | 2.4V | 00:00:00 | 00:00:00 | 00:00:00 | |
| S52SK | 2026-09-05 01:50:08 | 48.22152 | 17.95890 | 100° | 86km/h | 14990m | -8.4m/s | -61.2°C | 3.8% | 0hPa | 2.4V | 00:00:00 | 00:00:00 | 00:00:00 | |
| OE3MUC-15 | 2026-09-05 01:50:07 | 48.22159 | 17.95828 | 102° | 84km/h | 15006m | -8.8m/s | -61.1°C | 7.8% | 0hPa | 2.4V | 00:00:00 | 00:00:00 | 00:00:00 | |
| HA6NAB-11 | 2026-09-05 01:50:05 | 48.22163 | 17.95797 | 102° | 86km/h | 15014m | -8.7m/s | -61.2°C | 3.7% | 0hPa | 2.4V | 08:09:00 | 00:00:00 | 00:00:00 | |
| PG1ADW-2 | 2026-09-05 01:50:04 | 48.22171 | 17.95734 | 103° | 80km/h | 15031m | -8.5m/s | -61.2°C | 7.7% | 0hPa | 2.4V | 00:00:00 | 00:00:00 | 00:00:00 | |
| OE3MUC-15 | 2026-09-05 01:50:03 | 48.22176 | 17.95703 | 102° | 84km/h | 15040m | -8.4m/s | -61.2°C | 7.8% | 0hPa | 2.4V | 00:00:00 | 00:00:00 | 00:00:00 | |
| OE5DXL-15 | 2026-09-05 01:50:01 | 48.22184 | 17.95642 | 103° | 80km/h | 15057m | -8.6m/s | -61.3°C | 7.8% | 0hPa | 2.4V | 00:00:00 | 00:00:00 | 00:00:00 | |
| OE3MUC-15 | 2026-09-05 01:49:59 | 48.22192 | 17.95582 | 101° | 80km/h | 15074m | -9.4m/s | -61.2°C | 7.7% | 0hPa | 2.4V | 00:00:00 | 00:00:00 | 00:00:00 | |
| GYPAP8-17 | 2026-09-05 01:49:57 | 48.22197 | 17.95553 | 103° | 78km/h | 15082m | -8.8m/s | -61.2°C | 3.4% | 0hPa | 2.4V | 00:00:00 | 00:00:00 | 00:00:00 | |
| OE3MUC-15 | 2026-09-05 01:49:55 | 48.22208 | 17.95464 | 102° | 78km/h | 15108m | -9.1m/s | -60.7°C | 7.1% | 0hPa | 2.4V | 00:00:00 | 00:00:00 | 00:00:00 | |
| HA6NAB-11 | 2026-09-05 01:49:53 | 48.22213 | 17.95435 | 103° | 80km/h | 15117m | -9.0m/s | -60.8°C | 3.2% | 0hPa | 2.4V | 08:09:00 | 00:00:00 | 00:00:00 | |
| PETON7-10 | 2026-09-05 01:49:52 | 48.22220 | 17.95376 | 101° | 78km/h | 15134m | -8.6m/s | -60.8°C | 7.2% | 0hPa | 2.4V | 00:00:00 | 00:00:00 | 00:00:00 | |
| OE3MUC-15 | 2026-09-05 01:49:51 | 48.22225 | 17.95347 | 103° | 78km/h | 15143m | -8.5m/s | -60.7°C | 7.2% | 0hPa | 2.4V | 00:00:00 | 00:00:00 | 00:00:00 | |
| HA6NAB-11 | 2026-09-05 01:49:48 | 48.22232 | 17.95288 | 101° | 77km/h | 15160m | -8.8m/s | -60.5°C | 3.0% | 0hPa | 2.4V | 08:09:00 | 00:00:00 | 00:00:00 | |
| OE3MUC-15 | 2026-09-05 01:49:47 | 48.22239 | 17.95230 | 99° | 78km/h | 15178m | -9.3m/s | -60.2°C | 6.8% | 0hPa | 2.4V | 00:00:00 | 00:00:00 | 00:00:00 | |
| PG1ADW-2 | 2026-09-05 01:49:44 | 48.22248 | 17.95142 | 97° | 84km/h | 15204m | -8.4m/s | -60.0°C | 6.6% | 0hPa | 2.4V | 00:00:00 | 00:00:00 | 00:00:00 | |
| OE3MUC-15 | 2026-09-05 01:49:43 | 48.22250 | 17.95114 | 100° | 78km/h | 15213m | -9.1m/s | -60.0°C | 6.5% | 0hPa | 2.2V | 00:00:00 | 00:00:00 | 00:00:00 | |
| HA6NAB-11 | 2026-09-05 01:49:42 | 48.22250 | 17.95114 | 100° | 78km/h | 15213m | -9.2m/s | -60.0°C | 2.8% | 0hPa | 2.2V | 08:10:00 | 00:00:00 | 00:00:00 | |
| OM5KV | 2026-09-05 01:49:39 | 48.22258 | 17.95024 | 99° | 80km/h | 15238m | -8.9m/s | -59.9°C | 2.7% | 0hPa | 2.2V | 08:10:00 | 00:00:00 | 00:00:00 | |
| OM5KV | 2026-09-05 01:49:38 | 48.22260 | 17.94994 | 96° | 82km/h | 15247m | -8.5m/s | -59.9°C | 2.7% | 0hPa | 2.2V | 08:10:00 | 00:00:00 | 00:00:00 | |
| PETON7-10 | 2026-09-05 01:49:37 | 48.22264 | 17.94932 | 96° | 86km/h | 15263m | -9.0m/s | -59.9°C | 6.4% | 0hPa | 2.2V | 00:00:00 | 02:26:54 | 00:00:00 | |
| OM5KV | 2026-09-05 01:49:34 | 48.22267 | 17.94870 | 95° | 82km/h | 15281m | -9.4m/s | -60.0°C | 2.7% | 0hPa | 2.2V | 08:10:00 | 00:00:00 | 00:00:00 | |
| OE3OSB-13 | 2026-09-05 01:49:32 | 48.22272 | 17.94741 | 93° | 88km/h | 15317m | -9.3m/s | -59.8°C | 2.4% | -1.0hPa | 2.2V | 00:00:00 | 00:00:00 | 00:00:00 | |
| OE5DXL-15 | 2026-09-05 01:49:31 | 48.22272 | 17.94741 | 94° | 88km/h | 15317m | -9.2m/s | -59.8°C | 6.3% | 0hPa | 2.2V | 00:00:00 | 00:00:00 | 00:00:00 | |
| OM5KV | 2026-09-05 01:49:28 | 48.22274 | 17.94676 | 95° | 86km/h | 15335m | -9.2m/s | -59.9°C | 2.6% | 0hPa | 2.5V | 08:10:00 | 00:00:00 | 00:00:00 | |
| OE5DRO-10 | 2026-09-05 01:49:25 | 48.22278 | 17.94543 | 91° | 89km/h | 15370m | -9.3m/s | -59.9°C | 6.3% | 0hPa | 2.5V | 00:00:00 | 00:00:00 | 00:00:00 | |
| PG1ADW-2 | 2026-09-05 01:49:24 | 48.22278 | 17.94509 | 93° | 89km/h | 15379m | -9.5m/s | -59.9°C | 6.3% | 0hPa | 2.5V | 00:00:00 | 02:26:41 | 00:00:00 | |
| POL2MAQ | 2026-09-05 01:49:23 | 48.22278 | 17.94509 | 94° | 89km/h | 15379m | -9.5m/s | -59.9°C | 2.6% | 0hPa | 2.5V | 08:10:00 | 00:00:00 | 00:00:00 | |
| PETON7-10 | 2026-09-05 01:49:22 | 48.22280 | 17.94440 | 92° | 89km/h | 15397m | -9.3m/s | -59.6°C | 6.2% | 0hPa | 2.5V | 00:00:00 | 00:00:00 | 00:00:00 | |
| DO3MHA-11 | 2026-09-05 01:49:21 | 48.22280 | 17.94406 | 94° | 89km/h | 15406m | -9.1m/s | -59.5°C | 6.3% | 0hPa | 2.4V | 00:00:00 | 02:26:38 | 00:00:00 | |
| OM5KV | 2026-09-05 01:49:20 | 48.22280 | 17.94406 | 94° | 93km/h | 15406m | -9.1m/s | -59.5°C | 2.6% | 0hPa | 2.4V | 08:10:00 | 00:00:00 | 00:00:00 | |
| OE3MUC-15 | 2026-09-05 01:49:19 | 48.22283 | 17.94336 | 96° | 93km/h | 15424m | -8.9m/s | -59.3°C | 6.1% | 0hPa | 2.4V | 00:00:00 | 00:00:00 | 00:00:00 | |
| ATIDSZ-14 | 2026-09-05 01:49:18 | 48.22283 | 17.94336 | 96° | 91km/h | 15424m | -8.9m/s | -59.3°C | 2.5% | 0hPa | 2.4V | 08:10:00 | 00:00:00 | 00:00:00 | |
| OE3MUC-15 | 2026-09-05 01:49:15 | 48.22291 | 17.94197 | 94° | 89km/h | 15459m | -9.4m/s | -59.4°C | 6.2% | 0hPa | 2.4V | 00:00:00 | 00:00:00 | 00:00:00 | |
| OM5KV | 2026-09-05 01:49:14 | 48.22291 | 17.94197 | 95° | 89km/h | 15459m | -9.4m/s | -59.4°C | 2.5% | 0hPa | 2.4V | 08:10:00 | 00:00:00 | 00:00:00 | |
| S52SK | 2026-09-05 01:49:12 | 48.22295 | 17.94130 | 97° | 89km/h | 15477m | -8.9m/s | -59.6°C | 2.6% | 0hPa | 2.4V | 00:00:00 | 00:00:00 | 00:00:00 | |
| OE3MUC-15 | 2026-09-05 01:49:11 | 48.22301 | 17.94063 | 98° | 86km/h | 15494m | -9.4m/s | -59.5°C | 6.4% | 0hPa | 2.4V | 00:00:00 | 00:00:00 | 00:00:00 | |
| OM5KV | 2026-09-05 01:49:10 | 48.22301 | 17.94063 | 99° | 89km/h | 15494m | -9.5m/s | -59.5°C | 2.6% | 0hPa | 2.4V | 08:10:00 | 00:00:00 | 00:00:00 | |
| DO3MHA-11 | 2026-09-05 01:49:09 | 48.22306 | 17.93999 | 100° | 82km/h | 15512m | -8.6m/s | -59.2°C | 6.3% | 0hPa | 2.4V | 00:00:00 | 02:26:26 | 00:00:00 | |
| PETON7-10 | 2026-09-05 01:49:07 | 48.22313 | 17.93936 | 99° | 77km/h | 15529m | -8.6m/s | -59.0°C | 6.2% | 0hPa | 2.5V | 00:00:00 | 00:00:00 | 00:00:00 | |
| OE5DRO-10 | 2026-09-05 01:49:06 | 48.22317 | 17.93906 | 103° | 75km/h | 15537m | -9.3m/s | -59.0°C | 6.2% | 0hPa | 2.5V | 00:00:00 | 00:00:00 | 00:00:00 | |
| OM5KV | 2026-09-05 01:49:05 | 48.22317 | 17.93906 | 104° | 82km/h | 15537m | -9.3m/s | -59.0°C | 2.5% | 0hPa | 2.5V | 08:10:00 | 00:00:00 | 00:00:00 | |
| PG1ADW-2 | 2026-09-05 01:49:04 | 48.22325 | 17.93845 | 103° | 71km/h | 15555m | -9.3m/s | -58.8°C | 6.1% | 0hPa | 2.5V | 00:00:00 | 00:00:00 | 00:00:00 | |
| OE3MUC-15 | 2026-09-05 01:49:03 | 48.22330 | 17.93814 | 104° | 80km/h | 15564m | -9.1m/s | -58.8°C | 6.2% | 0hPa | 2.5V | 08:10:00 | 00:00:00 | 00:00:00 | |
| HA6NAB-11 | 2026-09-05 01:49:02 | 48.22330 | 17.93814 | 105° | 84km/h | 15564m | -9.2m/s | -58.9°C | 2.5% | 0hPa | 2.5V | 08:10:00 | 00:00:00 | 00:00:00 | |
| OE5DXL-15 | 2026-09-05 01:49:01 | 48.22339 | 17.93755 | 106° | 60km/h | 15581m | -9.1m/s | -58.7°C | 6.1% | 0hPa | 2.5V | 00:00:00 | 00:00:00 | 00:00:00 | |
| OE3MUC-15 | 2026-09-05 01:48:59 | 48.22349 | 17.93697 | 106° | 73km/h | 15598m | -8.9m/s | -58.5°C | 6.1% | 0hPa | 2.5V | 00:00:00 | 00:00:00 | 00:00:00 | |
| ATIDSZ-14 | 2026-09-05 01:48:58 | 48.22349 | 17.93698 | 107° | 75km/h | 15598m | -9.0m/s | -58.6°C | 2.4% | 0hPa | 2.5V | 08:10:00 | 00:00:00 | 00:00:00 | |
| HA6NAB-11 | 2026-09-05 01:48:56 | 48.22359 | 17.93643 | 106° | 71km/h | 15616m | -8.8m/s | -58.3°C | 2.3% | 0hPa | 2.5V | 08:10:00 | 00:00:00 | 00:00:00 | |
| OE3MUC-15 | 2026-09-05 01:48:55 | 48.22370 | 17.93591 | 107° | 69km/h | 15633m | -8.8m/s | -57.6°C | 5.6% | 0hPa | 2.5V | 00:00:00 | 00:00:00 | 00:00:00 | |
| OM5KV | 2026-09-05 01:48:54 | 48.22370 | 17.93591 | 107° | 71km/h | 15633m | -8.9m/s | -57.6°C | 2.2% | 0hPa | 2.5V | 08:10:00 | 00:00:00 | 00:00:00 | |
| OM5KV | 2026-09-05 01:48:53 | 48.22375 | 17.93565 | 110° | 69km/h | 15642m | -8.8m/s | -57.4°C | 2.2% | 0hPa | 2.5V | 08:11:00 | 00:00:00 | 00:00:00 | |
| PETON7-10 | 2026-09-05 01:48:52 | 48.22387 | 17.93515 | 109° | 58km/h | 15659m | -9.0m/s | -57.4°C | 5.5% | 0hPa | 2.5V | 00:00:00 | 02:26:09 | 00:00:00 | |
| OE3MUC-15 | 2026-09-05 01:48:50 | 48.22398 | 17.93466 | 108° | 62km/h | 15676m | -8.6m/s | -57.1°C | 5.4% | 0hPa | 2.5V | 00:00:00 | 00:00:00 | 00:00:00 | |
| DO3MHA-11 | 2026-09-05 01:48:49 | 48.22403 | 17.93443 | 113° | 57km/h | 15684m | -8.5m/s | -56.7°C | 5.3% | 0hPa | 2.2V | 00:00:00 | 02:26:06 | 00:00:00 | |
| OM5KV | 2026-09-05 01:48:48 | 48.22404 | 17.93443 | 114° | 64km/h | 15684m | -8.6m/s | -56.8°C | 2.1% | 0hPa | 2.2V | 08:11:00 | 00:00:00 | 00:00:00 | |
| OE5DRO-10 | 2026-09-05 01:48:47 | 48.22414 | 17.93399 | 111° | 49km/h | 15701m | -8.4m/s | -56.5°C | 5.1% | 0hPa | 2.2V | 00:00:00 | 00:00:00 | 00:00:00 | |
| OE3MUC-15 | 2026-09-05 01:48:46 | 48.22420 | 17.93377 | 111° | 58km/h | 15710m | -8.9m/s | -56.6°C | 5.2% | 0hPa | 2.5V | 00:00:00 | 00:00:00 | 00:00:00 | |
| HA6NAB-11 | 2026-09-05 01:48:45 | 48.22420 | 17.93377 | 112° | 62km/h | 15710m | -8.9m/s | -56.6°C | 2.0% | 0hPa | 2.5V | 00:00:00 | 00:00:00 | 00:00:00 | |
| PG1ADW-2 | 2026-09-05 01:48:44 | 48.22430 | 17.93336 | 114° | 46km/h | 15727m | -9.1m/s | -56.5°C | 5.1% | 0hPa | 2.5V | 00:00:00 | 00:00:00 | 00:00:00 | |
| DO3MHA-12 | 2026-09-05 01:48:43 | 48.22436 | 17.93317 | 110° | 47km/h | 15736m | -9.0m/s | -56.4°C | 5.0% | 0hPa | 2.2V | 00:00:00 | 02:26:00 | 00:00:00 | |
| OE3MUC-15 | 2026-09-05 01:48:42 | 48.22440 | 17.93298 | 112° | 51km/h | 15744m | -8.6m/s | -56.5°C | 5.1% | 0hPa | 2.2V | 00:00:00 | 00:00:00 | 00:00:00 | |
| OM5KV | 2026-09-05 01:48:41 | 48.22440 | 17.93298 | 113° | 51km/h | 15744m | -8.6m/s | -56.5°C | 2.0% | 0hPa | 2.2V | 08:11:00 | 00:00:00 | 00:00:00 | |
| DO3MHA-11 | 2026-09-05 01:48:39 | 48.22456 | 17.93244 | 116° | 44km/h | 15770m | -9.0m/s | -56.6°C | 5.1% | 0hPa | 2.2V | 00:00:00 | 02:25:56 | 00:00:00 | |
| OE3MUC-15 | 2026-09-05 01:48:38 | 48.22460 | 17.93227 | 111° | 46km/h | 15779m | -8.6m/s | -56.5°C | 5.1% | 0hPa | 2.5V | 00:00:00 | 00:00:00 | 00:00:00 | |
| PETON7-10 | 2026-09-05 01:48:37 | 48.22465 | 17.93211 | 117° | 40km/h | 15788m | -8.6m/s | -56.3°C | 5.0% | 0hPa | 2.5V | 08:10:00 | 00:00:00 | 00:00:00 | |
| OE3MUC-15 | 2026-09-05 01:48:34 | 48.22478 | 17.93164 | 111° | 42km/h | 15814m | -9.2m/s | -56.1°C | 4.9% | 0hPa | 2.2V | 00:00:00 | 00:00:00 | 00:00:00 | |
| DO3MHA-12 | 2026-09-05 01:48:33 | 48.22482 | 17.93148 | 109° | 40km/h | 15822m | -8.9m/s | -56.0°C | 4.9% | 0hPa | 2.2V | 08:10:00 | 02:25:50 | 00:00:00 | |
| OE5DXL-15 | 2026-09-05 01:48:31 | 48.22488 | 17.93119 | 106° | 35km/h | 15839m | -8.1m/s | -56.1°C | 4.9% | 0hPa | 2.2V | 00:00:00 | 00:00:00 | 00:00:00 | |
| OM5KV | 2026-09-05 01:48:30 | 48.22488 | 17.93119 | 106° | 40km/h | 15839m | -8.1m/s | -56.1°C | 2.0% | 0hPa | 2.2V | 08:11:00 | 00:00:00 | 00:00:00 | |
| DO3MHA-11 | 2026-09-05 01:48:29 | 48.22495 | 17.93090 | 106° | 37km/h | 15855m | -8.2m/s | -56.1°C | 4.8% | 0hPa | 2.2V | 00:00:00 | 02:25:46 | 00:00:00 | |
| OE5DRO-10 | 2026-09-05 01:48:28 | 48.22498 | 17.93076 | 111° | 35km/h | 15864m | -9.1m/s | -56.1°C | 4.8% | 0hPa | 2.2V | 00:00:00 | 00:00:00 | 00:00:00 | |
| OE3MUC-15 | 2026-09-05 01:48:26 | 48.22503 | 17.93048 | 107° | 38km/h | 15881m | -9.4m/s | -56.1°C | 4.8% | 0hPa | 2.2V | 08:11:00 | 00:00:00 | 00:00:00 | |
| OM5KV | 2026-09-05 01:48:25 | 48.22503 | 17.93048 | 107° | 37km/h | 15881m | -9.4m/s | -56.1°C | 1.9% | 0hPa | 2.2V | 08:11:00 | 00:00:00 | 00:00:00 | |
| PG1ADW-2 | 2026-09-05 01:48:24 | 48.22508 | 17.93021 | 99° | 33km/h | 15899m | -8.7m/s | -56.2°C | 4.9% | 0hPa | 2.2V | 00:00:00 | 00:00:00 | 00:00:00 | |
| DO3MHA-12 | 2026-09-05 01:48:23 | 48.22510 | 17.93007 | 106° | 33km/h | 15908m | -8.7m/s | -56.3°C | 4.9% | 0hPa | 2.2V | 00:00:00 | 02:25:40 | 00:00:00 | |
| PETON7-10 | 2026-09-05 01:48:22 | 48.22512 | 17.92994 | 98° | 33km/h | 15917m | -8.7m/s | -56.4°C | 4.9% | 0hPa | 2.2V | 00:00:00 | 00:00:00 | 00:00:00 | |
| POL2MAQ | 2026-09-05 01:48:21 | 48.22512 | 17.92994 | 98° | 35km/h | 15917m | -8.8m/s | -56.4°C | 2.0% | 0hPa | 2.2V | 08:11:00 | 00:00:00 | 00:00:00 | |
| OM5KV | 2026-09-05 01:48:20 | 48.22513 | 17.92981 | 105° | 35km/h | 15926m | -9.1m/s | -56.5°C | 2.0% | 0hPa | 2.2V | 08:11:00 | 00:00:00 | 00:00:00 | |
| DO3MHA-11 | 2026-09-05 01:48:19 | 48.22516 | 17.92957 | 102° | 31km/h | 15944m | -8.8m/s | -56.6°C | 5.1% | 0hPa | 2.2V | 00:00:00 | 02:25:36 | 00:00:00 | |
| OE3MUC-15 | 2026-09-05 01:48:18 | 48.22517 | 17.92945 | 95° | 31km/h | 15953m | -8.5m/s | -56.7°C | 5.1% | 0hPa | 2.2V | 00:00:00 | 00:00:00 | 00:00:00 | |
| ATIDSZ-14 | 2026-09-05 01:48:17 | 48.22517 | 17.92945 | 95° | 33km/h | 15953m | -8.5m/s | -56.7°C | 2.0% | 0hPa | 2.2V | 08:11:00 | 00:00:00 | 00:00:00 | |
| OE3MUC-15 | 2026-09-05 01:48:14 | 48.22520 | 17.92900 | 94° | 33km/h | 15986m | -8.6m/s | -57.0°C | 5.2% | 0hPa | 2.2V | 00:00:00 | 00:00:00 | 00:00:00 | |
| DO3MHA-12 | 2026-09-05 01:48:13 | 48.22521 | 17.92888 | 100° | 35km/h | 15995m | -8.2m/s | -57.0°C | 5.2% | 0hPa | 2.2V | 00:00:00 | 02:25:30 | 00:00:00 | |
| OE3MUC-15 | 2026-09-05 01:48:10 | 48.22524 | 17.92851 | 94° | 35km/h | 16019m | -8.2m/s | -57.1°C | 5.2% | 0hPa | 2.2V | 00:00:00 | 00:00:00 | 00:00:00 | |
| DO3MHA-11 | 2026-09-05 01:48:09 | 48.22525 | 17.92839 | 98° | 38km/h | 16027m | -8.4m/s | -57.1°C | 5.2% | 0hPa | 2.2V | 08:11:00 | 02:25:26 | 00:00:00 | |
| OM5KV | 2026-09-05 01:48:08 | 48.22525 | 17.92839 | 98° | 33km/h | 16027m | -8.4m/s | -57.2°C | 2.1% | 0hPa | 2.2V | 08:11:00 | 00:00:00 | 00:00:00 | |
| PETON7-10 | 2026-09-05 01:48:07 | 48.22526 | 17.92813 | 97° | 40km/h | 16044m | -8.6m/s | -57.2°C | 5.2% | 0hPa | 2.2V | 00:00:00 | 02:25:24 | 00:00:00 | |
| OE3MUC-15 | 2026-09-05 01:48:06 | 48.22527 | 17.92800 | 95° | 38km/h | 16052m | -8.5m/s | -57.2°C | 5.2% | 0hPa | 2.2V | 00:00:00 | 00:00:00 | 00:00:00 | |
| PG1ADW-2 | 2026-09-05 01:48:04 | 48.22529 | 17.92772 | 94° | 42km/h | 16069m | -8.2m/s | -57.3°C | 5.2% | 0hPa | 2.2V | 00:00:00 | 02:25:21 | 00:00:00 | |
| DO3MHA-12 | 2026-09-05 01:48:03 | 48.22530 | 17.92758 | 98° | 42km/h | 16077m | -8.5m/s | -57.2°C | 5.2% | 0hPa | 2.2V | 00:00:00 | 02:25:20 | 00:00:00 | |
| OE3MUC-15 | 2026-09-05 01:48:02 | 48.22531 | 17.92743 | 95° | 40km/h | 16086m | -8.5m/s | -57.1°C | 5.2% | 0hPa | 2.2V | 00:00:00 | 00:00:00 | 00:00:00 | |
| OE5DXL-15 | 2026-09-05 01:48:01 | 48.22532 | 17.92728 | 96° | 44km/h | 16094m | -8.7m/s | -57.0°C | 5.1% | 0hPa | 2.2V | 00:00:00 | 00:00:00 | 00:00:00 | |
| POL2MAQ | 2026-09-05 01:48:00 | 48.22532 | 17.92727 | 97° | 38km/h | 16094m | -8.7m/s | -57.1°C | 2.0% | 0hPa | 2.5V | 08:12:00 | 00:00:00 | 00:00:00 | |
| DO3MHA-11 | 2026-09-05 01:47:59 | 48.22534 | 17.92697 | 96° | 42km/h | 16111m | -8.5m/s | -57.0°C | 5.1% | 0hPa | 2.5V | 00:00:00 | 02:25:16 | 00:00:00 | |
| OE3MUC-15 | 2026-09-05 01:47:58 | 48.22535 | 17.92681 | 94° | 42km/h | 16120m | -8.2m/s | -57.0°C | 5.0% | 0hPa | 2.5V | 00:00:00 | 00:00:00 | 00:00:00 | |
| OM5KV | 2026-09-05 01:47:57 | 48.22535 | 17.92681 | 94° | 44km/h | 16120m | -8.2m/s | -57.0°C | 2.0% | 0hPa | 2.5V | 08:12:00 | 00:00:00 | 00:00:00 | |
| OM5KV | 2026-09-05 01:47:56 | 48.22536 | 17.92665 | 97° | 40km/h | 16128m | -8.1m/s | -57.0°C | 2.0% | 0hPa | 2.5V | 08:12:00 | 00:00:00 | 00:00:00 | |
| S52SK | 2026-09-05 01:47:55 | 48.22537 | 17.92649 | 94° | 44km/h | 16137m | -8.4m/s | -57.1°C | 2.0% | 0hPa | 2.5V | 00:00:00 | 00:00:00 | 00:00:00 | |
| OE3MUC-15 | 2026-09-05 01:47:54 | 48.22539 | 17.92616 | 93° | 42km/h | 16153m | -8.9m/s | -57.0°C | 5.0% | 0hPa | 2.5V | 00:00:00 | 00:00:00 | 00:00:00 | |
| DO3MHA-12 | 2026-09-05 01:47:53 | 48.22540 | 17.92600 | 97° | 44km/h | 16162m | -8.7m/s | -57.0°C | 5.0% | 0hPa | 2.5V | 00:00:00 | 02:25:10 | 00:00:00 | |
| PETON7-10 | 2026-09-05 01:47:52 | 48.22540 | 17.92584 | 92° | 44km/h | 16170m | -8.5m/s | -57.1°C | 5.1% | 0hPa | 2.5V | 00:00:00 | 00:00:00 | 00:00:00 | |
| OM5KV | 2026-09-05 01:47:51 | 48.22540 | 17.92584 | 92° | 44km/h | 16170m | -8.6m/s | -57.2°C | 2.0% | 0hPa | 2.5V | 08:12:00 | 00:00:00 | 00:00:00 | |
| OE3MUC-15 | 2026-09-05 01:47:50 | 48.22542 | 17.92551 | 91° | 44km/h | 16186m | -8.2m/s | -57.3°C | 5.0% | 0hPa | 2.5V | 08:11:00 | 00:00:00 | 00:00:00 | |
| DO3MHA-11 | 2026-09-05 01:47:49 | 48.22542 | 17.92535 | 95° | 44km/h | 16194m | -8.3m/s | -57.3°C | 5.1% | 0hPa | 2.5V | 00:00:00 | 02:25:06 | 00:00:00 | |
| OE3MUC-15 | 2026-09-05 01:47:46 | 48.22543 | 17.92486 | 88° | 44km/h | 16220m | -9.3m/s | -57.6°C | 5.1% | 0hPa | 2.5V | 00:00:00 | 00:00:00 | 00:00:00 | |
| PG1ADW-2 | 2026-09-05 01:47:44 | 48.22544 | 17.92453 | 87° | 47km/h | 16237m | -8.8m/s | -57.7°C | 5.2% | 0hPa | 2.5V | 08:11:00 | 00:00:00 | 00:00:00 | |
| DO3MHA-12 | 2026-09-05 01:47:43 | 48.22544 | 17.92436 | 93° | 46km/h | 16246m | -9.0m/s | -57.8°C | 5.2% | 0hPa | 2.2V | 00:00:00 | 02:25:00 | 00:00:00 | |
| GYPAP8-17 | 2026-09-05 01:47:42 | 48.22544 | 17.92436 | 94° | 46km/h | 16246m | -9.0m/s | -57.9°C | 2.0% | 0hPa | 2.2V | 00:00:00 | 00:00:00 | 00:00:00 | |
| POL2MAQ | 2026-09-05 01:47:40 | 48.22544 | 17.92403 | 92° | 47km/h | 16264m | -9.3m/s | -58.0°C | 2.0% | 0hPa | 2.2V | 08:12:00 | 00:00:00 | 00:00:00 | |
| DO3MHA-11 | 2026-09-05 01:47:39 | 48.22543 | 17.92369 | 89° | 46km/h | 16283m | -9.1m/s | -58.1°C | 5.2% | 0hPa | 2.2V | 00:00:00 | 02:24:56 | 00:00:00 | |
| PETON7-10 | 2026-09-05 01:47:37 | 48.22542 | 17.92334 | 88° | 47km/h | 16300m | -8.3m/s | -58.3°C | 5.3% | 0hPa | 2.2V | 00:00:00 | 00:00:00 | 00:00:00 | |
| ATIDSZ-14 | 2026-09-05 01:47:36 | 48.22542 | 17.92334 | 88° | 47km/h | 16300m | -8.4m/s | -58.3°C | 2.1% | 0hPa | 2.2V | 08:12:00 | 00:00:00 | 00:00:00 | |
| HA6NAB-11 | 2026-09-05 01:47:35 | 48.22541 | 17.92317 | 85° | 44km/h | 16308m | -8.2m/s | -58.4°C | 2.1% | 0hPa | 2.2V | 08:12:00 | 00:00:00 | 00:00:00 | |
| DO3MHA-12 | 2026-09-05 01:47:33 | 48.22538 | 17.92265 | 84° | 49km/h | 16332m | -8.7m/s | -58.6°C | 5.4% | 0hPa | 2.2V | 00:00:00 | 02:24:50 | 00:00:00 | |
| OE5DXL-15 | 2026-09-05 01:47:31 | 48.22536 | 17.92230 | 81° | 49km/h | 16349m | -9.1m/s | -58.7°C | 5.5% | 0hPa | 2.2V | 00:00:00 | 00:00:00 | 00:00:00 | |
| DO3MHA-11 | 2026-09-05 01:47:29 | 48.22533 | 17.92194 | 79° | 49km/h | 16367m | -8.8m/s | -58.8°C | 5.5% | 0hPa | 2.2V | 00:00:00 | 02:24:46 | 00:00:00 | |
| OM5KV | 2026-09-05 01:47:28 | 48.22533 | 17.92194 | 80° | 47km/h | 16367m | -8.8m/s | -58.8°C | 2.1% | 0hPa | 2.2V | 08:12:00 | 00:00:00 | 00:00:00 | |
| OE3OSB-13 | 2026-09-05 01:47:27 | 48.22529 | 17.92158 | 76° | 47km/h | 16384m | -9.1m/s | -59.0°C | 1.9% | -1.0hPa | 2.2V | 00:00:00 | 00:00:00 | 00:00:00 | |
| PG1ADW-2 | 2026-09-05 01:47:24 | 48.22523 | 17.92101 | 83° | 49km/h | 16411m | -8.9m/s | -59.0°C | 5.5% | 0hPa | 2.2V | 00:00:00 | 00:00:00 | 00:00:00 | |
| DO3MHA-12 | 2026-09-05 01:47:23 | 48.22521 | 17.92083 | 81° | 49km/h | 16420m | -8.3m/s | -59.0°C | 5.6% | 0hPa | 2.2V | 00:00:00 | 02:24:40 | 00:00:00 | |
| PETON7-10 | 2026-09-05 01:47:22 | 48.22519 | 17.92064 | 82° | 49km/h | 16428m | -8.4m/s | -59.1°C | 5.6% | 0hPa | 2.2V | 00:00:00 | 02:24:39 | 00:00:00 | |
| POL2MAQ | 2026-09-05 01:47:20 | 48.22518 | 17.92046 | 85° | 47km/h | 16436m | -8.7m/s | -59.2°C | 2.1% | 0hPa | 2.2V | 08:12:00 | 00:00:00 | 00:00:00 | |
| DO3MHA-11 | 2026-09-05 01:47:19 | 48.22515 | 17.92009 | 86° | 49km/h | 16453m | -9.5m/s | -59.3°C | 5.7% | 0hPa | 2.2V | 00:00:00 | 02:24:36 | 00:00:00 | |
| OE3MUC-15 | 2026-09-05 01:47:18 | 48.22513 | 17.91991 | 80° | 49km/h | 16462m | -9.6m/s | -59.3°C | 5.7% | 0hPa | 2.2V | 00:00:00 | 00:00:00 | 00:00:00 | |
| OM5KV | 2026-09-05 01:47:17 | 48.22513 | 17.91991 | 80° | 49km/h | 16462m | -9.6m/s | -59.3°C | 2.1% | 0hPa | 2.2V | 08:12:00 | 00:00:00 | 00:00:00 | |
| ATIDSZ-14 | 2026-09-05 01:47:16 | 48.22512 | 17.91973 | 88° | 49km/h | 16471m | -9.3m/s | -59.2°C | 2.1% | 0hPa | 2.2V | 08:12:00 | 00:00:00 | 00:00:00 | |
| OE3MUC-15 | 2026-09-05 01:47:14 | 48.22508 | 17.91917 | 85° | 49km/h | 16498m | -8.3m/s | -58.9°C | 5.5% | 0hPa | 2.2V | 08:12:00 | 00:00:00 | 00:00:00 | |
| DO3MHA-12 | 2026-09-05 01:47:13 | 48.22507 | 17.91898 | 87° | 51km/h | 16506m | -8.8m/s | -58.8°C | 5.4% | 0hPa | 2.5V | 00:00:00 | 02:24:30 | 00:00:00 | |
| OE5DRO-10 | 2026-09-05 01:47:12 | 48.22507 | 17.91879 | 90° | 51km/h | 16515m | -9.2m/s | -58.7°C | 5.4% | 0hPa | 2.5V | 00:00:00 | 00:00:00 | 00:00:00 | |
| OE3MUC-15 | 2026-09-05 01:47:10 | 48.22506 | 17.91840 | 94° | 49km/h | 16532m | -9.2m/s | -58.4°C | 5.2% | 0hPa | 2.5V | 00:00:00 | 00:00:00 | 00:00:00 | |
| DO3MHA-11 | 2026-09-05 01:47:09 | 48.22506 | 17.91821 | 88° | 51km/h | 16541m | -9.0m/s | -58.4°C | 5.2% | 0hPa | 2.5V | 00:00:00 | 02:24:26 | 00:00:00 | |
| PETON7-10 | 2026-09-05 01:47:07 | 48.22507 | 17.91784 | 89° | 53km/h | 16558m | -8.6m/s | -58.5°C | 5.1% | 0hPa | 2.2V | 00:00:00 | 00:00:00 | 00:00:00 | |
| OE3MUC-15 | 2026-09-05 01:47:06 | 48.22507 | 17.91765 | 91° | 51km/h | 16566m | -8.9m/s | -58.6°C | 5.2% | 0hPa | 2.5V | 00:00:00 | 00:00:00 | 00:00:00 | |
| OM5KV | 2026-09-05 01:47:05 | 48.22507 | 17.91765 | 92° | 53km/h | 16566m | -9.0m/s | -58.6°C | 1.9% | 0hPa | 2.5V | 08:13:00 | 00:00:00 | 00:00:00 | |
| PG1ADW-2 | 2026-09-05 01:47:04 | 48.22507 | 17.91727 | 88° | 55km/h | 16584m | -9.0m/s | -58.7°C | 5.2% | 0hPa | 2.5V | 00:00:00 | 00:00:00 | 00:00:00 | |
| DO3MHA-12 | 2026-09-05 01:47:03 | 48.22507 | 17.91708 | 93° | 53km/h | 16592m | -9.2m/s | -58.7°C | 5.2% | 0hPa | 2.5V | 08:12:00 | 02:24:20 | 00:00:00 | |
| OE3MUC-15 | 2026-09-05 01:47:02 | 48.22507 | 17.91689 | 86° | 53km/h | 16600m | -8.9m/s | -58.8°C | 5.2% | 0hPa | 2.5V | 00:00:00 | 00:00:00 | 00:00:00 | |
| OE3OSB-13 | 2026-09-05 01:46:57 | 48.22504 | 17.91568 | 90° | 53km/h | 16652m | -9.2m/s | -59.2°C | 1.8% | -1.0hPa | 2.2V | 00:00:00 | 00:00:00 | 00:00:00 | |
| ATIDSZ-14 | 2026-09-05 01:46:55 | 48.22504 | 17.91568 | 92° | 55km/h | 16653m | -9.2m/s | -59.2°C | 2.0% | 0hPa | 2.2V | 08:13:00 | 00:00:00 | 00:00:00 | |
| OM5KV | 2026-09-05 01:46:54 | 48.22503 | 17.91547 | 87° | 55km/h | 16661m | -8.8m/s | -59.3°C | 2.0% | 0hPa | 2.2V | 08:13:00 | 00:00:00 | 00:00:00 | |
| DO3MHA-12 | 2026-09-05 01:46:53 | 48.22503 | 17.91505 | 88° | 55km/h | 16678m | -9.0m/s | -59.2°C | 5.5% | 0hPa | 2.2V | 00:00:00 | 02:24:10 | 00:00:00 | |
| PETON7-10 | 2026-09-05 01:46:52 | 48.22503 | 17.91484 | 93° | 55km/h | 16687m | -8.9m/s | -59.3°C | 5.4% | 0hPa | 2.2V | 00:00:00 | 00:00:00 | 00:00:00 | |
| OE3MUC-15 | 2026-09-05 01:46:51 | 48.22504 | 17.91464 | 92° | 53km/h | 16696m | -8.7m/s | -59.3°C | 5.5% | 0hPa | 2.2V | 00:00:00 | 00:00:00 | 00:00:00 | |
| DO3MHA-11 | 2026-09-05 01:46:49 | 48.22505 | 17.91422 | 95° | 55km/h | 16712m | -8.8m/s | -59.4°C | 5.5% | 0hPa | 2.2V | 00:00:00 | 02:24:06 | 00:00:00 | |
| S52SK | 2026-09-05 01:46:48 | 48.22506 | 17.91422 | 96° | 53km/h | 16712m | -8.8m/s | -59.4°C | 1.9% | 0hPa | 2.2V | 00:00:00 | 00:00:00 | 00:00:00 | |
| GYPAP8-17 | 2026-09-05 01:46:47 | 48.22507 | 17.91402 | 94° | 57km/h | 16721m | -8.5m/s | -59.4°C | 1.9% | 0hPa | 2.2V | 00:00:00 | 00:00:00 | 00:00:00 | |
| OE3MUC-15 | 2026-09-05 01:46:46 | 48.22510 | 17.91360 | 94° | 55km/h | 16738m | -8.8m/s | -59.4°C | 5.6% | 0hPa | 2.2V | 00:00:00 | 00:00:00 | 00:00:00 | |
| PG1ADW-2 | 2026-09-05 01:46:44 | 48.22513 | 17.91320 | 96° | 55km/h | 16755m | -9.0m/s | -59.3°C | 5.6% | 0hPa | 2.2V | 00:00:00 | 02:24:01 | 00:00:00 | |
| DO3MHA-12 | 2026-09-05 01:46:43 | 48.22515 | 17.91300 | 101° | 55km/h | 16763m | -9.1m/s | -59.3°C | 5.6% | 0hPa | 2.2V | 00:00:00 | 02:24:00 | 00:00:00 | |
| OE3MUC-15 | 2026-09-05 01:46:42 | 48.22517 | 17.91280 | 101° | 53km/h | 16772m | -8.7m/s | -59.3°C | 5.7% | 0hPa | 2.2V | 00:00:00 | 00:00:00 | 00:00:00 | |
| OM5KV | 2026-09-05 01:46:41 | 48.22517 | 17.91280 | 101° | 51km/h | 16772m | -8.7m/s | -59.4°C | 1.9% | 0hPa | 2.2V | 08:13:00 | 00:00:00 | 00:00:00 | |
| DO3MHA-11 | 2026-09-05 01:46:39 | 48.22525 | 17.91221 | 98° | 55km/h | 16797m | -9.0m/s | -58.9°C | 5.5% | 0hPa | 2.2V | 08:12:00 | 02:23:56 | 00:00:00 | |
| OE3MUC-15 | 2026-09-05 01:46:38 | 48.22527 | 17.91201 | 103° | 55km/h | 16806m | -9.1m/s | -58.5°C | 5.3% | 0hPa | 2.5V | 00:00:00 | 00:00:00 | 00:00:00 | |
| PETON7-10 | 2026-09-05 01:46:37 | 48.22530 | 17.91181 | 102° | 57km/h | 16815m | -8.9m/s | -58.5°C | 5.3% | 0hPa | 2.5V | 00:00:00 | 02:23:54 | 00:00:00 | |
| OM5KV | 2026-09-05 01:46:36 | 48.22530 | 17.91181 | 102° | 53km/h | 16815m | -8.9m/s | -58.5°C | 1.8% | 0hPa | 2.5V | 08:13:00 | 00:00:00 | 00:00:00 | |
| OM5KV | 2026-09-05 01:46:35 | 48.22532 | 17.91161 | 100° | 55km/h | 16824m | -9.2m/s | -58.5°C | 1.8% | 0hPa | 2.5V | 08:13:00 | 00:00:00 | 00:00:00 | |
| OE3MUC-15 | 2026-09-05 01:46:34 | 48.22537 | 17.91119 | 98° | 57km/h | 16841m | -9.1m/s | -58.3°C | 5.2% | 0hPa | 2.5V | 08:12:00 | 00:00:00 | 00:00:00 | |
| DO3MHA-12 | 2026-09-05 01:46:33 | 48.22539 | 17.91098 | 101° | 57km/h | 16850m | -8.6m/s | -58.3°C | 5.3% | 0hPa | 2.5V | 00:00:00 | 02:23:50 | 00:00:00 | |
| OM5KV | 2026-09-05 01:46:32 | 48.22540 | 17.91097 | 102° | 60km/h | 16850m | -8.7m/s | -58.4°C | 1.8% | 0hPa | 2.2V | 08:13:00 | 00:00:00 | 00:00:00 | |
| OE5DXL-15 | 2026-09-05 01:46:31 | 48.22544 | 17.91055 | 99° | 55km/h | 16868m | -8.9m/s | -58.3°C | 5.3% | 0hPa | 2.2V | 08:12:00 | 00:00:00 | 00:00:00 | |
| OE3MUC-15 | 2026-09-05 01:46:30 | 48.22547 | 17.91033 | 102° | 57km/h | 16876m | -9.4m/s | -58.3°C | 5.3% | 0hPa | 2.2V | 00:00:00 | 00:00:00 | 00:00:00 | |
| DO3MHA-11 | 2026-09-05 01:46:29 | 48.22549 | 17.91012 | 98° | 55km/h | 16885m | -9.3m/s | -58.3°C | 5.3% | 0hPa | 2.2V | 00:00:00 | 02:23:46 | 00:00:00 | |
| OE3MUC-15 | 2026-09-05 01:46:26 | 48.22556 | 17.90950 | 99° | 57km/h | 16912m | -8.9m/s | -58.2°C | 5.3% | 0hPa | 2.2V | 00:00:00 | 00:00:00 | 00:00:00 | |
| OE3OSB-13 | 2026-09-05 01:46:25 | 48.22558 | 17.90929 | 98° | 53km/h | 16920m | -8.7m/s | -58.0°C | 1.6% | -1.0hPa | 2.2V | 00:00:00 | 00:00:00 | 00:00:00 | |
| PG1ADW-2 | 2026-09-05 01:46:24 | 48.22560 | 17.90908 | 96° | 53km/h | 16930m | -9.1m/s | -57.8°C | 5.1% | 0hPa | 2.2V | 00:00:00 | 00:00:00 | 00:00:00 | |
| DO3MHA-12 | 2026-09-05 01:46:23 | 48.22561 | 17.90887 | 101° | 55km/h | 16938m | -9.6m/s | -57.4°C | 5.0% | 0hPa | 2.2V | 00:00:00 | 02:23:40 | 00:00:00 | |
| PETON7-10 | 2026-09-05 01:46:22 | 48.22563 | 17.90867 | 95° | 53km/h | 16947m | -9.8m/s | -57.0°C | 4.7% | 0hPa | 2.2V | 08:13:00 | 00:00:00 | 00:00:00 | |
| DO3MHA-11 | 2026-09-05 01:46:19 | 48.22567 | 17.90805 | 98° | 53km/h | 16974m | -9.1m/s | -56.4°C | 4.5% | 0hPa | 2.2V | 00:00:00 | 02:23:36 | 00:00:00 | |
| OE3MUC-15 | 2026-09-05 01:46:18 | 48.22569 | 17.90785 | 96° | 53km/h | 16983m | -9.1m/s | -56.4°C | 4.5% | 0hPa | 2.2V | 00:00:00 | 00:00:00 | 00:00:00 | |
| OM5KV | 2026-09-05 01:46:17 | 48.22569 | 17.90785 | 97° | 53km/h | 16983m | -9.1m/s | -56.5°C | 1.5% | 0hPa | 2.2V | 08:13:00 | 00:00:00 | 00:00:00 | |
| OE5DRO-10 | 2026-09-05 01:46:15 | 48.22572 | 17.90724 | 91° | 53km/h | 17011m | -10.0m/s | -56.6°C | 4.5% | 0hPa | 2.2V | 00:00:00 | 00:00:00 | 00:00:00 | |
| OE3MUC-15 | 2026-09-05 01:46:14 | 48.22573 | 17.90704 | 96° | 53km/h | 17020m | -9.7m/s | -56.6°C | 4.5% | 0hPa | 2.2V | 00:00:00 | 00:00:00 | 00:00:00 | |
| DO3MHA-12 | 2026-09-05 01:46:13 | 48.22574 | 17.90684 | 90° | 51km/h | 17029m | -9.3m/s | -56.6°C | 4.6% | 0hPa | 2.2V | 00:00:00 | 02:23:30 | 00:00:00 | |
| OM5KV | 2026-09-05 01:46:12 | 48.22574 | 17.90684 | 91° | 51km/h | 17029m | -9.4m/s | -56.7°C | 1.5% | 0hPa | 2.2V | 08:13:00 | 00:00:00 | 00:00:00 | |
| OM5KV | 2026-09-05 01:46:11 | 48.22574 | 17.90663 | 94° | 55km/h | 17038m | -9.2m/s | -56.7°C | 1.5% | 0hPa | 2.2V | 08:13:00 | 00:00:00 | 00:00:00 | |
| OE3MUC-15 | 2026-09-05 01:46:10 | 48.22575 | 17.90623 | 91° | 53km/h | 17057m | -9.4m/s | -56.6°C | 4.6% | 0hPa | 2.2V | 00:00:00 | 00:00:00 | 00:00:00 | |
| HA6NAB-11 | 2026-09-05 01:46:09 | 48.22575 | 17.90623 | 92° | 55km/h | 17057m | -9.5m/s | -56.7°C | 1.5% | 0hPa | 2.5V | 00:00:00 | 00:00:00 | 00:00:00 | |
| PETON7-10 | 2026-09-05 01:46:07 | 48.22576 | 17.90563 | 94° | 53km/h | 17084m | -9.8m/s | -56.4°C | 4.4% | 0hPa | 2.5V | 00:00:00 | 00:00:00 | 00:00:00 | |
| DO3MHA-11 | 2026-09-05 01:46:06 | 48.22576 | 17.90543 | 88° | 51km/h | 17093m | -9.6m/s | -56.4°C | 4.5% | 0hPa | 2.5V | 00:00:00 | 02:23:23 | 00:00:00 | |
| PG1ADW-2 | 2026-09-05 01:46:05 | 48.22577 | 17.90484 | 91° | 55km/h | 17122m | -9.6m/s | -56.4°C | 4.4% | 0hPa | 2.2V | 00:00:00 | 00:00:00 | 00:00:00 | |
| DO3MHA-12 | 2026-09-05 01:46:03 | 48.22577 | 17.90484 | 91° | 37km/h | 17122m | -9.6m/s | -56.4°C | 4.4% | 0hPa | 2.2V | 00:00:00 | 02:23:20 | 00:00:00 | |
| OE3MUC-15 | 2026-09-05 01:46:02 | 48.22577 | 17.90464 | 92° | 51km/h | 17131m | -9.6m/s | -56.5°C | 4.4% | 0hPa | 2.5V | 00:00:00 | 00:00:00 | 00:00:00 | |
| OE3OSB-13 | 2026-09-05 01:45:55 | 48.22585 | 17.90306 | 95° | 53km/h | 17206m | -9.6m/s | -57.0°C | 1.3% | -1.0hPa | 2.5V | 00:00:00 | 00:00:00 | 00:00:00 | |
| OE3MUC-15 | 2026-09-05 01:45:54 | 48.22585 | 17.90306 | 96° | 57km/h | 17206m | -9.6m/s | -56.9°C | 4.5% | 0hPa | 2.5V | 00:00:00 | 00:00:00 | 00:00:00 | |
| ATIDSZ-14 | 2026-09-05 01:45:53 | 48.22584 | 17.90306 | 96° | 53km/h | 17206m | -9.6m/s | -57.0°C | 1.4% | 0hPa | 2.5V | 08:13:00 | 00:00:00 | 00:00:00 | |
| PETON7-10 | 2026-09-05 01:45:52 | 48.22589 | 17.90264 | 103° | 58km/h | 17224m | -8.7m/s | -57.0°C | 4.6% | 0hPa | 2.5V | 00:00:00 | 02:23:09 | 00:00:00 | |
| OE3MUC-15 | 2026-09-05 01:45:50 | 48.22595 | 17.90223 | 104° | 55km/h | 17241m | -8.9m/s | -57.1°C | 4.6% | 0hPa | 2.5V | 00:00:00 | 00:00:00 | 00:00:00 | |
| S52SK | 2026-09-05 01:45:48 | 48.22598 | 17.90202 | 101° | 55km/h | 17250m | -9.6m/s | -57.2°C | 1.5% | 0hPa | 2.5V | 00:00:00 | 00:00:00 | 00:00:00 | |
| OM5KV | 2026-09-05 01:45:47 | 48.22602 | 17.90182 | 108° | 57km/h | 17259m | -9.7m/s | -57.2°C | 1.5% | 0hPa | 2.5V | 08:13:00 | 00:00:00 | 00:00:00 | |
| OE3MUC-15 | 2026-09-05 01:45:46 | 48.22609 | 17.90141 | 107° | 58km/h | 17277m | -9.1m/s | -57.2°C | 4.7% | 0hPa | 2.5V | 00:00:00 | 00:00:00 | 00:00:00 | |
| PG1ADW-2 | 2026-09-05 01:45:43 | 48.22623 | 17.90079 | 112° | 58km/h | 17304m | -9.1m/s | -56.7°C | 4.5% | 0hPa | 2.2V | 00:00:00 | 00:00:00 | 00:00:00 | |
| S52SK | 2026-09-05 01:45:42 | 48.22623 | 17.90079 | 112° | 60km/h | 17304m | -9.1m/s | -56.8°C | 1.4% | 0hPa | 2.5V | 00:00:00 | 00:00:00 | 00:00:00 | |
| OM5KV | 2026-09-05 01:45:41 | 48.22628 | 17.90058 | 111° | 57km/h | 17313m | -8.7m/s | -56.8°C | 1.4% | 0hPa | 2.5V | 08:13:00 | 00:00:00 | 00:00:00 | |
| PETON7-10 | 2026-09-05 01:45:37 | 48.22658 | 17.89951 | 114° | 57km/h | 17357m | -9.0m/s | -57.0°C | 4.7% | 0hPa | 2.5V | 00:00:00 | 00:00:00 | 00:00:00 | |
| DO3MHA-11 | 2026-09-05 01:45:36 | 48.22664 | 17.89929 | 112° | 58km/h | 17366m | -9.3m/s | -57.0°C | 4.7% | 0hPa | 2.2V | 00:00:00 | 02:22:53 | 00:00:00 | |
| OM5KV | 2026-09-05 01:45:35 | 48.22664 | 17.89929 | 113° | 64km/h | 17366m | -9.3m/s | -57.0°C | 1.5% | 0hPa | 2.2V | 08:13:00 | 00:00:00 | 00:00:00 | |
| ATIDSZ-14 | 2026-09-05 01:45:32 | 48.22682 | 17.89865 | 114° | 60km/h | 17393m | -9.7m/s | -57.1°C | 1.5% | 0hPa | 2.2V | 08:13:00 | 00:00:00 | 00:00:00 | |
| OE5DXL-15 | 2026-09-05 01:45:31 | 48.22695 | 17.89825 | 113° | 46km/h | 17412m | -9.7m/s | -57.1°C | 4.7% | 0hPa | 2.2V | 00:00:00 | 00:00:00 | 00:00:00 | |
| OM5KV | 2026-09-05 01:45:30 | 48.22695 | 17.89825 | 113° | 55km/h | 17412m | -9.7m/s | -57.2°C | 1.5% | 0hPa | 2.2V | 08:13:00 | 00:00:00 | 00:00:00 | |
| OM5KV | 2026-09-05 01:45:29 | 48.22701 | 17.89806 | 115° | 58km/h | 17421m | -9.9m/s | -57.2°C | 1.5% | 0hPa | 2.2V | 08:14:00 | 00:00:00 | 00:00:00 | |
| GYPAP8-17 | 2026-09-05 01:45:28 | 48.22706 | 17.89786 | 116° | 53km/h | 17431m | -9.5m/s | -57.2°C | 1.5% | 0hPa | 2.2V | 00:00:00 | 00:00:00 | 00:00:00 | |
| DO3MHA-11 | 2026-09-05 01:45:26 | 48.22722 | 17.89731 | 112° | 49km/h | 17459m | -9.7m/s | -57.1°C | 4.7% | 0hPa | 2.2V | 00:00:00 | 02:22:43 | 00:00:00 | |
| OM5KV | 2026-09-05 01:45:24 | 48.22727 | 17.89713 | 112° | 53km/h | 17468m | -10.1m/s | -57.2°C | 1.5% | 0hPa | 2.2V | 08:14:00 | 00:00:00 | 00:00:00 | |
| PG1ADW-2 | 2026-09-05 01:45:23 | 48.22736 | 17.89677 | 108° | 44km/h | 17487m | -10.0m/s | -57.0°C | 4.7% | 0hPa | 2.2V | 00:00:00 | 02:22:40 | 00:00:00 | |
| PETON7-10 | 2026-09-05 01:45:22 | 48.22740 | 17.89660 | 112° | 46km/h | 17497m | -9.7m/s | -56.8°C | 4.6% | 0hPa | 2.2V | 00:00:00 | 00:00:00 | 00:00:00 | |
| OM5KV | 2026-09-05 01:45:21 | 48.22740 | 17.89660 | 112° | 53km/h | 17497m | -9.7m/s | -56.8°C | 1.5% | 0hPa | 2.2V | 08:14:00 | 00:00:00 | 00:00:00 | |
| OE3MUC-15 | 2026-09-05 01:45:20 | 48.22748 | 17.89625 | 106° | 49km/h | 17516m | -9.3m/s | -56.4°C | 4.5% | 0hPa | 2.2V | 08:14:00 | 00:00:00 | 00:00:00 | |
| OE5DRO-10 | 2026-09-05 01:45:18 | 48.22756 | 17.89590 | 107° | 38km/h | 17535m | -9.9m/s | -56.3°C | 4.4% | 0hPa | 2.5V | 00:00:00 | 00:00:00 | 00:00:00 | |
| OM5KV | 2026-09-05 01:45:17 | 48.22756 | 17.89590 | 107° | 47km/h | 17535m | -10.0m/s | -56.4°C | 1.4% | 0hPa | 2.5V | 08:14:00 | 00:00:00 | 00:00:00 | |
| OE3MUC-15 | 2026-09-05 01:45:12 | 48.22771 | 17.89489 | 94° | 40km/h | 17594m | -10.2m/s | -56.6°C | 4.6% | 0hPa | 2.5V | 00:00:00 | 00:00:00 | 00:00:00 | |
| OM5KV | 2026-09-05 01:45:09 | 48.22773 | 17.89459 | 98° | 38km/h | 17614m | -10.4m/s | -56.8°C | 1.4% | 0hPa | 2.5V | 08:14:00 | 00:00:00 | 00:00:00 | |
| OE3MUC-15 | 2026-09-05 01:45:08 | 48.22775 | 17.89430 | 95° | 35km/h | 17633m | -9.7m/s | -56.8°C | 4.7% | 0hPa | 2.5V | 00:00:00 | 00:00:00 | 00:00:00 | |
| PETON7-10 | 2026-09-05 01:45:07 | 48.22775 | 17.89417 | 87° | 29km/h | 17643m | -9.1m/s | -56.9°C | 4.7% | 0hPa | 2.2V | 00:00:00 | 02:22:24 | 00:00:00 | |
| DO3MHA-11 | 2026-09-05 01:45:06 | 48.22775 | 17.89403 | 92° | 31km/h | 17652m | -9.2m/s | -56.8°C | 4.7% | 0hPa | 2.2V | 08:14:00 | 02:22:23 | 00:00:00 | |
| OE5DXL-15 | 2026-09-05 01:45:01 | 48.22774 | 17.89341 | 83° | 22km/h | 17701m | -10.2m/s | -56.1°C | 4.3% | 0hPa | 2.5V | 00:00:00 | 00:00:00 | 00:00:00 | |
| HA6NAB-11 | 2026-09-05 01:45:00 | 48.22774 | 17.89341 | 84° | 27km/h | 17701m | -10.3m/s | -56.1°C | 1.3% | 0hPa | 2.5V | 08:14:00 | 00:00:00 | 00:00:00 | |
| OE3MUC-15 | 2026-09-05 01:44:59 | 48.22773 | 17.89320 | 89° | 26km/h | 17720m | -10.7m/s | -55.9°C | 4.3% | 0hPa | 2.5V | 00:00:00 | 00:00:00 | 00:00:00 | |
| DO3MHA-11 | 2026-09-05 01:44:56 | 48.22771 | 17.89291 | 89° | 20km/h | 17751m | -10.3m/s | -56.2°C | 4.3% | 0hPa | 2.5V | 00:00:00 | 02:22:13 | 00:00:00 | |
| OE3MUC-15 | 2026-09-05 01:44:55 | 48.22770 | 17.89283 | 76° | 22km/h | 17761m | -10.3m/s | -56.2°C | 4.3% | 0hPa | 2.5V | 00:00:00 | 00:00:00 | 00:00:00 | |
| HA6NAB-11 | 2026-09-05 01:44:54 | 48.22770 | 17.89283 | 76° | 22km/h | 17761m | -10.3m/s | -56.3°C | 1.3% | 0hPa | 2.4V | 08:14:00 | 00:00:00 | 00:00:00 | |
| PETON7-10 | 2026-09-05 01:44:52 | 48.22768 | 17.89258 | 76° | 20km/h | 17791m | -10.3m/s | -56.4°C | 4.4% | 0hPa | 2.4V | 00:00:00 | 00:00:00 | 00:00:00 | |
| OE3MUC-15 | 2026-09-05 01:44:51 | 48.22768 | 17.89250 | 88° | 22km/h | 17800m | -9.7m/s | -56.3°C | 4.4% | 0hPa | 2.2V | 00:00:00 | 00:00:00 | 00:00:00 | |
| OM5KV | 2026-09-05 01:44:50 | 48.22768 | 17.89250 | 88° | 24km/h | 17800m | -9.8m/s | -56.4°C | 1.4% | 0hPa | 2.2V | 08:14:00 | 00:00:00 | 00:00:00 | |
| OM5KV | 2026-09-05 01:44:49 | 48.22767 | 17.89242 | 87° | 18km/h | 17810m | -10.0m/s | -56.4°C | 1.4% | 0hPa | 2.2V | 08:14:00 | 00:00:00 | 00:00:00 | |
| HA6NAB-11 | 2026-09-05 01:44:48 | 48.22766 | 17.89235 | 70° | 20km/h | 17820m | -10.3m/s | -56.3°C | 1.4% | 0hPa | 2.2V | 08:14:00 | 00:00:00 | 00:00:00 | |
| OE3MUC-15 | 2026-09-05 01:44:47 | 48.22763 | 17.89220 | 75° | 18km/h | 17839m | -10.3m/s | -56.2°C | 4.3% | 0hPa | 2.2V | 00:00:00 | 00:00:00 | 00:00:00 | |
| DO3MHA-11 | 2026-09-05 01:44:45 | 48.22759 | 17.89207 | 62° | 20km/h | 17859m | -9.9m/s | -56.3°C | 4.3% | 0hPa | 2.2V | 00:00:00 | 02:22:02 | 00:00:00 | |
| PG1ADW-2 | 2026-09-05 01:44:43 | 48.22755 | 17.89195 | 59° | 26km/h | 17878m | -9.8m/s | -56.4°C | 4.4% | 0hPa | 2.2V | 08:14:00 | 00:00:00 | 00:00:00 | |
| OM5KV | 2026-09-05 01:44:42 | 48.22755 | 17.89195 | 60° | 18km/h | 17878m | -9.9m/s | -56.4°C | 1.4% | 0hPa | 2.2V | 08:14:00 | 00:00:00 | 00:00:00 | |
| OE5DRO-10 | 2026-09-05 01:44:40 | 48.22748 | 17.89175 | 62° | 27km/h | 17907m | -10.3m/s | -56.5°C | 4.4% | 0hPa | 2.2V | 00:00:00 | 00:00:00 | 00:00:00 | |
| OE3MUC-15 | 2026-09-05 01:44:39 | 48.22745 | 17.89168 | 52° | 22km/h | 17917m | -10.3m/s | -56.5°C | 4.4% | 0hPa | 2.2V | 00:00:00 | 00:00:00 | 00:00:00 | |
| PETON7-10 | 2026-09-05 01:44:37 | 48.22740 | 17.89153 | 69° | 27km/h | 17937m | -10.2m/s | -56.4°C | 4.4% | 0hPa | 2.2V | 00:00:00 | 00:00:00 | 00:00:00 | |
| S52SK | 2026-09-05 01:44:36 | 48.22740 | 17.89153 | 69° | 22km/h | 17937m | -10.3m/s | -56.5°C | 1.3% | 0hPa | 2.2V | 00:00:00 | 00:00:00 | 00:00:00 | |
| DO3MHA-11 | 2026-09-05 01:44:35 | 48.22735 | 17.89138 | 60° | 27km/h | 17957m | -10.2m/s | -56.5°C | 4.4% | 0hPa | 2.2V | 00:00:00 | 02:21:52 | 00:00:00 | |
| OM5KV | 2026-09-05 01:44:32 | 48.22730 | 17.89120 | 70° | 24km/h | 17977m | -10.5m/s | -56.7°C | 1.3% | 0hPa | 2.5V | 08:15:00 | 00:00:00 | 00:00:00 | |
| OE3MUC-15 | 2026-09-05 01:44:31 | 48.22725 | 17.89102 | 71° | 29km/h | 17997m | -9.9m/s | -56.7°C | 4.5% | 0hPa | 2.5V | 00:00:00 | 00:00:00 | 00:00:00 | |
| GYPAP8-17 | 2026-09-05 01:44:28 | 48.22720 | 17.89083 | 68° | 27km/h | 18016m | -10.1m/s | -56.6°C | 1.3% | 0hPa | 2.2V | 08:15:00 | 00:00:00 | 00:00:00 | |
| OE3MUC-15 | 2026-09-05 01:44:27 | 48.22714 | 17.89062 | 68° | 31km/h | 18036m | -10.2m/s | -56.4°C | 4.4% | 0hPa | 2.2V | 00:00:00 | 02:21:44 | 00:00:00 | |
| DO3MHA-11 | 2026-09-05 01:44:25 | 48.22708 | 17.89042 | 59° | 37km/h | 18055m | -9.9m/s | -56.4°C | 4.5% | 0hPa | 2.2V | 00:00:00 | 02:21:42 | 00:00:00 | |
| PG1ADW-2 | 2026-09-05 01:44:23 | 48.22700 | 17.89020 | 65° | 37km/h | 18076m | -10.3m/s | -56.5°C | 4.5% | 0hPa | 2.2V | 00:00:00 | 00:00:00 | 00:00:00 | |
| PETON7-10 | 2026-09-05 01:44:22 | 48.22696 | 17.89009 | 63° | 38km/h | 18086m | -10.1m/s | -56.6°C | 4.5% | 0hPa | 2.2V | 00:00:00 | 02:21:39 | 00:00:00 | |
| OE3OSB-13 | 2026-09-05 01:44:21 | 48.22688 | 17.88986 | 63° | 38km/h | 18106m | -9.8m/s | -56.8°C | 1.2% | -1.0hPa | 2.2V | 00:00:00 | 00:00:00 | 00:00:00 | |
| OE3MUC-15 | 2026-09-05 01:44:19 | 48.22684 | 17.88973 | 71° | 38km/h | 18116m | -10.1m/s | -56.8°C | 4.6% | 0hPa | 2.2V | 00:00:00 | 00:00:00 | 00:00:00 | |
| OM5KV | 2026-09-05 01:44:18 | 48.22684 | 17.88973 | 71° | 38km/h | 18116m | -10.1m/s | -56.9°C | 1.4% | 0hPa | 2.5V | 08:15:00 | 00:00:00 | 00:00:00 | |
| OE3MUC-15 | 2026-09-05 01:44:15 | 48.22672 | 17.88918 | 77° | 38km/h | 18156m | -10.0m/s | -57.0°C | 4.7% | 0hPa | 2.5V | 00:00:00 | 00:00:00 | 00:00:00 | |
| OM5KV | 2026-09-05 01:44:12 | 48.22667 | 17.88890 | 74° | 38km/h | 18176m | -10.0m/s | -57.0°C | 1.5% | 0hPa | 2.5V | 08:15:00 | 00:00:00 | 00:00:00 | |
| OE3MUC-15 | 2026-09-05 01:44:11 | 48.22664 | 17.88862 | 84° | 38km/h | 18196m | -10.4m/s | -56.6°C | 4.6% | 0hPa | 2.5V | 00:00:00 | 00:00:00 | 00:00:00 | |
| OM5KV | 2026-09-05 01:44:10 | 48.22664 | 17.88861 | 84° | 37km/h | 18196m | -10.4m/s | -56.7°C | 1.4% | 0hPa | 2.5V | 08:15:00 | 00:00:00 | 00:00:00 | |
| OM5KV | 2026-09-05 01:44:09 | 48.22662 | 17.88848 | 78° | 37km/h | 18205m | -10.6m/s | -56.6°C | 1.4% | 0hPa | 2.5V | 08:15:00 | 00:00:00 | 00:00:00 | |
| OE3MUC-15 | 2026-09-05 01:44:07 | 48.22658 | 17.88805 | 86° | 37km/h | 18236m | -9.7m/s | -56.2°C | 4.5% | 0hPa | 2.5V | 08:15:00 | 00:00:00 | 00:00:00 | |
| DO3MHA-11 | 2026-09-05 01:44:05 | 48.22656 | 17.88777 | 85° | 35km/h | 18255m | -10.3m/s | -55.8°C | 4.3% | 0hPa | 2.4V | 00:00:00 | 02:21:22 | 00:00:00 | |
| OM5KV | 2026-09-05 01:44:04 | 48.22656 | 17.88777 | 85° | 38km/h | 18255m | -10.3m/s | -55.8°C | 1.3% | 0hPa | 2.5V | 08:15:00 | 00:00:00 | 00:00:00 | |
| PG1ADW-2 | 2026-09-05 01:44:03 | 48.22656 | 17.88750 | 88° | 31km/h | 18276m | -10.5m/s | -55.8°C | 4.2% | 0hPa | 2.5V | 00:00:00 | 02:21:20 | 00:00:00 | |
| OE5DRO-10 | 2026-09-05 01:44:02 | 48.22655 | 17.88736 | 80° | 31km/h | 18286m | -10.4m/s | -55.9°C | 4.3% | 0hPa | 2.5V | 08:15:00 | 00:00:00 | 00:00:00 | |
| OM5KV | 2026-09-05 01:44:01 | 48.22655 | 17.88736 | 81° | 37km/h | 18286m | -10.5m/s | -55.9°C | 1.3% | 0hPa | 2.5V | 08:15:00 | 00:00:00 | 00:00:00 | |
| OE3OSB-13 | 2026-09-05 01:43:50 | 48.22648 | 17.88578 | 88° | 29km/h | 18418m | -10.5m/s | -56.0°C | 1.1% | -1.0hPa | 2.5V | 00:00:00 | 00:00:00 | 00:00:00 | |
| OE3MUC-15 | 2026-09-05 01:43:47 | 48.22647 | 17.88558 | 76° | 26km/h | 18439m | -10.6m/s | -55.8°C | 4.3% | 0hPa | 2.5V | 00:00:00 | 00:00:00 | 00:00:00 | |
| OE3JTB-15 | 2026-09-05 01:43:46 | 48.22646 | 17.88549 | 77° | 27km/h | 18450m | -10.6m/s | -55.6°C | 4.2% | 0hPa | 2.5V | 00:00:00 | 02:21:03 | 00:00:00 | |
| HA6NAB-11 | 2026-09-05 01:43:45 | 48.22645 | 17.88539 | 84° | 26km/h | 18459m | -10.8m/s | -55.6°C | 1.2% | 0hPa | 2.5V | 00:00:00 | 00:00:00 | 00:00:00 | |
| OM5KV | 2026-09-05 01:43:43 | 48.22643 | 17.88530 | 79° | 22km/h | 18470m | -10.3m/s | -55.7°C | 1.3% | 0hPa | 2.5V | 08:16:00 | 00:00:00 | 00:00:00 | |
| HA6NAB-11 | 2026-09-05 01:43:39 | 48.22635 | 17.88497 | 67° | 22km/h | 18510m | -10.1m/s | -55.9°C | 1.3% | 0hPa | 2.5V | 00:00:00 | 00:00:00 | 00:00:00 | |
| PETON7-10 | 2026-09-05 01:43:37 | 48.22625 | 17.88475 | 59° | 27km/h | 18539m | -10.1m/s | -56.0°C | 4.2% | 0hPa | 2.5V | 00:00:00 | 02:20:54 | 00:00:00 | |
| DO3MHA-11 | 2026-09-05 01:43:35 | 48.22618 | 17.88461 | 46° | 27km/h | 18559m | -9.9m/s | -56.0°C | 4.2% | 0hPa | 2.5V | 08:15:00 | 02:20:52 | 00:00:00 | |
| POL2MAQ | 2026-09-05 01:43:34 | 48.22618 | 17.88461 | 46° | 24km/h | 18559m | -9.9m/s | 0°C | 0% | 0hPa | 2.5V | 00:00:00 | 00:00:00 | 00:00:00 | |
| OM5KV | 2026-09-05 01:43:32 | 48.22608 | 17.88447 | 52° | 27km/h | 18579m | -10.6m/s | -56.2°C | 1.3% | 0hPa | 2.5V | 08:16:00 | 00:00:00 | 00:00:00 | |
| OE5DXL-15 | 2026-09-05 01:43:31 | 48.22599 | 17.88434 | 38° | 33km/h | 18599m | -9.8m/s | -56.2°C | 4.3% | 0hPa | 2.5V | 00:00:00 | 00:00:00 | 00:00:00 | |
| OM5KV | 2026-09-05 01:43:30 | 48.22593 | 17.88427 | 36° | 31km/h | 18609m | -10.1m/s | -56.3°C | 1.3% | 0hPa | 2.4V | 08:16:00 | 00:00:00 | 00:00:00 | |
| S52SK | 2026-09-05 01:43:29 | 48.22593 | 17.88427 | 36° | 31km/h | 18609m | -10.1m/s | -56.3°C | 1.3% | 0hPa | 2.4V | 00:00:00 | 00:00:00 | 00:00:00 | |
| HA6NAB-11 | 2026-09-05 01:43:27 | 48.22582 | 17.88414 | 39° | 26km/h | 18629m | -10.4m/s | -56.4°C | 1.3% | 0hPa | 2.4V | 00:00:00 | 00:00:00 | 00:00:00 | |
| DO3MHA-12 | 2026-09-05 01:43:26 | 48.22570 | 17.88402 | 32° | 31km/h | 18648m | -10.1m/s | -56.5°C | 4.4% | 0hPa | 2.4V | 00:00:00 | 02:20:43 | 00:00:00 | |
| DO3MHA-11 | 2026-09-05 01:43:25 | 48.22564 | 17.88395 | 39° | 31km/h | 18658m | -9.8m/s | -56.5°C | 4.4% | 0hPa | 2.4V | 00:00:00 | 02:20:42 | 00:00:00 | |
| OM5KV | 2026-09-05 01:43:24 | 48.22564 | 17.88395 | 40° | 31km/h | 18658m | -9.8m/s | -56.6°C | 1.3% | 0hPa | 2.4V | 08:16:00 | 00:00:00 | 00:00:00 | |
| PG1ADW-2 | 2026-09-05 01:43:23 | 48.22553 | 17.88381 | 39° | 35km/h | 18678m | -9.6m/s | -56.6°C | 4.5% | 0hPa | 2.4V | 00:00:00 | 00:00:00 | 00:00:00 | |
| PETON7-10 | 2026-09-05 01:43:22 | 48.22547 | 17.88375 | 35° | 33km/h | 18687m | -10.1m/s | -56.6°C | 4.5% | 0hPa | 2.4V | 00:00:00 | 00:00:00 | 00:00:00 | |
| OE3MUC-15 | 2026-09-05 01:43:19 | 48.22528 | 17.88353 | 40° | 33km/h | 18717m | -10.3m/s | -56.4°C | 4.3% | 0hPa | 2.5V | 00:00:00 | 00:00:00 | 00:00:00 | |
| OM5KV | 2026-09-05 01:43:18 | 48.22528 | 17.88353 | 41° | 29km/h | 18717m | -10.4m/s | -56.5°C | 1.3% | 0hPa | 2.4V | 08:16:00 | 00:00:00 | 00:00:00 | |
| OM5KV | 2026-09-05 01:43:17 | 48.22522 | 17.88346 | 37° | 31km/h | 18728m | -9.7m/s | -56.5°C | 1.3% | 0hPa | 2.4V | 08:16:00 | 00:00:00 | 00:00:00 | |
| OE3JTB-15 | 2026-09-05 01:43:16 | 48.22509 | 17.88331 | 41° | 38km/h | 18747m | -10.1m/s | -56.4°C | 4.3% | 0hPa | 2.4V | 00:00:00 | 00:00:00 | 00:00:00 | |
| DO3MHA-11 | 2026-09-05 01:43:15 | 48.22503 | 17.88323 | 46° | 35km/h | 18757m | -10.3m/s | -56.5°C | 4.3% | 0hPa | 2.5V | 00:00:00 | 02:20:32 | 00:00:00 | |
| OE5MMP-10 | 2026-09-05 01:43:13 | 48.22491 | 17.88305 | 42° | 37km/h | 18777m | -9.7m/s | -56.6°C | 4.4% | 0hPa | 2.5V | 00:00:00 | 02:20:30 | 00:00:00 | |
| OM5KV | 2026-09-05 01:43:12 | 48.22491 | 17.88305 | 43° | 33km/h | 18777m | -9.7m/s | -56.6°C | 1.3% | 0hPa | 2.5V | 08:16:00 | 00:00:00 | 00:00:00 | |
| OE3MUC-15 | 2026-09-05 01:43:11 | 48.22479 | 17.88287 | 50° | 37km/h | 18796m | -10.4m/s | -56.7°C | 4.4% | 0hPa | 2.5V | 00:00:00 | 00:00:00 | 00:00:00 | |
| ATIDSZ-14 | 2026-09-05 01:43:09 | 48.22473 | 17.88276 | 55° | 35km/h | 18807m | -10.7m/s | -56.9°C | 1.3% | 0hPa | 2.5V | 08:16:00 | 00:00:00 | 00:00:00 | |
| PETON7-10 | 2026-09-05 01:43:07 | 48.22456 | 17.88244 | 52° | 40km/h | 18837m | -9.7m/s | -57.0°C | 4.5% | 0hPa | 2.5V | 00:00:00 | 00:00:00 | 00:00:00 | |
| DO3MHA-12 | 2026-09-05 01:43:06 | 48.22450 | 17.88232 | 59° | 38km/h | 18847m | -9.9m/s | -57.0°C | 4.5% | 0hPa | 2.5V | 08:16:00 | 02:20:23 | 00:00:00 | |
| DO3MHA-11 | 2026-09-05 01:43:05 | 48.22445 | 17.88221 | 58° | 38km/h | 18857m | -9.8m/s | -57.1°C | 4.6% | 0hPa | 2.4V | 00:00:00 | 02:20:22 | 00:00:00 | |
| OE3MUC-15 | 2026-09-05 01:43:03 | 48.22435 | 17.88197 | 57° | 38km/h | 18877m | -10.5m/s | -57.1°C | 4.6% | 0hPa | 2.5V | 00:00:00 | 00:00:00 | 00:00:00 | |
| OM5KV | 2026-09-05 01:43:01 | 48.22430 | 17.88184 | 63° | 40km/h | 18887m | -10.7m/s | -57.1°C | 1.4% | 0hPa | 2.5V | 08:16:00 | 00:00:00 | 00:00:00 | |
| OE3OSB-13 | 2026-09-05 01:42:48 | 48.22378 | 17.87974 | 78° | 42km/h | 19040m | -10.5m/s | -57.8°C | 1.3% | -1.0hPa | 2.5V | 00:00:00 | 00:00:00 | 00:00:00 | |
| OE3MUC-15 | 2026-09-05 01:42:47 | 48.22378 | 17.87974 | 79° | 40km/h | 19040m | -10.4m/s | -57.8°C | 4.8% | 0hPa | 2.5V | 00:00:00 | 00:00:00 | 00:00:00 | |
| DO3MHA-12 | 2026-09-05 01:42:46 | 48.22376 | 17.87959 | 78° | 42km/h | 19051m | -10.3m/s | -57.8°C | 4.8% | 0hPa | 2.5V | 00:00:00 | 02:20:03 | 00:00:00 | |
| DO3MHA-11 | 2026-09-05 01:42:45 | 48.22373 | 17.87944 | 78° | 42km/h | 19061m | -10.4m/s | -57.8°C | 4.8% | 0hPa | 2.5V | 00:00:00 | 02:20:02 | 00:00:00 | |
| OM5KV | 2026-09-05 01:42:44 | 48.22373 | 17.87944 | 78° | 40km/h | 19061m | -10.5m/s | -57.8°C | 1.4% | 0hPa | 2.5V | 08:17:00 | 00:00:00 | 00:00:00 | |
| PG1ADW-2 | 2026-09-05 01:42:43 | 48.22367 | 17.87914 | 72° | 38km/h | 19082m | -10.4m/s | -57.6°C | 4.8% | 0hPa | 2.5V | 00:00:00 | 02:20:00 | 00:00:00 | |
| HA6NAB-11 | 2026-09-05 01:42:41 | 48.22364 | 17.87898 | 78° | 44km/h | 19092m | -10.3m/s | -57.7°C | 1.4% | 0hPa | 2.5V | 00:00:00 | 00:00:00 | 00:00:00 | |
| OM5KV | 2026-09-05 01:42:40 | 48.22362 | 17.87883 | 80° | 40km/h | 19103m | -10.3m/s | -57.6°C | 1.4% | 0hPa | 2.5V | 08:17:00 | 00:00:00 | 00:00:00 | |
| OE3MUC-15 | 2026-09-05 01:42:39 | 48.22358 | 17.87853 | 78° | 42km/h | 19123m | -10.4m/s | -57.7°C | 4.8% | 0hPa | 2.5V | 00:00:00 | 00:00:00 | 00:00:00 | |
| PETON7-10 | 2026-09-05 01:42:37 | 48.22354 | 17.87822 | 83° | 37km/h | 19144m | -10.1m/s | -57.5°C | 4.8% | 0hPa | 2.5V | 00:00:00 | 00:00:00 | 00:00:00 | |
| DO3MHA-11 | 2026-09-05 01:42:35 | 48.22353 | 17.87790 | 90° | 37km/h | 19165m | -10.5m/s | -57.0°C | 4.5% | 0hPa | 2.4V | 00:00:00 | 02:19:52 | 00:00:00 | |
| OE5MMP-10 | 2026-09-05 01:42:33 | 48.22352 | 17.87762 | 84° | 37km/h | 19185m | -10.8m/s | -57.1°C | 4.5% | 0hPa | 2.5V | 00:00:00 | 02:19:50 | 00:00:00 | |
| OE3MUC-15 | 2026-09-05 01:42:31 | 48.22351 | 17.87732 | 90° | 37km/h | 19206m | -10.3m/s | -57.2°C | 4.6% | 0hPa | 2.5V | 00:00:00 | 00:00:00 | 00:00:00 | |
| HA6NAB-11 | 2026-09-05 01:42:30 | 48.22351 | 17.87732 | 91° | 40km/h | 19206m | -10.3m/s | -57.3°C | 1.4% | 0hPa | 2.5V | 00:00:00 | 00:00:00 | 00:00:00 | |
| ATIDSZ-14 | 2026-09-05 01:42:29 | 48.22351 | 17.87717 | 96° | 38km/h | 19216m | -10.6m/s | -57.3°C | 1.4% | 0hPa | 2.5V | 08:17:00 | 00:00:00 | 00:00:00 | |
| OE3MUC-15 | 2026-09-05 01:42:27 | 48.22353 | 17.87678 | 88° | 35km/h | 19247m | -10.7m/s | -56.9°C | 4.5% | 0hPa | 2.5V | 00:00:00 | 00:00:00 | 00:00:00 | |
| DO3MHA-11 | 2026-09-05 01:42:25 | 48.22352 | 17.87652 | 91° | 33km/h | 19268m | -10.7m/s | -56.8°C | 4.5% | 0hPa | 2.5V | 00:00:00 | 02:19:42 | 00:00:00 | |
| OM5KV | 2026-09-05 01:42:24 | 48.22352 | 17.87652 | 92° | 35km/h | 19268m | -10.7m/s | -56.9°C | 1.3% | 0hPa | 2.5V | 08:17:00 | 00:00:00 | 00:00:00 | |
| OE3MUC-15 | 2026-09-05 01:42:23 | 48.22354 | 17.87627 | 99° | 29km/h | 19290m | -11.0m/s | -56.9°C | 4.5% | 0hPa | 2.5V | 00:00:00 | 00:00:00 | 00:00:00 | |
| PETON7-10 | 2026-09-05 01:42:22 | 48.22355 | 17.87616 | 99° | 38km/h | 19300m | -10.5m/s | -56.9°C | 4.5% | 0hPa | 2.5V | 00:00:00 | 00:00:00 | 00:00:00 | |
| OE3MUC-15 | 2026-09-05 01:42:19 | 48.22358 | 17.87582 | 97° | 35km/h | 19330m | -10.0m/s | -57.0°C | 4.5% | 0hPa | 2.5V | 08:17:00 | 00:00:00 | 00:00:00 | |
| OE3JTB-15 | 2026-09-05 01:42:18 | 48.22359 | 17.87569 | 101° | 35km/h | 19340m | -10.2m/s | -57.0°C | 4.5% | 0hPa | 2.5V | 00:00:00 | 02:19:35 | 00:00:00 | |
| OM5KV | 2026-09-05 01:42:17 | 48.22359 | 17.87569 | 102° | 35km/h | 19340m | -10.3m/s | -57.0°C | 1.3% | 0hPa | 2.5V | 08:17:00 | 00:00:00 | 00:00:00 | |
| DO3MHA-11 | 2026-09-05 01:42:15 | 48.22366 | 17.87530 | 109° | 42km/h | 19372m | -10.7m/s | -57.1°C | 4.5% | 0hPa | 2.5V | 00:00:00 | 02:19:32 | 00:00:00 | |
| OE5MMP-10 | 2026-09-05 01:42:13 | 48.22372 | 17.87502 | 102° | 42km/h | 19393m | -10.8m/s | -57.3°C | 4.7% | 0hPa | 2.5V | 00:00:00 | 02:19:30 | 00:00:00 | |
| OM5KV | 2026-09-05 01:42:12 | 48.22372 | 17.87502 | 103° | 40km/h | 19393m | -10.8m/s | -57.3°C | 1.4% | 0hPa | 2.5V | 08:17:00 | 00:00:00 | 00:00:00 | |
| OE3MUC-15 | 2026-09-05 01:42:11 | 48.22377 | 17.87471 | 109° | 44km/h | 19414m | -10.9m/s | -57.2°C | 4.6% | 0hPa | 2.5V | 00:00:00 | 00:00:00 | 00:00:00 | |
| OE5DRO-10 | 2026-09-05 01:42:08 | 48.22390 | 17.87425 | 113° | 37km/h | 19447m | -10.8m/s | -57.4°C | 4.7% | 0hPa | 2.5V | 00:00:00 | 00:00:00 | 00:00:00 | |
| OE3MUC-15 | 2026-09-05 01:42:07 | 48.22394 | 17.87410 | 110° | 42km/h | 19458m | -11.1m/s | -57.4°C | 4.7% | 0hPa | 2.5V | 00:00:00 | 00:00:00 | 00:00:00 | |
| OM5KV | 2026-09-05 01:42:06 | 48.22394 | 17.87410 | 111° | 40km/h | 19458m | -11.1m/s | -57.5°C | 1.4% | 0hPa | 2.4V | 08:17:00 | 00:00:00 | 00:00:00 | |
| DO3MHA-11 | 2026-09-05 01:42:05 | 48.22401 | 17.87380 | 114° | 40km/h | 19479m | -11.7m/s | 0°C | 0% | 0hPa | 2.4V | 08:17:00 | 02:19:22 | 00:00:00 | |
| OM5KV | 2026-09-05 01:42:04 | 48.22401 | 17.87380 | 114° | 44km/h | 19479m | -11.8m/s | -57.6°C | 1.4% | 0hPa | 2.5V | 08:18:00 | 00:00:00 | 00:00:00 | |
| PG1ADW-2 | 2026-09-05 01:42:03 | 48.22411 | 17.87351 | 121° | 31km/h | 19502m | -11.2m/s | -57.5°C | 4.8% | 0hPa | 2.5V | 00:00:00 | 00:00:00 | 00:00:00 | |
| OE3OSB-13 | 2026-09-05 01:41:46 | 48.22481 | 17.87163 | 115° | 24km/h | 19698m | -11.5m/s | -57.0°C | 1.2% | -1.0hPa | 2.5V | 00:00:00 | 00:00:00 | 00:00:00 | |
| DO3MHA-11 | 2026-09-05 01:41:45 | 48.22481 | 17.87163 | 116° | 26km/h | 19698m | -11.4m/s | -57.0°C | 4.7% | 0hPa | 2.5V | 00:00:00 | 02:19:02 | 00:00:00 | |
| PG1ADW-2 | 2026-09-05 01:41:43 | 48.22486 | 17.87145 | 110° | 29km/h | 19720m | -10.6m/s | -57.0°C | 4.8% | 0hPa | 2.5V | 08:17:00 | 00:00:00 | 00:00:00 | |
| SQ9EZE-14 | 2026-09-05 01:41:40 | 48.22490 | 17.87127 | 102° | 26km/h | 19741m | -11.2m/s | 0°C | 0% | 0hPa | 2.4V | 00:00:00 | 00:00:00 | 00:00:00 | |
| GYPAP8-17 | 2026-09-05 01:41:39 | 48.22491 | 17.87118 | 93° | 26km/h | 19752m | -11.1m/s | -56.9°C | 1.4% | 0hPa | 2.4V | 00:00:00 | 00:00:00 | 00:00:00 | |
| DO3MHA-11 | 2026-09-05 01:41:35 | 48.22492 | 17.87066 | 93° | 31km/h | 19806m | -11.8m/s | -57.1°C | 5.0% | 0hPa | 2.4V | 00:00:00 | 02:18:52 | 00:00:00 | |
| OE5MMP-10 | 2026-09-05 01:41:33 | 48.22494 | 17.87044 | 105° | 29km/h | 19828m | -11.3m/s | -56.9°C | 5.0% | 0hPa | 2.5V | 00:00:00 | 02:18:50 | 00:00:00 | |
| OM5KV | 2026-09-05 01:41:32 | 48.22494 | 17.87044 | 105° | 31km/h | 19828m | -11.3m/s | -57.0°C | 1.5% | 0hPa | 2.5V | 08:18:00 | 00:00:00 | 00:00:00 | |
| OE5DXL-15 | 2026-09-05 01:41:31 | 48.22499 | 17.87021 | 114° | 33km/h | 19850m | -11.9m/s | -56.5°C | 4.8% | 0hPa | 2.5V | 00:00:00 | 00:00:00 | 00:00:00 | |
| OE5DRO-10 | 2026-09-05 01:41:30 | 48.22502 | 17.87010 | 119° | 31km/h | 19862m | -11.8m/s | -56.3°C | 4.8% | 0hPa | 2.5V | 00:00:00 | 00:00:00 | 00:00:00 | |
| OM5KV | 2026-09-05 01:41:28 | 48.22506 | 17.87000 | 122° | 31km/h | 19873m | -11.5m/s | -56.3°C | 1.3% | 0hPa | 2.5V | 08:18:00 | 00:00:00 | 00:00:00 | |
| OM5KV | 2026-09-05 01:41:27 | 48.22510 | 17.86990 | 122° | 29km/h | 19884m | -11.4m/s | -56.3°C | 1.3% | 0hPa | 2.5V | 08:18:00 | 00:00:00 | 00:00:00 | |
| DO3MHA-11 | 2026-09-05 01:41:25 | 48.22522 | 17.86961 | 122° | 29km/h | 19918m | -11.7m/s | -55.6°C | 4.5% | 0hPa | 2.5V | 00:00:00 | 02:18:42 | 00:00:00 | |
| SQ9EZE-14 | 2026-09-05 01:41:24 | 48.22522 | 17.86961 | 122° | 26km/h | 19918m | -11.7m/s | 0°C | 0% | 0hPa | 2.5V | 00:00:00 | 00:00:00 | 00:00:00 | |
| OE5MMP-10 | 2026-09-05 01:41:23 | 48.22530 | 17.86943 | 117° | 31km/h | 19941m | -11.4m/s | -55.0°C | 4.3% | 0hPa | 2.5V | 00:00:00 | 02:18:40 | 00:00:00 | |
| PETON7-10 | 2026-09-05 01:41:22 | 48.22534 | 17.86933 | 114° | 33km/h | 19953m | -11.1m/s | -55.0°C | 4.3% | 0hPa | 2.4V | 00:00:00 | 02:18:39 | 00:00:00 | |
| S52SK | 2026-09-05 01:41:21 | 48.22534 | 17.86933 | 114° | 27km/h | 19953m | -11.2m/s | -55.0°C | 1.2% | 0hPa | 2.4V | 08:18:00 | 00:00:00 | 00:00:00 | |
| HA6NAB-11 | 2026-09-05 01:41:20 | 48.22537 | 17.86923 | 111° | 27km/h | 19964m | -11.2m/s | -55.0°C | 1.2% | 0hPa | 2.4V | 08:18:00 | 00:00:00 | 00:00:00 | |
| OE3MUC-15 | 2026-09-05 01:41:19 | 48.22542 | 17.86901 | 106° | 31km/h | 19987m | -11.0m/s | -54.6°C | 4.2% | 0hPa | 2.4V | 00:00:00 | 00:00:00 | 00:00:00 | |
| OM5KV | 2026-09-05 01:41:18 | 48.22542 | 17.86901 | 107° | 31km/h | 19987m | -11.1m/s | -54.7°C | 1.2% | 0hPa | 2.4V | 08:18:00 | 00:00:00 | 00:00:00 | |
| DO3MHA-11 | 2026-09-05 01:41:15 | 48.22552 | 17.86855 | 102° | 35km/h | 20031m | -11.0m/s | -54.6°C | 4.1% | 0hPa | 2.4V | 00:00:00 | 02:18:32 | 00:00:00 | |
| HA6NAB-11 | 2026-09-05 01:41:14 | 48.22552 | 17.86855 | 103° | 35km/h | 20031m | -11.1m/s | -54.7°C | 1.2% | 0hPa | 2.4V | 00:00:00 | 00:00:00 | 00:00:00 | |
| OE5MMP-10 | 2026-09-05 01:41:13 | 48.22557 | 17.86830 | 107° | 35km/h | 20053m | -11.5m/s | -54.7°C | 4.2% | 0hPa | 2.4V | 00:00:00 | 02:18:30 | 00:00:00 | |
| OE3MUC-15 | 2026-09-05 01:41:11 | 48.22564 | 17.86805 | 109° | 35km/h | 20075m | -11.1m/s | -54.7°C | 4.2% | 0hPa | 2.4V | 00:00:00 | 00:00:00 | 00:00:00 | |
| OM5KV | 2026-09-05 01:41:08 | 48.22571 | 17.86781 | 113° | 37km/h | 20098m | -11.2m/s | -54.6°C | 1.1% | 0hPa | 2.4V | 08:19:00 | 00:00:00 | 00:00:00 | |
| PETON7-10 | 2026-09-05 01:41:07 | 48.22580 | 17.86757 | 116° | 29km/h | 20120m | -11.3m/s | -54.3°C | 4.1% | 0hPa | 2.4V | 00:00:00 | 00:00:00 | 00:00:00 | |
| ATIDSZ-14 | 2026-09-05 01:41:06 | 48.22580 | 17.86757 | 116° | 35km/h | 20120m | -11.3m/s | -54.3°C | 1.2% | 0hPa | 2.5V | 08:19:00 | 00:00:00 | 00:00:00 | |
| DO3MHA-11 | 2026-09-05 01:41:05 | 48.22589 | 17.86734 | 121° | 29km/h | 20143m | -11.0m/s | -54.2°C | 4.0% | 0hPa | 2.5V | 00:00:00 | 02:18:22 | 00:00:00 | |
| OE3MUC-15 | 2026-09-05 01:41:03 | 48.22599 | 17.86713 | 126° | 31km/h | 20166m | -11.6m/s | -54.0°C | 4.0% | 0hPa | 2.5V | 00:00:00 | 00:00:00 | 00:00:00 | |
| OM5KV | 2026-09-05 01:41:02 | 48.22599 | 17.86713 | 126° | 33km/h | 20166m | -11.7m/s | -54.0°C | 1.1% | 0hPa | 2.5V | 08:19:00 | 00:00:00 | 00:00:00 | |
| OE5DXL-15 | 2026-09-05 01:41:01 | 48.22610 | 17.86693 | 130° | 18km/h | 20188m | -11.2m/s | -53.9°C | 3.9% | 0hPa | 2.5V | 00:00:00 | 00:00:00 | 00:00:00 | |
| OE3MUC-15 | 2026-09-05 01:40:59 | 48.22621 | 17.86676 | 134° | 26km/h | 20210m | -11.1m/s | -54.0°C | 3.9% | 0hPa | 2.5V | 00:00:00 | 00:00:00 | 00:00:00 | |
| HA6NAB-11 | 2026-09-05 01:40:58 | 48.22621 | 17.86676 | 134° | 27km/h | 20210m | -11.2m/s | -54.0°C | 1.1% | 0hPa | 2.5V | 00:00:00 | 00:00:00 | 00:00:00 | |
| DO3MHA-11 | 2026-09-05 01:40:55 | 48.22643 | 17.86649 | 144° | 22km/h | 20255m | -11.4m/s | -54.1°C | 4.0% | 0hPa | 2.5V | 00:00:00 | 02:18:12 | 00:00:00 | |
| PETON7-10 | 2026-09-05 01:40:52 | 48.22659 | 17.86635 | 156° | 18km/h | 20289m | -12.2m/s | -54.2°C | 4.0% | 0hPa | 2.5V | 00:00:00 | 00:00:00 | 00:00:00 | |
| OE3MUC-15 | 2026-09-05 01:40:51 | 48.22664 | 17.86631 | 158° | 22km/h | 20301m | -12.0m/s | -54.2°C | 4.0% | 0hPa | 2.5V | 00:00:00 | 00:00:00 | 00:00:00 | |
| OM5KV | 2026-09-05 01:40:47 | 48.22684 | 17.86620 | 163° | 20km/h | 20346m | -11.7m/s | -54.2°C | 1.1% | 0hPa | 2.5V | 08:19:00 | 00:00:00 | 00:00:00 | |
| ATIDSZ-14 | 2026-09-05 01:40:46 | 48.22684 | 17.86620 | 163° | 20km/h | 20346m | -11.7m/s | -54.2°C | 1.1% | 0hPa | 2.5V | 08:19:00 | 00:00:00 | 00:00:00 | |
| DO3MHA-11 | 2026-09-05 01:40:45 | 48.22692 | 17.86615 | 156° | 15km/h | 20368m | -11.7m/s | -54.2°C | 3.9% | 0hPa | 2.5V | 00:00:00 | 02:18:02 | 00:00:00 | |
| OE3OSB-13 | 2026-09-05 01:40:44 | 48.22699 | 17.86609 | 144° | 15km/h | 20390m | -12.1m/s | -54.4°C | 1.0% | -1.0hPa | 2.5V | 00:00:00 | 00:00:00 | 00:00:00 | |
| PG1ADW-2 | 2026-09-05 01:40:43 | 48.22699 | 17.86609 | 145° | 13km/h | 20391m | -12.1m/s | -54.3°C | 4.0% | 0hPa | 2.5V | 00:00:00 | 00:00:00 | 00:00:00 | |
| OE3MUC-15 | 2026-09-05 01:40:39 | 48.22709 | 17.86594 | 119° | 13km/h | 20438m | -12.2m/s | -54.5°C | 4.1% | 0hPa | 2.4V | 00:00:00 | 00:00:00 | 00:00:00 | |
| PETON7-10 | 2026-09-05 01:40:37 | 48.22712 | 17.86586 | 103° | 13km/h | 20462m | -11.6m/s | -54.4°C | 4.1% | 0hPa | 2.4V | 00:00:00 | 02:17:54 | 00:00:00 | |
| GYPAP8-17 | 2026-09-05 01:40:36 | 48.22713 | 17.86586 | 103° | 11km/h | 20462m | -11.6m/s | -54.5°C | 1.2% | 0hPa | 2.4V | 08:19:00 | 00:00:00 | 00:00:00 | |
| DO3MHA-11 | 2026-09-05 01:40:35 | 48.22712 | 17.86577 | 71° | 13km/h | 20485m | -11.6m/s | -54.2°C | 3.9% | 0hPa | 2.4V | 08:18:00 | 02:17:52 | 00:00:00 | |
| OE5DRO-10 | 2026-09-05 01:40:33 | 48.22710 | 17.86570 | 62° | 16km/h | 20507m | -11.9m/s | -54.2°C | 3.9% | 0hPa | 2.4V | 00:00:00 | 00:00:00 | 00:00:00 | |
| SQ9EZE-14 | 2026-09-05 01:40:32 | 48.22710 | 17.86570 | 62° | 9km/h | 20507m | -12.0m/s | 0°C | 0% | 0hPa | 2.4V | 00:00:00 | 00:00:00 | 00:00:00 | |
| OE3MUC-15 | 2026-09-05 01:40:31 | 48.22708 | 17.86564 | 66° | 13km/h | 20530m | -11.8m/s | -54.3°C | 4.0% | 0hPa | 2.4V | 08:18:00 | 00:00:00 | 00:00:00 | |
| OM5KV | 2026-09-05 01:40:30 | 48.22708 | 17.86563 | 67° | 11km/h | 20530m | -11.8m/s | -54.3°C | 1.1% | 0hPa | 2.5V | 08:19:00 | 00:00:00 | 00:00:00 | |
| OE3MUC-15 | 2026-09-05 01:40:27 | 48.22703 | 17.86545 | 68° | 18km/h | 20576m | -12.1m/s | -54.6°C | 4.1% | 0hPa | 2.5V | 00:00:00 | 00:00:00 | 00:00:00 | |
| DO3MHA-11 | 2026-09-05 01:40:25 | 48.22700 | 17.86533 | 62° | 20km/h | 20601m | -11.7m/s | -54.8°C | 4.1% | 0hPa | 2.5V | 00:00:00 | 02:17:42 | 00:00:00 | |
| OE3MUC-15 | 2026-09-05 01:40:23 | 48.22694 | 17.86521 | 45° | 18km/h | 20623m | -11.8m/s | -54.9°C | 4.1% | 0hPa | 2.5V | 00:00:00 | 00:00:00 | 00:00:00 | |
| PETON7-10 | 2026-09-05 01:40:22 | 48.22691 | 17.86516 | 47° | 22km/h | 20634m | -11.9m/s | -55.0°C | 4.2% | 0hPa | 2.5V | 00:00:00 | 00:00:00 | 00:00:00 | |
| OM5KV | 2026-09-05 01:40:20 | 48.22688 | 17.86511 | 52° | 16km/h | 20646m | -11.8m/s | -55.0°C | 1.2% | 0hPa | 2.4V | 08:19:00 | 00:00:00 | 00:00:00 | |
| OE3MUC-15 | 2026-09-05 01:40:19 | 48.22684 | 17.86500 | 67° | 22km/h | 20669m | -12.6m/s | -55.0°C | 4.2% | 0hPa | 2.4V | 00:00:00 | 00:00:00 | 00:00:00 | |
| OE3MUC-15 | 2026-09-05 01:40:15 | 48.22677 | 17.86469 | 64° | 22km/h | 20717m | -11.6m/s | -55.1°C | 4.2% | 0hPa | 2.4V | 00:00:00 | 00:00:00 | 00:00:00 | |
| OE5DRO-10 | 2026-09-05 01:40:14 | 48.22675 | 17.86462 | 65° | 22km/h | 20728m | -12.2m/s | -55.2°C | 4.2% | 0hPa | 2.4V | 00:00:00 | 00:00:00 | 00:00:00 | |
| OE5MMP-10 | 2026-09-05 01:40:13 | 48.22673 | 17.86454 | 75° | 24km/h | 20740m | -12.3m/s | -55.2°C | 4.2% | 0hPa | 2.4V | 00:00:00 | 02:17:30 | 00:00:00 | |
| OM5KV | 2026-09-05 01:40:12 | 48.22673 | 17.86454 | 76° | 20km/h | 20740m | -12.3m/s | -55.3°C | 1.2% | 0hPa | 2.4V | 08:19:00 | 00:00:00 | 00:00:00 | |
| OE3MUC-15 | 2026-09-05 01:40:11 | 48.22671 | 17.86439 | 87° | 26km/h | 20762m | -11.7m/s | -55.2°C | 4.2% | 0hPa | 2.4V | 00:00:00 | 00:00:00 | 00:00:00 | |
| S52SK | 2026-09-05 01:40:09 | 48.22671 | 17.86430 | 93° | 26km/h | 20774m | -12.0m/s | -55.3°C | 1.2% | 0hPa | 2.4V | 00:00:00 | 00:00:00 | 00:00:00 | |
| OE3MUC-15 | 2026-09-05 01:40:07 | 48.22673 | 17.86401 | 94° | 22km/h | 20811m | -12.0m/s | -55.2°C | 4.3% | 0hPa | 2.4V | 00:00:00 | 00:00:00 | 00:00:00 | |
| ATIDSZ-14 | 2026-09-05 01:40:05 | 48.22673 | 17.86391 | 91° | 24km/h | 20822m | -11.9m/s | -55.3°C | 1.2% | 0hPa | 2.5V | 08:19:00 | 00:00:00 | 00:00:00 | |
| PG1ADW-2 | 2026-09-05 01:40:03 | 48.22677 | 17.86369 | 118° | 13km/h | 20857m | -11.8m/s | -55.2°C | 4.3% | 0hPa | 2.5V | 00:00:00 | 02:17:20 | 00:00:00 | |
| OM5KV | 2026-09-05 01:40:02 | 48.22677 | 17.86369 | 119° | 18km/h | 20857m | -11.8m/s | 0°C | 0% | 0hPa | 2.5V | 00:00:00 | 00:00:00 | 00:00:00 | |
| OE5DXL-15 | 2026-09-05 01:40:01 | 48.22682 | 17.86356 | 124° | 15km/h | 20880m | -12.3m/s | -55.2°C | 4.3% | 0hPa | 2.5V | 00:00:00 | 00:00:00 | 00:00:00 | |
| OE3MUC-15 | 2026-09-05 01:39:59 | 48.22688 | 17.86344 | 127° | 18km/h | 20904m | -12.1m/s | -55.0°C | 4.2% | 0hPa | 2.5V | 00:00:00 | 00:00:00 | 00:00:00 | |
| OE3MUC-15 | 2026-09-05 01:39:55 | 48.22698 | 17.86324 | 116° | 13km/h | 20953m | -11.5m/s | -55.0°C | 4.2% | 0hPa | 2.5V | 08:19:00 | 00:00:00 | 00:00:00 | |
| OM5KV | 2026-09-05 01:39:54 | 48.22698 | 17.86324 | 116° | 13km/h | 20953m | -11.6m/s | -55.0°C | 1.2% | 0hPa | 2.5V | 08:19:00 | 00:00:00 | 00:00:00 | |
| OE5MMP-10 | 2026-09-05 01:39:53 | 48.22701 | 17.86315 | 109° | 9km/h | 20976m | -12.5m/s | -55.0°C | 4.2% | 0hPa | 2.5V | 00:00:00 | 02:17:10 | 00:00:00 | |
| PETON7-10 | 2026-09-05 01:39:52 | 48.22703 | 17.86311 | 102° | 13km/h | 20988m | -12.4m/s | -55.0°C | 4.2% | 0hPa | 2.5V | 00:00:00 | 02:17:09 | 00:00:00 | |
| OE3MUC-15 | 2026-09-05 01:39:51 | 48.22703 | 17.86307 | 102° | 7km/h | 20999m | -12.2m/s | -55.0°C | 4.2% | 0hPa | 2.5V | 00:00:00 | 00:00:00 | 00:00:00 | |
| HA6NAB-11 | 2026-09-05 01:39:50 | 48.22703 | 17.86307 | 103° | 9km/h | 20999m | -12.2m/s | -55.1°C | 1.2% | 0hPa | 2.5V | 08:19:00 | 00:00:00 | 00:00:00 | |
| OM5KV | 2026-09-05 01:39:48 | 48.22705 | 17.86300 | 124° | 9km/h | 21023m | -12.7m/s | -55.1°C | 0% | 0hPa | 2.5V | 08:19:00 | 00:00:00 | 00:00:00 | |
| OE3MUC-15 | 2026-09-05 01:39:47 | 48.22707 | 17.86295 | 129° | 11km/h | 21047m | -12.7m/s | -55.1°C | 4.2% | 0hPa | 2.5V | 00:00:00 | 00:00:00 | 00:00:00 | |
| OM5KV | 2026-09-05 01:39:45 | 48.22708 | 17.86293 | 124° | 9km/h | 21059m | -12.7m/s | 0°C | 0% | 0hPa | 2.5V | 00:00:00 | 00:00:00 | 00:00:00 | |
| OE3JTB-15 | 2026-09-05 01:39:44 | 48.22710 | 17.86285 | 105° | 13km/h | 21083m | -12.9m/s | -55.1°C | 4.3% | 0hPa | 2.5V | 08:19:00 | 00:00:00 | 00:00:00 | |
| OE3MUC-15 | 2026-09-05 01:39:43 | 48.22711 | 17.86280 | 101° | 16km/h | 21096m | -13.0m/s | -55.1°C | 4.3% | 0hPa | 2.4V | 00:00:00 | 00:00:00 | 00:00:00 | |
| OE3OSB-13 | 2026-09-05 01:39:41 | 48.22713 | 17.86269 | 92° | 16km/h | 21122m | -12.9m/s | -55.1°C | 1.1% | -1.0hPa | 2.4V | 00:00:00 | 00:00:00 | 00:00:00 | |
| HA6NAB-11 | 2026-09-05 01:39:39 | 48.22713 | 17.86256 | 81° | 18km/h | 21147m | -12.2m/s | -54.9°C | 1.2% | 0hPa | 2.4V | 08:19:00 | 00:00:00 | 00:00:00 | |
| OM5KV | 2026-09-05 01:39:38 | 48.22713 | 17.86256 | 81° | 18km/h | 21147m | -12.2m/s | -54.9°C | 1.2% | 0hPa | 2.4V | 08:19:00 | 00:00:00 | 00:00:00 | |
| PETON7-10 | 2026-09-05 01:39:37 | 48.22711 | 17.86242 | 72° | 16km/h | 21170m | -12.7m/s | -54.5°C | 4.1% | 0hPa | 2.4V | 08:19:00 | 00:00:00 | 00:00:00 | |
| OE5DRO-10 | 2026-09-05 01:39:36 | 48.22710 | 17.86235 | 73° | 15km/h | 21183m | -13.0m/s | -54.5°C | 4.1% | 0hPa | 2.5V | 00:00:00 | 00:00:00 | 00:00:00 | |
| HA6NAB-11 | 2026-09-05 01:39:33 | 48.22709 | 17.86217 | 103° | 15km/h | 21220m | -12.7m/s | -54.7°C | 1.2% | 0hPa | 2.5V | 08:20:00 | 00:00:00 | 00:00:00 | |
| OM5KV | 2026-09-05 01:39:32 | 48.22709 | 17.86217 | 103° | 15km/h | 21220m | -12.7m/s | -54.7°C | 1.2% | 0hPa | 2.5V | 08:20:00 | 00:00:00 | 00:00:00 | |
| OM5KV | 2026-09-05 01:39:31 | 48.22710 | 17.86212 | 109° | 13km/h | 21232m | -12.8m/s | 0°C | 0% | 0hPa | 2.5V | 00:00:00 | 00:00:00 | 00:00:00 | |
| OE5DXL-15 | 2026-09-05 01:39:27 | 48.22719 | 17.86186 | 125° | 9km/h | 21294m | -13.4m/s | -54.4°C | 4.1% | 0hPa | 2.5V | 00:00:00 | 00:00:00 | 00:00:00 | |
| OM5KV | 2026-09-05 01:39:26 | 48.22719 | 17.86186 | 125° | 18km/h | 21294m | -13.4m/s | -54.4°C | 1.1% | 0hPa | 2.5V | 08:20:00 | 00:00:00 | 00:00:00 | |
| PG1ADW-2 | 2026-09-05 01:39:23 | 48.22729 | 17.86165 | 114° | 9km/h | 21344m | -12.9m/s | -54.3°C | 4.0% | 0hPa | 2.5V | 00:00:00 | 00:00:00 | 00:00:00 | |
| PETON7-10 | 2026-09-05 01:39:22 | 48.22730 | 17.86161 | 121° | 9km/h | 21356m | -13.5m/s | -54.3°C | 4.0% | 0hPa | 2.5V | 00:00:00 | 00:00:00 | 00:00:00 | |
| OM5KV | 2026-09-05 01:39:21 | 48.22730 | 17.86161 | 122° | 9km/h | 21356m | -13.5m/s | -54.3°C | 1.1% | 0hPa | 2.5V | 08:20:00 | 00:00:00 | 00:00:00 | |
| OE3MUC-15 | 2026-09-05 01:39:19 | 48.22735 | 17.86155 | 162° | 9km/h | 21395m | -12.5m/s | -54.4°C | 4.0% | 0hPa | 2.5V | 08:20:00 | 00:00:00 | 00:00:00 | |
| OM5KV | 2026-09-05 01:39:18 | 48.22735 | 17.86155 | 162° | 7km/h | 21395m | -12.6m/s | -54.4°C | 1.1% | 0hPa | 2.4V | 08:20:00 | 00:00:00 | 00:00:00 | |
| OE5DRO-10 | 2026-09-05 01:39:17 | 48.22739 | 17.86154 | 177° | 9km/h | 21420m | -13.2m/s | -54.4°C | 4.0% | 0hPa | 2.4V | 00:00:00 | 00:00:00 | 00:00:00 | |
| OE3MUC-15 | 2026-09-05 01:39:15 | 48.22744 | 17.86153 | 177° | 7km/h | 21446m | -12.7m/s | -54.5°C | 4.1% | 0hPa | 2.5V | 00:00:00 | 00:00:00 | 00:00:00 | |
| OE3JTB-15 | 2026-09-05 01:39:14 | 48.22747 | 17.86154 | 183° | 7km/h | 21459m | -12.5m/s | -54.5°C | 4.1% | 0hPa | 2.5V | 00:00:00 | 00:00:00 | 00:00:00 | |
| OE5MMP-10 | 2026-09-05 01:39:13 | 48.22749 | 17.86154 | 193° | 9km/h | 21471m | -12.6m/s | -54.5°C | 4.1% | 0hPa | 2.5V | 00:00:00 | 02:16:30 | 00:00:00 | |
| OM5KV | 2026-09-05 01:39:12 | 48.22749 | 17.86154 | 193° | 7km/h | 21471m | -12.7m/s | -54.6°C | 1.1% | 0hPa | 2.5V | 08:20:00 | 00:00:00 | 00:00:00 | |
| OE3MUC-15 | 2026-09-05 01:39:11 | 48.22752 | 17.86156 | 217° | 9km/h | 21495m | -13.4m/s | -54.6°C | 4.1% | 0hPa | 2.5V | 00:00:00 | 00:00:00 | 00:00:00 | |
| S52SK | 2026-09-05 01:39:09 | 48.22754 | 17.86158 | 219° | 9km/h | 21508m | -13.4m/s | -54.6°C | 1.1% | 0hPa | 2.5V | 00:00:00 | 00:00:00 | 00:00:00 | |
| PETON7-10 | 2026-09-05 01:39:07 | 48.22761 | 17.86163 | 190° | 7km/h | 21546m | -13.4m/s | -54.6°C | 4.2% | 0hPa | 2.5V | 00:00:00 | 02:16:24 | 00:00:00 | |
| OE3MUC-15 | 2026-09-05 01:39:03 | 48.22771 | 17.86162 | 183° | 5km/h | 21598m | -13.0m/s | -54.4°C | 4.1% | 0hPa | 2.5V | 00:00:00 | 00:00:00 | 00:00:00 | |
| OM5KV | 2026-09-05 01:39:01 | 48.22773 | 17.86162 | 202° | 4km/h | 21611m | -13.6m/s | -54.4°C | 1.1% | 0hPa | 2.5V | 08:20:00 | 00:00:00 | 00:00:00 | |
| OE3MUC-15 | 2026-09-05 01:38:59 | 48.22777 | 17.86167 | 231° | 5km/h | 21650m | -13.3m/s | -54.5°C | 4.1% | 0hPa | 2.5V | 00:00:00 | 00:00:00 | 00:00:00 | |
| OE5DRO-10 | 2026-09-05 01:38:58 | 48.22778 | 17.86168 | 204° | 4km/h | 21662m | -13.4m/s | -54.6°C | 4.2% | 0hPa | 2.5V | 00:00:00 | 00:00:00 | 00:00:00 | |
| OE5DXL-15 | 2026-09-05 01:38:57 | 48.22779 | 17.86169 | 182° | 5km/h | 21675m | -13.4m/s | -54.6°C | 4.2% | 0hPa | 2.5V | 00:00:00 | 00:00:00 | 00:00:00 | |
| OE3MUC-15 | 2026-09-05 01:38:55 | 48.22781 | 17.86169 | 348° | 4km/h | 21702m | -13.3m/s | -54.6°C | 4.2% | 0hPa | 2.4V | 00:00:00 | 00:00:00 | 00:00:00 | |
| OM5KV | 2026-09-05 01:38:54 | 48.22781 | 17.86169 | 349° | 2km/h | 21702m | -13.4m/s | -54.6°C | 1.2% | 0hPa | 2.5V | 08:20:00 | 00:00:00 | 00:00:00 | |
| OE5MMP-10 | 2026-09-05 01:38:53 | 48.22780 | 17.86171 | 254° | 4km/h | 21727m | -13.6m/s | -54.4°C | 4.1% | 0hPa | 2.5V | 00:00:00 | 02:16:10 | 00:00:00 | |
| PETON7-10 | 2026-09-05 01:38:52 | 48.22781 | 17.86172 | 227° | 4km/h | 21740m | -13.0m/s | -54.3°C | 4.1% | 0hPa | 2.5V | 00:00:00 | 00:00:00 | 00:00:00 | |
| OE3MUC-15 | 2026-09-05 01:38:51 | 48.22782 | 17.86172 | 159° | 4km/h | 21753m | -13.3m/s | -54.1°C | 4.1% | 0hPa | 2.4V | 00:00:00 | 00:00:00 | 00:00:00 | |
| OM5KV | 2026-09-05 01:38:48 | 48.22784 | 17.86170 | 87° | 2km/h | 21780m | -13.3m/s | -53.9°C | 1.1% | 0hPa | 2.4V | 08:20:00 | 00:00:00 | 00:00:00 | |
| OE3MUC-15 | 2026-09-05 01:38:47 | 48.22783 | 17.86169 | 149° | 4km/h | 21806m | -13.7m/s | -54.0°C | 3.9% | 0hPa | 2.4V | 00:00:00 | 00:00:00 | 00:00:00 | |
| HA6NAB-11 | 2026-09-05 01:38:46 | 48.22783 | 17.86169 | 0° | 0km/h | 21806m | -13.8m/s | -54.0°C | 1.0% | 0hPa | 2.4V | 08:20:00 | 00:00:00 | 00:00:00 | |
| OE3JTB-15 | 2026-09-05 01:38:45 | 48.22784 | 17.86168 | 129° | 7km/h | 21833m | -13.5m/s | -54.1°C | 4.0% | 0hPa | 2.4V | 00:00:00 | 02:16:02 | 00:00:00 | |
| PG1ADW-2 | 2026-09-05 01:38:43 | 48.22785 | 17.86165 | 57° | 5km/h | 21860m | -13.3m/s | -54.3°C | 4.1% | 0hPa | 2.4V | 08:20:00 | 02:16:00 | 00:00:00 | |
| ATIDSZ-14 | 2026-09-05 01:38:42 | 48.22785 | 17.86164 | 57° | 4km/h | 21859m | -13.3m/s | -54.3°C | 1.1% | 0hPa | 2.5V | 08:20:00 | 00:00:00 | 00:00:00 | |
| HA6NAB-11 | 2026-09-05 01:38:40 | 48.22784 | 17.86163 | 0° | 0km/h | 21885m | -13.6m/s | -54.4°C | 1.1% | 0hPa | 2.5V | 00:00:00 | 00:00:00 | 00:00:00 | |
| OE3MUC-15 | 2026-09-05 01:38:39 | 48.22785 | 17.86162 | 129° | 4km/h | 21911m | -13.5m/s | -54.1°C | 4.1% | 0hPa | 2.5V | 00:00:00 | 00:00:00 | 00:00:00 | |
| PETON7-10 | 2026-09-05 01:38:37 | 48.22787 | 17.86159 | 104° | 5km/h | 21938m | -12.9m/s | -54.0°C | 4.0% | 0hPa | 2.5V | 00:00:00 | 00:00:00 | 00:00:00 | |
| OE3MUC-15 | 2026-09-05 01:38:35 | 48.22789 | 17.86158 | 185° | 9km/h | 21964m | -13.2m/s | -54.1°C | 4.0% | 0hPa | 2.5V | 00:00:00 | 02:15:52 | 00:00:00 | |
| OE5MMP-10 | 2026-09-05 01:38:33 | 48.22793 | 17.86157 | 163° | 5km/h | 21989m | -13.6m/s | -54.3°C | 4.1% | 0hPa | 2.5V | 00:00:00 | 02:15:50 | 00:00:00 | |
| OM5KV | 2026-09-05 01:38:32 | 48.22793 | 17.86157 | 163° | 11km/h | 21989m | -13.6m/s | -54.3°C | 1.1% | 0hPa | 2.4V | 08:21:00 | 00:00:00 | 00:00:00 | |
| OE3MUC-15 | 2026-09-05 01:38:31 | 48.22797 | 17.86156 | 223° | 5km/h | 22016m | -13.5m/s | -54.3°C | 4.1% | 0hPa | 2.4V | 00:00:00 | 00:00:00 | 00:00:00 | |
| HA6NAB-11 | 2026-09-05 01:38:29 | 48.22798 | 17.86157 | 215° | 7km/h | 22029m | -13.8m/s | -54.4°C | 1.1% | 0hPa | 2.4V | 00:00:00 | 00:00:00 | 00:00:00 | |
| OE5DXL-15 | 2026-09-05 01:38:27 | 48.22802 | 17.86160 | 164° | 15km/h | 22068m | -13.4m/s | -54.1°C | 4.1% | 0hPa | 2.4V | 00:00:00 | 00:00:00 | 00:00:00 | |
| OM5KV | 2026-09-05 01:38:26 | 48.22802 | 17.86160 | 0° | 0km/h | 22068m | -13.5m/s | -54.2°C | 1.1% | 0hPa | 2.4V | 08:21:00 | 00:00:00 | 00:00:00 | |
| HA6NAB-11 | 2026-09-05 01:38:24 | 48.22800 | 17.86162 | 328° | 7km/h | 22095m | -13.8m/s | -54.2°C | 1.1% | 0hPa | 2.4V | 00:00:00 | 00:00:00 | 00:00:00 | |
| OE3MUC-15 | 2026-09-05 01:38:23 | 48.22798 | 17.86165 | 317° | 7km/h | 22121m | -13.7m/s | -54.0°C | 4.0% | 0hPa | 2.4V | 00:00:00 | 00:00:00 | 00:00:00 | |
| PETON7-10 | 2026-09-05 01:38:22 | 48.22797 | 17.86166 | 358° | 13km/h | 22134m | -13.7m/s | -54.0°C | 4.1% | 0hPa | 2.4V | 00:00:00 | 02:15:39 | 00:00:00 | |
| OM5KV | 2026-09-05 01:38:21 | 48.22797 | 17.86166 | 358° | 4km/h | 22134m | -13.7m/s | -54.1°C | 1.1% | 0hPa | 2.4V | 08:21:00 | 00:00:00 | 00:00:00 | |
| OE5DRO-10 | 2026-09-05 01:38:20 | 48.22793 | 17.86166 | 2° | 16km/h | 22161m | -13.6m/s | -53.9°C | 4.0% | 0hPa | 2.4V | 08:21:00 | 00:00:00 | 00:00:00 | |
| OE3MUC-15 | 2026-09-05 01:38:19 | 48.22791 | 17.86166 | 359° | 9km/h | 22174m | -14.2m/s | -53.8°C | 4.0% | 0hPa | 2.4V | 00:00:00 | 00:00:00 | 00:00:00 | |
| HA6NAB-11 | 2026-09-05 01:38:18 | 48.22790 | 17.86166 | 359° | 9km/h | 22174m | -14.2m/s | -53.8°C | 1.1% | 0hPa | 2.5V | 00:00:00 | 00:00:00 | 00:00:00 | |
| OM5KV | 2026-09-05 01:38:16 | 48.22787 | 17.86165 | 18° | 7km/h | 22201m | -13.9m/s | -53.7°C | 1.1% | 0hPa | 2.5V | 08:21:00 | 00:00:00 | 00:00:00 | |
| OE3MUC-15 | 2026-09-05 01:38:15 | 48.22783 | 17.86162 | 24° | 13km/h | 22229m | -13.9m/s | -53.6°C | 3.9% | 0hPa | 2.5V | 00:00:00 | 00:00:00 | 00:00:00 | |
| OE5MMP-10 | 2026-09-05 01:38:13 | 48.22777 | 17.86159 | 13° | 20km/h | 22256m | -13.6m/s | -53.7°C | 3.9% | 0hPa | 2.5V | 00:00:00 | 02:15:30 | 00:00:00 | |
| OE3MUC-15 | 2026-09-05 01:38:11 | 48.22772 | 17.86153 | 42° | 22km/h | 22283m | -14.2m/s | -53.7°C | 3.9% | 0hPa | 2.5V | 00:00:00 | 00:00:00 | 00:00:00 | |
| OM5KV | 2026-09-05 01:38:10 | 48.22772 | 17.86153 | 42° | 18km/h | 22283m | -14.2m/s | -53.7°C | 1.0% | 0hPa | 2.5V | 08:21:00 | 00:00:00 | 00:00:00 | |
| OE3OSB-13 | 2026-09-05 01:38:08 | 48.22753 | 17.86136 | 41° | 22km/h | 22336m | -13.7m/s | -53.9°C | 0.9% | -1.0hPa | 2.5V | 00:00:00 | 00:00:00 | 00:00:00 | |
| OE3MUC-15 | 2026-09-05 01:38:07 | 48.22753 | 17.86136 | 42° | 26km/h | 22337m | -13.7m/s | -53.9°C | 3.9% | 0hPa | 2.5V | 08:21:00 | 00:00:00 | 00:00:00 | |
| PG1ADW-2 | 2026-09-05 01:38:03 | 48.22734 | 17.86113 | 37° | 22km/h | 22391m | -13.5m/s | -54.1°C | 4.1% | 0hPa | 2.4V | 00:00:00 | 00:00:00 | 00:00:00 | |
| ATIDSZ-14 | 2026-09-05 01:38:02 | 48.22734 | 17.86113 | 37° | 20km/h | 22391m | -13.6m/s | -54.2°C | 1.1% | 0hPa | 2.4V | 08:21:00 | 00:00:00 | 00:00:00 | |
| OE5DRO-10 | 2026-09-05 01:38:01 | 48.22728 | 17.86102 | 51° | 22km/h | 22418m | -13.8m/s | -54.2°C | 4.1% | 0hPa | 2.4V | 00:00:00 | 00:00:00 | 00:00:00 | |
| OE3MUC-15 | 2026-09-05 01:37:59 | 48.22719 | 17.86091 | 37° | 22km/h | 22445m | -13.6m/s | -54.2°C | 4.2% | 0hPa | 2.4V | 00:00:00 | 00:00:00 | 00:00:00 | |
| OE5DXL-15 | 2026-09-05 01:37:57 | 48.22713 | 17.86080 | 58° | 16km/h | 22472m | -13.8m/s | -53.9°C | 4.1% | 0hPa | 2.4V | 00:00:00 | 00:00:00 | 00:00:00 | |
| OE3MUC-15 | 2026-09-05 01:37:55 | 48.22705 | 17.86066 | 44° | 22km/h | 22499m | -14.3m/s | -53.8°C | 4.0% | 0hPa | 2.4V | 00:00:00 | 00:00:00 | 00:00:00 | |
| OE5MMP-10 | 2026-09-05 01:37:53 | 48.22699 | 17.86053 | 62° | 22km/h | 22526m | -14.2m/s | -53.6°C | 3.9% | 0hPa | 2.4V | 00:00:00 | 02:15:10 | 00:00:00 | |
| PETON7-10 | 2026-09-05 01:37:52 | 48.22696 | 17.86045 | 59° | 20km/h | 22540m | -13.7m/s | -53.6°C | 3.9% | 0hPa | 2.4V | 00:00:00 | 00:00:00 | 00:00:00 | |
| OM5KV | 2026-09-05 01:37:51 | 48.22696 | 17.86045 | 59° | 26km/h | 22540m | -13.8m/s | -53.6°C | 1.1% | 0hPa | 2.4V | 08:21:00 | 00:00:00 | 00:00:00 | |
| OE3MUC-15 | 2026-09-05 01:37:47 | 48.22679 | 17.86010 | 47° | 22km/h | 22609m | -14.0m/s | -53.7°C | 3.9% | 0hPa | 2.4V | 00:00:00 | 00:00:00 | 00:00:00 | |
| OM5KV | 2026-09-05 01:37:46 | 48.22679 | 17.86010 | 47° | 26km/h | 22609m | -14.1m/s | -53.7°C | 0% | 0hPa | 2.4V | 08:22:00 | 00:00:00 | 00:00:00 | |
| HA6NAB-11 | 2026-09-05 01:37:44 | 48.22671 | 17.85999 | 45° | 16km/h | 22636m | -14.0m/s | -53.8°C | 1.1% | 0hPa | 2.4V | 00:00:00 | 00:00:00 | 00:00:00 | |
| PG1ADW-2 | 2026-09-05 01:37:43 | 48.22665 | 17.85987 | 53° | 9km/h | 22665m | -14.3m/s | -53.9°C | 4.0% | 0hPa | 2.4V | 00:00:00 | 00:00:00 | 00:00:00 | |
| OE5DRO-10 | 2026-09-05 01:37:42 | 48.22662 | 17.85982 | 36° | 9km/h | 22679m | -14.6m/s | -53.9°C | 4.0% | 0hPa | 2.4V | 00:00:00 | 00:00:00 | 00:00:00 | |
| ATIDSZ-14 | 2026-09-05 01:37:41 | 48.22662 | 17.85982 | 36° | 16km/h | 22679m | -14.6m/s | -54.0°C | 1.1% | 0hPa | 2.4V | 08:22:00 | 00:00:00 | 00:00:00 | |
| OM5KV | 2026-09-05 01:37:39 | 48.22658 | 17.85975 | 69° | 13km/h | 22707m | -14.5m/s | -53.9°C | 0% | 0hPa | 2.4V | 08:22:00 | 00:00:00 | 00:00:00 | |
| HA6NAB-11 | 2026-09-05 01:37:38 | 48.22656 | 17.85970 | 60° | 15km/h | 22721m | -14.3m/s | -53.9°C | 1.1% | 0hPa | 2.4V | 00:00:00 | 00:00:00 | 00:00:00 | |
| PETON7-10 | 2026-09-05 01:37:37 | 48.22653 | 17.85964 | 39° | 5km/h | 22748m | -13.8m/s | -53.9°C | 4.0% | 0hPa | 2.4V | 00:00:00 | 02:14:54 | 00:00:00 | |
| OM5KV | 2026-09-05 01:37:35 | 48.22652 | 17.85961 | 67° | 9km/h | 22762m | -14.1m/s | -54.0°C | 1.1% | 0hPa | 2.4V | 08:22:00 | 00:00:00 | 00:00:00 | |
| OM5KV | 2026-09-05 01:37:34 | 48.22651 | 17.85958 | 53° | 9km/h | 22776m | -14.2m/s | -54.0°C | 1.1% | 0hPa | 2.4V | 08:22:00 | 00:00:00 | 00:00:00 | |
| OE5MMP-10 | 2026-09-05 01:37:33 | 48.22647 | 17.85955 | 20° | 5km/h | 22804m | -14.5m/s | -54.1°C | 4.0% | 0hPa | 2.4V | 08:21:00 | 02:14:50 | 00:00:00 | |
| HA6NAB-11 | 2026-09-05 01:37:32 | 48.22647 | 17.85955 | 20° | 5km/h | 22804m | -14.6m/s | -54.1°C | 1.1% | 0hPa | 2.4V | 00:00:00 | 00:00:00 | 00:00:00 | |
| OM5KV | 2026-09-05 01:37:29 | 48.22642 | 17.85950 | 3° | 9km/h | 22847m | -14.2m/s | -54.4°C | 1.1% | 0hPa | 2.4V | 08:22:00 | 00:00:00 | 00:00:00 | |
| OE5DXL-15 | 2026-09-05 01:37:27 | 48.22639 | 17.85949 | 44° | 11km/h | 22888m | -14.7m/s | -54.2°C | 4.1% | 0hPa | 2.4V | 08:22:00 | 00:00:00 | 00:00:00 | |
| HA6NAB-11 | 2026-09-05 01:37:26 | 48.22639 | 17.85949 | 44° | 4km/h | 22888m | -14.7m/s | -54.3°C | 1.1% | 0hPa | 2.4V | 00:00:00 | 00:00:00 | 00:00:00 | |
| PG1ADW-2 | 2026-09-05 01:37:23 | 48.22636 | 17.85952 | 337° | 11km/h | 22944m | -14.8m/s | -54.1°C | 4.0% | 0hPa | 2.4V | 00:00:00 | 02:14:40 | 00:00:00 | |
| PETON7-10 | 2026-09-05 01:37:22 | 48.22636 | 17.85953 | 330° | 11km/h | 22958m | -14.4m/s | -54.1°C | 4.0% | 0hPa | 2.4V | 08:22:00 | 00:00:00 | 00:00:00 | |
| ATIDSZ-14 | 2026-09-05 01:37:21 | 48.22636 | 17.85953 | 330° | 7km/h | 22958m | -14.5m/s | -54.1°C | 1.1% | 0hPa | 2.5V | 08:22:00 | 00:00:00 | 00:00:00 | |
| HA6NAB-11 | 2026-09-05 01:37:20 | 48.22635 | 17.85955 | 269° | 5km/h | 22972m | -15.1m/s | -54.1°C | 1.1% | 0hPa | 2.5V | 00:00:00 | 00:00:00 | 00:00:00 | |
| OE3MUC-15 | 2026-09-05 01:37:19 | 48.22634 | 17.85958 | 1° | 7km/h | 23000m | -15.0m/s | -54.2°C | 4.1% | 0hPa | 2.5V | 00:00:00 | 00:00:00 | 00:00:00 | |
| OM5KV | 2026-09-05 01:37:18 | 48.22634 | 17.85958 | 1° | 5km/h | 23000m | -15.1m/s | -54.2°C | 1.1% | 0hPa | 2.5V | 08:22:00 | 00:00:00 | 00:00:00 | |
| OM5KV | 2026-09-05 01:37:16 | 48.22630 | 17.85959 | 357° | 7km/h | 23029m | -15.1m/s | -54.3°C | 1.1% | 0hPa | 2.5V | 08:22:00 | 00:00:00 | 00:00:00 | |
| OE3MUC-15 | 2026-09-05 01:37:15 | 48.22625 | 17.85957 | 19° | 15km/h | 23059m | -14.7m/s | -54.1°C | 4.0% | 0hPa | 2.5V | 00:00:00 | 00:00:00 | 00:00:00 | |
| HA6NAB-11 | 2026-09-05 01:37:14 | 48.22626 | 17.85957 | 20° | 16km/h | 23059m | -14.8m/s | -54.1°C | 1.1% | 0hPa | 2.5V | 00:00:00 | 00:00:00 | 00:00:00 | |
| OE5MMP-10 | 2026-09-05 01:37:13 | 48.22619 | 17.85953 | 35° | 15km/h | 23088m | -14.2m/s | -54.2°C | 4.1% | 0hPa | 2.5V | 00:00:00 | 02:14:30 | 00:00:00 | |
| OE3MUC-15 | 2026-09-05 01:37:11 | 48.22613 | 17.85947 | 26° | 15km/h | 23116m | -14.6m/s | -54.3°C | 4.2% | 0hPa | 2.5V | 00:00:00 | 00:00:00 | 00:00:00 | |
| PETON7-10 | 2026-09-05 01:37:07 | 48.22601 | 17.85933 | 25° | 13km/h | 23173m | -15.3m/s | -53.9°C | 4.0% | 0hPa | 2.5V | 00:00:00 | 00:00:00 | 00:00:00 | |
| OE3OSB-13 | 2026-09-05 01:37:06 | 48.22596 | 17.85929 | 43° | 11km/h | 23202m | -15.0m/s | -53.9°C | 1.0% | -1.0hPa | 2.5V | 00:00:00 | 00:00:00 | 00:00:00 | |
| OE5DRO-10 | 2026-09-05 01:37:04 | 48.22593 | 17.85926 | 30° | 13km/h | 23217m | -14.5m/s | -54.0°C | 4.0% | 0hPa | 2.5V | 00:00:00 | 00:00:00 | 00:00:00 | |
| OE3MUC-15 | 2026-09-05 01:37:03 | 48.22590 | 17.85924 | 12° | 13km/h | 23231m | -15.4m/s | -54.0°C | 4.0% | 0hPa | 2.5V | 00:00:00 | 00:00:00 | 00:00:00 | |
| OM5KV | 2026-09-05 01:37:01 | 48.22588 | 17.85923 | 21° | 9km/h | 23246m | -15.0m/s | -54.2°C | 1.0% | 0hPa | 2.5V | 08:22:00 | 00:00:00 | 00:00:00 | |
| SONDE2-11 | 2026-09-05 01:36:56 | 48.22560 | 17.85873 | 55° | 16km/h | 23449m | -15.1m/s | -54.1°C | 1.0% | -1.0hPa | 2.5V | 00:00:00 | 00:00:00 | 00:00:00 | |
| OE3MUC-15 | 2026-09-05 01:36:55 | 48.22570 | 17.85903 | 52° | 11km/h | 23346m | -14.8m/s | -54.2°C | 4.1% | 0hPa | 2.5V | 08:22:00 | 00:00:00 | 00:00:00 | |
| OE3JTB-15 | 2026-09-05 01:36:54 | 48.22568 | 17.85899 | 64° | 11km/h | 23361m | -15.3m/s | -54.2°C | 4.2% | 0hPa | 2.5V | 00:00:00 | 00:00:00 | 00:00:00 | |
| OE5MMP-10 | 2026-09-05 01:36:53 | 48.22567 | 17.85895 | 56° | 13km/h | 23376m | -15.7m/s | -54.2°C | 4.2% | 0hPa | 2.4V | 00:00:00 | 02:14:10 | 00:00:00 | |
| PETON7-10 | 2026-09-05 01:36:52 | 48.22566 | 17.85891 | 64° | 15km/h | 23390m | -14.9m/s | -54.2°C | 4.2% | 0hPa | 2.4V | 00:00:00 | 02:14:09 | 00:00:00 | |
| OE3MUC-15 | 2026-09-05 01:36:51 | 48.22564 | 17.85887 | 70° | 15km/h | 23405m | -15.2m/s | -54.2°C | 4.2% | 0hPa | 2.4V | 00:00:00 | 00:00:00 | 00:00:00 | |
| OM5KV | 2026-09-05 01:36:48 | 48.22561 | 17.85878 | 74° | 13km/h | 23435m | -15.2m/s | -54.1°C | 1.1% | 0hPa | 2.4V | 08:23:00 | 00:00:00 | 00:00:00 | |
| OE3MUC-15 | 2026-09-05 01:36:47 | 48.22558 | 17.85868 | 73° | 16km/h | 23464m | -15.4m/s | -54.1°C | 4.2% | 0hPa | 2.4V | 00:00:00 | 00:00:00 | 00:00:00 | |
| OE5DRO-10 | 2026-09-05 01:36:45 | 48.22556 | 17.85857 | 67° | 11km/h | 23493m | -15.0m/s | -54.0°C | 4.1% | 0hPa | 2.4V | 00:00:00 | 00:00:00 | 00:00:00 | |
| OE5MMP-10 | 2026-09-05 01:36:43 | 48.22555 | 17.85845 | 81° | 11km/h | 23523m | -15.0m/s | -54.0°C | 4.2% | 0hPa | 2.4V | 00:00:00 | 02:14:00 | 00:00:00 | |
| OE3MUC-15 | 2026-09-05 01:36:39 | 48.22557 | 17.85825 | 106° | 11km/h | 23581m | -15.3m/s | -53.8°C | 4.1% | 0hPa | 2.4V | 00:00:00 | 00:00:00 | 00:00:00 | |
| PETON7-10 | 2026-09-05 01:36:37 | 48.22558 | 17.85817 | 100° | 11km/h | 23610m | -15.0m/s | -53.7°C | 4.1% | 0hPa | 2.4V | 00:00:00 | 00:00:00 | 00:00:00 | |
| EDDB2-12 | 2026-09-05 01:36:36 | 48.22557 | 17.85810 | 94° | 7km/h | 23640m | -15.4m/s | -53.4°C | 0.9% | -1.0hPa | 2.4V | 00:00:00 | 00:00:00 | 00:00:00 | |
| OE3MUC-15 | 2026-09-05 01:36:35 | 48.22557 | 17.85810 | 95° | 9km/h | 23640m | -15.4m/s | -53.3°C | 3.9% | 0hPa | 2.4V | 00:00:00 | 00:00:00 | 00:00:00 | |
| OM5KV | 2026-09-05 01:36:34 | 48.22557 | 17.85810 | 96° | 7km/h | 23640m | -15.4m/s | -53.4°C | 1.0% | 0hPa | 2.4V | 08:23:00 | 00:00:00 | 00:00:00 | |
| OE3MUC-15 | 2026-09-05 01:36:31 | 48.22555 | 17.85797 | 56° | 9km/h | 23699m | -15.7m/s | -53.0°C | 3.8% | 0hPa | 2.4V | 00:00:00 | 00:00:00 | 00:00:00 | |
| OE5MMP-10 | 2026-09-05 01:36:30 | 48.22554 | 17.85793 | 86° | 11km/h | 23714m | -15.8m/s | -52.9°C | 3.8% | 0hPa | 2.4V | 00:00:00 | 02:13:47 | 00:00:00 | |
| OM5KV | 2026-09-05 01:36:29 | 48.22554 | 17.85793 | 87° | 13km/h | 23714m | -15.9m/s | -53.0°C | 1.0% | 0hPa | 2.5V | 08:23:00 | 00:00:00 | 00:00:00 | |
| OE3MUC-15 | 2026-09-05 01:36:27 | 48.22554 | 17.85784 | 66° | 11km/h | 23760m | -15.8m/s | -52.6°C | 3.7% | 0hPa | 2.5V | 00:00:00 | 00:00:00 | 00:00:00 | |
| OE5DXL-15 | 2026-09-05 01:36:26 | 48.22554 | 17.85780 | 107° | 11km/h | 23776m | -15.6m/s | -52.7°C | 3.8% | 0hPa | 2.5V | 00:00:00 | 00:00:00 | 00:00:00 | |
| SONDE2-11 | 2026-09-05 01:36:25 | 48.22554 | 17.85776 | 78° | 9km/h | 23791m | -15.6m/s | -52.9°C | 0.9% | -1.0hPa | 2.5V | 00:00:00 | 00:00:00 | 00:00:00 | |
| OE3MUC-15 | 2026-09-05 01:36:23 | 48.22556 | 17.85768 | 89° | 11km/h | 23820m | -15.5m/s | -52.9°C | 3.8% | 0hPa | 2.5V | 00:00:00 | 00:00:00 | 00:00:00 | |
| PETON7-10 | 2026-09-05 01:36:22 | 48.22556 | 17.85763 | 120° | 11km/h | 23835m | -15.7m/s | -52.9°C | 3.8% | 0hPa | 2.5V | 00:00:00 | 00:00:00 | 00:00:00 | |
| OE5MMP-10 | 2026-09-05 01:36:20 | 48.22558 | 17.85756 | 129° | 11km/h | 23866m | -15.3m/s | -52.9°C | 3.8% | 0hPa | 2.5V | 00:00:00 | 02:13:37 | 00:00:00 | |
| OE3MUC-15 | 2026-09-05 01:36:19 | 48.22559 | 17.85753 | 95° | 9km/h | 23881m | -15.4m/s | -53.0°C | 3.9% | 0hPa | 2.5V | 08:23:00 | 00:00:00 | 00:00:00 | |
| OM5KV | 2026-09-05 01:36:18 | 48.22559 | 17.85753 | 96° | 13km/h | 23881m | -15.4m/s | -53.0°C | 1.0% | 0hPa | 2.5V | 08:23:00 | 00:00:00 | 00:00:00 | |
| OM5KV | 2026-09-05 01:36:17 | 48.22560 | 17.85750 | 135° | 7km/h | 23896m | -15.6m/s | -53.0°C | 1.0% | 0hPa | 2.5V | 08:23:00 | 00:00:00 | 00:00:00 | |
| OE3MUC-15 | 2026-09-05 01:36:15 | 48.22563 | 17.85740 | 103° | 11km/h | 23942m | -15.4m/s | -53.1°C | 3.9% | 0hPa | 2.5V | 00:00:00 | 00:00:00 | 00:00:00 | |
| OE3JTB-15 | 2026-09-05 01:36:14 | 48.22564 | 17.85737 | 142° | 9km/h | 23957m | -15.1m/s | -53.1°C | 3.9% | 0hPa | 2.5V | 00:00:00 | 00:00:00 | 00:00:00 | |
| OE3MUC-15 | 2026-09-05 01:36:11 | 48.22570 | 17.85729 | 136° | 15km/h | 24001m | -15.6m/s | -53.3°C | 4.0% | 0hPa | 2.5V | 00:00:00 | 00:00:00 | 00:00:00 | |
| OE5MMP-10 | 2026-09-05 01:36:09 | 48.22576 | 17.85723 | 145° | 13km/h | 24031m | -15.5m/s | -53.3°C | 4.1% | 0hPa | 2.5V | 00:00:00 | 02:13:26 | 00:00:00 | |
| OE3MUC-15 | 2026-09-05 01:36:07 | 48.22584 | 17.85719 | 180° | 16km/h | 24061m | -15.9m/s | -53.3°C | 4.1% | 0hPa | 2.5V | 00:00:00 | 00:00:00 | 00:00:00 | |
| HA6NAB-11 | 2026-09-05 01:36:06 | 48.22584 | 17.85719 | 181° | 16km/h | 24061m | -15.9m/s | -53.4°C | 1.0% | 0hPa | 2.5V | 00:00:00 | 00:00:00 | 00:00:00 | |
| OM5KV | 2026-09-05 01:36:05 | 48.22588 | 17.85718 | 167° | 20km/h | 24076m | -16.1m/s | -53.3°C | 1.1% | 0hPa | 2.5V | 08:24:00 | 00:00:00 | 00:00:00 | |
| OE3OSB-13 | 2026-09-05 01:36:04 | 48.22601 | 17.85719 | 193° | 15km/h | 24123m | -15.3m/s | -53.2°C | 1.0% | -1.0hPa | 2.5V | 00:00:00 | 00:00:00 | 00:00:00 | |
| OE3MUC-15 | 2026-09-05 01:36:03 | 48.22601 | 17.85719 | 194° | 9km/h | 24123m | -15.3m/s | -53.2°C | 4.1% | 0hPa | 2.5V | 00:00:00 | 00:00:00 | 00:00:00 | |
| SONDE2-11 | 2026-09-05 01:35:54 | 48.22611 | 17.85705 | 101° | 11km/h | 24259m | -15.5m/s | -52.6°C | 0.9% | -1.0hPa | 2.5V | 00:00:00 | 00:00:00 | 00:00:00 | |
| PETON7-10 | 2026-09-05 01:35:52 | 48.22611 | 17.85695 | 114° | 16km/h | 24290m | -15.9m/s | -52.2°C | 3.9% | 0hPa | 2.5V | 00:00:00 | 00:00:00 | 00:00:00 | |
| OE3MUC-15 | 2026-09-05 01:35:51 | 48.22612 | 17.85692 | 100° | 9km/h | 24305m | -16.1m/s | -52.2°C | 3.9% | 0hPa | 2.5V | 00:00:00 | 00:00:00 | 00:00:00 | |
| S52SK | 2026-09-05 01:35:50 | 48.22612 | 17.85692 | 101° | 5km/h | 24305m | -16.1m/s | -52.2°C | 1.0% | 0hPa | 2.5V | 00:00:00 | 00:00:00 | 00:00:00 | |
| OE5MMP-10 | 2026-09-05 01:35:49 | 48.22613 | 17.85686 | 111° | 16km/h | 24336m | -15.5m/s | -51.9°C | 3.9% | 0hPa | 2.5V | 00:00:00 | 02:13:06 | 00:00:00 | |
| OE5DRO-10 | 2026-09-05 01:35:48 | 48.22613 | 17.85684 | 56° | 18km/h | 24351m | -15.5m/s | -51.7°C | 3.8% | 0hPa | 2.5V | 00:00:00 | 00:00:00 | 00:00:00 | |
| OE3MUC-15 | 2026-09-05 01:35:47 | 48.22612 | 17.85680 | 81° | 15km/h | 24367m | -15.9m/s | -51.6°C | 3.8% | 0hPa | 2.5V | 00:00:00 | 00:00:00 | 00:00:00 | |
| OE3JTB-15 | 2026-09-05 01:35:45 | 48.22609 | 17.85673 | 61° | 15km/h | 24398m | -16.0m/s | -51.1°C | 3.6% | 0hPa | 2.5V | 00:00:00 | 02:13:02 | 00:00:00 | |
| OE3MUC-15 | 2026-09-05 01:35:43 | 48.22605 | 17.85660 | 56° | 24km/h | 24429m | -15.4m/s | -50.9°C | 3.5% | 0hPa | 2.5V | 08:23:00 | 00:00:00 | 00:00:00 | |
| OM5KV | 2026-09-05 01:35:42 | 48.22605 | 17.85660 | 56° | 24km/h | 24429m | -15.4m/s | -51.0°C | 0.9% | 0hPa | 2.4V | 08:24:00 | 00:00:00 | 00:00:00 | |
| OM5KV | 2026-09-05 01:35:41 | 48.22602 | 17.85653 | 75° | 24km/h | 24444m | -15.7m/s | -51.0°C | 0.9% | 0hPa | 2.4V | 08:24:00 | 00:00:00 | 00:00:00 | |
| OE5MMP-10 | 2026-09-05 01:35:39 | 48.22598 | 17.85627 | 85° | 18km/h | 24490m | -15.9m/s | -51.0°C | 3.6% | 0hPa | 2.4V | 00:00:00 | 02:12:56 | 00:00:00 | |
| ATIDSZ-14 | 2026-09-05 01:35:38 | 48.22598 | 17.85627 | 85° | 24km/h | 24490m | -16.0m/s | -51.0°C | 0.9% | 0hPa | 2.4V | 00:00:00 | 00:00:00 | 00:00:00 | |
| PETON7-10 | 2026-09-05 01:35:37 | 48.22596 | 17.85610 | 83° | 16km/h | 24521m | -16.2m/s | -51.1°C | 3.6% | 0hPa | 2.4V | 00:00:00 | 00:00:00 | 00:00:00 | |
| OM5KV | 2026-09-05 01:35:36 | 48.22596 | 17.85610 | 84° | 26km/h | 24521m | -16.3m/s | -51.1°C | 0.9% | 0hPa | 2.4V | 08:24:00 | 00:00:00 | 00:00:00 | |
| OM5KV | 2026-09-05 01:35:34 | 48.22595 | 17.85595 | 80° | 15km/h | 24553m | -16.7m/s | -51.1°C | 0.9% | 0hPa | 2.4V | 08:24:00 | 00:00:00 | 00:00:00 | |
| EDDB2-12 | 2026-09-05 01:35:33 | 48.22596 | 17.85582 | 92° | 11km/h | 24584m | -16.3m/s | -51.0°C | 0.8% | -1.0hPa | 2.4V | 00:00:00 | 00:00:00 | 00:00:00 | |
| OE5MMP-10 | 2026-09-05 01:35:29 | 48.22593 | 17.85562 | 58° | 13km/h | 24648m | -16.4m/s | -50.9°C | 3.6% | 0hPa | 2.4V | 00:00:00 | 02:12:46 | 00:00:00 | |
| DB0NH | 2026-09-05 01:35:27 | 48.22592 | 17.85551 | 90° | 15km/h | 24679m | -17.0m/s | -50.7°C | 3.5% | 0hPa | 2.5V | 00:00:00 | 02:12:44 | 00:00:00 | |
| OE5DXL-15 | 2026-09-05 01:35:26 | 48.22591 | 17.85546 | 78° | 9km/h | 24695m | -16.6m/s | -50.7°C | 3.5% | 0hPa | 2.5V | 00:00:00 | 00:00:00 | 00:00:00 | |
| OM5KV | 2026-09-05 01:35:25 | 48.22591 | 17.85546 | 79° | 18km/h | 24695m | -16.6m/s | -50.7°C | 0.9% | 0hPa | 2.5V | 08:24:00 | 00:00:00 | 00:00:00 | |
| OM5KV | 2026-09-05 01:35:24 | 48.22591 | 17.85539 | 91° | 16km/h | 24711m | -16.5m/s | -50.7°C | 0.9% | 0hPa | 2.5V | 08:24:00 | 00:00:00 | 00:00:00 | |
| PG1ADW-2 | 2026-09-05 01:35:23 | 48.22592 | 17.85529 | 97° | 7km/h | 24744m | -16.7m/s | -50.5°C | 3.4% | 0hPa | 2.5V | 00:00:00 | 00:00:00 | 00:00:00 | |
| PETON7-10 | 2026-09-05 01:35:22 | 48.22592 | 17.85524 | 109° | 5km/h | 24759m | -16.6m/s | -50.4°C | 3.4% | 0hPa | 2.5V | 00:00:00 | 02:12:39 | 00:00:00 | |
| OE3MUC-15 | 2026-09-05 01:35:19 | 48.22595 | 17.85514 | 124° | 5km/h | 24808m | -16.5m/s | -50.1°C | 3.3% | 0hPa | 2.5V | 00:00:00 | 00:00:00 | 00:00:00 | |
| OE3MUC-15 | 2026-09-05 01:35:15 | 48.22596 | 17.85513 | 291° | 4km/h | 24872m | -17.0m/s | -50.2°C | 3.4% | 0hPa | 2.5V | 00:00:00 | 00:00:00 | 00:00:00 | |
| OM5KV | 2026-09-05 01:35:13 | 48.22596 | 17.85513 | 30° | 5km/h | 24889m | -17.0m/s | -50.3°C | 0.8% | 0hPa | 2.5V | 08:25:00 | 00:00:00 | 00:00:00 | |
| OE3JTB-15 | 2026-09-05 01:35:12 | 48.22595 | 17.85513 | 357° | 13km/h | 24921m | -17.0m/s | -50.3°C | 3.4% | 0hPa | 2.5V | 00:00:00 | 00:00:00 | 00:00:00 | |
| OE3MUC-15 | 2026-09-05 01:35:11 | 48.22594 | 17.85512 | 49° | 7km/h | 24938m | -16.6m/s | -50.4°C | 3.4% | 0hPa | 2.5V | 00:00:00 | 00:00:00 | 00:00:00 | |
| OE5DRO-10 | 2026-09-05 01:35:10 | 48.22594 | 17.85510 | 100° | 13km/h | 24954m | -16.8m/s | -50.4°C | 3.4% | 0hPa | 2.5V | 00:00:00 | 00:00:00 | 00:00:00 | |
| OE5MMP-10 | 2026-09-05 01:35:09 | 48.22593 | 17.85509 | 44° | 11km/h | 24970m | -17.1m/s | -50.5°C | 3.5% | 0hPa | 2.5V | 00:00:00 | 02:12:26 | 00:00:00 | |
| PETON7-10 | 2026-09-05 01:35:07 | 48.22592 | 17.85504 | 89° | 13km/h | 25002m | -16.9m/s | -50.5°C | 3.5% | 0hPa | 2.5V | 08:24:00 | 00:00:00 | 00:00:00 | |
| OM5KV | 2026-09-05 01:35:06 | 48.22592 | 17.85504 | 89° | 7km/h | 25002m | -17.0m/s | -50.5°C | 0.9% | 0hPa | 2.5V | 08:25:00 | 00:00:00 | 00:00:00 | |
| OE3MUC-15 | 2026-09-05 01:35:03 | 48.22588 | 17.85493 | 54° | 13km/h | 25068m | -16.6m/s | -50.7°C | 3.6% | 0hPa | 2.5V | 00:00:00 | 00:00:00 | 00:00:00 | |
| OE3OSB-13 | 2026-09-05 01:35:02 | 48.22584 | 17.85485 | 66° | 16km/h | 25100m | -17.3m/s | -50.7°C | 0.8% | -1.0hPa | 2.5V | 00:00:00 | 00:00:00 | 00:00:00 | |
| OE5MMP-10 | 2026-09-05 01:34:59 | 48.22581 | 17.85475 | 56° | 18km/h | 25133m | -16.7m/s | -50.6°C | 3.6% | 0hPa | 2.5V | 00:00:00 | 02:12:16 | 00:00:00 | |
| HA6NAB-11 | 2026-09-05 01:34:57 | 48.22580 | 17.85469 | 72° | 20km/h | 25150m | -16.9m/s | -50.6°C | 0.9% | 0hPa | 2.4V | 00:00:00 | 00:00:00 | 00:00:00 | |
| OE5DXL-15 | 2026-09-05 01:34:56 | 48.22578 | 17.85458 | 60° | 15km/h | 25182m | -17.4m/s | -50.6°C | 3.6% | 0hPa | 2.4V | 00:00:00 | 00:00:00 | 00:00:00 | |
| OE3MUC-15 | 2026-09-05 01:34:55 | 48.22576 | 17.85453 | 68° | 18km/h | 25198m | -17.2m/s | -50.6°C | 3.6% | 0hPa | 2.4V | 00:00:00 | 00:00:00 | 00:00:00 | |
| PETON7-10 | 2026-09-05 01:34:52 | 48.22571 | 17.85434 | 61° | 15km/h | 25247m | -16.3m/s | -50.6°C | 3.6% | 0hPa | 2.4V | 00:00:00 | 00:00:00 | 00:00:00 | |
| OE5DRO-10 | 2026-09-05 01:34:51 | 48.22569 | 17.85427 | 67° | 15km/h | 25263m | -16.9m/s | -50.6°C | 3.6% | 0hPa | 2.4V | 00:00:00 | 00:00:00 | 00:00:00 | |
| OE5MMP-10 | 2026-09-05 01:34:49 | 48.22564 | 17.85414 | 59° | 15km/h | 25295m | -17.8m/s | -50.5°C | 3.6% | 0hPa | 2.4V | 00:00:00 | 02:12:06 | 00:00:00 | |
| DO3MHA-11 | 2026-09-05 01:34:48 | 48.22562 | 17.85407 | 64° | 15km/h | 25313m | -17.4m/s | -50.4°C | 3.5% | 0hPa | 2.4V | 00:00:00 | 02:12:05 | 00:00:00 | |
| OE3MUC-15 | 2026-09-05 01:34:47 | 48.22560 | 17.85400 | 72° | 15km/h | 25330m | -17.5m/s | -50.3°C | 3.5% | 0hPa | 2.4V | 00:00:00 | 00:00:00 | 00:00:00 | |
| HA6NAB-11 | 2026-09-05 01:34:45 | 48.22559 | 17.85393 | 75° | 16km/h | 25346m | -16.6m/s | -50.2°C | 0.9% | 0hPa | 2.4V | 00:00:00 | 00:00:00 | 00:00:00 | |
| OM5KV | 2026-09-05 01:34:44 | 48.22558 | 17.85387 | 82° | 11km/h | 25362m | -17.1m/s | -50.2°C | 0.9% | 0hPa | 2.4V | 08:25:00 | 00:00:00 | 00:00:00 | |
| PG1ADW-2 | 2026-09-05 01:34:43 | 48.22557 | 17.85380 | 59° | 9km/h | 25397m | -17.1m/s | -50.0°C | 3.4% | 0hPa | 2.4V | 00:00:00 | 02:12:00 | 00:00:00 | |
| ATIDSZ-14 | 2026-09-05 01:34:40 | 48.22555 | 17.85373 | 84° | 9km/h | 25429m | -17.6m/s | -49.9°C | 0.9% | 0hPa | 2.4V | 00:00:00 | 00:00:00 | 00:00:00 | |
| OE3MUC-15 | 2026-09-05 01:34:39 | 48.22553 | 17.85370 | 3° | 11km/h | 25462m | -17.3m/s | -49.7°C | 3.4% | 0hPa | 2.4V | 00:00:00 | 00:00:00 | 00:00:00 | |
| DO3MHA-11 | 2026-09-05 01:34:38 | 48.22552 | 17.85370 | 12° | 7km/h | 25480m | -17.3m/s | -49.7°C | 3.4% | 0hPa | 2.4V | 00:00:00 | 02:11:55 | 00:00:00 | |
| PETON7-10 | 2026-09-05 01:34:37 | 48.22550 | 17.85370 | 14° | 11km/h | 25498m | -17.1m/s | -49.6°C | 3.3% | 0hPa | 2.4V | 00:00:00 | 02:11:54 | 00:00:00 | |
| OE3MUC-15 | 2026-09-05 01:34:35 | 48.22543 | 17.85365 | 38° | 15km/h | 25531m | -16.7m/s | -49.5°C | 3.3% | 0hPa | 2.4V | 00:00:00 | 00:00:00 | 00:00:00 | |
| OM5KV | 2026-09-05 01:34:33 | 48.22540 | 17.85361 | 57° | 16km/h | 25547m | -16.8m/s | -49.5°C | 0.8% | 0hPa | 2.4V | 08:25:00 | 00:00:00 | 00:00:00 | |
| OE5DRO-10 | 2026-09-05 01:34:32 | 48.22536 | 17.85353 | 50° | 13km/h | 25580m | -17.0m/s | -49.4°C | 3.3% | 0hPa | 2.4V | 00:00:00 | 00:00:00 | 00:00:00 | |
| OE3MUC-15 | 2026-09-05 01:34:31 | 48.22533 | 17.85349 | 54° | 9km/h | 25596m | -17.2m/s | -49.3°C | 3.3% | 0hPa | 2.4V | 08:24:00 | 00:00:00 | 00:00:00 | |
| OE5MMP-10 | 2026-09-05 01:34:29 | 48.22530 | 17.85342 | 70° | 11km/h | 25628m | -16.7m/s | -49.4°C | 3.3% | 0hPa | 2.5V | 08:24:00 | 02:11:46 | 00:00:00 | |
| OM5KV | 2026-09-05 01:34:28 | 48.22531 | 17.85342 | 71° | 7km/h | 25628m | -16.8m/s | -49.4°C | 0.8% | 0hPa | 2.4V | 08:25:00 | 00:00:00 | 00:00:00 | |
| OE3MUC-15 | 2026-09-05 01:34:27 | 48.22529 | 17.85336 | 61° | 9km/h | 25660m | -17.5m/s | -49.4°C | 3.2% | 0hPa | 2.4V | 00:00:00 | 00:00:00 | 00:00:00 | |
| OE5DXL-15 | 2026-09-05 01:34:26 | 48.22528 | 17.85333 | 64° | 15km/h | 25677m | -17.7m/s | -49.4°C | 3.2% | 0hPa | 2.4V | 00:00:00 | 00:00:00 | 00:00:00 | |
| OE3MUC-15 | 2026-09-05 01:34:23 | 48.22525 | 17.85324 | 60° | 15km/h | 25729m | -17.4m/s | -49.7°C | 3.3% | 0hPa | 2.5V | 00:00:00 | 00:00:00 | 00:00:00 | |
| PETON7-10 | 2026-09-05 01:34:22 | 48.22523 | 17.85320 | 63° | 18km/h | 25745m | -17.1m/s | -49.7°C | 3.3% | 0hPa | 2.5V | 00:00:00 | 00:00:00 | 00:00:00 | |
| OM5KV | 2026-09-05 01:34:21 | 48.22523 | 17.85320 | 63° | 13km/h | 25745m | -17.2m/s | -49.8°C | 0.8% | 0hPa | 2.4V | 08:25:00 | 00:00:00 | 00:00:00 | |
| OE3MUC-15 | 2026-09-05 01:34:19 | 48.22519 | 17.85306 | 66° | 18km/h | 25796m | -17.6m/s | -49.9°C | 3.3% | 0hPa | 2.4V | 00:00:00 | 00:00:00 | 00:00:00 | |
| OE3MUC-15 | 2026-09-05 01:34:15 | 48.22514 | 17.85283 | 94° | 16km/h | 25863m | -17.6m/s | -50.0°C | 3.4% | 0hPa | 2.4V | 00:00:00 | 00:00:00 | 00:00:00 | |
| OE3JTB-15 | 2026-09-05 01:34:14 | 48.22514 | 17.85277 | 106° | 15km/h | 25881m | -17.8m/s | -50.0°C | 3.4% | 0hPa | 2.4V | 00:00:00 | 02:11:31 | 00:00:00 | |
| OE5DRO-10 | 2026-09-05 01:34:13 | 48.22514 | 17.85271 | 99° | 13km/h | 25899m | -18.0m/s | -49.9°C | 3.4% | 0hPa | 2.4V | 00:00:00 | 00:00:00 | 00:00:00 | |
| OE3MUC-15 | 2026-09-05 01:34:11 | 48.22516 | 17.85258 | 119° | 20km/h | 25933m | -17.2m/s | -49.9°C | 3.4% | 0hPa | 2.4V | 00:00:00 | 00:00:00 | 00:00:00 | |
| OE5MMP-10 | 2026-09-05 01:34:09 | 48.22520 | 17.85245 | 125° | 15km/h | 25966m | -17.1m/s | -49.9°C | 3.4% | 0hPa | 2.4V | 00:00:00 | 02:11:26 | 00:00:00 | |
| OE3MUC-15 | 2026-09-05 01:34:07 | 48.22525 | 17.85230 | 125° | 18km/h | 26000m | -17.7m/s | -49.9°C | 3.4% | 0hPa | 2.4V | 00:00:00 | 00:00:00 | 00:00:00 | |
| OM5KV | 2026-09-05 01:34:04 | 48.22530 | 17.85217 | 128° | 18km/h | 26034m | -18.0m/s | -50.0°C | 0.8% | 0hPa | 2.4V | 08:25:00 | 00:00:00 | 00:00:00 | |
| PG1ADW-2 | 2026-09-05 01:34:03 | 48.22534 | 17.85205 | 124° | 5km/h | 26068m | -17.5m/s | -50.0°C | 3.4% | 0hPa | 2.4V | 00:00:00 | 00:00:00 | 00:00:00 | |
| HA6NAB-11 | 2026-09-05 01:34:02 | 48.22533 | 17.85205 | 124° | 13km/h | 26068m | -17.6m/s | -50.0°C | 0.9% | 0hPa | 2.4V | 08:25:00 | 00:00:00 | 00:00:00 | |
| OE3OSB-13 | 2026-09-05 01:34:00 | 48.22538 | 17.85189 | 126° | 5km/h | 26136m | -18.1m/s | -49.9°C | 0.8% | -1.0hPa | 2.4V | 00:00:00 | 00:00:00 | 00:00:00 | |
| OE3MUC-15 | 2026-09-05 01:33:59 | 48.22538 | 17.85189 | 127° | 4km/h | 26136m | -18.1m/s | -49.9°C | 3.4% | 0hPa | 2.4V | 00:00:00 | 00:00:00 | 00:00:00 | |
| HA6NAB-11 | 2026-09-05 01:33:57 | 48.22538 | 17.85186 | 122° | 5km/h | 26153m | -17.9m/s | -49.9°C | 0.8% | 0hPa | 2.4V | 08:25:00 | 00:00:00 | 00:00:00 | |
| OE5DXL-15 | 2026-09-05 01:33:56 | 48.22538 | 17.85180 | 97° | 5km/h | 26188m | -18.6m/s | -49.8°C | 3.4% | 0hPa | 2.4V | 00:00:00 | 00:00:00 | 00:00:00 | |
| OE3MUC-15 | 2026-09-05 01:33:55 | 48.22538 | 17.85178 | 91° | 4km/h | 26205m | -18.8m/s | -49.9°C | 3.3% | 0hPa | 2.4V | 08:25:00 | 00:00:00 | 00:00:00 | |
| OE5DRO-10 | 2026-09-05 01:33:54 | 48.22539 | 17.85175 | 132° | 4km/h | 26223m | -19.0m/s | -50.0°C | 3.4% | 0hPa | 2.5V | 00:00:00 | 00:00:00 | 00:00:00 | |
| OE3MUC-15 | 2026-09-05 01:33:51 | 48.22540 | 17.85170 | 191° | 4km/h | 26277m | -18.5m/s | -50.1°C | 3.4% | 0hPa | 2.5V | 00:00:00 | 00:00:00 | 00:00:00 | |
| OE5MMP-10 | 2026-09-05 01:33:49 | 48.22540 | 17.85169 | 229° | 5km/h | 26313m | -18.8m/s | -50.1°C | 3.4% | 0hPa | 2.5V | 00:00:00 | 02:11:06 | 00:00:00 | |
| OM5KV | 2026-09-05 01:33:48 | 48.22540 | 17.85169 | 230° | 2km/h | 26313m | -18.8m/s | -50.1°C | 0.8% | 0hPa | 2.5V | 08:25:00 | 00:00:00 | 00:00:00 | |
| OE3MUC-15 | 2026-09-05 01:33:47 | 48.22541 | 17.85169 | 235° | 4km/h | 26349m | -18.4m/s | -50.1°C | 3.4% | 0hPa | 2.5V | 00:00:00 | 00:00:00 | 00:00:00 | |
| HA6NAB-11 | 2026-09-05 01:33:46 | 48.22540 | 17.85169 | 235° | 4km/h | 26349m | -18.4m/s | -50.1°C | 0.8% | 0hPa | 2.5V | 08:25:00 | 00:00:00 | 00:00:00 | |
| OE3JTB-15 | 2026-09-05 01:33:45 | 48.22540 | 17.85171 | 280° | 15km/h | 26384m | -18.2m/s | -50.1°C | 3.4% | 0hPa | 2.5V | 08:25:00 | 00:00:00 | 00:00:00 | |
| PG1ADW-2 | 2026-09-05 01:33:43 | 48.22539 | 17.85173 | 305° | 5km/h | 26419m | -18.8m/s | -50.1°C | 3.4% | 0hPa | 2.4V | 00:00:00 | 00:00:00 | 00:00:00 | |
| HA6NAB-11 | 2026-09-05 01:33:41 | 48.22538 | 17.85174 | 304° | 5km/h | 26438m | -19.0m/s | -50.2°C | 0.8% | 0hPa | 2.4V | 08:25:00 | 00:00:00 | 00:00:00 | |
| OE5MMP-10 | 2026-09-05 01:33:39 | 48.22534 | 17.85180 | 290° | 5km/h | 26493m | -18.1m/s | -50.2°C | 3.5% | 0hPa | 2.4V | 00:00:00 | 02:10:56 | 00:00:00 | |
| PETON7-10 | 2026-09-05 01:33:37 | 48.22534 | 17.85184 | 260° | 5km/h | 26529m | -18.6m/s | -50.4°C | 3.6% | 0hPa | 2.4V | 00:00:00 | 00:00:00 | 00:00:00 | |
| OE5DRO-10 | 2026-09-05 01:33:35 | 48.22534 | 17.85188 | 246° | 15km/h | 26566m | -18.2m/s | -50.4°C | 3.5% | 0hPa | 2.5V | 00:00:00 | 00:00:00 | 00:00:00 | |
| OM5KV | 2026-09-05 01:33:34 | 48.22534 | 17.85188 | 247° | 4km/h | 26566m | -18.2m/s | -50.4°C | 0.9% | 0hPa | 2.4V | 08:26:00 | 00:00:00 | 00:00:00 | |
| S52SK | 2026-09-05 01:33:33 | 48.22535 | 17.85189 | 231° | 2km/h | 26584m | -17.8m/s | -50.4°C | 0.9% | 0hPa | 2.4V | 00:00:00 | 00:00:00 | 00:00:00 | |
| OM5KV | 2026-09-05 01:33:30 | 48.22539 | 17.85190 | 159° | 5km/h | 26638m | -18.5m/s | -50.4°C | 0.9% | 0hPa | 2.4V | 08:26:00 | 00:00:00 | 00:00:00 | |
| OE3OSB-13 | 2026-09-05 01:33:29 | 48.22542 | 17.85189 | 153° | 5km/h | 26692m | -18.2m/s | -50.3°C | 0.8% | -1.0hPa | 2.4V | 00:00:00 | 00:00:00 | 00:00:00 | |
| OE5DXL-15 | 2026-09-05 01:33:26 | 48.22545 | 17.85189 | 146° | 16km/h | 26728m | -18.4m/s | -50.1°C | 3.5% | 0hPa | 2.4V | 00:00:00 | 00:00:00 | 00:00:00 | |
| PG1ADW-2 | 2026-09-05 01:33:23 | 48.22548 | 17.85184 | 105° | 20km/h | 26782m | -19.1m/s | -50.0°C | 3.5% | 0hPa | 2.4V | 00:00:00 | 02:10:40 | 00:00:00 | |
| PETON7-10 | 2026-09-05 01:33:22 | 48.22549 | 17.85181 | 96° | 22km/h | 26800m | -18.9m/s | -50.0°C | 3.5% | 0hPa | 2.4V | 00:00:00 | 00:00:00 | 00:00:00 | |
| SONDE2-11 | 2026-09-05 01:33:19 | 48.22553 | 17.85151 | 101° | 18km/h | 26912m | -19.3m/s | -49.5°C | 0.8% | -1.0hPa | 2.4V | 00:00:00 | 00:00:00 | 00:00:00 | |
| OE3MUC-15 | 2026-09-05 01:33:15 | 48.22554 | 17.85145 | 119° | 24km/h | 26931m | -19.0m/s | -49.3°C | 3.4% | 0hPa | 2.4V | 00:00:00 | 00:00:00 | 00:00:00 | |
| OE5DRO-10 | 2026-09-05 01:33:13 | 48.22561 | 17.85130 | 125° | 27km/h | 26968m | -19.3m/s | -49.3°C | 3.4% | 0hPa | 2.4V | 00:00:00 | 00:00:00 | 00:00:00 | |
| OE3MUC-15 | 2026-09-05 01:33:11 | 48.22570 | 17.85114 | 130° | 27km/h | 27005m | -19.4m/s | -49.3°C | 3.4% | 0hPa | 2.4V | 00:00:00 | 00:00:00 | 00:00:00 | |
| OE5MMP-10 | 2026-09-05 01:33:08 | 48.22585 | 17.85090 | 136° | 11km/h | 27062m | -19.5m/s | -49.4°C | 3.4% | 0hPa | 2.4V | 00:00:00 | 02:10:25 | 00:00:00 | |
| PETON7-10 | 2026-09-05 01:33:07 | 48.22590 | 17.85083 | 135° | 13km/h | 27081m | -19.6m/s | -49.4°C | 3.4% | 0hPa | 2.4V | 00:00:00 | 02:10:24 | 00:00:00 | |
| ATIDSZ-14 | 2026-09-05 01:33:06 | 48.22590 | 17.85083 | 135° | 26km/h | 27081m | -19.7m/s | -49.4°C | 0.8% | 0hPa | 2.4V | 00:00:00 | 00:00:00 | 00:00:00 | |
| OM5KV | 2026-09-05 01:33:04 | 48.22599 | 17.85070 | 148° | 20km/h | 27119m | -19.9m/s | -49.4°C | 0.9% | 0hPa | 2.4V | 08:26:00 | 00:00:00 | 00:00:00 | |
| OE3MUC-15 | 2026-09-05 01:33:03 | 48.22607 | 17.85062 | 162° | 13km/h | 27156m | -19.6m/s | -49.2°C | 3.3% | 0hPa | 2.4V | 00:00:00 | 00:00:00 | 00:00:00 | |
| EDDB2-12 | 2026-09-05 01:32:58 | 48.22620 | 17.85059 | 197° | 7km/h | 27253m | -19.9m/s | -49.4°C | 0.8% | -1.0hPa | 2.4V | 00:00:00 | 00:00:00 | 00:00:00 | |
| OE3OSB-13 | 2026-09-05 01:32:57 | 48.22621 | 17.85060 | 193° | 5km/h | 27272m | -19.8m/s | -49.4°C | 0.8% | -1.0hPa | 2.4V | 00:00:00 | 00:00:00 | 00:00:00 | |
| SONDE2-11 | 2026-09-05 01:32:48 | 48.22642 | 17.85037 | 131° | 24km/h | 27468m | -20.7m/s | -48.6°C | 0.8% | -1.0hPa | 2.4V | 00:00:00 | 00:00:00 | 00:00:00 | |
| OE3MUC-15 | 2026-09-05 01:32:47 | 48.22642 | 17.85036 | 132° | 27km/h | 27468m | -20.7m/s | -48.6°C | 3.3% | 0hPa | 2.4V | 00:00:00 | 00:00:00 | 00:00:00 | |
| OM5KV | 2026-09-05 01:32:45 | 48.22646 | 17.85029 | 137° | 26km/h | 27487m | -20.5m/s | -48.6°C | 0.8% | 0hPa | 2.4V | 08:26:00 | 00:00:00 | 00:00:00 | |
| OE5MMP-10 | 2026-09-05 01:32:44 | 48.22658 | 17.85015 | 145° | 37km/h | 27527m | -20.8m/s | -48.5°C | 3.3% | 0hPa | 2.4V | 00:00:00 | 02:10:01 | 00:00:00 | |
| PG1ADW-2 | 2026-09-05 01:32:43 | 48.22664 | 17.85008 | 149° | 27km/h | 27547m | -21.3m/s | -48.5°C | 3.3% | 0hPa | 2.4V | 08:26:00 | 00:00:00 | 00:00:00 | |
| OM5KV | 2026-09-05 01:32:42 | 48.22664 | 17.85008 | 149° | 35km/h | 27547m | -21.4m/s | -48.6°C | 0.8% | 0hPa | 2.4V | 08:27:00 | 00:00:00 | 00:00:00 | |
| OM5KV | 2026-09-05 01:32:40 | 48.22680 | 17.84994 | 156° | 38km/h | 27587m | -21.2m/s | -48.5°C | 0.8% | 0hPa | 2.4V | 08:27:00 | 00:00:00 | 00:00:00 | |
| OE3MUC-15 | 2026-09-05 01:32:39 | 48.22699 | 17.84983 | 161° | 38km/h | 27629m | -20.9m/s | -48.2°C | 3.2% | 0hPa | 2.4V | 00:00:00 | 00:00:00 | 00:00:00 | |
| PETON7-10 | 2026-09-05 01:32:37 | 48.22718 | 17.84973 | 162° | 24km/h | 27671m | -21.1m/s | -48.3°C | 3.3% | 0hPa | 2.4V | 00:00:00 | 00:00:00 | 00:00:00 | |
| OM5KV | 2026-09-05 01:32:36 | 48.22718 | 17.84973 | 162° | 38km/h | 27671m | -21.1m/s | -48.3°C | 0.8% | 0hPa | 2.4V | 08:27:00 | 00:00:00 | 00:00:00 | |
| OE3MUC-15 | 2026-09-05 01:32:35 | 48.22736 | 17.84965 | 160° | 31km/h | 27711m | -20.7m/s | -48.2°C | 3.3% | 0hPa | 2.4V | 00:00:00 | 00:00:00 | 00:00:00 | |
| OE5MMP-10 | 2026-09-05 01:32:34 | 48.22744 | 17.84961 | 162° | 20km/h | 27730m | -20.7m/s | -48.1°C | 3.3% | 0hPa | 2.4V | 00:00:00 | 02:09:51 | 00:00:00 | |
| S52SK | 2026-09-05 01:32:32 | 48.22751 | 17.84957 | 159° | 27km/h | 27750m | -21.2m/s | -48.1°C | 0.8% | 0hPa | 2.4V | 00:00:00 | 00:00:00 | 00:00:00 | |
| OE3MUC-15 | 2026-09-05 01:32:31 | 48.22763 | 17.84950 | 162° | 20km/h | 27791m | -22.1m/s | -47.7°C | 3.2% | 0hPa | 2.4V | 00:00:00 | 00:00:00 | 00:00:00 | |
| OM5KV | 2026-09-05 01:32:29 | 48.22768 | 17.84948 | 165° | 18km/h | 27812m | -21.5m/s | -47.7°C | 0.8% | 0hPa | 2.5V | 08:27:00 | 00:00:00 | 00:00:00 | |
| OE3MUC-15 | 2026-09-05 01:32:27 | 48.22782 | 17.84945 | 184° | 16km/h | 27875m | -21.6m/s | -47.5°C | 3.2% | 0hPa | 2.5V | 00:00:00 | 00:00:00 | 00:00:00 | |
| OE5DXL-15 | 2026-09-05 01:32:26 | 48.22786 | 17.84945 | 183° | 11km/h | 27897m | -22.0m/s | -47.5°C | 3.2% | 0hPa | 2.5V | 00:00:00 | 00:00:00 | 00:00:00 | |
| OE5MMP-10 | 2026-09-05 01:32:23 | 48.22797 | 17.84940 | 159° | 13km/h | 27959m | -22.4m/s | -47.4°C | 3.1% | 0hPa | 2.5V | 00:00:00 | 02:09:40 | 00:00:00 | |
| PETON7-10 | 2026-09-05 01:32:22 | 48.22801 | 17.84939 | 176° | 13km/h | 27981m | -22.6m/s | -47.3°C | 3.1% | 0hPa | 2.4V | 00:00:00 | 02:09:39 | 00:00:00 | |
| OE3MUC-15 | 2026-09-05 01:32:18 | 48.22814 | 17.84942 | 187° | 13km/h | 28084m | -30.9m/s | -47.3°C | 3.1% | 0hPa | 2.4V | 00:00:00 | 00:00:00 | 00:00:00 | |
| SONDE2-11 | 2026-09-05 01:32:17 | 48.22820 | 17.84944 | 186° | 11km/h | 28146m | -33.8m/s | -47.3°C | 0.7% | -1.0hPa | 2.4V | 00:00:00 | 00:00:00 | 00:00:00 | |
| OE3MUC-15 | 2026-09-05 01:32:14 | 48.22826 | 17.84946 | 212° | 13km/h | 28214m | -33.0m/s | -47.1°C | 3.1% | 0hPa | 2.4V | 00:00:00 | 00:00:00 | 00:00:00 | |
| OE5MMP-10 | 2026-09-05 01:32:13 | 48.22829 | 17.84948 | 195° | 13km/h | 28246m | -31.4m/s | -47.0°C | 3.0% | 0hPa | 2.4V | 00:00:00 | 02:09:30 | 00:00:00 | |
| ATIDSZ-14 | 2026-09-05 01:32:12 | 48.22829 | 17.84948 | 195° | 11km/h | 28246m | -31.5m/s | -47.1°C | 0.7% | 0hPa | 2.4V | 08:27:00 | 00:00:00 | 00:00:00 | |
| OE3MUC-15 | 2026-09-05 01:32:10 | 48.22839 | 17.84953 | 214° | 13km/h | 28335m | -29.2m/s | -47.1°C | 3.1% | 0hPa | 2.4V | 00:00:00 | 00:00:00 | 00:00:00 | |
| PETON7-10 | 2026-09-05 01:32:07 | 48.22848 | 17.84961 | 224° | 7km/h | 28421m | -29.8m/s | -47.1°C | 3.1% | 0hPa | 2.4V | 00:00:00 | 00:00:00 | 00:00:00 | |
| OE3MUC-15 | 2026-09-05 01:32:06 | 48.22850 | 17.84964 | 233° | 7km/h | 28450m | -29.6m/s | -47.0°C | 3.1% | 0hPa | 2.4V | 08:27:00 | 00:00:00 | 00:00:00 | |
| OM5KV | 2026-09-05 01:32:05 | 48.22850 | 17.84964 | 234° | 9km/h | 28450m | -29.7m/s | -47.1°C | 0.7% | 0hPa | 2.4V | 08:27:00 | 00:00:00 | 00:00:00 | |
| OM5KV | 2026-09-05 01:32:04 | 48.22851 | 17.84967 | 224° | 5km/h | 28479m | -29.3m/s | -47.0°C | 0.7% | 0hPa | 2.4V | 08:27:00 | 00:00:00 | 00:00:00 | |
| OE5MMP-10 | 2026-09-05 01:32:03 | 48.22854 | 17.84970 | 237° | 7km/h | 28538m | -29.0m/s | -47.1°C | 3.1% | 0hPa | 2.4V | 00:00:00 | 02:09:20 | 00:00:00 | |
| OE3MUC-15 | 2026-09-05 01:32:02 | 48.22855 | 17.84970 | 93° | 4km/h | 28566m | -28.9m/s | -47.2°C | 3.2% | 0hPa | 2.4V | 00:00:00 | 00:00:00 | 00:00:00 | |
| EDDB2-12 | 2026-09-05 01:31:56 | 48.22861 | 17.84961 | 150° | 7km/h | 28740m | -29.9m/s | -46.9°C | 0.7% | -1.0hPa | 2.4V | 00:00:00 | 00:00:00 | 00:00:00 | |
| OE3OSB-13 | 2026-09-05 01:31:55 | 48.22863 | 17.84960 | 130° | 5km/h | 28770m | -30.5m/s | -46.8°C | 0.7% | -1.0hPa | 2.4V | 00:00:00 | 00:00:00 | 00:00:00 | |
| SONDE2-11 | 2026-09-05 01:31:46 | 48.22875 | 17.84929 | 130° | 9km/h | 29073m | -30.2m/s | -45.9°C | 0.7% | -1.0hPa | 2.4V | 00:00:00 | 00:00:00 | 00:00:00 | |
| DO3MHA-11 | 2026-09-05 01:31:45 | 48.22875 | 17.84929 | 131° | 9km/h | 29073m | -30.2m/s | -45.8°C | 3.1% | 0hPa | 2.4V | 00:00:00 | 02:09:02 | 00:00:00 | |
| OE5MMP-10 | 2026-09-05 01:31:43 | 48.22878 | 17.84923 | 136° | 9km/h | 29134m | -30.6m/s | -45.4°C | 2.9% | 0hPa | 2.4V | 00:00:00 | 02:09:00 | 00:00:00 | |
| PG1ADW-2 | 2026-09-05 01:31:42 | 48.22880 | 17.84920 | 154° | 15km/h | 29164m | -31.3m/s | -45.2°C | 2.9% | 0hPa | 2.4V | 00:00:00 | 00:00:00 | 00:00:00 | |
| HA6NAB-11 | 2026-09-05 01:31:39 | 48.22884 | 17.84917 | 145° | 7km/h | 29225m | -30.8m/s | -44.9°C | 0.7% | 0hPa | 2.5V | 00:00:00 | 00:00:00 | 00:00:00 | |
| PETON7-10 | 2026-09-05 01:31:37 | 48.22888 | 17.84913 | 101° | 16km/h | 29317m | -31.4m/s | -44.6°C | 2.7% | 0hPa | 2.5V | 00:00:00 | 02:08:54 | 00:00:00 | |
| DO3MHA-11 | 2026-09-05 01:31:35 | 48.22888 | 17.84908 | 76° | 13km/h | 29379m | -30.9m/s | -44.4°C | 2.7% | 0hPa | 2.5V | 00:00:00 | 02:08:52 | 00:00:00 | |
| OE5MMP-10 | 2026-09-05 01:31:33 | 48.22887 | 17.84903 | 51° | 15km/h | 29440m | -30.4m/s | -44.2°C | 2.7% | 0hPa | 2.4V | 00:00:00 | 02:08:50 | 00:00:00 | |
| OM5KV | 2026-09-05 01:31:30 | 48.22884 | 17.84897 | 34° | 9km/h | 29501m | -31.4m/s | -44.4°C | 0.7% | 0hPa | 2.4V | 08:28:00 | 00:00:00 | 00:00:00 | |
| OM5KV | 2026-09-05 01:31:29 | 48.22881 | 17.84895 | 33° | 15km/h | 29532m | -32.1m/s | -44.4°C | 0.6% | 0hPa | 2.4V | 08:28:00 | 00:00:00 | 00:00:00 | |
| HA6NAB-11 | 2026-09-05 01:31:27 | 48.22874 | 17.84888 | 36° | 18km/h | 29595m | -32.1m/s | -44.2°C | 0.6% | 0hPa | 2.4V | 00:00:00 | 00:00:00 | 00:00:00 | |
| OE5DXL-15 | 2026-09-05 01:31:26 | 48.22866 | 17.84880 | 30° | 18km/h | 29659m | -31.9m/s | -44.2°C | 2.7% | 0hPa | 2.4V | 00:00:00 | 00:00:00 | 00:00:00 | |
| DO3MHA-11 | 2026-09-05 01:31:25 | 48.22861 | 17.84875 | 32° | 26km/h | 29690m | -32.3m/s | -44.1°C | 2.7% | 0hPa | 2.5V | 00:00:00 | 02:08:42 | 00:00:00 | |
| OE3OSB-13 | 2026-09-05 01:31:24 | 48.22855 | 17.84869 | 43° | 27km/h | 29722m | -32.1m/s | -44.1°C | 0.6% | -1.0hPa | 2.5V | 00:00:00 | 00:00:00 | 00:00:00 | |
| OE5MMP-10 | 2026-09-05 01:31:23 | 48.22850 | 17.84862 | 41° | 22km/h | 29754m | -32.3m/s | -43.9°C | 2.6% | 0hPa | 2.5V | 08:28:00 | 02:08:40 | 00:00:00 | |
| PETON7-10 | 2026-09-05 01:31:22 | 48.22845 | 17.84853 | 49° | 22km/h | 29785m | -31.9m/s | -44.0°C | 2.6% | 0hPa | 2.5V | 00:00:00 | 00:00:00 | 00:00:00 | |
| S52SK | 2026-09-05 01:31:20 | 48.22840 | 17.84845 | 56° | 27km/h | 29816m | -32.2m/s | -44.1°C | 0.6% | 0hPa | 2.4V | 00:00:00 | 00:00:00 | 00:00:00 | |
| DO3MHA-12 | 2026-09-05 01:31:19 | 48.22833 | 17.84827 | 62° | 20km/h | 29880m | -33.5m/s | -44.3°C | 2.7% | 0hPa | 2.4V | 00:00:00 | 02:08:36 | 00:00:00 | |
| OE3MUC-15 | 2026-09-05 01:31:18 | 48.22830 | 17.84819 | 61° | 16km/h | 29913m | -33.4m/s | -44.3°C | 2.8% | 0hPa | 2.4V | 00:00:00 | 00:00:00 | 00:00:00 | |
| SONDE2-11 | 2026-09-05 01:31:15 | 48.22821 | 17.84798 | 46° | 13km/h | 30040m | -32.4m/s | -44.3°C | 0.6% | -1.0hPa | 2.4V | 00:00:00 | 00:00:00 | 00:00:00 | |
| OE3MUC-15 | 2026-09-05 01:31:14 | 48.22821 | 17.84798 | 47° | 18km/h | 30041m | -32.4m/s | -44.2°C | 2.8% | 0hPa | 2.4V | 00:00:00 | 00:00:00 | 00:00:00 | |
| OE5MMP-10 | 2026-09-05 01:31:13 | 48.22818 | 17.84793 | 49° | 18km/h | 30073m | -33.7m/s | -44.2°C | 2.7% | 0hPa | 2.4V | 00:00:00 | 02:08:30 | 00:00:00 | |
| GYPAP8-17 | 2026-09-05 01:31:12 | 48.22818 | 17.84793 | 49° | 18km/h | 30073m | -33.8m/s | -44.2°C | 0.6% | 0hPa | 2.4V | 00:00:00 | 00:00:00 | 00:00:00 | |
| OE3MUC-15 | 2026-09-05 01:31:10 | 48.22810 | 17.84774 | 61° | 22km/h | 30171m | -32.9m/s | -43.8°C | 2.7% | 0hPa | 2.4V | 00:00:00 | 00:00:00 | 00:00:00 | |
| PETON7-10 | 2026-09-05 01:31:07 | 48.22808 | 17.84749 | 104° | 11km/h | 30268m | -33.5m/s | -43.8°C | 2.7% | 0hPa | 2.4V | 00:00:00 | 00:00:00 | 00:00:00 | |
| OE3MUC-15 | 2026-09-05 01:31:06 | 48.22809 | 17.84743 | 113° | 9km/h | 30300m | -33.5m/s | -43.7°C | 2.8% | 0hPa | 2.4V | 00:00:00 | 00:00:00 | 00:00:00 | |
| DO3MHA-11 | 2026-09-05 01:31:05 | 48.22811 | 17.84738 | 126° | 9km/h | 30333m | -33.5m/s | -43.7°C | 2.8% | 0hPa | 2.5V | 08:28:00 | 02:08:22 | 00:00:00 | |
| OE5MMP-10 | 2026-09-05 01:31:03 | 48.22815 | 17.84734 | 184° | 9km/h | 30399m | -33.7m/s | -43.6°C | 2.7% | 0hPa | 2.5V | 00:00:00 | 02:08:20 | 00:00:00 | |
| PG1ADW-2 | 2026-09-05 01:31:02 | 48.22817 | 17.84734 | 207° | 18km/h | 30432m | -33.4m/s | -43.7°C | 2.8% | 0hPa | 2.5V | 00:00:00 | 00:00:00 | 00:00:00 | |
| EDDB2-12 | 2026-09-05 01:30:54 | 48.22811 | 17.84727 | 74° | 15km/h | 30695m | -34.1m/s | -43.0°C | 0.6% | -1.0hPa | 2.5V | 00:00:00 | 00:00:00 | 00:00:00 | |
| OE5MMP-10 | 2026-09-05 01:30:53 | 48.22809 | 17.84721 | 63° | 26km/h | 30729m | -34.6m/s | -42.7°C | 2.6% | 0hPa | 2.5V | 00:00:00 | 02:08:10 | 00:00:00 | |
| OE3MUC-15 | 2026-09-05 01:30:52 | 48.22807 | 17.84716 | 51° | 16km/h | 30763m | -35.2m/s | -42.4°C | 2.6% | 0hPa | 2.5V | 08:28:00 | 00:00:00 | 00:00:00 | |
| ATIDSZ-14 | 2026-09-05 01:30:49 | 48.22801 | 17.84710 | 24° | 16km/h | 30831m | -34.8m/s | -42.0°C | 0.6% | 0hPa | 2.5V | 08:29:00 | 00:00:00 | 00:00:00 | |
| OE3MUC-15 | 2026-09-05 01:30:48 | 48.22791 | 17.84705 | 18° | 31km/h | 30899m | -35.6m/s | -41.8°C | 2.4% | 0hPa | 2.5V | 00:00:00 | 00:00:00 | 00:00:00 | |
| DO3MHA-12 | 2026-09-05 01:30:46 | 48.22777 | 17.84696 | 34° | 35km/h | 30969m | -35.7m/s | -41.6°C | 2.4% | 0hPa | 2.5V | 00:00:00 | 02:08:03 | 00:00:00 | |
| OE3MUC-15 | 2026-09-05 01:30:44 | 48.22763 | 17.84678 | 55° | 38km/h | 31038m | -34.4m/s | -41.4°C | 2.4% | 0hPa | 2.4V | 00:00:00 | 00:00:00 | 00:00:00 | |
| OE5MMP-10 | 2026-09-05 01:30:43 | 48.22758 | 17.84665 | 60° | 26km/h | 31072m | -35.1m/s | -41.4°C | 2.4% | 0hPa | 2.4V | 00:00:00 | 02:08:00 | 00:00:00 | |
| PG1ADW-2 | 2026-09-05 01:30:42 | 48.22754 | 17.84652 | 78° | 27km/h | 31107m | -34.8m/s | -41.4°C | 2.4% | 0hPa | 2.4V | 00:00:00 | 02:07:59 | 00:00:00 | |
| HA6NAB-11 | 2026-09-05 01:30:41 | 48.22754 | 17.84652 | 78° | 37km/h | 31107m | -34.9m/s | -41.4°C | 0.5% | 0hPa | 2.5V | 00:00:00 | 00:00:00 | 00:00:00 | |
| OE3MUC-15 | 2026-09-05 01:30:40 | 48.22752 | 17.84625 | 96° | 26km/h | 31175m | -34.8m/s | -41.1°C | 2.3% | 0hPa | 2.5V | 00:00:00 | 00:00:00 | 00:00:00 | |
| SQ9EZE-14 | 2026-09-05 01:30:39 | 48.22752 | 17.84625 | 97° | 35km/h | 31175m | -34.8m/s | 0°C | 0% | 0hPa | 2.4V | 00:00:00 | 00:00:00 | 00:00:00 | |
| PETON7-10 | 2026-09-05 01:30:37 | 48.22756 | 17.84597 | 102° | 24km/h | 31279m | -35.9m/s | -40.9°C | 2.3% | 0hPa | 2.4V | 08:28:00 | 00:00:00 | 00:00:00 | |
| OE3MUC-15 | 2026-09-05 01:30:36 | 48.22756 | 17.84591 | 78° | 20km/h | 31314m | -36.1m/s | -40.8°C | 2.3% | 0hPa | 2.5V | 00:00:00 | 00:00:00 | 00:00:00 | |
| DO3MHA-11 | 2026-09-05 01:30:35 | 48.22755 | 17.84585 | 76° | 29km/h | 31349m | -36.0m/s | -40.8°C | 2.3% | 0hPa | 2.5V | 00:00:00 | 02:07:52 | 00:00:00 | |
| OE5MMP-10 | 2026-09-05 01:30:33 | 48.22749 | 17.84571 | 55° | 26km/h | 31421m | -36.8m/s | -41.0°C | 2.3% | 0hPa | 2.5V | 00:00:00 | 02:07:50 | 00:00:00 | |
| OE3MUC-15 | 2026-09-05 01:30:32 | 48.22746 | 17.84563 | 59° | 35km/h | 31457m | -36.1m/s | -41.2°C | 2.3% | 0hPa | 2.5V | 00:00:00 | 00:00:00 | 00:00:00 | |
| OM5KV | 2026-09-05 01:30:30 | 48.22742 | 17.84552 | 70° | 31km/h | 31493m | -36.9m/s | -41.5°C | 0.6% | 0hPa | 2.5V | 08:29:00 | 00:00:00 | 00:00:00 | |
| OE5WHR-10 | 2026-09-05 01:30:29 | 48.22738 | 17.84527 | 88° | 20km/h | 31566m | -36.2m/s | -41.7°C | 2.4% | 0hPa | 2.5V | 00:00:00 | 00:00:00 | 08:30:00 | |
| OE3MUC-15 | 2026-09-05 01:30:28 | 48.22738 | 17.84514 | 91° | 27km/h | 31602m | -35.5m/s | -41.6°C | 2.4% | 0hPa | 2.5V | 00:00:00 | 00:00:00 | 00:00:00 | |
| DO3MHA-12 | 2026-09-05 01:30:26 | 48.22740 | 17.84492 | 115° | 15km/h | 31673m | -36.1m/s | -41.5°C | 2.4% | 0hPa | 2.5V | 00:00:00 | 02:07:43 | 00:00:00 | |
| DO3MHA-11 | 2026-09-05 01:30:25 | 48.22743 | 17.84485 | 123° | 15km/h | 31709m | -36.9m/s | -41.5°C | 2.5% | 0hPa | 2.5V | 00:00:00 | 02:07:42 | 00:00:00 | |
| OE3MUC-15 | 2026-09-05 01:30:24 | 48.22745 | 17.84480 | 145° | 7km/h | 31745m | -37.5m/s | -41.7°C | 2.4% | 0hPa | 2.5V | 00:00:00 | 00:00:00 | 00:00:00 | |
| OE5MMP-10 | 2026-09-05 01:30:23 | 48.22747 | 17.84479 | 139° | 16km/h | 31782m | -37.4m/s | -41.7°C | 2.5% | 0hPa | 2.5V | 00:00:00 | 02:07:40 | 00:00:00 | |
| PG1ADW-2 | 2026-09-05 01:30:22 | 48.22747 | 17.84477 | 69° | 16km/h | 31819m | -36.5m/s | -41.7°C | 2.5% | 0hPa | 2.4V | 00:00:00 | 00:00:00 | 00:00:00 | |
| OE3MUC-15 | 2026-09-05 01:30:20 | 48.22745 | 17.84473 | 42° | 18km/h | 31892m | -36.9m/s | -41.8°C | 2.6% | 0hPa | 2.4V | 00:00:00 | 00:00:00 | 00:00:00 | |
| OE3JTB-15 | 2026-09-05 01:30:19 | 48.22742 | 17.84471 | 36° | 20km/h | 31929m | -38.2m/s | -41.8°C | 2.6% | 0hPa | 2.4V | 00:00:00 | 00:00:00 | 00:00:00 | |
| DO3MHA-12 | 2026-09-05 01:30:16 | 48.22730 | 17.84454 | 53° | 22km/h | 32041m | -38.1m/s | -41.2°C | 2.5% | 0hPa | 2.5V | 08:29:00 | 02:07:33 | 00:00:00 | |
| DO3MHA-11 | 2026-09-05 01:30:15 | 48.22727 | 17.84447 | 56° | 16km/h | 32080m | -37.5m/s | -41.0°C | 2.4% | 0hPa | 2.5V | 00:00:00 | 02:07:32 | 00:00:00 | |
| S52SK | 2026-09-05 01:30:14 | 48.22726 | 17.84447 | 56° | 24km/h | 32080m | -37.5m/s | -41.1°C | 0.5% | 0hPa | 2.5V | 00:00:00 | 00:00:00 | 00:00:00 | |
| OE5MMP-10 | 2026-09-05 01:30:13 | 48.22722 | 17.84431 | 81° | 15km/h | 32155m | -39.4m/s | -40.8°C | 2.4% | 0hPa | 2.5V | 00:00:00 | 02:07:30 | 00:00:00 | |
| OE3MUC-15 | 2026-09-05 01:30:12 | 48.22721 | 17.84423 | 86° | 15km/h | 32193m | -39.0m/s | -40.8°C | 2.4% | 0hPa | 2.5V | 00:00:00 | 00:00:00 | 00:00:00 | |
| OE5DRO-10 | 2026-09-05 01:30:10 | 48.22721 | 17.84411 | 94° | 20km/h | 32271m | -38.7m/s | -40.8°C | 2.5% | 0hPa | 2.5V | 00:00:00 | 00:00:00 | 00:00:00 | |
| OE3MUC-15 | 2026-09-05 01:30:08 | 48.22721 | 17.84403 | 81° | 13km/h | 32348m | -38.7m/s | -40.5°C | 2.4% | 0hPa | 2.5V | 00:00:00 | 00:00:00 | 00:00:00 | |
| OE5WHR-10 | 2026-09-05 01:30:07 | 48.22720 | 17.84398 | 67° | 20km/h | 32387m | -40.2m/s | -40.3°C | 2.4% | 0hPa | 2.5V | 00:00:00 | 00:00:00 | 00:00:00 | |
| DO3MHA-11 | 2026-09-05 01:30:05 | 48.22718 | 17.84389 | 68° | 24km/h | 32465m | -39.8m/s | -40.2°C | 2.4% | 0hPa | 2.5V | 00:00:00 | 02:07:22 | 00:00:00 | |
| OE3MUC-15 | 2026-09-05 01:30:04 | 48.22716 | 17.84384 | 75° | 20km/h | 32505m | -40.5m/s | -40.2°C | 2.4% | 0hPa | 2.5V | 00:00:00 | 00:00:00 | 00:00:00 | |
| PG1ADW-2 | 2026-09-05 01:30:02 | 48.22712 | 17.84361 | 83° | 15km/h | 32624m | -40.2m/s | -39.6°C | 2.3% | 0hPa | 2.5V | 00:00:00 | 00:00:00 | 00:00:00 | |
| OE3MUC-15 | 2026-09-05 01:30:00 | 48.22712 | 17.84351 | 89° | 27km/h | 32664m | -40.9m/s | -39.6°C | 2.3% | 0hPa | 2.5V | 00:00:00 | 00:00:00 | 00:00:00 | |
| OM5KV | 2026-09-05 01:29:58 | 48.22712 | 17.84341 | 92° | 26km/h | 32703m | -41.3m/s | -39.7°C | 0.5% | 0hPa | 2.5V | 00:00:00 | 00:00:00 | 00:00:00 | |
| OE3MUC-15 | 2026-09-05 01:29:56 | 48.22715 | 17.84310 | 112° | 24km/h | 32825m | -41.1m/s | -39.6°C | 2.3% | 0hPa | 2.5V | 00:00:00 | 00:00:00 | 00:00:00 | |
| DO3MHA-11 | 2026-09-05 01:29:55 | 48.22718 | 17.84301 | 125° | 20km/h | 32865m | -41.4m/s | -39.6°C | 2.4% | 0hPa | 2.5V | 00:00:00 | 02:07:12 | 00:00:00 | |
| OE5MMP-10 | 2026-09-05 01:29:53 | 48.22724 | 17.84287 | 127° | 18km/h | 32948m | -41.9m/s | -39.5°C | 2.4% | 0hPa | 2.5V | 00:00:00 | 02:07:10 | 08:30:00 | |
| PETON7-10 | 2026-09-05 01:29:52 | 48.22728 | 17.84281 | 133° | 15km/h | 32989m | -41.4m/s | -39.3°C | 2.4% | 0hPa | 2.5V | 00:00:00 | 00:00:00 | 00:00:00 | |
| OE5DRO-10 | 2026-09-05 01:29:51 | 48.22732 | 17.84275 | 136° | 15km/h | 33030m | -42.5m/s | -39.1°C | 2.3% | 0hPa | 2.5V | 00:00:00 | 00:00:00 | 00:00:00 | |
| OE3JTB-15 | 2026-09-05 01:29:50 | 48.22736 | 17.84269 | 153° | 15km/h | 33072m | -42.5m/s | -38.8°C | 2.3% | 0hPa | 2.5V | 00:00:00 | 00:00:00 | 00:00:00 | |
| OE3MUC-15 | 2026-09-05 01:29:48 | 48.22745 | 17.84261 | 150° | 16km/h | 33156m | -43.5m/s | -38.1°C | 2.2% | 0hPa | 2.5V | 00:00:00 | 00:00:00 | 00:00:00 | |
| ATIDSZ-14 | 2026-09-05 01:29:47 | 48.22745 | 17.84261 | 150° | 20km/h | 33156m | -43.6m/s | -38.2°C | 0.5% | 0hPa | 2.5V | 00:00:00 | 00:00:00 | 00:00:00 | |
| HA6NAB-11 | 2026-09-05 01:29:45 | 48.22756 | 17.84253 | 171° | 15km/h | 33284m | -42.8m/s | -38.1°C | 0.5% | 0hPa | 2.5V | 00:00:00 | 00:00:00 | 00:00:00 | |
| OE3MUC-15 | 2026-09-05 01:29:44 | 48.22759 | 17.84251 | 172° | 7km/h | 33326m | -43.9m/s | -38.0°C | 2.2% | 0hPa | 2.5V | 00:00:00 | 02:07:01 | 00:00:00 | |
| OE5MMP-10 | 2026-09-05 01:29:43 | 48.22761 | 17.84251 | 144° | 11km/h | 33370m | -44.9m/s | -37.9°C | 2.2% | 0hPa | 2.5V | 00:00:00 | 02:07:00 | 00:00:00 | |
| SONDE2-11 | 2026-09-05 01:29:41 | 48.22763 | 17.84248 | 85° | 7km/h | 33458m | -46.5m/s | -37.2°C | 0.4% | -1.0hPa | 2.5V | 00:00:00 | 00:00:00 | 00:00:00 | |
| OM5KV | 2026-09-05 01:29:40 | 48.22763 | 17.84247 | 86° | 7km/h | 33458m | -46.5m/s | -37.2°C | 0.5% | 0hPa | 2.5V | 00:00:00 | 00:00:00 | 00:00:00 | |
| DG1MFX-10 | 2026-09-05 01:29:39 | 48.22763 | 17.84245 | 91° | 7km/h | 33504m | -45.1m/s | 0°C | 0% | 0hPa | 2.5V | 00:00:00 | 00:00:00 | 00:00:00 | |
| PETON7-10 | 2026-09-05 01:29:37 | 48.22760 | 17.84232 | 73° | 15km/h | 33639m | -46.5m/s | -36.4°C | 1.9% | 0hPa | 2.5V | 00:00:00 | 00:00:00 | 00:00:00 | |
| OM5KV | 2026-09-05 01:29:34 | 48.22757 | 17.84221 | 80° | 13km/h | 33732m | -47.9m/s | -36.5°C | 0.4% | 0hPa | 2.5V | 00:00:00 | 00:00:00 | 00:00:00 | |
| DO3MHA-11 | 2026-09-05 01:29:33 | 48.22756 | 17.84211 | 103° | 11km/h | 33827m | -47.6m/s | -36.6°C | 2.0% | 0hPa | 2.5V | 00:00:00 | 02:06:50 | 08:30:00 | |
| OE5DRO-10 | 2026-09-05 01:29:32 | 48.22757 | 17.84207 | 113° | 15km/h | 33875m | -48.2m/s | -36.5°C | 1.9% | 0hPa | 2.4V | 00:00:00 | 00:00:00 | 00:00:00 | |
| OM5KV | 2026-09-05 01:29:28 | 48.22758 | 17.84202 | 342° | 4km/h | 34020m | -49.2m/s | -36.6°C | 0.4% | 0hPa | 2.4V | 00:00:00 | 00:00:00 | 00:00:00 | |
| HA6NAB-11 | 2026-09-05 01:29:27 | 48.22756 | 17.84202 | 10° | 11km/h | 34068m | -48.1m/s | -36.4°C | 0.4% | 0hPa | 2.4V | 00:00:00 | 00:00:00 | 00:00:00 | |
| OE5DXL-15 | 2026-09-05 01:29:26 | 48.22750 | 17.84199 | 21° | 29km/h | 34164m | -48.3m/s | -36.1°C | 1.9% | 0hPa | 2.4V | 00:00:00 | 00:00:00 | 00:00:00 | |
| OE5WHR-10 | 2026-09-05 01:29:25 | 48.22746 | 17.84197 | 14° | 26km/h | 34212m | -49.6m/s | -36.1°C | 1.9% | 0hPa | 2.4V | 00:00:00 | 00:00:00 | 00:00:00 | |
| DB0NH | 2026-09-05 01:29:24 | 48.22740 | 17.84195 | 17° | 18km/h | 34261m | -48.6m/s | 0°C | 0% | 0hPa | 2.5V | 00:00:00 | 02:06:41 | 00:00:00 | |
| DO3MHA-11 | 2026-09-05 01:29:23 | 48.22734 | 17.84191 | 20° | 18km/h | 34310m | -50.0m/s | -36.3°C | 1.9% | 0hPa | 2.5V | 00:00:00 | 02:06:40 | 00:00:00 | |
| HA6NAB-11 | 2026-09-05 01:29:22 | 48.22727 | 17.84187 | 26° | 29km/h | 34359m | -49.3m/s | -36.4°C | 0.4% | 0hPa | 2.5V | 00:00:00 | 00:00:00 | 00:00:00 | |
| OE3JTB-15 | 2026-09-05 01:29:21 | 48.22721 | 17.84182 | 28° | 29km/h | 34408m | -49.1m/s | -36.3°C | 1.9% | 0hPa | 2.5V | 00:00:00 | 02:06:38 | 00:00:00 | |
| OE3MUC-15 | 2026-09-05 01:29:20 | 48.22715 | 17.84178 | 24° | 18km/h | 34457m | -49.7m/s | -36.2°C | 2.0% | 0hPa | 2.5V | 00:00:00 | 00:00:00 | 00:00:00 | |
| DG1MFX-10 | 2026-09-05 01:29:17 | 48.22703 | 17.84170 | 9° | 13km/h | 34604m | -50.0m/s | 0°C | 0% | 0hPa | 2.5V | 00:00:00 | 00:00:00 | 00:00:00 | |
| OE3MUC-15 | 2026-09-05 01:29:16 | 48.22701 | 17.84170 | 1° | 11km/h | 34654m | -50.5m/s | -35.9°C | 1.9% | 0hPa | 2.5V | 00:00:00 | 00:00:00 | 00:00:00 | |
| OM5KV | 2026-09-05 01:29:15 | 48.22701 | 17.84170 | 1° | 9km/h | 34654m | -50.6m/s | -36.0°C | 0.4% | 0hPa | 2.4V | 00:00:00 | 00:00:00 | 00:00:00 | |
| S52SK | 2026-09-05 01:29:14 | 48.22700 | 17.84170 | 17° | 9km/h | 34705m | -51.1m/s | -35.9°C | 0.4% | 0hPa | 2.4V | 00:00:00 | 00:00:00 | 00:00:00 | |
| DO3MHA-11 | 2026-09-05 01:29:13 | 48.22696 | 17.84165 | 50° | 42km/h | 34806m | -51.1m/s | -35.8°C | 1.8% | 0hPa | 2.4V | 00:00:00 | 02:06:30 | 00:00:00 | |
| OE3MUC-15 | 2026-09-05 01:29:12 | 48.22693 | 17.84160 | 52° | 37km/h | 34855m | -49.2m/s | -35.6°C | 1.8% | 0hPa | 2.4V | 00:00:00 | 00:00:00 | 00:00:00 | |
| POL1PZ | 2026-09-05 01:29:11 | 48.22689 | 17.84152 | 55° | 31km/h | 34902m | -46.6m/s | -35.5°C | 0% | 0hPa | 2.4V | 00:00:00 | 00:00:00 | 00:00:00 | |
| SONDE2-11 | 2026-09-05 01:29:10 | 48.22684 | 17.84141 | 60° | 40km/h | 34948m | -46.4m/s | -35.4°C | 0.4% | -1.0hPa | 2.4V | 00:00:00 | 00:00:00 | 00:00:00 | |
| OM5KV | 2026-09-05 01:29:09 | 48.22684 | 17.84141 | 61° | 40km/h | 34948m | -46.4m/s | -35.4°C | 0.4% | 0hPa | 2.4V | 00:00:00 | 00:00:00 | 00:00:00 | |
| OE3MUC-15 | 2026-09-05 01:29:08 | 48.22675 | 17.84106 | 75° | 44km/h | 35042m | -47.9m/s | -35.2°C | 1.7% | 0hPa | 2.4V | 00:00:00 | 00:00:00 | 00:00:00 | |
| PETON7-10 | 2026-09-05 01:29:07 | 48.22672 | 17.84086 | 80° | 35km/h | 35089m | -47.2m/s | -35.2°C | 1.7% | 0hPa | 2.4V | 00:00:00 | 00:00:00 | 00:00:00 | |
| ATIDSZ-14 | 2026-09-05 01:29:05 | 48.22674 | 17.84067 | 102° | 46km/h | 35138m | -49.4m/s | -35.2°C | 0.4% | 0hPa | 2.5V | 00:00:00 | 00:00:00 | 00:00:00 | |
| DO3MHA-11 | 2026-09-05 01:29:03 | 48.22702 | 17.84043 | 164° | 24km/h | 35287m | -44.1m/s | -35.3°C | 1.7% | 0hPa | 2.5V | 00:00:00 | 02:06:20 | 00:00:00 | |
| EDDB2-12 | 2026-09-05 01:28:50 | 48.22727 | 17.84026 | 127° | 26km/h | 35346m | 7.1m/s | -35.9°C | 0.4% | -1.0hPa | 2.5V | 00:00:00 | 00:00:00 | 00:00:00 | |
| OE3OSB-13 | 2026-09-05 01:28:49 | 48.22739 | 17.84011 | 148° | 31km/h | 35334m | 4.8m/s | -36.0°C | 0.4% | -1.0hPa | 2.5V | 00:00:00 | 00:00:00 | 00:00:00 | |
| DO3MHA-11 | 2026-09-05 01:28:48 | 48.22738 | 17.84011 | 149° | 20km/h | 35334m | 4.7m/s | -36.0°C | 1.8% | 0hPa | 2.5V | 00:00:00 | 02:06:05 | 00:00:00 | |
| OE5WHR-10 | 2026-09-05 01:28:47 | 48.22745 | 17.84005 | 149° | 24km/h | 35329m | 4.7m/s | -36.0°C | 1.8% | 0hPa | 2.5V | 00:00:00 | 00:00:00 | 00:00:00 | |
| HA6NAB-11 | 2026-09-05 01:28:45 | 48.22752 | 17.83995 | 112° | 13km/h | 35317m | 7.2m/s | -36.2°C | 0.4% | 0hPa | 2.5V | 00:00:00 | 00:00:00 | 00:00:00 | |
| HA6NAB-11 | 2026-09-05 01:28:40 | 48.22734 | 17.83976 | 29° | 18km/h | 35284m | 5.9m/s | -36.2°C | 0.4% | 0hPa | 2.5V | 00:00:00 | 00:00:00 | 00:00:00 | |
| SONDE2-11 | 2026-09-05 01:28:39 | 48.22731 | 17.83972 | 49° | 11km/h | 35278m | 6.4m/s | -36.3°C | 0.4% | -1.0hPa | 2.5V | 00:00:00 | 00:00:00 | 00:00:00 | |
| DO3MHA-11 | 2026-09-05 01:28:38 | 48.22730 | 17.83969 | 95° | 29km/h | 35271m | 6.5m/s | -36.2°C | 1.9% | 0hPa | 2.5V | 00:00:00 | 02:05:55 | 00:00:00 | |
| PETON7-10 | 2026-09-05 01:28:37 | 48.22732 | 17.83963 | 126° | 27km/h | 35265m | 6.4m/s | -36.2°C | 1.9% | 0hPa | 2.5V | 00:00:00 | 02:05:54 | 00:00:00 | |
| OE5MMP-10 | 2026-09-05 01:28:36 | 48.22735 | 17.83957 | 130° | 33km/h | 35258m | 6.4m/s | -36.3°C | 1.9% | 0hPa | 2.5V | 00:00:00 | 02:05:53 | 00:00:00 | |
| OE5DRO-10 | 2026-09-05 01:28:35 | 48.22739 | 17.83949 | 127° | 31km/h | 35252m | 6.5m/s | -36.3°C | 1.9% | 0hPa | 2.5V | 00:00:00 | 00:00:00 | 00:00:00 | |
| OM5KV | 2026-09-05 01:28:34 | 48.22739 | 17.83949 | 128° | 31km/h | 35252m | 6.5m/s | -36.3°C | 0.4% | 0hPa | 2.5V | 00:00:00 | 00:00:00 | 00:00:00 | |
| HA6NAB-11 | 2026-09-05 01:28:33 | 48.22743 | 17.83939 | 119° | 33km/h | 35245m | 6.8m/s | -36.4°C | 0.4% | 0hPa | 2.5V | 00:00:00 | 00:00:00 | 00:00:00 | |
| OM5KV | 2026-09-05 01:28:31 | 48.22748 | 17.83914 | 96° | 35km/h | 35232m | 6.5m/s | -36.3°C | 0.4% | 0hPa | 2.5V | 00:00:00 | 00:00:00 | 00:00:00 | |
| OM5KV | 2026-09-05 01:28:30 | 48.22748 | 17.83901 | 85° | 37km/h | 35225m | 6.0m/s | -36.3°C | 0.4% | 0hPa | 2.5V | 00:00:00 | 00:00:00 | 00:00:00 | |
| DO3MHA-11 | 2026-09-05 01:28:28 | 48.22741 | 17.83862 | 73° | 24km/h | 35208m | 5.9m/s | -36.3°C | 1.9% | 0hPa | 2.5V | 00:00:00 | 02:05:45 | 00:00:00 | |
| HA6NAB-11 | 2026-09-05 01:28:27 | 48.22741 | 17.83862 | 73° | 31km/h | 35208m | 5.9m/s | -36.4°C | 0.4% | 0hPa | 2.5V | 00:00:00 | 00:00:00 | 00:00:00 | |
| OE5WHR-10 | 2026-09-05 01:28:26 | 48.22738 | 17.83842 | 88° | 31km/h | 35195m | 6.4m/s | -36.3°C | 1.9% | 0hPa | 2.5V | 00:00:00 | 02:05:43 | 00:00:00 | |
| POL1PZ | 2026-09-05 01:28:25 | 48.22738 | 17.83842 | 89° | 22km/h | 35195m | 6.4m/s | 0°C | 0% | 0hPa | 2.5V | 00:00:00 | 00:00:00 | 00:00:00 | |
| OM5KV | 2026-09-05 01:28:24 | 48.22739 | 17.83835 | 104° | 18km/h | 35189m | 5.8m/s | -36.3°C | 0.4% | 0hPa | 2.5V | 00:00:00 | 00:00:00 | 00:00:00 | |
| OE3JTB-15 | 2026-09-05 01:28:23 | 48.22741 | 17.83822 | 99° | 31km/h | 35179m | 3.9m/s | -36.3°C | 1.9% | 0hPa | 2.5V | 00:00:00 | 00:00:00 | 00:00:00 | |
| PETON7-10 | 2026-09-05 01:28:22 | 48.22741 | 17.83816 | 76° | 33km/h | 35175m | 4.8m/s | -36.3°C | 1.8% | 0hPa | 2.5V | 00:00:00 | 00:00:00 | 08:30:00 | |
| GYPAP8-17 | 2026-09-05 01:28:21 | 48.22740 | 17.83816 | 76° | 18km/h | 35175m | 4.9m/s | -36.3°C | 0.4% | 0hPa | 2.5V | 00:00:00 | 00:00:00 | 00:00:00 | |
| ATIDSZ-14 | 2026-09-05 01:28:20 | 48.22738 | 17.83809 | 59° | 24km/h | 35169m | 6.7m/s | -36.3°C | 0.4% | 0hPa | 2.5V | 00:00:00 | 00:00:00 | 00:00:00 | |
| EDDB2-12 | 2026-09-05 01:28:19 | 48.22728 | 17.83790 | 48° | 38km/h | 35155m | 5.9m/s | -36.3°C | 0.4% | -1.0hPa | 2.5V | 00:00:00 | 00:00:00 | 00:00:00 | |
| DO3MHA-11 | 2026-09-05 01:28:18 | 48.22721 | 17.83778 | 51° | 35km/h | 35150m | 5.0m/s | -36.3°C | 1.9% | 0hPa | 2.5V | 00:00:00 | 02:05:35 | 00:00:00 | |
| PG1ADW-2 | 2026-09-05 01:28:17 | 48.22714 | 17.83764 | 58° | 33km/h | 35144m | 5.4m/s | -36.3°C | 1.9% | 0hPa | 2.5V | 00:00:00 | 00:00:00 | 00:00:00 | |
| OE5DRO-10 | 2026-09-05 01:28:16 | 48.22708 | 17.83749 | 65° | 33km/h | 35138m | 6.2m/s | -36.4°C | 1.9% | 0hPa | 2.5V | 00:00:00 | 00:00:00 | 00:00:00 | |
| OE5MMP-10 | 2026-09-05 01:28:15 | 48.22705 | 17.83734 | 73° | 29km/h | 35132m | 5.9m/s | -36.4°C | 1.9% | 0hPa | 2.5V | 00:00:00 | 02:05:32 | 08:30:00 | |
| OM5KV | 2026-09-05 01:28:10 | 48.22697 | 17.83686 | 67° | 26km/h | 35111m | 6.2m/s | -36.5°C | 0.4% | 0hPa | 2.5V | 00:00:00 | 00:00:00 | 00:00:00 | |
| DO3MHA-11 | 2026-09-05 01:28:08 | 48.22686 | 17.83662 | 50° | 31km/h | 35094m | 4.8m/s | -36.5°C | 1.9% | 0hPa | 2.5V | 00:00:00 | 02:05:25 | 00:00:00 | |
| PETON7-10 | 2026-09-05 01:28:07 | 48.22681 | 17.83655 | 54° | 27km/h | 35089m | 5.7m/s | -36.4°C | 1.9% | 0hPa | 2.5V | 00:00:00 | 00:00:00 | 00:00:00 | |
| OE5MMP-10 | 2026-09-05 01:28:05 | 48.22675 | 17.83638 | 68° | 31km/h | 35077m | 5.2m/s | -36.4°C | 1.9% | 0hPa | 2.5V | 00:00:00 | 02:05:22 | 00:00:00 | |
| OE5WHR-10 | 2026-09-05 01:28:04 | 48.22673 | 17.83627 | 68° | 31km/h | 35072m | 4.8m/s | -36.5°C | 1.9% | 0hPa | 2.5V | 00:00:00 | 00:00:00 | 00:00:00 | |
| S52SK | 2026-09-05 01:28:02 | 48.22669 | 17.83617 | 64° | 33km/h | 35067m | 5.0m/s | -36.5°C | 0.4% | 0hPa | 2.5V | 00:00:00 | 00:00:00 | 00:00:00 | |
| EDDB2-12 | 2026-09-05 01:27:48 | 48.22595 | 17.83486 | 48° | 38km/h | 34982m | 5.3m/s | -36.8°C | 0.4% | -1.0hPa | 2.5V | 00:00:00 | 00:00:00 | 00:00:00 | |
| OE3OSB-13 | 2026-09-05 01:27:47 | 48.22590 | 17.83474 | 58° | 35km/h | 34977m | 5.7m/s | -36.8°C | 0.4% | -1.0hPa | 2.5V | 00:00:00 | 00:00:00 | 00:00:00 | |
| OE3MUC-15 | 2026-09-05 01:27:46 | 48.22590 | 17.83474 | 59° | 37km/h | 34977m | 5.6m/s | -36.8°C | 1.8% | 0hPa | 2.5V | 00:00:00 | 00:00:00 | 00:00:00 | |
| OE5MMP-10 | 2026-09-05 01:27:45 | 48.22586 | 17.83463 | 70° | 22km/h | 34972m | 5.0m/s | -36.8°C | 1.9% | 0hPa | 2.5V | 00:00:00 | 02:05:02 | 00:00:00 | |
| LZ4TU-5 | 2026-09-05 01:27:44 | 48.22586 | 17.83463 | 71° | 31km/h | 34972m | 5.1m/s | 0°C | 0% | 0hPa | 2.5V | 00:00:00 | 00:00:00 | 00:00:00 | |
| OE5WHR-10 | 2026-09-05 01:27:43 | 48.22583 | 17.83445 | 76° | 26km/h | 34963m | 4.3m/s | -37.0°C | 1.9% | 0hPa | 2.5V | 00:00:00 | 00:00:00 | 00:00:00 | |
| OM5KV | 2026-09-05 01:27:41 | 48.22581 | 17.83440 | 55° | 13km/h | 34958m | 5.3m/s | -37.1°C | 0.4% | 0hPa | 2.5V | 00:00:00 | 00:00:00 | 00:00:00 | |
| POL1PZ | 2026-09-05 01:27:39 | 48.22569 | 17.83439 | 350° | 24km/h | 34941m | 4.8m/s | 0°C | 0% | 0hPa | 2.5V | 00:00:00 | 00:00:00 | 00:00:00 | |
| DO3MHA-11 | 2026-09-05 01:27:38 | 48.22563 | 17.83441 | 353° | 26km/h | 34936m | 4.4m/s | -37.3°C | 1.9% | 0hPa | 2.5V | 00:00:00 | 02:04:55 | 00:00:00 | |
| OM5KV | 2026-09-05 01:27:37 | 48.22557 | 17.83442 | 2° | 24km/h | 34932m | 5.1m/s | -37.4°C | 0.4% | 0hPa | 2.5V | 00:00:00 | 00:00:00 | 00:00:00 | |
| HA6NAB-11 | 2026-09-05 01:27:36 | 48.22557 | 17.83442 | 2° | 24km/h | 34932m | 5.1m/s | -37.4°C | 0.4% | 0hPa | 2.5V | 00:00:00 | 00:00:00 | 00:00:00 | |
| OM5KV | 2026-09-05 01:27:35 | 48.22551 | 17.83440 | 14° | 22km/h | 34926m | 5.2m/s | -37.5°C | 0.4% | 0hPa | 2.5V | 00:00:00 | 00:00:00 | 00:00:00 | |
| HA6NAB-11 | 2026-09-05 01:27:30 | 48.22527 | 17.83419 | 24° | 27km/h | 34901m | 5.9m/s | -37.6°C | 0.4% | 0hPa | 2.5V | 00:00:00 | 00:00:00 | 00:00:00 | |
| OM5KV | 2026-09-05 01:27:29 | 48.22520 | 17.83416 | 16° | 31km/h | 34895m | 5.1m/s | -37.6°C | 0.4% | 0hPa | 2.5V | 00:00:00 | 00:00:00 | 00:00:00 | |
| DO3MHA-11 | 2026-09-05 01:27:28 | 48.22505 | 17.83410 | 17° | 29km/h | 34886m | 4.5m/s | -37.6°C | 2.0% | 0hPa | 2.5V | 00:00:00 | 02:04:45 | 00:00:00 | |
| SP9KGR-15 | 2026-09-05 01:27:27 | 48.22505 | 17.83410 | 17° | 33km/h | 34886m | 4.5m/s | -37.7°C | 0.4% | 0hPa | 2.5V | 00:00:00 | 00:00:00 | 00:00:00 | |
| OE5DXL-15 | 2026-09-05 01:27:26 | 48.22490 | 17.83401 | 33° | 27km/h | 34876m | 5.5m/s | -37.6°C | 2.0% | 0hPa | 2.5V | 00:00:00 | 00:00:00 | 00:00:00 | |
| OE5MMP-10 | 2026-09-05 01:27:25 | 48.22483 | 17.83394 | 38° | 26km/h | 34870m | 4.4m/s | -37.6°C | 2.0% | 0hPa | 2.5V | 00:00:00 | 02:04:42 | 00:00:00 | |
| DO3MHA-12 | 2026-09-05 01:27:24 | 48.22477 | 17.83387 | 37° | 26km/h | 34866m | 3.6m/s | -37.6°C | 2.0% | 0hPa | 2.5V | 00:00:00 | 02:04:41 | 00:00:00 | |
| PETON7-10 | 2026-09-05 01:27:22 | 48.22464 | 17.83377 | 16° | 24km/h | 34857m | 5.7m/s | -37.6°C | 2.0% | 0hPa | 2.5V | 00:00:00 | 00:00:00 | 00:00:00 | |
| OE5WHR-10 | 2026-09-05 01:27:21 | 48.22457 | 17.83376 | 359° | 26km/h | 34851m | 6.3m/s | -37.6°C | 2.0% | 0hPa | 2.5V | 00:00:00 | 02:04:38 | 00:00:00 | |
| OE5DRO-10 | 2026-09-05 01:27:19 | 48.22444 | 17.83380 | 342° | 26km/h | 34841m | 4.0m/s | -37.6°C | 2.0% | 0hPa | 2.5V | 00:00:00 | 00:00:00 | 00:00:00 | |
| DO3MHA-11 | 2026-09-05 01:27:18 | 48.22438 | 17.83383 | 342° | 24km/h | 34837m | 4.3m/s | -37.6°C | 1.9% | 0hPa | 2.5V | 00:00:00 | 02:04:35 | 00:00:00 | |
| PG1ADW-2 | 2026-09-05 01:27:17 | 48.22433 | 17.83385 | 351° | 26km/h | 34831m | 5.9m/s | -37.7°C | 2.0% | 0hPa | 2.5V | 00:00:00 | 00:00:00 | 00:00:00 | |
| OE3MUC-15 | 2026-09-05 01:27:16 | 48.22429 | 17.83385 | 10° | 16km/h | 34826m | 5.5m/s | -37.7°C | 2.0% | 0hPa | 2.5V | 00:00:00 | 00:00:00 | 08:30:00 | |
| OE5MMP-10 | 2026-09-05 01:27:15 | 48.22425 | 17.83383 | 29° | 26km/h | 34820m | 4.8m/s | -37.8°C | 2.0% | 0hPa | 2.5V | 00:00:00 | 02:04:32 | 00:00:00 | |
| OM5KV | 2026-09-05 01:27:13 | 48.22421 | 17.83380 | 34° | 18km/h | 34816m | 4.4m/s | -37.8°C | 0.4% | 0hPa | 2.5V | 00:00:00 | 00:00:00 | 00:00:00 | |
| OE3MUC-15 | 2026-09-05 01:27:12 | 48.22412 | 17.83373 | 16° | 29km/h | 34806m | 5.4m/s | -37.8°C | 2.0% | 0hPa | 2.5V | 00:00:00 | 00:00:00 | 00:00:00 | |
| SP9KGR-15 | 2026-09-05 01:27:10 | 48.22405 | 17.83371 | 10° | 29km/h | 34801m | 5.5m/s | -37.9°C | 0.4% | 0hPa | 2.5V | 00:00:00 | 00:00:00 | 00:00:00 | |
| OM5KV | 2026-09-05 01:27:09 | 48.22397 | 17.83369 | 8° | 33km/h | 34795m | 4.8m/s | -37.9°C | 0.4% | 0hPa | 2.5V | 00:00:00 | 00:00:00 | 00:00:00 | |
| OE3MUC-15 | 2026-09-05 01:27:08 | 48.22382 | 17.83366 | 11° | 26km/h | 34785m | 5.7m/s | -37.9°C | 2.0% | 0hPa | 2.5V | 00:00:00 | 00:00:00 | 00:00:00 | |
| PETON7-10 | 2026-09-05 01:27:06 | 48.22369 | 17.83362 | 20° | 27km/h | 34774m | 4.5m/s | -37.9°C | 2.0% | 0hPa | 2.5V | 00:00:00 | 02:04:23 | 00:00:00 | |
| OE5MMP-10 | 2026-09-05 01:27:05 | 48.22364 | 17.83358 | 19° | 29km/h | 34770m | 4.1m/s | -38.0°C | 2.0% | 0hPa | 2.5V | 00:00:00 | 02:04:22 | 00:00:00 | |
| OE3MUC-15 | 2026-09-05 01:27:04 | 48.22358 | 17.83356 | 15° | 31km/h | 34765m | 4.9m/s | -38.0°C | 2.0% | 0hPa | 2.5V | 00:00:00 | 00:00:00 | 00:00:00 | |
| OM5KV | 2026-09-05 01:27:03 | 48.22358 | 17.83356 | 16° | 26km/h | 34765m | 4.9m/s | -38.0°C | 0.4% | 0hPa | 2.5V | 00:00:00 | 00:00:00 | 00:00:00 | |
| DO3MHA-12 | 2026-09-05 01:27:02 | 48.22344 | 17.83353 | 3° | 29km/h | 34754m | 5.7m/s | -37.9°C | 2.0% | 0hPa | 2.5V | 00:00:00 | 02:04:19 | 00:00:00 | |
| EDDB2-12 | 2026-09-05 01:26:46 | 48.22222 | 17.83309 | 30° | 22km/h | 34667m | 5.2m/s | 0°C | -1.0% | -1.0hPa | 2.5V | 00:00:00 | 00:00:00 | 00:00:00 | |
| OE3OSB-13 | 2026-09-05 01:26:45 | 48.22218 | 17.83304 | 38° | 22km/h | 34662m | 4.2m/s | -38.4°C | 0.4% | -1.0hPa | 2.5V | 00:00:00 | 00:00:00 | 00:00:00 | |
| OE3MUC-15 | 2026-09-05 01:26:44 | 48.22218 | 17.83304 | 39° | 27km/h | 34662m | 4.1m/s | -38.4°C | 2.1% | 0hPa | 2.5V | 00:00:00 | 00:00:00 | 00:00:00 | |
| DO3MHA-12 | 2026-09-05 01:26:42 | 48.22207 | 17.83294 | 28° | 31km/h | 34654m | 5.3m/s | -38.5°C | 2.0% | 0hPa | 2.5V | 00:00:00 | 02:03:59 | 00:00:00 | |
| OE5DRO-10 | 2026-09-05 01:26:41 | 48.22200 | 17.83290 | 17° | 24km/h | 34648m | 6.1m/s | -38.5°C | 2.1% | 0hPa | 2.5V | 00:00:00 | 00:00:00 | 00:00:00 | |
| OE3MUC-15 | 2026-09-05 01:26:40 | 48.22192 | 17.83287 | 9° | 40km/h | 34641m | 6.0m/s | -38.5°C | 2.1% | 0hPa | 2.5V | 00:00:00 | 00:00:00 | 08:30:00 | |
| OM5KV | 2026-09-05 01:26:39 | 48.22192 | 17.83287 | 10° | 38km/h | 34641m | 6.1m/s | -38.5°C | 0.5% | 0hPa | 2.5V | 00:00:00 | 00:00:00 | 00:00:00 | |
| OE5WHR-10 | 2026-09-05 01:26:38 | 48.22171 | 17.83285 | 1° | 22km/h | 34631m | 4.3m/s | -38.5°C | 2.1% | 0hPa | 2.5V | 00:00:00 | 00:00:00 | 00:00:00 | |
| POL1PZ | 2026-09-05 01:26:37 | 48.22161 | 17.83285 | 3° | 37km/h | 34626m | 4.3m/s | 0°C | 0% | 0hPa | 2.5V | 00:00:00 | 00:00:00 | 00:00:00 | |
| OE3MUC-15 | 2026-09-05 01:26:36 | 48.22153 | 17.83284 | 6° | 24km/h | 34622m | 4.8m/s | -38.5°C | 2.1% | 0hPa | 2.5V | 00:00:00 | 00:00:00 | 00:00:00 | |
| OM5KV | 2026-09-05 01:26:35 | 48.22145 | 17.83282 | 13° | 26km/h | 34616m | 5.5m/s | -38.6°C | 0.4% | 0hPa | 2.5V | 00:00:00 | 00:00:00 | 00:00:00 | |
| DO3MHA-12 | 2026-09-05 01:26:32 | 48.22131 | 17.83276 | 13° | 15km/h | 34601m | 5.2m/s | -38.6°C | 2.1% | 0hPa | 2.5V | 00:00:00 | 02:03:49 | 00:00:00 | |
| OM5KV | 2026-09-05 01:26:29 | 48.22122 | 17.83275 | 355° | 20km/h | 34589m | 5.2m/s | -38.6°C | 0.5% | 0hPa | 2.5V | 00:00:00 | 00:00:00 | 00:00:00 | |
| OE3MUC-15 | 2026-09-05 01:26:28 | 48.22112 | 17.83278 | 340° | 15km/h | 34579m | 4.5m/s | -38.6°C | 2.1% | 0hPa | 2.5V | 00:00:00 | 00:00:00 | 00:00:00 | |
| OE3JTB-15 | 2026-09-05 01:26:27 | 48.22108 | 17.83281 | 335° | 13km/h | 34574m | 5.6m/s | -38.6°C | 2.1% | 0hPa | 2.5V | 00:00:00 | 02:03:44 | 00:00:00 | |
| OE5DXL-15 | 2026-09-05 01:26:26 | 48.22105 | 17.83283 | 330° | 11km/h | 34568m | 6.4m/s | -38.6°C | 2.1% | 0hPa | 2.5V | 00:00:00 | 00:00:00 | 00:00:00 | |
| OE5MMP-10 | 2026-09-05 01:26:25 | 48.22103 | 17.83285 | 332° | 16km/h | 34562m | 5.3m/s | -38.7°C | 2.1% | 0hPa | 2.5V | 00:00:00 | 02:03:42 | 00:00:00 | |
| OE3MUC-15 | 2026-09-05 01:26:24 | 48.22101 | 17.83286 | 347° | 15km/h | 34557m | 4.5m/s | -38.7°C | 2.1% | 0hPa | 2.5V | 00:00:00 | 00:00:00 | 00:00:00 | |
| OM5KV | 2026-09-05 01:26:23 | 48.22101 | 17.83286 | 347° | 7km/h | 34557m | 4.5m/s | -38.8°C | 0.5% | 0hPa | 2.5V | 00:00:00 | 00:00:00 | 00:00:00 | |
| DO3MHA-12 | 2026-09-05 01:26:22 | 48.22095 | 17.83286 | 1° | 20km/h | 34547m | 5.9m/s | -38.7°C | 2.1% | 0hPa | 2.5V | 00:00:00 | 02:03:39 | 00:00:00 | |
| PETON7-10 | 2026-09-05 01:26:21 | 48.22090 | 17.83286 | 2° | 13km/h | 34541m | 6.9m/s | -38.8°C | 2.1% | 0hPa | 2.5V | 00:00:00 | 02:03:38 | 00:00:00 | |
| OE3MUC-15 | 2026-09-05 01:26:20 | 48.22084 | 17.83286 | 358° | 24km/h | 34534m | 5.5m/s | -38.8°C | 2.1% | 0hPa | 2.5V | 00:00:00 | 00:00:00 | 00:00:00 | |
| OM5KV | 2026-09-05 01:26:18 | 48.22070 | 17.83288 | 355° | 24km/h | 34525m | 3.9m/s | -38.8°C | 0.5% | 0hPa | 2.5V | 00:00:00 | 00:00:00 | 00:00:00 | |
| PG1ADW-2 | 2026-09-05 01:26:17 | 48.22065 | 17.83288 | 353° | 9km/h | 34520m | 6.0m/s | -38.8°C | 2.1% | 0hPa | 2.5V | 00:00:00 | 02:03:34 | 08:30:00 | |
| OE3MUC-15 | 2026-09-05 01:26:16 | 48.22062 | 17.83289 | 335° | 5km/h | 34513m | 7.0m/s | -38.8°C | 2.1% | 0hPa | 2.5V | 00:00:00 | 00:00:00 | 00:00:00 | |
| OE5MMP-10 | 2026-09-05 01:26:15 | 48.22062 | 17.83290 | 242° | 9km/h | 34506m | 6.2m/s | -38.8°C | 2.1% | 0hPa | 2.5V | 00:00:00 | 02:03:32 | 00:00:00 | |
| ATIDSZ-14 | 2026-09-05 01:26:14 | 48.22062 | 17.83291 | 242° | 4km/h | 34506m | 6.2m/s | -38.8°C | 0.5% | 0hPa | 2.4V | 00:00:00 | 00:00:00 | 00:00:00 | |
| OE3OSB-13 | 2026-09-05 01:26:13 | 48.22064 | 17.83293 | 216° | 5km/h | 34495m | 4.9m/s | -38.8°C | 0.4% | -1.0hPa | 2.4V | 00:00:00 | 00:00:00 | 00:00:00 | |
| DO3MHA-12 | 2026-09-05 01:26:12 | 48.22065 | 17.83294 | 240° | 11km/h | 34490m | 5.9m/s | -38.7°C | 2.1% | 0hPa | 2.4V | 00:00:00 | 02:03:29 | 00:00:00 | |
| OM5KV | 2026-09-05 01:26:10 | 48.22064 | 17.83294 | 360° | 7km/h | 34484m | 5.7m/s | -38.7°C | 0.5% | 0hPa | 2.4V | 00:00:00 | 00:00:00 | 00:00:00 | |
| HA6NAB-11 | 2026-09-05 01:26:09 | 48.22062 | 17.83294 | 13° | 11km/h | 34478m | 5.6m/s | -38.7°C | 0.5% | 0hPa | 2.4V | 00:00:00 | 00:00:00 | 00:00:00 | |
| DO3MHA-11 | 2026-09-05 01:26:08 | 48.22055 | 17.83290 | 31° | 9km/h | 34467m | 5.7m/s | -38.6°C | 2.1% | 0hPa | 2.4V | 00:00:00 | 02:03:25 | 00:00:00 | |
| SP9KGR-15 | 2026-09-05 01:26:07 | 48.22051 | 17.83286 | 43° | 16km/h | 34461m | 6.3m/s | -38.6°C | 0.5% | 0hPa | 2.4V | 00:00:00 | 00:00:00 | 00:00:00 | |
| PETON7-10 | 2026-09-05 01:26:06 | 48.22049 | 17.83282 | 61° | 11km/h | 34454m | 5.9m/s | -38.6°C | 2.1% | 0hPa | 2.4V | 00:00:00 | 00:00:00 | 08:30:00 | |
| OE5MMP-10 | 2026-09-05 01:26:05 | 48.22048 | 17.83278 | 71° | 9km/h | 34448m | 5.1m/s | -38.5°C | 2.1% | 0hPa | 2.5V | 00:00:00 | 02:03:22 | 00:00:00 | |
| OE3MUC-15 | 2026-09-05 01:26:04 | 48.22047 | 17.83274 | 72° | 7km/h | 34443m | 4.8m/s | -38.5°C | 2.1% | 0hPa | 2.5V | 00:00:00 | 00:00:00 | 08:30:00 | |
| OE5DRO-10 | 2026-09-05 01:26:03 | 48.22046 | 17.83272 | 46° | 11km/h | 34438m | 5.9m/s | -38.5°C | 2.1% | 0hPa | 2.5V | 00:00:00 | 00:00:00 | 08:30:00 | |
| DO3MHA-12 | 2026-09-05 01:26:02 | 48.22045 | 17.83271 | 1° | 11km/h | 34432m | 6.6m/s | -38.4°C | 2.0% | 0hPa | 2.5V | 00:00:00 | 02:03:19 | 00:00:00 | |
| OE3MUC-15 | 2026-09-05 01:26:00 | 48.22042 | 17.83273 | 315° | 7km/h | 34421m | 4.7m/s | -38.4°C | 2.1% | 0hPa | 2.5V | 00:00:00 | 00:00:00 | 00:00:00 | |
| OE3JTB-15 | 2026-09-05 01:25:58 | 48.22042 | 17.83275 | 188° | 18km/h | 34409m | 6.9m/s | -38.4°C | 2.0% | 0hPa | 2.5V | 00:00:00 | 00:00:00 | 00:00:00 | |
| OE3MUC-15 | 2026-09-05 01:25:56 | 48.22047 | 17.83272 | 143° | 15km/h | 34397m | 5.2m/s | -38.4°C | 2.0% | 0hPa | 2.5V | 00:00:00 | 00:00:00 | 00:00:00 | |
| OE5MMP-10 | 2026-09-05 01:25:55 | 48.22050 | 17.83268 | 128° | 13km/h | 34392m | 4.2m/s | -38.4°C | 2.1% | 0hPa | 2.5V | 00:00:00 | 02:03:12 | 00:00:00 | |
| POL1PZ | 2026-09-05 01:25:54 | 48.22050 | 17.83268 | 129° | 16km/h | 34392m | 4.2m/s | 0°C | 0% | 0hPa | 2.5V | 00:00:00 | 00:00:00 | 00:00:00 | |
| DO3MHA-12 | 2026-09-05 01:25:52 | 48.22050 | 17.83253 | 37° | 16km/h | 34374m | 6.7m/s | -38.4°C | 2.1% | 0hPa | 2.5V | 00:00:00 | 02:03:09 | 08:30:00 | |
| PETON7-10 | 2026-09-05 01:25:51 | 48.22046 | 17.83251 | 11° | 18km/h | 34368m | 6.2m/s | -38.4°C | 2.0% | 0hPa | 2.5V | 00:00:00 | 00:00:00 | 00:00:00 | |
| S52SK | 2026-09-05 01:25:50 | 48.22046 | 17.83251 | 11° | 18km/h | 34368m | 6.3m/s | -38.5°C | 0.5% | 0hPa | 2.5V | 00:00:00 | 00:00:00 | 00:00:00 | |
| OM5KV | 2026-09-05 01:25:49 | 48.22042 | 17.83251 | 355° | 18km/h | 34362m | 4.8m/s | -38.5°C | 0.4% | 0hPa | 2.5V | 00:00:00 | 00:00:00 | 00:00:00 | |
| OE3MUC-15 | 2026-09-05 01:25:48 | 48.22035 | 17.83254 | 330° | 11km/h | 34353m | 5.2m/s | -38.5°C | 2.0% | 0hPa | 2.5V | 00:00:00 | 00:00:00 | 00:00:00 | |
| OE5MMP-10 | 2026-09-05 01:25:45 | 48.22040 | 17.83249 | 146° | 22km/h | 34332m | 7.2m/s | -38.6°C | 2.1% | 0hPa | 2.5V | 00:00:00 | 02:03:02 | 00:00:00 | |
| OE3MUC-15 | 2026-09-05 01:25:44 | 48.22045 | 17.83244 | 139° | 24km/h | 34326m | 5.7m/s | -38.6°C | 2.1% | 0hPa | 2.5V | 00:00:00 | 00:00:00 | 00:00:00 | |
| DO3MHA-12 | 2026-09-05 01:25:42 | 48.22053 | 17.83229 | 117° | 20km/h | 34315m | 5.3m/s | -38.6°C | 2.1% | 0hPa | 2.5V | 00:00:00 | 02:02:59 | 00:00:00 | |
| OM5KV | 2026-09-05 01:25:41 | 48.22053 | 17.83228 | 118° | 22km/h | 34315m | 5.3m/s | -38.6°C | 0.5% | 0hPa | 2.5V | 00:00:00 | 00:00:00 | 00:00:00 | |
| DO3MHA-11 | 2026-09-05 01:25:38 | 48.22043 | 17.83211 | 11° | 24km/h | 34289m | 5.0m/s | -38.6°C | 2.1% | 0hPa | 2.5V | 00:00:00 | 02:02:55 | 00:00:00 | |
| PETON7-10 | 2026-09-05 01:25:36 | 48.22033 | 17.83206 | 35° | 18km/h | 34279m | 5.5m/s | -38.7°C | 2.1% | 0hPa | 2.5V | 00:00:00 | 02:02:53 | 00:00:00 | |
| OE5MMP-10 | 2026-09-05 01:25:35 | 48.22031 | 17.83201 | 70° | 22km/h | 34273m | 6.5m/s | -38.7°C | 2.1% | 0hPa | 2.5V | 00:00:00 | 02:02:52 | 00:00:00 | |
| OE5WHR-10 | 2026-09-05 01:25:34 | 48.22031 | 17.83195 | 101° | 18km/h | 34266m | 7.1m/s | -38.8°C | 2.1% | 0hPa | 2.5V | 00:00:00 | 00:00:00 | 00:00:00 | |
| SONDE2-11 | 2026-09-05 01:25:33 | 48.22032 | 17.83186 | 111° | 27km/h | 34259m | 6.9m/s | -38.9°C | 0.5% | -1.0hPa | 2.5V | 00:00:00 | 00:00:00 | 00:00:00 | |
| DO3MHA-12 | 2026-09-05 01:25:32 | 48.22036 | 17.83176 | 116° | 18km/h | 34252m | 6.1m/s | -38.8°C | 2.1% | 0hPa | 2.5V | 00:00:00 | 02:02:49 | 00:00:00 | |
| HA6NAB-11 | 2026-09-05 01:25:31 | 48.22036 | 17.83176 | 117° | 33km/h | 34252m | 6.2m/s | -38.9°C | 0.5% | 0hPa | 2.5V | 00:00:00 | 00:00:00 | 00:00:00 | |
| OE3JTB-15 | 2026-09-05 01:25:29 | 48.22043 | 17.83145 | 97° | 18km/h | 34234m | 6.5m/s | -38.9°C | 2.1% | 0hPa | 2.5V | 00:00:00 | 00:00:00 | 00:00:00 | |
| DO3MHA-11 | 2026-09-05 01:25:28 | 48.22042 | 17.83138 | 76° | 13km/h | 34227m | 7.0m/s | -38.9°C | 2.2% | 0hPa | 2.5V | 00:00:00 | 02:02:45 | 00:00:00 | |
| OE5DXL-15 | 2026-09-05 01:25:26 | 48.22038 | 17.83130 | 31° | 18km/h | 34213m | 6.1m/s | -38.9°C | 2.2% | 0hPa | 2.4V | 00:00:00 | 00:00:00 | 00:00:00 | |
| OE5MMP-10 | 2026-09-05 01:25:25 | 48.22036 | 17.83128 | 29° | 15km/h | 34206m | 7.0m/s | -38.9°C | 2.2% | 0hPa | 2.5V | 00:00:00 | 02:02:42 | 00:00:00 | |
| LZ4TU-5 | 2026-09-05 01:25:24 | 48.22036 | 17.83128 | 30° | 11km/h | 34206m | 7.1m/s | 0°C | 0% | 0hPa | 2.5V | 00:00:00 | 00:00:00 | 00:00:00 | |
| DO3MHA-12 | 2026-09-05 01:25:22 | 48.22031 | 17.83122 | 46° | 22km/h | 34188m | 5.5m/s | -38.9°C | 2.2% | 0hPa | 2.5V | 00:00:00 | 02:02:39 | 00:00:00 | |
| PETON7-10 | 2026-09-05 01:25:21 | 48.22029 | 17.83119 | 41° | 22km/h | 34181m | 7.1m/s | -38.9°C | 2.2% | 0hPa | 2.5V | 00:00:00 | 00:00:00 | 00:00:00 | |
| OE3MUC-15 | 2026-09-05 01:25:20 | 48.22027 | 17.83116 | 42° | 18km/h | 34174m | 7.1m/s | -38.9°C | 2.2% | 0hPa | 2.5V | 00:00:00 | 00:00:00 | 00:00:00 | |
| SP9KGR-15 | 2026-09-05 01:25:19 | 48.22024 | 17.83112 | 51° | 16km/h | 34167m | 6.0m/s | -38.9°C | 0.5% | 0hPa | 2.5V | 00:00:00 | 00:00:00 | 00:00:00 | |
| DO3MHA-11 | 2026-09-05 01:25:18 | 48.22021 | 17.83106 | 67° | 24km/h | 34162m | 5.6m/s | -38.8°C | 2.2% | 0hPa | 2.5V | 00:00:00 | 02:02:35 | 00:00:00 | |
| OE3MUC-15 | 2026-09-05 01:25:16 | 48.22020 | 17.83088 | 94° | 29km/h | 34149m | 8.2m/s | -38.8°C | 2.1% | 0hPa | 2.5V | 00:00:00 | 00:00:00 | 00:00:00 | |
| OE5MMP-10 | 2026-09-05 01:25:15 | 48.22021 | 17.83077 | 103° | 22km/h | 34141m | 7.2m/s | -38.8°C | 2.2% | 0hPa | 2.4V | 00:00:00 | 02:02:32 | 08:30:00 | |
| OM5KV | 2026-09-05 01:25:14 | 48.22021 | 17.83077 | 104° | 31km/h | 34141m | 7.2m/s | -38.8°C | 0.5% | 0hPa | 2.5V | 00:00:00 | 00:00:00 | 00:00:00 | |
| OE5WHR-10 | 2026-09-05 01:25:13 | 48.22025 | 17.83055 | 101° | 16km/h | 34129m | 4.9m/s | -38.8°C | 2.1% | 0hPa | 2.5V | 00:00:00 | 02:02:30 | 00:00:00 | |
| ATIDSZ-14 | 2026-09-05 01:25:12 | 48.22025 | 17.83047 | 86° | 20km/h | 34123m | 6.5m/s | -38.7°C | 0.5% | 0hPa | 2.5V | 00:00:00 | 00:00:00 | 00:00:00 | |
| OM5KV | 2026-09-05 01:25:11 | 48.22025 | 17.83047 | 86° | 20km/h | 34123m | 6.5m/s | -38.7°C | 0.5% | 0hPa | 2.5V | 00:00:00 | 00:00:00 | 00:00:00 | |
| HA6NAB-11 | 2026-09-05 01:25:10 | 48.22024 | 17.83040 | 54° | 16km/h | 34116m | 7.9m/s | -38.7°C | 0.5% | 0hPa | 2.5V | 00:00:00 | 00:00:00 | 00:00:00 | |
| DO3MHA-11 | 2026-09-05 01:25:08 | 48.22009 | 17.83037 | 351° | 20km/h | 34095m | 5.3m/s | -38.6°C | 2.1% | 0hPa | 2.5V | 00:00:00 | 02:02:25 | 00:00:00 | |
| PETON7-10 | 2026-09-05 01:25:06 | 48.22001 | 17.83038 | 17° | 16km/h | 34083m | 7.0m/s | -38.5°C | 2.1% | 0hPa | 2.5V | 00:00:00 | 00:00:00 | 00:00:00 | |
| OE5MMP-10 | 2026-09-05 01:25:05 | 48.22000 | 17.83035 | 79° | 18km/h | 34075m | 6.9m/s | -38.4°C | 2.1% | 0hPa | 2.5V | 00:00:00 | 02:02:22 | 00:00:00 | |
| OE3MUC-15 | 2026-09-05 01:25:04 | 48.22000 | 17.83030 | 99° | 24km/h | 34068m | 6.8m/s | -38.4°C | 2.1% | 0hPa | 2.5V | 00:00:00 | 00:00:00 | 00:00:00 | |
| DO3MHA-12 | 2026-09-05 01:25:02 | 48.22001 | 17.83013 | 94° | 16km/h | 34054m | 7.5m/s | -38.4°C | 2.1% | 0hPa | 2.4V | 00:00:00 | 02:02:19 | 00:00:00 | |
| OE3MUC-15 | 2026-09-05 01:25:00 | 48.21999 | 17.82993 | 72° | 18km/h | 34040m | 6.0m/s | -38.3°C | 2.1% | 0hPa | 2.4V | 00:00:00 | 00:00:00 | 00:00:00 | |
| DO3MHA-11 | 2026-09-05 01:24:58 | 48.21994 | 17.82979 | 53° | 13km/h | 34028m | 6.4m/s | -38.3°C | 2.1% | 0hPa | 2.4V | 00:00:00 | 02:02:15 | 08:30:00 | |
| PG1ADW-2 | 2026-09-05 01:24:56 | 48.21990 | 17.82973 | 18° | 11km/h | 34014m | 7.6m/s | -38.4°C | 2.1% | 0hPa | 2.4V | 00:00:00 | 02:02:13 | 00:00:00 | |
| OE5MMP-10 | 2026-09-05 01:24:55 | 48.21988 | 17.82973 | 338° | 15km/h | 34006m | 7.0m/s | -38.4°C | 2.1% | 0hPa | 2.4V | 00:00:00 | 02:02:12 | 00:00:00 | |
| S52SK | 2026-09-05 01:24:54 | 48.21989 | 17.82973 | 339° | 5km/h | 34006m | 7.0m/s | -38.4°C | 0.5% | 0hPa | 2.4V | 00:00:00 | 00:00:00 | 00:00:00 | |
| DO3MHA-12 | 2026-09-05 01:24:52 | 48.21982 | 17.82975 | 7° | 15km/h | 33986m | 7.4m/s | -38.4°C | 2.1% | 0hPa | 2.4V | 00:00:00 | 02:02:09 | 00:00:00 | |
| PETON7-10 | 2026-09-05 01:24:51 | 48.21978 | 17.82974 | 25° | 13km/h | 33979m | 6.3m/s | -38.4°C | 2.1% | 0hPa | 2.4V | 00:00:00 | 02:02:08 | 00:00:00 | |
| ATIDSZ-14 | 2026-09-05 01:24:50 | 48.21978 | 17.82974 | 26° | 16km/h | 33979m | 6.3m/s | -38.4°C | 0.5% | 0hPa | 2.4V | 00:00:00 | 00:00:00 | 00:00:00 | |
| OE3MUC-15 | 2026-09-05 01:24:48 | 48.21972 | 17.82959 | 95° | 18km/h | 33958m | 8.6m/s | -38.3°C | 2.1% | 0hPa | 2.4V | 00:00:00 | 00:00:00 | 00:00:00 | |
| OE5DRO-10 | 2026-09-05 01:24:47 | 48.21973 | 17.82953 | 109° | 15km/h | 33950m | 7.3m/s | -38.3°C | 2.1% | 0hPa | 2.4V | 00:00:00 | 00:00:00 | 00:00:00 | |
| SP9KGR-15 | 2026-09-05 01:24:45 | 48.21977 | 17.82941 | 113° | 16km/h | 33937m | 6.1m/s | -38.2°C | 0.5% | 0hPa | 2.4V | 00:00:00 | 00:00:00 | 00:00:00 | |
| OE3MUC-15 | 2026-09-05 01:24:44 | 48.21977 | 17.82936 | 96° | 11km/h | 33930m | 7.7m/s | -38.2°C | 2.1% | 0hPa | 2.4V | 00:00:00 | 00:00:00 | 00:00:00 | |
| S52SK | 2026-09-05 01:24:43 | 48.21977 | 17.82936 | 96° | 13km/h | 33930m | 7.7m/s | -38.2°C | 0.5% | 0hPa | 2.4V | 00:00:00 | 00:00:00 | 00:00:00 | |
| GYPAP8-17 | 2026-09-05 01:24:42 | 48.21975 | 17.82930 | 14° | 13km/h | 33915m | 6.9m/s | -38.1°C | 0.5% | 0hPa | 2.4V | 00:00:00 | 00:00:00 | 00:00:00 | |
| OE3MUC-15 | 2026-09-05 01:24:40 | 48.21969 | 17.82930 | 336° | 7km/h | 33902m | 6.6m/s | -38.0°C | 2.1% | 0hPa | 2.4V | 00:00:00 | 00:00:00 | 00:00:00 | |
| DO3MHA-11 | 2026-09-05 01:24:38 | 48.21967 | 17.82934 | 242° | 15km/h | 33887m | 7.1m/s | -37.9°C | 2.1% | 0hPa | 2.5V | 00:00:00 | 02:01:55 | 00:00:00 | |
| PETON7-10 | 2026-09-05 01:24:36 | 48.21969 | 17.82933 | 128° | 13km/h | 33872m | 7.0m/s | -37.8°C | 2.1% | 0hPa | 2.5V | 00:00:00 | 00:00:00 | 00:00:00 | |
| OE5MMP-10 | 2026-09-05 01:24:35 | 48.21970 | 17.82930 | 107° | 15km/h | 33865m | 7.8m/s | -37.8°C | 2.0% | 0hPa | 2.4V | 00:00:00 | 02:01:52 | 00:00:00 | |
| PG1ADW-2 | 2026-09-05 01:24:34 | 48.21971 | 17.82925 | 88° | 16km/h | 33857m | 7.3m/s | -37.8°C | 2.0% | 0hPa | 2.4V | 00:00:00 | 00:00:00 | 00:00:00 | |
| DO3MHA-12 | 2026-09-05 01:24:32 | 48.21969 | 17.82909 | 83° | 15km/h | 33843m | 6.2m/s | -37.7°C | 2.0% | 0hPa | 2.4V | 00:00:00 | 02:01:49 | 00:00:00 | |
| OM5KV | 2026-09-05 01:24:31 | 48.21968 | 17.82901 | 90° | 22km/h | 33836m | 6.9m/s | -37.7°C | 0.4% | 0hPa | 2.4V | 00:00:00 | 00:00:00 | 00:00:00 | |
| HA6NAB-11 | 2026-09-05 01:24:29 | 48.21969 | 17.82893 | 101° | 20km/h | 33829m | 8.1m/s | -37.7°C | 0.4% | 0hPa | 2.4V | 00:00:00 | 00:00:00 | 00:00:00 | |
| DO3MHA-11 | 2026-09-05 01:24:28 | 48.21972 | 17.82882 | 121° | 11km/h | 33815m | 6.2m/s | -37.6°C | 2.0% | 0hPa | 2.4V | 00:00:00 | 02:01:45 | 00:00:00 | |
| OE5DXL-15 | 2026-09-05 01:24:26 | 48.21973 | 17.82877 | 31° | 16km/h | 33800m | 8.3m/s | -37.6°C | 2.0% | 0hPa | 2.4V | 00:00:00 | 00:00:00 | 00:00:00 | |
| OE5MMP-10 | 2026-09-05 01:24:25 | 48.21971 | 17.82877 | 358° | 18km/h | 33792m | 7.3m/s | -37.6°C | 2.0% | 0hPa | 2.4V | 00:00:00 | 02:01:42 | 00:00:00 | |
| OE3MUC-15 | 2026-09-05 01:24:24 | 48.21969 | 17.82877 | 2° | 9km/h | 33785m | 5.9m/s | -37.6°C | 2.0% | 0hPa | 2.4V | 00:00:00 | 00:00:00 | 00:00:00 | |
| HA6NAB-11 | 2026-09-05 01:24:23 | 48.21969 | 17.82877 | 2° | 9km/h | 33785m | 6.0m/s | -37.7°C | 0.4% | 0hPa | 2.4V | 00:00:00 | 00:00:00 | 00:00:00 | |
| DO3MHA-12 | 2026-09-05 01:24:22 | 48.21966 | 17.82875 | 80° | 20km/h | 33772m | 7.5m/s | -37.6°C | 2.0% | 0hPa | 2.4V | 00:00:00 | 02:01:39 | 08:30:00 | |
| OE5WHR-10 | 2026-09-05 01:24:21 | 48.21967 | 17.82872 | 115° | 20km/h | 33765m | 7.4m/s | -37.6°C | 2.0% | 0hPa | 2.4V | 00:00:00 | 00:00:00 | 00:00:00 | |
| OM5KV | 2026-09-05 01:24:20 | 48.21969 | 17.82866 | 119° | 22km/h | 33757m | 6.9m/s | -37.6°C | 0.5% | 0hPa | 2.4V | 00:00:00 | 00:00:00 | 00:00:00 | |
| DO3MHA-11 | 2026-09-05 01:24:18 | 48.21973 | 17.82847 | 105° | 18km/h | 33743m | 7.9m/s | -37.5°C | 2.0% | 0hPa | 2.4V | 00:00:00 | 02:01:35 | 00:00:00 | |
| HA6NAB-11 | 2026-09-05 01:24:17 | 48.21973 | 17.82847 | 106° | 31km/h | 33743m | 8.0m/s | -37.6°C | 0.5% | 0hPa | 2.4V | 00:00:00 | 00:00:00 | 00:00:00 | |
| OE3MUC-15 | 2026-09-05 01:24:16 | 48.21975 | 17.82825 | 90° | 20km/h | 33728m | 6.0m/s | -37.5°C | 2.0% | 0hPa | 2.4V | 00:00:00 | 00:00:00 | 08:30:00 | |
| OE5MMP-10 | 2026-09-05 01:24:15 | 48.21975 | 17.82815 | 86° | 13km/h | 33722m | 5.7m/s | -37.4°C | 2.0% | 0hPa | 2.4V | 00:00:00 | 02:01:32 | 00:00:00 | |
| OM5KV | 2026-09-05 01:24:14 | 48.21975 | 17.82808 | 93° | 16km/h | 33716m | 6.6m/s | -37.4°C | 0.4% | 0hPa | 2.5V | 00:00:00 | 00:00:00 | 00:00:00 | |
| LZ4TU-5 | 2026-09-05 01:24:12 | 48.21977 | 17.82800 | 159° | 11km/h | 33700m | 7.9m/s | 0°C | 0% | 0hPa | 2.5V | 00:00:00 | 00:00:00 | 00:00:00 | |
| HA6NAB-11 | 2026-09-05 01:24:11 | 48.21977 | 17.82800 | 159° | 11km/h | 33700m | 7.9m/s | -37.4°C | 0.5% | 0hPa | 2.5V | 00:00:00 | 00:00:00 | 00:00:00 | |
| OE5DRO-10 | 2026-09-05 01:24:09 | 48.21985 | 17.82799 | 172° | 16km/h | 33679m | 7.0m/s | -37.2°C | 2.0% | 0hPa | 2.5V | 00:00:00 | 00:00:00 | 00:00:00 | |
| DO3MHA-11 | 2026-09-05 01:24:08 | 48.21987 | 17.82798 | 126° | 20km/h | 33672m | 7.3m/s | -37.1°C | 2.0% | 0hPa | 2.4V | 00:00:00 | 02:01:25 | 00:00:00 | |
| PETON7-10 | 2026-09-05 01:24:06 | 48.21988 | 17.82789 | 98° | 18km/h | 33658m | 6.5m/s | -37.1°C | 1.9% | 0hPa | 2.4V | 00:00:00 | 02:01:23 | 00:00:00 | |
| OE5MMP-10 | 2026-09-05 01:24:05 | 48.21989 | 17.82781 | 106° | 20km/h | 33651m | 7.6m/s | -37.1°C | 1.9% | 0hPa | 2.4V | 00:00:00 | 02:01:22 | 00:00:00 | |
| OE3MUC-15 | 2026-09-05 01:24:04 | 48.21991 | 17.82771 | 117° | 29km/h | 33644m | 7.8m/s | -37.1°C | 1.9% | 0hPa | 2.4V | 00:00:00 | 00:00:00 | 00:00:00 | |
| OM5KV | 2026-09-05 01:24:02 | 48.22000 | 17.82752 | 129° | 29km/h | 33630m | 5.6m/s | -37.2°C | 0.4% | 0hPa | 2.4V | 00:00:00 | 00:00:00 | 00:00:00 | |
| OE5WHR-10 | 2026-09-05 01:24:00 | 48.22008 | 17.82738 | 130° | 15km/h | 33617m | 8.0m/s | -37.2°C | 1.9% | 0hPa | 2.4V | 00:00:00 | 02:01:17 | 00:00:00 | |
| OM5KV | 2026-09-05 01:23:59 | 48.22008 | 17.82738 | 131° | 18km/h | 33617m | 8.0m/s | -37.2°C | 0.4% | 0hPa | 2.4V | 00:00:00 | 00:00:00 | 00:00:00 | |
| DO3MHA-11 | 2026-09-05 01:23:58 | 48.22012 | 17.82733 | 197° | 15km/h | 33601m | 7.2m/s | -37.3°C | 1.9% | 0hPa | 2.4V | 00:00:00 | 02:01:15 | 00:00:00 | |
| OE5DXL-15 | 2026-09-05 01:23:56 | 48.22017 | 17.82739 | 220° | 16km/h | 33585m | 8.3m/s | -37.5°C | 1.9% | 0hPa | 2.5V | 00:00:00 | 00:00:00 | 08:30:00 | |
| DB0NH | 2026-09-05 01:23:55 | 48.22021 | 17.82743 | 217° | 16km/h | 33577m | 6.4m/s | 0°C | 0% | 0hPa | 2.4V | 00:00:00 | 02:01:12 | 00:00:00 | |
| PG1ADW-2 | 2026-09-05 01:23:54 | 48.22025 | 17.82747 | 211° | 15km/h | 33572m | 5.4m/s | -37.7°C | 1.9% | 0hPa | 2.4V | 00:00:00 | 00:00:00 | 00:00:00 | |
| OM5KV | 2026-09-05 01:23:53 | 48.22025 | 17.82747 | 211° | 16km/h | 33572m | 5.5m/s | -37.7°C | 0.4% | 0hPa | 2.4V | 00:00:00 | 00:00:00 | 00:00:00 | |
| DO3MHA-12 | 2026-09-05 01:23:52 | 48.22031 | 17.82750 | 166° | 11km/h | 33558m | 7.4m/s | -37.7°C | 1.9% | 0hPa | 2.4V | 00:00:00 | 02:01:09 | 00:00:00 | |
| PETON7-10 | 2026-09-05 01:23:51 | 48.22032 | 17.82748 | 115° | 16km/h | 33551m | 7.0m/s | -37.8°C | 2.0% | 0hPa | 2.5V | 00:00:00 | 00:00:00 | 08:30:00 | |
| OE5DRO-10 | 2026-09-05 01:23:50 | 48.22033 | 17.82743 | 102° | 16km/h | 33544m | 6.3m/s | -37.8°C | 2.0% | 0hPa | 2.5V | 00:00:00 | 00:00:00 | 00:00:00 | |
| OM5KV | 2026-09-05 01:23:48 | 48.22037 | 17.82731 | 124° | 22km/h | 33530m | 7.7m/s | -37.9°C | 0.4% | 0hPa | 2.5V | 00:00:00 | 00:00:00 | 00:00:00 | |
| ATIDSZ-14 | 2026-09-05 01:23:47 | 48.22037 | 17.82731 | 124° | 22km/h | 33530m | 7.7m/s | -37.9°C | 0.4% | 0hPa | 2.5V | 00:00:00 | 00:00:00 | 00:00:00 | |
| GYPAP8-17 | 2026-09-05 01:23:46 | 48.22046 | 17.82719 | 151° | 26km/h | 33516m | 6.3m/s | -38.0°C | 0.5% | 0hPa | 2.5V | 00:00:00 | 00:00:00 | 00:00:00 | |
| OE5MMP-10 | 2026-09-05 01:23:45 | 48.22051 | 17.82714 | 161° | 15km/h | 33509m | 5.9m/s | -38.0°C | 2.0% | 0hPa | 2.5V | 00:00:00 | 02:01:02 | 08:30:00 | |
| OE3MUC-15 | 2026-09-05 01:23:44 | 48.22057 | 17.82712 | 167° | 13km/h | 33502m | 7.3m/s | -38.0°C | 2.0% | 0hPa | 2.5V | 00:00:00 | 00:00:00 | 00:00:00 | |
| OM5KV | 2026-09-05 01:23:41 | 48.22064 | 17.82710 | 182° | 9km/h | 33487m | 7.2m/s | -38.2°C | 0.5% | 0hPa | 2.5V | 00:00:00 | 00:00:00 | 00:00:00 | |
| DO3MHA-12 | 2026-09-05 01:23:39 | 48.22071 | 17.82710 | 169° | 16km/h | 33466m | 7.6m/s | -38.2°C | 2.0% | 0hPa | 2.5V | 00:00:00 | 02:00:56 | 00:00:00 | |
| DO3MHA-11 | 2026-09-05 01:23:38 | 48.22074 | 17.82708 | 161° | 16km/h | 33459m | 6.6m/s | -38.2°C | 2.0% | 0hPa | 2.5V | 00:00:00 | 02:00:55 | 00:00:00 | |
| OM5KV | 2026-09-05 01:23:37 | 48.22075 | 17.82708 | 161° | 16km/h | 33459m | 6.6m/s | -38.3°C | 0.5% | 0hPa | 2.5V | 00:00:00 | 00:00:00 | 00:00:00 | |
| PETON7-10 | 2026-09-05 01:23:36 | 48.22082 | 17.82701 | 138° | 13km/h | 33446m | 6.2m/s | -38.4°C | 2.1% | 0hPa | 2.5V | 00:00:00 | 00:00:00 | 00:00:00 | |
| OE5MMP-10 | 2026-09-05 01:23:35 | 48.22085 | 17.82696 | 124° | 15km/h | 33439m | 8.0m/s | -38.4°C | 2.1% | 0hPa | 2.5V | 00:00:00 | 02:00:52 | 00:00:00 | |
| PG1ADW-2 | 2026-09-05 01:23:34 | 48.22087 | 17.82690 | 111° | 11km/h | 33431m | 7.1m/s | -38.5°C | 2.1% | 0hPa | 2.5V | 00:00:00 | 02:00:51 | 00:00:00 | |
| OE3JTB-15 | 2026-09-05 01:23:33 | 48.22088 | 17.82684 | 109° | 15km/h | 33424m | 6.1m/s | -38.6°C | 2.1% | 0hPa | 2.5V | 00:00:00 | 02:00:50 | 00:00:00 | |
| OE5DRO-10 | 2026-09-05 01:23:31 | 48.22092 | 17.82675 | 139° | 11km/h | 33410m | 7.8m/s | -38.6°C | 2.1% | 0hPa | 2.5V | 00:00:00 | 00:00:00 | 00:00:00 | |
| OE5DXL-15 | 2026-09-05 01:23:26 | 48.22108 | 17.82669 | 154° | 16km/h | 33375m | 7.2m/s | -38.5°C | 2.1% | 0hPa | 2.5V | 00:00:00 | 00:00:00 | 00:00:00 | |
| OE5MMP-10 | 2026-09-05 01:23:25 | 48.22109 | 17.82667 | 117° | 11km/h | 33368m | 5.7m/s | -38.5°C | 2.1% | 0hPa | 2.5V | 00:00:00 | 02:00:42 | 00:00:00 | |
| OM5KV | 2026-09-05 01:23:23 | 48.22110 | 17.82665 | 119° | 9km/h | 33362m | 5.4m/s | -38.6°C | 0.5% | 0hPa | 2.5V | 00:00:00 | 00:00:00 | 00:00:00 | |
| PETON7-10 | 2026-09-05 01:23:21 | 48.22117 | 17.82656 | 154° | 16km/h | 33341m | 6.2m/s | -38.4°C | 2.1% | 0hPa | 2.5V | 00:00:00 | 02:00:38 | 00:00:00 | |
| OE3MUC-15 | 2026-09-05 01:23:20 | 48.22121 | 17.82653 | 158° | 11km/h | 33335m | 5.8m/s | -38.4°C | 2.1% | 0hPa | 2.5V | 00:00:00 | 00:00:00 | 00:00:00 | |
| DO3MHA-12 | 2026-09-05 01:23:18 | 48.22127 | 17.82649 | 161° | 20km/h | 33321m | 7.9m/s | -38.4°C | 2.1% | 0hPa | 2.5V | 00:00:00 | 02:00:35 | 00:00:00 | |
| OE3MUC-15 | 2026-09-05 01:23:16 | 48.22130 | 17.82649 | 220° | 9km/h | 33307m | 5.8m/s | -38.3°C | 2.1% | 0hPa | 2.4V | 00:00:00 | 00:00:00 | 00:00:00 | |
| OE5MMP-10 | 2026-09-05 01:23:15 | 48.22131 | 17.82649 | 199° | 20km/h | 33302m | 5.3m/s | -38.3°C | 2.1% | 0hPa | 2.4V | 00:00:00 | 02:00:32 | 00:00:00 | |
| PG1ADW-2 | 2026-09-05 01:23:14 | 48.22132 | 17.82650 | 188° | 22km/h | 33295m | 6.8m/s | -38.3°C | 2.1% | 0hPa | 2.5V | 00:00:00 | 00:00:00 | 08:30:00 | |
| OM5KV | 2026-09-05 01:23:13 | 48.22132 | 17.82650 | 189° | 9km/h | 33295m | 6.9m/s | -38.3°C | 0.5% | 0hPa | 2.5V | 00:00:00 | 00:00:00 | 00:00:00 | |
| OE3MUC-15 | 2026-09-05 01:23:12 | 48.22141 | 17.82649 | 172° | 27km/h | 33281m | 6.7m/s | -38.2°C | 2.1% | 0hPa | 2.5V | 00:00:00 | 00:00:00 | 00:00:00 | |
| OE3MUC-15 | 2026-09-05 01:23:08 | 48.22165 | 17.82632 | 132° | 20km/h | 33254m | 7.2m/s | -38.1°C | 2.0% | 0hPa | 2.5V | 00:00:00 | 00:00:00 | 00:00:00 | |
| DB0NH | 2026-09-05 01:23:07 | 48.22169 | 17.82626 | 125° | 29km/h | 33247m | 6.7m/s | 0°C | 0% | 0hPa | 2.5V | 00:00:00 | 02:00:24 | 00:00:00 | |
| PETON7-10 | 2026-09-05 01:23:06 | 48.22171 | 17.82619 | 123° | 26km/h | 33241m | 6.7m/s | -38.1°C | 2.1% | 0hPa | 2.5V | 00:00:00 | 00:00:00 | 00:00:00 | |
| LZ4TU-5 | 2026-09-05 01:23:05 | 48.22174 | 17.82613 | 133° | 20km/h | 33234m | 7.4m/s | 0°C | 0% | 0hPa | 2.4V | 00:00:00 | 00:00:00 | 00:00:00 | |
| OE3MUC-15 | 2026-09-05 01:23:04 | 48.22178 | 17.82608 | 141° | 18km/h | 33227m | 6.3m/s | -38.1°C | 2.0% | 0hPa | 2.4V | 00:00:00 | 00:00:00 | 08:30:00 | |
| OM5KV | 2026-09-05 01:23:03 | 48.22182 | 17.82604 | 149° | 18km/h | 33220m | 5.6m/s | -38.2°C | 0.4% | 0hPa | 2.4V | 00:00:00 | 00:00:00 | 00:00:00 | |
| SP3BTT-10 | 2026-09-05 01:23:01 | 48.22190 | 17.82597 | 152° | 29km/h | 33207m | 7.4m/s | 0°C | 0% | 0hPa | 2.4V | 00:00:00 | 00:00:00 | 00:00:00 | |
| OE3MUC-15 | 2026-09-05 01:23:00 | 48.22193 | 17.82595 | 154° | 18km/h | 33200m | 6.4m/s | -38.1°C | 2.0% | 0hPa | 2.4V | 00:00:00 | 00:00:00 | 00:00:00 | |
| OM5KV | 2026-09-05 01:22:59 | 48.22193 | 17.82595 | 154° | 13km/h | 33200m | 6.5m/s | -38.1°C | 0.5% | 0hPa | 2.4V | 00:00:00 | 00:00:00 | 00:00:00 | |
| DO3MHA-11 | 2026-09-05 01:22:58 | 48.22200 | 17.82590 | 163° | 35km/h | 33189m | 5.3m/s | -38.0°C | 2.0% | 0hPa | 2.4V | 00:00:00 | 02:00:15 | 00:00:00 | |
| OE3MUC-15 | 2026-09-05 01:22:56 | 48.22213 | 17.82584 | 161° | 38km/h | 33174m | 7.0m/s | -38.1°C | 2.0% | 0hPa | 2.5V | 00:00:00 | 00:00:00 | 00:00:00 | |
| OE5MMP-10 | 2026-09-05 01:22:55 | 48.22222 | 17.82579 | 153° | 35km/h | 33168m | 5.6m/s | -38.1°C | 2.0% | 0hPa | 2.5V | 00:00:00 | 02:00:12 | 00:00:00 | |
| PG1ADW-2 | 2026-09-05 01:22:54 | 48.22230 | 17.82571 | 145° | 33km/h | 33162m | 5.7m/s | -38.1°C | 2.0% | 0hPa | 2.5V | 00:00:00 | 00:00:00 | 00:00:00 | |
| OM5KV | 2026-09-05 01:22:53 | 48.22238 | 17.82561 | 136° | 40km/h | 33155m | 7.6m/s | -38.1°C | 0.5% | 0hPa | 2.5V | 00:00:00 | 00:00:00 | 00:00:00 | |
| DO3MHA-12 | 2026-09-05 01:22:52 | 48.22245 | 17.82550 | 125° | 37km/h | 33148m | 6.7m/s | -38.1°C | 2.0% | 0hPa | 2.5V | 00:00:00 | 02:00:09 | 00:00:00 | |
| PETON7-10 | 2026-09-05 01:22:51 | 48.22249 | 17.82538 | 118° | 29km/h | 33142m | 5.8m/s | -38.1°C | 2.0% | 0hPa | 2.5V | 00:00:00 | 00:00:00 | 00:00:00 | |
| OM5KV | 2026-09-05 01:22:48 | 48.22263 | 17.82506 | 138° | 29km/h | 33122m | 6.3m/s | -38.3°C | 0.5% | 0hPa | 2.5V | 00:00:00 | 00:00:00 | 00:00:00 | |
| OE5MMP-10 | 2026-09-05 01:22:45 | 48.22279 | 17.82493 | 166° | 31km/h | 33103m | 7.2m/s | -38.6°C | 2.1% | 0hPa | 2.5V | 00:00:00 | 02:00:02 | 00:00:00 | |
| OE3MUC-15 | 2026-09-05 01:22:44 | 48.22284 | 17.82492 | 169° | 22km/h | 33096m | 6.4m/s | -38.7°C | 2.1% | 0hPa | 2.4V | 00:00:00 | 00:00:00 | 00:00:00 | |
| LZ4TU-5 | 2026-09-05 01:22:43 | 48.22284 | 17.82492 | 170° | 18km/h | 33096m | 6.5m/s | 0°C | 0% | 0hPa | 2.4V | 00:00:00 | 00:00:00 | 00:00:00 | |
| OM5KV | 2026-09-05 01:22:42 | 48.22288 | 17.82491 | 171° | 18km/h | 33090m | 5.4m/s | -38.8°C | 0.5% | 0hPa | 2.4V | 00:00:00 | 00:00:00 | 00:00:00 | |
| OM5KV | 2026-09-05 01:22:41 | 48.22293 | 17.82489 | 169° | 22km/h | 33084m | 5.6m/s | -38.9°C | 0.5% | 0hPa | 2.4V | 00:00:00 | 00:00:00 | 00:00:00 | |
| OE3MUC-15 | 2026-09-05 01:22:40 | 48.22307 | 17.82483 | 162° | 40km/h | 33071m | 6.9m/s | -38.9°C | 2.1% | 0hPa | 2.4V | 00:00:00 | 01:59:57 | 00:00:00 | |
| DO3MHA-11 | 2026-09-05 01:22:39 | 48.22324 | 17.82469 | 145° | 35km/h | 33059m | 5.0m/s | -38.9°C | 2.1% | 0hPa | 2.4V | 00:00:00 | 01:59:55 | 00:00:00 | |
| PETON7-10 | 2026-09-05 01:22:36 | 48.22339 | 17.82446 | 122° | 38km/h | 33046m | 7.9m/s | -38.9°C | 2.1% | 0hPa | 2.4V | 00:00:00 | 01:59:53 | 00:00:00 | |
| OE3JTB-15 | 2026-09-05 01:22:35 | 48.22344 | 17.82432 | 113° | 37km/h | 33039m | 7.0m/s | -39.0°C | 2.1% | 0hPa | 2.4V | 00:00:00 | 00:00:00 | 00:00:00 | |
| DO3MHA-12 | 2026-09-05 01:22:34 | 48.22347 | 17.82419 | 108° | 37km/h | 33033m | 5.4m/s | -39.0°C | 2.1% | 0hPa | 2.4V | 00:00:00 | 01:59:51 | 08:30:00 | |
| OE3MUC-15 | 2026-09-05 01:22:32 | 48.22354 | 17.82397 | 129° | 29km/h | 33021m | 6.8m/s | -39.0°C | 2.1% | 0hPa | 2.4V | 00:00:00 | 00:00:00 | 00:00:00 | |
| OM5KV | 2026-09-05 01:22:31 | 48.22354 | 17.82397 | 130° | 27km/h | 33021m | 6.8m/s | -39.1°C | 0.5% | 0hPa | 2.4V | 00:00:00 | 00:00:00 | 00:00:00 | |
| SP9KGR-15 | 2026-09-05 01:22:29 | 48.22366 | 17.82386 | 163° | 29km/h | 33008m | 5.4m/s | -39.2°C | 0.5% | 0hPa | 2.4V | 00:00:00 | 00:00:00 | 00:00:00 | |
| DO3MHA-11 | 2026-09-05 01:22:28 | 48.22381 | 17.82379 | 160° | 46km/h | 32996m | 6.4m/s | -39.2°C | 2.1% | 0hPa | 2.4V | 00:00:00 | 01:59:45 | 00:00:00 | |
| SONDE2-11 | 2026-09-05 01:22:27 | 48.22397 | 17.82365 | 140° | 37km/h | 32983m | 5.6m/s | -39.3°C | 0.5% | -1.0hPa | 2.4V | 00:00:00 | 00:00:00 | 00:00:00 | |
| OE5DXL-15 | 2026-09-05 01:22:26 | 48.22397 | 17.82365 | 141° | 40km/h | 32983m | 5.6m/s | -39.3°C | 2.2% | 0hPa | 2.4V | 00:00:00 | 00:00:00 | 00:00:00 | |
| ATIDSZ-14 | 2026-09-05 01:22:25 | 48.22396 | 17.82365 | 141° | 38km/h | 32983m | 5.6m/s | -39.3°C | 0.5% | 0hPa | 2.4V | 00:00:00 | 00:00:00 | 00:00:00 | |
| OM5KV | 2026-09-05 01:22:24 | 48.22411 | 17.82342 | 128° | 47km/h | 32971m | 6.3m/s | -39.3°C | 0.5% | 0hPa | 2.4V | 00:00:00 | 00:00:00 | 00:00:00 | |
| PETON7-10 | 2026-09-05 01:22:21 | 48.22434 | 17.82293 | 126° | 35km/h | 32953m | 5.4m/s | -39.3°C | 2.2% | 0hPa | 2.4V | 00:00:00 | 00:00:00 | 00:00:00 | |
| OE3MUC-15 | 2026-09-05 01:22:20 | 48.22442 | 17.82276 | 123° | 46km/h | 32948m | 4.4m/s | -39.3°C | 2.2% | 0hPa | 2.4V | 00:00:00 | 00:00:00 | 00:00:00 | |
| DO3MHA-11 | 2026-09-05 01:22:18 | 48.22453 | 17.82243 | 109° | 26km/h | 32937m | 6.8m/s | -39.3°C | 2.2% | 0hPa | 2.4V | 00:00:00 | 01:59:35 | 00:00:00 | |
| OE3MUC-15 | 2026-09-05 01:22:16 | 48.22457 | 17.82216 | 95° | 20km/h | 32923m | 5.6m/s | -39.3°C | 2.2% | 0hPa | 2.4V | 00:00:00 | 00:00:00 | 00:00:00 | |
| OE5WHR-10 | 2026-09-05 01:22:15 | 48.22457 | 17.82206 | 95° | 33km/h | 32917m | 5.0m/s | -39.3°C | 2.2% | 0hPa | 2.5V | 00:00:00 | 00:00:00 | 00:00:00 | |
| OE3MUC-15 | 2026-09-05 01:22:12 | 48.22464 | 17.82193 | 160° | 26km/h | 32899m | 4.6m/s | -39.4°C | 2.2% | 0hPa | 2.5V | 00:00:00 | 00:00:00 | 00:00:00 | |
| SP9KGR-15 | 2026-09-05 01:22:11 | 48.22464 | 17.82193 | 161° | 18km/h | 32899m | 4.7m/s | -39.5°C | 0.5% | 0hPa | 2.5V | 00:00:00 | 00:00:00 | 00:00:00 | |
| OM5KV | 2026-09-05 01:22:10 | 48.22469 | 17.82190 | 152° | 24km/h | 32894m | 4.5m/s | -39.5°C | 0.5% | 0hPa | 2.5V | 00:00:00 | 00:00:00 | 00:00:00 | |
| OE3MUC-15 | 2026-09-05 01:22:08 | 48.22483 | 17.82162 | 110° | 47km/h | 32875m | 6.5m/s | -39.4°C | 2.2% | 0hPa | 2.5V | 00:00:00 | 00:00:00 | 00:00:00 | |
| PETON7-10 | 2026-09-05 01:22:06 | 48.22488 | 17.82129 | 100° | 38km/h | 32863m | 5.3m/s | -39.4°C | 2.2% | 0hPa | 2.5V | 00:00:00 | 00:00:00 | 00:00:00 | |
| OE5MMP-10 | 2026-09-05 01:22:05 | 48.22490 | 17.82110 | 101° | 33km/h | 32857m | 5.1m/s | 0°C | 0% | 0hPa | 2.5V | 00:00:00 | 01:59:22 | 00:00:00 | |
| OE3MUC-15 | 2026-09-05 01:22:04 | 48.22493 | 17.82093 | 105° | 38km/h | 32852m | 5.7m/s | -39.4°C | 2.2% | 0hPa | 2.5V | 00:00:00 | 00:00:00 | 00:00:00 | |
| SONDE2-11 | 2026-09-05 01:21:56 | 48.22519 | 17.82002 | 99° | 27km/h | 32797m | 6.5m/s | -39.6°C | 0.5% | -1.0hPa | 2.5V | 00:00:00 | 00:00:00 | 00:00:00 | |
| OE5MMP-10 | 2026-09-05 01:21:55 | 48.22519 | 17.82002 | 100° | 29km/h | 32797m | 6.5m/s | -39.5°C | 2.1% | 0hPa | 2.5V | 00:00:00 | 01:59:12 | 00:00:00 | |
| OE5WHR-10 | 2026-09-05 01:21:54 | 48.22521 | 17.81991 | 103° | 27km/h | 32791m | 5.9m/s | -39.6°C | 2.1% | 0hPa | 2.5V | 00:00:00 | 01:59:11 | 00:00:00 | |
| PG1ADW-2 | 2026-09-05 01:21:53 | 48.22522 | 17.81979 | 99° | 26km/h | 32785m | 4.8m/s | -39.6°C | 2.2% | 0hPa | 2.5V | 00:00:00 | 01:59:10 | 00:00:00 | |
| OE3MUC-15 | 2026-09-05 01:21:52 | 48.22523 | 17.81966 | 95° | 37km/h | 32780m | 5.4m/s | -39.6°C | 2.2% | 0hPa | 2.5V | 00:00:00 | 00:00:00 | 08:30:00 | |
| HA6NAB-11 | 2026-09-05 01:21:50 | 48.22523 | 17.81951 | 87° | 40km/h | 32773m | 7.8m/s | -39.7°C | 0.5% | 0hPa | 2.4V | 00:00:00 | 00:00:00 | 00:00:00 | |
| DO3MHA-11 | 2026-09-05 01:21:48 | 48.22518 | 17.81912 | 75° | 20km/h | 32755m | 5.4m/s | -39.7°C | 2.2% | 0hPa | 2.4V | 00:00:00 | 01:59:05 | 00:00:00 | |
| OM5KV | 2026-09-05 01:21:47 | 48.22518 | 17.81912 | 75° | 26km/h | 32755m | 5.5m/s | -39.8°C | 0.5% | 0hPa | 2.4V | 00:00:00 | 00:00:00 | 00:00:00 | |
| PETON7-10 | 2026-09-05 01:21:46 | 48.22516 | 17.81899 | 87° | 22km/h | 32741m | 6.1m/s | -39.7°C | 2.2% | 0hPa | 2.4V | 00:00:00 | 01:59:03 | 00:00:00 | |
| OE5MMP-10 | 2026-09-05 01:21:45 | 48.22516 | 17.81895 | 100° | 24km/h | 32735m | 5.2m/s | -39.7°C | 2.2% | 0hPa | 2.4V | 00:00:00 | 01:59:02 | 00:00:00 | |
| OE3MUC-15 | 2026-09-05 01:21:44 | 48.22516 | 17.81892 | 93° | 20km/h | 32730m | 5.4m/s | -39.7°C | 2.2% | 0hPa | 2.4V | 00:00:00 | 00:00:00 | 00:00:00 | |
| OM5KV | 2026-09-05 01:21:42 | 48.22516 | 17.81887 | 85° | 15km/h | 32724m | 6.5m/s | -39.8°C | 0.5% | 0hPa | 2.4V | 00:00:00 | 00:00:00 | 00:00:00 | |
| OM5KV | 2026-09-05 01:21:41 | 48.22515 | 17.81880 | 81° | 24km/h | 32718m | 5.9m/s | -39.8°C | 0.5% | 0hPa | 2.4V | 00:00:00 | 00:00:00 | 00:00:00 | |
| DO3MHA-11 | 2026-09-05 01:21:38 | 48.22514 | 17.81832 | 99° | 20km/h | 32694m | 6.9m/s | -39.9°C | 2.2% | 0hPa | 2.4V | 00:00:00 | 01:58:55 | 00:00:00 | |
| OE3JTB-15 | 2026-09-05 01:21:37 | 48.22515 | 17.81821 | 105° | 18km/h | 32687m | 5.7m/s | -39.8°C | 2.2% | 0hPa | 2.4V | 00:00:00 | 00:00:00 | 00:00:00 | |
| OE5MMP-10 | 2026-09-05 01:21:35 | 48.22519 | 17.81803 | 103° | 18km/h | 32677m | 4.8m/s | -39.8°C | 2.2% | 0hPa | 2.5V | 00:00:00 | 01:58:52 | 00:00:00 | |
| OE3OSB-13 | 2026-09-05 01:21:34 | 48.22518 | 17.81790 | 60° | 16km/h | 32665m | 7.1m/s | -39.8°C | 0.5% | -1.0hPa | 2.5V | 00:00:00 | 00:00:00 | 00:00:00 | |
| OE5WHR-10 | 2026-09-05 01:21:33 | 48.22518 | 17.81790 | 61° | 16km/h | 32665m | 7.0m/s | -39.8°C | 2.2% | 0hPa | 2.5V | 00:00:00 | 00:00:00 | 00:00:00 | |
| HA6NAB-11 | 2026-09-05 01:21:32 | 48.22519 | 17.81790 | 61° | 16km/h | 32665m | 7.1m/s | -39.8°C | 0.5% | 0hPa | 2.4V | 00:00:00 | 00:00:00 | 00:00:00 | |
| PETON7-10 | 2026-09-05 01:21:30 | 48.22510 | 17.81775 | 59° | 18km/h | 32649m | 3.8m/s | -39.7°C | 2.2% | 0hPa | 2.4V | 00:00:00 | 00:00:00 | 08:30:00 | |
| DO3MHA-11 | 2026-09-05 01:21:28 | 48.22510 | 17.81764 | 126° | 22km/h | 32637m | 7.5m/s | -39.7°C | 2.1% | 0hPa | 2.5V | 00:00:00 | 01:58:45 | 00:00:00 | |
| S52SK | 2026-09-05 01:21:27 | 48.22510 | 17.81764 | 127° | 16km/h | 32637m | 7.5m/s | -39.8°C | 0.5% | 0hPa | 2.4V | 00:00:00 | 00:00:00 | 00:00:00 | |
| OE5DXL-15 | 2026-09-05 01:21:26 | 48.22519 | 17.81753 | 144° | 18km/h | 32623m | 5.9m/s | -39.7°C | 2.1% | 0hPa | 2.4V | 00:00:00 | 00:00:00 | 00:00:00 | |
| OE5MMP-10 | 2026-09-05 01:21:25 | 48.22524 | 17.81746 | 137° | 18km/h | 32617m | 6.0m/s | -39.8°C | 2.2% | 0hPa | 2.4V | 00:00:00 | 01:58:42 | 00:00:00 | |
| SP9KGR-15 | 2026-09-05 01:21:22 | 48.22532 | 17.81730 | 114° | 26km/h | 32605m | 5.6m/s | -39.9°C | 0.5% | 0hPa | 2.4V | 00:00:00 | 00:00:00 | 00:00:00 | |
| OM5KV | 2026-09-05 01:21:20 | 48.22535 | 17.81706 | 96° | 16km/h | 32588m | 6.8m/s | -40.1°C | 0.5% | 0hPa | 2.4V | 00:00:00 | 00:00:00 | 00:00:00 | |
| DO3MHA-11 | 2026-09-05 01:21:18 | 48.22535 | 17.81697 | 83° | 13km/h | 32575m | 5.2m/s | -40.1°C | 2.2% | 0hPa | 2.4V | 00:00:00 | 01:58:35 | 00:00:00 | |
| OM5KV | 2026-09-05 01:21:17 | 48.22535 | 17.81697 | 83° | 11km/h | 32575m | 5.3m/s | -40.2°C | 0.5% | 0hPa | 2.4V | 00:00:00 | 00:00:00 | 00:00:00 | |
| OE3MUC-15 | 2026-09-05 01:21:16 | 48.22533 | 17.81690 | 46° | 11km/h | 32563m | 7.2m/s | -40.3°C | 2.2% | 0hPa | 2.4V | 00:00:00 | 00:00:00 | 08:30:00 | |
| PETON7-10 | 2026-09-05 01:21:15 | 48.22530 | 17.81686 | 44° | 16km/h | 32556m | 6.0m/s | -40.3°C | 2.3% | 0hPa | 2.5V | 00:00:00 | 00:00:00 | 00:00:00 | |
| OE5WHR-10 | 2026-09-05 01:21:12 | 48.22530 | 17.81676 | 137° | 16km/h | 32538m | 7.3m/s | -40.5°C | 2.2% | 0hPa | 2.5V | 00:00:00 | 00:00:00 | 00:00:00 | |
| DO3MHA-11 | 2026-09-05 01:21:08 | 48.22542 | 17.81659 | 108° | 18km/h | 32516m | 6.9m/s | -40.6°C | 2.3% | 0hPa | 2.5V | 00:00:00 | 01:58:25 | 00:00:00 | |
| OM5KV | 2026-09-05 01:21:06 | 48.22542 | 17.81653 | 81° | 18km/h | 32510m | 6.6m/s | -40.7°C | 0.5% | 0hPa | 2.5V | 00:00:00 | 00:00:00 | 00:00:00 | |
| OE5MMP-10 | 2026-09-05 01:21:05 | 48.22538 | 17.81640 | 55° | 20km/h | 32498m | 4.6m/s | -40.6°C | 2.3% | 0hPa | 2.5V | 00:00:00 | 01:58:22 | 00:00:00 | |
| OE3MUC-15 | 2026-09-05 01:21:04 | 48.22535 | 17.81634 | 55° | 15km/h | 32493m | 5.6m/s | -40.6°C | 2.3% | 0hPa | 2.5V | 00:00:00 | 00:00:00 | 00:00:00 | |
| OE3OSB-13 | 2026-09-05 01:21:03 | 48.22533 | 17.81625 | 104° | 11km/h | 32481m | 6.0m/s | -40.7°C | 0.5% | -1.0hPa | 2.5V | 00:00:00 | 00:00:00 | 00:00:00 | |
| SONDE2-11 | 2026-09-05 01:20:54 | 48.22549 | 17.81566 | 92° | 7km/h | 32427m | 5.3m/s | -40.6°C | 0.5% | -1.0hPa | 2.5V | 00:00:00 | 00:00:00 | 00:00:00 | |
| SP9KGR-15 | 2026-09-05 01:20:52 | 48.22549 | 17.81562 | 88° | 11km/h | 32422m | 4.7m/s | -40.6°C | 0.5% | 0hPa | 2.5V | 00:00:00 | 00:00:00 | 00:00:00 | |
| OE5WHR-10 | 2026-09-05 01:20:51 | 48.22549 | 17.81557 | 84° | 26km/h | 32416m | 6.3m/s | -40.6°C | 2.3% | 0hPa | 2.5V | 00:00:00 | 01:58:08 | 00:00:00 | |
| OE3MUC-15 | 2026-09-05 01:20:48 | 48.22548 | 17.81526 | 96° | 33km/h | 32397m | 4.9m/s | -40.6°C | 2.2% | 0hPa | 2.5V | 00:00:00 | 00:00:00 | 00:00:00 | |
| OM5KV | 2026-09-05 01:20:46 | 48.22550 | 17.81513 | 105° | 35km/h | 32392m | 5.8m/s | -40.7°C | 0.5% | 0hPa | 2.5V | 00:00:00 | 00:00:00 | 00:00:00 | |
| OE5MMP-10 | 2026-09-05 01:20:45 | 48.22556 | 17.81491 | 123° | 26km/h | 32378m | 6.4m/s | -40.7°C | 2.2% | 0hPa | 2.5V | 00:00:00 | 01:58:02 | 08:30:00 | |
| PETON7-10 | 2026-09-05 01:20:44 | 48.22560 | 17.81482 | 127° | 29km/h | 32372m | 5.4m/s | -40.8°C | 2.3% | 0hPa | 2.5V | 00:00:00 | 00:00:00 | 00:00:00 | |
| ATIDSZ-14 | 2026-09-05 01:20:42 | 48.22565 | 17.81473 | 124° | 29km/h | 32366m | 6.2m/s | -40.9°C | 0.5% | 0hPa | 2.4V | 00:00:00 | 00:00:00 | 00:00:00 | |
| OE3MUC-15 | 2026-09-05 01:20:40 | 48.22572 | 17.81444 | 101° | 22km/h | 32348m | 5.5m/s | -40.9°C | 2.3% | 0hPa | 2.4V | 00:00:00 | 00:00:00 | 08:30:00 | |
| OE3JTB-15 | 2026-09-05 01:20:39 | 48.22573 | 17.81435 | 99° | 26km/h | 32341m | 6.7m/s | -40.9°C | 2.3% | 0hPa | 2.5V | 00:00:00 | 01:57:56 | 00:00:00 | |
| PG1ADW-2 | 2026-09-05 01:20:38 | 48.22574 | 17.81427 | 98° | 27km/h | 32334m | 6.4m/s | -41.0°C | 2.3% | 0hPa | 2.5V | 00:00:00 | 00:00:00 | 00:00:00 | |
| OE3MUC-15 | 2026-09-05 01:20:36 | 48.22574 | 17.81411 | 89° | 35km/h | 32323m | 4.8m/s | -41.1°C | 2.4% | 0hPa | 2.5V | 00:00:00 | 00:00:00 | 00:00:00 | |
| OE5MMP-10 | 2026-09-05 01:20:35 | 48.22574 | 17.81400 | 85° | 31km/h | 32317m | 7.5m/s | -41.1°C | 2.3% | 0hPa | 2.5V | 00:00:00 | 01:57:52 | 00:00:00 | |
| OE3MUC-15 | 2026-09-05 01:20:32 | 48.22572 | 17.81356 | 90° | 33km/h | 32298m | 4.6m/s | -41.1°C | 2.4% | 0hPa | 2.5V | 00:00:00 | 00:00:00 | 00:00:00 | |
| OM5KV | 2026-09-05 01:20:30 | 48.22573 | 17.81330 | 104° | 31km/h | 32285m | 6.4m/s | -41.2°C | 0.5% | 0hPa | 2.5V | 00:00:00 | 00:00:00 | 00:00:00 | |
| PETON7-10 | 2026-09-05 01:20:29 | 48.22575 | 17.81320 | 112° | 24km/h | 32279m | 5.2m/s | -41.1°C | 2.4% | 0hPa | 2.5V | 00:00:00 | 00:00:00 | 00:00:00 | |
| OE3MUC-15 | 2026-09-05 01:20:28 | 48.22578 | 17.81311 | 112° | 26km/h | 32274m | 5.4m/s | -41.2°C | 2.4% | 0hPa | 2.5V | 00:00:00 | 00:00:00 | 00:00:00 | |
| OE5DXL-15 | 2026-09-05 01:20:26 | 48.22581 | 17.81294 | 97° | 18km/h | 32261m | 7.1m/s | -41.2°C | 2.4% | 0hPa | 2.4V | 00:00:00 | 00:00:00 | 00:00:00 | |
| OE5MMP-10 | 2026-09-05 01:20:25 | 48.22581 | 17.81284 | 85° | 22km/h | 32254m | 6.5m/s | -41.2°C | 2.4% | 0hPa | 2.4V | 00:00:00 | 01:57:42 | 00:00:00 | |
| OE3MUC-15 | 2026-09-05 01:20:24 | 48.22580 | 17.81273 | 75° | 26km/h | 32248m | 5.7m/s | -41.2°C | 2.3% | 0hPa | 2.4V | 00:00:00 | 00:00:00 | 00:00:00 | |
| SONDE2-11 | 2026-09-05 01:20:22 | 48.22575 | 17.81254 | 66° | 24km/h | 32236m | 6.1m/s | -41.2°C | 0.5% | -1.0hPa | 2.4V | 00:00:00 | 00:00:00 | 00:00:00 | |
| OE5DRO-10 | 2026-09-05 01:20:21 | 48.22573 | 17.81246 | 73° | 18km/h | 32230m | 6.0m/s | -41.2°C | 2.3% | 0hPa | 2.4V | 00:00:00 | 00:00:00 | 08:30:00 | |
| OE3MUC-15 | 2026-09-05 01:20:20 | 48.22572 | 17.81240 | 91° | 18km/h | 32223m | 6.9m/s | -41.1°C | 2.3% | 0hPa | 2.5V | 00:00:00 | 00:00:00 | 00:00:00 | |
| DO3MHA-12 | 2026-09-05 01:20:18 | 48.22574 | 17.81228 | 113° | 18km/h | 32211m | 5.7m/s | -41.1°C | 2.3% | 0hPa | 2.5V | 00:00:00 | 01:57:35 | 00:00:00 | |
| OE3MUC-15 | 2026-09-05 01:20:16 | 48.22577 | 17.81212 | 95° | 26km/h | 32198m | 7.2m/s | -41.0°C | 2.3% | 0hPa | 2.4V | 00:00:00 | 00:00:00 | 00:00:00 | |
| OE5WHR-10 | 2026-09-05 01:20:15 | 48.22577 | 17.81202 | 91° | 16km/h | 32191m | 5.9m/s | -41.1°C | 2.3% | 0hPa | 2.4V | 00:00:00 | 00:00:00 | 08:30:00 | |
| PETON7-10 | 2026-09-05 01:20:14 | 48.22577 | 17.81192 | 84° | 16km/h | 32185m | 5.6m/s | -41.1°C | 2.3% | 0hPa | 2.4V | 00:00:00 | 01:57:31 | 00:00:00 | |
| SQ9EZE-14 | 2026-09-05 01:20:13 | 48.22577 | 17.81192 | 85° | 27km/h | 32185m | 5.7m/s | 0°C | 0% | 0hPa | 2.4V | 00:00:00 | 00:00:00 | 00:00:00 | |
| OE3MUC-15 | 2026-09-05 01:20:12 | 48.22576 | 17.81175 | 81° | 13km/h | 32171m | 6.8m/s | -41.2°C | 2.3% | 0hPa | 2.4V | 00:00:00 | 00:00:00 | 00:00:00 | |
| OE3JTB-15 | 2026-09-05 01:20:10 | 48.22573 | 17.81166 | 51° | 18km/h | 32159m | 5.3m/s | -41.3°C | 2.3% | 0hPa | 2.4V | 00:00:00 | 00:00:00 | 00:00:00 | |
| OE3MUC-15 | 2026-09-05 01:20:08 | 48.22569 | 17.81160 | 41° | 20km/h | 32147m | 6.6m/s | -41.3°C | 2.3% | 0hPa | 2.5V | 00:00:00 | 00:00:00 | 00:00:00 | |
| OE5MMP-10 | 2026-09-05 01:20:05 | 48.22560 | 17.81142 | 78° | 15km/h | 32130m | 5.0m/s | -41.4°C | 2.3% | 0hPa | 2.5V | 00:00:00 | 01:57:22 | 00:00:00 | |
| OE3MUC-15 | 2026-09-05 01:20:04 | 48.22560 | 17.81134 | 96° | 16km/h | 32123m | 8.3m/s | -41.5°C | 2.3% | 0hPa | 2.5V | 00:00:00 | 00:00:00 | 08:30:00 | |
| S52SK | 2026-09-05 01:20:03 | 48.22560 | 17.81134 | 96° | 18km/h | 32123m | 8.3m/s | -41.5°C | 0.6% | 0hPa | 2.4V | 00:00:00 | 00:00:00 | 00:00:00 | |
| OE5DRO-10 | 2026-09-05 01:20:02 | 48.22564 | 17.81122 | 129° | 18km/h | 32108m | 5.8m/s | -41.5°C | 2.3% | 0hPa | 2.4V | 00:00:00 | 00:00:00 | 00:00:00 | |
| OE3OSB-13 | 2026-09-05 01:20:01 | 48.22567 | 17.81113 | 97° | 11km/h | 32095m | 7.0m/s | -41.6°C | 0.5% | -1.0hPa | 2.4V | 00:00:00 | 00:00:00 | 00:00:00 | |
| SONDE2-11 | 2026-09-05 01:19:52 | 48.22544 | 17.81100 | 65° | 20km/h | 32037m | 7.1m/s | -42.3°C | -1.0% | -1.0hPa | 2.4V | 00:00:00 | 00:00:00 | 00:00:00 | |
| DO3MHA-12 | 2026-09-05 01:19:48 | 48.22544 | 17.81071 | 109° | 22km/h | 32016m | 7.9m/s | -42.4°C | 2.5% | 0hPa | 2.4V | 00:00:00 | 01:57:05 | 00:00:00 | |
| SP9KGR-15 | 2026-09-05 01:19:47 | 48.22547 | 17.81060 | 119° | 29km/h | 32009m | 6.3m/s | -42.4°C | 0.6% | 0hPa | 2.4V | 00:00:00 | 00:00:00 | 00:00:00 | |
| OE5MMP-10 | 2026-09-05 01:19:45 | 48.22553 | 17.81044 | 109° | 18km/h | 31999m | 4.6m/s | -42.4°C | 2.5% | 0hPa | 2.4V | 00:00:00 | 01:57:02 | 00:00:00 | |
| PETON7-10 | 2026-09-05 01:19:44 | 48.22553 | 17.81037 | 83° | 20km/h | 31992m | 6.8m/s | -42.4°C | 2.5% | 0hPa | 2.4V | 00:00:00 | 00:00:00 | 00:00:00 | |
| OE5DRO-10 | 2026-09-05 01:19:43 | 48.22551 | 17.81031 | 51° | 20km/h | 31985m | 7.9m/s | -42.4°C | 2.5% | 0hPa | 2.4V | 00:00:00 | 00:00:00 | 00:00:00 | |
| OE3JTB-15 | 2026-09-05 01:19:41 | 48.22541 | 17.81021 | 21° | 20km/h | 31971m | 5.6m/s | -42.4°C | 2.5% | 0hPa | 2.4V | 00:00:00 | 00:00:00 | 00:00:00 | |
| ATIDSZ-14 | 2026-09-05 01:19:39 | 48.22534 | 17.81018 | 16° | 26km/h | 31965m | 6.3m/s | -42.4°C | 0.6% | 0hPa | 2.4V | 00:00:00 | 00:00:00 | 00:00:00 | |
| DO3MHA-11 | 2026-09-05 01:19:38 | 48.22526 | 17.81013 | 34° | 18km/h | 31952m | 6.1m/s | -42.3°C | 2.5% | 0hPa | 2.4V | 00:00:00 | 01:56:55 | 00:00:00 | |
| HA6NAB-11 | 2026-09-05 01:19:37 | 48.22526 | 17.81013 | 34° | 11km/h | 31952m | 6.1m/s | -42.4°C | 0.6% | 0hPa | 2.4V | 00:00:00 | 00:00:00 | 00:00:00 | |
| DO3MHA-12 | 2026-09-05 01:19:36 | 48.22525 | 17.81006 | 97° | 20km/h | 31938m | 7.7m/s | -42.3°C | 2.5% | 0hPa | 2.4V | 00:00:00 | 01:56:53 | 00:00:00 | |
| OE5MMP-10 | 2026-09-05 01:19:35 | 48.22525 | 17.80999 | 106° | 20km/h | 31931m | 7.6m/s | -42.3°C | 2.5% | 0hPa | 2.4V | 00:00:00 | 01:56:52 | 00:00:00 | |
| HA6NAB-11 | 2026-09-05 01:19:33 | 48.22531 | 17.80982 | 124° | 27km/h | 31917m | 5.6m/s | -42.2°C | 0.6% | 0hPa | 2.4V | 00:00:00 | 00:00:00 | 00:00:00 | |
| OE5WHR-10 | 2026-09-05 01:19:32 | 48.22535 | 17.80973 | 134° | 20km/h | 31911m | 7.0m/s | -42.1°C | 2.5% | 0hPa | 2.4V | 00:00:00 | 01:56:49 | 00:00:00 | |
| OE3OSB-13 | 2026-09-05 01:19:30 | 48.22544 | 17.80961 | 93° | 4km/h | 31892m | 6.3m/s | -42.1°C | 0.6% | -1.0hPa | 2.4V | 00:00:00 | 00:00:00 | 00:00:00 | |
| PETON7-10 | 2026-09-05 01:19:29 | 48.22544 | 17.80961 | 94° | 20km/h | 31892m | 6.2m/s | -42.1°C | 2.5% | 0hPa | 2.4V | 00:00:00 | 01:56:46 | 00:00:00 | |
| DO3MHA-11 | 2026-09-05 01:19:28 | 48.22543 | 17.80959 | 22° | 20km/h | 31884m | 8.1m/s | -42.1°C | 2.5% | 0hPa | 2.4V | 00:00:00 | 01:56:45 | 00:00:00 | |
| OE5DXL-15 | 2026-09-05 01:19:26 | 48.22533 | 17.80957 | 7° | 22km/h | 31869m | 6.1m/s | -42.1°C | 2.5% | 0hPa | 2.5V | 00:00:00 | 00:00:00 | 08:30:00 | |
| OE5MMP-10 | 2026-09-05 01:19:25 | 48.22527 | 17.80956 | 7° | 24km/h | 31863m | 4.7m/s | -42.2°C | 2.5% | 0hPa | 2.4V | 00:00:00 | 01:56:42 | 00:00:00 | |
| SONDE2-11 | 2026-09-05 01:19:21 | 48.22526 | 17.80941 | 139° | 27km/h | 31830m | 7.5m/s | -42.1°C | -1.0% | -1.0hPa | 2.4V | 00:00:00 | 00:00:00 | 00:00:00 | |
| OE3MUC-15 | 2026-09-05 01:19:20 | 48.22526 | 17.80941 | 140° | 31km/h | 31830m | 7.5m/s | -42.1°C | 2.5% | 0hPa | 2.4V | 00:00:00 | 00:00:00 | 00:00:00 | |
| ATIDSZ-14 | 2026-09-05 01:19:19 | 48.22532 | 17.80933 | 135° | 33km/h | 31823m | 7.1m/s | -42.1°C | 0.6% | 0hPa | 2.4V | 00:00:00 | 00:00:00 | 00:00:00 | |
| PG1ADW-2 | 2026-09-05 01:19:18 | 48.22537 | 17.80923 | 127° | 27km/h | 31816m | 5.6m/s | -42.1°C | 2.5% | 0hPa | 2.4V | 00:00:00 | 00:00:00 | 08:30:00 | |
| OE3MUC-15 | 2026-09-05 01:19:16 | 48.22545 | 17.80904 | 115° | 13km/h | 31805m | 5.7m/s | -42.1°C | 2.5% | 0hPa | 2.5V | 00:00:00 | 00:00:00 | 00:00:00 | |
| OE5MMP-10 | 2026-09-05 01:19:15 | 48.22546 | 17.80898 | 105° | 20km/h | 31799m | 7.3m/s | -42.1°C | 2.5% | 0hPa | 2.5V | 00:00:00 | 01:56:32 | 08:30:00 | |
| DO3MHA-12 | 2026-09-05 01:19:14 | 48.22546 | 17.80895 | 67° | 20km/h | 31791m | 7.3m/s | -42.1°C | 2.5% | 0hPa | 2.4V | 00:00:00 | 01:56:31 | 08:30:00 | |
| OE3MUC-15 | 2026-09-05 01:19:12 | 48.22542 | 17.80892 | 16° | 22km/h | 31779m | 5.1m/s | -42.1°C | 2.5% | 0hPa | 2.5V | 00:00:00 | 00:00:00 | 00:00:00 | |
| OE5WHR-10 | 2026-09-05 01:19:11 | 48.22537 | 17.80889 | 31° | 26km/h | 31772m | 7.4m/s | -42.0°C | 2.5% | 0hPa | 2.5V | 00:00:00 | 00:00:00 | 00:00:00 | |
| GYPAP8-17 | 2026-09-05 01:19:10 | 48.22537 | 17.80889 | 32° | 22km/h | 31772m | 7.4m/s | -42.0°C | 0.6% | 0hPa | 2.4V | 00:00:00 | 00:00:00 | 00:00:00 | |
| DO3MHA-11 | 2026-09-05 01:19:08 | 48.22527 | 17.80867 | 81° | 27km/h | 31752m | 5.8m/s | -41.9°C | 2.5% | 0hPa | 2.4V | 00:00:00 | 01:56:25 | 00:00:00 | |
| OE5MMP-10 | 2026-09-05 01:19:05 | 48.22532 | 17.80840 | 124° | 24km/h | 31731m | 6.0m/s | -41.8°C | 2.4% | 0hPa | 2.4V | 00:00:00 | 01:56:22 | 00:00:00 | |
| DO3MHA-12 | 2026-09-05 01:19:04 | 48.22535 | 17.80831 | 126° | 29km/h | 31725m | 5.6m/s | -41.7°C | 2.4% | 0hPa | 2.4V | 00:00:00 | 01:56:21 | 00:00:00 | |
| OE3OSB-13 | 2026-09-05 01:18:59 | 48.22543 | 17.80773 | 68° | 18km/h | 31686m | 7.7m/s | -41.7°C | 0.5% | -1.0hPa | 2.4V | 00:00:00 | 00:00:00 | 00:00:00 | |
| DO3MHA-11 | 2026-09-05 01:18:58 | 48.22543 | 17.80773 | 69° | 24km/h | 31686m | 7.7m/s | -41.6°C | 2.4% | 0hPa | 2.4V | 00:00:00 | 01:56:15 | 08:30:00 | |
| OE3MUC-15 | 2026-09-05 01:18:56 | 48.22539 | 17.80763 | 51° | 20km/h | 31672m | 6.0m/s | -41.7°C | 2.5% | 0hPa | 2.4V | 00:00:00 | 00:00:00 | 00:00:00 | |
| OE5MMP-10 | 2026-09-05 01:18:55 | 48.22536 | 17.80758 | 59° | 29km/h | 31666m | 5.2m/s | -41.7°C | 2.4% | 0hPa | 2.4V | 00:00:00 | 01:56:12 | 00:00:00 | |
| OE3MUC-15 | 2026-09-05 01:18:52 | 48.22531 | 17.80732 | 83° | 33km/h | 31644m | 6.2m/s | -41.7°C | 2.4% | 0hPa | 2.4V | 00:00:00 | 00:00:00 | 08:30:00 | |
| OE5WHR-10 | 2026-09-05 01:18:50 | 48.22531 | 17.80707 | 96° | 35km/h | 31630m | 7.5m/s | -41.7°C | 2.4% | 0hPa | 2.4V | 00:00:00 | 00:00:00 | 00:00:00 | |
| DO3MHA-11 | 2026-09-05 01:18:48 | 48.22532 | 17.80684 | 95° | 31km/h | 31617m | 5.1m/s | -41.7°C | 2.5% | 0hPa | 2.4V | 00:00:00 | 01:56:05 | 00:00:00 | |
| OE5DRO-10 | 2026-09-05 01:18:46 | 48.22531 | 17.80658 | 80° | 35km/h | 31603m | 7.7m/s | -41.7°C | 2.5% | 0hPa | 2.4V | 00:00:00 | 00:00:00 | 00:00:00 | |
| OE5MMP-10 | 2026-09-05 01:18:45 | 48.22529 | 17.80645 | 74° | 33km/h | 31596m | 6.4m/s | -41.6°C | 2.4% | 0hPa | 2.4V | 00:00:00 | 01:56:02 | 00:00:00 | |
| PETON7-10 | 2026-09-05 01:18:44 | 48.22527 | 17.80633 | 71° | 33km/h | 31589m | 6.0m/s | -41.6°C | 2.5% | 0hPa | 2.5V | 00:00:00 | 01:56:01 | 00:00:00 | |
| OE3JTB-15 | 2026-09-05 01:18:43 | 48.22524 | 17.80622 | 69° | 31km/h | 31582m | 8.2m/s | -41.7°C | 2.4% | 0hPa | 2.5V | 00:00:00 | 00:00:00 | 08:30:00 | |
| SP9KGR-15 | 2026-09-05 01:18:41 | 48.22521 | 17.80613 | 72° | 26km/h | 31575m | 6.3m/s | -41.7°C | 0.6% | 0hPa | 2.4V | 00:00:00 | 00:00:00 | 00:00:00 | |
| OE3MUC-15 | 2026-09-05 01:18:40 | 48.22518 | 17.80594 | 76° | 37km/h | 31563m | 5.8m/s | -41.7°C | 2.5% | 0hPa | 2.4V | 00:00:00 | 00:00:00 | 00:00:00 | |
| PG1ADW-2 | 2026-09-05 01:18:38 | 48.22513 | 17.80568 | 77° | 33km/h | 31548m | 7.1m/s | -41.8°C | 2.5% | 0hPa | 2.4V | 00:00:00 | 01:55:55 | 00:00:00 | |
| ATIDSZ-14 | 2026-09-05 01:18:37 | 48.22513 | 17.80568 | 78° | 40km/h | 31548m | 7.1m/s | -41.9°C | 0.6% | 0hPa | 2.4V | 00:00:00 | 00:00:00 | 00:00:00 | |
| OE3MUC-15 | 2026-09-05 01:18:36 | 48.22509 | 17.80537 | 84° | 35km/h | 31535m | 6.7m/s | -41.8°C | 2.5% | 0hPa | 2.4V | 00:00:00 | 00:00:00 | 00:00:00 | |
| OE5MMP-10 | 2026-09-05 01:18:35 | 48.22508 | 17.80523 | 88° | 37km/h | 31528m | 7.3m/s | -41.7°C | 2.5% | 0hPa | 2.4V | 00:00:00 | 01:55:52 | 00:00:00 | |
| OE3MUC-15 | 2026-09-05 01:18:32 | 48.22507 | 17.80487 | 79° | 37km/h | 31509m | 5.8m/s | -41.6°C | 2.5% | 0hPa | 2.4V | 00:00:00 | 00:00:00 | 00:00:00 | |
| PETON7-10 | 2026-09-05 01:18:29 | 48.22498 | 17.80449 | 65° | 29km/h | 31489m | 6.0m/s | -41.4°C | 2.4% | 0hPa | 2.4V | 00:00:00 | 00:00:00 | 00:00:00 | |
| OE3MUC-15 | 2026-09-05 01:18:28 | 48.22493 | 17.80434 | 66° | 37km/h | 31483m | 5.4m/s | -41.4°C | 2.4% | 0hPa | 2.4V | 00:00:00 | 00:00:00 | 00:00:00 | |
| OE5DRO-10 | 2026-09-05 01:18:27 | 48.22489 | 17.80419 | 72° | 26km/h | 31477m | 5.8m/s | -41.3°C | 2.5% | 0hPa | 2.5V | 00:00:00 | 00:00:00 | 00:00:00 | |
| DO3MHA-12 | 2026-09-05 01:18:26 | 48.22486 | 17.80406 | 77° | 26km/h | 31470m | 7.3m/s | -41.3°C | 2.4% | 0hPa | 2.5V | 00:00:00 | 01:55:43 | 00:00:00 | |
| OE5MMP-10 | 2026-09-05 01:18:25 | 48.22485 | 17.80394 | 84° | 24km/h | 31463m | 6.5m/s | -41.2°C | 2.4% | 0hPa | 2.5V | 00:00:00 | 01:55:42 | 00:00:00 | |
| OE3MUC-15 | 2026-09-05 01:18:24 | 48.22485 | 17.80384 | 90° | 22km/h | 31457m | 6.1m/s | -41.1°C | 2.4% | 0hPa | 2.5V | 00:00:00 | 00:00:00 | 00:00:00 | |
| HA6NAB-11 | 2026-09-05 01:18:22 | 48.22484 | 17.80367 | 80° | 22km/h | 31443m | 7.2m/s | -41.1°C | 0.6% | 0hPa | 2.5V | 00:00:00 | 00:00:00 | 00:00:00 | |
| OE3MUC-15 | 2026-09-05 01:18:20 | 48.22480 | 17.80351 | 64° | 26km/h | 31429m | 6.4m/s | -40.9°C | 2.4% | 0hPa | 2.5V | 00:00:00 | 00:00:00 | 00:00:00 | |
| DO3MHA-11 | 2026-09-05 01:18:18 | 48.22475 | 17.80333 | 72° | 26km/h | 31417m | 6.1m/s | -40.8°C | 2.3% | 0hPa | 2.5V | 00:00:00 | 01:55:35 | 00:00:00 | |
| OE3MUC-15 | 2026-09-05 01:18:16 | 48.22472 | 17.80316 | 88° | 27km/h | 31402m | 6.6m/s | -40.7°C | 2.3% | 0hPa | 2.5V | 00:00:00 | 00:00:00 | 08:30:00 | |
| OE5MMP-10 | 2026-09-05 01:18:15 | 48.22472 | 17.80306 | 87° | 24km/h | 31395m | 6.3m/s | -40.7°C | 2.4% | 0hPa | 2.4V | 00:00:00 | 01:55:32 | 00:00:00 | |
| PETON7-10 | 2026-09-05 01:18:14 | 48.22471 | 17.80296 | 83° | 24km/h | 31389m | 6.8m/s | 0°C | 0% | 0hPa | 2.4V | 00:00:00 | 00:00:00 | 00:00:00 | |
| DO3MHA-12 | 2026-09-05 01:18:13 | 48.22470 | 17.80286 | 71° | 26km/h | 31382m | 7.0m/s | -40.6°C | 2.3% | 0hPa | 2.4V | 00:00:00 | 01:55:30 | 00:00:00 | |
| OE3MUC-15 | 2026-09-05 01:18:12 | 48.22467 | 17.80276 | 66° | 26km/h | 31375m | 5.8m/s | -40.7°C | 2.3% | 0hPa | 2.4V | 00:00:00 | 00:00:00 | 00:00:00 | |
| HA6NAB-11 | 2026-09-05 01:18:10 | 48.22464 | 17.80266 | 63° | 27km/h | 31369m | 5.5m/s | -40.7°C | 0.6% | 0hPa | 2.4V | 00:00:00 | 00:00:00 | 00:00:00 | |
| OE3MUC-15 | 2026-09-05 01:18:08 | 48.22459 | 17.80243 | 90° | 20km/h | 31348m | 6.8m/s | -40.7°C | 2.4% | 0hPa | 2.4V | 00:00:00 | 00:00:00 | 00:00:00 | |
| OE5WHR-10 | 2026-09-05 01:18:07 | 48.22459 | 17.80237 | 97° | 24km/h | 31342m | 5.5m/s | -40.7°C | 2.3% | 0hPa | 2.4V | 00:00:00 | 00:00:00 | 00:00:00 | |
| OE5MMP-10 | 2026-09-05 01:18:05 | 48.22458 | 17.80222 | 79° | 24km/h | 31328m | 7.5m/s | -40.7°C | 2.3% | 0hPa | 2.4V | 00:00:00 | 01:55:22 | 00:00:00 | |
| OE3MUC-15 | 2026-09-05 01:18:04 | 48.22457 | 17.80213 | 76° | 27km/h | 31322m | 6.0m/s | -40.7°C | 2.3% | 0hPa | 2.4V | 00:00:00 | 00:00:00 | 00:00:00 | |
| DO3MHA-12 | 2026-09-05 01:18:03 | 48.22455 | 17.80203 | 78° | 22km/h | 31316m | 5.2m/s | -40.6°C | 2.3% | 0hPa | 2.5V | 00:00:00 | 01:55:20 | 00:00:00 | |
| OE3OSB-13 | 2026-09-05 01:17:57 | 48.22446 | 17.80143 | 51° | 24km/h | 31270m | 5.6m/s | -40.6°C | 0.5% | -1.0hPa | 2.5V | 00:00:00 | 00:00:00 | 00:00:00 | |
| OE3MUC-15 | 2026-09-05 01:17:56 | 48.22446 | 17.80142 | 52° | 20km/h | 31270m | 5.6m/s | -40.5°C | 2.3% | 0hPa | 2.5V | 00:00:00 | 00:00:00 | 00:00:00 | |
| OE5MMP-10 | 2026-09-05 01:17:55 | 48.22442 | 17.80136 | 52° | 27km/h | 31264m | 5.5m/s | -40.5°C | 2.3% | 0hPa | 2.5V | 00:00:00 | 01:55:12 | 00:00:00 | |
| HA6NAB-11 | 2026-09-05 01:17:53 | 48.22439 | 17.80130 | 55° | 18km/h | 31258m | 7.3m/s | -40.5°C | 0.6% | 0hPa | 2.5V | 00:00:00 | 00:00:00 | 00:00:00 | |
| DO3MHA-12 | 2026-09-05 01:17:52 | 48.22436 | 17.80118 | 80° | 29km/h | 31244m | 5.7m/s | -40.5°C | 2.3% | 0hPa | 2.5V | 00:00:00 | 01:55:09 | 00:00:00 | |
| SQ9EZE-14 | 2026-09-05 01:17:50 | 48.22435 | 17.80111 | 79° | 20km/h | 31238m | 5.1m/s | 0°C | 0% | 0hPa | 2.5V | 00:00:00 | 00:00:00 | 00:00:00 | |
| OE5DRO-10 | 2026-09-05 01:17:49 | 48.22430 | 17.80092 | 62° | 35km/h | 31225m | 7.3m/s | -40.5°C | 2.3% | 0hPa | 2.5V | 00:00:00 | 00:00:00 | 00:00:00 | |
| OE3MUC-15 | 2026-09-05 01:17:48 | 48.22426 | 17.80080 | 59° | 37km/h | 31218m | 6.2m/s | -40.5°C | 2.3% | 0hPa | 2.5V | 00:00:00 | 00:00:00 | 00:00:00 | |
| OE5WHR-10 | 2026-09-05 01:17:46 | 48.22415 | 17.80057 | 55° | 22km/h | 31206m | 7.3m/s | -40.5°C | 2.3% | 0hPa | 2.5V | 00:00:00 | 00:00:00 | 00:00:00 | |
| OE5MMP-10 | 2026-09-05 01:17:45 | 48.22410 | 17.80047 | 55° | 33km/h | 31199m | 6.4m/s | -40.5°C | 2.3% | 0hPa | 2.5V | 00:00:00 | 01:55:02 | 08:30:00 | |
| PETON7-10 | 2026-09-05 01:17:44 | 48.22406 | 17.80037 | 57° | 35km/h | 31192m | 5.6m/s | -40.5°C | 2.3% | 0hPa | 2.5V | 00:00:00 | 00:00:00 | 00:00:00 | |
| DO3MHA-12 | 2026-09-05 01:17:42 | 48.22397 | 17.80017 | 60° | 33km/h | 31180m | 6.8m/s | -40.4°C | 2.3% | 0hPa | 2.4V | 00:00:00 | 01:54:59 | 00:00:00 | |
| SP9KGR-15 | 2026-09-05 01:17:41 | 48.22397 | 17.80017 | 60° | 35km/h | 31180m | 6.9m/s | -40.5°C | 0.5% | 0hPa | 2.5V | 00:00:00 | 00:00:00 | 00:00:00 | |
| DO3MHA-11 | 2026-09-05 01:17:38 | 48.22382 | 17.79968 | 71° | 33km/h | 31156m | 7.2m/s | -40.5°C | 2.3% | 0hPa | 2.5V | 00:00:00 | 01:54:55 | 00:00:00 | |
| OE5MMP-10 | 2026-09-05 01:17:35 | 48.22375 | 17.79937 | 66° | 29km/h | 31137m | 5.0m/s | -40.6°C | 2.2% | 0hPa | 2.5V | 00:00:00 | 01:54:52 | 00:00:00 | |
| DO3MHA-12 | 2026-09-05 01:17:32 | 48.22360 | 17.79904 | 50° | 24km/h | 31118m | 5.4m/s | -40.7°C | 2.3% | 0hPa | 2.5V | 00:00:00 | 01:54:49 | 00:00:00 | |
| OE5DRO-10 | 2026-09-05 01:17:30 | 48.22347 | 17.79883 | 46° | 27km/h | 31107m | 6.6m/s | -40.7°C | 2.3% | 0hPa | 2.5V | 00:00:00 | 00:00:00 | 08:30:00 | |
| PETON7-10 | 2026-09-05 01:17:29 | 48.22342 | 17.79875 | 45° | 26km/h | 31100m | 7.7m/s | -40.7°C | 2.2% | 0hPa | 2.4V | 00:00:00 | 00:00:00 | 00:00:00 | |
| DO3MHA-11 | 2026-09-05 01:17:28 | 48.22338 | 17.79869 | 46° | 18km/h | 31092m | 6.7m/s | -40.8°C | 2.3% | 0hPa | 2.4V | 00:00:00 | 01:54:45 | 08:30:00 | |
| OE5DXL-15 | 2026-09-05 01:17:26 | 48.22333 | 17.79860 | 63° | 27km/h | 31080m | 7.0m/s | -40.9°C | 2.3% | 0hPa | 2.4V | 00:00:00 | 00:00:00 | 00:00:00 | |
| OE5MMP-10 | 2026-09-05 01:17:25 | 48.22332 | 17.79855 | 70° | 27km/h | 31073m | 6.0m/s | -40.9°C | 2.3% | 0hPa | 2.4V | 00:00:00 | 01:54:42 | 00:00:00 | |
| DO3MHA-12 | 2026-09-05 01:17:22 | 48.22329 | 17.79836 | 88° | 33km/h | 31054m | 6.8m/s | -41.0°C | 2.3% | 0hPa | 2.4V | 00:00:00 | 01:54:39 | 00:00:00 | |
| OE3MUC-15 | 2026-09-05 01:17:20 | 48.22327 | 17.79824 | 66° | 33km/h | 31043m | 3.7m/s | -41.1°C | 2.3% | 0hPa | 2.4V | 00:00:00 | 00:00:00 | 00:00:00 | |
| OE5WHR-10 | 2026-09-05 01:17:18 | 48.22312 | 17.79794 | 48° | 33km/h | 31023m | 7.8m/s | -41.2°C | 2.3% | 0hPa | 2.4V | 00:00:00 | 01:54:34 | 00:00:00 | |
| OE3MUC-15 | 2026-09-05 01:17:16 | 48.22304 | 17.79781 | 44° | 44km/h | 31017m | 5.5m/s | -41.2°C | 2.3% | 0hPa | 2.4V | 00:00:00 | 00:00:00 | 00:00:00 | |
| OE5MMP-10 | 2026-09-05 01:17:15 | 48.22295 | 17.79769 | 40° | 27km/h | 31011m | 4.9m/s | -41.2°C | 2.3% | 0hPa | 2.4V | 00:00:00 | 01:54:32 | 00:00:00 | |
| PETON7-10 | 2026-09-05 01:17:14 | 48.22286 | 17.79758 | 35° | 27km/h | 31005m | 6.8m/s | -41.3°C | 2.3% | 0hPa | 2.5V | 00:00:00 | 01:54:31 | 00:00:00 | |
| ATIDSZ-14 | 2026-09-05 01:17:13 | 48.22285 | 17.79758 | 36° | 42km/h | 31005m | 6.8m/s | -41.3°C | 0.5% | 0hPa | 2.5V | 00:00:00 | 00:00:00 | 00:00:00 | |
| DO3MHA-12 | 2026-09-05 01:17:12 | 48.22271 | 17.79745 | 29° | 24km/h | 30992m | 6.1m/s | -41.4°C | 2.4% | 0hPa | 2.5V | 00:00:00 | 01:54:29 | 08:30:00 | |
| OE5DRO-10 | 2026-09-05 01:17:11 | 48.22266 | 17.79741 | 31° | 26km/h | 30986m | 6.5m/s | -41.4°C | 2.4% | 0hPa | 2.5V | 00:00:00 | 00:00:00 | 00:00:00 | |
| OE3MUC-15 | 2026-09-05 01:17:08 | 48.22254 | 17.79728 | 37° | 24km/h | 30967m | 5.2m/s | -41.6°C | 2.4% | 0hPa | 2.5V | 00:00:00 | 00:00:00 | 00:00:00 | |
| HA6NAB-11 | 2026-09-05 01:17:06 | 48.22249 | 17.79723 | 35° | 24km/h | 30962m | 5.1m/s | -41.6°C | 0.6% | 0hPa | 2.5V | 00:00:00 | 00:00:00 | 00:00:00 | |
| OE5MMP-10 | 2026-09-05 01:17:05 | 48.22238 | 17.79714 | 29° | 31km/h | 30949m | 6.5m/s | -41.6°C | 2.4% | 0hPa | 2.5V | 00:00:00 | 01:54:22 | 00:00:00 | |
| OE3MUC-15 | 2026-09-05 01:17:04 | 48.22233 | 17.79709 | 33° | 31km/h | 30943m | 5.7m/s | -41.7°C | 2.4% | 0hPa | 2.5V | 00:00:00 | 00:00:00 | 08:30:00 | |
| DO3MHA-12 | 2026-09-05 01:17:02 | 48.22222 | 17.79695 | 46° | 27km/h | 30932m | 6.2m/s | -41.8°C | 2.4% | 0hPa | 2.4V | 00:00:00 | 01:54:19 | 00:00:00 | |
| HA6NAB-11 | 2026-09-05 01:17:01 | 48.22223 | 17.79696 | 46° | 33km/h | 30932m | 6.2m/s | -41.8°C | 0.6% | 0hPa | 2.4V | 00:00:00 | 00:00:00 | 00:00:00 | |
| OE3OSB-13 | 2026-09-05 01:16:54 | 48.22174 | 17.79637 | 9° | 29km/h | 30876m | 7.0m/s | -41.9°C | 0.6% | -1.0hPa | 2.4V | 00:00:00 | 00:00:00 | 00:00:00 | |
| OE3MUC-15 | 2026-09-05 01:16:52 | 48.22167 | 17.79635 | 14° | 35km/h | 30870m | 5.9m/s | -41.9°C | 2.4% | 0hPa | 2.4V | 00:00:00 | 00:00:00 | 00:00:00 | |
| HA6NAB-11 | 2026-09-05 01:16:50 | 48.22158 | 17.79631 | 19° | 37km/h | 30864m | 5.0m/s | -41.9°C | 0.6% | 0hPa | 2.5V | 00:00:00 | 00:00:00 | 00:00:00 | |
| OE3MUC-15 | 2026-09-05 01:16:48 | 48.22135 | 17.79615 | 36° | 22km/h | 30846m | 6.3m/s | -41.9°C | 2.4% | 0hPa | 2.5V | 00:00:00 | 01:54:05 | 00:00:00 | |
| OE3JTB-15 | 2026-09-05 01:16:47 | 48.22130 | 17.79609 | 47° | 18km/h | 30840m | 6.4m/s | -41.8°C | 2.4% | 0hPa | 2.5V | 00:00:00 | 00:00:00 | 00:00:00 | |
| SP3BTT-10 | 2026-09-05 01:16:43 | 48.22119 | 17.79580 | 51° | 18km/h | 30815m | 5.9m/s | 0°C | 0% | 0hPa | 2.5V | 00:00:00 | 00:00:00 | 00:00:00 | |
| DO3MHA-12 | 2026-09-05 01:16:42 | 48.22114 | 17.79573 | 36° | 24km/h | 30810m | 4.7m/s | -42.0°C | 2.3% | 0hPa | 2.5V | 00:00:00 | 01:53:59 | 00:00:00 | |
| OE3MUC-15 | 2026-09-05 01:16:40 | 48.22102 | 17.79568 | 1° | 26km/h | 30799m | 7.6m/s | -42.1°C | 2.3% | 0hPa | 2.4V | 00:00:00 | 00:00:00 | 00:00:00 | |
| DO3MHA-11 | 2026-09-05 01:16:38 | 48.22091 | 17.79573 | 326° | 18km/h | 30784m | 5.8m/s | -42.2°C | 2.3% | 0hPa | 2.4V | 00:00:00 | 01:53:55 | 00:00:00 | |
| OE5WHR-10 | 2026-09-05 01:16:35 | 48.22074 | 17.79586 | 353° | 13km/h | 30767m | 5.5m/s | -42.3°C | 2.4% | 0hPa | 2.4V | 00:00:00 | 00:00:00 | 00:00:00 | |
| OE3MUC-15 | 2026-09-05 01:16:34 | 48.22069 | 17.79586 | 14° | 16km/h | 30761m | 4.9m/s | -42.4°C | 2.4% | 0hPa | 2.4V | 00:00:00 | 00:00:00 | 00:00:00 | |
| OE5DRO-10 | 2026-09-05 01:16:33 | 48.22064 | 17.79583 | 37° | 13km/h | 30755m | 5.6m/s | -42.5°C | 2.4% | 0hPa | 2.4V | 00:00:00 | 00:00:00 | 00:00:00 | |
| DO3MHA-12 | 2026-09-05 01:16:32 | 48.22062 | 17.79579 | 60° | 13km/h | 30749m | 7.5m/s | -42.5°C | 2.4% | 0hPa | 2.4V | 00:00:00 | 01:53:49 | 00:00:00 | |
| ATIDSZ-14 | 2026-09-05 01:16:31 | 48.22062 | 17.79579 | 61° | 15km/h | 30749m | 7.5m/s | -42.6°C | 0.6% | 0hPa | 2.4V | 00:00:00 | 00:00:00 | 00:00:00 | |
| OE3MUC-15 | 2026-09-05 01:16:30 | 48.22061 | 17.79569 | 101° | 11km/h | 30735m | 5.7m/s | -42.7°C | 2.4% | 0hPa | 2.4V | 00:00:00 | 00:00:00 | 00:00:00 | |
| PETON7-10 | 2026-09-05 01:16:29 | 48.22061 | 17.79564 | 90° | 13km/h | 30729m | 5.1m/s | -42.8°C | 2.4% | 0hPa | 2.4V | 00:00:00 | 01:53:46 | 00:00:00 | |
| DO3MHA-11 | 2026-09-05 01:16:28 | 48.22060 | 17.79561 | 62° | 13km/h | 30724m | 6.6m/s | -42.9°C | 2.4% | 0hPa | 2.4V | 00:00:00 | 01:53:45 | 00:00:00 | |
| OE3MUC-15 | 2026-09-05 01:16:26 | 48.22056 | 17.79558 | 350° | 15km/h | 30711m | 5.2m/s | -43.1°C | 2.5% | 0hPa | 2.4V | 00:00:00 | 00:00:00 | 08:30:00 | |
| GYPAP8-17 | 2026-09-05 01:16:25 | 48.22056 | 17.79558 | 351° | 13km/h | 30711m | 5.3m/s | -43.2°C | 0.6% | 0hPa | 2.4V | 00:00:00 | 00:00:00 | 00:00:00 | |
| OE5MMP-10 | 2026-09-05 01:16:24 | 48.22050 | 17.79564 | 304° | 13km/h | 30698m | 7.6m/s | -43.3°C | 2.5% | 0hPa | 2.4V | 00:00:00 | 01:53:41 | 00:00:00 | |
| OE3OSB-13 | 2026-09-05 01:16:23 | 48.22047 | 17.79575 | 289° | 11km/h | 30686m | 5.0m/s | -43.5°C | 0.6% | -1.0hPa | 2.4V | 00:00:00 | 00:00:00 | 00:00:00 | |
| DO3MHA-12 | 2026-09-05 01:16:22 | 48.22047 | 17.79575 | 290° | 11km/h | 30686m | 4.9m/s | -43.5°C | 2.5% | 0hPa | 2.4V | 00:00:00 | 01:53:39 | 00:00:00 | |
| OE3MUC-15 | 2026-09-05 01:16:21 | 48.22046 | 17.79578 | 314° | 11km/h | 30681m | 5.4m/s | -43.6°C | 2.6% | 0hPa | 2.4V | 00:00:00 | 00:00:00 | 00:00:00 | |
| DO3MHA-11 | 2026-09-05 01:16:18 | 48.22039 | 17.79575 | 57° | 11km/h | 30661m | 5.4m/s | -43.9°C | 2.7% | 0hPa | 2.4V | 00:00:00 | 01:53:35 | 00:00:00 | |
| OE3MUC-15 | 2026-09-05 01:16:17 | 48.22038 | 17.79570 | 79° | 13km/h | 30656m | 6.1m/s | -44.0°C | 2.7% | 0hPa | 2.4V | 00:00:00 | 00:00:00 | 00:00:00 | |
| OE5WHR-10 | 2026-09-05 01:16:15 | 48.22042 | 17.79561 | 179° | 7km/h | 30637m | 5.0m/s | -44.0°C | 2.7% | 0hPa | 2.4V | 00:00:00 | 01:53:31 | 00:00:00 | |
| PETON7-10 | 2026-09-05 01:16:14 | 48.22042 | 17.79561 | 179° | 7km/h | 30637m | 5.0m/s | -44.0°C | 2.7% | 0hPa | 2.4V | 00:00:00 | 00:00:00 | 00:00:00 | |
| OE3MUC-15 | 2026-09-05 01:16:13 | 48.22045 | 17.79562 | 196° | 9km/h | 30632m | 5.1m/s | -44.0°C | 2.7% | 0hPa | 2.5V | 00:00:00 | 00:00:00 | 00:00:00 | |
| DO3MHA-12 | 2026-09-05 01:16:12 | 48.22048 | 17.79563 | 216° | 7km/h | 30626m | 6.4m/s | -44.0°C | 2.7% | 0hPa | 2.5V | 00:00:00 | 01:53:29 | 00:00:00 | |
| ATIDSZ-14 | 2026-09-05 01:16:10 | 48.22049 | 17.79566 | 244° | 7km/h | 30619m | 7.1m/s | -44.1°C | 0.7% | 0hPa | 2.5V | 00:00:00 | 00:00:00 | 00:00:00 | |
| OE3MUC-15 | 2026-09-05 01:16:09 | 48.22050 | 17.79571 | 258° | 7km/h | 30606m | 5.0m/s | -44.1°C | 2.7% | 0hPa | 2.5V | 00:00:00 | 00:00:00 | 00:00:00 | |
| DO3MHA-11 | 2026-09-05 01:16:08 | 48.22051 | 17.79574 | 236° | 7km/h | 30600m | 7.5m/s | -44.1°C | 2.7% | 0hPa | 2.5V | 00:00:00 | 01:53:25 | 00:00:00 | |
| OE3MUC-15 | 2026-09-05 01:16:05 | 48.22055 | 17.79578 | 143° | 5km/h | 30581m | 6.6m/s | -44.1°C | 2.7% | 0hPa | 2.5V | 00:00:00 | 00:00:00 | 00:00:00 | |
| OE5MMP-10 | 2026-09-05 01:16:04 | 48.22055 | 17.79577 | 33° | 7km/h | 30574m | 6.8m/s | -44.0°C | 2.7% | 0hPa | 2.5V | 00:00:00 | 01:53:21 | 00:00:00 | |
| DO3MHA-12 | 2026-09-05 01:16:02 | 48.22052 | 17.79574 | 51° | 5km/h | 30562m | 5.1m/s | -44.0°C | 2.6% | 0hPa | 2.5V | 00:00:00 | 01:53:19 | 00:00:00 | |
| OE3OSB-13 | 2026-09-05 01:15:52 | 48.22055 | 17.79559 | 175° | 7km/h | 30493m | 4.8m/s | -44.3°C | 0.6% | -1.0hPa | 2.5V | 00:00:00 | 00:00:00 | 00:00:00 | |
| DO3MHA-12 | 2026-09-05 01:15:51 | 48.22055 | 17.79558 | 176° | 13km/h | 30494m | 4.7m/s | -44.3°C | 2.7% | 0hPa | 2.5V | 00:00:00 | 01:53:08 | 00:00:00 | |
| ATIDSZ-14 | 2026-09-05 01:15:50 | 48.22055 | 17.79558 | 176° | 9km/h | 30494m | 4.8m/s | -44.3°C | 0.7% | 0hPa | 2.5V | 00:00:00 | 00:00:00 | 00:00:00 | |
| OE3MUC-15 | 2026-09-05 01:15:49 | 48.22059 | 17.79557 | 138° | 9km/h | 30483m | 6.4m/s | -44.3°C | 2.7% | 0hPa | 2.5V | 00:00:00 | 00:00:00 | 08:30:00 | |
| DO3MHA-11 | 2026-09-05 01:15:48 | 48.22059 | 17.79555 | 82° | 16km/h | 30476m | 6.9m/s | -44.2°C | 2.6% | 0hPa | 2.5V | 00:00:00 | 01:53:05 | 00:00:00 | |
| HA6NAB-11 | 2026-09-05 01:15:47 | 48.22059 | 17.79552 | 70° | 11km/h | 30470m | 5.9m/s | -44.3°C | 0.7% | 0hPa | 2.5V | 00:00:00 | 00:00:00 | 00:00:00 | |
| S52SK | 2026-09-05 01:15:46 | 48.22059 | 17.79552 | 70° | 11km/h | 30470m | 5.9m/s | -44.3°C | 0.6% | 0hPa | 2.5V | 00:00:00 | 00:00:00 | 00:00:00 | |
| OE3MUC-15 | 2026-09-05 01:15:45 | 48.22057 | 17.79541 | 87° | 22km/h | 30458m | 5.9m/s | -44.2°C | 2.6% | 0hPa | 2.5V | 00:00:00 | 00:00:00 | 00:00:00 | |
| PETON7-10 | 2026-09-05 01:15:44 | 48.22058 | 17.79534 | 105° | 15km/h | 30452m | 7.1m/s | -44.2°C | 2.7% | 0hPa | 2.5V | 00:00:00 | 01:53:01 | 00:00:00 | |
| PG1ADW-2 | 2026-09-05 01:15:42 | 48.22063 | 17.79519 | 124° | 18km/h | 30438m | 5.6m/s | -44.3°C | 2.7% | 0hPa | 2.5V | 00:00:00 | 00:00:00 | 08:30:00 | |
| SP3BTT-10 | 2026-09-05 01:15:41 | 48.22066 | 17.79511 | 123° | 15km/h | 30433m | 4.8m/s | 0°C | 0% | 0hPa | 2.5V | 00:00:00 | 00:00:00 | 00:00:00 | |
| DO3MHA-11 | 2026-09-05 01:15:38 | 48.22067 | 17.79496 | 29° | 13km/h | 30413m | 6.7m/s | -44.6°C | 2.7% | 0hPa | 2.5V | 00:00:00 | 01:52:55 | 00:00:00 | |
| OE5DRO-10 | 2026-09-05 01:15:36 | 48.22060 | 17.79495 | 350° | 15km/h | 30400m | 6.3m/s | -44.7°C | 2.7% | 0hPa | 2.5V | 00:00:00 | 00:00:00 | 00:00:00 | |
| OE5MMP-10 | 2026-09-05 01:15:34 | 48.22054 | 17.79498 | 331° | 20km/h | 30388m | 5.8m/s | -44.7°C | 2.8% | 0hPa | 2.4V | 00:00:00 | 01:52:51 | 00:00:00 | |
| OE5WHR-10 | 2026-09-05 01:15:32 | 48.22053 | 17.79496 | 87° | 16km/h | 30376m | 5.6m/s | -44.7°C | 2.8% | 0hPa | 2.4V | 00:00:00 | 00:00:00 | 00:00:00 | |
| PETON7-10 | 2026-09-05 01:15:29 | 48.22049 | 17.79478 | 73° | 16km/h | 30356m | 5.8m/s | -44.8°C | 2.8% | 0hPa | 2.4V | 00:00:00 | 00:00:00 | 00:00:00 | |
| DO3MHA-11 | 2026-09-05 01:15:28 | 48.22047 | 17.79467 | 76° | 16km/h | 30350m | 5.8m/s | -44.8°C | 2.8% | 0hPa | 2.5V | 00:00:00 | 01:52:45 | 00:00:00 | |
| OE5DXL-15 | 2026-09-05 01:15:26 | 48.22045 | 17.79443 | 86° | 15km/h | 30337m | 6.2m/s | -44.8°C | 2.7% | 0hPa | 2.5V | 00:00:00 | 00:00:00 | 00:00:00 | |
| OE5MMP-10 | 2026-09-05 01:15:24 | 48.22043 | 17.79427 | 70° | 11km/h | 30324m | 6.3m/s | -44.8°C | 2.8% | 0hPa | 2.5V | 00:00:00 | 01:52:41 | 00:00:00 | |
| SP9KGR-15 | 2026-09-05 01:15:23 | 48.22043 | 17.79427 | 71° | 16km/h | 30324m | 6.3m/s | -44.9°C | 0.7% | 0hPa | 2.5V | 00:00:00 | 00:00:00 | 00:00:00 | |
| PG1ADW-2 | 2026-09-05 01:15:22 | 48.22039 | 17.79419 | 19° | 15km/h | 30310m | 6.1m/s | -44.9°C | 2.8% | 0hPa | 2.5V | 00:00:00 | 01:52:39 | 00:00:00 | |
| OE3MUC-15 | 2026-09-05 01:15:21 | 48.22036 | 17.79419 | 2° | 5km/h | 30304m | 5.4m/s | -44.9°C | 2.8% | 0hPa | 2.5V | 00:00:00 | 00:00:00 | 00:00:00 | |
| OE3JTB-15 | 2026-09-05 01:15:20 | 48.22035 | 17.79419 | 347° | 16km/h | 30298m | 7.0m/s | -44.9°C | 2.8% | 0hPa | 2.5V | 00:00:00 | 00:00:00 | 00:00:00 | |
| DO3MHA-11 | 2026-09-05 01:15:18 | 48.22036 | 17.79418 | 147° | 18km/h | 30285m | 5.4m/s | -44.8°C | 2.8% | 0hPa | 2.5V | 00:00:00 | 01:52:35 | 00:00:00 | |
| OE3MUC-15 | 2026-09-05 01:15:17 | 48.22038 | 17.79415 | 125° | 16km/h | 30279m | 5.0m/s | -44.8°C | 2.8% | 0hPa | 2.5V | 00:00:00 | 00:00:00 | 00:00:00 | |
| PETON7-10 | 2026-09-05 01:15:14 | 48.22038 | 17.79397 | 68° | 16km/h | 30260m | 6.1m/s | -44.8°C | 2.8% | 0hPa | 2.5V | 00:00:00 | 00:00:00 | 00:00:00 | |
| OE3MUC-15 | 2026-09-05 01:15:13 | 48.22036 | 17.79390 | 65° | 22km/h | 30254m | 6.0m/s | -44.8°C | 2.7% | 0hPa | 2.5V | 00:00:00 | 00:00:00 | 08:30:00 | |
| OE5WHR-10 | 2026-09-05 01:15:11 | 48.22032 | 17.79374 | 73° | 18km/h | 30241m | 7.5m/s | -44.8°C | 2.7% | 0hPa | 2.5V | 00:00:00 | 01:52:28 | 00:00:00 | |
| OE3MUC-15 | 2026-09-05 01:15:09 | 48.22030 | 17.79360 | 81° | 15km/h | 30228m | 5.4m/s | -44.9°C | 2.7% | 0hPa | 2.5V | 00:00:00 | 00:00:00 | 00:00:00 | |
| DO3MHA-11 | 2026-09-05 01:15:08 | 48.22029 | 17.79354 | 71° | 13km/h | 30221m | 6.1m/s | -45.0°C | 2.8% | 0hPa | 2.5V | 00:00:00 | 01:52:25 | 00:00:00 | |
| SP9KGR-15 | 2026-09-05 01:15:07 | 48.22029 | 17.79354 | 71° | 13km/h | 30221m | 6.1m/s | -45.0°C | 0.7% | 0hPa | 2.5V | 00:00:00 | 00:00:00 | 00:00:00 | |
| OE3MUC-15 | 2026-09-05 01:15:05 | 48.22020 | 17.79344 | 21° | 11km/h | 30200m | 5.7m/s | -45.1°C | 2.8% | 0hPa | 2.5V | 00:00:00 | 00:00:00 | 00:00:00 | |
| OE5MMP-10 | 2026-09-05 01:15:04 | 48.22017 | 17.79342 | 26° | 16km/h | 30195m | 4.9m/s | -45.1°C | 2.7% | 0hPa | 2.5V | 00:00:00 | 01:52:21 | 00:00:00 | |
| OE3MUC-15 | 2026-09-05 01:15:01 | 48.22014 | 17.79334 | 101° | 16km/h | 30175m | 4.8m/s | -45.1°C | 2.8% | 0hPa | 2.5V | 00:00:00 | 00:00:00 | 00:00:00 | |
| PETON7-10 | 2026-09-05 01:14:59 | 48.22013 | 17.79323 | 81° | 18km/h | 30161m | 7.5m/s | -45.2°C | 2.8% | 0hPa | 2.5V | 00:00:00 | 01:52:16 | 00:00:00 | |
| OE5DRO-10 | 2026-09-05 01:14:58 | 48.22012 | 17.79316 | 79° | 20km/h | 30154m | 5.8m/s | -45.3°C | 2.8% | 0hPa | 2.5V | 00:00:00 | 00:00:00 | 00:00:00 | |
| DO3MHA-11 | 2026-09-05 01:14:57 | 48.22012 | 17.79307 | 86° | 18km/h | 30148m | 5.9m/s | -45.3°C | 2.8% | 0hPa | 2.5V | 00:00:00 | 01:52:14 | 00:00:00 | |
| OE5DXL-15 | 2026-09-05 01:14:56 | 48.22012 | 17.79298 | 92° | 22km/h | 30141m | 7.2m/s | -45.3°C | 2.8% | 0hPa | 2.5V | 00:00:00 | 01:52:13 | 08:30:00 | |
| OE5MMP-10 | 2026-09-05 01:14:54 | 48.22012 | 17.79281 | 83° | 16km/h | 30129m | 4.9m/s | -45.3°C | 2.8% | 0hPa | 2.5V | 00:00:00 | 01:52:11 | 00:00:00 | |
| OE3MUC-15 | 2026-09-05 01:14:53 | 48.22010 | 17.79273 | 67° | 22km/h | 30123m | 7.4m/s | -45.3°C | 2.8% | 0hPa | 2.5V | 00:00:00 | 00:00:00 | 00:00:00 | |
| SP9KGR-15 | 2026-09-05 01:14:52 | 48.22010 | 17.79273 | 67° | 22km/h | 30123m | 7.4m/s | -45.4°C | 0.7% | 0hPa | 2.5V | 00:00:00 | 00:00:00 | 00:00:00 | |
| OE3JTB-15 | 2026-09-05 01:14:51 | 48.22003 | 17.79261 | 35° | 22km/h | 30109m | 5.6m/s | -45.3°C | 2.8% | 0hPa | 2.5V | 00:00:00 | 01:52:08 | 00:00:00 | |
| OE5WHR-10 | 2026-09-05 01:14:50 | 48.21999 | 17.79257 | 26° | 20km/h | 30104m | 5.4m/s | -45.3°C | 2.8% | 0hPa | 2.5V | 00:00:00 | 00:00:00 | 00:00:00 | |
| OE3MUC-15 | 2026-09-05 01:14:49 | 48.21995 | 17.79254 | 23° | 9km/h | 30097m | 7.1m/s | -45.3°C | 2.8% | 0hPa | 2.4V | 00:00:00 | 00:00:00 | 00:00:00 | |
| ATIDSZ-14 | 2026-09-05 01:14:48 | 48.21995 | 17.79254 | 24° | 15km/h | 30097m | 7.1m/s | -45.4°C | 0.7% | 0hPa | 2.4V | 00:00:00 | 00:00:00 | 00:00:00 | |
| DO3MHA-11 | 2026-09-05 01:14:47 | 48.21990 | 17.79251 | 40° | 20km/h | 30083m | 5.6m/s | -45.4°C | 2.8% | 0hPa | 2.4V | 00:00:00 | 01:52:04 | 00:00:00 | |
| OE3MUC-15 | 2026-09-05 01:14:45 | 48.21988 | 17.79245 | 58° | 24km/h | 30072m | 6.7m/s | -45.5°C | 2.9% | 0hPa | 2.4V | 00:00:00 | 00:00:00 | 00:00:00 | |
| PETON7-10 | 2026-09-05 01:14:44 | 48.21985 | 17.79240 | 56° | 24km/h | 30065m | 7.2m/s | -45.5°C | 2.9% | 0hPa | 2.4V | 00:00:00 | 00:00:00 | 08:30:00 | |
| PG1ADW-2 | 2026-09-05 01:14:42 | 48.21977 | 17.79223 | 51° | 24km/h | 30052m | 5.2m/s | -45.7°C | 2.9% | 0hPa | 2.5V | 00:00:00 | 00:00:00 | 00:00:00 | |
| OE3MUC-15 | 2026-09-05 01:14:41 | 48.21972 | 17.79214 | 52° | 24km/h | 30046m | 6.5m/s | -45.8°C | 3.0% | 0hPa | 2.4V | 00:00:00 | 00:00:00 | 00:00:00 | |
| OE5DRO-10 | 2026-09-05 01:14:39 | 48.21964 | 17.79201 | 41° | 22km/h | 30034m | 5.8m/s | -45.7°C | 3.0% | 0hPa | 2.4V | 00:00:00 | 00:00:00 | 08:30:00 | |
| GYPAP8-17 | 2026-09-05 01:14:38 | 48.21964 | 17.79201 | 42° | 24km/h | 30034m | 5.8m/s | -45.7°C | 0.7% | 0hPa | 2.5V | 00:00:00 | 00:00:00 | 00:00:00 | |
| DO3MHA-11 | 2026-09-05 01:14:37 | 48.21955 | 17.79190 | 30° | 26km/h | 30020m | 7.5m/s | -45.6°C | 2.9% | 0hPa | 2.5V | 00:00:00 | 01:51:54 | 00:00:00 | |
| 9A1FER-10 | 2026-09-05 01:14:36 | 48.21949 | 17.79186 | 26° | 24km/h | 30013m | 6.6m/s | 0°C | 0% | 0hPa | 2.5V | 00:00:00 | 01:51:53 | 00:00:00 | |
| SP9KGR-15 | 2026-09-05 01:14:35 | 48.21949 | 17.79186 | 27° | 27km/h | 30013m | 6.6m/s | -45.6°C | 0.7% | 0hPa | 2.5V | 00:00:00 | 00:00:00 | 00:00:00 | |
| OE5MMP-10 | 2026-09-05 01:14:34 | 48.21937 | 17.79177 | 24° | 22km/h | 30003m | 3.9m/s | -45.4°C | 2.9% | 0hPa | 2.5V | 00:00:00 | 01:51:51 | 00:00:00 | |
| OE3MUC-15 | 2026-09-05 01:14:33 | 48.21932 | 17.79174 | 27° | 16km/h | 29997m | 7.6m/s | -45.3°C | 2.9% | 0hPa | 2.5V | 00:00:00 | 00:00:00 | 00:00:00 | |
| OE5WHR-10 | 2026-09-05 01:14:29 | 48.21919 | 17.79158 | 48° | 18km/h | 29971m | 7.8m/s | -45.1°C | 2.8% | 0hPa | 2.5V | 00:00:00 | 00:00:00 | 00:00:00 | |
| ATIDSZ-14 | 2026-09-05 01:14:27 | 48.21915 | 17.79151 | 50° | 27km/h | 29964m | 7.2m/s | -45.1°C | 0.7% | 0hPa | 2.5V | 00:00:00 | 00:00:00 | 00:00:00 | |
| OE5DXL-15 | 2026-09-05 01:14:26 | 48.21905 | 17.79134 | 55° | 16km/h | 29951m | 7.1m/s | -45.1°C | 2.8% | 0hPa | 2.5V | 00:00:00 | 00:00:00 | 00:00:00 | |
| OE3MUC-15 | 2026-09-05 01:14:25 | 48.21901 | 17.79126 | 58° | 22km/h | 29944m | 7.0m/s | -45.0°C | 2.8% | 0hPa | 2.5V | 00:00:00 | 00:00:00 | 00:00:00 | |
| OE5MMP-10 | 2026-09-05 01:14:24 | 48.21898 | 17.79118 | 59° | 15km/h | 29937m | 5.9m/s | -45.0°C | 2.8% | 0hPa | 2.4V | 00:00:00 | 01:51:41 | 00:00:00 | |
| PG1ADW-2 | 2026-09-05 01:14:22 | 48.21892 | 17.79106 | 41° | 16km/h | 29925m | 7.3m/s | -45.0°C | 2.8% | 0hPa | 2.4V | 00:00:00 | 00:00:00 | 00:00:00 | |
| OE3MUC-15 | 2026-09-05 01:14:21 | 48.21888 | 17.79101 | 35° | 15km/h | 29918m | 6.3m/s | -45.0°C | 2.8% | 0hPa | 2.4V | 00:00:00 | 00:00:00 | 00:00:00 | |
| OE5DRO-10 | 2026-09-05 01:14:20 | 48.21883 | 17.79098 | 25° | 15km/h | 29912m | 5.4m/s | -45.0°C | 2.8% | 0hPa | 2.4V | 00:00:00 | 00:00:00 | 00:00:00 | |
| OE3OSB-13 | 2026-09-05 01:14:19 | 48.21877 | 17.79095 | 9° | 5km/h | 29898m | 7.4m/s | -45.1°C | 0.6% | -1.0hPa | 2.4V | 00:00:00 | 00:00:00 | 00:00:00 | |
| OE3MUC-15 | 2026-09-05 01:14:17 | 48.21875 | 17.79094 | 8° | 11km/h | 29892m | 5.7m/s | -45.1°C | 2.8% | 0hPa | 2.4V | 00:00:00 | 00:00:00 | 00:00:00 | |
| PETON7-10 | 2026-09-05 01:14:14 | 48.21868 | 17.79088 | 35° | 16km/h | 29873m | 6.9m/s | -45.1°C | 2.8% | 0hPa | 2.4V | 00:00:00 | 01:51:31 | 00:00:00 | |
| OE3MUC-15 | 2026-09-05 01:14:13 | 48.21864 | 17.79083 | 36° | 20km/h | 29866m | 6.2m/s | -45.1°C | 2.8% | 0hPa | 2.4V | 00:00:00 | 00:00:00 | 00:00:00 | |
| HA6NAB-11 | 2026-09-05 01:14:12 | 48.21864 | 17.79083 | 37° | 24km/h | 29866m | 6.2m/s | -45.2°C | 0.7% | 0hPa | 2.5V | 00:00:00 | 00:00:00 | 00:00:00 | |
| OE3MUC-15 | 2026-09-05 01:14:09 | 48.21849 | 17.79063 | 41° | 18km/h | 29841m | 5.3m/s | -45.3°C | 2.9% | 0hPa | 2.5V | 00:00:00 | 00:00:00 | 00:00:00 | |
| OE5WHR-10 | 2026-09-05 01:14:08 | 48.21846 | 17.79060 | 31° | 15km/h | 29834m | 6.6m/s | -45.3°C | 2.9% | 0hPa | 2.5V | 00:00:00 | 01:51:25 | 00:00:00 | |
| 9A1FER-10 | 2026-09-05 01:14:06 | 48.21837 | 17.79054 | 19° | 18km/h | 29822m | 5.3m/s | 0°C | 0% | 0hPa | 2.5V | 00:00:00 | 01:51:23 | 00:00:00 | |
| OE3MUC-15 | 2026-09-05 01:14:05 | 48.21833 | 17.79052 | 18° | 9km/h | 29816m | 5.0m/s | -45.3°C | 2.8% | 0hPa | 2.5V | 00:00:00 | 00:00:00 | 00:00:00 | |
| OE5MMP-10 | 2026-09-05 01:14:04 | 48.21830 | 17.79050 | 21° | 16km/h | 29810m | 7.8m/s | -45.3°C | 2.9% | 0hPa | 2.5V | 00:00:00 | 01:51:21 | 00:00:00 | |
| SP9KGR-15 | 2026-09-05 01:14:03 | 48.21830 | 17.79050 | 22° | 11km/h | 29810m | 7.8m/s | -45.4°C | 0.7% | 0hPa | 2.5V | 00:00:00 | 00:00:00 | 00:00:00 | |
| PG1ADW-2 | 2026-09-05 01:14:02 | 48.21827 | 17.79047 | 52° | 15km/h | 29796m | 5.5m/s | -45.3°C | 2.9% | 0hPa | 2.5V | 00:00:00 | 01:51:19 | 00:00:00 | |
| OE3OSB-13 | 2026-09-05 01:13:48 | 48.21778 | 17.79002 | 104° | 11km/h | 29701m | 5.4m/s | -45.1°C | 0.7% | -1.0hPa | 2.5V | 00:00:00 | 00:00:00 | 00:00:00 | |
| DG1MFX-10 | 2026-09-05 01:13:46 | 48.21778 | 17.79002 | 105° | 11km/h | 29701m | 5.4m/s | 0°C | 0% | 0hPa | 2.5V | 00:00:00 | 00:00:00 | 00:00:00 | |
| OE3MUC-15 | 2026-09-05 01:13:45 | 48.21778 | 17.78993 | 78° | 16km/h | 29691m | 5.8m/s | -45.0°C | 2.8% | 0hPa | 2.5V | 00:00:00 | 00:00:00 | 00:00:00 | |
| PETON7-10 | 2026-09-05 01:13:44 | 48.21777 | 17.78989 | 49° | 13km/h | 29684m | 7.0m/s | -45.0°C | 2.8% | 0hPa | 2.5V | 00:00:00 | 00:00:00 | 00:00:00 | |
| OE5WHR-10 | 2026-09-05 01:13:43 | 48.21773 | 17.78985 | 26° | 9km/h | 29677m | 6.0m/s | -45.0°C | 2.8% | 0hPa | 2.5V | 00:00:00 | 00:00:00 | 08:30:00 | |
| PG1ADW-2 | 2026-09-05 01:13:42 | 48.21768 | 17.78983 | 11° | 9km/h | 29672m | 5.1m/s | -44.9°C | 2.8% | 0hPa | 2.4V | 00:00:00 | 00:00:00 | 00:00:00 | |
| OE5MMP-10 | 2026-09-05 01:13:34 | 48.21752 | 17.78976 | 63° | 9km/h | 29624m | 5.9m/s | -45.1°C | 2.8% | 0hPa | 2.5V | 00:00:00 | 01:50:51 | 00:00:00 | |
| SP9KGR-15 | 2026-09-05 01:13:30 | 48.21746 | 17.78961 | 11° | 2km/h | 29599m | 6.2m/s | -45.2°C | 0.7% | 0hPa | 2.5V | 00:00:00 | 00:00:00 | 00:00:00 | |
| PETON7-10 | 2026-09-05 01:13:29 | 48.21745 | 17.78962 | 292° | 9km/h | 29593m | 5.3m/s | -45.1°C | 2.8% | 0hPa | 2.5V | 00:00:00 | 01:50:46 | 00:00:00 | |
| OE5DXL-15 | 2026-09-05 01:13:26 | 48.21740 | 17.78968 | 335° | 11km/h | 29574m | 5.0m/s | -45.1°C | 2.8% | 0hPa | 2.5V | 00:00:00 | 00:00:00 | 00:00:00 | |
| OE5MMP-10 | 2026-09-05 01:13:24 | 48.21739 | 17.78970 | 223° | 9km/h | 29562m | 7.3m/s | -45.1°C | 2.8% | 0hPa | 2.4V | 00:00:00 | 01:50:41 | 00:00:00 | |
| OE5WHR-10 | 2026-09-05 01:13:22 | 48.21742 | 17.78970 | 166° | 9km/h | 29549m | 5.4m/s | 0°C | 0% | 0hPa | 2.4V | 00:00:00 | 00:00:00 | 00:00:00 | |
| 9A1FER-10 | 2026-09-05 01:13:21 | 48.21744 | 17.78968 | 140° | 9km/h | 29543m | 6.8m/s | 0°C | 0% | 0hPa | 2.4V | 00:00:00 | 01:50:38 | 08:30:00 | |
| OE3MUC-15 | 2026-09-05 01:13:17 | 48.21749 | 17.78958 | 158° | 13km/h | 29518m | 7.5m/s | -45.0°C | 2.8% | 0hPa | 2.4V | 00:00:00 | 00:00:00 | 00:00:00 | |
| SP9KGR-15 | 2026-09-05 01:13:15 | 48.21755 | 17.78957 | 181° | 15km/h | 29505m | 5.1m/s | -45.2°C | 0.7% | 0hPa | 2.4V | 00:00:00 | 00:00:00 | 00:00:00 | |
| PETON7-10 | 2026-09-05 01:13:14 | 48.21758 | 17.78957 | 186° | 11km/h | 29500m | 5.1m/s | -45.2°C | 2.7% | 0hPa | 2.4V | 00:00:00 | 00:00:00 | 00:00:00 | |
| OE3MUC-15 | 2026-09-05 01:13:13 | 48.21760 | 17.78957 | 185° | 4km/h | 29494m | 7.3m/s | -45.3°C | 2.8% | 0hPa | 2.5V | 00:00:00 | 00:00:00 | 00:00:00 | |
| SP3BTT-10 | 2026-09-05 01:13:12 | 48.21762 | 17.78958 | 198° | 9km/h | 29487m | 6.0m/s | 0°C | 0% | 0hPa | 2.4V | 00:00:00 | 00:00:00 | 00:00:00 | |
| OE3MUC-15 | 2026-09-05 01:13:09 | 48.21765 | 17.78959 | 195° | 11km/h | 29469m | 6.6m/s | -45.4°C | 2.9% | 0hPa | 2.4V | 00:00:00 | 00:00:00 | 00:00:00 | |
| OE3MUC-15 | 2026-09-05 01:13:05 | 48.21776 | 17.78958 | 143° | 15km/h | 29445m | 6.4m/s | -45.5°C | 2.9% | 0hPa | 2.4V | 00:00:00 | 00:00:00 | 00:00:00 | |
| ATIDSZ-14 | 2026-09-05 01:13:04 | 48.21776 | 17.78958 | 144° | 11km/h | 29445m | 6.4m/s | -45.5°C | 0.7% | 0hPa | 2.4V | 00:00:00 | 00:00:00 | 00:00:00 | |
| OE5DRO-10 | 2026-09-05 01:13:03 | 48.21781 | 17.78951 | 139° | 13km/h | 29433m | 4.9m/s | -45.5°C | 2.8% | 0hPa | 2.4V | 00:00:00 | 00:00:00 | 00:00:00 | |
| PG1ADW-2 | 2026-09-05 01:13:02 | 48.21784 | 17.78947 | 154° | 13km/h | 29427m | 7.0m/s | -45.4°C | 2.8% | 0hPa | 2.4V | 00:00:00 | 00:00:00 | 00:00:00 | |
| OE3OSB-13 | 2026-09-05 01:12:46 | 48.21828 | 17.78927 | 166° | 20km/h | 29325m | 6.4m/s | -45.5°C | 0.7% | -1.0hPa | 2.4V | 00:00:00 | 00:00:00 | 00:00:00 | |
| OE3MUC-15 | 2026-09-05 01:12:45 | 48.21828 | 17.78927 | 167° | 24km/h | 29325m | 6.3m/s | -45.5°C | 2.8% | 0hPa | 2.4V | 00:00:00 | 00:00:00 | 00:00:00 | |
| PETON7-10 | 2026-09-05 01:12:44 | 48.21834 | 17.78925 | 179° | 18km/h | 29319m | 5.6m/s | -45.5°C | 2.8% | 0hPa | 2.4V | 00:00:00 | 01:50:01 | 00:00:00 | |
| OE5DRO-10 | 2026-09-05 01:12:43 | 48.21840 | 17.78926 | 189° | 18km/h | 29314m | 4.9m/s | -45.5°C | 2.8% | 0hPa | 2.4V | 00:00:00 | 00:00:00 | 00:00:00 | |
| PG1ADW-2 | 2026-09-05 01:12:42 | 48.21846 | 17.78928 | 197° | 16km/h | 29309m | 5.2m/s | -45.5°C | 2.8% | 0hPa | 2.4V | 00:00:00 | 01:49:59 | 08:30:00 | |
| OE3MUC-15 | 2026-09-05 01:12:41 | 48.21851 | 17.78930 | 196° | 13km/h | 29303m | 5.1m/s | -45.6°C | 2.8% | 0hPa | 2.4V | 00:00:00 | 00:00:00 | 00:00:00 | |
| OE5WHR-10 | 2026-09-05 01:12:40 | 48.21853 | 17.78930 | 169° | 16km/h | 29298m | 5.3m/s | 0°C | 0% | 0hPa | 2.4V | 00:00:00 | 00:00:00 | 00:00:00 | |
| DG1MFX-10 | 2026-09-05 01:12:39 | 48.21853 | 17.78930 | 169° | 5km/h | 29298m | 5.4m/s | 0°C | 0% | 0hPa | 2.4V | 00:00:00 | 00:00:00 | 00:00:00 | |
| OE3MUC-15 | 2026-09-05 01:12:37 | 48.21853 | 17.78915 | 85° | 24km/h | 29278m | 6.3m/s | -45.7°C | 2.9% | 0hPa | 2.4V | 00:00:00 | 00:00:00 | 00:00:00 | |
| HA6NAB-11 | 2026-09-05 01:12:35 | 48.21852 | 17.78905 | 92° | 27km/h | 29273m | 5.0m/s | -45.8°C | 0.7% | 0hPa | 2.5V | 00:00:00 | 00:00:00 | 00:00:00 | |
| OE3MUC-15 | 2026-09-05 01:12:34 | 48.21854 | 17.78882 | 108° | 11km/h | 29255m | 6.2m/s | -45.8°C | 2.9% | 0hPa | 2.5V | 00:00:00 | 00:00:00 | 00:00:00 | |
| OE3MUC-15 | 2026-09-05 01:12:29 | 48.21865 | 17.78872 | 160° | 24km/h | 29231m | 7.7m/s | -45.9°C | 2.9% | 0hPa | 2.5V | 00:00:00 | 00:00:00 | 00:00:00 | |
| OE5DXL-15 | 2026-09-05 01:12:26 | 48.21882 | 17.78860 | 150° | 15km/h | 29214m | 4.4m/s | -46.0°C | 2.9% | 0hPa | 2.5V | 00:00:00 | 00:00:00 | 00:00:00 | |
| OE3MUC-15 | 2026-09-05 01:12:25 | 48.21886 | 17.78856 | 149° | 13km/h | 29208m | 6.9m/s | -46.0°C | 2.9% | 0hPa | 2.5V | 00:00:00 | 00:00:00 | 00:00:00 | |
| OE5MMP-10 | 2026-09-05 01:12:24 | 48.21888 | 17.78852 | 125° | 15km/h | 29200m | 7.2m/s | -46.0°C | 2.9% | 0hPa | 2.5V | 00:00:00 | 01:49:41 | 00:00:00 | |
| OE3JTB-15 | 2026-09-05 01:12:23 | 48.21889 | 17.78849 | 94° | 13km/h | 29194m | 5.6m/s | -46.0°C | 2.9% | 0hPa | 2.5V | 00:00:00 | 00:00:00 | 00:00:00 | |
| PG1ADW-2 | 2026-09-05 01:12:22 | 48.21889 | 17.78844 | 90° | 15km/h | 29188m | 6.1m/s | -46.0°C | 2.9% | 0hPa | 2.5V | 00:00:00 | 00:00:00 | 00:00:00 | |
| OE3MUC-15 | 2026-09-05 01:12:21 | 48.21889 | 17.78838 | 90° | 16km/h | 29181m | 7.1m/s | -46.1°C | 2.9% | 0hPa | 2.5V | 00:00:00 | 00:00:00 | 00:00:00 | |
| OE5WHR-10 | 2026-09-05 01:12:19 | 48.21890 | 17.78824 | 108° | 15km/h | 29169m | 4.2m/s | 0°C | 0% | 0hPa | 2.5V | 00:00:00 | 00:00:00 | 00:00:00 | |
| OE3MUC-15 | 2026-09-05 01:12:17 | 48.21894 | 17.78816 | 150° | 16km/h | 29156m | 6.8m/s | -46.1°C | 2.8% | 0hPa | 2.5V | 00:00:00 | 00:00:00 | 00:00:00 | |
| PETON7-10 | 2026-09-05 01:12:14 | 48.21906 | 17.78812 | 163° | 13km/h | 29136m | 6.6m/s | -46.2°C | 2.9% | 0hPa | 2.5V | 00:00:00 | 00:00:00 | 00:00:00 | |
| OE3MUC-15 | 2026-09-05 01:12:13 | 48.21912 | 17.78809 | 157° | 20km/h | 29130m | 5.5m/s | -46.2°C | 2.9% | 0hPa | 2.5V | 00:00:00 | 00:00:00 | 08:30:00 | |
| SP9KGR-15 | 2026-09-05 01:12:10 | 48.21921 | 17.78802 | 158° | 16km/h | 29118m | 7.5m/s | -46.4°C | 0.7% | 0hPa | 2.5V | 00:00:00 | 00:00:00 | 00:00:00 | |
| OE3MUC-15 | 2026-09-05 01:12:09 | 48.21926 | 17.78797 | 117° | 11km/h | 29104m | 6.4m/s | -46.4°C | 2.9% | 0hPa | 2.5V | 00:00:00 | 00:00:00 | 00:00:00 | |
| DG1MFX-10 | 2026-09-05 01:12:07 | 48.21926 | 17.78794 | 96° | 11km/h | 29097m | 5.9m/s | 0°C | 0% | 0hPa | 2.5V | 00:00:00 | 00:00:00 | 00:00:00 | |
| OE3MUC-15 | 2026-09-05 01:12:05 | 48.21928 | 17.78778 | 107° | 11km/h | 29079m | 4.3m/s | -46.5°C | 3.0% | 0hPa | 2.5V | 00:00:00 | 00:00:00 | 00:00:00 | |
| OE5MMP-10 | 2026-09-05 01:12:04 | 48.21929 | 17.78773 | 111° | 11km/h | 29073m | 6.7m/s | -46.5°C | 2.9% | 0hPa | 2.5V | 00:00:00 | 01:49:21 | 00:00:00 | |
| PG1ADW-2 | 2026-09-05 01:12:02 | 48.21932 | 17.78767 | 149° | 11km/h | 29060m | 5.4m/s | -46.5°C | 3.0% | 0hPa | 2.5V | 00:00:00 | 00:00:00 | 00:00:00 | |
| OE3MUC-15 | 2026-09-05 01:12:01 | 48.21934 | 17.78766 | 160° | 15km/h | 29054m | 5.0m/s | -46.6°C | 3.0% | 0hPa | 2.5V | 00:00:00 | 00:00:00 | 00:00:00 | |
| PETON7-10 | 2026-09-05 01:11:59 | 48.21940 | 17.78761 | 153° | 9km/h | 29041m | 6.5m/s | -46.7°C | 3.0% | 0hPa | 2.4V | 00:00:00 | 01:49:16 | 00:00:00 | |
| OE3MUC-15 | 2026-09-05 01:11:57 | 48.21947 | 17.78755 | 151° | 5km/h | 29028m | 6.1m/s | -46.7°C | 3.0% | 0hPa | 2.4V | 00:00:00 | 00:00:00 | 00:00:00 | |
| OE5WHR-10 | 2026-09-05 01:11:56 | 48.21949 | 17.78754 | 142° | 13km/h | 29022m | 7.6m/s | 0°C | 0% | 0hPa | 2.4V | 00:00:00 | 01:49:13 | 00:00:00 | |
| OE5MMP-10 | 2026-09-05 01:11:54 | 48.21948 | 17.78752 | 20° | 9km/h | 29009m | 4.9m/s | -46.8°C | 3.0% | 0hPa | 2.4V | 00:00:00 | 01:49:11 | 00:00:00 | |
| OE3MUC-15 | 2026-09-05 01:11:53 | 48.21947 | 17.78750 | 48° | 11km/h | 29003m | 7.0m/s | -46.8°C | 3.0% | 0hPa | 2.4V | 00:00:00 | 00:00:00 | 00:00:00 | |
| OE3MUC-15 | 2026-09-05 01:11:49 | 48.21944 | 17.78737 | 80° | 7km/h | 28977m | 7.3m/s | -46.8°C | 3.1% | 0hPa | 2.4V | 00:00:00 | 00:00:00 | 00:00:00 | |
| OE5DRO-10 | 2026-09-05 01:11:46 | 48.21947 | 17.78732 | 149° | 13km/h | 28958m | 6.9m/s | -46.9°C | 3.0% | 0hPa | 2.5V | 00:00:00 | 00:00:00 | 08:30:00 | |
| OE3MUC-15 | 2026-09-05 01:11:45 | 48.21950 | 17.78728 | 145° | 18km/h | 28951m | 7.7m/s | -46.8°C | 3.0% | 0hPa | 2.4V | 00:00:00 | 00:00:00 | 00:00:00 | |
| OE3OSB-13 | 2026-09-05 01:11:44 | 48.21958 | 17.78718 | 134° | 20km/h | 28939m | 5.2m/s | -46.9°C | 0.7% | -1.0hPa | 2.4V | 00:00:00 | 00:00:00 | 00:00:00 | |
| PG1ADW-2 | 2026-09-05 01:11:42 | 48.21961 | 17.78713 | 127° | 11km/h | 28932m | 7.0m/s | -46.8°C | 3.0% | 0hPa | 2.4V | 00:00:00 | 00:00:00 | 00:00:00 | |
| ATIDSZ-14 | 2026-09-05 01:11:41 | 48.21961 | 17.78713 | 128° | 15km/h | 28932m | 7.0m/s | -46.9°C | 0.8% | 0hPa | 2.5V | 00:00:00 | 00:00:00 | 00:00:00 | |
| OE5WHR-10 | 2026-09-05 01:11:35 | 48.21963 | 17.78686 | 106° | 11km/h | 28888m | 5.2m/s | 0°C | 0% | 0hPa | 2.5V | 00:00:00 | 00:00:00 | 00:00:00 | |
| OE5MMP-10 | 2026-09-05 01:11:34 | 48.21964 | 17.78682 | 110° | 11km/h | 28881m | 7.7m/s | -46.8°C | 3.0% | 0hPa | 2.5V | 00:00:00 | 01:48:51 | 00:00:00 | |
| SP9KGR-15 | 2026-09-05 01:11:33 | 48.21964 | 17.78683 | 111° | 7km/h | 28881m | 7.8m/s | -46.9°C | 0.8% | 0hPa | 2.5V | 00:00:00 | 00:00:00 | 00:00:00 | |
| OE3JTB-15 | 2026-09-05 01:11:30 | 48.21970 | 17.78676 | 141° | 13km/h | 28856m | 7.3m/s | -46.9°C | 3.0% | 0hPa | 2.5V | 00:00:00 | 01:48:47 | 00:00:00 | |
| PETON7-10 | 2026-09-05 01:11:29 | 48.21973 | 17.78672 | 136° | 11km/h | 28849m | 6.5m/s | -47.0°C | 3.0% | 0hPa | 2.5V | 00:00:00 | 00:00:00 | 00:00:00 | |
| OE5DRO-10 | 2026-09-05 01:11:27 | 48.21979 | 17.78662 | 130° | 9km/h | 28837m | 6.7m/s | -47.0°C | 3.0% | 0hPa | 2.5V | 00:00:00 | 00:00:00 | 00:00:00 | |
| OE5DXL-15 | 2026-09-05 01:11:26 | 48.21982 | 17.78658 | 132° | 9km/h | 28830m | 6.7m/s | -47.0°C | 3.0% | 0hPa | 2.5V | 00:00:00 | 00:00:00 | 00:00:00 | |
| OE5MMP-10 | 2026-09-05 01:11:24 | 48.21985 | 17.78653 | 139° | 9km/h | 28817m | 6.6m/s | -47.0°C | 3.0% | 0hPa | 2.5V | 00:00:00 | 01:48:41 | 00:00:00 | |
| PG1ADW-2 | 2026-09-05 01:11:22 | 48.21989 | 17.78648 | 138° | 9km/h | 28802m | 6.4m/s | -47.0°C | 3.0% | 0hPa | 2.5V | 00:00:00 | 01:48:39 | 00:00:00 | |
| OE3MUC-15 | 2026-09-05 01:11:21 | 48.21991 | 17.78646 | 135° | 4km/h | 28796m | 5.4m/s | -47.0°C | 3.0% | 0hPa | 2.5V | 00:00:00 | 00:00:00 | 00:00:00 | |
| S52SK | 2026-09-05 01:11:20 | 48.21991 | 17.78646 | 136° | 7km/h | 28796m | 5.4m/s | -47.1°C | 0.8% | 0hPa | 2.5V | 00:00:00 | 00:00:00 | 00:00:00 | |
| OE3MUC-15 | 2026-09-05 01:11:17 | 48.21992 | 17.78641 | 68° | 13km/h | 28773m | 5.9m/s | -47.2°C | 3.0% | 0hPa | 2.5V | 00:00:00 | 00:00:00 | 00:00:00 | |
| OE5WHR-10 | 2026-09-05 01:11:14 | 48.21991 | 17.78627 | 108° | 9km/h | 28755m | 5.3m/s | 0°C | 0% | 0hPa | 2.5V | 00:00:00 | 00:00:00 | 00:00:00 | |
| OE3MUC-15 | 2026-09-05 01:11:13 | 48.21993 | 17.78623 | 122° | 9km/h | 28748m | 7.7m/s | -47.3°C | 3.1% | 0hPa | 2.5V | 00:00:00 | 00:00:00 | 00:00:00 | |
| SP9KGR-15 | 2026-09-05 01:11:12 | 48.21993 | 17.78623 | 122° | 13km/h | 28748m | 7.7m/s | -47.4°C | 0.8% | 0hPa | 2.5V | 00:00:00 | 00:00:00 | 00:00:00 | |
| OE3MUC-15 | 2026-09-05 01:11:09 | 48.21997 | 17.78613 | 75° | 9km/h | 28722m | 5.8m/s | -47.3°C | 3.1% | 0hPa | 2.5V | 00:00:00 | 00:00:00 | 00:00:00 | |
| OE5DRO-10 | 2026-09-05 01:11:08 | 48.21996 | 17.78610 | 31° | 7km/h | 28716m | 4.1m/s | -47.3°C | 3.1% | 0hPa | 2.5V | 00:00:00 | 00:00:00 | 00:00:00 | |
| HA6NAB-11 | 2026-09-05 01:11:06 | 48.21993 | 17.78610 | 361° | 11km/h | 28711m | 7.4m/s | -47.4°C | 0.8% | 0hPa | 2.5V | 00:00:00 | 00:00:00 | 00:00:00 | |
| OE3MUC-15 | 2026-09-05 01:11:05 | 48.21988 | 17.78612 | 335° | 13km/h | 28696m | 5.5m/s | -47.3°C | 3.1% | 0hPa | 2.5V | 00:00:00 | 00:00:00 | 00:00:00 | |
| OE5MMP-10 | 2026-09-05 01:11:04 | 48.21984 | 17.78613 | 357° | 7km/h | 28691m | 5.6m/s | -47.4°C | 3.1% | 0hPa | 2.5V | 00:00:00 | 01:48:21 | 00:00:00 | |
| PG1ADW-2 | 2026-09-05 01:11:02 | 48.21979 | 17.78610 | 53° | 7km/h | 28677m | 6.5m/s | -47.5°C | 3.1% | 0hPa | 2.5V | 00:00:00 | 00:00:00 | 00:00:00 | |
| OE3MUC-15 | 2026-09-05 01:11:01 | 48.21979 | 17.78608 | 85° | 5km/h | 28671m | 5.6m/s | -47.5°C | 3.1% | 0hPa | 2.5V | 00:00:00 | 00:00:00 | 08:30:00 | |
| ATIDSZ-14 | 2026-09-05 01:10:59 | 48.21979 | 17.78605 | 129° | 5km/h | 28665m | 7.0m/s | -47.6°C | 0.8% | 0hPa | 2.4V | 00:00:00 | 00:00:00 | 00:00:00 | |
| OE3MUC-15 | 2026-09-05 01:10:57 | 48.21982 | 17.78604 | 155° | 4km/h | 28646m | 7.0m/s | -47.6°C | 3.1% | 0hPa | 2.4V | 00:00:00 | 00:00:00 | 00:00:00 | |
| OE5DXL-15 | 2026-09-05 01:10:56 | 48.21983 | 17.78603 | 140° | 9km/h | 28639m | 7.1m/s | -47.6°C | 3.1% | 0hPa | 2.4V | 00:00:00 | 00:00:00 | 00:00:00 | |
| HA6NAB-11 | 2026-09-05 01:10:55 | 48.21983 | 17.78603 | 140° | 4km/h | 28639m | 7.2m/s | -47.6°C | 0.8% | 0hPa | 2.4V | 00:00:00 | 00:00:00 | 00:00:00 | |
| OE5MMP-10 | 2026-09-05 01:10:54 | 48.21984 | 17.78602 | 298° | 9km/h | 28627m | 6.4m/s | -47.6°C | 3.1% | 0hPa | 2.4V | 00:00:00 | 01:48:11 | 00:00:00 | |
| SP9KGR-15 | 2026-09-05 01:10:53 | 48.21983 | 17.78604 | 281° | 7km/h | 28620m | 7.4m/s | -47.6°C | 0.8% | 0hPa | 2.4V | 00:00:00 | 00:00:00 | 00:00:00 | |
| OE5WHR-10 | 2026-09-05 01:10:51 | 48.21984 | 17.78610 | 249° | 7km/h | 28608m | 4.3m/s | 0°C | 0% | 0hPa | 2.4V | 00:00:00 | 01:48:08 | 00:00:00 | |
| OE3MUC-15 | 2026-09-05 01:10:49 | 48.21986 | 17.78611 | 154° | 11km/h | 28595m | 7.1m/s | -47.6°C | 3.1% | 0hPa | 2.4V | 00:00:00 | 00:00:00 | 00:00:00 | |
| SP3BTT-10 | 2026-09-05 01:10:48 | 48.21988 | 17.78609 | 141° | 13km/h | 28588m | 5.7m/s | 0°C | 0% | 0hPa | 2.5V | 00:00:00 | 00:00:00 | 00:00:00 | |
| OE3MUC-15 | 2026-09-05 01:10:45 | 48.21996 | 17.78606 | 190° | 5km/h | 28568m | 5.9m/s | -47.6°C | 3.1% | 0hPa | 2.5V | 00:00:00 | 00:00:00 | 00:00:00 | |
| OE5MMP-10 | 2026-09-05 01:10:44 | 48.21998 | 17.78607 | 190° | 7km/h | 28562m | 5.8m/s | -47.6°C | 3.1% | 0hPa | 2.5V | 00:00:00 | 01:48:01 | 00:00:00 | |
| PG1ADW-2 | 2026-09-05 01:10:42 | 48.22000 | 17.78607 | 49° | 9km/h | 28548m | 5.8m/s | -47.6°C | 3.1% | 0hPa | 2.4V | 00:00:00 | 00:00:00 | 00:00:00 | |
| OE3MUC-15 | 2026-09-05 01:10:41 | 48.21999 | 17.78607 | 343° | 9km/h | 28542m | 4.8m/s | -47.6°C | 3.1% | 0hPa | 2.5V | 00:00:00 | 00:00:00 | 00:00:00 | |
| OE3JTB-15 | 2026-09-05 01:10:40 | 48.21998 | 17.78608 | 306° | 22km/h | 28536m | 7.1m/s | -47.6°C | 3.1% | 0hPa | 2.5V | 00:00:00 | 00:00:00 | 00:00:00 | |
| ATIDSZ-14 | 2026-09-05 01:10:39 | 48.21998 | 17.78608 | 306° | 7km/h | 28536m | 7.1m/s | -47.7°C | 0.8% | 0hPa | 2.4V | 00:00:00 | 00:00:00 | 00:00:00 | |
| OE3MUC-15 | 2026-09-05 01:10:37 | 48.21997 | 17.78619 | 249° | 9km/h | 28518m | 4.1m/s | -47.6°C | 3.2% | 0hPa | 2.4V | 00:00:00 | 00:00:00 | 00:00:00 | |
| OE5MMP-10 | 2026-09-05 01:10:34 | 48.22003 | 17.78620 | 152° | 11km/h | 28499m | 5.9m/s | -47.7°C | 3.1% | 0hPa | 2.4V | 00:00:00 | 01:47:51 | 00:00:00 | |
| OE3MUC-15 | 2026-09-05 01:10:33 | 48.22006 | 17.78617 | 157° | 16km/h | 28493m | 5.8m/s | -47.7°C | 3.2% | 0hPa | 2.4V | 00:00:00 | 00:00:00 | 00:00:00 | |
| OE5DRO-10 | 2026-09-05 01:10:30 | 48.22018 | 17.78617 | 206° | 11km/h | 28474m | 4.8m/s | -47.7°C | 3.1% | 0hPa | 2.4V | 00:00:00 | 00:00:00 | 00:00:00 | |
| OE3MUC-15 | 2026-09-05 01:10:29 | 48.22021 | 17.78619 | 215° | 5km/h | 28469m | 5.7m/s | -47.7°C | 3.1% | 0hPa | 2.4V | 00:00:00 | 00:00:00 | 00:00:00 | |
| OE5DXL-15 | 2026-09-05 01:10:26 | 48.22024 | 17.78623 | 256° | 11km/h | 28450m | 5.0m/s | -47.8°C | 3.2% | 0hPa | 2.4V | 00:00:00 | 00:00:00 | 08:30:00 | |
| OE3MUC-15 | 2026-09-05 01:10:25 | 48.22024 | 17.78625 | 255° | 13km/h | 28444m | 5.5m/s | -47.8°C | 3.2% | 0hPa | 2.4V | 00:00:00 | 00:00:00 | 08:30:00 | |
| OE5MMP-10 | 2026-09-05 01:10:24 | 48.22025 | 17.78627 | 238° | 13km/h | 28438m | 6.1m/s | -47.8°C | 3.2% | 0hPa | 2.4V | 00:00:00 | 01:47:41 | 00:00:00 | |
| PG1ADW-2 | 2026-09-05 01:10:22 | 48.22031 | 17.78634 | 206° | 13km/h | 28427m | 5.4m/s | -47.8°C | 3.2% | 0hPa | 2.4V | 00:00:00 | 00:00:00 | 00:00:00 | |
| OE5WHR-10 | 2026-09-05 01:10:21 | 48.22036 | 17.78637 | 194° | 11km/h | 28421m | 5.5m/s | 0°C | 0% | 0hPa | 2.4V | 00:00:00 | 00:00:00 | 00:00:00 | |
| ATIDSZ-14 | 2026-09-05 01:10:19 | 48.22040 | 17.78637 | 176° | 15km/h | 28416m | 5.0m/s | -47.8°C | 0.8% | 0hPa | 2.4V | 00:00:00 | 00:00:00 | 00:00:00 | |
| OE3MUC-15 | 2026-09-05 01:10:17 | 48.22043 | 17.78632 | 23° | 9km/h | 28398m | 5.9m/s | -47.7°C | 3.2% | 0hPa | 2.4V | 00:00:00 | 00:00:00 | 00:00:00 | |
| PETON7-10 | 2026-09-05 01:10:14 | 48.22038 | 17.78639 | 272° | 13km/h | 28382m | 5.0m/s | -47.7°C | 3.2% | 0hPa | 2.4V | 00:00:00 | 00:00:00 | 08:30:00 | |
| OE3MUC-15 | 2026-09-05 01:10:13 | 48.22039 | 17.78644 | 241° | 15km/h | 28376m | 5.3m/s | -47.6°C | 3.2% | 0hPa | 2.5V | 00:00:00 | 00:00:00 | 00:00:00 | |
| GYPAP8-17 | 2026-09-05 01:10:12 | 48.22039 | 17.78644 | 242° | 13km/h | 28376m | 5.3m/s | -47.7°C | 0.8% | 0hPa | 2.5V | 00:00:00 | 00:00:00 | 00:00:00 | |
| OE5DRO-10 | 2026-09-05 01:10:11 | 48.22045 | 17.78649 | 192° | 13km/h | 28363m | 6.6m/s | -47.6°C | 3.2% | 0hPa | 2.5V | 00:00:00 | 00:00:00 | 00:00:00 | |
| OE3OSB-13 | 2026-09-05 01:10:10 | 48.22049 | 17.78650 | 177° | 16km/h | 28357m | 5.5m/s | -47.6°C | 0.7% | -1.0hPa | 2.5V | 00:00:00 | 00:00:00 | 00:00:00 | |
| OE3MUC-15 | 2026-09-05 01:10:09 | 48.22053 | 17.78649 | 178° | 16km/h | 28351m | 4.7m/s | -47.6°C | 3.2% | 0hPa | 2.5V | 00:00:00 | 00:00:00 | 00:00:00 | |
| HA6NAB-11 | 2026-09-05 01:10:08 | 48.22053 | 17.78649 | 178° | 16km/h | 28351m | 4.8m/s | -47.6°C | 0.8% | 0hPa | 2.5V | 00:00:00 | 00:00:00 | 00:00:00 | |
| OE3MUC-15 | 2026-09-05 01:10:05 | 48.22067 | 17.78658 | 232° | 11km/h | 28327m | 6.2m/s | -47.5°C | 3.1% | 0hPa | 2.5V | 00:00:00 | 00:00:00 | 00:00:00 | |
| OE5MMP-10 | 2026-09-05 01:10:04 | 48.22069 | 17.78663 | 234° | 9km/h | 28320m | 5.2m/s | -47.5°C | 3.1% | 0hPa | 2.5V | 00:00:00 | 01:47:21 | 00:00:00 | |
| HA6NAB-11 | 2026-09-05 01:10:02 | 48.22071 | 17.78666 | 221° | 9km/h | 28314m | 7.2m/s | -47.6°C | 0.8% | 0hPa | 2.5V | 00:00:00 | 00:00:00 | 00:00:00 | |
| OE3MUC-15 | 2026-09-05 01:10:01 | 48.22074 | 17.78668 | 193° | 5km/h | 28302m | 4.3m/s | -47.5°C | 3.1% | 0hPa | 2.5V | 00:00:00 | 00:00:00 | 00:00:00 | |
| PETON7-10 | 2026-09-05 01:09:59 | 48.22075 | 17.78671 | 260° | 13km/h | 28289m | 6.7m/s | -47.5°C | 3.1% | 0hPa | 2.4V | 00:00:00 | 00:00:00 | 00:00:00 | |
| OE3MUC-15 | 2026-09-05 01:09:57 | 48.22077 | 17.78677 | 220° | 15km/h | 28278m | 5.1m/s | -47.5°C | 3.1% | 0hPa | 2.4V | 00:00:00 | 00:00:00 | 00:00:00 | |
| OE5DXL-15 | 2026-09-05 01:09:56 | 48.22080 | 17.78679 | 195° | 13km/h | 28271m | 7.8m/s | -47.6°C | 3.1% | 0hPa | 2.4V | 00:00:00 | 00:00:00 | 00:00:00 | |
| OE5MMP-10 | 2026-09-05 01:09:54 | 48.22088 | 17.78680 | 184° | 13km/h | 28258m | 5.5m/s | -47.6°C | 3.1% | 0hPa | 2.4V | 00:00:00 | 01:47:11 | 00:00:00 | |
| OE3MUC-15 | 2026-09-05 01:09:53 | 48.22093 | 17.78681 | 190° | 18km/h | 28252m | 6.1m/s | -47.6°C | 3.1% | 0hPa | 2.4V | 00:00:00 | 00:00:00 | 00:00:00 | |
| OE5DRO-10 | 2026-09-05 01:09:52 | 48.22098 | 17.78683 | 206° | 15km/h | 28246m | 6.8m/s | -47.6°C | 3.2% | 0hPa | 2.4V | 00:00:00 | 00:00:00 | 00:00:00 | |
| HA6NAB-11 | 2026-09-05 01:09:51 | 48.22098 | 17.78683 | 206° | 20km/h | 28246m | 6.9m/s | -47.6°C | 0.8% | 0hPa | 2.5V | 00:00:00 | 00:00:00 | 00:00:00 | |
| OE3MUC-15 | 2026-09-05 01:09:49 | 48.22108 | 17.78693 | 213° | 9km/h | 28228m | 5.2m/s | -47.6°C | 3.2% | 0hPa | 2.5V | 00:00:00 | 00:00:00 | 08:30:00 | |
| S52SK | 2026-09-05 01:09:48 | 48.22108 | 17.78693 | 213° | 11km/h | 28228m | 5.2m/s | -47.6°C | 0.8% | 0hPa | 2.4V | 00:00:00 | 00:00:00 | 00:00:00 | |
| HA6NAB-11 | 2026-09-05 01:09:45 | 48.22114 | 17.78691 | 125° | 11km/h | 28210m | 5.1m/s | -47.7°C | 0.8% | 0hPa | 2.4V | 00:00:00 | 00:00:00 | 00:00:00 | |
| PETON7-10 | 2026-09-05 01:09:44 | 48.22116 | 17.78686 | 111° | 16km/h | 28196m | 7.0m/s | -47.7°C | 3.2% | 0hPa | 2.4V | 00:00:00 | 01:47:01 | 00:00:00 | |
| PG1ADW-2 | 2026-09-05 01:09:42 | 48.22117 | 17.78684 | 151° | 15km/h | 28185m | 5.3m/s | -47.7°C | 3.2% | 0hPa | 2.4V | 00:00:00 | 00:00:00 | 08:30:00 | |
| ATIDSZ-14 | 2026-09-05 01:09:38 | 48.22127 | 17.78681 | 182° | 20km/h | 28166m | 4.8m/s | -47.7°C | 0.8% | 0hPa | 2.4V | 00:00:00 | 00:00:00 | 00:00:00 | |
| OE5MMP-10 | 2026-09-05 01:09:34 | 48.22154 | 17.78687 | 163° | 11km/h | 28134m | 6.4m/s | -47.6°C | 3.2% | 0hPa | 2.4V | 00:00:00 | 01:46:51 | 00:00:00 | |
| OE5DRO-10 | 2026-09-05 01:09:33 | 48.22159 | 17.78684 | 146° | 11km/h | 28128m | 5.1m/s | -47.6°C | 3.2% | 0hPa | 2.4V | 00:00:00 | 00:00:00 | 00:00:00 | |
| PETON7-10 | 2026-09-05 01:09:29 | 48.22168 | 17.78672 | 202° | 9km/h | 28105m | 6.1m/s | -47.6°C | 3.2% | 0hPa | 2.4V | 00:00:00 | 00:00:00 | 00:00:00 | |
| OE5DXL-15 | 2026-09-05 01:09:26 | 48.22172 | 17.78673 | 182° | 13km/h | 28085m | 5.8m/s | -47.6°C | 3.2% | 0hPa | 2.4V | 00:00:00 | 00:00:00 | 00:00:00 | |
| OE5MMP-10 | 2026-09-05 01:09:24 | 48.22178 | 17.78676 | 204° | 11km/h | 28073m | 7.1m/s | -47.6°C | 3.1% | 0hPa | 2.4V | 00:00:00 | 01:46:41 | 00:00:00 | |
| PG1ADW-2 | 2026-09-05 01:09:23 | 48.22185 | 17.78682 | 201° | 13km/h | 28060m | 4.5m/s | -47.5°C | 3.2% | 0hPa | 2.4V | 00:00:00 | 00:00:00 | 00:00:00 | |
| OE3MUC-15 | 2026-09-05 01:09:20 | 48.22191 | 17.78681 | 147° | 11km/h | 28048m | 6.3m/s | -47.5°C | 3.1% | 0hPa | 2.4V | 00:00:00 | 00:00:00 | 00:00:00 | |
| GYPAP8-17 | 2026-09-05 01:09:18 | 48.22194 | 17.78674 | 105° | 9km/h | 28038m | 6.7m/s | -47.6°C | 0.8% | 0hPa | 2.4V | 00:00:00 | 00:00:00 | 00:00:00 | |
| OE3MUC-15 | 2026-09-05 01:09:16 | 48.22195 | 17.78668 | 102° | 9km/h | 28024m | 5.1m/s | -47.5°C | 3.1% | 0hPa | 2.4V | 00:00:00 | 00:00:00 | 00:00:00 | |
| OE5MMP-10 | 2026-09-05 01:09:14 | 48.22197 | 17.78663 | 129° | 15km/h | 28012m | 6.8m/s | -47.5°C | 3.1% | 0hPa | 2.4V | 00:00:00 | 01:46:31 | 00:00:00 | |
| OE3MUC-15 | 2026-09-05 01:09:12 | 48.22202 | 17.78660 | 189° | 18km/h | 28001m | 5.0m/s | -47.5°C | 3.1% | 0hPa | 2.4V | 00:00:00 | 00:00:00 | 08:30:00 | |
| SP9KGR-15 | 2026-09-05 01:09:10 | 48.22206 | 17.78662 | 210° | 16km/h | 27994m | 7.5m/s | -47.6°C | 0.8% | 0hPa | 2.5V | 00:00:00 | 00:00:00 | 00:00:00 | |
| HA6NAB-11 | 2026-09-05 01:09:09 | 48.22210 | 17.78666 | 219° | 20km/h | 27988m | 5.7m/s | -47.6°C | 0.8% | 0hPa | 2.5V | 00:00:00 | 00:00:00 | 00:00:00 | |
| OE3MUC-15 | 2026-09-05 01:09:08 | 48.22218 | 17.78675 | 205° | 15km/h | 27978m | 6.0m/s | -47.6°C | 3.1% | 0hPa | 2.5V | 00:00:00 | 00:00:00 | 00:00:00 | |
| OE3MUC-15 | 2026-09-05 01:09:04 | 48.22229 | 17.78668 | 113° | 5km/h | 27954m | 6.2m/s | -47.6°C | 3.1% | 0hPa | 2.5V | 00:00:00 | 00:00:00 | 00:00:00 | |
| HA6NAB-11 | 2026-09-05 01:09:03 | 48.22229 | 17.78668 | 114° | 11km/h | 27954m | 6.2m/s | -47.6°C | 0.8% | 0hPa | 2.5V | 00:00:00 | 00:00:00 | 00:00:00 | |
| PG1ADW-2 | 2026-09-05 01:09:02 | 48.22230 | 17.78664 | 102° | 18km/h | 27943m | 4.6m/s | -47.6°C | 3.1% | 0hPa | 2.5V | 00:00:00 | 00:00:00 | 00:00:00 | |
| OE3MUC-15 | 2026-09-05 01:09:00 | 48.22232 | 17.78662 | 175° | 20km/h | 27932m | 5.8m/s | -47.6°C | 3.1% | 0hPa | 2.5V | 00:00:00 | 00:00:00 | 00:00:00 | |
| PETON7-10 | 2026-09-05 01:08:59 | 48.22235 | 17.78662 | 172° | 18km/h | 27926m | 6.7m/s | 0°C | 0% | 0hPa | 2.5V | 00:00:00 | 01:46:16 | 00:00:00 | |
| ATIDSZ-14 | 2026-09-05 01:08:57 | 48.22240 | 17.78661 | 179° | 22km/h | 27920m | 6.0m/s | -47.6°C | 0.8% | 0hPa | 2.5V | 00:00:00 | 00:00:00 | 00:00:00 | |
| OE3MUC-15 | 2026-09-05 01:08:56 | 48.22254 | 17.78663 | 197° | 24km/h | 27908m | 6.3m/s | -47.5°C | 3.1% | 0hPa | 2.5V | 00:00:00 | 00:00:00 | 00:00:00 | |
| OE5MMP-10 | 2026-09-05 01:08:54 | 48.22266 | 17.78671 | 210° | 16km/h | 27896m | 4.4m/s | -47.6°C | 3.1% | 0hPa | 2.5V | 00:00:00 | 01:46:11 | 00:00:00 | |
| SP9KGR-15 | 2026-09-05 01:08:53 | 48.22266 | 17.78671 | 210° | 22km/h | 27896m | 4.5m/s | -47.6°C | 0.8% | 0hPa | 2.5V | 00:00:00 | 00:00:00 | 00:00:00 | |
| OE3MUC-15 | 2026-09-05 01:08:52 | 48.22274 | 17.78675 | 181° | 16km/h | 27886m | 6.8m/s | -47.6°C | 3.1% | 0hPa | 2.5V | 00:00:00 | 00:00:00 | 00:00:00 | |
| OE3MUC-15 | 2026-09-05 01:08:48 | 48.22282 | 17.78656 | 98° | 15km/h | 27862m | 6.0m/s | -47.7°C | 3.1% | 0hPa | 2.5V | 00:00:00 | 00:00:00 | 00:00:00 | |
| HA6NAB-11 | 2026-09-05 01:08:46 | 48.22283 | 17.78651 | 105° | 13km/h | 27856m | 5.1m/s | -47.7°C | 0.8% | 0hPa | 2.4V | 00:00:00 | 00:00:00 | 00:00:00 | |
| PETON7-10 | 2026-09-05 01:08:44 | 48.22293 | 17.78642 | 165° | 26km/h | 27840m | 6.7m/s | -47.7°C | 3.2% | 0hPa | 2.4V | 00:00:00 | 00:00:00 | 00:00:00 | |
| PG1ADW-2 | 2026-09-05 01:08:42 | 48.22307 | 17.78637 | 175° | 29km/h | 27827m | 5.4m/s | -47.8°C | 3.2% | 0hPa | 2.5V | 00:00:00 | 01:45:59 | 00:00:00 | |
| OE3MUC-15 | 2026-09-05 01:08:40 | 48.22321 | 17.78637 | 184° | 26km/h | 27815m | 5.0m/s | -47.9°C | 3.2% | 0hPa | 2.5V | 00:00:00 | 00:00:00 | 00:00:00 | |
| SP9KGR-15 | 2026-09-05 01:08:38 | 48.22328 | 17.78637 | 181° | 24km/h | 27810m | 3.4m/s | -48.0°C | 0.8% | 0hPa | 2.5V | 00:00:00 | 00:00:00 | 00:00:00 | |
| ATIDSZ-14 | 2026-09-05 01:08:37 | 48.22334 | 17.78636 | 170° | 26km/h | 27805m | 6.2m/s | -48.0°C | 0.8% | 0hPa | 2.5V | 00:00:00 | 00:00:00 | 00:00:00 | |
| OE3MUC-15 | 2026-09-05 01:08:36 | 48.22347 | 17.78629 | 150° | 22km/h | 27792m | 5.6m/s | -48.0°C | 3.2% | 0hPa | 2.5V | 00:00:00 | 00:00:00 | 08:30:00 | |
| OE5MMP-10 | 2026-09-05 01:08:34 | 48.22356 | 17.78618 | 135° | 29km/h | 27779m | 6.7m/s | -48.0°C | 3.2% | 0hPa | 2.4V | 00:00:00 | 01:45:51 | 00:00:00 | |
| OE3MUC-15 | 2026-09-05 01:08:32 | 48.22363 | 17.78607 | 137° | 29km/h | 27768m | 3.9m/s | -48.0°C | 3.2% | 0hPa | 2.4V | 00:00:00 | 00:00:00 | 00:00:00 | |
| PETON7-10 | 2026-09-05 01:08:29 | 48.22381 | 17.78589 | 153° | 35km/h | 27751m | 4.7m/s | -48.1°C | 3.3% | 0hPa | 2.4V | 00:00:00 | 00:00:00 | 00:00:00 | |
| OE3MUC-15 | 2026-09-05 01:08:28 | 48.22389 | 17.78583 | 158° | 37km/h | 27745m | 6.4m/s | -48.1°C | 3.2% | 0hPa | 2.4V | 00:00:00 | 00:00:00 | 00:00:00 | |
| OE5DXL-15 | 2026-09-05 01:08:26 | 48.22405 | 17.78575 | 165° | 33km/h | 27733m | 5.3m/s | -48.1°C | 3.3% | 0hPa | 2.4V | 00:00:00 | 00:00:00 | 00:00:00 | |
| OE5MMP-10 | 2026-09-05 01:08:24 | 48.22423 | 17.78566 | 159° | 37km/h | 27721m | 6.9m/s | -48.1°C | 3.3% | 0hPa | 2.4V | 00:00:00 | 01:45:41 | 00:00:00 | |
| OE3MUC-15 | 2026-09-05 01:08:23 | 48.22433 | 17.78560 | 156° | 38km/h | 27715m | 5.3m/s | -48.1°C | 3.2% | 0hPa | 2.4V | 00:00:00 | 00:00:00 | 00:00:00 | |
| PG1ADW-2 | 2026-09-05 01:08:22 | 48.22442 | 17.78553 | 153° | 33km/h | 27710m | 3.1m/s | -48.1°C | 3.2% | 0hPa | 2.4V | 00:00:00 | 00:00:00 | 00:00:00 | |
| SP9KGR-15 | 2026-09-05 01:08:19 | 48.22472 | 17.78528 | 148° | 31km/h | 27687m | 6.0m/s | -48.0°C | 0.8% | 0hPa | 2.4V | 00:00:00 | 00:00:00 | 00:00:00 | |
| ATIDSZ-14 | 2026-09-05 01:08:16 | 48.22479 | 17.78521 | 145° | 33km/h | 27681m | 6.5m/s | -48.0°C | 0.8% | 0hPa | 2.4V | 00:00:00 | 00:00:00 | 00:00:00 | |
| OE3MUC-15 | 2026-09-05 01:08:15 | 48.22493 | 17.78505 | 140° | 29km/h | 27669m | 5.4m/s | -47.9°C | 3.1% | 0hPa | 2.4V | 00:00:00 | 00:00:00 | 00:00:00 | |
| PETON7-10 | 2026-09-05 01:08:14 | 48.22499 | 17.78497 | 139° | 31km/h | 27662m | 6.9m/s | -47.8°C | 3.1% | 0hPa | 2.4V | 00:00:00 | 01:45:31 | 00:00:00 | |
| OE3MUC-15 | 2026-09-05 01:08:11 | 48.22515 | 17.78475 | 140° | 37km/h | 27645m | 6.5m/s | -47.8°C | 3.1% | 0hPa | 2.4V | 00:00:00 | 00:00:00 | 00:00:00 | |
| S52SK | 2026-09-05 01:08:08 | 48.22530 | 17.78458 | 150° | 40km/h | 27633m | 4.4m/s | -47.9°C | 0.8% | 0hPa | 2.4V | 00:00:00 | 00:00:00 | 00:00:00 | |
| OE3MUC-15 | 2026-09-05 01:08:07 | 48.22546 | 17.78445 | 153° | 29km/h | 27621m | 6.9m/s | -47.9°C | 3.2% | 0hPa | 2.4V | 00:00:00 | 00:00:00 | 00:00:00 | |
| OE3OSB-13 | 2026-09-05 01:08:06 | 48.22558 | 17.78435 | 147° | 26km/h | 27609m | 4.7m/s | -48.0°C | 0.8% | -1.0hPa | 2.4V | 00:00:00 | 00:00:00 | 00:00:00 | |
| OE5MMP-10 | 2026-09-05 01:08:04 | 48.22564 | 17.78429 | 142° | 31km/h | 27604m | 6.4m/s | -47.9°C | 3.2% | 0hPa | 2.4V | 00:00:00 | 01:45:21 | 00:00:00 | |
| PG1ADW-2 | 2026-09-05 01:08:02 | 48.22575 | 17.78412 | 125° | 26km/h | 27593m | 4.1m/s | -48.0°C | 3.2% | 0hPa | 2.4V | 00:00:00 | 00:00:00 | 00:00:00 | |
| SP9KGR-15 | 2026-09-05 01:08:00 | 48.22579 | 17.78401 | 119° | 31km/h | 27587m | 6.8m/s | -48.1°C | 0.8% | 0hPa | 2.4V | 00:00:00 | 00:00:00 | 00:00:00 | |
| PETON7-10 | 2026-09-05 01:07:59 | 48.22585 | 17.78381 | 114° | 26km/h | 27575m | 4.5m/s | -48.1°C | 3.2% | 0hPa | 2.4V | 00:00:00 | 00:00:00 | 08:30:00 | |
| OE5DXL-15 | 2026-09-05 01:07:56 | 48.22600 | 17.78352 | 140° | 18km/h | 27556m | 5.0m/s | -48.2°C | 3.2% | 0hPa | 2.4V | 00:00:00 | 00:00:00 | 00:00:00 | |
| OE3MUC-15 | 2026-09-05 01:07:55 | 48.22607 | 17.78344 | 143° | 26km/h | 27551m | 4.5m/s | -48.2°C | 3.3% | 0hPa | 2.4V | 00:00:00 | 01:45:12 | 00:00:00 | |
| OE5MMP-10 | 2026-09-05 01:07:54 | 48.22613 | 17.78337 | 144° | 22km/h | 27546m | 6.9m/s | -48.2°C | 3.2% | 0hPa | 2.4V | 00:00:00 | 01:45:11 | 00:00:00 | |
| OE3MUC-15 | 2026-09-05 01:07:51 | 48.22627 | 17.78319 | 133° | 26km/h | 27528m | 6.8m/s | -48.2°C | 3.2% | 0hPa | 2.4V | 00:00:00 | 00:00:00 | 00:00:00 | |
| OE5DRO-10 | 2026-09-05 01:07:48 | 48.22637 | 17.78295 | 112° | 15km/h | 27510m | 5.9m/s | -48.2°C | 3.2% | 0hPa | 2.4V | 00:00:00 | 00:00:00 | 00:00:00 | |
| PETON7-10 | 2026-09-05 01:07:44 | 48.22642 | 17.78268 | 121° | 13km/h | 27487m | 6.7m/s | -48.3°C | 3.2% | 0hPa | 2.4V | 00:00:00 | 00:00:00 | 00:00:00 | |
| OE3MUC-15 | 2026-09-05 01:07:43 | 48.22645 | 17.78262 | 134° | 22km/h | 27480m | 6.1m/s | -48.3°C | 3.2% | 0hPa | 2.4V | 00:00:00 | 00:00:00 | 00:00:00 | |
| PG1ADW-2 | 2026-09-05 01:07:42 | 48.22650 | 17.78256 | 144° | 11km/h | 27475m | 4.3m/s | -48.3°C | 3.2% | 0hPa | 2.4V | 00:00:00 | 00:00:00 | 00:00:00 | |
| SP9KGR-15 | 2026-09-05 01:07:41 | 48.22650 | 17.78256 | 144° | 26km/h | 27475m | 4.4m/s | -48.4°C | 0.8% | 0hPa | 2.5V | 00:00:00 | 00:00:00 | 00:00:00 | |
| ATIDSZ-14 | 2026-09-05 01:07:35 | 48.22672 | 17.78242 | 153° | 11km/h | 27440m | 6.2m/s | -48.4°C | 0.8% | 0hPa | 2.5V | 00:00:00 | 00:00:00 | 00:00:00 | |
| OE5MMP-10 | 2026-09-05 01:07:34 | 48.22676 | 17.78236 | 128° | 7km/h | 27430m | 4.0m/s | -48.4°C | 3.2% | 0hPa | 2.5V | 00:00:00 | 01:44:51 | 00:00:00 | |
| GYPAP8-17 | 2026-09-05 01:07:30 | 48.22676 | 17.78231 | 33° | 5km/h | 27411m | 5.4m/s | -48.5°C | 0.8% | 0hPa | 2.5V | 00:00:00 | 00:00:00 | 00:00:00 | |
| PETON7-10 | 2026-09-05 01:07:29 | 48.22675 | 17.78227 | 107° | 5km/h | 27399m | 6.8m/s | -48.5°C | 3.2% | 0hPa | 2.5V | 00:00:00 | 01:44:46 | 00:00:00 | |
| OE5DXL-15 | 2026-09-05 01:07:26 | 48.22678 | 17.78217 | 107° | 5km/h | 27384m | 5.7m/s | -48.6°C | 3.2% | 0hPa | 2.5V | 00:00:00 | 00:00:00 | 00:00:00 | |
| HA6NAB-11 | 2026-09-05 01:07:25 | 48.22678 | 17.78217 | 108° | 7km/h | 27384m | 5.8m/s | -48.6°C | 0.8% | 0hPa | 2.5V | 00:00:00 | 00:00:00 | 00:00:00 | |
| OE5MMP-10 | 2026-09-05 01:07:24 | 48.22677 | 17.78215 | 5° | 5km/h | 27371m | 5.1m/s | -48.6°C | 3.2% | 0hPa | 2.5V | 00:00:00 | 01:44:41 | 00:00:00 | |
| PG1ADW-2 | 2026-09-05 01:07:22 | 48.22674 | 17.78215 | 5° | 5km/h | 27360m | 6.2m/s | -48.7°C | 3.2% | 0hPa | 2.5V | 00:00:00 | 01:44:39 | 00:00:00 | |
| OE3MUC-15 | 2026-09-05 01:07:19 | 48.22673 | 17.78212 | 118° | 4km/h | 27343m | 4.7m/s | -49.0°C | 3.3% | 0hPa | 2.5V | 00:00:00 | 00:00:00 | 00:00:00 | |
| OM5KV | 2026-09-05 01:07:18 | 48.22673 | 17.78212 | 118° | 4km/h | 27343m | 4.8m/s | -49.0°C | 0.9% | 0hPa | 2.5V | 00:00:00 | 00:00:00 | 00:00:00 | |
| OE3MUC-15 | 2026-09-05 01:07:16 | 48.22671 | 17.78216 | 310° | 2km/h | 27319m | 6.0m/s | -49.2°C | 3.4% | 0hPa | 2.5V | 00:00:00 | 00:00:00 | 00:00:00 | |
| PETON7-10 | 2026-09-05 01:07:14 | 48.22670 | 17.78217 | 296° | 5km/h | 27313m | 6.8m/s | -49.2°C | 3.4% | 0hPa | 2.5V | 00:00:00 | 00:00:00 | 00:00:00 | |
| HA6NAB-11 | 2026-09-05 01:07:13 | 48.22670 | 17.78217 | 296° | 2km/h | 27313m | 6.8m/s | -49.2°C | 0.9% | 0hPa | 2.4V | 00:00:00 | 00:00:00 | 00:00:00 | |
| OE3MUC-15 | 2026-09-05 01:07:11 | 48.22669 | 17.78217 | 348° | 4km/h | 27295m | 6.3m/s | -49.2°C | 3.4% | 0hPa | 2.4V | 00:00:00 | 00:00:00 | 00:00:00 | |
| OE5DRO-10 | 2026-09-05 01:07:10 | 48.22668 | 17.78218 | 343° | 11km/h | 27289m | 4.6m/s | -49.2°C | 3.4% | 0hPa | 2.4V | 00:00:00 | 00:00:00 | 00:00:00 | |
| OE3MUC-15 | 2026-09-05 01:07:07 | 48.22669 | 17.78216 | 159° | 9km/h | 27270m | 6.1m/s | -49.1°C | 3.4% | 0hPa | 2.4V | 00:00:00 | 00:00:00 | 00:00:00 | |
| OE5MMP-10 | 2026-09-05 01:07:04 | 48.22677 | 17.78215 | 201° | 7km/h | 27253m | 4.8m/s | -49.1°C | 3.4% | 0hPa | 2.4V | 00:00:00 | 01:44:21 | 00:00:00 | |
| OE3MUC-15 | 2026-09-05 01:07:03 | 48.22678 | 17.78216 | 205° | 7km/h | 27248m | 4.0m/s | -49.1°C | 3.4% | 0hPa | 2.4V | 00:00:00 | 00:00:00 | 00:00:00 | |
| PG1ADW-2 | 2026-09-05 01:07:02 | 48.22680 | 17.78217 | 178° | 13km/h | 27243m | 6.3m/s | -49.1°C | 3.4% | 0hPa | 2.4V | 00:00:00 | 00:00:00 | 00:00:00 | |
| HA6NAB-11 | 2026-09-05 01:07:01 | 48.22680 | 17.78217 | 178° | 7km/h | 27243m | 6.3m/s | -49.1°C | 0.9% | 0hPa | 2.4V | 00:00:00 | 00:00:00 | 00:00:00 | |
| OE3MUC-15 | 2026-09-05 01:06:59 | 48.22684 | 17.78212 | 86° | 7km/h | 27225m | 5.5m/s | -49.1°C | 3.3% | 0hPa | 2.4V | 00:00:00 | 00:00:00 | 00:00:00 | |
| OE5DXL-15 | 2026-09-05 01:06:56 | 48.22680 | 17.78206 | 49° | 20km/h | 27208m | 4.2m/s | -49.1°C | 3.3% | 0hPa | 2.5V | 00:00:00 | 00:00:00 | 00:00:00 | |
| OE3MUC-15 | 2026-09-05 01:06:55 | 48.22680 | 17.78204 | 90° | 15km/h | 27203m | 5.5m/s | -49.1°C | 3.4% | 0hPa | 2.5V | 00:00:00 | 00:00:00 | 00:00:00 | |
| OE5MMP-10 | 2026-09-05 01:06:54 | 48.22681 | 17.78201 | 127° | 16km/h | 27197m | 6.7m/s | -49.1°C | 3.3% | 0hPa | 2.5V | 00:00:00 | 01:44:11 | 00:00:00 | |
| OE3JTB-15 | 2026-09-05 01:06:53 | 48.22683 | 17.78197 | 145° | 22km/h | 27190m | 5.4m/s | -49.1°C | 3.3% | 0hPa | 2.5V | 00:00:00 | 00:00:00 | 08:30:00 | |
| OE3MUC-15 | 2026-09-05 01:06:51 | 48.22692 | 17.78189 | 153° | 15km/h | 27180m | 5.4m/s | -49.1°C | 3.4% | 0hPa | 2.4V | 00:00:00 | 00:00:00 | 00:00:00 | |
| OE5DRO-10 | 2026-09-05 01:06:50 | 48.22696 | 17.78186 | 153° | 24km/h | 27174m | 6.0m/s | -49.2°C | 3.4% | 0hPa | 2.4V | 00:00:00 | 00:00:00 | 00:00:00 | |
| OE3MUC-15 | 2026-09-05 01:06:47 | 48.22701 | 17.78177 | 101° | 16km/h | 27159m | 5.4m/s | -49.3°C | 3.3% | 0hPa | 2.4V | 00:00:00 | 00:00:00 | 08:30:00 | |
| OM5KV | 2026-09-05 01:06:46 | 48.22701 | 17.78177 | 102° | 13km/h | 27159m | 5.4m/s | -49.3°C | 0.9% | 0hPa | 2.5V | 00:00:00 | 00:00:00 | 00:00:00 | |
| OE5MMP-10 | 2026-09-05 01:06:44 | 48.22704 | 17.78158 | 108° | 26km/h | 27141m | 5.3m/s | -49.4°C | 3.4% | 0hPa | 2.5V | 00:00:00 | 01:44:01 | 00:00:00 | |
| OE3MUC-15 | 2026-09-05 01:06:43 | 48.22706 | 17.78152 | 115° | 20km/h | 27135m | 6.9m/s | -49.4°C | 3.4% | 0hPa | 2.4V | 00:00:00 | 00:00:00 | 00:00:00 | |
| PG1ADW-2 | 2026-09-05 01:06:42 | 48.22712 | 17.78142 | 141° | 24km/h | 27124m | 4.0m/s | -49.4°C | 3.4% | 0hPa | 2.4V | 00:00:00 | 00:00:00 | 08:30:00 | |
| OE3MUC-15 | 2026-09-05 01:06:39 | 48.22722 | 17.78130 | 144° | 31km/h | 27111m | 6.6m/s | -49.4°C | 3.4% | 0hPa | 2.5V | 00:00:00 | 00:00:00 | 00:00:00 | |
| S52SK | 2026-09-05 01:06:36 | 48.22735 | 17.78115 | 148° | 31km/h | 27099m | 6.5m/s | -49.4°C | 0.9% | 0hPa | 2.5V | 00:00:00 | 00:00:00 | 00:00:00 | |
| OE3MUC-15 | 2026-09-05 01:06:35 | 48.22747 | 17.78103 | 144° | 26km/h | 27087m | 5.0m/s | -49.4°C | 3.4% | 0hPa | 2.5V | 00:00:00 | 00:00:00 | 00:00:00 | |
| OE5MMP-10 | 2026-09-05 01:06:34 | 48.22751 | 17.78097 | 131° | 20km/h | 27082m | 5.3m/s | -49.3°C | 3.4% | 0hPa | 2.4V | 00:00:00 | 01:43:51 | 00:00:00 | |
| OE3OSB-13 | 2026-09-05 01:06:33 | 48.22758 | 17.78081 | 111° | 26km/h | 27069m | 5.7m/s | -49.3°C | 0.8% | -1.0hPa | 2.4V | 00:00:00 | 00:00:00 | 00:00:00 | |
| PETON7-10 | 2026-09-05 01:06:29 | 48.22763 | 17.78057 | 107° | 20km/h | 27053m | 6.2m/s | -49.2°C | 3.4% | 0hPa | 2.4V | 00:00:00 | 00:00:00 | 00:00:00 | |
| OE3MUC-15 | 2026-09-05 01:06:27 | 48.22766 | 17.78048 | 126° | 20km/h | 27041m | 5.6m/s | -49.2°C | 3.4% | 0hPa | 2.4V | 00:00:00 | 00:00:00 | 00:00:00 | |
| OE5DXL-15 | 2026-09-05 01:06:26 | 48.22769 | 17.78042 | 130° | 16km/h | 27035m | 6.7m/s | -49.2°C | 3.4% | 0hPa | 2.4V | 00:00:00 | 00:00:00 | 00:00:00 | |
| OE5MMP-10 | 2026-09-05 01:06:24 | 48.22776 | 17.78031 | 138° | 20km/h | 27024m | 4.0m/s | -49.2°C | 3.4% | 0hPa | 2.4V | 00:00:00 | 01:43:41 | 00:00:00 | |
| OE3MUC-15 | 2026-09-05 01:06:23 | 48.22780 | 17.78025 | 140° | 18km/h | 27018m | 6.8m/s | -49.2°C | 3.3% | 0hPa | 2.4V | 00:00:00 | 00:00:00 | 00:00:00 | |
| PG1ADW-2 | 2026-09-05 01:06:22 | 48.22783 | 17.78021 | 132° | 16km/h | 27012m | 5.7m/s | -49.2°C | 3.4% | 0hPa | 2.4V | 00:00:00 | 00:00:00 | 00:00:00 | |
| OM5KV | 2026-09-05 01:06:21 | 48.22783 | 17.78021 | 133° | 16km/h | 27012m | 5.7m/s | -49.2°C | 0.9% | 0hPa | 2.4V | 00:00:00 | 00:00:00 | 00:00:00 | |
| OE3MUC-15 | 2026-09-05 01:06:19 | 48.22787 | 17.78001 | 90° | 24km/h | 26995m | 6.5m/s | -49.2°C | 3.3% | 0hPa | 2.4V | 00:00:00 | 00:00:00 | 00:00:00 | |
| OM5KV | 2026-09-05 01:06:17 | 48.22787 | 17.77991 | 84° | 27km/h | 26989m | 4.7m/s | -49.2°C | 0.9% | 0hPa | 2.4V | 00:00:00 | 00:00:00 | 00:00:00 | |
| OM5KV | 2026-09-05 01:06:16 | 48.22786 | 17.77982 | 83° | 26km/h | 26984m | 5.0m/s | -49.2°C | 0.9% | 0hPa | 2.4V | 00:00:00 | 00:00:00 | 00:00:00 | |
| OE3MUC-15 | 2026-09-05 01:06:15 | 48.22784 | 17.77967 | 84° | 11km/h | 26971m | 6.1m/s | -49.1°C | 3.3% | 0hPa | 2.4V | 00:00:00 | 00:00:00 | 00:00:00 | |
| PETON7-10 | 2026-09-05 01:06:14 | 48.22784 | 17.77963 | 105° | 13km/h | 26965m | 5.3m/s | -49.1°C | 3.3% | 0hPa | 2.4V | 00:00:00 | 00:00:00 | 00:00:00 | |
| OE3MUC-15 | 2026-09-05 01:06:11 | 48.22790 | 17.77953 | 137° | 13km/h | 26947m | 5.2m/s | -49.1°C | 3.3% | 0hPa | 2.4V | 00:00:00 | 00:00:00 | 08:30:00 | |
| OE3MUC-15 | 2026-09-05 01:06:07 | 48.22795 | 17.77938 | 52° | 18km/h | 26924m | 5.7m/s | -49.1°C | 3.3% | 0hPa | 2.4V | 00:00:00 | 00:00:00 | 00:00:00 | |
| SP9KGR-15 | 2026-09-05 01:06:05 | 48.22792 | 17.77934 | 52° | 16km/h | 26918m | 4.6m/s | -49.2°C | 0.9% | 0hPa | 2.4V | 00:00:00 | 00:00:00 | 00:00:00 | |
| OE5MMP-10 | 2026-09-05 01:06:04 | 48.22787 | 17.77921 | 65° | 7km/h | 26906m | 5.5m/s | -49.2°C | 3.3% | 0hPa | 2.4V | 00:00:00 | 01:43:21 | 00:00:00 | |
| OE3MUC-15 | 2026-09-05 01:06:03 | 48.22785 | 17.77914 | 69° | 9km/h | 26901m | 4.4m/s | -49.3°C | 3.3% | 0hPa | 2.4V | 00:00:00 | 00:00:00 | 00:00:00 | |
| PG1ADW-2 | 2026-09-05 01:06:02 | 48.22783 | 17.77909 | 64° | 7km/h | 26896m | 6.7m/s | -49.3°C | 3.3% | 0hPa | 2.4V | 00:00:00 | 01:43:19 | 00:00:00 | |
| OM5KV | 2026-09-05 01:06:00 | 48.22782 | 17.77905 | 67° | 7km/h | 26889m | 6.7m/s | -49.4°C | 0.9% | 0hPa | 2.4V | 00:00:00 | 00:00:00 | 00:00:00 | |
| PETON7-10 | 2026-09-05 01:05:59 | 48.22782 | 17.77903 | 171° | 7km/h | 26876m | 5.9m/s | -49.5°C | 3.4% | 0hPa | 2.4V | 00:00:00 | 01:43:16 | 00:00:00 | |
| OE5DXL-15 | 2026-09-05 01:05:56 | 48.22787 | 17.77901 | 177° | 7km/h | 26858m | 4.0m/s | -49.6°C | 3.4% | 0hPa | 2.4V | 00:00:00 | 00:00:00 | 08:30:00 | |
| OE3MUC-15 | 2026-09-05 01:05:55 | 48.22788 | 17.77902 | 217° | 4km/h | 26853m | 6.1m/s | -49.6°C | 3.4% | 0hPa | 2.4V | 00:00:00 | 00:00:00 | 00:00:00 | |
| OE5MMP-10 | 2026-09-05 01:05:54 | 48.22789 | 17.77903 | 251° | 7km/h | 26847m | 5.2m/s | -49.7°C | 3.5% | 0hPa | 2.4V | 00:00:00 | 01:43:11 | 00:00:00 | |
| ATIDSZ-14 | 2026-09-05 01:05:53 | 48.22789 | 17.77903 | 251° | 4km/h | 26847m | 5.3m/s | -49.7°C | 0.9% | 0hPa | 2.4V | 00:00:00 | 00:00:00 | 00:00:00 | |
| OE3MUC-15 | 2026-09-05 01:05:51 | 48.22787 | 17.77903 | 58° | 11km/h | 26830m | 6.8m/s | -49.7°C | 3.5% | 0hPa | 2.4V | 00:00:00 | 00:00:00 | 00:00:00 | |
| SP9KGR-15 | 2026-09-05 01:05:50 | 48.22787 | 17.77903 | 58° | 7km/h | 26830m | 6.9m/s | -49.8°C | 0.9% | 0hPa | 2.4V | 00:00:00 | 00:00:00 | 00:00:00 | |
| OM5KV | 2026-09-05 01:05:49 | 48.22786 | 17.77900 | 70° | 13km/h | 26823m | 6.0m/s | -49.8°C | 0.9% | 0hPa | 2.4V | 00:00:00 | 00:00:00 | 00:00:00 | |
| OM5KV | 2026-09-05 01:05:48 | 48.22785 | 17.77895 | 59° | 13km/h | 26818m | 4.9m/s | -49.8°C | 0.9% | 0hPa | 2.4V | 00:00:00 | 00:00:00 | 00:00:00 | |
| OE3MUC-15 | 2026-09-05 01:05:47 | 48.22781 | 17.77889 | 36° | 7km/h | 26806m | 5.0m/s | -49.7°C | 3.5% | 0hPa | 2.4V | 00:00:00 | 00:00:00 | 00:00:00 | |
| PETON7-10 | 2026-09-05 01:05:44 | 48.22779 | 17.77883 | 112° | 5km/h | 26789m | 6.8m/s | -49.7°C | 3.5% | 0hPa | 2.4V | 00:00:00 | 00:00:00 | 08:30:00 | |
| OM5KV | 2026-09-05 01:05:43 | 48.22779 | 17.77883 | 112° | 7km/h | 26789m | 6.9m/s | -49.8°C | 0.9% | 0hPa | 2.4V | 00:00:00 | 00:00:00 | 00:00:00 | |
| PG1ADW-2 | 2026-09-05 01:05:42 | 48.22781 | 17.77880 | 163° | 5km/h | 26777m | 6.4m/s | -49.7°C | 3.4% | 0hPa | 2.4V | 00:00:00 | 00:00:00 | 00:00:00 | |
| OM5KV | 2026-09-05 01:05:37 | 48.22783 | 17.77881 | 118° | 4km/h | 26754m | 7.1m/s | -49.7°C | 0.9% | 0hPa | 2.4V | 00:00:00 | 00:00:00 | 00:00:00 | |
| OM5KV | 2026-09-05 01:05:36 | 48.22783 | 17.77879 | 94° | 7km/h | 26747m | 5.9m/s | -49.7°C | 0.9% | 0hPa | 2.4V | 00:00:00 | 00:00:00 | 00:00:00 | |
| OM5KV | 2026-09-05 01:05:35 | 48.22783 | 17.77875 | 88° | 11km/h | 26741m | 4.6m/s | -49.7°C | 0.9% | 0hPa | 2.4V | 00:00:00 | 00:00:00 | 00:00:00 | |
| OE5MMP-10 | 2026-09-05 01:05:34 | 48.22782 | 17.77868 | 48° | 5km/h | 26730m | 6.0m/s | -49.7°C | 3.4% | 0hPa | 2.4V | 00:00:00 | 01:42:51 | 00:00:00 | |
| ATIDSZ-14 | 2026-09-05 01:05:33 | 48.22782 | 17.77868 | 48° | 9km/h | 26730m | 6.0m/s | -49.7°C | 0.9% | 0hPa | 2.4V | 00:00:00 | 00:00:00 | 00:00:00 | |
| OE3OSB-13 | 2026-09-05 01:05:31 | 48.22776 | 17.77864 | 63° | 4km/h | 26708m | 6.1m/s | -49.7°C | 0.8% | -1.0hPa | 2.4V | 00:00:00 | 00:00:00 | 00:00:00 | |
| PETON7-10 | 2026-09-05 01:05:29 | 48.22776 | 17.77862 | 89° | 4km/h | 26702m | 4.7m/s | -49.6°C | 3.4% | 0hPa | 2.4V | 00:00:00 | 00:00:00 | 00:00:00 | |
| OE3JTB-15 | 2026-09-05 01:05:26 | 48.22774 | 17.77862 | 328° | 5km/h | 26685m | 4.9m/s | -49.7°C | 3.5% | 0hPa | 2.4V | 00:00:00 | 00:00:00 | 00:00:00 | |
| OE5DXL-15 | 2026-09-05 01:05:25 | 48.22773 | 17.77862 | 330° | 5km/h | 26680m | 5.0m/s | -49.7°C | 3.4% | 0hPa | 2.5V | 00:00:00 | 00:00:00 | 00:00:00 | |
| OE5MMP-10 | 2026-09-05 01:05:24 | 48.22773 | 17.77862 | 194° | 5km/h | 26674m | 6.7m/s | -49.7°C | 3.5% | 0hPa | 2.5V | 00:00:00 | 01:42:41 | 00:00:00 | |
| OE5DRO-10 | 2026-09-05 01:05:23 | 48.22774 | 17.77862 | 163° | 5km/h | 26667m | 5.9m/s | -49.7°C | 3.5% | 0hPa | 2.5V | 00:00:00 | 00:00:00 | 00:00:00 | |
| PG1ADW-2 | 2026-09-05 01:05:22 | 48.22775 | 17.77862 | 184° | 5km/h | 26662m | 4.8m/s | -49.7°C | 3.5% | 0hPa | 2.5V | 00:00:00 | 00:00:00 | 00:00:00 | |
| OE3MUC-15 | 2026-09-05 01:05:19 | 48.22777 | 17.77867 | 267° | 5km/h | 26644m | 4.7m/s | -49.7°C | 3.5% | 0hPa | 2.5V | 00:00:00 | 00:00:00 | 00:00:00 | |
| OE3MUC-15 | 2026-09-05 01:05:15 | 48.22777 | 17.77875 | 303° | 7km/h | 26623m | 6.4m/s | -49.6°C | 3.5% | 0hPa | 2.5V | 00:00:00 | 00:00:00 | 00:00:00 | |
| OE5MMP-10 | 2026-09-05 01:05:14 | 48.22776 | 17.77877 | 308° | 5km/h | 26616m | 7.1m/s | -49.6°C | 3.5% | 0hPa | 2.5V | 00:00:00 | 01:42:31 | 00:00:00 | |
| SQ9EZE-14 | 2026-09-05 01:05:13 | 48.22776 | 17.77877 | 308° | 7km/h | 26616m | 7.2m/s | 0°C | 0% | 0hPa | 2.4V | 00:00:00 | 00:00:00 | 00:00:00 | |
| ATIDSZ-14 | 2026-09-05 01:05:12 | 48.22775 | 17.77880 | 304° | 9km/h | 26610m | 4.9m/s | -49.7°C | 0.9% | 0hPa | 2.4V | 00:00:00 | 00:00:00 | 00:00:00 | |
| OE3MUC-15 | 2026-09-05 01:05:11 | 48.22774 | 17.77884 | 248° | 4km/h | 26599m | 7.3m/s | -49.6°C | 3.5% | 0hPa | 2.4V | 00:00:00 | 00:00:00 | 00:00:00 | |
| OM5KV | 2026-09-05 01:05:09 | 48.22775 | 17.77884 | 167° | 4km/h | 26592m | 5.8m/s | -49.7°C | 0.9% | 0hPa | 2.4V | 00:00:00 | 00:00:00 | 00:00:00 | |
| OE3MUC-15 | 2026-09-05 01:05:07 | 48.22777 | 17.77887 | 261° | 7km/h | 26574m | 5.5m/s | -49.6°C | 3.5% | 0hPa | 2.4V | 00:00:00 | 00:00:00 | 00:00:00 | |
| OM5KV | 2026-09-05 01:05:05 | 48.22777 | 17.77890 | 268° | 9km/h | 26569m | 5.2m/s | -49.7°C | 0.9% | 0hPa | 2.4V | 00:00:00 | 00:00:00 | 00:00:00 | |
| OE5MMP-10 | 2026-09-05 01:05:04 | 48.22778 | 17.77896 | 238° | 7km/h | 26556m | 6.3m/s | -49.5°C | 3.5% | 0hPa | 2.4V | 00:00:00 | 01:42:21 | 00:00:00 | |
| OE3MUC-15 | 2026-09-05 01:05:03 | 48.22779 | 17.77898 | 229° | 9km/h | 26550m | 5.6m/s | -49.5°C | 3.5% | 0hPa | 2.4V | 00:00:00 | 00:00:00 | 00:00:00 | |
| PG1ADW-2 | 2026-09-05 01:05:02 | 48.22780 | 17.77900 | 256° | 9km/h | 26545m | 4.1m/s | -49.5°C | 3.5% | 0hPa | 2.4V | 00:00:00 | 00:00:00 | 00:00:00 | |
| OE3OSB-13 | 2026-09-05 01:05:00 | 48.22778 | 17.77913 | 299° | 15km/h | 26528m | 4.4m/s | -49.5°C | 0.8% | -1.0hPa | 2.4V | 00:00:00 | 00:00:00 | 00:00:00 | |
| OE3MUC-15 | 2026-09-05 01:04:59 | 48.22778 | 17.77913 | 300° | 7km/h | 26528m | 4.3m/s | -49.4°C | 3.4% | 0hPa | 2.4V | 00:00:00 | 01:42:16 | 08:30:00 | |
| OE3JTB-15 | 2026-09-05 01:04:57 | 48.22775 | 17.77919 | 309° | 7km/h | 26516m | 6.7m/s | -49.4°C | 3.4% | 0hPa | 2.5V | 00:00:00 | 00:00:00 | 00:00:00 | |
| OM5KV | 2026-09-05 01:04:56 | 48.22775 | 17.77919 | 310° | 5km/h | 26516m | 6.8m/s | -49.4°C | 0.9% | 0hPa | 2.5V | 00:00:00 | 00:00:00 | 00:00:00 | |
| OE3MUC-15 | 2026-09-05 01:04:55 | 48.22775 | 17.77921 | 312° | 4km/h | 26504m | 6.0m/s | -49.3°C | 3.4% | 0hPa | 2.5V | 00:00:00 | 00:00:00 | 00:00:00 | |
| OE5MMP-10 | 2026-09-05 01:04:54 | 48.22775 | 17.77922 | 292° | 9km/h | 26497m | 6.7m/s | -49.3°C | 3.4% | 0hPa | 2.5V | 00:00:00 | 01:42:11 | 00:00:00 | |
| OM5KV | 2026-09-05 01:04:53 | 48.22775 | 17.77922 | 293° | 4km/h | 26497m | 6.7m/s | -49.3°C | 0.9% | 0hPa | 2.5V | 00:00:00 | 00:00:00 | 00:00:00 | |
| ATIDSZ-14 | 2026-09-05 01:04:52 | 48.22775 | 17.77923 | 278° | 5km/h | 26491m | 5.5m/s | -49.3°C | 0.9% | 0hPa | 2.5V | 00:00:00 | 00:00:00 | 00:00:00 | |
| OE3MUC-15 | 2026-09-05 01:04:51 | 48.22775 | 17.77927 | 216° | 7km/h | 26480m | 7.1m/s | -49.2°C | 3.4% | 0hPa | 2.5V | 00:00:00 | 00:00:00 | 00:00:00 | |
| OM5KV | 2026-09-05 01:04:49 | 48.22777 | 17.77929 | 209° | 7km/h | 26473m | 6.0m/s | -49.3°C | 0.9% | 0hPa | 2.5V | 00:00:00 | 00:00:00 | 00:00:00 | |
| SP9KGR-15 | 2026-09-05 01:04:48 | 48.22779 | 17.77930 | 225° | 9km/h | 26468m | 3.8m/s | -49.3°C | 0.9% | 0hPa | 2.5V | 00:00:00 | 00:00:00 | 00:00:00 | |
| OE3MUC-15 | 2026-09-05 01:04:47 | 48.22780 | 17.77938 | 278° | 16km/h | 26456m | 6.7m/s | -49.2°C | 3.4% | 0hPa | 2.5V | 00:00:00 | 00:00:00 | 00:00:00 | |
| OM5KV | 2026-09-05 01:04:46 | 48.22780 | 17.77938 | 278° | 15km/h | 26456m | 6.7m/s | -49.3°C | 0.9% | 0hPa | 2.4V | 00:00:00 | 00:00:00 | 00:00:00 | |
| PETON7-10 | 2026-09-05 01:04:44 | 48.22775 | 17.77954 | 316° | 9km/h | 26439m | 7.2m/s | -49.2°C | 3.4% | 0hPa | 2.4V | 00:00:00 | 00:00:00 | 00:00:00 | |
| OE3MUC-15 | 2026-09-05 01:04:43 | 48.22772 | 17.77957 | 335° | 11km/h | 26432m | 5.7m/s | -49.2°C | 3.4% | 0hPa | 2.4V | 00:00:00 | 00:00:00 | 00:00:00 | |
| PG1ADW-2 | 2026-09-05 01:04:42 | 48.22770 | 17.77959 | 343° | 9km/h | 26427m | 4.9m/s | -49.2°C | 3.4% | 0hPa | 2.4V | 00:00:00 | 01:41:59 | 00:00:00 | |
| OM5KV | 2026-09-05 01:04:40 | 48.22768 | 17.77960 | 346° | 11km/h | 26421m | 6.9m/s | -49.3°C | 0.9% | 0hPa | 2.4V | 00:00:00 | 00:00:00 | 00:00:00 | |
| OE3MUC-15 | 2026-09-05 01:04:39 | 48.22763 | 17.77962 | 354° | 5km/h | 26409m | 4.9m/s | -49.2°C | 3.4% | 0hPa | 2.4V | 00:00:00 | 00:00:00 | 00:00:00 | |
| OM5KV | 2026-09-05 01:04:38 | 48.22762 | 17.77962 | 28° | 5km/h | 26403m | 7.4m/s | -49.2°C | 0.9% | 0hPa | 2.4V | 00:00:00 | 00:00:00 | 00:00:00 | |
| OE3MUC-15 | 2026-09-05 01:04:35 | 48.22761 | 17.77960 | 300° | 7km/h | 26385m | 6.1m/s | -49.1°C | 3.3% | 0hPa | 2.4V | 00:00:00 | 00:00:00 | 00:00:00 | |
| OE5MMP-10 | 2026-09-05 01:04:34 | 48.22761 | 17.77961 | 294° | 9km/h | 26378m | 6.8m/s | -49.2°C | 3.3% | 0hPa | 2.4V | 00:00:00 | 01:41:51 | 00:00:00 | |
| SP9KGR-15 | 2026-09-05 01:04:33 | 48.22761 | 17.77961 | 295° | 7km/h | 26378m | 6.9m/s | -49.2°C | 0.9% | 0hPa | 2.4V | 00:00:00 | 00:00:00 | 00:00:00 | |
| OM5KV | 2026-09-05 01:04:32 | 48.22760 | 17.77965 | 297° | 13km/h | 26372m | 5.6m/s | -49.2°C | 0% | 0hPa | 2.4V | 00:00:00 | 00:00:00 | 00:00:00 | |
| OE3MUC-15 | 2026-09-05 01:04:31 | 48.22758 | 17.77973 | 280° | 11km/h | 26360m | 6.6m/s | -49.2°C | 3.4% | 0hPa | 2.4V | 00:00:00 | 00:00:00 | 00:00:00 | |
| PETON7-10 | 2026-09-05 01:04:29 | 48.22759 | 17.77980 | 261° | 9km/h | 26348m | 5.0m/s | -49.3°C | 3.4% | 0hPa | 2.4V | 00:00:00 | 01:41:46 | 00:00:00 | |
| OE3JTB-15 | 2026-09-05 01:04:28 | 48.22759 | 17.77984 | 262° | 7km/h | 26342m | 6.6m/s | -49.3°C | 3.4% | 0hPa | 2.4V | 00:00:00 | 01:41:45 | 00:00:00 | |
| OE5DXL-15 | 2026-09-05 01:04:25 | 48.22762 | 17.77992 | 164° | 7km/h | 26325m | 7.0m/s | -49.3°C | 3.4% | 0hPa | 2.4V | 00:00:00 | 00:00:00 | 00:00:00 | |
| OE5MMP-10 | 2026-09-05 01:04:24 | 48.22764 | 17.77990 | 123° | 7km/h | 26318m | 5.1m/s | -49.3°C | 3.4% | 0hPa | 2.4V | 00:00:00 | 01:41:41 | 00:00:00 | |
| OE3MUC-15 | 2026-09-05 01:04:23 | 48.22765 | 17.77986 | 98° | 9km/h | 26314m | 3.6m/s | -49.3°C | 3.4% | 0hPa | 2.4V | 00:00:00 | 00:00:00 | 08:30:00 | |
| PG1ADW-2 | 2026-09-05 01:04:22 | 48.22765 | 17.77982 | 78° | 9km/h | 26309m | 4.8m/s | -49.3°C | 3.4% | 0hPa | 2.4V | 00:00:00 | 00:00:00 | 00:00:00 | |
| OM5KV | 2026-09-05 01:04:20 | 48.22764 | 17.77979 | 42° | 7km/h | 26303m | 6.4m/s | -49.3°C | 0% | 0hPa | 2.4V | 00:00:00 | 00:00:00 | 00:00:00 | |
| OE3MUC-15 | 2026-09-05 01:04:19 | 48.22761 | 17.77979 | 320° | 5km/h | 26292m | 4.4m/s | -49.3°C | 3.4% | 0hPa | 2.4V | 00:00:00 | 00:00:00 | 00:00:00 | |
| OM5KV | 2026-09-05 01:04:17 | 48.22759 | 17.77982 | 304° | 7km/h | 26287m | 4.4m/s | -49.3°C | 0.9% | 0hPa | 2.4V | 00:00:00 | 00:00:00 | 00:00:00 | |
| OE3MUC-15 | 2026-09-05 01:04:15 | 48.22761 | 17.77984 | 163° | 9km/h | 26270m | 5.4m/s | -49.4°C | 3.4% | 0hPa | 2.4V | 00:00:00 | 00:00:00 | 00:00:00 | |
| PETON7-10 | 2026-09-05 01:04:14 | 48.22763 | 17.77983 | 140° | 7km/h | 26265m | 5.6m/s | -49.4°C | 3.4% | 0hPa | 2.4V | 00:00:00 | 00:00:00 | 00:00:00 | |
| SQ9EZE-14 | 2026-09-05 01:04:12 | 48.22764 | 17.77980 | 124° | 9km/h | 26259m | 5.9m/s | 0°C | 0% | 0hPa | 2.5V | 00:00:00 | 00:00:00 | 00:00:00 | |
| OE3MUC-15 | 2026-09-05 01:04:11 | 48.22766 | 17.77973 | 109° | 13km/h | 26248m | 4.6m/s | -49.4°C | 3.4% | 0hPa | 2.5V | 00:00:00 | 00:00:00 | 00:00:00 | |
| OM5KV | 2026-09-05 01:04:09 | 48.22768 | 17.77968 | 111° | 15km/h | 26243m | 6.8m/s | -49.5°C | 0% | 0hPa | 2.4V | 00:00:00 | 00:00:00 | 00:00:00 | |
| OM5KV | 2026-09-05 01:04:08 | 48.22769 | 17.77963 | 116° | 15km/h | 26236m | 6.0m/s | -49.5°C | 0.9% | 0hPa | 2.4V | 00:00:00 | 00:00:00 | 00:00:00 | |
| OE3MUC-15 | 2026-09-05 01:04:07 | 48.22771 | 17.77956 | 87° | 4km/h | 26225m | 6.7m/s | -49.5°C | 3.4% | 0hPa | 2.4V | 00:00:00 | 00:00:00 | 00:00:00 | |
| OE5MMP-10 | 2026-09-05 01:04:04 | 48.22769 | 17.77955 | 322° | 7km/h | 26208m | 6.4m/s | -49.5°C | 3.4% | 0hPa | 2.4V | 00:00:00 | 01:41:21 | 00:00:00 | |
| OE3MUC-15 | 2026-09-05 01:04:03 | 48.22769 | 17.77956 | 278° | 4km/h | 26202m | 5.5m/s | -49.5°C | 3.4% | 0hPa | 2.4V | 00:00:00 | 00:00:00 | 00:00:00 | |
| PG1ADW-2 | 2026-09-05 01:04:02 | 48.22769 | 17.77955 | 98° | 13km/h | 26197m | 4.3m/s | -49.5°C | 3.4% | 0hPa | 2.4V | 00:00:00 | 00:00:00 | 00:00:00 | |
| OE3OSB-13 | 2026-09-05 01:03:58 | 48.22767 | 17.77943 | 110° | 13km/h | 26168m | 6.7m/s | -49.6°C | 0.8% | -1.0hPa | 2.4V | 00:00:00 | 00:00:00 | 00:00:00 | |
| OE3MUC-15 | 2026-09-05 01:03:55 | 48.22771 | 17.77933 | 120° | 9km/h | 26158m | 3.1m/s | -49.6°C | 3.4% | 0hPa | 2.4V | 00:00:00 | 00:00:00 | 00:00:00 | |
| OE5MMP-10 | 2026-09-05 01:03:54 | 48.22772 | 17.77929 | 110° | 13km/h | 26154m | 5.0m/s | -49.6°C | 3.4% | 0hPa | 2.4V | 00:00:00 | 01:41:11 | 00:00:00 | |
| OE3MUC-15 | 2026-09-05 01:03:51 | 48.22769 | 17.77922 | 19° | 9km/h | 26137m | 5.0m/s | -49.7°C | 3.4% | 0hPa | 2.4V | 00:00:00 | 00:00:00 | 00:00:00 | |
| ATIDSZ-14 | 2026-09-05 01:03:50 | 48.22769 | 17.77922 | 19° | 9km/h | 26137m | 5.1m/s | -49.8°C | 0.9% | 0hPa | 2.4V | 00:00:00 | 00:00:00 | 00:00:00 | |
| OE3MUC-15 | 2026-09-05 01:03:47 | 48.22768 | 17.77909 | 104° | 22km/h | 26116m | 4.5m/s | -49.8°C | 3.4% | 0hPa | 2.4V | 00:00:00 | 00:00:00 | 08:30:00 | |
| OE5DRO-10 | 2026-09-05 01:03:46 | 48.22769 | 17.77901 | 97° | 20km/h | 26111m | 5.8m/s | -49.8°C | 3.4% | 0hPa | 2.5V | 00:00:00 | 00:00:00 | 00:00:00 | |
| PETON7-10 | 2026-09-05 01:03:44 | 48.22769 | 17.77883 | 90° | 20km/h | 26099m | 4.3m/s | -49.8°C | 3.5% | 0hPa | 2.4V | 00:00:00 | 01:41:01 | 00:00:00 | |
| PG1ADW-2 | 2026-09-05 01:03:42 | 48.22771 | 17.77868 | 111° | 20km/h | 26089m | 6.3m/s | -49.8°C | 3.4% | 0hPa | 2.4V | 00:00:00 | 00:00:00 | 08:30:00 | |
| OM5KV | 2026-09-05 01:03:41 | 48.22771 | 17.77868 | 112° | 18km/h | 26089m | 6.3m/s | -49.9°C | 0.9% | 0hPa | 2.4V | 00:00:00 | 00:00:00 | 00:00:00 | |
| HA6NAB-11 | 2026-09-05 01:03:40 | 48.22773 | 17.77862 | 125° | 16km/h | 26082m | 5.5m/s | -49.9°C | 0.9% | 0hPa | 2.4V | 00:00:00 | 00:00:00 | 00:00:00 | |
| OM5KV | 2026-09-05 01:03:36 | 48.22779 | 17.77845 | 92° | 15km/h | 26060m | 4.6m/s | -49.9°C | 0.9% | 0hPa | 2.4V | 00:00:00 | 00:00:00 | 00:00:00 | |
| HA6NAB-11 | 2026-09-05 01:03:35 | 48.22780 | 17.77832 | 102° | 20km/h | 26049m | 6.2m/s | -49.9°C | 0.9% | 0hPa | 2.4V | 00:00:00 | 00:00:00 | 00:00:00 | |
| OE5MMP-10 | 2026-09-05 01:03:34 | 48.22782 | 17.77824 | 104° | 24km/h | 26044m | 4.2m/s | -49.8°C | 3.4% | 0hPa | 2.4V | 00:00:00 | 01:40:51 | 00:00:00 | |
| SP9KGR-15 | 2026-09-05 01:03:31 | 48.22784 | 17.77805 | 91° | 26km/h | 26035m | 6.6m/s | -49.9°C | 0.9% | 0hPa | 2.4V | 00:00:00 | 00:00:00 | 00:00:00 | |
| OE3JTB-15 | 2026-09-05 01:03:30 | 48.22783 | 17.77786 | 91° | 18km/h | 26025m | 3.8m/s | -49.9°C | 3.4% | 0hPa | 2.4V | 00:00:00 | 00:00:00 | 00:00:00 | |
| PETON7-10 | 2026-09-05 01:03:29 | 48.22784 | 17.77777 | 106° | 20km/h | 26020m | 5.0m/s | -49.9°C | 3.4% | 0hPa | 2.4V | 00:00:00 | 00:00:00 | 08:30:00 | |
| OE5DRO-10 | 2026-09-05 01:03:27 | 48.22790 | 17.77761 | 135° | 18km/h | 26008m | 4.9m/s | -49.9°C | 3.4% | 0hPa | 2.4V | 00:00:00 | 00:00:00 | 00:00:00 | |
| OE5DXL-15 | 2026-09-05 01:03:25 | 48.22798 | 17.77751 | 139° | 18km/h | 25999m | 5.2m/s | -50.0°C | 3.5% | 0hPa | 2.4V | 00:00:00 | 00:00:00 | 00:00:00 | |
| OE5MMP-10 | 2026-09-05 01:03:24 | 48.22801 | 17.77746 | 126° | 18km/h | 25993m | 5.4m/s | -50.0°C | 3.5% | 0hPa | 2.4V | 00:00:00 | 01:40:41 | 00:00:00 | |
| HA6NAB-11 | 2026-09-05 01:03:23 | 48.22801 | 17.77746 | 127° | 15km/h | 25993m | 5.5m/s | -50.1°C | 0.9% | 0hPa | 2.4V | 00:00:00 | 00:00:00 | 00:00:00 | |
| PG1ADW-2 | 2026-09-05 01:03:22 | 48.22803 | 17.77735 | 98° | 18km/h | 25984m | 4.9m/s | -50.1°C | 3.5% | 0hPa | 2.4V | 00:00:00 | 01:40:39 | 00:00:00 | |
| OE3MUC-15 | 2026-09-05 01:03:19 | 48.22804 | 17.77711 | 86° | 20km/h | 25968m | 5.1m/s | -50.1°C | 3.5% | 0hPa | 2.4V | 00:00:00 | 00:00:00 | 00:00:00 | |
| S52SK | 2026-09-05 01:03:17 | 48.22803 | 17.77703 | 82° | 20km/h | 25962m | 6.4m/s | -50.2°C | 0.9% | 0hPa | 2.4V | 00:00:00 | 00:00:00 | 00:00:00 | |
| OE3MUC-15 | 2026-09-05 01:03:15 | 48.22803 | 17.77683 | 102° | 18km/h | 25944m | 6.5m/s | -50.2°C | 3.5% | 0hPa | 2.4V | 00:00:00 | 00:00:00 | 00:00:00 | |
| PETON7-10 | 2026-09-05 01:03:14 | 48.22804 | 17.77676 | 113° | 16km/h | 25938m | 5.0m/s | -50.2°C | 3.5% | 0hPa | 2.4V | 00:00:00 | 00:00:00 | 00:00:00 | |
| OM5KV | 2026-09-05 01:03:13 | 48.22804 | 17.77676 | 114° | 20km/h | 25938m | 5.0m/s | -50.2°C | 0.9% | 0hPa | 2.4V | 00:00:00 | 00:00:00 | 00:00:00 | |
| OM5KV | 2026-09-05 01:03:12 | 48.22806 | 17.77670 | 113° | 16km/h | 25933m | 5.3m/s | -50.3°C | 0% | 0hPa | 2.4V | 00:00:00 | 00:00:00 | 00:00:00 | |
| OE3MUC-15 | 2026-09-05 01:03:11 | 48.22809 | 17.77659 | 101° | 18km/h | 25922m | 4.0m/s | -50.3°C | 3.6% | 0hPa | 2.4V | 00:00:00 | 00:00:00 | 08:30:00 | |
| ATIDSZ-14 | 2026-09-05 01:03:09 | 48.22810 | 17.77653 | 103° | 16km/h | 25917m | 4.9m/s | -50.4°C | 1.0% | 0hPa | 2.4V | 00:00:00 | 00:00:00 | 00:00:00 | |
| OE5DRO-10 | 2026-09-05 01:03:08 | 48.22811 | 17.77639 | 101° | 18km/h | 25906m | 4.9m/s | -50.3°C | 3.6% | 0hPa | 2.4V | 00:00:00 | 00:00:00 | 00:00:00 | |
| OE3MUC-15 | 2026-09-05 01:03:07 | 48.22812 | 17.77632 | 89° | 15km/h | 25900m | 5.5m/s | -50.3°C | 3.6% | 0hPa | 2.4V | 00:00:00 | 00:00:00 | 00:00:00 | |
| S52SK | 2026-09-05 01:03:06 | 48.22812 | 17.77632 | 89° | 18km/h | 25900m | 5.5m/s | -50.4°C | 1.0% | 0hPa | 2.4V | 00:00:00 | 00:00:00 | 00:00:00 | |
| OE5MMP-10 | 2026-09-05 01:03:04 | 48.22810 | 17.77616 | 86° | 20km/h | 25883m | 5.0m/s | -50.3°C | 3.6% | 0hPa | 2.4V | 00:00:00 | 01:40:21 | 00:00:00 | |
| OE3MUC-15 | 2026-09-05 01:03:03 | 48.22810 | 17.77610 | 91° | 18km/h | 25878m | 6.3m/s | -50.3°C | 3.5% | 0hPa | 2.4V | 00:00:00 | 00:00:00 | 00:00:00 | |
| PG1ADW-2 | 2026-09-05 01:03:02 | 48.22810 | 17.77603 | 102° | 16km/h | 25872m | 5.0m/s | -50.3°C | 3.6% | 0hPa | 2.4V | 00:00:00 | 00:00:00 | 00:00:00 | |
| OE3OSB-13 | 2026-09-05 01:02:56 | 48.22811 | 17.77549 | 89° | 24km/h | 25835m | 4.5m/s | -50.3°C | 0.9% | -1.0hPa | 2.4V | 00:00:00 | 00:00:00 | 00:00:00 | |
| OE3MUC-15 | 2026-09-05 01:02:55 | 48.22811 | 17.77549 | 90° | 16km/h | 25835m | 4.5m/s | -50.2°C | 3.6% | 0hPa | 2.4V | 00:00:00 | 00:00:00 | 00:00:00 | |
| OE5MMP-10 | 2026-09-05 01:02:54 | 48.22811 | 17.77541 | 79° | 11km/h | 25830m | 5.3m/s | -50.2°C | 3.5% | 0hPa | 2.4V | 00:00:00 | 01:40:11 | 00:00:00 | |
| OE3MUC-15 | 2026-09-05 01:02:51 | 48.22806 | 17.77529 | 32° | 7km/h | 25814m | 4.2m/s | -50.2°C | 3.6% | 0hPa | 2.4V | 00:00:00 | 00:00:00 | 00:00:00 | |
| OE5DRO-10 | 2026-09-05 01:02:49 | 48.22806 | 17.77526 | 105° | 15km/h | 25803m | 5.7m/s | -50.2°C | 3.5% | 0hPa | 2.4V | 00:00:00 | 00:00:00 | 00:00:00 | |
| OE3MUC-15 | 2026-09-05 01:02:47 | 48.22808 | 17.77518 | 106° | 16km/h | 25792m | 4.3m/s | -50.1°C | 3.5% | 0hPa | 2.4V | 00:00:00 | 00:00:00 | 00:00:00 | |
| SQ9EZE-14 | 2026-09-05 01:02:46 | 48.22808 | 17.77518 | 106° | 13km/h | 25792m | 4.4m/s | 0°C | 0% | 0hPa | 2.4V | 00:00:00 | 00:00:00 | 00:00:00 | |
| SP3BTT-10 | 2026-09-05 01:02:45 | 48.22808 | 17.77507 | 76° | 18km/h | 25781m | 5.7m/s | 0°C | 0% | 0hPa | 2.4V | 00:00:00 | 00:00:00 | 00:00:00 | |
| PETON7-10 | 2026-09-05 01:02:44 | 48.22807 | 17.77501 | 76° | 15km/h | 25775m | 4.7m/s | -50.0°C | 3.5% | 0hPa | 2.4V | 00:00:00 | 00:00:00 | 00:00:00 | |
| OE3MUC-15 | 2026-09-05 01:02:43 | 48.22806 | 17.77493 | 77° | 24km/h | 25770m | 6.3m/s | -50.0°C | 3.5% | 0hPa | 2.4V | 00:00:00 | 00:00:00 | 00:00:00 | |
| PG1ADW-2 | 2026-09-05 01:02:42 | 48.22804 | 17.77485 | 77° | 15km/h | 25764m | 5.2m/s | -50.0°C | 3.5% | 0hPa | 2.4V | 00:00:00 | 00:00:00 | 00:00:00 | |
| OE3MUC-15 | 2026-09-05 01:02:39 | 48.22797 | 17.77461 | 54° | 16km/h | 25747m | 5.9m/s | -50.0°C | 3.5% | 0hPa | 2.4V | 00:00:00 | 00:00:00 | 00:00:00 | |
| GYPAP8-17 | 2026-09-05 01:02:36 | 48.22792 | 17.77450 | 63° | 15km/h | 25737m | 6.1m/s | -50.1°C | 0.9% | 0hPa | 2.4V | 00:00:00 | 00:00:00 | 00:00:00 | |
| OE3MUC-15 | 2026-09-05 01:02:35 | 48.22791 | 17.77442 | 104° | 5km/h | 25726m | 4.4m/s | -50.0°C | 3.4% | 0hPa | 2.4V | 00:00:00 | 00:00:00 | 08:30:00 | |
| OE5MMP-10 | 2026-09-05 01:02:34 | 48.22792 | 17.77439 | 112° | 11km/h | 25721m | 5.1m/s | -50.0°C | 3.4% | 0hPa | 2.4V | 00:00:00 | 01:39:51 | 00:00:00 | |
| OM5KV | 2026-09-05 01:02:32 | 48.22792 | 17.77435 | 50° | 4km/h | 25709m | 5.3m/s | -50.0°C | 1.0% | 0hPa | 2.4V | 00:00:00 | 00:00:00 | 00:00:00 | |
| OE3MUC-15 | 2026-09-05 01:02:31 | 48.22792 | 17.77434 | 70° | 13km/h | 25703m | 5.2m/s | -50.0°C | 3.5% | 0hPa | 2.4V | 00:00:00 | 00:00:00 | 00:00:00 | |
| OE5DRO-10 | 2026-09-05 01:02:30 | 48.22791 | 17.77430 | 73° | 13km/h | 25698m | 6.3m/s | -50.0°C | 3.4% | 0hPa | 2.4V | 00:00:00 | 00:00:00 | 00:00:00 | |
| PETON7-10 | 2026-09-05 01:02:29 | 48.22790 | 17.77425 | 76° | 11km/h | 25693m | 4.5m/s | -50.0°C | 3.4% | 0hPa | 2.4V | 00:00:00 | 00:00:00 | 00:00:00 | |
| ATIDSZ-14 | 2026-09-05 01:02:28 | 48.22790 | 17.77425 | 77° | 16km/h | 25693m | 4.6m/s | -50.0°C | 0.9% | 0hPa | 2.4V | 00:00:00 | 00:00:00 | 00:00:00 | |
| OE3MUC-15 | 2026-09-05 01:02:27 | 48.22786 | 17.77414 | 54° | 16km/h | 25683m | 5.9m/s | -50.0°C | 3.4% | 0hPa | 2.4V | 00:00:00 | 00:00:00 | 00:00:00 | |
| OE3OSB-13 | 2026-09-05 01:02:25 | 48.22778 | 17.77400 | 62° | 11km/h | 25667m | 6.6m/s | -50.1°C | 0.8% | -1.0hPa | 2.4V | 00:00:00 | 00:00:00 | 00:00:00 | |
| OE5MMP-10 | 2026-09-05 01:02:24 | 48.22778 | 17.77400 | 63° | 9km/h | 25668m | 6.6m/s | -50.0°C | 3.4% | 0hPa | 2.4V | 00:00:00 | 01:39:41 | 00:00:00 | |
| OE3MUC-15 | 2026-09-05 01:02:23 | 48.22777 | 17.77396 | 87° | 5km/h | 25661m | 6.3m/s | -50.1°C | 3.4% | 0hPa | 2.4V | 00:00:00 | 00:00:00 | 00:00:00 | |
| PG1ADW-2 | 2026-09-05 01:02:22 | 48.22778 | 17.77393 | 108° | 11km/h | 25655m | 4.7m/s | -50.1°C | 3.4% | 0hPa | 2.4V | 00:00:00 | 00:00:00 | 00:00:00 | |
| OE3MUC-15 | 2026-09-05 01:02:19 | 48.22780 | 17.77388 | 121° | 9km/h | 25639m | 3.7m/s | -50.2°C | 3.5% | 0hPa | 2.4V | 00:00:00 | 00:00:00 | 00:00:00 | |
| OE3MUC-15 | 2026-09-05 01:02:15 | 48.22781 | 17.77373 | 74° | 18km/h | 25617m | 5.8m/s | -50.3°C | 3.4% | 0hPa | 2.4V | 00:00:00 | 00:00:00 | 00:00:00 | |
| PETON7-10 | 2026-09-05 01:02:14 | 48.22779 | 17.77367 | 62° | 13km/h | 25611m | 6.2m/s | -50.3°C | 3.5% | 0hPa | 2.4V | 00:00:00 | 01:39:31 | 00:00:00 | |
| SP9KGR-15 | 2026-09-05 01:02:12 | 48.22777 | 17.77361 | 51° | 18km/h | 25606m | 4.4m/s | -50.4°C | 0.9% | 0hPa | 2.4V | 00:00:00 | 00:00:00 | 00:00:00 | |
| OE3MUC-15 | 2026-09-05 01:02:11 | 48.22773 | 17.77349 | 77° | 13km/h | 25598m | 6.1m/s | -50.4°C | 3.4% | 0hPa | 2.4V | 00:00:00 | 00:00:00 | 00:00:00 | |
| ATIDSZ-14 | 2026-09-05 01:02:08 | 48.22774 | 17.77340 | 125° | 13km/h | 25586m | 5.1m/s | -50.6°C | 0.9% | 0hPa | 2.5V | 00:00:00 | 00:00:00 | 00:00:00 | |
| OE3MUC-15 | 2026-09-05 01:02:07 | 48.22778 | 17.77333 | 141° | 11km/h | 25573m | 5.9m/s | -50.6°C | 3.5% | 0hPa | 2.5V | 00:00:00 | 00:00:00 | 00:00:00 | |
| OE5MMP-10 | 2026-09-05 01:02:04 | 48.22783 | 17.77325 | 124° | 15km/h | 25559m | 5.3m/s | -50.7°C | 3.5% | 0hPa | 2.5V | 00:00:00 | 01:39:21 | 00:00:00 | |
| OE3MUC-15 | 2026-09-05 01:02:03 | 48.22785 | 17.77321 | 116° | 13km/h | 25554m | 4.6m/s | -50.7°C | 3.5% | 0hPa | 2.5V | 00:00:00 | 01:39:20 | 00:00:00 | |
| PG1ADW-2 | 2026-09-05 01:02:02 | 48.22786 | 17.77316 | 101° | 16km/h | 25549m | 3.7m/s | -50.8°C | 3.5% | 0hPa | 2.5V | 00:00:00 | 01:39:19 | 00:00:00 | |
| HA6NAB-11 | 2026-09-05 01:02:01 | 48.22786 | 17.77316 | 102° | 13km/h | 25549m | 3.8m/s | -50.8°C | 0.9% | 0hPa | 2.5V | 00:00:00 | 00:00:00 | 00:00:00 | |
| OE3OSB-13 | 2026-09-05 01:01:54 | 48.22774 | 17.77270 | 80° | 13km/h | 25498m | 4.5m/s | -51.1°C | 0.9% | -1.0hPa | 2.5V | 00:00:00 | 00:00:00 | 00:00:00 | |
| OE3MUC-15 | 2026-09-05 01:01:51 | 48.22773 | 17.77258 | 91° | 16km/h | 25486m | 6.3m/s | -51.1°C | 3.6% | 0hPa | 2.5V | 00:00:00 | 00:00:00 | 00:00:00 | |
| HA6NAB-11 | 2026-09-05 01:01:50 | 48.22774 | 17.77258 | 91° | 18km/h | 25486m | 6.4m/s | -51.2°C | 1.0% | 0hPa | 2.5V | 00:00:00 | 00:00:00 | 00:00:00 | |
| OE5DRO-10 | 2026-09-05 01:01:49 | 48.22773 | 17.77244 | 82° | 24km/h | 25475m | 6.2m/s | -51.2°C | 3.6% | 0hPa | 2.5V | 00:00:00 | 00:00:00 | 08:30:00 | |
| OE3MUC-15 | 2026-09-05 01:01:47 | 48.22771 | 17.77234 | 53° | 20km/h | 25463m | 5.0m/s | -51.3°C | 3.6% | 0hPa | 2.4V | 00:00:00 | 00:00:00 | 00:00:00 | |
| OM5KV | 2026-09-05 01:01:46 | 48.22771 | 17.77234 | 54° | 15km/h | 25463m | 5.0m/s | -51.3°C | 1.0% | 0hPa | 2.5V | 00:00:00 | 00:00:00 | 00:00:00 | |
| OE5MMP-10 | 2026-09-05 01:01:44 | 48.22766 | 17.77214 | 82° | 24km/h | 25447m | 5.7m/s | -51.4°C | 3.7% | 0hPa | 2.5V | 00:00:00 | 01:39:01 | 00:00:00 | |
| PG1ADW-2 | 2026-09-05 01:01:42 | 48.22765 | 17.77195 | 89° | 24km/h | 25436m | 6.4m/s | -51.5°C | 3.7% | 0hPa | 2.5V | 00:00:00 | 00:00:00 | 00:00:00 | |
| SP9KGR-15 | 2026-09-05 01:01:40 | 48.22764 | 17.77187 | 93° | 22km/h | 25429m | 5.6m/s | -51.6°C | 1.0% | 0hPa | 2.4V | 00:00:00 | 00:00:00 | 00:00:00 | |
| HA6NAB-11 | 2026-09-05 01:01:38 | 48.22766 | 17.77170 | 100° | 26km/h | 25418m | 6.1m/s | -51.6°C | 1.0% | 0hPa | 2.4V | 00:00:00 | 00:00:00 | 00:00:00 | |
| GYPAP8-17 | 2026-09-05 01:01:35 | 48.22769 | 17.77139 | 91° | 26km/h | 25402m | 3.6m/s | -51.7°C | 1.0% | 0hPa | 2.4V | 00:00:00 | 00:00:00 | 00:00:00 | |
| OE3JTB-15 | 2026-09-05 01:01:34 | 48.22767 | 17.77122 | 62° | 20km/h | 25390m | 6.6m/s | -51.7°C | 3.8% | 0hPa | 2.4V | 00:00:00 | 01:38:51 | 00:00:00 | |
| HA6NAB-11 | 2026-09-05 01:01:32 | 48.22764 | 17.77116 | 50° | 20km/h | 25384m | 5.3m/s | -51.8°C | 1.0% | 0hPa | 2.4V | 00:00:00 | 00:00:00 | 00:00:00 | |
| PETON7-10 | 2026-09-05 01:01:29 | 48.22753 | 17.77092 | 61° | 22km/h | 25361m | 5.8m/s | -51.8°C | 3.8% | 0hPa | 2.4V | 00:00:00 | 01:38:46 | 00:00:00 | |
| ATIDSZ-14 | 2026-09-05 01:01:28 | 48.22750 | 17.77086 | 59° | 22km/h | 25355m | 5.4m/s | -51.8°C | 1.0% | 0hPa | 2.4V | 00:00:00 | 00:00:00 | 00:00:00 | |
| OE5DXL-15 | 2026-09-05 01:01:25 | 48.22744 | 17.77058 | 83° | 20km/h | 25341m | 6.1m/s | -51.8°C | 3.8% | 0hPa | 2.4V | 00:00:00 | 00:00:00 | 08:30:00 | |
| OE5MMP-10 | 2026-09-05 01:01:24 | 48.22744 | 17.77045 | 93° | 20km/h | 25335m | 5.6m/s | -51.8°C | 3.7% | 0hPa | 2.4V | 00:00:00 | 01:38:41 | 00:00:00 | |
| PG1ADW-2 | 2026-09-05 01:01:22 | 48.22747 | 17.77021 | 107° | 18km/h | 25326m | 4.1m/s | -51.8°C | 3.8% | 0hPa | 2.4V | 00:00:00 | 00:00:00 | 00:00:00 | |
| OE3MUC-15 | 2026-09-05 01:01:19 | 48.22747 | 17.77006 | 27° | 16km/h | 25309m | 5.6m/s | -51.8°C | 3.8% | 0hPa | 2.4V | 00:00:00 | 00:00:00 | 00:00:00 | |
| OE3MUC-15 | 2026-09-05 01:01:15 | 48.22731 | 17.76996 | 33° | 16km/h | 25288m | 4.8m/s | -51.8°C | 3.8% | 0hPa | 2.4V | 00:00:00 | 00:00:00 | 00:00:00 | |
| OE5MMP-10 | 2026-09-05 01:01:14 | 48.22727 | 17.76992 | 48° | 20km/h | 25283m | 5.7m/s | -51.8°C | 3.8% | 0hPa | 2.4V | 00:00:00 | 01:38:31 | 08:30:00 | |
| OM5KV | 2026-09-05 01:01:12 | 48.22726 | 17.76987 | 72° | 15km/h | 25277m | 5.5m/s | -51.9°C | 1.0% | 0hPa | 2.5V | 00:00:00 | 00:00:00 | 00:00:00 | |
| OE3MUC-15 | 2026-09-05 01:01:11 | 48.22725 | 17.76973 | 92° | 26km/h | 25265m | 6.5m/s | -51.9°C | 3.8% | 0hPa | 2.5V | 00:00:00 | 00:00:00 | 00:00:00 | |
| SP9KGR-15 | 2026-09-05 01:01:09 | 48.22725 | 17.76964 | 93° | 27km/h | 25258m | 6.4m/s | 0°C | 0% | 0hPa | 2.5V | 00:00:00 | 00:00:00 | 00:00:00 | |
| OE3MUC-15 | 2026-09-05 01:01:07 | 48.22726 | 17.76934 | 99° | 13km/h | 25242m | 6.5m/s | -51.9°C | 3.8% | 0hPa | 2.5V | 00:00:00 | 00:00:00 | 00:00:00 | |
| OM5KV | 2026-09-05 01:01:06 | 48.22726 | 17.76934 | 99° | 20km/h | 25242m | 6.5m/s | -52.0°C | 1.0% | 0hPa | 2.5V | 00:00:00 | 00:00:00 | 00:00:00 | |
| OE5MMP-10 | 2026-09-05 01:01:04 | 48.22727 | 17.76920 | 74° | 16km/h | 25224m | 6.5m/s | -52.0°C | 3.8% | 0hPa | 2.5V | 00:00:00 | 01:38:21 | 00:00:00 | |
| OE3MUC-15 | 2026-09-05 01:01:03 | 48.22726 | 17.76916 | 56° | 13km/h | 25218m | 5.8m/s | -51.9°C | 3.9% | 0hPa | 2.5V | 00:00:00 | 00:00:00 | 00:00:00 | |
| PG1ADW-2 | 2026-09-05 01:01:02 | 48.22724 | 17.76912 | 51° | 13km/h | 25213m | 4.5m/s | -51.9°C | 3.8% | 0hPa | 2.5V | 00:00:00 | 00:00:00 | 00:00:00 | |
| OE3OSB-13 | 2026-09-05 01:00:52 | 48.22721 | 17.76857 | 338° | 7km/h | 25141m | 4.9m/s | -51.8°C | 0.9% | -1.0hPa | 2.5V | 00:00:00 | 00:00:00 | 00:00:00 | |
| OE3MUC-15 | 2026-09-05 01:00:51 | 48.22722 | 17.76856 | 6° | 7km/h | 25147m | 6.0m/s | -51.7°C | 3.8% | 0hPa | 2.5V | 00:00:00 | 00:00:00 | 00:00:00 | |
| ATIDSZ-14 | 2026-09-05 01:00:48 | 48.22717 | 17.76860 | 324° | 7km/h | 25129m | 5.5m/s | -51.7°C | 1.0% | 0hPa | 2.5V | 00:00:00 | 00:00:00 | 00:00:00 | |
| OE3MUC-15 | 2026-09-05 01:00:47 | 48.22716 | 17.76860 | 353° | 11km/h | 25124m | 3.6m/s | -51.7°C | 3.8% | 0hPa | 2.5V | 00:00:00 | 00:00:00 | 08:30:00 | |
| OE5MMP-10 | 2026-09-05 01:00:44 | 48.22709 | 17.76853 | 62° | 11km/h | 25107m | 4.7m/s | -51.6°C | 3.8% | 0hPa | 2.4V | 00:00:00 | 01:38:01 | 00:00:00 | |
| OE3MUC-15 | 2026-09-05 01:00:43 | 48.22708 | 17.76848 | 83° | 15km/h | 25101m | 6.5m/s | -51.6°C | 3.8% | 0hPa | 2.4V | 00:00:00 | 00:00:00 | 00:00:00 | |
| PG1ADW-2 | 2026-09-05 01:00:42 | 48.22708 | 17.76842 | 103° | 7km/h | 25094m | 6.2m/s | -51.6°C | 3.8% | 0hPa | 2.4V | 00:00:00 | 01:37:59 | 08:30:00 | |
| OE5DRO-10 | 2026-09-05 01:00:41 | 48.22710 | 17.76837 | 125° | 7km/h | 25088m | 4.5m/s | -51.6°C | 3.8% | 0hPa | 2.4V | 00:00:00 | 00:00:00 | 00:00:00 | |
| OE3MUC-15 | 2026-09-05 01:00:39 | 48.22713 | 17.76829 | 121° | 5km/h | 25077m | 6.1m/s | -51.5°C | 3.8% | 0hPa | 2.4V | 00:00:00 | 00:00:00 | 00:00:00 | |
| SP9KGR-15 | 2026-09-05 01:00:38 | 48.22713 | 17.76830 | 121° | 9km/h | 25077m | 6.2m/s | 0°C | 0% | 0hPa | 2.4V | 00:00:00 | 00:00:00 | 00:00:00 | |
| OM5KV | 2026-09-05 01:00:37 | 48.22714 | 17.76827 | 111° | 5km/h | 25072m | 4.8m/s | -51.6°C | 1.0% | 0hPa | 2.4V | 00:00:00 | 00:00:00 | 00:00:00 | |
| OE3MUC-15 | 2026-09-05 01:00:35 | 48.22716 | 17.76824 | 165° | 7km/h | 25055m | 5.6m/s | -51.5°C | 3.8% | 0hPa | 2.4V | 00:00:00 | 00:00:00 | 00:00:00 | |
| OE5MMP-10 | 2026-09-05 01:00:34 | 48.22718 | 17.76823 | 152° | 5km/h | 25050m | 4.7m/s | -51.4°C | 3.7% | 0hPa | 2.4V | 00:00:00 | 01:37:51 | 00:00:00 | |
| OE3MUC-15 | 2026-09-05 01:00:31 | 48.22720 | 17.76817 | 66° | 5km/h | 25035m | 6.1m/s | -51.4°C | 3.7% | 0hPa | 2.4V | 00:00:00 | 00:00:00 | 00:00:00 | |
| PETON7-10 | 2026-09-05 01:00:29 | 48.22718 | 17.76814 | 16° | 11km/h | 25024m | 5.1m/s | -51.3°C | 3.7% | 0hPa | 2.4V | 00:00:00 | 00:00:00 | 00:00:00 | |
| OE3MUC-15 | 2026-09-05 01:00:27 | 48.22717 | 17.76815 | 224° | 5km/h | 25012m | 5.3m/s | -51.4°C | 3.7% | 0hPa | 2.4V | 00:00:00 | 00:00:00 | 00:00:00 | |
| OE5DXL-15 | 2026-09-05 01:00:26 | 48.22718 | 17.76814 | 97° | 15km/h | 25002m | 6.4m/s | -51.4°C | 3.7% | 0hPa | 2.4V | 00:00:00 | 00:00:00 | 00:00:00 | |
| OM5KV | 2026-09-05 01:00:25 | 48.22718 | 17.76814 | 98° | 5km/h | 25002m | 6.4m/s | -51.4°C | 1.0% | 0hPa | 2.4V | 00:00:00 | 00:00:00 | 00:00:00 | |
| OE5MMP-10 | 2026-09-05 01:00:24 | 48.22718 | 17.76812 | 87° | 15km/h | 24996m | 5.9m/s | -51.4°C | 3.7% | 0hPa | 2.4V | 00:00:00 | 01:37:41 | 00:00:00 | |
| OE3MUC-15 | 2026-09-05 01:00:23 | 48.22718 | 17.76807 | 91° | 15km/h | 24990m | 5.2m/s | -51.4°C | 3.7% | 0hPa | 2.4V | 00:00:00 | 00:00:00 | 00:00:00 | |
| PG1ADW-2 | 2026-09-05 01:00:22 | 48.22719 | 17.76802 | 103° | 13km/h | 24984m | 5.8m/s | -51.4°C | 3.7% | 0hPa | 2.4V | 00:00:00 | 00:00:00 | 00:00:00 | |
| OE3OSB-13 | 2026-09-05 01:00:21 | 48.22722 | 17.76785 | 93° | 15km/h | 24966m | 6.5m/s | -51.3°C | 1.0% | -1.0hPa | 2.4V | 00:00:00 | 00:00:00 | 00:00:00 | |
| OE3MUC-15 | 2026-09-05 01:00:19 | 48.22722 | 17.76785 | 94° | 15km/h | 24966m | 6.4m/s | -51.3°C | 3.7% | 0hPa | 2.4V | 00:00:00 | 00:00:00 | 00:00:00 | |
| OE3JTB-15 | 2026-09-05 01:00:18 | 48.22720 | 17.76774 | 69° | 13km/h | 24954m | 4.9m/s | -51.2°C | 3.7% | 0hPa | 2.4V | 00:00:00 | 00:00:00 | 00:00:00 | |
| OE3MUC-15 | 2026-09-05 01:00:16 | 48.22718 | 17.76765 | 74° | 9km/h | 24943m | 6.6m/s | -51.2°C | 3.7% | 0hPa | 2.4V | 00:00:00 | 00:00:00 | 00:00:00 | |
| PETON7-10 | 2026-09-05 01:00:14 | 48.22718 | 17.76762 | 97° | 15km/h | 24937m | 6.2m/s | -51.1°C | 3.7% | 0hPa | 2.4V | 00:00:00 | 00:00:00 | 00:00:00 | |
| HA6NAB-11 | 2026-09-05 01:00:13 | 48.22718 | 17.76762 | 98° | 7km/h | 24937m | 6.2m/s | -51.2°C | 1.0% | 0hPa | 2.4V | 00:00:00 | 00:00:00 | 00:00:00 | |
| OE3MUC-15 | 2026-09-05 01:00:11 | 48.22718 | 17.76752 | 83° | 11km/h | 24919m | 6.0m/s | -51.1°C | 3.6% | 0hPa | 2.4V | 00:00:00 | 00:00:00 | 08:30:00 | |
| OE3MUC-15 | 2026-09-05 01:00:07 | 48.22721 | 17.76737 | 102° | 16km/h | 24895m | 4.7m/s | -51.2°C | 3.7% | 0hPa | 2.5V | 00:00:00 | 00:00:00 | 00:00:00 | |
| ATIDSZ-14 | 2026-09-05 01:00:06 | 48.22721 | 17.76737 | 102° | 13km/h | 24895m | 4.7m/s | -51.3°C | 1.0% | 0hPa | 2.5V | 00:00:00 | 00:00:00 | 00:00:00 | |
| OE5MMP-10 | 2026-09-05 01:00:04 | 48.22718 | 17.76719 | 61° | 18km/h | 24877m | 4.8m/s | -51.3°C | 3.7% | 0hPa | 2.5V | 00:00:00 | 01:37:21 | 00:00:00 | |
| HA6NAB-11 | 2026-09-05 01:00:01 | 48.22713 | 17.76706 | 63° | 18km/h | 24865m | 6.1m/s | -51.4°C | 1.0% | 0hPa | 2.5V | 00:00:00 | 00:00:00 | 00:00:00 | |
| OE3OSB-13 | 2026-09-05 00:59:49 | 48.22705 | 17.76629 | 54° | 15km/h | 24782m | 7.2m/s | -51.5°C | 0.9% | -1.0hPa | 2.5V | 00:00:00 | 00:00:00 | 00:00:00 | |
| OE3MUC-15 | 2026-09-05 00:59:47 | 48.22702 | 17.76623 | 55° | 20km/h | 24775m | 6.4m/s | -51.4°C | 3.7% | 0hPa | 2.5V | 00:00:00 | 00:00:00 | 00:00:00 | |
| ATIDSZ-14 | 2026-09-05 00:59:46 | 48.22702 | 17.76623 | 56° | 22km/h | 24775m | 6.5m/s | -51.4°C | 1.0% | 0hPa | 2.4V | 00:00:00 | 00:00:00 | 00:00:00 | |
| OM5KV | 2026-09-05 00:59:45 | 48.22699 | 17.76616 | 62° | 22km/h | 24769m | 5.6m/s | -51.4°C | 1.0% | 0hPa | 2.4V | 00:00:00 | 00:00:00 | 00:00:00 | |
| PETON7-10 | 2026-09-05 00:59:44 | 48.22696 | 17.76603 | 79° | 18km/h | 24756m | 6.0m/s | -51.4°C | 3.7% | 0hPa | 2.4V | 00:00:00 | 00:00:00 | 00:00:00 | |
| OE3MUC-15 | 2026-09-05 00:59:43 | 48.22695 | 17.76596 | 85° | 18km/h | 24750m | 4.3m/s | -51.4°C | 3.7% | 0hPa | 2.5V | 00:00:00 | 00:00:00 | 00:00:00 | |
| PG1ADW-2 | 2026-09-05 00:59:42 | 48.22695 | 17.76589 | 87° | 20km/h | 24745m | 6.3m/s | -51.4°C | 3.7% | 0hPa | 2.5V | 00:00:00 | 00:00:00 | 00:00:00 | |
| OM5KV | 2026-09-05 00:59:39 | 48.22694 | 17.76574 | 92° | 18km/h | 24733m | 4.8m/s | -51.5°C | 1.0% | 0hPa | 2.5V | 00:00:00 | 00:00:00 | 00:00:00 | |
| OE5MMP-10 | 2026-09-05 00:59:34 | 48.22682 | 17.76543 | 30° | 24km/h | 24699m | 4.2m/s | -51.6°C | 3.8% | 0hPa | 2.5V | 00:00:00 | 01:36:51 | 00:00:00 | |
| PETON7-10 | 2026-09-05 00:59:29 | 48.22664 | 17.76517 | 76° | 24km/h | 24673m | 4.5m/s | -51.6°C | 3.7% | 0hPa | 2.5V | 00:00:00 | 00:00:00 | 00:00:00 | |
| OM5KV | 2026-09-05 00:59:28 | 48.22664 | 17.76517 | 76° | 18km/h | 24673m | 4.6m/s | -51.6°C | 1.0% | 0hPa | 2.5V | 00:00:00 | 00:00:00 | 00:00:00 | |
| SP9KGR-15 | 2026-09-05 00:59:27 | 48.22663 | 17.76509 | 75° | 24km/h | 24668m | 5.6m/s | 0°C | 0% | 0hPa | 2.5V | 00:00:00 | 00:00:00 | 00:00:00 | |
| ATIDSZ-14 | 2026-09-05 00:59:26 | 48.22661 | 17.76500 | 73° | 27km/h | 24662m | 5.6m/s | -51.6°C | 1.0% | 0hPa | 2.5V | 00:00:00 | 00:00:00 | 00:00:00 | |
| OE5DXL-15 | 2026-09-05 00:59:25 | 48.22656 | 17.76481 | 70° | 24km/h | 24653m | 4.4m/s | -51.6°C | 3.7% | 0hPa | 2.5V | 00:00:00 | 00:00:00 | 00:00:00 | |
| OE5MMP-10 | 2026-09-05 00:59:24 | 48.22654 | 17.76472 | 69° | 24km/h | 24648m | 6.1m/s | -51.5°C | 3.7% | 0hPa | 2.5V | 00:00:00 | 01:36:41 | 00:00:00 | |
| PG1ADW-2 | 2026-09-05 00:59:22 | 48.22649 | 17.76458 | 59° | 24km/h | 24637m | 4.8m/s | -51.6°C | 3.8% | 0hPa | 2.5V | 00:00:00 | 01:36:39 | 00:00:00 | |
| OE3MUC-15 | 2026-09-05 00:59:19 | 48.22637 | 17.76434 | 49° | 24km/h | 24620m | 5.1m/s | -51.5°C | 3.8% | 0hPa | 2.5V | 00:00:00 | 00:00:00 | 00:00:00 | |
| DO3MHA-11 | 2026-09-05 00:59:18 | 48.22633 | 17.76427 | 48° | 31km/h | 24614m | 6.6m/s | -51.5°C | 3.8% | 0hPa | 2.5V | 00:00:00 | 01:36:35 | 08:30:00 | |
| OE3MUC-15 | 2026-09-05 00:59:16 | 48.22621 | 17.76407 | 53° | 27km/h | 24596m | 5.9m/s | -51.4°C | 3.7% | 0hPa | 2.4V | 00:00:00 | 00:00:00 | 00:00:00 | |
| PETON7-10 | 2026-09-05 00:59:14 | 48.22618 | 17.76399 | 57° | 24km/h | 24590m | 6.5m/s | -51.4°C | 3.7% | 0hPa | 2.4V | 00:00:00 | 01:36:31 | 00:00:00 | |
| OE3MUC-15 | 2026-09-05 00:59:11 | 48.22606 | 17.76373 | 54° | 26km/h | 24572m | 6.1m/s | -51.3°C | 3.7% | 0hPa | 2.4V | 00:00:00 | 00:00:00 | 00:00:00 | |
| OM5KV | 2026-09-05 00:59:10 | 48.22606 | 17.76373 | 54° | 24km/h | 24572m | 6.1m/s | -51.4°C | 1.0% | 0hPa | 2.4V | 00:00:00 | 00:00:00 | 00:00:00 | |
| OE3MUC-15 | 2026-09-05 00:59:07 | 48.22589 | 17.76343 | 45° | 22km/h | 24551m | 4.2m/s | -51.3°C | 3.7% | 0hPa | 2.4V | 00:00:00 | 01:36:24 | 00:00:00 | |
| ATIDSZ-14 | 2026-09-05 00:59:06 | 48.22589 | 17.76343 | 46° | 29km/h | 24551m | 4.3m/s | -51.3°C | 1.0% | 0hPa | 2.4V | 00:00:00 | 00:00:00 | 00:00:00 | |
| OM5KV | 2026-09-05 00:59:05 | 48.22584 | 17.76336 | 44° | 26km/h | 24546m | 5.2m/s | -51.3°C | 1.0% | 0hPa | 2.4V | 00:00:00 | 00:00:00 | 00:00:00 | |
| OE5MMP-10 | 2026-09-05 00:59:04 | 48.22576 | 17.76326 | 35° | 22km/h | 24535m | 5.0m/s | -51.3°C | 3.7% | 0hPa | 2.4V | 00:00:00 | 01:36:21 | 00:00:00 | |
| OE3MUC-15 | 2026-09-05 00:59:03 | 48.22573 | 17.76323 | 33° | 20km/h | 24529m | 5.0m/s | -51.3°C | 3.7% | 0hPa | 2.4V | 00:00:00 | 00:00:00 | 00:00:00 | |
| PG1ADW-2 | 2026-09-05 00:59:02 | 48.22569 | 17.76319 | 43° | 18km/h | 24524m | 6.3m/s | -51.3°C | 3.7% | 0hPa | 2.4V | 00:00:00 | 00:00:00 | 00:00:00 | |
| OE3MUC-15 | 2026-09-05 00:59:00 | 48.22556 | 17.76301 | 39° | 24km/h | 24506m | 5.7m/s | -51.2°C | 3.6% | 0hPa | 2.4V | 00:00:00 | 00:00:00 | 08:30:00 | |
| OE5DRO-10 | 2026-09-05 00:58:58 | 48.22547 | 17.76291 | 31° | 15km/h | 24494m | 4.4m/s | -51.2°C | 3.6% | 0hPa | 2.4V | 00:00:00 | 00:00:00 | 00:00:00 | |
| SP9KGR-15 | 2026-09-05 00:58:57 | 48.22547 | 17.76291 | 32° | 22km/h | 24494m | 4.4m/s | 0°C | 0% | 0hPa | 2.4V | 00:00:00 | 00:00:00 | 00:00:00 | |
| OE3MUC-15 | 2026-09-05 00:58:56 | 48.22537 | 17.76281 | 39° | 22km/h | 24484m | 6.7m/s | -51.2°C | 3.6% | 0hPa | 2.4V | 00:00:00 | 00:00:00 | 00:00:00 | |
| OM5KV | 2026-09-05 00:58:55 | 48.22537 | 17.76281 | 40° | 26km/h | 24484m | 6.7m/s | -51.2°C | 1.0% | 0hPa | 2.4V | 00:00:00 | 00:00:00 | 00:00:00 | |
| OE5MMP-10 | 2026-09-05 00:58:54 | 48.22532 | 17.76275 | 43° | 15km/h | 24478m | 5.1m/s | -51.2°C | 3.6% | 0hPa | 2.4V | 00:00:00 | 01:36:11 | 00:00:00 | |
| OE3MUC-15 | 2026-09-05 00:58:51 | 48.22521 | 17.76260 | 38° | 9km/h | 24463m | 5.5m/s | -51.2°C | 3.6% | 0hPa | 2.4V | 00:00:00 | 00:00:00 | 00:00:00 | |
| OE3MUC-15 | 2026-09-05 00:58:47 | 48.22516 | 17.76247 | 66° | 16km/h | 24442m | 5.1m/s | -51.4°C | 3.7% | 0hPa | 2.4V | 00:00:00 | 00:00:00 | 00:00:00 | |
| ATIDSZ-14 | 2026-09-05 00:58:45 | 48.22514 | 17.76242 | 60° | 18km/h | 24437m | 4.1m/s | -51.5°C | 1.0% | 0hPa | 2.5V | 00:00:00 | 00:00:00 | 00:00:00 | |
| OE5MMP-10 | 2026-09-05 00:58:44 | 48.22508 | 17.76232 | 38° | 11km/h | 24427m | 5.4m/s | -51.4°C | 3.6% | 0hPa | 2.5V | 00:00:00 | 01:36:01 | 00:00:00 | |
| OE3MUC-15 | 2026-09-05 00:58:43 | 48.22505 | 17.76230 | 26° | 11km/h | 24422m | 5.5m/s | -51.4°C | 3.6% | 0hPa | 2.4V | 00:00:00 | 00:00:00 | 00:00:00 | |
| PG1ADW-2 | 2026-09-05 00:58:42 | 48.22503 | 17.76228 | 19° | 16km/h | 24416m | 5.1m/s | -51.5°C | 3.6% | 0hPa | 2.4V | 00:00:00 | 00:00:00 | 00:00:00 | |
| SP9KGR-15 | 2026-09-05 00:58:40 | 48.22501 | 17.76227 | 36° | 9km/h | 24411m | 6.0m/s | 0°C | 0% | 0hPa | 2.4V | 00:00:00 | 00:00:00 | 00:00:00 | |
| OE5DRO-10 | 2026-09-05 00:58:38 | 48.22497 | 17.76218 | 54° | 18km/h | 24396m | 5.5m/s | -51.7°C | 3.7% | 0hPa | 2.4V | 00:00:00 | 00:00:00 | 00:00:00 | |
| OE3MUC-15 | 2026-09-05 00:58:35 | 48.22491 | 17.76210 | 45° | 22km/h | 24380m | 4.3m/s | -51.7°C | 3.7% | 0hPa | 2.4V | 00:00:00 | 00:00:00 | 00:00:00 | |
| HA6NAB-11 | 2026-09-05 00:58:34 | 48.22488 | 17.76205 | 52° | 20km/h | 24375m | 6.4m/s | -51.7°C | 1.0% | 0hPa | 2.4V | 00:00:00 | 00:00:00 | 00:00:00 | |
| OE3MUC-15 | 2026-09-05 00:58:31 | 48.22475 | 17.76184 | 41° | 24km/h | 24359m | 6.1m/s | -51.7°C | 3.6% | 0hPa | 2.4V | 00:00:00 | 00:00:00 | 00:00:00 | |
| PETON7-10 | 2026-09-05 00:58:29 | 48.22464 | 17.76174 | 21° | 16km/h | 24349m | 4.2m/s | -51.8°C | 3.6% | 0hPa | 2.4V | 00:00:00 | 01:35:46 | 00:00:00 | |
| OE3MUC-15 | 2026-09-05 00:58:27 | 48.22454 | 17.76168 | 27° | 18km/h | 24340m | 4.9m/s | -51.9°C | 3.7% | 0hPa | 2.4V | 00:00:00 | 00:00:00 | 00:00:00 | |
| SP9KGR-15 | 2026-09-05 00:58:26 | 48.22451 | 17.76164 | 46° | 18km/h | 24334m | 5.9m/s | 0°C | 0% | 0hPa | 2.4V | 00:00:00 | 00:00:00 | 00:00:00 | |
| OE5DXL-15 | 2026-09-05 00:58:25 | 48.22445 | 17.76153 | 67° | 9km/h | 24323m | 5.2m/s | -52.0°C | 3.7% | 0hPa | 2.4V | 00:00:00 | 00:00:00 | 00:00:00 | |
| OE5MMP-10 | 2026-09-05 00:58:24 | 48.22445 | 17.76153 | 67° | 16km/h | 24323m | 5.2m/s | -52.0°C | 3.7% | 0hPa | 2.4V | 00:00:00 | 01:35:41 | 00:00:00 | |
| OE3MUC-15 | 2026-09-05 00:58:23 | 48.22443 | 17.76147 | 60° | 16km/h | 24318m | 5.0m/s | -52.0°C | 3.7% | 0hPa | 2.4V | 00:00:00 | 00:00:00 | 08:30:00 | |
| PG1ADW-2 | 2026-09-05 00:58:22 | 48.22441 | 17.76142 | 48° | 11km/h | 24313m | 5.5m/s | -52.0°C | 3.7% | 0hPa | 2.5V | 00:00:00 | 00:00:00 | 00:00:00 | |
| HA6NAB-11 | 2026-09-05 00:58:21 | 48.22441 | 17.76142 | 48° | 16km/h | 24313m | 5.6m/s | -52.0°C | 1.0% | 0hPa | 2.5V | 00:00:00 | 00:00:00 | 00:00:00 | |
| OM5KV | 2026-09-05 00:58:19 | 48.22430 | 17.76130 | 42° | 18km/h | 24297m | 6.1m/s | -52.0°C | 1.0% | 0hPa | 2.5V | 00:00:00 | 00:00:00 | 00:00:00 | |
| HA6NAB-11 | 2026-09-05 00:58:16 | 48.22422 | 17.76117 | 41° | 11km/h | 24282m | 4.8m/s | -52.1°C | 1.1% | 0hPa | 2.5V | 00:00:00 | 00:00:00 | 00:00:00 | |
| OE3MUC-15 | 2026-09-05 00:58:15 | 48.22420 | 17.76114 | 25° | 4km/h | 24276m | 6.0m/s | -52.1°C | 3.8% | 0hPa | 2.5V | 00:00:00 | 00:00:00 | 00:00:00 | |
| PETON7-10 | 2026-09-05 00:58:14 | 48.22419 | 17.76114 | 9° | 5km/h | 24271m | 4.7m/s | -52.2°C | 3.8% | 0hPa | 2.5V | 00:00:00 | 00:00:00 | 00:00:00 | |
| OM5KV | 2026-09-05 00:58:13 | 48.22419 | 17.76114 | 10° | 5km/h | 24271m | 4.7m/s | -52.3°C | 1.0% | 0hPa | 2.4V | 00:00:00 | 00:00:00 | 00:00:00 | |
| OE3MUC-15 | 2026-09-05 00:58:11 | 48.22419 | 17.76112 | 130° | 7km/h | 24255m | 5.1m/s | -52.3°C | 3.8% | 0hPa | 2.4V | 00:00:00 | 00:00:00 | 00:00:00 | |
| HA6NAB-11 | 2026-09-05 00:58:10 | 48.22421 | 17.76109 | 110° | 9km/h | 24250m | 3.7m/s | -52.4°C | 1.1% | 0hPa | 2.4V | 00:00:00 | 00:00:00 | 00:00:00 | |
| SP9KGR-15 | 2026-09-05 00:58:09 | 48.22421 | 17.76109 | 110° | 9km/h | 24250m | 3.7m/s | 0°C | 0% | 0hPa | 2.4V | 00:00:00 | 00:00:00 | 00:00:00 | |
| S52SK | 2026-09-05 00:58:08 | 48.22421 | 17.76106 | 92° | 7km/h | 24247m | 3.8m/s | -52.5°C | 1.0% | 0hPa | 2.4V | 00:00:00 | 00:00:00 | 00:00:00 | |
| OE3MUC-15 | 2026-09-05 00:58:07 | 48.22419 | 17.76102 | 33° | 9km/h | 24237m | 5.1m/s | -52.5°C | 3.9% | 0hPa | 2.4V | 00:00:00 | 00:00:00 | 00:00:00 | |
| OE5MMP-10 | 2026-09-05 00:58:04 | 48.22413 | 17.76098 | 36° | 5km/h | 24222m | 5.5m/s | -52.5°C | 3.9% | 0hPa | 2.4V | 00:00:00 | 01:35:21 | 00:00:00 | |
| OE3MUC-15 | 2026-09-05 00:58:03 | 48.22412 | 17.76096 | 49° | 5km/h | 24217m | 4.5m/s | -52.6°C | 3.9% | 0hPa | 2.4V | 00:00:00 | 00:00:00 | 00:00:00 | |
| OM5KV | 2026-09-05 00:58:02 | 48.22410 | 17.76094 | 39° | 5km/h | 24212m | 5.7m/s | -52.6°C | 1.1% | 0hPa | 2.4V | 00:00:00 | 00:00:00 | 00:00:00 | |
| OE3OSB-13 | 2026-09-05 00:57:46 | 48.22435 | 17.76058 | 158° | 22km/h | 24115m | 6.5m/s | -52.8°C | 1.0% | -1.0hPa | 2.4V | 00:00:00 | 00:00:00 | 00:00:00 | |
| PETON7-10 | 2026-09-05 00:57:44 | 48.22435 | 17.76058 | 159° | 15km/h | 24115m | 6.5m/s | -52.7°C | 3.9% | 0hPa | 2.4V | 00:00:00 | 01:35:01 | 00:00:00 | |
| ATIDSZ-14 | 2026-09-05 00:57:43 | 48.22434 | 17.76058 | 159° | 22km/h | 24115m | 6.5m/s | -52.8°C | 1.1% | 0hPa | 2.4V | 00:00:00 | 00:00:00 | 00:00:00 | |
| PG1ADW-2 | 2026-09-05 00:57:42 | 48.22443 | 17.76051 | 139° | 15km/h | 24104m | 4.7m/s | -52.8°C | 4.0% | 0hPa | 2.4V | 00:00:00 | 00:00:00 | 08:30:00 | |
| OE5DRO-10 | 2026-09-05 00:57:41 | 48.22446 | 17.76047 | 130° | 15km/h | 24098m | 6.2m/s | -52.7°C | 4.0% | 0hPa | 2.4V | 00:00:00 | 00:00:00 | 00:00:00 | |
| SP9KGR-15 | 2026-09-05 00:57:38 | 48.22451 | 17.76036 | 115° | 13km/h | 24087m | 3.6m/s | 0°C | 0% | 0hPa | 2.4V | 00:00:00 | 00:00:00 | 00:00:00 | |
| OE5MMP-10 | 2026-09-05 00:57:34 | 48.22459 | 17.76028 | 172° | 18km/h | 24061m | 5.4m/s | -52.7°C | 3.9% | 0hPa | 2.4V | 00:00:00 | 01:34:51 | 00:00:00 | |
| OM5KV | 2026-09-05 00:57:31 | 48.22468 | 17.76027 | 186° | 18km/h | 24050m | 7.0m/s | -52.8°C | 1.1% | 0hPa | 2.4V | 00:00:00 | 00:00:00 | 00:00:00 | |
| PETON7-10 | 2026-09-05 00:57:29 | 48.22481 | 17.76025 | 156° | 13km/h | 24035m | 6.1m/s | -52.8°C | 3.9% | 0hPa | 2.4V | 00:00:00 | 00:00:00 | 00:00:00 | |
| OE5MMP-10 | 2026-09-05 00:57:24 | 48.22494 | 17.75997 | 115° | 11km/h | 24008m | 4.9m/s | -52.8°C | 4.0% | 0hPa | 2.4V | 00:00:00 | 01:34:41 | 00:00:00 | |
| ATIDSZ-14 | 2026-09-05 00:57:23 | 48.22495 | 17.75998 | 116° | 9km/h | 24008m | 5.0m/s | -52.8°C | 1.1% | 0hPa | 2.4V | 00:00:00 | 00:00:00 | 00:00:00 | |
| PG1ADW-2 | 2026-09-05 00:57:22 | 48.22497 | 17.75994 | 157° | 11km/h | 23999m | 4.9m/s | -52.8°C | 4.0% | 0hPa | 2.4V | 00:00:00 | 00:00:00 | 00:00:00 | |
| OM5KV | 2026-09-05 00:57:19 | 48.22503 | 17.75990 | 157° | 15km/h | 23988m | 4.7m/s | -52.8°C | 1.1% | 0hPa | 2.4V | 00:00:00 | 00:00:00 | 00:00:00 | |
| OE3MUC-15 | 2026-09-05 00:57:15 | 48.22513 | 17.75979 | 124° | 11km/h | 23962m | 6.1m/s | -52.6°C | 3.9% | 0hPa | 2.4V | 00:00:00 | 00:00:00 | 00:00:00 | |
| OE5MMP-10 | 2026-09-05 00:57:14 | 48.22516 | 17.75974 | 123° | 13km/h | 23956m | 4.6m/s | -52.6°C | 3.9% | 0hPa | 2.4V | 00:00:00 | 01:34:31 | 00:00:00 | |
| OE3MUC-15 | 2026-09-05 00:57:10 | 48.22523 | 17.75960 | 127° | 13km/h | 23935m | 4.5m/s | -52.5°C | 3.9% | 0hPa | 2.4V | 00:00:00 | 00:00:00 | 08:30:00 | |
| OE3MUC-15 | 2026-09-05 00:57:06 | 48.22529 | 17.75943 | 115° | 13km/h | 23913m | 6.3m/s | -52.5°C | 3.9% | 0hPa | 2.4V | 00:00:00 | 00:00:00 | 00:00:00 | |
| OE5MMP-10 | 2026-09-05 00:57:04 | 48.22532 | 17.75936 | 117° | 11km/h | 23902m | 4.6m/s | -52.5°C | 3.9% | 0hPa | 2.4V | 00:00:00 | 01:34:21 | 00:00:00 | |
| OE5DRO-10 | 2026-09-05 00:57:03 | 48.22533 | 17.75931 | 121° | 13km/h | 23896m | 6.7m/s | -52.5°C | 3.9% | 0hPa | 2.4V | 00:00:00 | 00:00:00 | 00:00:00 | |
| OE3MUC-15 | 2026-09-05 00:57:02 | 48.22535 | 17.75927 | 129° | 9km/h | 23890m | 4.9m/s | -52.5°C | 3.9% | 0hPa | 2.4V | 00:00:00 | 00:00:00 | 00:00:00 | |
| SQ9EZE-14 | 2026-09-05 00:57:00 | 48.22537 | 17.75923 | 127° | 11km/h | 23885m | 4.1m/s | 0°C | 0% | 0hPa | 2.4V | 00:00:00 | 00:00:00 | 00:00:00 | |
| PETON7-10 | 2026-09-05 00:56:59 | 48.22539 | 17.75918 | 99° | 13km/h | 23873m | 5.4m/s | -52.4°C | 3.9% | 0hPa | 2.4V | 00:00:00 | 01:34:16 | 00:00:00 | |
| OE3MUC-15 | 2026-09-05 00:56:58 | 48.22539 | 17.75916 | 109° | 9km/h | 23868m | 5.3m/s | -52.4°C | 3.9% | 0hPa | 2.4V | 00:00:00 | 00:00:00 | 00:00:00 | |
| OM5KV | 2026-09-05 00:56:57 | 48.22540 | 17.75916 | 109° | 7km/h | 23868m | 5.4m/s | -52.4°C | 1.1% | 0hPa | 2.4V | 00:00:00 | 00:00:00 | 00:00:00 | |
| OE3MUC-15 | 2026-09-05 00:56:54 | 48.22540 | 17.75900 | 72° | 16km/h | 23845m | 6.3m/s | -52.3°C | 3.8% | 0hPa | 2.4V | 00:00:00 | 00:00:00 | 00:00:00 | |
| SP9KGR-15 | 2026-09-05 00:56:51 | 48.22538 | 17.75890 | 84° | 16km/h | 23834m | 5.4m/s | 0°C | 0% | 0hPa | 2.4V | 00:00:00 | 00:00:00 | 00:00:00 | |
| OE3MUC-15 | 2026-09-05 00:56:50 | 48.22538 | 17.75876 | 104° | 16km/h | 23822m | 4.3m/s | -52.2°C | 3.8% | 0hPa | 2.4V | 00:00:00 | 00:00:00 | 00:00:00 | |
| OE5DXL-15 | 2026-09-05 00:56:49 | 48.22541 | 17.75863 | 106° | 13km/h | 23813m | 6.5m/s | -52.2°C | 3.8% | 0hPa | 2.4V | 00:00:00 | 00:00:00 | 00:00:00 | |
| OE3MUC-15 | 2026-09-05 00:56:46 | 48.22542 | 17.75854 | 100° | 11km/h | 23801m | 4.8m/s | -52.2°C | 3.7% | 0hPa | 2.4V | 00:00:00 | 00:00:00 | 00:00:00 | |
| ATIDSZ-14 | 2026-09-05 00:56:44 | 48.22545 | 17.75847 | 137° | 11km/h | 23790m | 5.6m/s | -52.3°C | 1.0% | 0hPa | 2.5V | 00:00:00 | 00:00:00 | 00:00:00 | |
| OE3OSB-13 | 2026-09-05 00:56:43 | 48.22550 | 17.75841 | 124° | 11km/h | 23780m | 3.9m/s | -52.3°C | 1.0% | -1.0hPa | 2.5V | 00:00:00 | 00:00:00 | 00:00:00 | |
| OE3MUC-15 | 2026-09-05 00:56:42 | 48.22549 | 17.75841 | 125° | 11km/h | 23780m | 3.9m/s | -52.2°C | 3.8% | 0hPa | 2.5V | 00:00:00 | 00:00:00 | 00:00:00 | |
| OE3MUC-15 | 2026-09-05 00:56:38 | 48.22549 | 17.75825 | 73° | 15km/h | 23758m | 5.9m/s | -52.3°C | 3.7% | 0hPa | 2.5V | 00:00:00 | 00:00:00 | 00:00:00 | |
| OE3JTB-15 | 2026-09-05 00:56:37 | 48.22548 | 17.75821 | 75° | 13km/h | 23752m | 5.9m/s | -52.4°C | 3.7% | 0hPa | 2.5V | 00:00:00 | 01:33:54 | 00:00:00 | |
| OM5KV | 2026-09-05 00:56:36 | 48.22548 | 17.75821 | 76° | 13km/h | 23752m | 6.0m/s | -52.4°C | 1.0% | 0hPa | 2.5V | 00:00:00 | 00:00:00 | 00:00:00 | |
| OE3MUC-15 | 2026-09-05 00:56:34 | 48.22547 | 17.75804 | 80° | 16km/h | 23735m | 7.0m/s | -52.5°C | 3.8% | 0hPa | 2.5V | 00:00:00 | 00:00:00 | 08:30:00 | |
| OE3MUC-15 | 2026-09-05 00:56:30 | 48.22547 | 17.75781 | 133° | 7km/h | 23712m | 5.3m/s | -52.8°C | 3.9% | 0hPa | 2.5V | 00:00:00 | 00:00:00 | 00:00:00 | |
| PETON7-10 | 2026-09-05 00:56:29 | 48.22549 | 17.75779 | 148° | 11km/h | 23706m | 3.9m/s | -52.8°C | 3.9% | 0hPa | 2.5V | 00:00:00 | 00:00:00 | 00:00:00 | |
| OE3MUC-15 | 2026-09-05 00:56:26 | 48.22550 | 17.75774 | 51° | 9km/h | 23690m | 5.1m/s | -53.0°C | 3.9% | 0hPa | 2.5V | 00:00:00 | 00:00:00 | 00:00:00 | |
| OE5MMP-10 | 2026-09-05 00:56:24 | 48.22547 | 17.75768 | 52° | 13km/h | 23680m | 5.6m/s | -53.0°C | 3.9% | 0hPa | 2.5V | 00:00:00 | 01:33:41 | 00:00:00 | |
| PG1ADW-2 | 2026-09-05 00:56:22 | 48.22545 | 17.75761 | 84° | 11km/h | 23668m | 5.2m/s | -53.1°C | 4.0% | 0hPa | 2.5V | 00:00:00 | 00:00:00 | 00:00:00 | |
| OE3MUC-15 | 2026-09-05 00:56:18 | 48.22543 | 17.75742 | 77° | 16km/h | 23647m | 4.5m/s | -53.2°C | 4.0% | 0hPa | 2.5V | 00:00:00 | 00:00:00 | 00:00:00 | |
| PETON7-10 | 2026-09-05 00:56:14 | 48.22547 | 17.75721 | 134° | 11km/h | 23624m | 5.0m/s | -53.4°C | 4.0% | 0hPa | 2.5V | 00:00:00 | 01:33:31 | 00:00:00 | |
| OM5KV | 2026-09-05 00:56:13 | 48.22549 | 17.75718 | 131° | 9km/h | 23619m | 6.7m/s | -53.6°C | 1.1% | 0hPa | 2.5V | 00:00:00 | 00:00:00 | 00:00:00 | |
| OE3OSB-13 | 2026-09-05 00:56:12 | 48.22551 | 17.75713 | 89° | 5km/h | 23607m | 4.6m/s | -53.7°C | 1.0% | -1.0hPa | 2.5V | 00:00:00 | 00:00:00 | 00:00:00 | |
| OE3MUC-15 | 2026-09-05 00:56:10 | 48.22551 | 17.75711 | 98° | 9km/h | 23602m | 5.6m/s | -53.6°C | 4.1% | 0hPa | 2.5V | 00:00:00 | 01:33:27 | 00:00:00 | |
| OE3JTB-15 | 2026-09-05 00:56:08 | 48.22551 | 17.75705 | 87° | 64km/h | 23591m | 4.4m/s | -53.6°C | 4.1% | 0hPa | 2.4V | 00:00:00 | 00:00:00 | 00:00:00 | |
| OE3MUC-15 | 2026-09-05 00:56:06 | 48.22549 | 17.75698 | 50° | 13km/h | 23580m | 6.5m/s | -53.6°C | 4.1% | 0hPa | 2.5V | 00:00:00 | 00:00:00 | 00:00:00 | |
| OE5DRO-10 | 2026-09-05 00:56:05 | 48.22547 | 17.75694 | 40° | 13km/h | 23573m | 4.9m/s | -53.7°C | 4.1% | 0hPa | 2.5V | 00:00:00 | 00:00:00 | 00:00:00 | |
| OE5MMP-10 | 2026-09-05 00:56:04 | 48.22544 | 17.75690 | 55° | 11km/h | 23568m | 5.4m/s | -53.7°C | 4.1% | 0hPa | 2.5V | 00:00:00 | 01:33:21 | 00:00:00 | |
| OE3MUC-15 | 2026-09-05 00:56:02 | 48.22542 | 17.75681 | 84° | 11km/h | 23556m | 5.5m/s | -53.7°C | 4.1% | 0hPa | 2.5V | 00:00:00 | 00:00:00 | 00:00:00 | |
| PETON7-10 | 2026-09-05 00:55:59 | 48.22540 | 17.75669 | 62° | 11km/h | 23538m | 5.8m/s | -53.7°C | 4.1% | 0hPa | 2.5V | 00:00:00 | 00:00:00 | 00:00:00 | |
| OE3MUC-15 | 2026-09-05 00:55:58 | 48.22538 | 17.75665 | 73° | 11km/h | 23532m | 5.4m/s | -53.7°C | 4.1% | 0hPa | 2.5V | 00:00:00 | 00:00:00 | 08:30:00 | |
| OM5KV | 2026-09-05 00:55:55 | 48.22538 | 17.75657 | 86° | 11km/h | 23518m | 6.2m/s | -53.7°C | 1.2% | 0hPa | 2.4V | 00:00:00 | 00:00:00 | 00:00:00 | |
| OE3MUC-15 | 2026-09-05 00:55:54 | 48.22536 | 17.75649 | 63° | 13km/h | 23506m | 6.7m/s | -53.6°C | 4.1% | 0hPa | 2.4V | 00:00:00 | 00:00:00 | 00:00:00 | |
| OE3MUC-15 | 2026-09-05 00:55:50 | 48.22531 | 17.75630 | 91° | 11km/h | 23483m | 4.8m/s | -53.5°C | 4.1% | 0hPa | 2.4V | 00:00:00 | 00:00:00 | 00:00:00 | |
| OE3MUC-15 | 2026-09-05 00:55:46 | 48.22530 | 17.75614 | 100° | 11km/h | 23460m | 5.4m/s | -53.5°C | 4.0% | 0hPa | 2.4V | 00:00:00 | 00:00:00 | 00:00:00 | |
| PETON7-10 | 2026-09-05 00:55:44 | 48.22531 | 17.75606 | 97° | 15km/h | 23447m | 4.6m/s | -53.5°C | 4.0% | 0hPa | 2.4V | 00:00:00 | 00:00:00 | 00:00:00 | |
| ATIDSZ-14 | 2026-09-05 00:55:42 | 48.22530 | 17.75599 | 50° | 11km/h | 23437m | 7.2m/s | -53.6°C | 1.1% | 0hPa | 2.4V | 00:00:00 | 00:00:00 | 00:00:00 | |
| HA6NAB-11 | 2026-09-05 00:55:41 | 48.22528 | 17.75596 | 26° | 13km/h | 23430m | 5.7m/s | -53.6°C | 1.1% | 0hPa | 2.4V | 00:00:00 | 00:00:00 | 00:00:00 | |
| OM5KV | 2026-09-05 00:55:38 | 48.22521 | 17.75592 | 31° | 16km/h | 23420m | 5.0m/s | -53.7°C | 1.1% | 0hPa | 2.4V | 00:00:00 | 00:00:00 | 00:00:00 | |
| HA6NAB-11 | 2026-09-05 00:55:35 | 48.22512 | 17.75577 | 58° | 18km/h | 23404m | 4.1m/s | -53.7°C | 1.2% | 0hPa | 2.4V | 00:00:00 | 00:00:00 | 00:00:00 | |
| OE5MMP-10 | 2026-09-05 00:55:34 | 48.22507 | 17.75567 | 45° | 11km/h | 23392m | 5.8m/s | -53.7°C | 4.1% | 0hPa | 2.4V | 00:00:00 | 01:32:51 | 00:00:00 | |
| S52SK | 2026-09-05 00:55:33 | 48.22507 | 17.75567 | 45° | 16km/h | 23392m | 5.8m/s | -53.7°C | 1.2% | 0hPa | 2.4V | 00:00:00 | 00:00:00 | 00:00:00 | |
| HA6NAB-11 | 2026-09-05 00:55:30 | 48.22500 | 17.75554 | 59° | 15km/h | 23374m | 5.7m/s | -53.7°C | 1.1% | 0hPa | 2.4V | 00:00:00 | 00:00:00 | 00:00:00 | |
| S52SK | 2026-09-05 00:55:29 | 48.22496 | 17.75547 | 27° | 9km/h | 23362m | 6.9m/s | -53.6°C | 1.2% | 0hPa | 2.4V | 00:00:00 | 00:00:00 | 00:00:00 | |
| HA6NAB-11 | 2026-09-05 00:55:25 | 48.22490 | 17.75544 | 72° | 7km/h | 23339m | 6.1m/s | -53.6°C | 1.1% | 0hPa | 2.4V | 00:00:00 | 00:00:00 | 00:00:00 | |
| OE5MMP-10 | 2026-09-05 00:55:24 | 48.22489 | 17.75540 | 75° | 13km/h | 23333m | 4.3m/s | -53.5°C | 4.0% | 0hPa | 2.4V | 00:00:00 | 01:32:41 | 00:00:00 | |
| PG1ADW-2 | 2026-09-05 00:55:22 | 48.22486 | 17.75530 | 51° | 11km/h | 23323m | 6.4m/s | -53.6°C | 4.0% | 0hPa | 2.4V | 00:00:00 | 01:32:39 | 00:00:00 | |
| ATIDSZ-14 | 2026-09-05 00:55:21 | 48.22486 | 17.75530 | 51° | 16km/h | 23323m | 6.4m/s | -53.6°C | 1.1% | 0hPa | 2.4V | 00:00:00 | 00:00:00 | 00:00:00 | |
| HA6NAB-11 | 2026-09-05 00:55:19 | 48.22479 | 17.75523 | 17° | 16km/h | 23311m | 4.6m/s | -53.7°C | 1.2% | 0hPa | 2.4V | 00:00:00 | 00:00:00 | 00:00:00 | |
| OM5KV | 2026-09-05 00:55:18 | 48.22471 | 17.75521 | 17° | 13km/h | 23301m | 6.0m/s | -53.7°C | 1.2% | 0hPa | 2.4V | 00:00:00 | 00:00:00 | 00:00:00 | |
| OE3MUC-15 | 2026-09-05 00:55:14 | 48.22462 | 17.75515 | 9° | 9km/h | 23277m | 6.6m/s | -53.7°C | 4.1% | 0hPa | 2.4V | 00:00:00 | 00:00:00 | 00:00:00 | |
| OE3MUC-15 | 2026-09-05 00:55:10 | 48.22452 | 17.75514 | 45° | 11km/h | 23255m | 5.3m/s | -53.7°C | 4.0% | 0hPa | 2.4V | 00:00:00 | 00:00:00 | 00:00:00 | |
| HA6NAB-11 | 2026-09-05 00:55:08 | 48.22451 | 17.75511 | 58° | 9km/h | 23249m | 4.4m/s | -53.8°C | 1.2% | 0hPa | 2.4V | 00:00:00 | 00:00:00 | 00:00:00 | |
| OE3MUC-15 | 2026-09-05 00:55:06 | 48.22444 | 17.75503 | 24° | 11km/h | 23232m | 4.4m/s | -53.8°C | 4.1% | 0hPa | 2.4V | 00:00:00 | 00:00:00 | 00:00:00 | |
| OE5MMP-10 | 2026-09-05 00:55:04 | 48.22438 | 17.75498 | 36° | 11km/h | 23220m | 6.1m/s | -53.9°C | 4.1% | 0hPa | 2.4V | 00:00:00 | 01:32:21 | 00:00:00 | |
| PG1ADW-2 | 2026-09-05 00:55:02 | 48.22434 | 17.75494 | 31° | 13km/h | 23209m | 5.5m/s | -53.9°C | 4.1% | 0hPa | 2.4V | 00:00:00 | 00:00:00 | 00:00:00 | |
| ATIDSZ-14 | 2026-09-05 00:55:01 | 48.22432 | 17.75493 | 23° | 11km/h | 23203m | 5.9m/s | -54.0°C | 1.2% | 0hPa | 2.4V | 00:00:00 | 00:00:00 | 00:00:00 | |
| PETON7-10 | 2026-09-05 00:54:59 | 48.22428 | 17.75488 | 43° | 13km/h | 23191m | 6.2m/s | -54.0°C | 4.2% | 0hPa | 2.4V | 00:00:00 | 00:00:00 | 00:00:00 | |
| OE3MUC-15 | 2026-09-05 00:54:58 | 48.22426 | 17.75485 | 60° | 13km/h | 23186m | 5.2m/s | -54.1°C | 4.2% | 0hPa | 2.4V | 00:00:00 | 00:00:00 | 00:00:00 | |
| OE3MUC-15 | 2026-09-05 00:54:54 | 48.22417 | 17.75471 | 25° | 15km/h | 23164m | 3.8m/s | -54.2°C | 4.3% | 0hPa | 2.5V | 00:00:00 | 00:00:00 | 00:00:00 | |
| OE3MUC-15 | 2026-09-05 00:54:50 | 48.22403 | 17.75465 | 14° | 15km/h | 23142m | 6.5m/s | -54.2°C | 4.3% | 0hPa | 2.5V | 00:00:00 | 00:00:00 | 00:00:00 | |
| OM5KV | 2026-09-05 00:54:49 | 48.22403 | 17.75465 | 15° | 16km/h | 23142m | 6.6m/s | -54.2°C | 1.2% | 0hPa | 2.5V | 00:00:00 | 00:00:00 | 00:00:00 | |
| OE3MUC-15 | 2026-09-05 00:54:46 | 48.22390 | 17.75456 | 22° | 9km/h | 23118m | 5.3m/s | -54.1°C | 4.3% | 0hPa | 2.5V | 00:00:00 | 00:00:00 | 08:30:00 | |
| PETON7-10 | 2026-09-05 00:54:44 | 48.22386 | 17.75455 | 11° | 9km/h | 23107m | 6.3m/s | -54.0°C | 4.2% | 0hPa | 2.4V | 00:00:00 | 01:32:01 | 00:00:00 | |
| OE3MUC-15 | 2026-09-05 00:54:42 | 48.22380 | 17.75454 | 358° | 13km/h | 23095m | 5.0m/s | -53.9°C | 4.2% | 0hPa | 2.4V | 00:00:00 | 00:00:00 | 00:00:00 | |
| ATIDSZ-14 | 2026-09-05 00:54:41 | 48.22376 | 17.75454 | 357° | 13km/h | 23090m | 6.1m/s | -53.9°C | 1.2% | 0hPa | 2.4V | 00:00:00 | 00:00:00 | 00:00:00 | |
| OE3OSB-13 | 2026-09-05 00:54:39 | 48.22368 | 17.75456 | 2° | 11km/h | 23073m | 6.7m/s | -53.8°C | 1.1% | -1.0hPa | 2.4V | 00:00:00 | 00:00:00 | 00:00:00 | |
| OE3MUC-15 | 2026-09-05 00:54:38 | 48.22368 | 17.75456 | 3° | 9km/h | 23073m | 6.6m/s | -53.8°C | 4.1% | 0hPa | 2.4V | 00:00:00 | 00:00:00 | 00:00:00 | |
| OE3MUC-15 | 2026-09-05 00:54:34 | 48.22360 | 17.75453 | 290° | 4km/h | 23051m | 5.1m/s | -53.7°C | 4.1% | 0hPa | 2.4V | 00:00:00 | 00:00:00 | 00:00:00 | |
| OM5KV | 2026-09-05 00:54:33 | 48.22359 | 17.75454 | 270° | 2km/h | 23045m | 4.7m/s | -53.7°C | 1.2% | 0hPa | 2.4V | 00:00:00 | 00:00:00 | 00:00:00 | |
| OE3MUC-15 | 2026-09-05 00:54:30 | 48.22356 | 17.75458 | 324° | 7km/h | 23029m | 3.8m/s | -53.7°C | 4.1% | 0hPa | 2.4V | 00:00:00 | 00:00:00 | 00:00:00 | |
| PETON7-10 | 2026-09-05 00:54:29 | 48.22355 | 17.75460 | 301° | 9km/h | 23024m | 5.3m/s | -53.7°C | 4.1% | 0hPa | 2.4V | 00:00:00 | 00:00:00 | 08:30:00 | |
| OE3MUC-15 | 2026-09-05 00:54:26 | 48.22353 | 17.75467 | 343° | 7km/h | 23008m | 4.4m/s | -53.8°C | 4.2% | 0hPa | 2.5V | 00:00:00 | 00:00:00 | 00:00:00 | |
| OE5MMP-10 | 2026-09-05 00:54:24 | 48.22349 | 17.75466 | 21° | 9km/h | 22997m | 5.0m/s | -53.8°C | 4.2% | 0hPa | 2.5V | 00:00:00 | 01:31:41 | 00:00:00 | |
| PG1ADW-2 | 2026-09-05 00:54:22 | 48.22345 | 17.75464 | 11° | 9km/h | 22988m | 5.3m/s | -53.7°C | 4.1% | 0hPa | 2.5V | 00:00:00 | 00:00:00 | 00:00:00 | |
| ATIDSZ-14 | 2026-09-05 00:54:19 | 48.22344 | 17.75466 | 258° | 7km/h | 22976m | 5.2m/s | -53.8°C | 1.2% | 0hPa | 2.5V | 00:00:00 | 00:00:00 | 00:00:00 | |
| OE3MUC-15 | 2026-09-05 00:54:18 | 48.22346 | 17.75474 | 256° | 13km/h | 22965m | 5.5m/s | -53.7°C | 4.2% | 0hPa | 2.5V | 00:00:00 | 00:00:00 | 00:00:00 | |
| GYPAP8-17 | 2026-09-05 00:54:15 | 48.22347 | 17.75484 | 277° | 11km/h | 22954m | 4.7m/s | -53.7°C | 1.2% | 0hPa | 2.5V | 00:00:00 | 00:00:00 | 00:00:00 | |
| PETON7-10 | 2026-09-05 00:54:14 | 48.22348 | 17.75491 | 249° | 7km/h | 22943m | 5.7m/s | -53.6°C | 4.1% | 0hPa | 2.5V | 00:00:00 | 00:00:00 | 00:00:00 | |
| OE3MUC-15 | 2026-09-05 00:54:10 | 48.22348 | 17.75499 | 315° | 7km/h | 22920m | 4.3m/s | -53.4°C | 4.1% | 0hPa | 2.5V | 00:00:00 | 00:00:00 | 08:30:00 | |
| OE3OSB-13 | 2026-09-05 00:54:08 | 48.22347 | 17.75506 | 257° | 5km/h | 22904m | 3.8m/s | -53.4°C | 1.0% | -1.0hPa | 2.5V | 00:00:00 | 00:00:00 | 00:00:00 | |
| OE3MUC-15 | 2026-09-05 00:54:06 | 48.22347 | 17.75509 | 283° | 11km/h | 22899m | 5.7m/s | -53.3°C | 4.0% | 0hPa | 2.5V | 00:00:00 | 00:00:00 | 00:00:00 | |
| OE5MMP-10 | 2026-09-05 00:54:04 | 48.22345 | 17.75516 | 289° | 5km/h | 22887m | 4.4m/s | -53.2°C | 4.0% | 0hPa | 2.5V | 00:00:00 | 01:31:21 | 00:00:00 | |
| OE3MUC-15 | 2026-09-05 00:54:02 | 48.22344 | 17.75524 | 262° | 7km/h | 22876m | 5.1m/s | -53.2°C | 4.0% | 0hPa | 2.5V | 00:00:00 | 00:00:00 | 00:00:00 | |
| PETON7-10 | 2026-09-05 00:53:59 | 48.22344 | 17.75531 | 336° | 9km/h | 22860m | 5.3m/s | -53.2°C | 4.0% | 0hPa | 2.5V | 00:00:00 | 01:31:16 | 00:00:00 | |
| OE3MUC-15 | 2026-09-05 00:53:58 | 48.22342 | 17.75531 | 20° | 4km/h | 22855m | 3.1m/s | -53.2°C | 4.0% | 0hPa | 2.5V | 00:00:00 | 00:00:00 | 00:00:00 | |
| OM5KV | 2026-09-05 00:53:57 | 48.22343 | 17.75531 | 20° | 5km/h | 22855m | 3.2m/s | -53.3°C | 1.2% | 0hPa | 2.4V | 00:00:00 | 00:00:00 | 00:00:00 | |
| OE3MUC-15 | 2026-09-05 00:53:54 | 48.22339 | 17.75529 | 355° | 11km/h | 22835m | 5.7m/s | -53.1°C | 4.0% | 0hPa | 2.4V | 00:00:00 | 00:00:00 | 00:00:00 | |
| OE3MUC-15 | 2026-09-05 00:53:50 | 48.22331 | 17.75538 | 295° | 16km/h | 22812m | 5.2m/s | -53.1°C | 3.9% | 0hPa | 2.4V | 00:00:00 | 00:00:00 | 00:00:00 | |
| OE3MUC-15 | 2026-09-05 00:53:46 | 48.22323 | 17.75559 | 304° | 9km/h | 22793m | 3.3m/s | -53.2°C | 4.0% | 0hPa | 2.4V | 00:00:00 | 00:00:00 | 00:00:00 | |
| OM5KV | 2026-09-05 00:53:45 | 48.22323 | 17.75559 | 305° | 13km/h | 22793m | 3.3m/s | -53.2°C | 1.1% | 0hPa | 2.5V | 00:00:00 | 00:00:00 | 00:00:00 | |
| PETON7-10 | 2026-09-05 00:53:44 | 48.22321 | 17.75566 | 278° | 7km/h | 22782m | 5.3m/s | -53.3°C | 4.0% | 0hPa | 2.5V | 00:00:00 | 00:00:00 | 00:00:00 | |
| PG1ADW-2 | 2026-09-05 00:53:42 | 48.22320 | 17.75567 | 25° | 7km/h | 22773m | 6.4m/s | -53.4°C | 4.1% | 0hPa | 2.5V | 00:00:00 | 00:00:00 | 00:00:00 | |
| OM5KV | 2026-09-05 00:53:39 | 48.22316 | 17.75564 | 48° | 9km/h | 22762m | 4.3m/s | -53.4°C | 1.2% | 0hPa | 2.4V | 00:00:00 | 00:00:00 | 00:00:00 | |
| ATIDSZ-14 | 2026-09-05 00:53:38 | 48.22315 | 17.75561 | 52° | 9km/h | 22757m | 5.5m/s | -53.4°C | 1.2% | 0hPa | 2.4V | 00:00:00 | 00:00:00 | 00:00:00 | |
| OE3OSB-13 | 2026-09-05 00:53:37 | 48.22310 | 17.75556 | 6° | 7km/h | 22735m | 5.7m/s | -53.4°C | 1.1% | -1.0hPa | 2.4V | 00:00:00 | 00:00:00 | 00:00:00 | |
| OE5MMP-10 | 2026-09-05 00:53:34 | 48.22308 | 17.75555 | 358° | 5km/h | 22730m | 4.4m/s | -53.3°C | 4.1% | 0hPa | 2.4V | 00:00:00 | 01:30:51 | 00:00:00 | |
| S52SK | 2026-09-05 00:53:32 | 48.22306 | 17.75556 | 348° | 7km/h | 22724m | 6.0m/s | -53.4°C | 1.2% | 0hPa | 2.4V | 00:00:00 | 00:00:00 | 00:00:00 | |
| PETON7-10 | 2026-09-05 00:53:29 | 48.22300 | 17.75557 | 360° | 11km/h | 22704m | 4.6m/s | -53.2°C | 4.1% | 0hPa | 2.4V | 00:00:00 | 00:00:00 | 00:00:00 | |
| OE5MMP-10 | 2026-09-05 00:53:24 | 48.22297 | 17.75549 | 47° | 15km/h | 22680m | 5.7m/s | -53.3°C | 4.1% | 0hPa | 2.4V | 00:00:00 | 01:30:41 | 00:00:00 | |
| PG1ADW-2 | 2026-09-05 00:53:22 | 48.22291 | 17.75543 | 34° | 16km/h | 22670m | 4.7m/s | -53.3°C | 4.0% | 0hPa | 2.4V | 00:00:00 | 00:00:00 | 00:00:00 | |
| OM5KV | 2026-09-05 00:53:21 | 48.22291 | 17.75543 | 35° | 16km/h | 22670m | 4.7m/s | -53.3°C | 1.1% | 0hPa | 2.4V | 00:00:00 | 00:00:00 | 00:00:00 | |
| OE3MUC-15 | 2026-09-05 00:53:18 | 48.22279 | 17.75527 | 44° | 13km/h | 22649m | 5.9m/s | -53.3°C | 4.0% | 0hPa | 2.4V | 00:00:00 | 00:00:00 | 00:00:00 | |
| OE3MUC-15 | 2026-09-05 00:53:14 | 48.22270 | 17.75516 | 47° | 11km/h | 22628m | 4.1m/s | -53.4°C | 4.0% | 0hPa | 2.4V | 00:00:00 | 01:30:31 | 00:00:00 | |
| OE3MUC-15 | 2026-09-05 00:53:10 | 48.22257 | 17.75511 | 15° | 24km/h | 22610m | 4.3m/s | -53.3°C | 4.0% | 0hPa | 2.4V | 00:00:00 | 00:00:00 | 00:00:00 | |
| HA6NAB-11 | 2026-09-05 00:53:08 | 48.22252 | 17.75508 | 26° | 24km/h | 22605m | 4.8m/s | -53.3°C | 1.1% | 0hPa | 2.4V | 00:00:00 | 00:00:00 | 00:00:00 | |
| OE3MUC-15 | 2026-09-05 00:53:06 | 48.22239 | 17.75491 | 52° | 20km/h | 22590m | 3.2m/s | -53.3°C | 4.0% | 0hPa | 2.4V | 00:00:00 | 00:00:00 | 00:00:00 | |
| OE3OSB-13 | 2026-09-05 00:53:05 | 48.22232 | 17.75479 | 49° | 18km/h | 22581m | 5.6m/s | -53.3°C | 1.0% | -1.0hPa | 2.4V | 00:00:00 | 00:00:00 | 00:00:00 | |
| HA6NAB-11 | 2026-09-05 00:53:04 | 48.22232 | 17.75479 | 50° | 18km/h | 22581m | 5.6m/s | -53.3°C | 1.1% | 0hPa | 2.4V | 00:00:00 | 00:00:00 | 00:00:00 | |
| OE3MUC-15 | 2026-09-05 00:53:02 | 48.22226 | 17.75470 | 48° | 11km/h | 22571m | 4.5m/s | -53.3°C | 3.9% | 0hPa | 2.4V | 00:00:00 | 00:00:00 | 00:00:00 | |
| PETON7-10 | 2026-09-05 00:52:59 | 48.22220 | 17.75461 | 29° | 22km/h | 22556m | 4.8m/s | -53.3°C | 3.9% | 0hPa | 2.4V | 00:00:00 | 00:00:00 | 00:00:00 | |
| OE3MUC-15 | 2026-09-05 00:52:58 | 48.22217 | 17.75459 | 25° | 24km/h | 22551m | 5.7m/s | -53.3°C | 3.9% | 0hPa | 2.4V | 00:00:00 | 00:00:00 | 08:30:00 | |
| HA6NAB-11 | 2026-09-05 00:52:57 | 48.22217 | 17.75459 | 26° | 16km/h | 22551m | 5.7m/s | -53.4°C | 1.1% | 0hPa | 2.5V | 00:00:00 | 00:00:00 | 00:00:00 | |
| OE3MUC-15 | 2026-09-05 00:52:54 | 48.22196 | 17.75438 | 46° | 26km/h | 22531m | 4.8m/s | -53.6°C | 4.0% | 0hPa | 2.5V | 00:00:00 | 00:00:00 | 00:00:00 | |
| HA6NAB-11 | 2026-09-05 00:52:51 | 48.22188 | 17.75423 | 61° | 24km/h | 22522m | 4.5m/s | -53.6°C | 1.2% | 0hPa | 2.5V | 00:00:00 | 00:00:00 | 00:00:00 | |
| OE3MUC-15 | 2026-09-05 00:52:50 | 48.22181 | 17.75408 | 49° | 22km/h | 22513m | 4.5m/s | -53.6°C | 4.0% | 0hPa | 2.5V | 00:00:00 | 00:00:00 | 00:00:00 | |
| OE3MUC-15 | 2026-09-05 00:52:46 | 48.22169 | 17.75384 | 67° | 15km/h | 22493m | 5.0m/s | -53.8°C | 4.0% | 0hPa | 2.5V | 00:00:00 | 00:00:00 | 00:00:00 | |
| HA6NAB-11 | 2026-09-05 00:52:45 | 48.22168 | 17.75384 | 67° | 16km/h | 22493m | 5.1m/s | -53.8°C | 1.2% | 0hPa | 2.5V | 00:00:00 | 00:00:00 | 00:00:00 | |
| PETON7-10 | 2026-09-05 00:52:44 | 48.22164 | 17.75375 | 42° | 22km/h | 22482m | 5.6m/s | -54.0°C | 4.2% | 0hPa | 2.5V | 00:00:00 | 00:00:00 | 00:00:00 | |
| OE3MUC-15 | 2026-09-05 00:52:42 | 48.22159 | 17.75370 | 27° | 11km/h | 22473m | 4.1m/s | -54.3°C | 4.2% | 0hPa | 2.5V | 00:00:00 | 00:00:00 | 00:00:00 | |
| OE3MUC-15 | 2026-09-05 00:52:38 | 48.22151 | 17.75359 | 35° | 27km/h | 22452m | 6.1m/s | -54.3°C | 4.3% | 0hPa | 2.5V | 00:00:00 | 00:00:00 | 00:00:00 | |
| ATIDSZ-14 | 2026-09-05 00:52:37 | 48.22151 | 17.75359 | 36° | 18km/h | 22452m | 6.1m/s | -54.4°C | 1.2% | 0hPa | 2.5V | 00:00:00 | 00:00:00 | 00:00:00 | |
| OE3MUC-15 | 2026-09-05 00:52:34 | 48.22129 | 17.75332 | 44° | 31km/h | 22431m | 4.0m/s | -54.2°C | 4.3% | 0hPa | 2.5V | 00:00:00 | 00:00:00 | 00:00:00 | |
| OM5KV | 2026-09-05 00:52:33 | 48.22129 | 17.75332 | 45° | 33km/h | 22431m | 4.0m/s | -54.3°C | 1.2% | 0hPa | 2.4V | 00:00:00 | 00:00:00 | 00:00:00 | |
| OE3MUC-15 | 2026-09-05 00:52:30 | 48.22105 | 17.75303 | 28° | 18km/h | 22411m | 3.5m/s | -54.2°C | 4.3% | 0hPa | 2.4V | 00:00:00 | 00:00:00 | 00:00:00 | |
| PETON7-10 | 2026-09-05 00:52:29 | 48.22099 | 17.75299 | 38° | 18km/h | 22407m | 4.6m/s | -54.1°C | 4.2% | 0hPa | 2.4V | 00:00:00 | 01:29:46 | 00:00:00 | |
| OM5KV | 2026-09-05 00:52:27 | 48.22093 | 17.75290 | 52° | 13km/h | 22396m | 5.1m/s | -54.1°C | 1.2% | 0hPa | 2.4V | 00:00:00 | 00:00:00 | 00:00:00 | |
| OE3MUC-15 | 2026-09-05 00:52:26 | 48.22091 | 17.75287 | 44° | 13km/h | 22390m | 5.3m/s | -54.0°C | 4.2% | 0hPa | 2.4V | 00:00:00 | 00:00:00 | 00:00:00 | |
| OE5MMP-10 | 2026-09-05 00:52:24 | 48.22087 | 17.75282 | 26° | 20km/h | 22380m | 3.6m/s | -54.0°C | 4.2% | 0hPa | 2.4V | 00:00:00 | 01:29:41 | 00:00:00 | |
| SQ9EZE-14 | 2026-09-05 00:52:23 | 48.22087 | 17.75282 | 27° | 13km/h | 22380m | 3.7m/s | 0°C | 0% | 0hPa | 2.4V | 00:00:00 | 00:00:00 | 00:00:00 | |
| OE3MUC-15 | 2026-09-05 00:52:22 | 48.22081 | 17.75277 | 39° | 20km/h | 22371m | 5.3m/s | -53.9°C | 4.2% | 0hPa | 2.4V | 00:00:00 | 00:00:00 | 08:30:00 | |
| OE3MUC-15 | 2026-09-05 00:52:18 | 48.22062 | 17.75262 | 23° | 24km/h | 22349m | 4.0m/s | -54.0°C | 4.2% | 0hPa | 2.4V | 00:00:00 | 00:00:00 | 00:00:00 | |
| ATIDSZ-14 | 2026-09-05 00:52:17 | 48.22062 | 17.75262 | 24° | 24km/h | 22349m | 4.0m/s | -54.0°C | 1.2% | 0hPa | 2.4V | 00:00:00 | 00:00:00 | 00:00:00 | |
| PETON7-10 | 2026-09-05 00:52:14 | 48.22042 | 17.75246 | 27° | 13km/h | 22329m | 5.6m/s | -54.0°C | 4.2% | 0hPa | 2.4V | 00:00:00 | 00:00:00 | 08:30:00 | |
| OE3MUC-15 | 2026-09-05 00:52:10 | 48.22031 | 17.75238 | 53° | 11km/h | 22308m | 4.6m/s | -54.0°C | 4.1% | 0hPa | 2.4V | 00:00:00 | 00:00:00 | 00:00:00 | |
| OM5KV | 2026-09-05 00:52:08 | 48.22029 | 17.75235 | 46° | 9km/h | 22303m | 4.3m/s | -54.0°C | 1.2% | 0hPa | 2.5V | 00:00:00 | 00:00:00 | 00:00:00 | |
| OE3MUC-15 | 2026-09-05 00:52:06 | 48.22022 | 17.75228 | 32° | 13km/h | 22287m | 4.8m/s | -54.0°C | 4.1% | 0hPa | 2.5V | 00:00:00 | 00:00:00 | 00:00:00 | |
| OE5MMP-10 | 2026-09-05 00:52:04 | 48.22017 | 17.75223 | 14° | 9km/h | 22277m | 3.8m/s | -53.9°C | 4.1% | 0hPa | 2.5V | 00:00:00 | 01:29:21 | 00:00:00 | |
| OM5KV | 2026-09-05 00:52:03 | 48.22017 | 17.75224 | 15° | 13km/h | 22277m | 3.8m/s | -54.0°C | 1.2% | 0hPa | 2.5V | 00:00:00 | 00:00:00 | 00:00:00 | |
| OE3MUC-15 | 2026-09-05 00:52:02 | 48.22010 | 17.75225 | 339° | 11km/h | 22266m | 5.7m/s | -53.9°C | 4.1% | 0hPa | 2.5V | 00:00:00 | 00:00:00 | 00:00:00 | |
| PETON7-10 | 2026-09-05 00:51:59 | 48.22003 | 17.75232 | 294° | 5km/h | 22250m | 5.4m/s | -53.9°C | 4.1% | 0hPa | 2.5V | 00:00:00 | 00:00:00 | 00:00:00 | |
| OE3MUC-15 | 2026-09-05 00:51:58 | 48.22003 | 17.75232 | 138° | 4km/h | 22246m | 3.9m/s | -53.9°C | 4.1% | 0hPa | 2.5V | 00:00:00 | 00:00:00 | 00:00:00 | |
| ATIDSZ-14 | 2026-09-05 00:51:57 | 48.22003 | 17.75232 | 0° | 0km/h | 22246m | 4.0m/s | -54.0°C | 1.2% | 0hPa | 2.5V | 00:00:00 | 00:00:00 | 00:00:00 | |
| OE3MUC-15 | 2026-09-05 00:51:54 | 48.22001 | 17.75226 | 32° | 5km/h | 22226m | 3.6m/s | -53.9°C | 4.1% | 0hPa | 2.5V | 00:00:00 | 00:00:00 | 00:00:00 | |
| OE5DRO-10 | 2026-09-05 00:51:51 | 48.21999 | 17.75225 | 298° | 7km/h | 22211m | 5.2m/s | -53.9°C | 4.1% | 0hPa | 2.5V | 00:00:00 | 00:00:00 | 00:00:00 | |
| OE3MUC-15 | 2026-09-05 00:51:50 | 48.21999 | 17.75227 | 261° | 7km/h | 22206m | 4.8m/s | -54.0°C | 4.1% | 0hPa | 2.4V | 00:00:00 | 00:00:00 | 00:00:00 | |
| OE3MUC-15 | 2026-09-05 00:51:46 | 48.21993 | 17.75233 | 322° | 7km/h | 22184m | 4.4m/s | -54.2°C | 4.2% | 0hPa | 2.4V | 00:00:00 | 00:00:00 | 08:30:00 | |
| OM5KV | 2026-09-05 00:51:45 | 48.21993 | 17.75233 | 322° | 9km/h | 22184m | 4.4m/s | -54.3°C | 1.2% | 0hPa | 2.5V | 00:00:00 | 00:00:00 | 00:00:00 | |
| PETON7-10 | 2026-09-05 00:51:44 | 48.21991 | 17.75239 | 265° | 9km/h | 22173m | 4.9m/s | -54.2°C | 4.2% | 0hPa | 2.5V | 00:00:00 | 01:29:01 | 00:00:00 | |
| OE3MUC-15 | 2026-09-05 00:51:42 | 48.21991 | 17.75244 | 287° | 7km/h | 22163m | 5.9m/s | -54.3°C | 4.2% | 0hPa | 2.5V | 00:00:00 | 00:00:00 | 00:00:00 | |
| OM5KV | 2026-09-05 00:51:39 | 48.21990 | 17.75249 | 271° | 5km/h | 22153m | 3.8m/s | -54.4°C | 1.2% | 0hPa | 2.5V | 00:00:00 | 00:00:00 | 00:00:00 | |
| ATIDSZ-14 | 2026-09-05 00:51:36 | 48.21993 | 17.75258 | 257° | 11km/h | 22138m | 4.0m/s | -54.4°C | 1.2% | 0hPa | 2.5V | 00:00:00 | 00:00:00 | 00:00:00 | |
| OE5MMP-10 | 2026-09-05 00:51:34 | 48.21995 | 17.75269 | 227° | 11km/h | 22123m | 2.7m/s | -54.3°C | 4.2% | 0hPa | 2.5V | 00:00:00 | 01:28:51 | 00:00:00 | |
| OE5DRO-10 | 2026-09-05 00:51:32 | 48.21999 | 17.75269 | 166° | 11km/h | 22113m | 5.1m/s | -54.3°C | 4.1% | 0hPa | 2.5V | 00:00:00 | 00:00:00 | 00:00:00 | |
| PETON7-10 | 2026-09-05 00:51:30 | 48.22008 | 17.75266 | 165° | 9km/h | 22097m | 5.5m/s | -54.4°C | 4.3% | 0hPa | 2.5V | 00:00:00 | 00:00:00 | 00:00:00 | |
| SQ9EZE-14 | 2026-09-05 00:51:27 | 48.22010 | 17.75265 | 172° | 11km/h | 22092m | 4.4m/s | 0°C | 0% | 0hPa | 2.5V | 00:00:00 | 00:00:00 | 00:00:00 | |
| OE5MMP-10 | 2026-09-05 00:51:24 | 48.22022 | 17.75256 | 140° | 7km/h | 22071m | 4.3m/s | -54.6°C | 4.4% | 0hPa | 2.5V | 00:00:00 | 01:28:41 | 00:00:00 | |
| OM5KV | 2026-09-05 00:51:23 | 48.22022 | 17.75256 | 140° | 15km/h | 22071m | 4.3m/s | -54.7°C | 1.3% | 0hPa | 2.5V | 00:00:00 | 00:00:00 | 00:00:00 | |
| OE3MUC-15 | 2026-09-05 00:51:18 | 48.22031 | 17.75249 | 151° | 7km/h | 22038m | 4.9m/s | -54.6°C | 4.3% | 0hPa | 2.5V | 00:00:00 | 00:00:00 | 00:00:00 | |
| ATIDSZ-14 | 2026-09-05 00:51:15 | 48.22034 | 17.75248 | 190° | 9km/h | 22028m | 5.7m/s | -54.6°C | 1.3% | 0hPa | 2.5V | 00:00:00 | 00:00:00 | 00:00:00 | |
| OE3MUC-15 | 2026-09-05 00:51:14 | 48.22039 | 17.75251 | 207° | 15km/h | 22015m | 5.1m/s | -54.5°C | 4.3% | 0hPa | 2.5V | 00:00:00 | 00:00:00 | 00:00:00 | |
| OE5DRO-10 | 2026-09-05 00:51:12 | 48.22047 | 17.75253 | 177° | 7km/h | 22004m | 5.2m/s | -54.4°C | 4.3% | 0hPa | 2.5V | 00:00:00 | 00:00:00 | 00:00:00 | |
| OE3MUC-15 | 2026-09-05 00:51:10 | 48.22054 | 17.75251 | 165° | 7km/h | 21994m | 4.8m/s | -54.4°C | 4.3% | 0hPa | 2.5V | 00:00:00 | 00:00:00 | 08:30:00 | |
| OE3MUC-15 | 2026-09-05 00:51:06 | 48.22056 | 17.75245 | 63° | 5km/h | 21972m | 6.8m/s | -54.2°C | 4.2% | 0hPa | 2.4V | 00:00:00 | 00:00:00 | 00:00:00 | |
| OE5MMP-10 | 2026-09-05 00:51:04 | 48.22055 | 17.75241 | 75° | 7km/h | 21961m | 4.2m/s | -54.2°C | 4.2% | 0hPa | 2.4V | 00:00:00 | 01:28:21 | 00:00:00 | |
| PG1ADW-2 | 2026-09-05 00:51:02 | 48.22056 | 17.75240 | 232° | 7km/h | 21950m | 4.9m/s | -54.2°C | 4.2% | 0hPa | 2.4V | 00:00:00 | 00:00:00 | 00:00:00 | |
| OE3OSB-13 | 2026-09-05 00:51:01 | 48.22059 | 17.75243 | 198° | 9km/h | 21940m | 5.9m/s | -54.4°C | 1.1% | -1.0hPa | 2.4V | 00:00:00 | 00:00:00 | 00:00:00 | |
| PETON7-10 | 2026-09-05 00:50:59 | 48.22061 | 17.75243 | 172° | 9km/h | 21934m | 5.4m/s | -54.3°C | 4.2% | 0hPa | 2.4V | 00:00:00 | 01:28:16 | 00:00:00 | |
| OE3MUC-15 | 2026-09-05 00:50:58 | 48.22064 | 17.75243 | 167° | 9km/h | 21929m | 4.4m/s | -54.4°C | 4.3% | 0hPa | 2.4V | 00:00:00 | 00:00:00 | 00:00:00 | |
| ATIDSZ-14 | 2026-09-05 00:50:55 | 48.22069 | 17.75242 | 177° | 7km/h | 21918m | 5.7m/s | -54.5°C | 1.2% | 0hPa | 2.4V | 00:00:00 | 00:00:00 | 00:00:00 | |
| OE3MUC-15 | 2026-09-05 00:50:54 | 48.22071 | 17.75241 | 147° | 7km/h | 21908m | 5.0m/s | -54.4°C | 4.3% | 0hPa | 2.4V | 00:00:00 | 00:00:00 | 00:00:00 | |
| OE5DRO-10 | 2026-09-05 00:50:53 | 48.22072 | 17.75240 | 129° | 7km/h | 21902m | 5.9m/s | -54.4°C | 4.3% | 0hPa | 2.4V | 00:00:00 | 00:00:00 | 00:00:00 | |
| OE3MUC-15 | 2026-09-05 00:50:50 | 48.22076 | 17.75232 | 143° | 7km/h | 21884m | 5.9m/s | -54.3°C | 4.3% | 0hPa | 2.4V | 00:00:00 | 00:00:00 | 00:00:00 | |
| OE3MUC-15 | 2026-09-05 00:50:46 | 48.22083 | 17.75226 | 158° | 9km/h | 21864m | 4.6m/s | -54.2°C | 4.3% | 0hPa | 2.4V | 00:00:00 | 00:00:00 | 00:00:00 | |
| PETON7-10 | 2026-09-05 00:50:44 | 48.22088 | 17.75225 | 189° | 7km/h | 21852m | 5.6m/s | -54.2°C | 4.2% | 0hPa | 2.4V | 00:00:00 | 00:00:00 | 00:00:00 | |
| OE3MUC-15 | 2026-09-05 00:50:42 | 48.22092 | 17.75227 | 185° | 5km/h | 21841m | 5.4m/s | -54.2°C | 4.3% | 0hPa | 2.5V | 00:00:00 | 00:00:00 | 00:00:00 | |
| OM5KV | 2026-09-05 00:50:40 | 48.22093 | 17.75227 | 166° | 5km/h | 21835m | 5.7m/s | -54.2°C | 0% | 0hPa | 2.5V | 00:00:00 | 00:00:00 | 00:00:00 | |
| OE3MUC-15 | 2026-09-05 00:50:38 | 48.22096 | 17.75224 | 151° | 4km/h | 21818m | 5.3m/s | -54.1°C | 4.2% | 0hPa | 2.5V | 00:00:00 | 00:00:00 | 00:00:00 | |
| ATIDSZ-14 | 2026-09-05 00:50:35 | 48.22097 | 17.75223 | 140° | 5km/h | 21809m | 5.3m/s | -54.1°C | 1.2% | 0hPa | 2.5V | 00:00:00 | 00:00:00 | 00:00:00 | |
| OE3MUC-15 | 2026-09-05 00:50:34 | 48.22100 | 17.75219 | 154° | 9km/h | 21798m | 4.1m/s | -54.0°C | 4.2% | 0hPa | 2.5V | 00:00:00 | 00:00:00 | 08:30:00 | |
| OE3MUC-15 | 2026-09-05 00:50:30 | 48.22110 | 17.75223 | 203° | 16km/h | 21777m | 5.8m/s | -54.0°C | 4.2% | 0hPa | 2.4V | 00:00:00 | 00:00:00 | 00:00:00 | |
| PETON7-10 | 2026-09-05 00:50:29 | 48.22114 | 17.75225 | 199° | 11km/h | 21771m | 5.1m/s | -53.9°C | 4.2% | 0hPa | 2.4V | 00:00:00 | 00:00:00 | 00:00:00 | |
| OM5KV | 2026-09-05 00:50:27 | 48.22118 | 17.75227 | 202° | 18km/h | 21766m | 4.2m/s | -54.0°C | 0% | 0hPa | 2.4V | 00:00:00 | 00:00:00 | 00:00:00 | |
| OE3MUC-15 | 2026-09-05 00:50:26 | 48.22123 | 17.75233 | 218° | 9km/h | 21754m | 5.8m/s | -53.9°C | 4.2% | 0hPa | 2.4V | 00:00:00 | 00:00:00 | 00:00:00 | |
| OE5MMP-10 | 2026-09-05 00:50:24 | 48.22128 | 17.75238 | 193° | 11km/h | 21744m | 5.9m/s | -53.9°C | 4.2% | 0hPa | 2.4V | 00:00:00 | 01:27:41 | 00:00:00 | |
| PG1ADW-2 | 2026-09-05 00:50:22 | 48.22131 | 17.75236 | 152° | 13km/h | 21733m | 4.5m/s | -53.8°C | 4.2% | 0hPa | 2.4V | 00:00:00 | 00:00:00 | 00:00:00 | |
| OM5KV | 2026-09-05 00:50:20 | 48.22133 | 17.75235 | 145° | 5km/h | 21728m | 5.2m/s | 0°C | 0% | 0hPa | 2.4V | 00:00:00 | 00:00:00 | 00:00:00 | |
| OE3MUC-15 | 2026-09-05 00:50:17 | 48.22140 | 17.75239 | 210° | 18km/h | 21707m | 5.9m/s | -53.6°C | 4.1% | 0hPa | 2.4V | 00:00:00 | 01:27:34 | 00:00:00 | |
| PETON7-10 | 2026-09-05 00:50:14 | 48.22152 | 17.75249 | 214° | 13km/h | 21692m | 5.2m/s | -53.5°C | 4.1% | 0hPa | 2.4V | 00:00:00 | 01:27:31 | 00:00:00 | |
| OE3MUC-15 | 2026-09-05 00:50:13 | 48.22155 | 17.75253 | 228° | 15km/h | 21686m | 5.3m/s | -53.5°C | 4.1% | 0hPa | 2.4V | 00:00:00 | 00:00:00 | 00:00:00 | |
| OE3MUC-15 | 2026-09-05 00:50:09 | 48.22165 | 17.75267 | 205° | 11km/h | 21665m | 4.5m/s | -53.5°C | 4.1% | 0hPa | 2.4V | 00:00:00 | 00:00:00 | 00:00:00 | |
| OE3MUC-15 | 2026-09-05 00:50:05 | 48.22173 | 17.75275 | 236° | 13km/h | 21644m | 5.0m/s | -53.6°C | 4.1% | 0hPa | 2.5V | 00:00:00 | 00:00:00 | 00:00:00 | |
| OE5MMP-10 | 2026-09-05 00:50:04 | 48.22175 | 17.75278 | 211° | 13km/h | 21638m | 5.3m/s | -53.6°C | 4.1% | 0hPa | 2.5V | 00:00:00 | 01:27:21 | 00:00:00 | |
| OE3MUC-15 | 2026-09-05 00:50:01 | 48.22185 | 17.75282 | 195° | 13km/h | 21625m | 3.5m/s | -53.5°C | 4.1% | 0hPa | 2.5V | 00:00:00 | 00:00:00 | 00:00:00 | |
| PETON7-10 | 2026-09-05 00:49:59 | 48.22192 | 17.75285 | 199° | 11km/h | 21615m | 4.9m/s | -53.5°C | 4.1% | 0hPa | 2.5V | 00:00:00 | 00:00:00 | 08:30:00 | |
| OE3MUC-15 | 2026-09-05 00:49:57 | 48.22197 | 17.75286 | 170° | 9km/h | 21604m | 5.5m/s | -53.4°C | 4.1% | 0hPa | 2.4V | 00:00:00 | 00:00:00 | 08:30:00 | |
| S52SK | 2026-09-05 00:49:56 | 48.22200 | 17.75285 | 168° | 11km/h | 21599m | 4.2m/s | -53.5°C | 1.2% | 0hPa | 2.5V | 00:00:00 | 00:00:00 | 00:00:00 | |
| OE5MMP-10 | 2026-09-05 00:49:54 | 48.22205 | 17.75285 | 202° | 13km/h | 21588m | 5.4m/s | -53.4°C | 4.1% | 0hPa | 2.5V | 00:00:00 | 01:27:11 | 00:00:00 | |
| OE3MUC-15 | 2026-09-05 00:49:53 | 48.22207 | 17.75287 | 214° | 11km/h | 21583m | 4.5m/s | -53.3°C | 4.0% | 0hPa | 2.5V | 00:00:00 | 00:00:00 | 00:00:00 | |
| HA6NAB-11 | 2026-09-05 00:49:50 | 48.22212 | 17.75290 | 185° | 11km/h | 21572m | 5.8m/s | -53.3°C | 1.2% | 0hPa | 2.5V | 00:00:00 | 00:00:00 | 00:00:00 | |
| OE3MUC-15 | 2026-09-05 00:49:49 | 48.22219 | 17.75290 | 171° | 11km/h | 21562m | 6.0m/s | -53.3°C | 4.0% | 0hPa | 2.5V | 00:00:00 | 00:00:00 | 00:00:00 | |
| OE3MUC-15 | 2026-09-05 00:49:45 | 48.22231 | 17.75285 | 160° | 16km/h | 21541m | 4.7m/s | -53.2°C | 4.0% | 0hPa | 2.5V | 00:00:00 | 00:00:00 | 00:00:00 | |
| PETON7-10 | 2026-09-05 00:49:44 | 48.22235 | 17.75283 | 171° | 15km/h | 21536m | 4.1m/s | -53.3°C | 4.0% | 0hPa | 2.4V | 00:00:00 | 00:00:00 | 00:00:00 | |
| PG1ADW-2 | 2026-09-05 00:49:42 | 48.22243 | 17.75283 | 190° | 15km/h | 21526m | 4.8m/s | -53.3°C | 4.0% | 0hPa | 2.4V | 00:00:00 | 00:00:00 | 00:00:00 | |
| HA6NAB-11 | 2026-09-05 00:49:38 | 48.22253 | 17.75284 | 175° | 15km/h | 21510m | 4.9m/s | -53.4°C | 1.2% | 0hPa | 2.4V | 00:00:00 | 00:00:00 | 00:00:00 | |
| OE5MMP-10 | 2026-09-05 00:49:34 | 48.22269 | 17.75281 | 167° | 16km/h | 21484m | 5.9m/s | -53.5°C | 4.0% | 0hPa | 2.4V | 00:00:00 | 01:26:51 | 00:00:00 | |
| HA6NAB-11 | 2026-09-05 00:49:33 | 48.22269 | 17.75281 | 167° | 16km/h | 21484m | 5.9m/s | -53.6°C | 1.2% | 0hPa | 2.4V | 00:00:00 | 00:00:00 | 00:00:00 | |
| PETON7-10 | 2026-09-05 00:49:29 | 48.22290 | 17.75278 | 179° | 13km/h | 21458m | 5.0m/s | -53.6°C | 4.2% | 0hPa | 2.4V | 00:00:00 | 01:26:46 | 00:00:00 | |
| HA6NAB-11 | 2026-09-05 00:49:27 | 48.22295 | 17.75277 | 172° | 18km/h | 21453m | 5.5m/s | -53.7°C | 1.2% | 0hPa | 2.4V | 00:00:00 | 00:00:00 | 00:00:00 | |
| OE5MMP-10 | 2026-09-05 00:49:24 | 48.22311 | 17.75275 | 184° | 11km/h | 21432m | 5.2m/s | -53.8°C | 4.2% | 0hPa | 2.4V | 00:00:00 | 01:26:41 | 00:00:00 | |
| PG1ADW-2 | 2026-09-05 00:49:22 | 48.22316 | 17.75275 | 181° | 15km/h | 21422m | 5.8m/s | -53.7°C | 4.2% | 0hPa | 2.4V | 00:00:00 | 00:00:00 | 00:00:00 | |
| OE3MUC-15 | 2026-09-05 00:49:21 | 48.22318 | 17.75274 | 177° | 11km/h | 21416m | 4.7m/s | -53.7°C | 4.2% | 0hPa | 2.4V | 00:00:00 | 00:00:00 | 08:30:00 | |
| OE3MUC-15 | 2026-09-05 00:49:17 | 48.22329 | 17.75276 | 176° | 15km/h | 21396m | 5.4m/s | -53.6°C | 4.2% | 0hPa | 2.4V | 00:00:00 | 00:00:00 | 00:00:00 | |
| OE5MMP-10 | 2026-09-05 00:49:14 | 48.22340 | 17.75270 | 159° | 16km/h | 21380m | 6.3m/s | -53.5°C | 4.1% | 0hPa | 2.4V | 00:00:00 | 01:26:31 | 08:30:00 | |
| OE3MUC-15 | 2026-09-05 00:49:13 | 48.22344 | 17.75268 | 153° | 18km/h | 21374m | 4.9m/s | -53.4°C | 4.1% | 0hPa | 2.5V | 00:00:00 | 00:00:00 | 00:00:00 | |
| OE3MUC-15 | 2026-09-05 00:49:09 | 48.22360 | 17.75249 | 139° | 16km/h | 21354m | 3.5m/s | -53.3°C | 4.0% | 0hPa | 2.5V | 00:00:00 | 00:00:00 | 00:00:00 | |
| OE3MUC-15 | 2026-09-05 00:49:05 | 48.22372 | 17.75236 | 157° | 13km/h | 21335m | 5.3m/s | -53.4°C | 3.9% | 0hPa | 2.5V | 00:00:00 | 00:00:00 | 00:00:00 | |
| OE5MMP-10 | 2026-09-05 00:49:04 | 48.22375 | 17.75234 | 154° | 18km/h | 21329m | 4.9m/s | -53.4°C | 4.0% | 0hPa | 2.5V | 00:00:00 | 01:26:21 | 00:00:00 | |
| PG1ADW-2 | 2026-09-05 00:49:02 | 48.22381 | 17.75229 | 155° | 20km/h | 21320m | 5.9m/s | -53.5°C | 4.0% | 0hPa | 2.5V | 00:00:00 | 00:00:00 | 00:00:00 | |
| OE3MUC-15 | 2026-09-05 00:49:01 | 48.22384 | 17.75226 | 148° | 16km/h | 21314m | 5.1m/s | -53.6°C | 4.0% | 0hPa | 2.5V | 00:00:00 | 00:00:00 | 00:00:00 | |
| PETON7-10 | 2026-09-05 00:48:59 | 48.22389 | 17.75218 | 124° | 22km/h | 21305m | 6.1m/s | -53.6°C | 4.0% | 0hPa | 2.5V | 00:00:00 | 00:00:00 | 00:00:00 | |
| OE3MUC-15 | 2026-09-05 00:48:57 | 48.22393 | 17.75202 | 111° | 22km/h | 21295m | 4.2m/s | -53.7°C | 4.0% | 0hPa | 2.5V | 00:00:00 | 00:00:00 | 00:00:00 | |
| OE5MMP-10 | 2026-09-05 00:48:54 | 48.22398 | 17.75177 | 109° | 20km/h | 21278m | 3.8m/s | -53.7°C | 4.0% | 0hPa | 2.4V | 00:00:00 | 01:26:11 | 00:00:00 | |
| OE3MUC-15 | 2026-09-05 00:48:53 | 48.22400 | 17.75171 | 110° | 20km/h | 21275m | 3.4m/s | -53.7°C | 3.9% | 0hPa | 2.4V | 00:00:00 | 00:00:00 | 00:00:00 | |
| OE3MUC-15 | 2026-09-05 00:48:49 | 48.22412 | 17.75143 | 123° | 22km/h | 21256m | 3.9m/s | -53.8°C | 4.0% | 0hPa | 2.4V | 00:00:00 | 00:00:00 | 00:00:00 | |
| OE3MUC-15 | 2026-09-05 00:48:45 | 48.22419 | 17.75113 | 101° | 20km/h | 21236m | 4.8m/s | -54.1°C | 4.0% | 0hPa | 2.4V | 00:00:00 | 00:00:00 | 08:30:00 | |
| OE5MMP-10 | 2026-09-05 00:48:44 | 48.22420 | 17.75106 | 99° | 20km/h | 21231m | 5.2m/s | -54.2°C | 4.1% | 0hPa | 2.4V | 00:00:00 | 01:26:01 | 00:00:00 | |
| PG1ADW-2 | 2026-09-05 00:48:42 | 48.22421 | 17.75090 | 92° | 22km/h | 21220m | 5.7m/s | -54.3°C | 4.1% | 0hPa | 2.5V | 00:00:00 | 01:25:59 | 08:30:00 | |
| OE3MUC-15 | 2026-09-05 00:48:41 | 48.22422 | 17.75083 | 90° | 20km/h | 21215m | 5.2m/s | -54.3°C | 4.2% | 0hPa | 2.4V | 00:00:00 | 00:00:00 | 00:00:00 | |
| OE3MUC-15 | 2026-09-05 00:48:37 | 48.22421 | 17.75052 | 96° | 22km/h | 21197m | 4.2m/s | -54.4°C | 4.1% | 0hPa | 2.4V | 00:00:00 | 00:00:00 | 00:00:00 | |
| OE5MMP-10 | 2026-09-05 00:48:34 | 48.22424 | 17.75027 | 98° | 22km/h | 21180m | 4.6m/s | -54.6°C | 4.2% | 0hPa | 2.4V | 00:00:00 | 01:25:51 | 00:00:00 | |
| OE3MUC-15 | 2026-09-05 00:48:33 | 48.22424 | 17.75019 | 97° | 24km/h | 21175m | 5.8m/s | -54.7°C | 4.2% | 0hPa | 2.4V | 00:00:00 | 00:00:00 | 00:00:00 | |
| OE3MUC-15 | 2026-09-05 00:48:29 | 48.22425 | 17.74984 | 78° | 20km/h | 21155m | 5.1m/s | -55.0°C | 4.3% | 0hPa | 2.5V | 00:00:00 | 00:00:00 | 00:00:00 | |
| OE3OSB-13 | 2026-09-05 00:48:26 | 48.22419 | 17.74953 | 79° | 24km/h | 21135m | 4.5m/s | -55.2°C | 1.2% | -1.0hPa | 2.5V | 00:00:00 | 00:00:00 | 00:00:00 | |
| OE3MUC-15 | 2026-09-05 00:48:25 | 48.22419 | 17.74953 | 80° | 22km/h | 21135m | 4.5m/s | -55.1°C | 4.4% | 0hPa | 2.5V | 00:00:00 | 00:00:00 | 00:00:00 | |
| OE5MMP-10 | 2026-09-05 00:48:24 | 48.22419 | 17.74944 | 88° | 20km/h | 21130m | 4.3m/s | -55.1°C | 4.4% | 0hPa | 2.5V | 00:00:00 | 01:25:41 | 00:00:00 | |
| PG1ADW-2 | 2026-09-05 00:48:22 | 48.22419 | 17.74928 | 93° | 20km/h | 21121m | 5.1m/s | -55.2°C | 4.4% | 0hPa | 2.5V | 00:00:00 | 00:00:00 | 00:00:00 | |
| OE3MUC-15 | 2026-09-05 00:48:21 | 48.22419 | 17.74922 | 100° | 18km/h | 21115m | 4.7m/s | 0°C | 0% | 0hPa | 2.5V | 00:00:00 | 00:00:00 | 00:00:00 | |
| OE3MUC-15 | 2026-09-05 00:48:17 | 48.22427 | 17.74895 | 120° | 20km/h | 21094m | 5.0m/s | -55.2°C | 4.5% | 0hPa | 2.4V | 00:00:00 | 00:00:00 | 00:00:00 | |
| PETON7-10 | 2026-09-05 00:48:14 | 48.22434 | 17.74875 | 114° | 22km/h | 21079m | 5.7m/s | -55.1°C | 4.5% | 0hPa | 2.4V | 00:00:00 | 00:00:00 | 00:00:00 | |
| OE3MUC-15 | 2026-09-05 00:48:13 | 48.22436 | 17.74866 | 108° | 22km/h | 21073m | 4.7m/s | -55.1°C | 4.5% | 0hPa | 2.4V | 00:00:00 | 00:00:00 | 00:00:00 | |
| ATIDSZ-14 | 2026-09-05 00:48:12 | 48.22436 | 17.74866 | 109° | 26km/h | 21073m | 4.8m/s | -55.2°C | 1.4% | 0hPa | 2.4V | 00:00:00 | 00:00:00 | 00:00:00 | |
| OE3MUC-15 | 2026-09-05 00:48:09 | 48.22442 | 17.74835 | 100° | 22km/h | 21054m | 4.1m/s | -55.1°C | 4.4% | 0hPa | 2.4V | 00:00:00 | 00:00:00 | 08:30:00 | |
| GYPAP8-17 | 2026-09-05 00:48:08 | 48.22442 | 17.74835 | 100° | 20km/h | 21054m | 4.2m/s | -55.1°C | 1.3% | 0hPa | 2.5V | 00:00:00 | 00:00:00 | 00:00:00 | |
| OE3MUC-15 | 2026-09-05 00:48:05 | 48.22445 | 17.74801 | 104° | 20km/h | 21034m | 5.7m/s | -55.0°C | 4.4% | 0hPa | 2.5V | 00:00:00 | 00:00:00 | 00:00:00 | |
| OE5MMP-10 | 2026-09-05 00:48:04 | 48.22447 | 17.74795 | 110° | 22km/h | 21028m | 4.2m/s | -55.0°C | 4.4% | 0hPa | 2.5V | 00:00:00 | 01:25:21 | 00:00:00 | |
| PG1ADW-2 | 2026-09-05 00:48:02 | 48.22451 | 17.74782 | 123° | 26km/h | 21019m | 5.4m/s | -55.0°C | 4.4% | 0hPa | 2.5V | 00:00:00 | 00:00:00 | 00:00:00 | |
| OE3OSB-13 | 2026-09-05 00:47:55 | 48.22468 | 17.74717 | 104° | 18km/h | 20978m | 5.7m/s | -55.2°C | 1.1% | -1.0hPa | 2.5V | 00:00:00 | 00:00:00 | 00:00:00 | |
| OE5MMP-10 | 2026-09-05 00:47:54 | 48.22468 | 17.74717 | 105° | 26km/h | 20979m | 5.6m/s | -55.1°C | 4.3% | 0hPa | 2.5V | 00:00:00 | 01:25:11 | 00:00:00 | |
| OE3MUC-15 | 2026-09-05 00:47:53 | 48.22469 | 17.74710 | 110° | 22km/h | 20974m | 3.9m/s | -55.2°C | 4.3% | 0hPa | 2.5V | 00:00:00 | 00:00:00 | 00:00:00 | |
| ATIDSZ-14 | 2026-09-05 00:47:51 | 48.22471 | 17.74704 | 114° | 20km/h | 20970m | 3.6m/s | -55.2°C | 1.3% | 0hPa | 2.5V | 00:00:00 | 00:00:00 | 00:00:00 | |
| OE3MUC-15 | 2026-09-05 00:47:49 | 48.22480 | 17.74679 | 121° | 27km/h | 20955m | 4.2m/s | -55.4°C | 4.4% | 0hPa | 2.5V | 00:00:00 | 00:00:00 | 00:00:00 | |
| GYPAP8-17 | 2026-09-05 00:47:48 | 48.22480 | 17.74679 | 122° | 29km/h | 20955m | 4.2m/s | -55.5°C | 1.3% | 0hPa | 2.5V | 00:00:00 | 00:00:00 | 00:00:00 | |
| OE3MUC-15 | 2026-09-05 00:47:45 | 48.22495 | 17.74642 | 117° | 33km/h | 20935m | 4.8m/s | -55.5°C | 4.5% | 0hPa | 2.5V | 00:00:00 | 00:00:00 | 00:00:00 | |
| PETON7-10 | 2026-09-05 00:47:44 | 48.22499 | 17.74632 | 113° | 33km/h | 20930m | 6.0m/s | -55.5°C | 4.5% | 0hPa | 2.4V | 00:00:00 | 00:00:00 | 08:30:00 | |
| PG1ADW-2 | 2026-09-05 00:47:42 | 48.22504 | 17.74608 | 104° | 31km/h | 20920m | 5.7m/s | -55.4°C | 4.4% | 0hPa | 2.4V | 00:00:00 | 00:00:00 | 00:00:00 | |
| OE5MMP-10 | 2026-09-05 00:47:34 | 48.22518 | 17.74515 | 104° | 31km/h | 20879m | 3.7m/s | -55.6°C | 4.5% | 0hPa | 2.4V | 00:00:00 | 01:24:51 | 00:00:00 | |
| ATIDSZ-14 | 2026-09-05 00:47:31 | 48.22521 | 17.74492 | 98° | 35km/h | 20868m | 5.1m/s | -55.7°C | 1.4% | 0hPa | 2.4V | 00:00:00 | 00:00:00 | 00:00:00 | |
| PETON7-10 | 2026-09-05 00:47:29 | 48.22523 | 17.74452 | 88° | 29km/h | 20855m | 5.7m/s | -55.7°C | 4.6% | 0hPa | 2.4V | 00:00:00 | 00:00:00 | 00:00:00 | |
| OE5MMP-10 | 2026-09-05 00:47:24 | 48.22525 | 17.74395 | 101° | 29km/h | 20829m | 4.5m/s | -55.6°C | 4.5% | 0hPa | 2.4V | 00:00:00 | 01:24:41 | 00:00:00 | |
| OE5DRO-10 | 2026-09-05 00:47:23 | 48.22527 | 17.74385 | 103° | 29km/h | 20824m | 5.5m/s | -55.6°C | 4.5% | 0hPa | 2.4V | 00:00:00 | 00:00:00 | 08:30:00 | |
| PG1ADW-2 | 2026-09-05 00:47:22 | 48.22528 | 17.74375 | 94° | 27km/h | 20819m | 4.1m/s | -55.5°C | 4.5% | 0hPa | 2.4V | 00:00:00 | 01:24:39 | 00:00:00 | |
| OE3MUC-15 | 2026-09-05 00:47:21 | 48.22528 | 17.74365 | 94° | 33km/h | 20814m | 4.6m/s | -55.5°C | 4.5% | 0hPa | 2.4V | 00:00:00 | 01:24:38 | 00:00:00 | |
| OE3MUC-15 | 2026-09-05 00:47:17 | 48.22524 | 17.74315 | 75° | 29km/h | 20794m | 5.0m/s | -55.5°C | 4.5% | 0hPa | 2.4V | 00:00:00 | 00:00:00 | 00:00:00 | |
| OE5MMP-10 | 2026-09-05 00:47:14 | 48.22520 | 17.74284 | 86° | 26km/h | 20780m | 5.4m/s | -55.5°C | 4.5% | 0hPa | 2.4V | 00:00:00 | 01:24:31 | 00:00:00 | |
| OE3MUC-15 | 2026-09-05 00:47:13 | 48.22519 | 17.74273 | 88° | 24km/h | 20775m | 4.2m/s | -55.5°C | 4.5% | 0hPa | 2.4V | 00:00:00 | 00:00:00 | 00:00:00 | |
| HA6NAB-11 | 2026-09-05 00:47:12 | 48.22519 | 17.74273 | 89° | 29km/h | 20775m | 4.2m/s | -55.5°C | 1.3% | 0hPa | 2.4V | 00:00:00 | 00:00:00 | 00:00:00 | |
| ATIDSZ-14 | 2026-09-05 00:47:10 | 48.22520 | 17.74254 | 92° | 22km/h | 20765m | 6.3m/s | -55.5°C | 1.4% | 0hPa | 2.4V | 00:00:00 | 00:00:00 | 00:00:00 | |
| OE3MUC-15 | 2026-09-05 00:47:09 | 48.22520 | 17.74238 | 84° | 27km/h | 20754m | 4.1m/s | -55.4°C | 4.5% | 0hPa | 2.4V | 00:00:00 | 00:00:00 | 00:00:00 | |
| HA6NAB-11 | 2026-09-05 00:47:07 | 48.22519 | 17.74229 | 81° | 26km/h | 20750m | 5.5m/s | -55.5°C | 1.4% | 0hPa | 2.4V | 00:00:00 | 00:00:00 | 00:00:00 | |
| OE3MUC-15 | 2026-09-05 00:47:05 | 48.22514 | 17.74197 | 72° | 27km/h | 20735m | 5.4m/s | -55.4°C | 4.5% | 0hPa | 2.4V | 00:00:00 | 00:00:00 | 00:00:00 | |
| OE5MMP-10 | 2026-09-05 00:47:04 | 48.22512 | 17.74187 | 69° | 20km/h | 20729m | 4.9m/s | -55.4°C | 4.5% | 0hPa | 2.4V | 00:00:00 | 01:24:21 | 00:00:00 | |
| PG1ADW-2 | 2026-09-05 00:47:02 | 48.22507 | 17.74168 | 72° | 20km/h | 20718m | 5.6m/s | -55.4°C | 4.6% | 0hPa | 2.4V | 00:00:00 | 00:00:00 | 00:00:00 | |
| OE3MUC-15 | 2026-09-05 00:47:01 | 48.22506 | 17.74159 | 78° | 18km/h | 20713m | 4.0m/s | -55.4°C | 4.6% | 0hPa | 2.4V | 00:00:00 | 00:00:00 | 00:00:00 | |
| PETON7-10 | 2026-09-05 00:46:59 | 48.22503 | 17.74144 | 79° | 20km/h | 20704m | 5.9m/s | -55.4°C | 4.5% | 0hPa | 2.4V | 00:00:00 | 00:00:00 | 00:00:00 | |
| HA6NAB-11 | 2026-09-05 00:46:57 | 48.22502 | 17.74133 | 81° | 16km/h | 20694m | 3.9m/s | -55.4°C | 1.4% | 0hPa | 2.4V | 00:00:00 | 00:00:00 | 00:00:00 | |
| OE5MMP-10 | 2026-09-05 00:46:54 | 48.22497 | 17.74111 | 65° | 22km/h | 20681m | 3.9m/s | -55.3°C | 4.5% | 0hPa | 2.4V | 00:00:00 | 01:24:11 | 00:00:00 | |
| OE3MUC-15 | 2026-09-05 00:46:53 | 48.22494 | 17.74102 | 61° | 26km/h | 20676m | 4.8m/s | -55.3°C | 4.5% | 0hPa | 2.4V | 00:00:00 | 00:00:00 | 00:00:00 | |
| HA6NAB-11 | 2026-09-05 00:46:51 | 48.22491 | 17.74093 | 53° | 26km/h | 20671m | 5.1m/s | -55.3°C | 1.4% | 0hPa | 2.4V | 00:00:00 | 00:00:00 | 00:00:00 | |
| ATIDSZ-14 | 2026-09-05 00:46:49 | 48.22483 | 17.74079 | 56° | 24km/h | 20662m | 3.9m/s | -55.2°C | 1.3% | 0hPa | 2.4V | 00:00:00 | 00:00:00 | 00:00:00 | |
| GYPAP8-17 | 2026-09-05 00:46:47 | 48.22475 | 17.74057 | 64° | 18km/h | 20648m | 5.0m/s | -55.2°C | 1.3% | 0hPa | 2.4V | 00:00:00 | 00:00:00 | 00:00:00 | |
| OE3MUC-15 | 2026-09-05 00:46:45 | 48.22471 | 17.74047 | 73° | 15km/h | 20637m | 4.2m/s | -55.1°C | 4.4% | 0hPa | 2.4V | 00:00:00 | 00:00:00 | 00:00:00 | |
| PETON7-10 | 2026-09-05 00:46:44 | 48.22471 | 17.74042 | 83° | 16km/h | 20632m | 5.5m/s | -55.0°C | 4.4% | 0hPa | 2.5V | 00:00:00 | 00:00:00 | 00:00:00 | |
| PG1ADW-2 | 2026-09-05 00:46:42 | 48.22470 | 17.74030 | 85° | 16km/h | 20622m | 3.4m/s | -54.9°C | 4.4% | 0hPa | 2.5V | 00:00:00 | 00:00:00 | 00:00:00 | |
| OE3MUC-15 | 2026-09-05 00:46:41 | 48.22469 | 17.74025 | 74° | 15km/h | 20618m | 4.8m/s | -54.9°C | 4.4% | 0hPa | 2.4V | 00:00:00 | 00:00:00 | 00:00:00 | |
| OE3MUC-15 | 2026-09-05 00:46:37 | 48.22462 | 17.74006 | 66° | 18km/h | 20598m | 6.0m/s | -54.8°C | 4.3% | 0hPa | 2.4V | 00:00:00 | 00:00:00 | 00:00:00 | |
| OE5MMP-10 | 2026-09-05 00:46:34 | 48.22460 | 17.73986 | 86° | 18km/h | 20583m | 5.4m/s | -54.8°C | 4.3% | 0hPa | 2.4V | 00:00:00 | 01:23:51 | 00:00:00 | |
| OE3MUC-15 | 2026-09-05 00:46:33 | 48.22460 | 17.73979 | 82° | 18km/h | 20578m | 5.1m/s | -54.8°C | 4.3% | 0hPa | 2.4V | 00:00:00 | 00:00:00 | 00:00:00 | |
| OE3MUC-15 | 2026-09-05 00:46:29 | 48.22459 | 17.73951 | 91° | 20km/h | 20560m | 3.7m/s | -54.8°C | 4.2% | 0hPa | 2.6V | 00:00:00 | 00:00:00 | 00:00:00 | |
| OE3MUC-15 | 2026-09-05 00:46:25 | 48.22455 | 17.73923 | 76° | 15km/h | 20539m | 5.7m/s | -55.0°C | 4.3% | 0hPa | 2.6V | 00:00:00 | 00:00:00 | 00:00:00 | |
| OE5MMP-10 | 2026-09-05 00:46:24 | 48.22454 | 17.73917 | 96° | 20km/h | 20534m | 4.3m/s | -55.0°C | 4.3% | 0hPa | 2.6V | 00:00:00 | 01:23:41 | 00:00:00 | |
| OE5DRO-10 | 2026-09-05 00:46:23 | 48.22455 | 17.73912 | 102° | 20km/h | 20529m | 3.9m/s | -55.0°C | 4.3% | 0hPa | 2.6V | 00:00:00 | 00:00:00 | 00:00:00 | |
| PG1ADW-2 | 2026-09-05 00:46:22 | 48.22456 | 17.73906 | 110° | 22km/h | 20525m | 5.6m/s | -55.1°C | 4.3% | 0hPa | 2.5V | 00:00:00 | 00:00:00 | 00:00:00 | |
| OE3MUC-15 | 2026-09-05 00:46:21 | 48.22457 | 17.73901 | 109° | 22km/h | 20519m | 4.6m/s | -55.1°C | 4.4% | 0hPa | 2.5V | 00:00:00 | 00:00:00 | 08:30:00 | |
| OE3MUC-15 | 2026-09-05 00:46:17 | 48.22468 | 17.73871 | 117° | 24km/h | 20499m | 4.1m/s | -55.1°C | 4.4% | 0hPa | 2.5V | 00:00:00 | 00:00:00 | 00:00:00 | |
| PETON7-10 | 2026-09-05 00:46:14 | 48.22475 | 17.73847 | 120° | 24km/h | 20486m | 4.6m/s | -55.1°C | 4.4% | 0hPa | 2.5V | 00:00:00 | 00:00:00 | 00:00:00 | |
| OE3MUC-15 | 2026-09-05 00:46:13 | 48.22478 | 17.73841 | 123° | 18km/h | 20481m | 5.4m/s | -55.1°C | 4.4% | 0hPa | 2.6V | 00:00:00 | 00:00:00 | 00:00:00 | |
| OE3MUC-15 | 2026-09-05 00:46:09 | 48.22489 | 17.73818 | 123° | 18km/h | 20462m | 4.0m/s | -55.0°C | 4.4% | 0hPa | 2.6V | 00:00:00 | 00:00:00 | 00:00:00 | |
| OE3MUC-15 | 2026-09-05 00:46:05 | 48.22501 | 17.73793 | 117° | 29km/h | 20443m | 5.2m/s | -55.0°C | 4.4% | 0hPa | 2.4V | 00:00:00 | 00:00:00 | 00:00:00 | |
| OE5MMP-10 | 2026-09-05 00:46:04 | 48.22504 | 17.73784 | 118° | 29km/h | 20438m | 5.1m/s | -54.9°C | 4.4% | 0hPa | 2.4V | 00:00:00 | 01:23:21 | 00:00:00 | |
| PG1ADW-2 | 2026-09-05 00:46:02 | 48.22512 | 17.73762 | 122° | 31km/h | 20429m | 4.1m/s | -54.9°C | 4.4% | 0hPa | 2.4V | 00:00:00 | 01:23:19 | 00:00:00 | |
| OE3OSB-13 | 2026-09-05 00:45:51 | 48.22569 | 17.73664 | 132° | 33km/h | 20373m | 4.9m/s | -54.8°C | 1.2% | -1.0hPa | 2.4V | 00:00:00 | 00:00:00 | 00:00:00 | |
| OE3MUC-15 | 2026-09-05 00:45:49 | 48.22575 | 17.73654 | 133° | 35km/h | 20369m | 3.4m/s | -54.7°C | 4.4% | 0hPa | 2.4V | 00:00:00 | 00:00:00 | 00:00:00 | |
| OE3MUC-15 | 2026-09-05 00:45:45 | 48.22600 | 17.73617 | 131° | 35km/h | 20349m | 4.3m/s | -54.6°C | 4.3% | 0hPa | 2.4V | 00:00:00 | 00:00:00 | 08:30:00 | |
| PETON7-10 | 2026-09-05 00:45:44 | 48.22606 | 17.73607 | 128° | 35km/h | 20344m | 5.2m/s | -54.6°C | 4.4% | 0hPa | 2.4V | 00:00:00 | 01:23:01 | 00:00:00 | |
| PG1ADW-2 | 2026-09-05 00:45:42 | 48.22617 | 17.73585 | 129° | 35km/h | 20336m | 3.1m/s | -54.5°C | 4.3% | 0hPa | 2.4V | 00:00:00 | 00:00:00 | 08:30:00 | |
| OE5MMP-10 | 2026-09-05 00:45:34 | 48.22655 | 17.73507 | 127° | 37km/h | 20298m | 4.6m/s | -54.3°C | 4.2% | 0hPa | 2.4V | 00:00:00 | 01:22:51 | 00:00:00 | |
| PETON7-10 | 2026-09-05 00:45:29 | 48.22682 | 17.73445 | 118° | 37km/h | 20274m | 5.3m/s | -54.3°C | 4.1% | 0hPa | 2.4V | 00:00:00 | 00:00:00 | 08:30:00 | |
| OE5DRO-10 | 2026-09-05 00:45:26 | 48.22694 | 17.73413 | 122° | 40km/h | 20261m | 4.0m/s | -54.3°C | 4.1% | 0hPa | 2.6V | 00:00:00 | 00:00:00 | 00:00:00 | |
| OE5MMP-10 | 2026-09-05 00:45:24 | 48.22703 | 17.73391 | 120° | 40km/h | 20251m | 5.0m/s | -54.5°C | 4.2% | 0hPa | 2.4V | 00:00:00 | 01:22:41 | 00:00:00 | |
| PG1ADW-2 | 2026-09-05 00:45:22 | 48.22713 | 17.73367 | 125° | 40km/h | 20242m | 3.9m/s | -54.5°C | 4.2% | 0hPa | 2.4V | 00:00:00 | 00:00:00 | 00:00:00 | |
| OE3MUC-15 | 2026-09-05 00:45:21 | 48.22719 | 17.73356 | 127° | 38km/h | 20237m | 5.6m/s | -54.6°C | 4.2% | 0hPa | 2.4V | 00:00:00 | 00:00:00 | 00:00:00 | |
| OE3OSB-13 | 2026-09-05 00:45:20 | 48.22730 | 17.73333 | 126° | 38km/h | 20227m | 4.6m/s | -54.6°C | 1.2% | -1.0hPa | 2.4V | 00:00:00 | 00:00:00 | 00:00:00 | |
| OE3MUC-15 | 2026-09-05 00:45:17 | 48.22742 | 17.73307 | 120° | 42km/h | 20217m | 4.5m/s | -54.6°C | 4.2% | 0hPa | 2.4V | 00:00:00 | 00:00:00 | 00:00:00 | |
| PETON7-10 | 2026-09-05 00:45:14 | 48.22754 | 17.73262 | 107° | 42km/h | 20201m | 4.1m/s | -54.6°C | 4.2% | 0hPa | 2.4V | 00:00:00 | 00:00:00 | 00:00:00 | |
| OE3MUC-15 | 2026-09-05 00:45:13 | 48.22757 | 17.73246 | 105° | 44km/h | 20196m | 5.5m/s | -54.7°C | 4.2% | 0hPa | 2.4V | 00:00:00 | 00:00:00 | 00:00:00 | |
| OE3MUC-15 | 2026-09-05 00:45:09 | 48.22769 | 17.73185 | 110° | 40km/h | 20176m | 4.5m/s | -54.9°C | 4.3% | 0hPa | 2.4V | 00:00:00 | 00:00:00 | 08:30:00 | |
| OE5DRO-10 | 2026-09-05 00:45:07 | 48.22776 | 17.73157 | 113° | 40km/h | 20166m | 5.0m/s | -55.1°C | 4.3% | 0hPa | 2.6V | 00:00:00 | 00:00:00 | 00:00:00 | |
| OE3MUC-15 | 2026-09-05 00:45:05 | 48.22784 | 17.73128 | 115° | 40km/h | 20155m | 5.7m/s | -55.2°C | 4.3% | 0hPa | 2.6V | 00:00:00 | 00:00:00 | 00:00:00 | |
| OE5MMP-10 | 2026-09-05 00:45:04 | 48.22788 | 17.73115 | 114° | 40km/h | 20149m | 5.1m/s | -55.2°C | 4.3% | 0hPa | 2.6V | 00:00:00 | 01:22:21 | 00:00:00 | |
| OE3OSB-13 | 2026-09-05 00:44:49 | 48.22814 | 17.72887 | 95° | 33km/h | 20073m | 5.7m/s | -55.9°C | 1.2% | -1.0hPa | 2.6V | 00:00:00 | 00:00:00 | 00:00:00 | |
| OE3MUC-15 | 2026-09-05 00:44:48 | 48.22814 | 17.72887 | 96° | 33km/h | 20073m | 5.6m/s | -55.8°C | 4.3% | 0hPa | 2.6V | 00:00:00 | 00:00:00 | 00:00:00 | |
| OE5MMP-10 | 2026-09-05 00:44:44 | 48.22813 | 17.72836 | 91° | 31km/h | 20052m | 4.7m/s | -56.6°C | 4.6% | 0hPa | 2.6V | 00:00:00 | 01:22:01 | 08:30:00 | |
| PG1ADW-2 | 2026-09-05 00:44:42 | 48.22813 | 17.72810 | 92° | 29km/h | 20043m | 5.6m/s | -56.6°C | 4.7% | 0hPa | 2.4V | 00:00:00 | 01:21:59 | 00:00:00 | |
| OE3MUC-15 | 2026-09-05 00:44:40 | 48.22815 | 17.72789 | 105° | 29km/h | 20034m | 4.2m/s | -56.7°C | 4.7% | 0hPa | 2.4V | 00:00:00 | 00:00:00 | 00:00:00 | |
| HA6NAB-11 | 2026-09-05 00:44:39 | 48.22815 | 17.72789 | 105° | 27km/h | 20034m | 4.2m/s | -56.7°C | 1.5% | 0hPa | 2.4V | 00:00:00 | 00:00:00 | 00:00:00 | |
| OE3MUC-15 | 2026-09-05 00:44:36 | 48.22825 | 17.72747 | 105° | 33km/h | 20015m | 5.6m/s | -57.0°C | 4.9% | 0hPa | 2.4V | 00:00:00 | 00:00:00 | 00:00:00 | |
| OE5MMP-10 | 2026-09-05 00:44:34 | 48.22827 | 17.72725 | 97° | 31km/h | 20006m | 4.1m/s | -57.1°C | 4.9% | 0hPa | 2.4V | 00:00:00 | 01:21:51 | 00:00:00 | |
| HA6NAB-11 | 2026-09-05 00:44:33 | 48.22827 | 17.72725 | 98° | 35km/h | 20006m | 4.2m/s | -57.2°C | 1.6% | 0hPa | 2.4V | 00:00:00 | 00:00:00 | 00:00:00 | |
| OE3MUC-15 | 2026-09-05 00:44:32 | 48.22829 | 17.72697 | 100° | 33km/h | 19996m | 4.1m/s | -57.1°C | 4.8% | 0hPa | 2.4V | 00:00:00 | 00:00:00 | 08:30:00 | |
| PETON7-10 | 2026-09-05 00:44:29 | 48.22834 | 17.72660 | 103° | 29km/h | 19981m | 4.4m/s | -57.1°C | 4.8% | 0hPa | 2.4V | 00:00:00 | 00:00:00 | 00:00:00 | |
| OE3MUC-15 | 2026-09-05 00:44:28 | 48.22836 | 17.72649 | 105° | 26km/h | 19976m | 5.4m/s | -57.1°C | 4.8% | 0hPa | 2.4V | 00:00:00 | 00:00:00 | 00:00:00 | |
| ATIDSZ-14 | 2026-09-05 00:44:27 | 48.22836 | 17.72649 | 105° | 27km/h | 19976m | 5.4m/s | -57.1°C | 1.6% | 0hPa | 2.4V | 00:00:00 | 00:00:00 | 00:00:00 | |
| OE3MUC-15 | 2026-09-05 00:44:24 | 48.22837 | 17.72611 | 72° | 29km/h | 19956m | 4.4m/s | -57.0°C | 4.7% | 0hPa | 2.4V | 00:00:00 | 01:21:41 | 00:00:00 | |
| PG1ADW-2 | 2026-09-05 00:44:22 | 48.22833 | 17.72591 | 76° | 31km/h | 19945m | 5.7m/s | -57.0°C | 4.7% | 0hPa | 2.4V | 00:00:00 | 00:00:00 | 00:00:00 | |
| OE3MUC-15 | 2026-09-05 00:44:20 | 48.22829 | 17.72569 | 81° | 29km/h | 19935m | 5.2m/s | -57.0°C | 4.7% | 0hPa | 2.4V | 00:00:00 | 00:00:00 | 00:00:00 | |
| OE3OSB-13 | 2026-09-05 00:44:18 | 48.22827 | 17.72536 | 87° | 31km/h | 19919m | 5.9m/s | -57.2°C | 1.3% | -1.0hPa | 2.6V | 00:00:00 | 00:00:00 | 00:00:00 | |
| OE3MUC-15 | 2026-09-05 00:44:16 | 48.22827 | 17.72524 | 94° | 31km/h | 19913m | 4.9m/s | -57.2°C | 4.8% | 0hPa | 2.6V | 00:00:00 | 00:00:00 | 00:00:00 | |
| PETON7-10 | 2026-09-05 00:44:14 | 48.22827 | 17.72500 | 88° | 29km/h | 19905m | 5.5m/s | -57.2°C | 4.8% | 0hPa | 2.6V | 00:00:00 | 01:21:31 | 00:00:00 | |
| OE3MUC-15 | 2026-09-05 00:44:12 | 48.22824 | 17.72478 | 72° | 33km/h | 19895m | 3.6m/s | -57.3°C | 4.9% | 0hPa | 2.6V | 00:00:00 | 00:00:00 | 00:00:00 | |
| OE5DRO-10 | 2026-09-05 00:44:10 | 48.22819 | 17.72456 | 68° | 33km/h | 19886m | 4.7m/s | -57.3°C | 4.8% | 0hPa | 2.6V | 00:00:00 | 00:00:00 | 00:00:00 | |
| OE3MUC-15 | 2026-09-05 00:44:08 | 48.22813 | 17.72429 | 77° | 33km/h | 19877m | 4.1m/s | -57.3°C | 4.9% | 0hPa | 2.6V | 00:00:00 | 00:00:00 | 00:00:00 | |
| ATIDSZ-14 | 2026-09-05 00:44:06 | 48.22811 | 17.72416 | 81° | 35km/h | 19872m | 5.5m/s | -57.4°C | 1.6% | 0hPa | 2.4V | 00:00:00 | 00:00:00 | 00:00:00 | |
| OE5MMP-10 | 2026-09-05 00:44:04 | 48.22808 | 17.72382 | 80° | 29km/h | 19857m | 5.2m/s | -57.6°C | 5.1% | 0hPa | 2.4V | 00:00:00 | 01:21:21 | 00:00:00 | |
| PG1ADW-2 | 2026-09-05 00:44:02 | 48.22805 | 17.72362 | 79° | 26km/h | 19849m | 3.9m/s | -57.5°C | 5.1% | 0hPa | 2.4V | 00:00:00 | 00:00:00 | 00:00:00 | |
| OE3OSB-13 | 2026-09-05 00:43:47 | 48.22778 | 17.72202 | 84° | 20km/h | 19773m | 5.2m/s | -56.9°C | 1.4% | -1.0hPa | 2.4V | 00:00:00 | 00:00:00 | 00:00:00 | |
| ATIDSZ-14 | 2026-09-05 00:43:46 | 48.22779 | 17.72210 | 78° | 18km/h | 19778m | 4.6m/s | -56.9°C | 1.5% | 0hPa | 2.4V | 00:00:00 | 00:00:00 | 00:00:00 | |
| 9A1FER-3 | 2026-09-05 00:43:45 | 48.22777 | 17.72194 | 87° | 24km/h | 19768m | 5.3m/s | 0°C | 0% | 0hPa | 2.4V | 00:00:00 | 01:21:02 | 00:00:00 | |
| PETON7-10 | 2026-09-05 00:43:44 | 48.22777 | 17.72185 | 91° | 24km/h | 19763m | 3.9m/s | -56.8°C | 4.9% | 0hPa | 2.4V | 00:00:00 | 00:00:00 | 00:00:00 | |
| PG1ADW-2 | 2026-09-05 00:43:42 | 48.22772 | 17.72133 | 79° | 22km/h | 19732m | 4.3m/s | -56.5°C | 4.8% | 0hPa | 2.4V | 00:00:00 | 00:00:00 | 00:00:00 | |
| SQ9EZE-14 | 2026-09-05 00:43:38 | 48.22772 | 17.72133 | 79° | 24km/h | 19732m | 4.4m/s | 0°C | 0% | 0hPa | 2.4V | 00:00:00 | 00:00:00 | 00:00:00 | |
| OE5MMP-10 | 2026-09-05 00:43:34 | 48.22765 | 17.72101 | 77° | 24km/h | 19711m | 6.1m/s | -56.3°C | 4.7% | 0hPa | 2.4V | 00:00:00 | 01:20:51 | 00:00:00 | |
| OE5DRO-10 | 2026-09-05 00:43:32 | 48.22763 | 17.72083 | 81° | 22km/h | 19700m | 6.0m/s | -56.2°C | 4.6% | 0hPa | 2.4V | 00:00:00 | 00:00:00 | 00:00:00 | |
| ATIDSZ-14 | 2026-09-05 00:43:26 | 48.22763 | 17.72036 | 100° | 24km/h | 19674m | 4.6m/s | -56.1°C | 1.5% | 0hPa | 2.6V | 00:00:00 | 00:00:00 | 00:00:00 | |
| OE5MMP-10 | 2026-09-05 00:43:24 | 48.22764 | 17.72012 | 96° | 20km/h | 19658m | 5.3m/s | -56.2°C | 4.6% | 0hPa | 2.6V | 00:00:00 | 01:20:41 | 00:00:00 | |
| SQ9EZE-14 | 2026-09-05 00:43:21 | 48.22765 | 17.71999 | 91° | 16km/h | 19648m | 3.7m/s | 0°C | 0% | 0hPa | 2.6V | 00:00:00 | 00:00:00 | 00:00:00 | |
| OE3MUC-15 | 2026-09-05 00:43:19 | 48.22762 | 17.71977 | 77° | 22km/h | 19633m | 3.5m/s | -56.1°C | 4.5% | 0hPa | 2.6V | 00:00:00 | 00:00:00 | 08:30:00 | |
| OE3MUC-15 | 2026-09-05 00:43:15 | 48.22764 | 17.71945 | 113° | 26km/h | 19613m | 4.5m/s | -56.0°C | 4.5% | 0hPa | 2.6V | 00:00:00 | 00:00:00 | 00:00:00 | |
| PETON7-10 | 2026-09-05 00:43:14 | 48.22767 | 17.71937 | 116° | 27km/h | 19608m | 5.7m/s | 0°C | 0% | 0hPa | 2.6V | 00:00:00 | 00:00:00 | 08:30:00 | |
| OE5DRO-10 | 2026-09-05 00:43:13 | 48.22769 | 17.71928 | 115° | 29km/h | 19602m | 4.3m/s | -56.0°C | 4.5% | 0hPa | 2.6V | 00:00:00 | 00:00:00 | 00:00:00 | |
| OE3MUC-15 | 2026-09-05 00:43:11 | 48.22776 | 17.71910 | 122° | 27km/h | 19593m | 5.8m/s | -56.0°C | 4.5% | 0hPa | 2.6V | 00:00:00 | 00:00:00 | 00:00:00 | |
| OE3MUC-15 | 2026-09-05 00:43:07 | 48.22784 | 17.71873 | 91° | 26km/h | 19573m | 3.0m/s | -56.1°C | 4.5% | 0hPa | 2.6V | 00:00:00 | 00:00:00 | 00:00:00 | |
| ATIDSZ-14 | 2026-09-05 00:43:05 | 48.22784 | 17.71862 | 89° | 26km/h | 19569m | 4.6m/s | -56.1°C | 1.4% | 0hPa | 2.4V | 00:00:00 | 00:00:00 | 00:00:00 | |
| OE5MMP-10 | 2026-09-05 00:43:04 | 48.22785 | 17.71844 | 98° | 31km/h | 19560m | 3.9m/s | -56.2°C | 4.5% | 0hPa | 2.4V | 00:00:00 | 01:20:21 | 00:00:00 | |
| OE3MUC-15 | 2026-09-05 00:43:03 | 48.22786 | 17.71834 | 105° | 31km/h | 19555m | 5.2m/s | -56.2°C | 4.5% | 0hPa | 2.4V | 00:00:00 | 00:00:00 | 00:00:00 | |
| PETON7-10 | 2026-09-05 00:42:59 | 48.22800 | 17.71793 | 127° | 35km/h | 19535m | 4.5m/s | -56.3°C | 4.5% | 0hPa | 2.4V | 00:00:00 | 00:00:00 | 00:00:00 | |
| OE3MUC-15 | 2026-09-05 00:42:55 | 48.22816 | 17.71754 | 114° | 33km/h | 19515m | 4.3m/s | -56.4°C | 4.6% | 0hPa | 2.4V | 00:00:00 | 00:00:00 | 00:00:00 | |
| OE5MMP-10 | 2026-09-05 00:42:54 | 48.22820 | 17.71742 | 117° | 37km/h | 19511m | 4.5m/s | -56.5°C | 4.7% | 0hPa | 2.6V | 00:00:00 | 01:20:11 | 00:00:00 | |
| GYPAP8-17 | 2026-09-05 00:42:53 | 48.22820 | 17.71742 | 118° | 33km/h | 19511m | 4.5m/s | -56.5°C | 1.5% | 0hPa | 2.6V | 00:00:00 | 00:00:00 | 00:00:00 | |
| OE3MUC-15 | 2026-09-05 00:42:51 | 48.22832 | 17.71709 | 118° | 35km/h | 19494m | 5.6m/s | -56.7°C | 4.8% | 0hPa | 2.6V | 00:00:00 | 00:00:00 | 00:00:00 | |
| OE3MUC-15 | 2026-09-05 00:42:47 | 48.22848 | 17.71661 | 116° | 40km/h | 19475m | 3.8m/s | -56.6°C | 4.8% | 0hPa | 2.6V | 00:00:00 | 00:00:00 | 00:00:00 | |
| OE5MMP-10 | 2026-09-05 00:42:44 | 48.22860 | 17.71619 | 112° | 40km/h | 19459m | 4.0m/s | -56.5°C | 4.8% | 0hPa | 2.6V | 00:00:00 | 01:20:01 | 00:00:00 | |
| OE3MUC-15 | 2026-09-05 00:42:43 | 48.22864 | 17.71605 | 111° | 40km/h | 19454m | 5.4m/s | -56.5°C | 4.8% | 0hPa | 2.4V | 00:00:00 | 00:00:00 | 08:30:00 | |
| S52SK | 2026-09-05 00:42:41 | 48.22868 | 17.71592 | 110° | 38km/h | 19449m | 4.2m/s | -56.5°C | 1.5% | 0hPa | 2.4V | 00:00:00 | 00:00:00 | 00:00:00 | |
| OE3MUC-15 | 2026-09-05 00:42:39 | 48.22879 | 17.71546 | 111° | 42km/h | 19435m | 4.1m/s | -56.3°C | 4.6% | 0hPa | 2.4V | 00:00:00 | 00:00:00 | 00:00:00 | |
| S52SK | 2026-09-05 00:42:36 | 48.22891 | 17.71501 | 111° | 37km/h | 19420m | 5.3m/s | -56.3°C | 1.5% | 0hPa | 2.4V | 00:00:00 | 00:00:00 | 00:00:00 | |
| OE3MUC-15 | 2026-09-05 00:42:35 | 48.22894 | 17.71489 | 106° | 35km/h | 19415m | 4.5m/s | -56.2°C | 4.6% | 0hPa | 2.4V | 00:00:00 | 00:00:00 | 00:00:00 | |
| OE5MMP-10 | 2026-09-05 00:42:34 | 48.22895 | 17.71476 | 96° | 31km/h | 19409m | 5.6m/s | -56.1°C | 4.6% | 0hPa | 2.4V | 00:00:00 | 01:19:51 | 00:00:00 | |
| GYPAP8-17 | 2026-09-05 00:42:33 | 48.22895 | 17.71476 | 96° | 33km/h | 19409m | 5.6m/s | 0°C | 0% | 0hPa | 2.4V | 00:00:00 | 00:00:00 | 00:00:00 | |
| PETON7-10 | 2026-09-05 00:42:29 | 48.22896 | 17.71417 | 94° | 31km/h | 19382m | 4.1m/s | -56.0°C | 4.6% | 0hPa | 2.4V | 00:00:00 | 00:00:00 | 00:00:00 | |
| HA6NAB-11 | 2026-09-05 00:42:28 | 48.22896 | 17.71416 | 95° | 27km/h | 19382m | 4.2m/s | -56.1°C | 1.4% | 0hPa | 2.5V | 00:00:00 | 00:00:00 | 00:00:00 | |
| OE3MUC-15 | 2026-09-05 00:42:27 | 48.22897 | 17.71395 | 97° | 33km/h | 19373m | 5.7m/s | -56.0°C | 4.6% | 0hPa | 2.5V | 00:00:00 | 00:00:00 | 00:00:00 | |
| OE5MMP-10 | 2026-09-05 00:42:24 | 48.22903 | 17.71357 | 107° | 31km/h | 19357m | 5.1m/s | -56.0°C | 4.5% | 0hPa | 2.5V | 00:00:00 | 01:19:41 | 00:00:00 | |
| OE3MUC-15 | 2026-09-05 00:42:23 | 48.22905 | 17.71346 | 106° | 31km/h | 19352m | 4.0m/s | -55.9°C | 4.5% | 0hPa | 2.5V | 00:00:00 | 00:00:00 | 00:00:00 | |
| PG1ADW-2 | 2026-09-05 00:42:22 | 48.22908 | 17.71323 | 97° | 31km/h | 19342m | 5.6m/s | -55.9°C | 4.5% | 0hPa | 2.5V | 00:00:00 | 00:00:00 | 00:00:00 | |
| OE3MUC-15 | 2026-09-05 00:42:19 | 48.22909 | 17.71301 | 89° | 29km/h | 19333m | 5.3m/s | -55.9°C | 4.5% | 0hPa | 2.5V | 00:00:00 | 00:00:00 | 00:00:00 | |
| HA6NAB-11 | 2026-09-05 00:42:17 | 48.22909 | 17.71290 | 92° | 26km/h | 19327m | 4.7m/s | -56.0°C | 1.4% | 0hPa | 2.4V | 00:00:00 | 00:00:00 | 00:00:00 | |
| OE3MUC-15 | 2026-09-05 00:42:15 | 48.22908 | 17.71257 | 89° | 33km/h | 19312m | 4.7m/s | -55.9°C | 4.6% | 0hPa | 2.4V | 00:00:00 | 00:00:00 | 00:00:00 | |
| PETON7-10 | 2026-09-05 00:42:14 | 48.22908 | 17.71244 | 97° | 33km/h | 19307m | 3.5m/s | -55.9°C | 4.6% | 0hPa | 2.4V | 00:00:00 | 00:00:00 | 00:00:00 | |
| OE3OSB-13 | 2026-09-05 00:42:13 | 48.22911 | 17.71221 | 102° | 29km/h | 19297m | 4.0m/s | -56.0°C | 1.3% | -1.0hPa | 2.4V | 00:00:00 | 00:00:00 | 00:00:00 | |
| OE3MUC-15 | 2026-09-05 00:42:11 | 48.22912 | 17.71209 | 98° | 35km/h | 19293m | 3.5m/s | -55.9°C | 4.5% | 0hPa | 2.4V | 00:00:00 | 00:00:00 | 00:00:00 | |
| OE3MUC-15 | 2026-09-05 00:42:07 | 48.22914 | 17.71157 | 87° | 31km/h | 19273m | 3.8m/s | -55.8°C | 4.6% | 0hPa | 2.4V | 00:00:00 | 00:00:00 | 08:30:00 | |
| ATIDSZ-14 | 2026-09-05 00:42:05 | 48.22912 | 17.71134 | 84° | 29km/h | 19262m | 4.8m/s | -55.8°C | 1.4% | 0hPa | 2.6V | 00:00:00 | 00:00:00 | 00:00:00 | |
| OE5MMP-10 | 2026-09-05 00:42:04 | 48.22911 | 17.71123 | 76° | 31km/h | 19257m | 3.4m/s | -55.8°C | 4.5% | 0hPa | 2.6V | 00:00:00 | 01:19:21 | 00:00:00 | |
| OE3MUC-15 | 2026-09-05 00:42:03 | 48.22909 | 17.71112 | 73° | 31km/h | 19252m | 5.4m/s | -55.7°C | 4.5% | 0hPa | 2.6V | 00:00:00 | 00:00:00 | 00:00:00 | |
| PG1ADW-2 | 2026-09-05 00:42:02 | 48.22907 | 17.71101 | 71° | 31km/h | 19247m | 4.7m/s | -55.7°C | 4.5% | 0hPa | 2.6V | 00:00:00 | 01:19:19 | 00:00:00 | |
| SQ9EZE-14 | 2026-09-05 00:42:01 | 48.22907 | 17.71101 | 72° | 33km/h | 19247m | 4.8m/s | 0°C | 0% | 0hPa | 2.6V | 00:00:00 | 00:00:00 | 00:00:00 | |
| OE3MUC-15 | 2026-09-05 00:41:59 | 48.22900 | 17.71067 | 79° | 31km/h | 19232m | 4.4m/s | -55.6°C | 4.5% | 0hPa | 2.6V | 00:00:00 | 00:00:00 | 00:00:00 | |
| OE3MUC-15 | 2026-09-05 00:41:55 | 48.22893 | 17.71020 | 82° | 31km/h | 19212m | 3.9m/s | -55.6°C | 4.4% | 0hPa | 2.6V | 00:00:00 | 00:00:00 | 00:00:00 | |
| OE5MMP-10 | 2026-09-05 00:41:54 | 48.22892 | 17.71008 | 84° | 31km/h | 19208m | 6.0m/s | -55.6°C | 4.4% | 0hPa | 2.5V | 00:00:00 | 01:19:11 | 00:00:00 | |
| OE3MUC-15 | 2026-09-05 00:41:49 | 48.22885 | 17.70951 | 77° | 33km/h | 19184m | 4.0m/s | -55.6°C | 4.4% | 0hPa | 2.5V | 00:00:00 | 00:00:00 | 00:00:00 | |
| OE3MUC-15 | 2026-09-05 00:41:45 | 48.22881 | 17.70904 | 88° | 29km/h | 19164m | 4.5m/s | -55.7°C | 4.4% | 0hPa | 2.5V | 00:00:00 | 00:00:00 | 00:00:00 | |
| PETON7-10 | 2026-09-05 00:41:44 | 48.22881 | 17.70893 | 82° | 35km/h | 19159m | 5.0m/s | -55.9°C | 4.5% | 0hPa | 2.5V | 00:00:00 | 00:00:00 | 00:00:00 | |
| PG1ADW-2 | 2026-09-05 00:41:42 | 48.22879 | 17.70872 | 89° | 37km/h | 19150m | 3.8m/s | -56.1°C | 4.6% | 0hPa | 2.6V | 00:00:00 | 00:00:00 | 00:00:00 | |
| OE5MMP-10 | 2026-09-05 00:41:34 | 48.22880 | 17.70764 | 92° | 37km/h | 19110m | 4.8m/s | -56.1°C | 4.6% | 0hPa | 2.5V | 00:00:00 | 01:18:51 | 00:00:00 | |
| PETON7-10 | 2026-09-05 00:41:29 | 48.22878 | 17.70692 | 92° | 37km/h | 19085m | 4.7m/s | -56.0°C | 4.6% | 0hPa | 2.5V | 00:00:00 | 00:00:00 | 00:00:00 | |
| OE5MMP-10 | 2026-09-05 00:41:24 | 48.22873 | 17.70627 | 81° | 38km/h | 19060m | 5.2m/s | -55.8°C | 4.6% | 0hPa | 2.5V | 00:00:00 | 01:18:41 | 00:00:00 | |
| OE5DRO-10 | 2026-09-05 00:41:23 | 48.22872 | 17.70613 | 82° | 35km/h | 19055m | 4.4m/s | -55.8°C | 4.6% | 0hPa | 2.5V | 00:00:00 | 00:00:00 | 08:30:00 | |
| PG1ADW-2 | 2026-09-05 00:41:22 | 48.22870 | 17.70599 | 79° | 35km/h | 19050m | 3.8m/s | -55.7°C | 4.6% | 0hPa | 2.4V | 00:00:00 | 00:00:00 | 00:00:00 | |
| OE3MUC-15 | 2026-09-05 00:41:21 | 48.22868 | 17.70585 | 77° | 38km/h | 19045m | 5.6m/s | -55.7°C | 4.6% | 0hPa | 2.4V | 00:00:00 | 00:00:00 | 00:00:00 | |
| OE3MUC-15 | 2026-09-05 00:41:17 | 48.22860 | 17.70528 | 84° | 37km/h | 19027m | 3.3m/s | -55.5°C | 4.5% | 0hPa | 2.4V | 00:00:00 | 00:00:00 | 00:00:00 | |
| OE3MUC-15 | 2026-09-05 00:41:13 | 48.22853 | 17.70476 | 83° | 31km/h | 19007m | 5.4m/s | -55.4°C | 4.5% | 0hPa | 2.4V | 00:00:00 | 00:00:00 | 00:00:00 | |
| OE3OSB-13 | 2026-09-05 00:41:11 | 48.22852 | 17.70442 | 82° | 31km/h | 18992m | 4.7m/s | -55.3°C | 1.2% | -1.0hPa | 2.4V | 00:00:00 | 00:00:00 | 00:00:00 | |
| OE3MUC-15 | 2026-09-05 00:41:09 | 48.22850 | 17.70430 | 77° | 35km/h | 18987m | 4.9m/s | -55.2°C | 4.4% | 0hPa | 2.4V | 00:00:00 | 00:00:00 | 00:00:00 | |
| OE3MUC-15 | 2026-09-05 00:41:05 | 48.22842 | 17.70378 | 75° | 35km/h | 18967m | 4.6m/s | -55.2°C | 4.3% | 0hPa | 2.4V | 00:00:00 | 00:00:00 | 00:00:00 | |
| OE5MMP-10 | 2026-09-05 00:41:04 | 48.22839 | 17.70365 | 74° | 33km/h | 18962m | 5.6m/s | -55.2°C | 4.3% | 0hPa | 2.6V | 00:00:00 | 01:18:21 | 00:00:00 | |
| OE5DRO-10 | 2026-09-05 00:41:02 | 48.22834 | 17.70340 | 78° | 35km/h | 18952m | 5.2m/s | -55.3°C | 4.4% | 0hPa | 2.6V | 00:00:00 | 00:00:00 | 00:00:00 | |
| OE3MUC-15 | 2026-09-05 00:41:01 | 48.22832 | 17.70328 | 81° | 31km/h | 18947m | 5.0m/s | -55.4°C | 4.4% | 0hPa | 2.6V | 00:00:00 | 00:00:00 | 00:00:00 | |
| PETON7-10 | 2026-09-05 00:40:59 | 48.22829 | 17.70304 | 76° | 37km/h | 18937m | 5.9m/s | -55.4°C | 4.4% | 0hPa | 2.6V | 00:00:00 | 00:00:00 | 08:30:00 | |
| OE3MUC-15 | 2026-09-05 00:40:57 | 48.22825 | 17.70283 | 71° | 35km/h | 18927m | 4.1m/s | -55.3°C | 4.4% | 0hPa | 2.6V | 00:00:00 | 00:00:00 | 00:00:00 | |
| OE5MMP-10 | 2026-09-05 00:40:54 | 48.22818 | 17.70246 | 80° | 38km/h | 18912m | 4.4m/s | -55.2°C | 4.3% | 0hPa | 2.6V | 00:00:00 | 01:18:11 | 00:00:00 | |
| OE3MUC-15 | 2026-09-05 00:40:53 | 48.22817 | 17.70231 | 79° | 40km/h | 18908m | 3.9m/s | -55.2°C | 4.4% | 0hPa | 2.6V | 00:00:00 | 00:00:00 | 08:30:00 | |
| OE3MUC-15 | 2026-09-05 00:40:45 | 48.22793 | 17.70119 | 61° | 31km/h | 18868m | 3.4m/s | -55.1°C | 4.4% | 0hPa | 2.4V | 00:00:00 | 00:00:00 | 00:00:00 | |
| OE5MMP-10 | 2026-09-05 00:40:44 | 48.22790 | 17.70109 | 68° | 33km/h | 18864m | 4.7m/s | -55.1°C | 4.3% | 0hPa | 2.4V | 00:00:00 | 01:18:01 | 00:00:00 | |
| OE5DRO-10 | 2026-09-05 00:40:43 | 48.22786 | 17.70098 | 70° | 35km/h | 18859m | 5.0m/s | -55.1°C | 4.3% | 0hPa | 2.5V | 00:00:00 | 00:00:00 | 00:00:00 | |
| PG1ADW-2 | 2026-09-05 00:40:42 | 48.22784 | 17.70087 | 76° | 35km/h | 18854m | 4.1m/s | -55.1°C | 4.4% | 0hPa | 2.5V | 00:00:00 | 01:17:59 | 00:00:00 | |
| OE3MUC-15 | 2026-09-05 00:40:41 | 48.22782 | 17.70074 | 73° | 33km/h | 18850m | 3.0m/s | -55.1°C | 4.3% | 0hPa | 2.5V | 00:00:00 | 00:00:00 | 00:00:00 | |
| OE3OSB-13 | 2026-09-05 00:40:40 | 48.22776 | 17.70051 | 65° | 31km/h | 18841m | 5.2m/s | -55.1°C | 1.2% | -1.0hPa | 2.4V | 00:00:00 | 00:00:00 | 00:00:00 | |
| OE3MUC-15 | 2026-09-05 00:40:37 | 48.22769 | 17.70028 | 69° | 37km/h | 18832m | 4.7m/s | -55.1°C | 4.3% | 0hPa | 2.4V | 00:00:00 | 00:00:00 | 00:00:00 | |
| OE5MMP-10 | 2026-09-05 00:40:34 | 48.22760 | 17.69989 | 67° | 35km/h | 18818m | 5.7m/s | -55.3°C | 4.4% | 0hPa | 2.4V | 00:00:00 | 01:17:51 | 00:00:00 | |
| OE3MUC-15 | 2026-09-05 00:40:33 | 48.22756 | 17.69977 | 63° | 35km/h | 18812m | 4.6m/s | -55.3°C | 4.4% | 0hPa | 2.4V | 00:00:00 | 00:00:00 | 00:00:00 | |
| HA6NAB-11 | 2026-09-05 00:40:30 | 48.22744 | 17.69941 | 69° | 37km/h | 18798m | 4.3m/s | -55.3°C | 1.4% | 0hPa | 2.4V | 00:00:00 | 00:00:00 | 00:00:00 | |
| OE3MUC-15 | 2026-09-05 00:40:29 | 48.22741 | 17.69929 | 66° | 35km/h | 18793m | 4.0m/s | -55.2°C | 4.4% | 0hPa | 2.4V | 00:00:00 | 00:00:00 | 00:00:00 | |
| OE3MUC-15 | 2026-09-05 00:40:25 | 48.22724 | 17.69884 | 62° | 33km/h | 18774m | 4.7m/s | -55.3°C | 4.4% | 0hPa | 2.6V | 00:00:00 | 00:00:00 | 00:00:00 | |
| OE5MMP-10 | 2026-09-05 00:40:24 | 48.22720 | 17.69872 | 64° | 31km/h | 18770m | 4.3m/s | -55.3°C | 4.5% | 0hPa | 2.6V | 00:00:00 | 01:17:41 | 00:00:00 | |
| HA6NAB-11 | 2026-09-05 00:40:23 | 48.22719 | 17.69872 | 65° | 35km/h | 18770m | 4.3m/s | -55.3°C | 1.4% | 0hPa | 2.6V | 00:00:00 | 00:00:00 | 00:00:00 | |
| PG1ADW-2 | 2026-09-05 00:40:22 | 48.22712 | 17.69851 | 57° | 27km/h | 18760m | 5.6m/s | -55.2°C | 4.4% | 0hPa | 2.6V | 00:00:00 | 00:00:00 | 00:00:00 | |
| OE3MUC-15 | 2026-09-05 00:40:21 | 48.22708 | 17.69841 | 56° | 31km/h | 18756m | 3.7m/s | -55.2°C | 4.4% | 0hPa | 2.6V | 00:00:00 | 00:00:00 | 00:00:00 | |
| S52SK | 2026-09-05 00:40:19 | 48.22700 | 17.69821 | 65° | 31km/h | 18746m | 5.5m/s | -55.2°C | 1.4% | 0hPa | 2.6V | 00:00:00 | 00:00:00 | 00:00:00 | |
| OE3MUC-15 | 2026-09-05 00:40:17 | 48.22692 | 17.69800 | 62° | 27km/h | 18737m | 4.8m/s | -55.1°C | 4.4% | 0hPa | 2.6V | 00:00:00 | 00:00:00 | 08:30:00 | |
| PETON7-10 | 2026-09-05 00:40:14 | 48.22680 | 17.69775 | 53° | 27km/h | 18722m | 4.1m/s | -55.0°C | 4.3% | 0hPa | 2.5V | 00:00:00 | 00:00:00 | 00:00:00 | |
| OE3MUC-15 | 2026-09-05 00:40:13 | 48.22676 | 17.69767 | 54° | 29km/h | 18717m | 4.8m/s | -55.1°C | 4.3% | 0hPa | 2.6V | 00:00:00 | 00:00:00 | 00:00:00 | |
| HA6NAB-11 | 2026-09-05 00:40:11 | 48.22672 | 17.69758 | 57° | 31km/h | 18712m | 4.8m/s | -55.2°C | 1.4% | 0hPa | 2.6V | 00:00:00 | 00:00:00 | 00:00:00 | |
| OE3MUC-15 | 2026-09-05 00:40:09 | 48.22659 | 17.69732 | 53° | 27km/h | 18696m | 4.3m/s | -55.0°C | 4.4% | 0hPa | 2.6V | 00:00:00 | 00:00:00 | 00:00:00 | |
| S52SK | 2026-09-05 00:40:07 | 48.22655 | 17.69724 | 58° | 26km/h | 18692m | 4.9m/s | -55.1°C | 1.4% | 0hPa | 2.6V | 00:00:00 | 00:00:00 | 00:00:00 | |
| HA6NAB-11 | 2026-09-05 00:40:06 | 48.22652 | 17.69715 | 63° | 27km/h | 18686m | 5.1m/s | -55.0°C | 1.4% | 0hPa | 2.6V | 00:00:00 | 00:00:00 | 00:00:00 | |
| OE3MUC-15 | 2026-09-05 00:40:05 | 48.22645 | 17.69698 | 60° | 24km/h | 18677m | 4.9m/s | -54.9°C | 4.3% | 0hPa | 2.6V | 00:00:00 | 00:00:00 | 00:00:00 | |
| OE5MMP-10 | 2026-09-05 00:40:04 | 48.22642 | 17.69691 | 47° | 27km/h | 18671m | 5.6m/s | -54.9°C | 4.2% | 0hPa | 2.5V | 00:00:00 | 01:17:21 | 00:00:00 | |
| OE3MUC-15 | 2026-09-05 00:40:01 | 48.22627 | 17.69671 | 43° | 27km/h | 18655m | 5.1m/s | -54.8°C | 4.2% | 0hPa | 2.5V | 00:00:00 | 00:00:00 | 00:00:00 | |
| HA6NAB-11 | 2026-09-05 00:40:00 | 48.22627 | 17.69671 | 43° | 27km/h | 18655m | 5.2m/s | -54.9°C | 1.3% | 0hPa | 2.5V | 00:00:00 | 00:00:00 | 00:00:00 | |
| PETON7-10 | 2026-09-05 00:39:59 | 48.22617 | 17.69658 | 33° | 26km/h | 18645m | 5.5m/s | -54.8°C | 4.1% | 0hPa | 2.5V | 00:00:00 | 00:00:00 | 00:00:00 | |
| GYPAP8-17 | 2026-09-05 00:39:58 | 48.22617 | 17.69658 | 34° | 27km/h | 18645m | 5.5m/s | 0°C | 0% | 0hPa | 2.5V | 00:00:00 | 00:00:00 | 00:00:00 | |
| OE3MUC-15 | 2026-09-05 00:39:57 | 48.22605 | 17.69646 | 36° | 29km/h | 18635m | 4.9m/s | -54.8°C | 4.1% | 0hPa | 2.5V | 00:00:00 | 00:00:00 | 00:00:00 | |
| OE5MMP-10 | 2026-09-05 00:39:54 | 48.22588 | 17.69625 | 42° | 24km/h | 18620m | 5.6m/s | -54.9°C | 4.2% | 0hPa | 2.5V | 00:00:00 | 01:17:11 | 00:00:00 | |
| OE3MUC-15 | 2026-09-05 00:39:53 | 48.22583 | 17.69619 | 36° | 26km/h | 18615m | 4.8m/s | -54.9°C | 4.2% | 0hPa | 2.5V | 00:00:00 | 00:00:00 | 00:00:00 | |
| OE3MUC-15 | 2026-09-05 00:39:49 | 48.22564 | 17.69592 | 43° | 24km/h | 18596m | 3.7m/s | -55.1°C | 4.3% | 0hPa | 2.6V | 00:00:00 | 00:00:00 | 00:00:00 | |
| OE5DRO-10 | 2026-09-05 00:39:46 | 48.22549 | 17.69577 | 31° | 18km/h | 18582m | 3.2m/s | -55.6°C | 4.5% | 0hPa | 2.6V | 00:00:00 | 00:00:00 | 00:00:00 | |
| OE3MUC-15 | 2026-09-05 00:39:45 | 48.22545 | 17.69573 | 40° | 20km/h | 18578m | 4.7m/s | -55.7°C | 4.5% | 0hPa | 2.6V | 00:00:00 | 00:00:00 | 00:00:00 | |
| PETON7-10 | 2026-09-05 00:39:44 | 48.22541 | 17.69568 | 46° | 18km/h | 18573m | 4.4m/s | -55.7°C | 4.5% | 0hPa | 2.6V | 00:00:00 | 01:17:01 | 00:00:00 | |
| PG1ADW-2 | 2026-09-05 00:39:40 | 48.22520 | 17.69530 | 59° | 15km/h | 18539m | 5.4m/s | -55.7°C | 4.5% | 0hPa | 2.6V | 00:00:00 | 00:00:00 | 08:30:00 | |
| OE3OSB-13 | 2026-09-05 00:39:38 | 48.22520 | 17.69530 | 58° | 11km/h | 18539m | 5.4m/s | -55.7°C | 1.3% | -1.0hPa | 2.6V | 00:00:00 | 00:00:00 | 00:00:00 | |
| OE5MMP-10 | 2026-09-05 00:39:34 | 48.22514 | 17.69519 | 55° | 18km/h | 18525m | 5.5m/s | -55.5°C | 4.5% | 0hPa | 2.6V | 00:00:00 | 01:16:51 | 00:00:00 | |
| PETON7-10 | 2026-09-05 00:39:29 | 48.22497 | 17.69494 | 41° | 15km/h | 18502m | 3.6m/s | -55.4°C | 4.5% | 0hPa | 2.6V | 00:00:00 | 00:00:00 | 00:00:00 | |
| OE5DRO-10 | 2026-09-05 00:39:27 | 48.22490 | 17.69483 | 64° | 15km/h | 18493m | 3.9m/s | -55.3°C | 4.5% | 0hPa | 2.4V | 00:00:00 | 00:00:00 | 00:00:00 | |
| OE5MMP-10 | 2026-09-05 00:39:24 | 48.22487 | 17.69468 | 74° | 13km/h | 18481m | 3.5m/s | -55.3°C | 4.5% | 0hPa | 2.5V | 00:00:00 | 01:16:41 | 00:00:00 | |
| OE3MUC-15 | 2026-09-05 00:39:21 | 48.22486 | 17.69457 | 75° | 11km/h | 18469m | 3.3m/s | -55.2°C | 4.4% | 0hPa | 2.5V | 00:00:00 | 00:00:00 | 00:00:00 | |
| PG1ADW-2 | 2026-09-05 00:39:20 | 48.22484 | 17.69454 | 33° | 15km/h | 18465m | 4.0m/s | -55.2°C | 4.3% | 0hPa | 2.5V | 00:00:00 | 01:16:37 | 00:00:00 | |
| OE3MUC-15 | 2026-09-05 00:39:17 | 48.22476 | 17.69450 | 22° | 18km/h | 18451m | 5.2m/s | -55.1°C | 4.3% | 0hPa | 2.5V | 00:00:00 | 00:00:00 | 00:00:00 | |
| PETON7-10 | 2026-09-05 00:39:14 | 48.22465 | 17.69438 | 47° | 16km/h | 18439m | 4.1m/s | !°C | 4.4% | 0hPa | 2.6V | 00:00:00 | 00:00:00 | 00:00:00 | |
| OE3MUC-15 | 2026-09-05 00:39:13 | 48.22462 | 17.69434 | 47° | 18km/h | 18434m | 4.6m/s | -55.0°C | 4.4% | 0hPa | 2.6V | 00:00:00 | 00:00:00 | 00:00:00 | |
| OE3MUC-15 | 2026-09-05 00:39:09 | 48.22460 | 17.69407 | 103° | 15km/h | 18416m | 3.1m/s | -54.8°C | 4.3% | 0hPa | 2.6V | 00:00:00 | 00:00:00 | 00:00:00 | |
| OE5DRO-10 | 2026-09-05 00:39:08 | 48.22461 | 17.69400 | 100° | 27km/h | 18412m | 5.8m/s | -54.8°C | 4.2% | 0hPa | 2.6V | 00:00:00 | 00:00:00 | 00:00:00 | |
| OE3OSB-13 | 2026-09-05 00:39:07 | 48.22461 | 17.69392 | 53° | 9km/h | 18402m | 4.1m/s | -54.8°C | 1.2% | -1.0hPa | 2.6V | 00:00:00 | 00:00:00 | 00:00:00 | |
| OE5MMP-10 | 2026-09-05 00:39:04 | 48.22456 | 17.69384 | 55° | 18km/h | 18391m | 5.0m/s | -54.8°C | 4.2% | 0hPa | 2.6V | 00:00:00 | 01:16:21 | 00:00:00 | |
| OE3MUC-15 | 2026-09-05 00:39:01 | 48.22451 | 17.69369 | 66° | 15km/h | 18377m | 4.8m/s | -54.9°C | 4.3% | 0hPa | 2.6V | 00:00:00 | 00:00:00 | 00:00:00 | |
| PG1ADW-2 | 2026-09-05 00:39:00 | 48.22449 | 17.69365 | 63° | 26km/h | 18372m | 4.7m/s | -55.0°C | 4.3% | 0hPa | 2.6V | 00:00:00 | 00:00:00 | 00:00:00 | |
| PETON7-10 | 2026-09-05 00:38:59 | 48.22448 | 17.69360 | 60° | 24km/h | 18368m | 3.6m/s | -55.1°C | 4.3% | 0hPa | 2.6V | 00:00:00 | 01:16:16 | 00:00:00 | |
| OE3MUC-15 | 2026-09-05 00:38:57 | 48.22443 | 17.69347 | 65° | 24km/h | 18359m | 4.9m/s | -55.2°C | 4.3% | 0hPa | 2.6V | 00:00:00 | 00:00:00 | 00:00:00 | |
| OE5MMP-10 | 2026-09-05 00:38:54 | 48.22438 | 17.69322 | 86° | 24km/h | 18343m | 5.7m/s | -55.4°C | 4.3% | 0hPa | 2.6V | 00:00:00 | 01:16:11 | 00:00:00 | |
| OE3MUC-15 | 2026-09-05 00:38:53 | 48.22438 | 17.69315 | 83° | 18km/h | 18338m | 5.4m/s | -55.5°C | 4.4% | 0hPa | 2.6V | 00:00:00 | 00:00:00 | 00:00:00 | |
| OE3MUC-15 | 2026-09-05 00:38:49 | 48.22434 | 17.69288 | 75° | 27km/h | 18318m | 3.6m/s | -55.4°C | 4.3% | 0hPa | 2.5V | 00:00:00 | 00:00:00 | 00:00:00 | |
| OE3MUC-15 | 2026-09-05 00:38:45 | 48.22429 | 17.69245 | 82° | 37km/h | 18300m | 5.0m/s | -55.4°C | 4.3% | 0hPa | 2.5V | 00:00:00 | 00:00:00 | 00:00:00 | |
| OE5MMP-10 | 2026-09-05 00:38:44 | 48.22427 | 17.69232 | 76° | 35km/h | 18294m | 4.7m/s | -55.4°C | 4.3% | 0hPa | 2.5V | 00:00:00 | 01:16:01 | 08:30:00 | |
| OE3MUC-15 | 2026-09-05 00:38:41 | 48.22421 | 17.69190 | 80° | 33km/h | 18281m | 3.8m/s | -55.5°C | 4.3% | 0hPa | 2.6V | 00:00:00 | 00:00:00 | 00:00:00 | |
| PG1ADW-2 | 2026-09-05 00:38:40 | 48.22419 | 17.69178 | 77° | 37km/h | 18277m | 3.6m/s | -55.6°C | 4.3% | 0hPa | 2.6V | 00:00:00 | 00:00:00 | 00:00:00 | |
| ATIDSZ-14 | 2026-09-05 00:38:38 | 48.22417 | 17.69166 | 75° | 33km/h | 18272m | 4.9m/s | -55.7°C | 1.4% | 0hPa | 2.5V | 00:00:00 | 00:00:00 | 00:00:00 | |
| OE3MUC-15 | 2026-09-05 00:38:37 | 48.22413 | 17.69143 | 77° | 33km/h | 18264m | 4.2m/s | -55.6°C | 4.3% | 0hPa | 2.5V | 00:00:00 | 00:00:00 | 00:00:00 | |
| OE3OSB-13 | 2026-09-05 00:38:35 | 48.22411 | 17.69119 | 81° | 33km/h | 18254m | 3.7m/s | -55.6°C | 1.2% | -1.0hPa | 2.5V | 00:00:00 | 00:00:00 | 00:00:00 | |
| OE5MMP-10 | 2026-09-05 00:38:34 | 48.22410 | 17.69107 | 82° | 37km/h | 18250m | 4.6m/s | -55.6°C | 4.3% | 0hPa | 2.5V | 00:00:00 | 01:15:51 | 00:00:00 | |
| OE3MUC-15 | 2026-09-05 00:38:33 | 48.22408 | 17.69094 | 77° | 35km/h | 18245m | 4.1m/s | -55.6°C | 4.3% | 0hPa | 2.5V | 00:00:00 | 00:00:00 | 00:00:00 | |
| PETON7-10 | 2026-09-05 00:38:29 | 48.22398 | 17.69044 | 68° | 44km/h | 18227m | 3.1m/s | -56.0°C | 4.4% | 0hPa | 2.5V | 00:00:00 | 00:00:00 | 00:00:00 | |
| OE3MUC-15 | 2026-09-05 00:38:25 | 48.22383 | 17.68987 | 73° | 40km/h | 18210m | 5.5m/s | -56.4°C | 4.6% | 0hPa | 2.5V | 00:00:00 | 00:00:00 | 00:00:00 | |
| OE5MMP-10 | 2026-09-05 00:38:24 | 48.22380 | 17.68973 | 75° | 44km/h | 18205m | 4.5m/s | -56.6°C | 4.6% | 0hPa | 2.5V | 00:00:00 | 01:15:41 | 00:00:00 | |
| OE3MUC-15 | 2026-09-05 00:38:21 | 48.22372 | 17.68929 | 75° | 47km/h | 18192m | 4.6m/s | -56.6°C | 4.7% | 0hPa | 2.5V | 00:00:00 | 00:00:00 | 00:00:00 | |
| PG1ADW-2 | 2026-09-05 00:38:20 | 48.22369 | 17.68912 | 71° | 42km/h | 18187m | 4.0m/s | -56.6°C | 4.7% | 0hPa | 2.5V | 00:00:00 | 00:00:00 | 00:00:00 | |
| ATIDSZ-14 | 2026-09-05 00:38:18 | 48.22364 | 17.68895 | 72° | 47km/h | 18183m | 3.9m/s | -56.6°C | 1.5% | 0hPa | 2.5V | 00:00:00 | 00:00:00 | 00:00:00 | |
| OE3MUC-15 | 2026-09-05 00:38:17 | 48.22356 | 17.68862 | 68° | 46km/h | 18174m | 4.5m/s | -56.5°C | 4.8% | 0hPa | 2.5V | 00:00:00 | 00:00:00 | 00:00:00 | |
| PETON7-10 | 2026-09-05 00:38:14 | 48.22342 | 17.68815 | 64° | 40km/h | 18160m | 2.8m/s | -56.4°C | 4.8% | 0hPa | 2.6V | 00:00:00 | 01:15:31 | 00:00:00 | |
| OE3MUC-15 | 2026-09-05 00:38:13 | 48.22338 | 17.68800 | 64° | 40km/h | 18155m | 5.5m/s | -56.4°C | 4.7% | 0hPa | 2.6V | 00:00:00 | 00:00:00 | 00:00:00 | |
| DO3MHA-11 | 2026-09-05 00:38:12 | 48.22333 | 17.68787 | 64° | 40km/h | 18150m | 4.7m/s | -56.4°C | 4.7% | 0hPa | 2.6V | 00:00:00 | 01:15:29 | 00:00:00 | |
| HA6NAB-11 | 2026-09-05 00:38:11 | 48.22333 | 17.68787 | 65° | 38km/h | 18150m | 4.8m/s | -56.4°C | 1.5% | 0hPa | 2.6V | 00:00:00 | 00:00:00 | 00:00:00 | |
| OE3MUC-15 | 2026-09-05 00:38:09 | 48.22319 | 17.68746 | 61° | 40km/h | 18136m | 3.8m/s | -56.3°C | 4.7% | 0hPa | 2.6V | 00:00:00 | 00:00:00 | 00:00:00 | |
| S52SK | 2026-09-05 00:38:06 | 48.22308 | 17.68721 | 53° | 38km/h | 18126m | 5.0m/s | -56.3°C | 1.5% | 0hPa | 2.6V | 00:00:00 | 00:00:00 | 00:00:00 | |
| OE3MUC-15 | 2026-09-05 00:38:05 | 48.22296 | 17.68697 | 56° | 40km/h | 18118m | 4.5m/s | -56.2°C | 4.6% | 0hPa | 2.6V | 00:00:00 | 00:00:00 | 00:00:00 | |
| OE5MMP-10 | 2026-09-05 00:38:04 | 48.22290 | 17.68683 | 63° | 38km/h | 18113m | 4.6m/s | -56.2°C | 4.6% | 0hPa | 2.6V | 00:00:00 | 01:15:21 | 00:00:00 | |
| DO3MHA-11 | 2026-09-05 00:38:02 | 48.22282 | 17.68654 | 72° | 38km/h | 18104m | 5.0m/s | -56.2°C | 4.6% | 0hPa | 2.6V | 00:00:00 | 01:15:19 | 00:00:00 | |
| OE3MUC-15 | 2026-09-05 00:38:00 | 48.22276 | 17.68627 | 74° | 37km/h | 18094m | 4.0m/s | -56.2°C | 4.6% | 0hPa | 2.6V | 00:00:00 | 00:00:00 | 00:00:00 | |
| PETON7-10 | 2026-09-05 00:37:59 | 48.22273 | 17.68614 | 72° | 35km/h | 18090m | 3.1m/s | -56.2°C | 4.6% | 0hPa | 2.6V | 00:00:00 | 00:00:00 | 00:00:00 | |
| ATIDSZ-14 | 2026-09-05 00:37:57 | 48.22271 | 17.68601 | 70° | 37km/h | 18086m | 4.4m/s | -56.3°C | 1.5% | 0hPa | 2.6V | 00:00:00 | 00:00:00 | 00:00:00 | |
| OE3MUC-15 | 2026-09-05 00:37:56 | 48.22262 | 17.68575 | 62° | 37km/h | 18077m | 3.6m/s | -56.2°C | 4.7% | 0hPa | 2.6V | 00:00:00 | 00:00:00 | 00:00:00 | |
| HA6NAB-11 | 2026-09-05 00:37:55 | 48.22262 | 17.68575 | 63° | 40km/h | 18077m | 3.6m/s | -56.2°C | 1.5% | 0hPa | 2.6V | 00:00:00 | 00:00:00 | 00:00:00 | |
| OE5MMP-10 | 2026-09-05 00:37:54 | 48.22252 | 17.68551 | 54° | 33km/h | 18068m | 4.6m/s | -56.1°C | 4.6% | 0hPa | 2.6V | 00:00:00 | 01:15:11 | 00:00:00 | |
| OE3MUC-15 | 2026-09-05 00:37:52 | 48.22240 | 17.68530 | 47° | 35km/h | 18058m | 4.9m/s | -56.0°C | 4.7% | 0hPa | 2.6V | 00:00:00 | 00:00:00 | 08:30:00 | |
| OE5DRO-10 | 2026-09-05 00:37:51 | 48.22234 | 17.68520 | 51° | 29km/h | 18053m | 4.3m/s | -56.0°C | 4.7% | 0hPa | 2.5V | 00:00:00 | 00:00:00 | 00:00:00 | |
| HA6NAB-11 | 2026-09-05 00:37:49 | 48.22229 | 17.68509 | 53° | 35km/h | 18049m | 4.1m/s | -56.0°C | 1.5% | 0hPa | 2.5V | 00:00:00 | 00:00:00 | 00:00:00 | |
| OE3MUC-15 | 2026-09-05 00:37:48 | 48.22219 | 17.68490 | 58° | 31km/h | 18039m | 3.7m/s | -55.8°C | 4.6% | 0hPa | 2.5V | 00:00:00 | 00:00:00 | 00:00:00 | |
| PETON7-10 | 2026-09-05 00:37:44 | 48.22204 | 17.68449 | 57° | 29km/h | 18022m | 3.1m/s | -55.7°C | 4.6% | 0hPa | 2.5V | 00:00:00 | 00:00:00 | 00:00:00 | |
| HA6NAB-11 | 2026-09-05 00:37:43 | 48.22204 | 17.68449 | 58° | 33km/h | 18022m | 3.1m/s | -55.8°C | 1.5% | 0hPa | 2.5V | 00:00:00 | 00:00:00 | 00:00:00 | |
| OE5MMP-10 | 2026-09-05 00:37:42 | 48.22196 | 17.68430 | 53° | 29km/h | 18013m | 5.4m/s | -55.6°C | 4.6% | 0hPa | 2.5V | 00:00:00 | 01:14:59 | 00:00:00 | |
| PG1ADW-2 | 2026-09-05 00:37:40 | 48.22187 | 17.68415 | 53° | 27km/h | 18004m | 5.0m/s | -55.6°C | 4.5% | 0hPa | 2.5V | 00:00:00 | 00:00:00 | 00:00:00 | |
| ATIDSZ-14 | 2026-09-05 00:37:37 | 48.22179 | 17.68397 | 58° | 27km/h | 17994m | 4.6m/s | -55.6°C | 1.5% | 0hPa | 2.5V | 00:00:00 | 00:00:00 | 00:00:00 | |
| OE5DRO-10 | 2026-09-05 00:37:32 | 48.22157 | 17.68340 | 56° | 26km/h | 17965m | 4.6m/s | -55.4°C | 4.4% | 0hPa | 2.5V | 00:00:00 | 00:00:00 | 08:30:00 | |
| OE5MMP-10 | 2026-09-05 00:37:31 | 48.22152 | 17.68332 | 51° | 26km/h | 17960m | 4.7m/s | -55.4°C | 4.5% | 0hPa | 2.6V | 00:00:00 | 01:14:48 | 00:00:00 | |
| PETON7-10 | 2026-09-05 00:37:29 | 48.22144 | 17.68317 | 52° | 26km/h | 17952m | 4.5m/s | -55.4°C | 4.4% | 0hPa | 2.6V | 00:00:00 | 01:14:46 | 00:00:00 | |
| DO3MHA-11 | 2026-09-05 00:37:25 | 48.22129 | 17.68279 | 69° | 24km/h | 17934m | 4.6m/s | -55.4°C | 4.4% | 0hPa | 2.6V | 00:00:00 | 01:14:42 | 00:00:00 | |
| OE5MMP-10 | 2026-09-05 00:37:21 | 48.22119 | 17.68248 | 59° | 24km/h | 17916m | 5.3m/s | -55.3°C | 4.4% | 0hPa | 2.6V | 00:00:00 | 01:14:38 | 00:00:00 | |
| PG1ADW-2 | 2026-09-05 00:37:20 | 48.22116 | 17.68239 | 56° | 22km/h | 17912m | 3.5m/s | -55.3°C | 4.4% | 0hPa | 2.6V | 00:00:00 | 00:00:00 | 00:00:00 | |
| OE3MUC-15 | 2026-09-05 00:37:19 | 48.22112 | 17.68230 | 55° | 24km/h | 17909m | 2.9m/s | -55.3°C | 4.3% | 0hPa | 2.6V | 00:00:00 | 00:00:00 | 00:00:00 | |
| ATIDSZ-14 | 2026-09-05 00:37:16 | 48.22103 | 17.68214 | 54° | 22km/h | 17900m | 4.7m/s | -55.4°C | 1.5% | 0hPa | 2.6V | 00:00:00 | 00:00:00 | 00:00:00 | |
| OE3MUC-15 | 2026-09-05 00:37:15 | 48.22098 | 17.68201 | 66° | 22km/h | 17891m | 4.4m/s | -55.4°C | 4.4% | 0hPa | 2.6V | 00:00:00 | 00:00:00 | 08:30:00 | |
| PETON7-10 | 2026-09-05 00:37:14 | 48.22096 | 17.68194 | 69° | 20km/h | 17887m | 4.1m/s | -55.4°C | 4.4% | 0hPa | 2.5V | 00:00:00 | 00:00:00 | 00:00:00 | |
| OE5DRO-10 | 2026-09-05 00:37:13 | 48.22094 | 17.68187 | 71° | 20km/h | 17882m | 4.3m/s | -55.4°C | 4.4% | 0hPa | 2.5V | 00:00:00 | 00:00:00 | 00:00:00 | |
| OE3MUC-15 | 2026-09-05 00:37:11 | 48.22091 | 17.68170 | 76° | 20km/h | 17874m | 5.0m/s | -55.4°C | 4.5% | 0hPa | 2.5V | 00:00:00 | 00:00:00 | 00:00:00 | |
| OE3MUC-15 | 2026-09-05 00:37:07 | 48.22084 | 17.68140 | 69° | 20km/h | 17854m | 4.0m/s | -55.6°C | 4.5% | 0hPa | 2.5V | 00:00:00 | 00:00:00 | 00:00:00 | |
| DO3MHA-11 | 2026-09-05 00:37:05 | 48.22080 | 17.68126 | 72° | 18km/h | 17845m | 5.1m/s | -55.6°C | 4.6% | 0hPa | 2.5V | 00:00:00 | 01:14:22 | 00:00:00 | |
| OE3MUC-15 | 2026-09-05 00:37:03 | 48.22077 | 17.68112 | 74° | 20km/h | 17836m | 4.9m/s | -55.7°C | 4.5% | 0hPa | 2.6V | 00:00:00 | 00:00:00 | 00:00:00 | |
| OE5MMP-10 | 2026-09-05 00:37:01 | 48.22075 | 17.68098 | 81° | 18km/h | 17826m | 3.9m/s | 0°C | 0% | 0hPa | 2.5V | 00:00:00 | 01:14:18 | 00:00:00 | |
| PG1ADW-2 | 2026-09-05 00:37:00 | 48.22075 | 17.68090 | 83° | 20km/h | 17821m | 5.3m/s | -55.7°C | 4.6% | 0hPa | 2.5V | 00:00:00 | 00:00:00 | 00:00:00 | |
| PETON7-10 | 2026-09-05 00:36:59 | 48.22074 | 17.68084 | 83° | 20km/h | 17816m | 4.5m/s | -55.7°C | 4.6% | 0hPa | 2.5V | 00:00:00 | 00:00:00 | 00:00:00 | |
| DO3MHA-11 | 2026-09-05 00:36:55 | 48.22070 | 17.68056 | 87° | 20km/h | 17800m | 3.7m/s | -55.5°C | 4.6% | 0hPa | 2.5V | 00:00:00 | 01:14:12 | 00:00:00 | |
| OE5DRO-10 | 2026-09-05 00:36:54 | 48.22070 | 17.68049 | 83° | 22km/h | 17795m | 5.5m/s | -55.5°C | 4.5% | 0hPa | 2.5V | 00:00:00 | 00:00:00 | 00:00:00 | |
| OE3MUC-15 | 2026-09-05 00:36:51 | 48.22069 | 17.68027 | 91° | 22km/h | 17780m | 5.2m/s | -55.4°C | 4.5% | 0hPa | 2.5V | 00:00:00 | 00:00:00 | 00:00:00 | |
| OE3MUC-15 | 2026-09-05 00:36:47 | 48.22070 | 17.67996 | 100° | 20km/h | 17760m | 4.4m/s | -55.3°C | 4.5% | 0hPa | 2.5V | 00:00:00 | 00:00:00 | 00:00:00 | |
| DO3MHA-11 | 2026-09-05 00:36:45 | 48.22072 | 17.67981 | 102° | 22km/h | 17750m | 4.8m/s | -55.3°C | 4.5% | 0hPa | 2.5V | 00:00:00 | 01:14:02 | 00:00:00 | |
| PETON7-10 | 2026-09-05 00:36:44 | 48.22073 | 17.67974 | 103° | 24km/h | 17746m | 4.0m/s | -55.2°C | 4.5% | 0hPa | 2.5V | 00:00:00 | 01:14:01 | 00:00:00 | |
| OE3MUC-15 | 2026-09-05 00:36:43 | 48.22075 | 17.67967 | 104° | 20km/h | 17741m | 5.7m/s | -55.2°C | 4.4% | 0hPa | 2.5V | 00:00:00 | 00:00:00 | 00:00:00 | |
| OE5MMP-10 | 2026-09-05 00:36:41 | 48.22076 | 17.67953 | 96° | 26km/h | 17731m | 4.6m/s | 0°C | 0% | 0hPa | 2.5V | 00:00:00 | 01:13:58 | 00:00:00 | |
| PG1ADW-2 | 2026-09-05 00:36:40 | 48.22077 | 17.67945 | 97° | 27km/h | 17726m | 5.5m/s | -55.2°C | 4.4% | 0hPa | 2.5V | 00:00:00 | 01:13:57 | 08:30:00 | |
| OE3MUC-15 | 2026-09-05 00:36:39 | 48.22077 | 17.67936 | 94° | 26km/h | 17721m | 4.2m/s | -55.2°C | 4.4% | 0hPa | 2.5V | 00:00:00 | 00:00:00 | 08:30:00 | |
| OE3MUC-15 | 2026-09-05 00:36:35 | 48.22077 | 17.67898 | 93° | 27km/h | 17702m | 5.4m/s | -55.3°C | 4.4% | 0hPa | 2.5V | 00:00:00 | 00:00:00 | 00:00:00 | |
| OE3MUC-15 | 2026-09-05 00:36:31 | 48.22079 | 17.67858 | 92° | 27km/h | 17683m | 4.3m/s | -55.1°C | 4.3% | 0hPa | 2.5V | 00:00:00 | 00:00:00 | 00:00:00 | |
| OE3MUC-15 | 2026-09-05 00:36:27 | 48.22081 | 17.67815 | 97° | 31km/h | 17664m | 4.5m/s | -55.0°C | 4.2% | 0hPa | 2.5V | 00:00:00 | 00:00:00 | 00:00:00 | |
| DO3MHA-11 | 2026-09-05 00:36:25 | 48.22082 | 17.67793 | 98° | 31km/h | 17655m | 3.3m/s | -55.0°C | 4.2% | 0hPa | 2.6V | 00:00:00 | 01:13:42 | 00:00:00 | |
| OE3MUC-15 | 2026-09-05 00:36:23 | 48.22086 | 17.67770 | 107° | 31km/h | 17645m | 4.0m/s | -55.0°C | 4.2% | 0hPa | 2.6V | 00:00:00 | 00:00:00 | 00:00:00 | |
| OE5MMP-10 | 2026-09-05 00:36:21 | 48.22092 | 17.67747 | 110° | 31km/h | 17636m | 5.8m/s | 0°C | 0% | 0hPa | 2.6V | 00:00:00 | 01:13:38 | 00:00:00 | |
| PG1ADW-2 | 2026-09-05 00:36:20 | 48.22094 | 17.67737 | 107° | 35km/h | 17631m | 4.4m/s | -55.3°C | 4.3% | 0hPa | 2.6V | 00:00:00 | 00:00:00 | 00:00:00 | |
| OE3MUC-15 | 2026-09-05 00:36:19 | 48.22096 | 17.67727 | 107° | 31km/h | 17627m | 3.8m/s | -55.6°C | 4.4% | 0hPa | 2.6V | 00:00:00 | 00:00:00 | 00:00:00 | |
| OE5DRO-10 | 2026-09-05 00:36:17 | 48.22101 | 17.67692 | 101° | 37km/h | 17613m | 4.2m/s | -56.2°C | 4.7% | 0hPa | 2.6V | 00:00:00 | 00:00:00 | 00:00:00 | |
| DO3MHA-12 | 2026-09-05 00:36:16 | 48.22101 | 17.67692 | 101° | 38km/h | 17613m | 4.2m/s | -56.2°C | 4.7% | 0hPa | 2.6V | 00:00:00 | 01:13:33 | 08:30:00 | |
| OE3MUC-15 | 2026-09-05 00:36:15 | 48.22103 | 17.67681 | 97° | 33km/h | 17609m | 5.3m/s | -56.2°C | 4.7% | 0hPa | 2.6V | 00:00:00 | 00:00:00 | 00:00:00 | |
| PETON7-10 | 2026-09-05 00:36:14 | 48.22103 | 17.67669 | 91° | 37km/h | 17604m | 3.5m/s | -56.2°C | 4.7% | 0hPa | 2.5V | 00:00:00 | 00:00:00 | 00:00:00 | |
| OE3MUC-15 | 2026-09-05 00:36:11 | 48.22103 | 17.67630 | 90° | 37km/h | 17590m | 3.1m/s | -56.3°C | 4.7% | 0hPa | 2.5V | 00:00:00 | 00:00:00 | 00:00:00 | |
| OE3MUC-15 | 2026-09-05 00:36:07 | 48.22105 | 17.67575 | 100° | 38km/h | 17573m | 5.7m/s | -56.2°C | 4.8% | 0hPa | 2.5V | 00:00:00 | 00:00:00 | 00:00:00 | |
| OE3MUC-15 | 2026-09-05 00:36:03 | 48.22114 | 17.67519 | 103° | 40km/h | 17553m | 3.8m/s | -56.2°C | 4.7% | 0hPa | 2.5V | 00:00:00 | 00:00:00 | 08:30:00 | |
| OE5MMP-10 | 2026-09-05 00:36:01 | 48.22118 | 17.67490 | 104° | 40km/h | 17544m | 5.0m/s | 0°C | 0% | 0hPa | 2.5V | 00:00:00 | 01:13:18 | 00:00:00 | |
| PG1ADW-2 | 2026-09-05 00:36:00 | 48.22120 | 17.67474 | 104° | 44km/h | 17539m | 4.2m/s | -56.3°C | 4.7% | 0hPa | 2.5V | 00:00:00 | 00:00:00 | 00:00:00 | |
| OE3MUC-15 | 2026-09-05 00:35:59 | 48.22123 | 17.67459 | 105° | 40km/h | 17534m | 5.8m/s | -56.3°C | 4.6% | 0hPa | 2.5V | 00:00:00 | 00:00:00 | 00:00:00 | |
| OE5DRO-10 | 2026-09-05 00:35:57 | 48.22129 | 17.67430 | 108° | 46km/h | 17524m | 4.2m/s | -56.3°C | 4.6% | 0hPa | 2.5V | 00:00:00 | 00:00:00 | 00:00:00 | |
| GYPAP8-17 | 2026-09-05 00:35:56 | 48.22129 | 17.67430 | 108° | 42km/h | 17524m | 4.2m/s | 0°C | 0% | 0hPa | 2.5V | 00:00:00 | 00:00:00 | 00:00:00 | |
| OE3MUC-15 | 2026-09-05 00:35:55 | 48.22136 | 17.67400 | 111° | 40km/h | 17515m | 4.0m/s | -56.2°C | 4.6% | 0hPa | 2.5V | 00:00:00 | 00:00:00 | 00:00:00 | |
| ATIDSZ-14 | 2026-09-05 00:35:54 | 48.22136 | 17.67400 | 111° | 42km/h | 17515m | 4.1m/s | -56.3°C | 1.6% | 0hPa | 2.5V | 00:00:00 | 00:00:00 | 00:00:00 | |
| DO3MHA-11 | 2026-09-05 00:35:53 | 48.22143 | 17.67372 | 112° | 46km/h | 17505m | 4.0m/s | -56.2°C | 4.6% | 0hPa | 2.5V | 00:00:00 | 01:13:10 | 00:00:00 | |
| OE3MUC-15 | 2026-09-05 00:35:51 | 48.22151 | 17.67343 | 115° | 44km/h | 17496m | 5.6m/s | -56.2°C | 4.6% | 0hPa | 2.5V | 00:00:00 | 00:00:00 | 00:00:00 | |
| DO3MHA-12 | 2026-09-05 00:35:49 | 48.22160 | 17.67312 | 116° | 47km/h | 17485m | 5.2m/s | -56.2°C | 4.6% | 0hPa | 2.5V | 00:00:00 | 01:13:06 | 00:00:00 | |
| OE3MUC-15 | 2026-09-05 00:35:47 | 48.22171 | 17.67282 | 116° | 49km/h | 17476m | 3.6m/s | -56.2°C | 4.6% | 0hPa | 2.5V | 00:00:00 | 00:00:00 | 00:00:00 | |
| PETON7-10 | 2026-09-05 00:35:44 | 48.22184 | 17.67230 | 110° | 51km/h | 17462m | 4.6m/s | -56.6°C | 4.8% | 0hPa | 2.5V | 00:00:00 | 00:00:00 | 00:00:00 | |
| OE3MUC-15 | 2026-09-05 00:35:43 | 48.22189 | 17.67213 | 111° | 47km/h | 17457m | 4.3m/s | -56.7°C | 4.8% | 0hPa | 2.6V | 00:00:00 | 00:00:00 | 00:00:00 | |
| S52SK | 2026-09-05 00:35:41 | 48.22193 | 17.67197 | 111° | 46km/h | 17453m | 3.4m/s | -56.8°C | 1.7% | 0hPa | 2.6V | 00:00:00 | 00:00:00 | 00:00:00 | |
| PG1ADW-2 | 2026-09-05 00:35:40 | 48.22202 | 17.67164 | 118° | 53km/h | 17444m | 5.3m/s | -56.8°C | 4.9% | 0hPa | 2.6V | 00:00:00 | 00:00:00 | 00:00:00 | |
| DO3MHA-12 | 2026-09-05 00:35:39 | 48.22208 | 17.67147 | 120° | 49km/h | 17439m | 4.1m/s | -56.8°C | 4.9% | 0hPa | 2.6V | 00:00:00 | 01:12:56 | 00:00:00 | |
| OE5DRO-10 | 2026-09-05 00:35:38 | 48.22220 | 17.67115 | 121° | 55km/h | 17429m | 4.4m/s | -56.9°C | 4.9% | 0hPa | 2.5V | 00:00:00 | 00:00:00 | 00:00:00 | |
| S52SK | 2026-09-05 00:35:36 | 48.22221 | 17.67115 | 122° | 49km/h | 17429m | 4.5m/s | -56.9°C | 1.7% | 0hPa | 2.6V | 00:00:00 | 00:00:00 | 00:00:00 | |
| GYPAP8-17 | 2026-09-05 00:35:35 | 48.22227 | 17.67098 | 123° | 53km/h | 17426m | 3.1m/s | 0°C | 0% | 0hPa | 2.6V | 00:00:00 | 00:00:00 | 00:00:00 | |
| ATIDSZ-14 | 2026-09-05 00:35:34 | 48.22235 | 17.67080 | 123° | 57km/h | 17421m | 4.5m/s | -57.0°C | 1.7% | 0hPa | 2.6V | 00:00:00 | 00:00:00 | 00:00:00 | |
| DO3MHA-11 | 2026-09-05 00:35:33 | 48.22250 | 17.67042 | 121° | 53km/h | 17413m | 3.4m/s | -56.9°C | 4.9% | 0hPa | 2.6V | 00:00:00 | 01:12:50 | 00:00:00 | |
| HA6NAB-11 | 2026-09-05 00:35:32 | 48.22250 | 17.67042 | 121° | 60km/h | 17413m | 3.5m/s | -57.0°C | 1.7% | 0hPa | 2.5V | 00:00:00 | 00:00:00 | 00:00:00 | |
| OE5MMP-10 | 2026-09-05 00:35:31 | 48.22266 | 17.67004 | 121° | 53km/h | 17404m | 5.2m/s | 0°C | 0% | 0hPa | 2.5V | 00:00:00 | 01:12:48 | 00:00:00 | |
| S52SK | 2026-09-05 00:35:30 | 48.22266 | 17.67004 | 121° | 55km/h | 17404m | 5.2m/s | -56.9°C | 1.8% | 0hPa | 2.5V | 00:00:00 | 00:00:00 | 00:00:00 | |
| PETON7-10 | 2026-09-05 00:35:29 | 48.22277 | 17.66970 | 115° | 53km/h | 17395m | 3.9m/s | -56.9°C | 4.8% | 0hPa | 2.5V | 00:00:00 | 00:00:00 | 00:00:00 | |
| HA6NAB-11 | 2026-09-05 00:35:26 | 48.22286 | 17.66934 | 110° | 53km/h | 17385m | 4.3m/s | -57.0°C | 1.7% | 0hPa | 2.5V | 00:00:00 | 00:00:00 | 00:00:00 | |
| DO3MHA-11 | 2026-09-05 00:35:23 | 48.22301 | 17.66857 | 106° | 55km/h | 17366m | 4.2m/s | -57.5°C | 5.1% | 0hPa | 2.5V | 00:00:00 | 01:12:40 | 00:00:00 | |
| PG1ADW-2 | 2026-09-05 00:35:20 | 48.22316 | 17.66796 | 115° | 55km/h | 17354m | 4.1m/s | -57.5°C | 5.0% | 0hPa | 2.5V | 00:00:00 | 01:12:37 | 00:00:00 | |
| OE3MUC-15 | 2026-09-05 00:35:19 | 48.22322 | 17.66778 | 117° | 53km/h | 17350m | 4.8m/s | -57.5°C | 5.1% | 0hPa | 2.5V | 00:00:00 | 00:00:00 | 00:00:00 | |
| OE3MUC-15 | 2026-09-05 00:35:15 | 48.22343 | 17.66706 | 111° | 55km/h | 17331m | 4.4m/s | -57.5°C | 5.0% | 0hPa | 2.5V | 00:00:00 | 00:00:00 | 00:00:00 | |
| ATIDSZ-14 | 2026-09-05 00:35:14 | 48.22348 | 17.66686 | 108° | 55km/h | 17327m | 4.0m/s | -57.5°C | 1.8% | 0hPa | 2.5V | 00:00:00 | 00:00:00 | 00:00:00 | |
| DO3MHA-11 | 2026-09-05 00:35:13 | 48.22352 | 17.66667 | 105° | 57km/h | 17322m | 5.2m/s | -57.5°C | 5.0% | 0hPa | 2.5V | 00:00:00 | 01:12:30 | 00:00:00 | |
| OE3MUC-15 | 2026-09-05 00:35:11 | 48.22358 | 17.66627 | 103° | 57km/h | 17312m | 4.0m/s | -57.5°C | 5.0% | 0hPa | 2.5V | 00:00:00 | 00:00:00 | 00:00:00 | |
| OE3MUC-15 | 2026-09-05 00:35:07 | 48.22372 | 17.66543 | 104° | 57km/h | 17295m | 4.7m/s | -57.8°C | 5.2% | 0hPa | 2.5V | 00:00:00 | 00:00:00 | 00:00:00 | |
| OE3MUC-15 | 2026-09-05 00:35:03 | 48.22386 | 17.66459 | 103° | 55km/h | 17276m | 3.6m/s | -57.8°C | 5.3% | 0hPa | 2.5V | 00:00:00 | 00:00:00 | 00:00:00 | |
| PG1ADW-2 | 2026-09-05 00:35:00 | 48.22391 | 17.66397 | 95° | 55km/h | 17263m | 3.3m/s | -57.8°C | 5.2% | 0hPa | 2.6V | 00:00:00 | 00:00:00 | 00:00:00 | |
| PETON7-10 | 2026-09-05 00:34:59 | 48.22392 | 17.66377 | 95° | 55km/h | 17258m | 5.0m/s | -57.7°C | 5.3% | 0hPa | 2.6V | 00:00:00 | 00:00:00 | 00:00:00 | |
| OE3MUC-15 | 2026-09-05 00:34:55 | 48.22395 | 17.66299 | 93° | 53km/h | 17240m | 3.4m/s | -57.6°C | 5.2% | 0hPa | 2.6V | 00:00:00 | 00:00:00 | 00:00:00 | |
| DO3MHA-11 | 2026-09-05 00:34:53 | 48.22397 | 17.66260 | 98° | 57km/h | 17231m | 4.2m/s | -57.6°C | 5.2% | 0hPa | 2.6V | 00:00:00 | 01:12:10 | 00:00:00 | |
| OE3MUC-15 | 2026-09-05 00:34:51 | 48.22401 | 17.66219 | 95° | 58km/h | 17223m | 5.4m/s | -57.6°C | 5.2% | 0hPa | 2.6V | 00:00:00 | 00:00:00 | 08:30:00 | |
| OE3MUC-15 | 2026-09-05 00:34:47 | 48.22403 | 17.66132 | 92° | 57km/h | 17204m | 4.4m/s | -57.6°C | 5.2% | 0hPa | 2.5V | 00:00:00 | 00:00:00 | 00:00:00 | |
| PETON7-10 | 2026-09-05 00:34:44 | 48.22403 | 17.66067 | 87° | 53km/h | 17190m | 3.8m/s | -57.8°C | 5.3% | 0hPa | 2.5V | 00:00:00 | 00:00:00 | 00:00:00 | |
| DO3MHA-11 | 2026-09-05 00:34:43 | 48.22402 | 17.66046 | 88° | 51km/h | 17186m | 4.5m/s | -57.9°C | 5.3% | 0hPa | 2.5V | 00:00:00 | 01:12:00 | 00:00:00 | |
| OE3MUC-15 | 2026-09-05 00:34:42 | 48.22401 | 17.66026 | 89° | 51km/h | 17181m | 5.5m/s | -57.9°C | 5.3% | 0hPa | 2.5V | 00:00:00 | 00:00:00 | 00:00:00 | |
| PG1ADW-2 | 2026-09-05 00:34:40 | 48.22401 | 17.65988 | 91° | 53km/h | 17172m | 5.0m/s | -58.0°C | 5.3% | 0hPa | 2.5V | 00:00:00 | 00:00:00 | 00:00:00 | |
| OE3MUC-15 | 2026-09-05 00:34:38 | 48.22402 | 17.65950 | 93° | 49km/h | 17163m | 3.9m/s | -58.0°C | 5.4% | 0hPa | 2.6V | 00:00:00 | 00:00:00 | 00:00:00 | |
| OE3MUC-15 | 2026-09-05 00:34:34 | 48.22404 | 17.65876 | 92° | 55km/h | 17146m | 4.7m/s | -57.9°C | 5.4% | 0hPa | 2.5V | 00:00:00 | 00:00:00 | 00:00:00 | |
| DO3MHA-11 | 2026-09-05 00:34:33 | 48.22404 | 17.65855 | 91° | 58km/h | 17141m | 3.6m/s | -57.9°C | 5.4% | 0hPa | 2.5V | 00:00:00 | 01:11:50 | 00:00:00 | |
| ATIDSZ-14 | 2026-09-05 00:34:32 | 48.22404 | 17.65855 | 92° | 55km/h | 17141m | 3.6m/s | -57.9°C | 2.0% | 0hPa | 2.5V | 00:00:00 | 00:00:00 | 00:00:00 | |
| OE3MUC-15 | 2026-09-05 00:34:30 | 48.22405 | 17.65792 | 91° | 57km/h | 17128m | 4.0m/s | -57.8°C | 5.3% | 0hPa | 2.5V | 00:00:00 | 00:00:00 | 00:00:00 | |
| PETON7-10 | 2026-09-05 00:34:29 | 48.22405 | 17.65771 | 93° | 53km/h | 17123m | 5.2m/s | -57.8°C | 5.3% | 0hPa | 2.5V | 00:00:00 | 01:11:46 | 00:00:00 | |
| OE3OSB-13 | 2026-09-05 00:34:28 | 48.22406 | 17.65708 | 89° | 51km/h | 17109m | 4.3m/s | -57.8°C | 1.9% | -1.0hPa | 2.5V | 00:00:00 | 00:00:00 | 00:00:00 | |
| OE3MUC-15 | 2026-09-05 00:34:26 | 48.22406 | 17.65708 | 90° | 53km/h | 17109m | 4.2m/s | -57.7°C | 5.3% | 0hPa | 2.5V | 00:00:00 | 00:00:00 | 00:00:00 | |
| OE3MUC-15 | 2026-09-05 00:34:22 | 48.22408 | 17.65629 | 93° | 53km/h | 17093m | 4.1m/s | -57.7°C | 5.3% | 0hPa | 2.5V | 00:00:00 | 00:00:00 | 00:00:00 | |
| PG1ADW-2 | 2026-09-05 00:34:20 | 48.22408 | 17.65590 | 89° | 53km/h | 17084m | 4.3m/s | -57.7°C | 5.3% | 0hPa | 2.5V | 00:00:00 | 00:00:00 | 00:00:00 | |
| OE3MUC-15 | 2026-09-05 00:34:18 | 48.22408 | 17.65550 | 92° | 53km/h | 17076m | 4.3m/s | -57.7°C | 5.3% | 0hPa | 2.5V | 00:00:00 | 00:00:00 | 00:00:00 | |
| OE3MUC-15 | 2026-09-05 00:34:14 | 48.22410 | 17.65471 | 89° | 55km/h | 17059m | 3.8m/s | -57.7°C | 5.2% | 0hPa | 2.5V | 00:00:00 | 00:00:00 | 08:30:00 | |
| ATIDSZ-14 | 2026-09-05 00:34:12 | 48.22409 | 17.65450 | 92° | 55km/h | 17055m | 3.7m/s | -57.8°C | 2.1% | 0hPa | 2.6V | 00:00:00 | 00:00:00 | 00:00:00 | |
| OE3MUC-15 | 2026-09-05 00:34:11 | 48.22413 | 17.65388 | 97° | 51km/h | 17044m | 4.1m/s | -57.9°C | 5.2% | 0hPa | 2.6V | 00:00:00 | 00:00:00 | 00:00:00 | |
| OE3MUC-15 | 2026-09-05 00:34:06 | 48.22417 | 17.65311 | 98° | 53km/h | 17025m | 4.8m/s | -58.2°C | 5.4% | 0hPa | 2.6V | 00:00:00 | 00:00:00 | 00:00:00 | |
| OE3MUC-15 | 2026-09-05 00:34:02 | 48.22423 | 17.65230 | 95° | 60km/h | 17008m | 3.1m/s | -58.3°C | 5.4% | 0hPa | 2.6V | 00:00:00 | 00:00:00 | 00:00:00 | |
| PG1ADW-2 | 2026-09-05 00:34:00 | 48.22427 | 17.65185 | 99° | 58km/h | 17000m | 4.8m/s | -58.5°C | 5.5% | 0hPa | 2.5V | 00:00:00 | 01:11:17 | 00:00:00 | |
| PETON7-10 | 2026-09-05 00:33:59 | 48.22429 | 17.65162 | 101° | 58km/h | 16995m | 3.8m/s | -58.8°C | 5.7% | 0hPa | 2.5V | 00:00:00 | 00:00:00 | 00:00:00 | |
| OE3MUC-15 | 2026-09-05 00:33:58 | 48.22432 | 17.65139 | 100° | 62km/h | 16991m | 4.1m/s | -59.1°C | 5.8% | 0hPa | 2.5V | 00:00:00 | 00:00:00 | 00:00:00 | |
| DO3MHA-11 | 2026-09-05 00:33:56 | 48.22437 | 17.65092 | 101° | 57km/h | 16983m | 3.0m/s | -59.2°C | 5.9% | 0hPa | 2.5V | 00:00:00 | 01:11:13 | 00:00:00 | |
| OE3MUC-15 | 2026-09-05 00:33:54 | 48.22443 | 17.65047 | 104° | 57km/h | 16975m | 4.0m/s | -59.3°C | 5.9% | 0hPa | 2.5V | 00:00:00 | 00:00:00 | 00:00:00 | |
| ATIDSZ-14 | 2026-09-05 00:33:52 | 48.22447 | 17.65025 | 102° | 57km/h | 16971m | 4.3m/s | -59.3°C | 2.4% | 0hPa | 2.5V | 00:00:00 | 00:00:00 | 00:00:00 | |
| OE3MUC-15 | 2026-09-05 00:33:50 | 48.22454 | 17.64964 | 102° | 57km/h | 16958m | 4.5m/s | -59.3°C | 5.9% | 0hPa | 2.5V | 00:00:00 | 00:00:00 | 00:00:00 | |
| OE3MUC-15 | 2026-09-05 00:33:46 | 48.22464 | 17.64880 | 97° | 60km/h | 16940m | 4.4m/s | -59.9°C | 6.1% | 0hPa | 2.6V | 00:00:00 | 00:00:00 | 00:00:00 | |
| PETON7-10 | 2026-09-05 00:33:43 | 48.22472 | 17.64814 | 102° | 62km/h | 16927m | 3.1m/s | -60.3°C | 6.4% | 0hPa | 2.6V | 00:00:00 | 01:11:00 | 00:00:00 | |
| PG1ADW-2 | 2026-09-05 00:33:40 | 48.22479 | 17.64745 | 98° | 62km/h | 16914m | 4.5m/s | -60.3°C | 6.5% | 0hPa | 2.6V | 00:00:00 | 00:00:00 | 08:30:00 | |
| S52SK | 2026-09-05 00:33:39 | 48.22479 | 17.64745 | 99° | 64km/h | 16914m | 4.6m/s | -60.3°C | 2.6% | 0hPa | 2.5V | 00:00:00 | 00:00:00 | 00:00:00 | |
| DO3MHA-11 | 2026-09-05 00:33:36 | 48.22487 | 17.64651 | 95° | 62km/h | 16897m | 4.1m/s | -60.2°C | 6.5% | 0hPa | 2.5V | 00:00:00 | 01:10:53 | 00:00:00 | |
| ATIDSZ-14 | 2026-09-05 00:33:31 | 48.22495 | 17.64559 | 99° | 64km/h | 16880m | 2.4m/s | -60.2°C | 2.7% | 0hPa | 2.6V | 00:00:00 | 00:00:00 | 00:00:00 | |
| PETON7-10 | 2026-09-05 00:33:28 | 48.22500 | 17.64464 | 94° | 60km/h | 16864m | 3.4m/s | -60.0°C | 6.4% | 0hPa | 2.6V | 00:00:00 | 00:00:00 | 00:00:00 | |
| DO3MHA-11 | 2026-09-05 00:33:26 | 48.22503 | 17.64416 | 97° | 58km/h | 16856m | 3.5m/s | -60.0°C | 6.4% | 0hPa | 2.6V | 00:00:00 | 01:10:43 | 00:00:00 | |
| PG1ADW-2 | 2026-09-05 00:33:20 | 48.22514 | 17.64283 | 101° | 55km/h | 16829m | 5.0m/s | -59.9°C | 6.3% | 0hPa | 2.6V | 00:00:00 | 00:00:00 | 00:00:00 | |
| OE3MUC-15 | 2026-09-05 00:33:18 | 48.22519 | 17.64242 | 100° | 58km/h | 16819m | 3.4m/s | -60.0°C | 6.4% | 0hPa | 2.6V | 00:00:00 | 00:00:00 | 00:00:00 | |
| DO3MHA-11 | 2026-09-05 00:33:15 | 48.22527 | 17.64177 | 100° | 55km/h | 16807m | 2.3m/s | -59.9°C | 6.4% | 0hPa | 2.6V | 00:00:00 | 01:10:32 | 00:00:00 | |
| OE3MUC-15 | 2026-09-05 00:33:14 | 48.22530 | 17.64153 | 99° | 58km/h | 16803m | 4.2m/s | -59.9°C | 6.4% | 0hPa | 2.6V | 00:00:00 | 00:00:00 | 00:00:00 | |
| PETON7-10 | 2026-09-05 00:33:13 | 48.22532 | 17.64131 | 99° | 53km/h | 16799m | 4.7m/s | -59.9°C | 6.4% | 0hPa | 2.5V | 00:00:00 | 00:00:00 | 00:00:00 | |
| OE3MUC-15 | 2026-09-05 00:33:10 | 48.22537 | 17.64067 | 97° | 53km/h | 16786m | 3.9m/s | -59.8°C | 6.3% | 0hPa | 2.5V | 00:00:00 | 00:00:00 | 00:00:00 | |
| OE3MUC-15 | 2026-09-05 00:33:07 | 48.22545 | 17.63990 | 103° | 53km/h | 16769m | 3.5m/s | -59.8°C | 6.3% | 0hPa | 2.5V | 00:00:00 | 00:00:00 | 00:00:00 | |
| DO3MHA-11 | 2026-09-05 00:33:03 | 48.22551 | 17.63930 | 94° | 53km/h | 16756m | 3.9m/s | -59.8°C | 6.3% | 0hPa | 2.5V | 00:00:00 | 01:10:20 | 08:30:00 | |
| OE3MUC-15 | 2026-09-05 00:33:02 | 48.22552 | 17.63909 | 91° | 53km/h | 16752m | 4.2m/s | -59.8°C | 6.3% | 0hPa | 2.5V | 00:00:00 | 00:00:00 | 08:30:00 | |
| GYPAP8-17 | 2026-09-05 00:33:01 | 48.22552 | 17.63909 | 92° | 55km/h | 16752m | 4.3m/s | 0°C | 0% | 0hPa | 2.5V | 00:00:00 | 00:00:00 | 00:00:00 | |
| PG1ADW-2 | 2026-09-05 00:33:00 | 48.22552 | 17.63869 | 93° | 49km/h | 16743m | 4.3m/s | -59.8°C | 6.2% | 0hPa | 2.5V | 00:00:00 | 00:00:00 | 00:00:00 | |
| OE3MUC-15 | 2026-09-05 00:32:58 | 48.22553 | 17.63829 | 94° | 51km/h | 16735m | 4.0m/s | -59.8°C | 6.3% | 0hPa | 2.5V | 00:00:00 | 00:00:00 | 00:00:00 | |
| OE3MUC-15 | 2026-09-05 00:32:54 | 48.22552 | 17.63751 | 89° | 47km/h | 16717m | 3.9m/s | -59.9°C | 6.4% | 0hPa | 2.5V | 00:00:00 | 00:00:00 | 00:00:00 | |
| DO3MHA-11 | 2026-09-05 00:32:53 | 48.22552 | 17.63733 | 92° | 47km/h | 16712m | 5.0m/s | -59.9°C | 6.3% | 0hPa | 2.5V | 00:00:00 | 01:10:10 | 00:00:00 | |
| HA6NAB-11 | 2026-09-05 00:32:52 | 48.22552 | 17.63733 | 93° | 47km/h | 16712m | 5.1m/s | -59.9°C | 2.6% | 0hPa | 2.5V | 00:00:00 | 00:00:00 | 00:00:00 | |
| OE3MUC-15 | 2026-09-05 00:32:50 | 48.22555 | 17.63681 | 94° | 46km/h | 16699m | 4.6m/s | -59.9°C | 6.4% | 0hPa | 2.5V | 00:00:00 | 00:00:00 | 00:00:00 | |
| ATIDSZ-14 | 2026-09-05 00:32:49 | 48.22555 | 17.63681 | 94° | 46km/h | 16699m | 4.7m/s | -59.9°C | 2.7% | 0hPa | 2.6V | 00:00:00 | 00:00:00 | 00:00:00 | |
| HA6NAB-11 | 2026-09-05 00:32:47 | 48.22554 | 17.63647 | 87° | 46km/h | 16690m | 4.2m/s | -60.1°C | 2.7% | 0hPa | 2.6V | 00:00:00 | 00:00:00 | 00:00:00 | |
| OE3MUC-15 | 2026-09-05 00:32:46 | 48.22553 | 17.63610 | 86° | 49km/h | 16680m | 4.8m/s | -60.1°C | 6.5% | 0hPa | 2.6V | 00:00:00 | 00:00:00 | 00:00:00 | |
| OE5DRO-10 | 2026-09-05 00:32:44 | 48.22550 | 17.63573 | 83° | 40km/h | 16671m | 4.9m/s | -60.1°C | 6.4% | 0hPa | 2.6V | 00:00:00 | 00:00:00 | 08:30:00 | |
| PETON7-10 | 2026-09-05 00:32:43 | 48.22549 | 17.63554 | 84° | 42km/h | 16666m | 3.1m/s | -60.1°C | 6.5% | 0hPa | 2.5V | 00:00:00 | 00:00:00 | 00:00:00 | |
| OE3MUC-15 | 2026-09-05 00:32:42 | 48.22548 | 17.63535 | 89° | 46km/h | 16662m | 5.2m/s | -60.1°C | 6.4% | 0hPa | 2.5V | 00:00:00 | 00:00:00 | 00:00:00 | |
| PG1ADW-2 | 2026-09-05 00:32:40 | 48.22548 | 17.63499 | 94° | 38km/h | 16654m | 3.7m/s | -60.1°C | 6.5% | 0hPa | 2.5V | 00:00:00 | 01:09:57 | 00:00:00 | |
| OE3MUC-15 | 2026-09-05 00:32:38 | 48.22549 | 17.63468 | 86° | 38km/h | 16645m | 4.4m/s | -60.0°C | 6.5% | 0hPa | 2.6V | 00:00:00 | 00:00:00 | 00:00:00 | |
| HA6NAB-11 | 2026-09-05 00:32:36 | 48.22547 | 17.63454 | 82° | 37km/h | 16640m | 4.3m/s | -60.0°C | 2.7% | 0hPa | 2.5V | 00:00:00 | 00:00:00 | 00:00:00 | |
| OE3MUC-15 | 2026-09-05 00:32:34 | 48.22542 | 17.63410 | 79° | 38km/h | 16626m | 3.5m/s | -59.9°C | 6.5% | 0hPa | 2.5V | 00:00:00 | 01:09:51 | 00:00:00 | |
| DO3MHA-11 | 2026-09-05 00:32:33 | 48.22540 | 17.63396 | 78° | 38km/h | 16622m | 4.4m/s | -59.9°C | 6.5% | 0hPa | 2.5V | 00:00:00 | 01:09:50 | 00:00:00 | |
| OE3MUC-15 | 2026-09-05 00:32:30 | 48.22534 | 17.63353 | 82° | 40km/h | 16608m | 5.8m/s | -59.8°C | 6.4% | 0hPa | 2.5V | 00:00:00 | 00:00:00 | 00:00:00 | |
| ATIDSZ-14 | 2026-09-05 00:32:29 | 48.22534 | 17.63353 | 83° | 40km/h | 16608m | 5.8m/s | -59.9°C | 2.7% | 0hPa | 2.5V | 00:00:00 | 00:00:00 | 00:00:00 | |
| PETON7-10 | 2026-09-05 00:32:28 | 48.22532 | 17.63322 | 83° | 38km/h | 16598m | 3.4m/s | -59.7°C | 6.3% | 0hPa | 2.5V | 00:00:00 | 00:00:00 | 00:00:00 | |
| OE3MUC-15 | 2026-09-05 00:32:26 | 48.22529 | 17.63294 | 77° | 38km/h | 16589m | 4.1m/s | -59.8°C | 6.4% | 0hPa | 2.5V | 00:00:00 | 00:00:00 | 08:30:00 | |
| OE5DRO-10 | 2026-09-05 00:32:25 | 48.22527 | 17.63280 | 76° | 40km/h | 16584m | 5.0m/s | -59.8°C | 6.3% | 0hPa | 2.5V | 00:00:00 | 00:00:00 | 00:00:00 | |
| DO3MHA-11 | 2026-09-05 00:32:23 | 48.22521 | 17.63253 | 73° | 37km/h | 16575m | 3.7m/s | -59.8°C | 6.4% | 0hPa | 2.5V | 00:00:00 | 01:09:40 | 00:00:00 | |
| OE3MUC-15 | 2026-09-05 00:32:22 | 48.22519 | 17.63240 | 72° | 35km/h | 16570m | 5.6m/s | -59.8°C | 6.4% | 0hPa | 2.5V | 00:00:00 | 00:00:00 | 00:00:00 | |
| PG1ADW-2 | 2026-09-05 00:32:20 | 48.22513 | 17.63216 | 76° | 37km/h | 16561m | 3.3m/s | -59.8°C | 6.5% | 0hPa | 2.5V | 00:00:00 | 00:00:00 | 00:00:00 | |
| OE3MUC-15 | 2026-09-05 00:32:18 | 48.22509 | 17.63189 | 78° | 40km/h | 16552m | 4.6m/s | -59.8°C | 6.4% | 0hPa | 2.5V | 00:00:00 | 00:00:00 | 00:00:00 | |
| OE3MUC-15 | 2026-09-05 00:32:14 | 48.22501 | 17.63131 | 76° | 38km/h | 16536m | 3.8m/s | -59.7°C | 6.5% | 0hPa | 2.5V | 00:00:00 | 00:00:00 | 00:00:00 | |
| PETON7-10 | 2026-09-05 00:32:13 | 48.22498 | 17.63117 | 75° | 35km/h | 16531m | 4.8m/s | -59.7°C | 6.4% | 0hPa | 2.6V | 00:00:00 | 01:09:30 | 00:00:00 | |
| OE3MUC-15 | 2026-09-05 00:32:10 | 48.22490 | 17.63077 | 74° | 29km/h | 16518m | 5.6m/s | -59.7°C | 6.5% | 0hPa | 2.6V | 00:00:00 | 00:00:00 | 00:00:00 | |
| ATIDSZ-14 | 2026-09-05 00:32:09 | 48.22490 | 17.63077 | 74° | 31km/h | 16518m | 5.6m/s | -59.8°C | 2.7% | 0hPa | 2.6V | 00:00:00 | 00:00:00 | 00:00:00 | |
| OE3MUC-15 | 2026-09-05 00:32:06 | 48.22481 | 17.63036 | 73° | 37km/h | 16500m | 4.4m/s | -59.6°C | 6.4% | 0hPa | 2.6V | 00:00:00 | 00:00:00 | 00:00:00 | |
| OE3MUC-15 | 2026-09-05 00:32:02 | 48.22473 | 17.62980 | 82° | 35km/h | 16480m | 4.1m/s | -59.5°C | 6.4% | 0hPa | 2.6V | 00:00:00 | 00:00:00 | 00:00:00 | |
| OE3OSB-13 | 2026-09-05 00:31:52 | 48.22459 | 17.62849 | 76° | 31km/h | 16431m | 4.4m/s | -59.1°C | 2.4% | -1.0hPa | 2.5V | 00:00:00 | 00:00:00 | 00:00:00 | |
| ATIDSZ-14 | 2026-09-05 00:31:48 | 48.22456 | 17.62827 | 85° | 27km/h | 16422m | 5.1m/s | -59.0°C | 2.5% | 0hPa | 2.5V | 00:00:00 | 00:00:00 | 00:00:00 | |
| OE3MUC-15 | 2026-09-05 00:31:46 | 48.22456 | 17.62798 | 96° | 27km/h | 16409m | 5.3m/s | -58.8°C | 6.1% | 0hPa | 2.5V | 00:00:00 | 00:00:00 | 00:00:00 | |
| DO3MHA-11 | 2026-09-05 00:31:43 | 48.22458 | 17.62768 | 93° | 29km/h | 16396m | 4.0m/s | -58.7°C | 6.1% | 0hPa | 2.5V | 00:00:00 | 01:09:00 | 00:00:00 | |
| PG1ADW-2 | 2026-09-05 00:31:40 | 48.22458 | 17.62737 | 85° | 31km/h | 16383m | 4.8m/s | -58.7°C | 6.2% | 0hPa | 2.5V | 00:00:00 | 00:00:00 | 00:00:00 | |
| DO3MHA-12 | 2026-09-05 00:31:38 | 48.22455 | 17.62714 | 76° | 33km/h | 16374m | 4.8m/s | -58.7°C | 6.1% | 0hPa | 2.5V | 00:00:00 | 01:08:55 | 00:00:00 | |
| S52SK | 2026-09-05 00:31:36 | 48.22453 | 17.62703 | 73° | 29km/h | 16370m | 4.2m/s | -58.7°C | 2.6% | 0hPa | 2.5V | 00:00:00 | 00:00:00 | 00:00:00 | |
| DO3MHA-11 | 2026-09-05 00:31:33 | 48.22449 | 17.62660 | 92° | 31km/h | 16353m | 3.2m/s | -58.7°C | 6.1% | 0hPa | 2.5V | 00:00:00 | 01:08:50 | 08:30:00 | |
| S52SK | 2026-09-05 00:31:32 | 48.22449 | 17.62649 | 93° | 29km/h | 16349m | 5.0m/s | -58.7°C | 2.5% | 0hPa | 2.6V | 00:00:00 | 00:00:00 | 00:00:00 | |
| PETON7-10 | 2026-09-05 00:31:28 | 48.22447 | 17.62603 | 84° | 33km/h | 16331m | 4.0m/s | -58.6°C | 5.9% | 0hPa | 2.6V | 00:00:00 | 01:08:45 | 00:00:00 | |
| ATIDSZ-14 | 2026-09-05 00:31:27 | 48.22447 | 17.62603 | 84° | 33km/h | 16331m | 4.1m/s | -58.7°C | 2.4% | 0hPa | 2.6V | 00:00:00 | 00:00:00 | 00:00:00 | |
| DO3MHA-11 | 2026-09-05 00:31:23 | 48.22437 | 17.62542 | 73° | 33km/h | 16309m | 3.8m/s | -58.6°C | 5.8% | 0hPa | 2.6V | 00:00:00 | 01:08:40 | 00:00:00 | |
| DO3MHA-12 | 2026-09-05 00:31:22 | 48.22434 | 17.62530 | 75° | 35km/h | 16305m | 3.2m/s | -58.5°C | 5.9% | 0hPa | 2.6V | 00:00:00 | 01:08:39 | 00:00:00 | |
| OE3OSB-13 | 2026-09-05 00:31:21 | 48.22432 | 17.62508 | 88° | 27km/h | 16296m | 3.8m/s | -58.7°C | 2.3% | -1.0hPa | 2.6V | 00:00:00 | 00:00:00 | 00:00:00 | |
| PG1ADW-2 | 2026-09-05 00:31:20 | 48.22432 | 17.62508 | 89° | 33km/h | 16296m | 3.8m/s | -58.6°C | 6.1% | 0hPa | 2.6V | 00:00:00 | 01:08:37 | 00:00:00 | |
| OE3MUC-15 | 2026-09-05 00:31:18 | 48.22432 | 17.62486 | 93° | 33km/h | 16289m | 5.1m/s | -58.7°C | 6.1% | 0hPa | 2.6V | 00:00:00 | 00:00:00 | 00:00:00 | |
| OE3MUC-15 | 2026-09-05 00:31:14 | 48.22431 | 17.62434 | 84° | 35km/h | 16272m | 4.5m/s | -58.8°C | 6.1% | 0hPa | 2.6V | 00:00:00 | 00:00:00 | 08:30:00 | |
| PETON7-10 | 2026-09-05 00:31:13 | 48.22430 | 17.62422 | 85° | 35km/h | 16268m | 3.1m/s | -58.8°C | 6.2% | 0hPa | 2.6V | 00:00:00 | 00:00:00 | 00:00:00 | |
| OE3MUC-15 | 2026-09-05 00:31:10 | 48.22429 | 17.62380 | 87° | 35km/h | 16257m | 2.7m/s | -59.0°C | 6.3% | 0hPa | 2.5V | 00:00:00 | 00:00:00 | 00:00:00 | |
| DO3MHA-12 | 2026-09-05 00:31:09 | 48.22428 | 17.62367 | 85° | 33km/h | 16253m | 4.4m/s | -59.0°C | 6.2% | 0hPa | 2.5V | 00:00:00 | 01:08:26 | 00:00:00 | |
| ATIDSZ-14 | 2026-09-05 00:31:07 | 48.22427 | 17.62354 | 84° | 33km/h | 16248m | 3.8m/s | -59.0°C | 2.6% | 0hPa | 2.5V | 00:00:00 | 00:00:00 | 00:00:00 | |
| OE3MUC-15 | 2026-09-05 00:31:06 | 48.22425 | 17.62327 | 86° | 35km/h | 16241m | 4.5m/s | -58.9°C | 6.3% | 0hPa | 2.5V | 00:00:00 | 00:00:00 | 00:00:00 | |
| DO3MHA-11 | 2026-09-05 00:31:03 | 48.22423 | 17.62289 | 88° | 31km/h | 16228m | 4.5m/s | -58.8°C | 6.2% | 0hPa | 2.5V | 00:00:00 | 01:08:20 | 00:00:00 | |
| OE3MUC-15 | 2026-09-05 00:31:02 | 48.22423 | 17.62277 | 93° | 31km/h | 16225m | 3.1m/s | -58.8°C | 6.1% | 0hPa | 2.5V | 00:00:00 | 00:00:00 | 00:00:00 | |
| PG1ADW-2 | 2026-09-05 00:31:00 | 48.22425 | 17.62254 | 100° | 31km/h | 16216m | 4.1m/s | -58.8°C | 6.1% | 0hPa | 2.5V | 00:00:00 | 00:00:00 | 00:00:00 | |
| DO3MHA-12 | 2026-09-05 00:30:59 | 48.22426 | 17.62243 | 102° | 33km/h | 16212m | 4.7m/s | -58.7°C | 6.1% | 0hPa | 2.5V | 00:00:00 | 01:08:16 | 00:00:00 | |
| OE3MUC-15 | 2026-09-05 00:30:58 | 48.22427 | 17.62232 | 101° | 31km/h | 16207m | 4.9m/s | -58.7°C | 6.2% | 0hPa | 2.5V | 00:00:00 | 00:00:00 | 00:00:00 | |
| OE3MUC-15 | 2026-09-05 00:30:54 | 48.22434 | 17.62184 | 101° | 33km/h | 16191m | 3.9m/s | -58.6°C | 6.1% | 0hPa | 2.5V | 00:00:00 | 00:00:00 | 00:00:00 | |
| DO3MHA-11 | 2026-09-05 00:30:53 | 48.22435 | 17.62172 | 100° | 31km/h | 16186m | 4.7m/s | -58.6°C | 6.1% | 0hPa | 2.5V | 00:00:00 | 01:08:10 | 00:00:00 | |
| OE3MUC-15 | 2026-09-05 00:30:50 | 48.22441 | 17.62135 | 107° | 31km/h | 16175m | 4.0m/s | -58.5°C | 6.1% | 0hPa | 2.5V | 00:00:00 | 00:00:00 | 00:00:00 | |
| DO3MHA-12 | 2026-09-05 00:30:49 | 48.22443 | 17.62123 | 108° | 31km/h | 16171m | 3.3m/s | -58.5°C | 6.1% | 0hPa | 2.6V | 00:00:00 | 01:08:06 | 00:00:00 | |
| OE3MUC-15 | 2026-09-05 00:30:46 | 48.22451 | 17.62091 | 114° | 29km/h | 16158m | 3.2m/s | -58.4°C | 6.0% | 0hPa | 2.6V | 00:00:00 | 00:00:00 | 00:00:00 | |
| PETON7-10 | 2026-09-05 00:30:43 | 48.22459 | 17.62060 | 110° | 35km/h | 16146m | 4.5m/s | -58.4°C | 6.1% | 0hPa | 2.6V | 00:00:00 | 01:08:00 | 00:00:00 | |
| OE3MUC-15 | 2026-09-05 00:30:42 | 48.22462 | 17.62048 | 108° | 37km/h | 16142m | 3.9m/s | -58.4°C | 6.1% | 0hPa | 2.6V | 00:00:00 | 00:00:00 | 00:00:00 | |
| PG1ADW-2 | 2026-09-05 00:30:40 | 48.22467 | 17.62023 | 110° | 38km/h | 16134m | 4.7m/s | -58.4°C | 6.0% | 0hPa | 2.6V | 00:00:00 | 00:00:00 | 08:30:00 | |
| DO3MHA-12 | 2026-09-05 00:30:39 | 48.22471 | 17.62009 | 113° | 35km/h | 16129m | 4.7m/s | -58.3°C | 6.0% | 0hPa | 2.6V | 00:00:00 | 01:07:56 | 08:30:00 | |
| OE3MUC-15 | 2026-09-05 00:30:38 | 48.22474 | 17.61995 | 113° | 35km/h | 16125m | 3.4m/s | -58.3°C | 6.0% | 0hPa | 2.6V | 00:00:00 | 00:00:00 | 08:30:00 | |
| OE3MUC-15 | 2026-09-05 00:30:34 | 48.22486 | 17.61946 | 107° | 35km/h | 16110m | 4.1m/s | -58.3°C | 5.9% | 0hPa | 2.6V | 00:00:00 | 00:00:00 | 00:00:00 | |
| DO3MHA-11 | 2026-09-05 00:30:33 | 48.22488 | 17.61934 | 110° | 38km/h | 16105m | 4.8m/s | -58.4°C | 6.0% | 0hPa | 2.6V | 00:00:00 | 01:07:50 | 00:00:00 | |
| OE3MUC-15 | 2026-09-05 00:30:30 | 48.22498 | 17.61896 | 113° | 37km/h | 16092m | 5.4m/s | -58.3°C | 6.0% | 0hPa | 2.5V | 00:00:00 | 00:00:00 | 00:00:00 | |
| DO3MHA-12 | 2026-09-05 00:30:29 | 48.22501 | 17.61884 | 111° | 40km/h | 16088m | 3.7m/s | -58.3°C | 6.0% | 0hPa | 2.5V | 00:00:00 | 01:07:46 | 00:00:00 | |
| PETON7-10 | 2026-09-05 00:30:28 | 48.22504 | 17.61872 | 110° | 42km/h | 16084m | 4.0m/s | -58.3°C | 6.0% | 0hPa | 2.5V | 00:00:00 | 00:00:00 | 00:00:00 | |
| ATIDSZ-14 | 2026-09-05 00:30:27 | 48.22507 | 17.61858 | 110° | 40km/h | 16079m | 4.7m/s | -58.3°C | 2.6% | 0hPa | 2.6V | 00:00:00 | 00:00:00 | 00:00:00 | |
| OE3MUC-15 | 2026-09-05 00:30:26 | 48.22511 | 17.61843 | 110° | 42km/h | 16075m | 3.4m/s | -58.3°C | 6.1% | 0hPa | 2.6V | 00:00:00 | 00:00:00 | 00:00:00 | |
| DO3MHA-11 | 2026-09-05 00:30:23 | 48.22522 | 17.61798 | 111° | 42km/h | 16062m | 4.0m/s | -58.3°C | 6.1% | 0hPa | 2.5V | 00:00:00 | 01:07:40 | 00:00:00 | |
| OE3MUC-15 | 2026-09-05 00:30:22 | 48.22526 | 17.61783 | 110° | 42km/h | 16057m | 4.5m/s | -58.3°C | 6.1% | 0hPa | 2.5V | 00:00:00 | 00:00:00 | 00:00:00 | |
| PG1ADW-2 | 2026-09-05 00:30:20 | 48.22533 | 17.61752 | 111° | 46km/h | 16049m | 3.6m/s | -58.5°C | 6.1% | 0hPa | 2.5V | 00:00:00 | 00:00:00 | 00:00:00 | |
| OE3OSB-13 | 2026-09-05 00:30:19 | 48.22541 | 17.61725 | 116° | 37km/h | 16039m | 3.8m/s | -58.5°C | 2.5% | -1.0hPa | 2.5V | 00:00:00 | 00:00:00 | 00:00:00 | |
| OE3MUC-15 | 2026-09-05 00:30:18 | 48.22541 | 17.61725 | 117° | 40km/h | 16040m | 3.7m/s | -58.5°C | 6.2% | 0hPa | 2.5V | 00:00:00 | 00:00:00 | 00:00:00 | |
| OE3MUC-15 | 2026-09-05 00:30:14 | 48.22557 | 17.61669 | 113° | 46km/h | 16024m | 4.2m/s | -58.5°C | 6.3% | 0hPa | 2.5V | 00:00:00 | 00:00:00 | 00:00:00 | |
| DO3MHA-11 | 2026-09-05 00:30:13 | 48.22562 | 17.61653 | 114° | 47km/h | 16019m | 5.8m/s | -58.5°C | 6.3% | 0hPa | 2.5V | 00:00:00 | 01:07:30 | 00:00:00 | |
| OE5DRO-10 | 2026-09-05 00:30:12 | 48.22566 | 17.61637 | 113° | 51km/h | 16014m | 3.2m/s | -58.4°C | 6.3% | 0hPa | 2.5V | 00:00:00 | 00:00:00 | 00:00:00 | |
| OE3MUC-15 | 2026-09-05 00:30:10 | 48.22575 | 17.61603 | 108° | 47km/h | 16005m | 5.3m/s | -58.4°C | 6.3% | 0hPa | 2.5V | 00:00:00 | 00:00:00 | 00:00:00 | |
| DO3MHA-12 | 2026-09-05 00:30:09 | 48.22579 | 17.61585 | 109° | 47km/h | 16000m | 4.0m/s | -58.4°C | 6.3% | 0hPa | 2.5V | 00:00:00 | 01:07:26 | 00:00:00 | |
| OE3MUC-15 | 2026-09-05 00:30:06 | 48.22591 | 17.61534 | 113° | 47km/h | 15986m | 3.4m/s | -58.5°C | 6.4% | 0hPa | 2.6V | 00:00:00 | 00:00:00 | 00:00:00 | |
| ATIDSZ-14 | 2026-09-05 00:30:05 | 48.22591 | 17.61534 | 113° | 47km/h | 15986m | 3.5m/s | -58.5°C | 2.8% | 0hPa | 2.6V | 00:00:00 | 00:00:00 | 00:00:00 | |
| OE3MUC-15 | 2026-09-05 00:30:02 | 48.22610 | 17.61469 | 119° | 51km/h | 15967m | 4.0m/s | -58.5°C | 6.3% | 0hPa | 2.6V | 00:00:00 | 00:00:00 | 08:30:00 | |
| OE3OSB-13 | 2026-09-05 00:29:48 | 48.22688 | 17.61165 | 112° | 66km/h | 15894m | 4.3m/s | -58.2°C | 2.7% | -1.0hPa | 2.6V | 00:00:00 | 00:00:00 | 00:00:00 | |
| OE3MUC-15 | 2026-09-05 00:29:46 | 48.22694 | 17.61142 | 114° | 62km/h | 15889m | 6.5m/s | -58.2°C | 6.3% | 0hPa | 2.6V | 00:00:00 | 00:00:00 | 00:00:00 | |
| HA6NAB-11 | 2026-09-05 00:29:44 | 48.22701 | 17.61121 | 116° | 62km/h | 15883m | 5.3m/s | -58.3°C | 2.9% | 0hPa | 2.6V | 00:00:00 | 00:00:00 | 00:00:00 | |
| DO3MHA-11 | 2026-09-05 00:29:43 | 48.22714 | 17.61078 | 114° | 60km/h | 15872m | 6.2m/s | -58.4°C | 6.3% | 0hPa | 2.6V | 00:00:00 | 01:07:00 | 00:00:00 | |
| PG1ADW-2 | 2026-09-05 00:29:40 | 48.22731 | 17.61015 | 114° | 69km/h | 15857m | 6.4m/s | -58.7°C | 6.4% | 0hPa | 2.6V | 00:00:00 | 00:00:00 | 00:00:00 | |
| DO3MHA-12 | 2026-09-05 00:29:39 | 48.22736 | 17.60996 | 113° | 66km/h | 15852m | 4.6m/s | 0°C | 0% | 0hPa | 2.5V | 00:00:00 | 01:06:56 | 00:00:00 | |
| DO3MHA-11 | 2026-09-05 00:29:33 | 48.22763 | 17.60861 | 109° | 75km/h | 15820m | 6.3m/s | 0°C | 0% | 0hPa | 2.5V | 00:00:00 | 01:06:50 | 00:00:00 | |
| PETON7-10 | 2026-09-05 00:29:28 | 48.22792 | 17.60726 | 107° | 71km/h | 15792m | 4.0m/s | -59.5°C | 6.9% | 0hPa | 2.5V | 00:00:00 | 00:00:00 | 00:00:00 | |
| ATIDSZ-14 | 2026-09-05 00:29:24 | 48.22809 | 17.60644 | 107° | 75km/h | 15776m | 5.1m/s | -59.7°C | 3.3% | 0hPa | 2.5V | 00:00:00 | 00:00:00 | 00:00:00 | |
| DO3MHA-11 | 2026-09-05 00:29:23 | 48.22818 | 17.60590 | 104° | 68km/h | 15765m | 4.9m/s | 0°C | 0% | 0hPa | 2.5V | 00:00:00 | 01:06:40 | 00:00:00 | |
| HA6NAB-11 | 2026-09-05 00:29:22 | 48.22818 | 17.60590 | 104° | 71km/h | 15765m | 4.9m/s | -59.7°C | 3.4% | 0hPa | 2.5V | 00:00:00 | 00:00:00 | 00:00:00 | |
| OE3MUC-15 | 2026-09-05 00:29:21 | 48.22827 | 17.60540 | 107° | 68km/h | 15754m | 5.6m/s | -59.6°C | 7.0% | 0hPa | 2.5V | 00:00:00 | 00:00:00 | 00:00:00 | |
| PG1ADW-2 | 2026-09-05 00:29:20 | 48.22832 | 17.60515 | 106° | 73km/h | 15750m | 3.8m/s | -59.6°C | 7.0% | 0hPa | 2.5V | 00:00:00 | 00:00:00 | 00:00:00 | |
| DO3MHA-12 | 2026-09-05 00:29:19 | 48.22836 | 17.60491 | 105° | 71km/h | 15745m | 5.0m/s | 0°C | 0% | 0hPa | 2.5V | 00:00:00 | 01:06:36 | 00:00:00 | |
| OE3MUC-15 | 2026-09-05 00:29:17 | 48.22844 | 17.60442 | 105° | 69km/h | 15733m | 5.3m/s | -59.6°C | 6.9% | 0hPa | 2.5V | 00:00:00 | 00:00:00 | 00:00:00 | |
| HA6NAB-11 | 2026-09-05 00:29:16 | 48.22844 | 17.60442 | 106° | 68km/h | 15733m | 5.4m/s | -59.7°C | 3.3% | 0hPa | 2.5V | 00:00:00 | 00:00:00 | 00:00:00 | |
| OE5DRO-10 | 2026-09-05 00:29:14 | 48.22857 | 17.60367 | 104° | 77km/h | 15717m | 5.1m/s | -59.6°C | 6.9% | 0hPa | 2.5V | 00:00:00 | 00:00:00 | 00:00:00 | |
| PETON7-10 | 2026-09-05 00:29:13 | 48.22860 | 17.60341 | 101° | 77km/h | 15712m | 6.2m/s | -59.7°C | 6.9% | 0hPa | 2.5V | 00:00:00 | 01:06:30 | 00:00:00 | |
| S52SK | 2026-09-05 00:29:12 | 48.22861 | 17.60341 | 102° | 71km/h | 15712m | 6.2m/s | -59.7°C | 3.3% | 0hPa | 2.5V | 00:00:00 | 00:00:00 | 00:00:00 | |
| Es werden nur die letzten 3500 von 4767 Frames angezeigt. GPX/KML und Diagramme bleiben verfügbar. | |||||||||||||||